﻿_id	Scenario	Year	Month	Day	Hour	GHI (W/m2)	DNI (W/m2)	DHI (W/m2)	Ambient Temp (°C)	Relative Humidity (%)	Wind Speed (m/s)	Measured front POA irradiance (W/m2)	Measured module temperature (°C)	Measured DC power (W)	Measured rear POA irradiance (W/m2)	DTU Filter 2	DTU Filter 3	DTU Filter 4	bsrn_pass
1	S6	2020	1	1	1	0	0	0	0	0	0	0	0.0	0	0.0	1	1	1	0
2	S6	2020	1	1	2	0	0	0	0	0	0	0	0.0	0	0.0	1	1	1	0
3	S6	2020	1	1	3	0	0	0	0	0	0	0	0.0	0	0.0	1	1	1	0
4	S6	2020	1	1	4	0	0	0	0	0	0	0	0.0	0	0.0	1	1	1	0
5	S6	2020	1	1	5	0	0	0	0	0	0	0	0.0	0	0.0	1	1	1	0
6	S6	2020	1	1	6	0	0	0	0	0	0	0	0.0	0	0.0	1	1	1	0
7	S6	2020	1	1	7	0	0	0	0	0	0	0	0.0	0	0.0	1	1	1	0
8	S6	2020	1	1	8	0	0	0	0	0	0	0	0.0	0	0.0	1	1	1	0
9	S6	2020	1	1	9	4.8498418564381804429785915999673306941986083984375	0.2453478066169690052777951905227382667362689971923828125	4.91418125836745023349294569925405085086822509765625	5.7804348365120201691524925990961492061614990234375	78.6826090605361940788498031906783580780029296875	3.086956526274259982045577999087981879711151123046875	1.466666687823209969110394013114273548126220703125	0.0	37.36665325704959883523770258761942386627197265625	0.0	1	1	1	0
10	S6	2020	1	1	10	22.735118496417999978120860760100185871124267578125	1.532759587508099929920035719987936317920684814453125	22.62855976687529846458346582949161529541015625	5.79833341439564975416942615993320941925048828125	78.5799996693929045932236476801335811614990234375	3.320555546217490050509013599366880953311920166015625	23.049999882156601671567841549403965473175048828125	0.0	660.026718458781033405102789402008056640625	0.0	1	1	1	1
11	S6	2020	1	1	11	50.20638313293449783714095246978104114532470703125	5.3110485105050901921686090645380318164825439453125	49.38302199575630169192663743160665035247802734375	5.71833329995472983142690281965769827365875244140625	79.834999211629195770001388154923915863037109375	2.796944435437520137810452069970779120922088623046875	49.749999834845397117533138953149318695068359375	0.0	1460.74379061659010403673164546489715576171875	0.0	1	1	1	1
12	S6	2020	1	1	12	82.93482490115690097809419967234134674072265625	0.78240626272227997706210089745582081377506256103515625	82.67323873307969961388153024017810821533203125	5.85666670004525968806774471886456012725830078125	79.9049995422362968611196265555918216705322265625	3.0869444427390799745580807211808860301971435546875	78.5500003645818054565097554586827754974365234375	0.0	2255.38923591374987154267728328704833984375	0.0	1	1	1	1
13	S6	2020	1	1	13	73.2974988889560989946403424255549907684326171875	3.769993822803729965897900910931639373302459716796875	72.5957714813996943803431349806487560272216796875	6.0164345247167698715884398552589118480682373046875	79.5754872059090985203511081635951995849609375	3.3025069592058802214751267456449568271636962890625	77.24999990314239539657137356698513031005859375	0.0	2022.707266112159913973300717771053314208984375	0.0	1	1	1	1
14	S6	2020	1	1	14	99.8715632120767935475669219158589839935302734375	33.136262292414897956405184231698513031005859375	93.190737130906796892304555512964725494384765625	6.01999996503194001462588857975788414478302001953125	79.30166676839189676684327423572540283203125	3.004999999784760067456090837367810308933258056640625	136.950000623861996018604259006679058074951171875	0.0	3214.72475081681977826519869267940521240234375	0.0	1	1	1	1
15	S6	2020	1	1	15	47.57909571859570263541172607801854610443115234375	2.271933456386120209202772457501851022243499755859375	47.41080524656499761704253614880144596099853515625	5.9516667127609199638982317992486059665679931640625	79.8049995422363025454615126363933086395263671875	3.05666665509343005169284879229962825775146484375	44.9333335893849010744816041551530361175537109375	0.0	1210.18514186143011102103628218173980712890625	0.0	1	1	1	1
16	S6	2020	1	1	16	13.487684012352300300108254305087029933929443359375	0.2271001312728229970527848990968777798116207122802734375	13.5667323708980003260649027652107179164886474609375	5.8202247941092100091964312014169991016387939453125	80.6539322070861004476682865060865879058837890625	2.863295868987890013812602774123661220073699951171875	8.216666748436789902143573272041976451873779296875	0.0	243.7253027455880101115326397120952606201171875	0.0	1	1	1	1
17	S6	2020	1	1	17	0	0	0	0	0	0	0.0166666674582915987079534403392244712449610233306884765625	0.0	3.27160663437101018047314937575720250606536865234375	0.0	1	1	1	0
18	S6	2020	1	1	18	0	0	0	0	0	0	0	0.0	0	0.0	1	1	1	0
19	S6	2020	1	1	19	0	0	0	0	0	0	0	0.0	0	0.0	1	1	1	0
20	S6	2020	1	1	20	0	0	0	0	0	0	0	0.0	0	0.0	1	1	1	0
21	S6	2020	1	1	21	0	0	0	0	0	0	0	0.0	0	0.0	1	1	1	0
22	S6	2020	1	1	22	0	0	0	0	0	0	0	0.0	0	0.0	1	1	1	0
23	S6	2020	1	1	23	0	0	0	0	0	0	0	0.0	0	0.0	1	1	1	0
24	S6	2020	1	1	24	0	0	0	0	0	0	0	0.0	0	0.0	1	1	1	0
25	S6	2020	1	2	1	0	0	0	0	0	0	0	0.0	0	0.0	1	1	1	0
26	S6	2020	1	2	2	0	0	0	0	0	0	0	0.0	0	0.0	1	1	1	0
27	S6	2020	1	2	3	0	0	0	0	0	0	0	0.0	0	0.0	1	1	1	0
28	S6	2020	1	2	4	0	0	0	0	0	0	0	0.0	0	0.0	1	1	1	0
29	S6	2020	1	2	5	0	0	0	0	0	0	0	0.0	0	0.0	1	1	1	0
30	S6	2020	1	2	6	0	0	0	0	0	0	0	0.0	0	0.0	1	1	1	0
31	S6	2020	1	2	7	0	0	0	0	0	0	0	0.0	0	0.0	1	1	1	0
32	S6	2020	1	2	8	0	0	0	0	0	0	0	0.0	0	0.0	1	1	1	0
33	S6	2020	1	2	9	3.5623668346208301471733648213557898998260498046875	0.23940924793174500617709554717293940484523773193359375	3.6227381917619201345814872183836996555328369140625	2.829896949001189820904755833907984197139739990234375	89.3608267872603931891717365942895412445068359375	3.3381443257184297834783137659542262554168701171875	1.1500000332792599255782306499895639717578887939453125	0.0	22.76942001190030140378439682535827159881591796875	0.0	1	1	1	0
34	S6	2020	1	2	10	18.513829488224399000273479032330214977264404296875	0.261782508509026012877285438662511296570301055908203125	18.5356181912951996082483674399554729461669921875	2.953333342075339817967005728860385715961456298828125	89.1116666158039976153304451145231723785400390625	3.402499998278079917923832908854819834232330322265625	19.233333319425501173327575088478624820709228515625	0.0	544.5618233953910021227784454822540283203125	0.0	1	1	1	1
35	S6	2020	1	2	11	29.984202618069101475839488557539880275726318359375	0.267281295441917976507539833619375713169574737548828125	29.961033752229401017075360869057476520538330078125	3.024999972184490015791880068718455731868743896484375	88.6550000508625970496723311953246593475341796875	3.179444445172940003629946659202687442302703857421875	29.433333718528299272065851255320012569427490234375	0.0	841.9893947740380326649756170809268951416015625	0.0	1	1	1	1
36	S6	2020	1	2	12	54.83207798004149680082264239899814128875732421875	0.263090638650788022356863393724779598414897918701171875	54.78463112513220067967267823405563831329345703125	2.731666652361549818550656709703616797924041748046875	87.7983328501382942476993775926530361175537109375	2.97555554641617003852616107906214892864227294921875	54.20000037799260184101513004861772060394287109375	0.0	1511.398368328799961091135628521442413330078125	0.0	1	1	1	1
37	S6	2020	1	2	13	79.5152311960855939787506940774619579315185546875	2.91869666659169002542739690397866070270538330078125	78.4778369585672948005594662390649318695068359375	2.73333333333332983983154917950741946697235107421875	86.2466664632161013059885590337216854095458984375	3.1533333232005400503794589894823729991912841796875	85.050000436603795606060884892940521240234375	0.0	2390.9927849968198643182404339313507080078125	0.0	1	1	1	1
38	S6	2020	1	2	14	42.66804889043169879414563183672726154327392578125	0.34607904447863402364049534298828803002834320068359375	42.6130141523149035265305428765714168548583984375	2.895000020662939821392001249478198587894439697265625	85.7800001780191934130925801582634449005126953125	2.312222219175759985176910049631260335445404052734375	38.31666698679330096410922124050557613372802734375	0.0	1080.9475732346299992059357464313507080078125	0.0	1	1	1	1
39	S6	2020	1	2	15	20.14855083624519949125897255726158618927001953125	0.2321293567203810137566932780828210525214672088623046875	20.1634210692511004481275449506938457489013671875	2.97166668176650983212994105997495353221893310546875	85.5250003814696952986196265555918216705322265625	2.558888885047700068042786369915120303630828857421875	16.983333447327201071175295510329306125640869140625	0.0	474.1225091740479911095462739467620849609375	0.0	1	1	1	1
40	S6	2020	1	2	16	4.9326932962904503909840059350244700908660888671875	0.1955710831989949938236605930796940810978412628173828125	4.9811009193988500243222006247378885746002197265625	2.876595776131809945042050458141602575778961181640625	85.9978715612533051171340048313140869140625	2.531205671053399886005763619323261082172393798828125	2.583333392006660123030314935022033751010894775390625	0.0	77.3052316779891981468608719296753406524658203125	0.0	1	1	1	1
41	S6	2020	1	2	17	0	0	0	0	0	0	0	0.0	0	0.0	1	1	1	0
42	S6	2020	1	2	18	0	0	0	0	0	0	0	0.0	0	0.0	1	1	1	0
43	S6	2020	1	2	19	0	0	0	0	0	0	0	0.0	0	0.0	1	1	1	0
44	S6	2020	1	2	20	0	0	0	0	0	0	0	0.0	0	0.0	1	1	1	0
45	S6	2020	1	2	21	0	0	0	0	0	0	0	0.0	0	0.0	1	1	1	0
46	S6	2020	1	2	22	0	0	0	0	0	0	0	0.0	0	0.0	1	1	1	0
47	S6	2020	1	2	23	0	0	0	0	0	0	0	0.0	0	0.0	1	1	1	0
48	S6	2020	1	2	24	0	0	0	0	0	0	0	0.0	0	0.0	1	1	1	0
49	S6	2020	1	3	1	0	0	0	0	0	0	0	0.0	0	0.0	1	1	1	0
50	S6	2020	1	3	2	0	0	0	0	0	0	0	0.0	0	0.0	1	1	1	0
51	S6	2020	1	3	3	0	0	0	0	0	0	0	0.0	0	0.0	1	1	1	0
52	S6	2020	1	3	4	0	0	0	0	0	0	0	0.0	0	0.0	1	1	1	0
53	S6	2020	1	3	5	0	0	0	0	0	0	0	0.0	0	0.0	1	1	1	0
54	S6	2020	1	3	6	0	0	0	0	0	0	0	0.0	0	0.0	1	1	1	0
55	S6	2020	1	3	7	0	0	0	0	0	0	0	0.0	0	0.0	1	1	1	0
56	S6	2020	1	3	8	0	0	0	0	0	0	0	0.0	0	0.0	1	1	1	0
57	S6	2020	1	3	9	1.3515955779863400021412189744296483695507049560546875	0.22711743608764900503871331238769926130771636962890625	1.379819759424179892448591999709606170654296875	6.03188402756399977278078949893824756145477294921875	93.0115930308465976850129663944244384765625	4.860869559688840269018328399397432804107666015625	0.433333351975320024696003429198754020035266876220703125	0.0	0	0.0	1	1	1	0
58	S6	2020	1	3	10	5.2400577005412802833461682894267141819000244140625	0.2481149576190440075862397861783392727375030517578125	5.3450982819000802948039563489146530628204345703125	6.41833328406015990452715413994155824184417724609375	92.4400000254313027880925801582634449005126953125	4.508888890345890132493877899833023548126220703125	4.76666678053636960754602114320732653141021728515625	0.0	148.051509711270000479998998343944549560546875	0.0	1	1	1	1
59	S6	2020	1	3	11	17.615831255912699049304137588478624820709228515625	0.238049946642583998279718571211560629308223724365234375	17.7188639349406997780533856712281703948974609375	6.87666674455005999533341309870593249797821044921875	92.2849999745686062624372425489127635955810546875	4.36305555635027975114326181937940418720245361328125	16.10000010890259858342687948606908321380615234375	0.0	473.23769442737102508544921875	0.0	1	1	1	1
60	S6	2020	1	3	12	16.020454721980598833397380076348781585693359375	0.235467224030031008208396769987302832305431365966796875	16.0927501466538984686849289573729038238525390625	7.1216666618982902292600556393153965473175048828125	93.370000076293905522106797434389591217041015625	3.509722221559940180668490938842296600341796875	14.45000031962990050260486896149814128875732421875	0.0	422.7045423040780178780551068484783172607421875	0.0	1	1	1	1
61	S6	2020	1	3	13	25.082935025956800245694466866552829742431640625	0.2167601135455889949099628211115486919879913330078125	25.145664323700799513972015120089054107666015625	7.36333344777424958493838857975788414478302001953125	94.0700002034505047276979894377291202545166015625	2.7949999941719898544079114799387753009796142578125	21.98333339765660099374144920147955417633056640625	0.0	640.066455987592007659259252250194549560546875	0.0	1	1	1	1
62	S6	2020	1	3	14	19.739238090631399558105840696953237056732177734375	0.1643195155910930072007403168754535727202892303466796875	19.778501709786798556933717918582260608673095703125	6.43170731096731973508440205478109419345855712890625	94.3939018482114988728426396846771240234375	1.7185975582134400685418995635700412094593048095703125	16.60000028787180070821705157868564128875732421875	0.0	496.1810968040180114257964305579662322998046875	0.0	1	1	1	1
63	S6	2020	1	3	15	25.1023546192380990760284475982189178466796875	0.214258196411861001617893407455994747579097747802734375	25.503930017683199338307531434111297130584716796875	6.0349999904632500857815102790482342243194580078125	88.6083334604899022224344662390649318695068359375	1.54388888660403988950520215439610183238983154296875	20.799999885881899075457113212905824184417724609375	0.0	618.45637597143695529666729271411895751953125	0.0	1	1	1	1
64	S6	2020	1	3	16	12.639941131448399147529926267452538013458251953125	0.267018874350806012518688703494262881577014923095703125	13.0118001513398002799704045173712074756622314453125	5.98901735978319038622430525720119476318359375	87.023699589547305777159635908901691436767578125	1.60520231017487002844745802576653659343719482421875	5.90000005322508958016669566859491169452667236328125	0.0	195.541145101500006830974598415195941925048828125	0.0	1	1	1	1
65	S6	2020	1	3	17	0	0	0	0	0	0	0	0.0	0	0.0	1	1	1	0
66	S6	2020	1	3	18	0	0	0	0	0	0	0	0.0	0	0.0	1	1	1	0
67	S6	2020	1	3	19	0	0	0	0	0	0	0	0.0	0	0.0	1	1	1	0
68	S6	2020	1	3	20	0	0	0	0	0	0	0	0.0	0	0.0	1	1	1	0
69	S6	2020	1	3	21	0	0	0	0	0	0	0	0.0	0	0.0	1	1	1	0
70	S6	2020	1	3	22	0	0	0	0	0	0	0	0.0	0	0.0	1	1	1	0
71	S6	2020	1	3	23	0	0	0	0	0	0	0	0.0	0	0.0	1	1	1	0
72	S6	2020	1	3	24	0	0	0	0	0	0	0	0.0	0	0.0	1	1	1	0
73	S6	2020	1	4	1	0	0	0	0	0	0	0	0.0	0	0.0	1	1	1	0
74	S6	2020	1	4	2	0	0	0	0	0	0	0	0.0	0	0.0	1	1	1	0
75	S6	2020	1	4	3	0	0	0	0	0	0	0	0.0	0	0.0	1	1	1	0
76	S6	2020	1	4	4	0	0	0	0	0	0	0	0.0	0	0.0	1	1	1	0
77	S6	2020	1	4	5	0	0	0	0	0	0	0	0.0	0	0.0	1	1	1	0
78	S6	2020	1	4	6	0	0	0	0	0	0	0	0.0	0	0.0	1	1	1	0
79	S6	2020	1	4	7	0	0	0	0	0	0	0	0.0	0	0.0	1	1	1	0
80	S6	2020	1	4	8	0	0	0	0	0	0	0	0.0	0	0.0	1	1	1	0
81	S6	2020	1	4	9	0.7587503399699919715004625686560757458209991455078125	0.08563840510323640631273889312069513835012912750244140625	0.66063598636537701480619944049976766109466552734375	2.684210563960820028484022259362973272800445556640625	91.73999900817869956881622783839702606201171875	1.4631579126182299166458733452600426971912384033203125	0	0.0	0	0.0	1	1	1	0
82	S6	2020	1	4	10	7.902908042893489692914954503066837787628173828125	0.1927261706185310063954574388844775967299938201904296875	7.97398876050196037112982594408094882965087890625	2.52293575684957982474543314310722053050994873046875	92.9665130125273009298325632698833942413330078125	1.72293577937904007768565861624665558338165283203125	4.85000003245659971895520357065834105014801025390625	0.0	134.200603592519001949767698533833026885986328125	0.0	1	1	1	1
83	S6	2020	1	4	11	56.54433204862800010914725135080516338348388671875	74.7857866534963022786541841924190521240234375	43.66414077017039829797795391641557216644287109375	2.98500000437099988204181499895639717578887939453125	92.5591658274332047540156054310500621795654296875	2.84888888994851985358991441898979246616363525390625	47.46666685678059849351484444923698902130126953125	0.0	2013.3961805452900080126710236072540283203125	0.0	1	1	1	1
84	S6	2020	1	4	12	135.020268733275003114613355137407779693603515625	371.22077631733901625921134836971759796142578125	62.4104574405946976867198827676475048065185546875	4.51703914117546023732074900181032717227935791015625	83.539665243479106493396102450788021087646484375	3.91871507474164015860651488765142858028411865234375	75.1500003039837025653469027020037174224853515625	0.0	5362.15448379516965360380709171295166015625	0.0	1	1	1	1
85	S6	2020	1	4	13	162.04037971496501313595217652618885040283203125	502.94165013631101146529545076191425323486328125	61.912987666659802243884769268333911895751953125	5.40166667699813007885722981882281601428985595703125	74.721667098999006384474341757595539093017578125	3.95416666004391981203980321879498660564422607421875	411.283331116040017150226049125194549560546875	0.0	6241.4014702041904456564225256443023681640625	0.0	1	1	1	1
86	S6	2020	1	4	14	138.430344899494997434885590337216854095458984375	481.25778316921599753186455927789211273193359375	54.529975138770197418125462718307971954345703125	5.6899999221165895590957006788812577724456787109375	70.0108333587646001205939683131873607635498046875	3.7844444414807600907124651712365448474884033203125	375.999999046325001472723670303821563720703125	0.0	5534.710455934209676343016326427459716796875	0.0	1	1	1	1
87	S6	2020	1	4	15	75.406218836042597786217811517417430877685546875	268.41347876787102677553775720298290252685546875	42.383858749601500903736450709402561187744140625	5.66583335002262966639818841940723359584808349609375	70.3183330535888018175683100707828998565673828125	2.438333331214050048174613039009273052215576171875	196.65000053743500529890297912061214447021484375	0.0	2836.9899392127999817603267729282379150390625	0.0	1	1	1	1
88	S6	2020	1	4	16	24.08148986290699866685827146284282207489013671875	91.1054059764099974927376024425029754638671875	18.722244336832499556066977675072848796844482421875	5.1413427983071695592798278084956109523773193359375	69.3176679847097005904288380406796932220458984375	1.1074204957737900922865037500741891562938690185546875	36.11666676200299974652807577513158321380615234375	0.0	502.766660973428997749579139053821563720703125	0.0	1	1	1	0
89	S6	2020	1	4	17	0	0	0	0	0	0	0	0.0	5.93337657240534976921253473847173154354095458984375	0.0	1	1	1	0
90	S6	2020	1	4	18	0	0	0	0	0	0	0	0.0	0	0.0	1	1	1	0
91	S6	2020	1	4	19	0	0	0	0	0	0	0	0.0	0	0.0	1	1	1	0
92	S6	2020	1	4	20	0	0	0	0	0	0	0	0.0	0	0.0	1	1	1	0
93	S6	2020	1	4	21	0	0	0	0	0	0	0	0.0	0	0.0	1	1	1	0
94	S6	2020	1	4	22	0	0	0	0	0	0	0	0.0	0	0.0	1	1	1	0
95	S6	2020	1	4	23	0	0	0	0	0	0	0	0.0	0	0.0	1	1	1	0
96	S6	2020	1	4	24	0	0	0	0	0	0	0	0.0	0	0.0	1	1	1	0
97	S6	2020	1	5	1	0	0	0	0	0	0	0	0.0	0	0.0	1	1	1	0
98	S6	2020	1	5	2	0	0	0	0	0	0	0	0.0	0	0.0	1	1	1	0
99	S6	2020	1	5	3	0	0	0	0	0	0	0	0.0	0	0.0	1	1	1	0
100	S6	2020	1	5	4	0	0	0	0	0	0	0	0.0	0	0.0	1	1	1	0
101	S6	2020	1	5	5	0	0	0	0	0	0	0	0.0	0	0.0	1	1	1	0
102	S6	2020	1	5	6	0	0	0	0	0	0	0	0.0	0	0.0	1	1	1	0
103	S6	2020	1	5	7	0	0	0	0	0	0	0	0.0	0	0.0	1	1	1	0
104	S6	2020	1	5	8	0	0	0	0	0	0	0	0.0	0	0.0	1	1	1	0
105	S6	2020	1	5	9	11.7744740735400004183475175523199141025543212890625	24.117136454717599036712272209115326404571533203125	10.9780812751163008300636647618375718593597412109375	2.113636304031710100304053412401117384433746337890625	87.037500294772002007448463700711727142333984375	1.843181814659720085813887635595165193080902099609375	4.78333340724929012566235542180947959423065185546875	0.0	149.128166648247997727594338357448577880859375	0.0	1	1	1	0
106	S6	2020	1	5	10	28.598503033320099575576023198664188385009765625	8.7664883992324202921508913277648389339447021484375	28.238234037823101374442558153532445430755615234375	2.33249997297922018191229653893969953060150146484375	84.07000013987220654598786495625972747802734375	1.090000000596039964051442439085803925991058349609375	27.183333039283699150701067992486059665679931640625	0.0	819.8957451929640001253574155271053314208984375	0.0	1	1	1	1
107	S6	2020	1	5	11	89.6254073990715056652334169484674930572509765625	113.1847544572409987040373380295932292938232421875	71.09432704713600514878635294735431671142578125	2.782500000794720040886431888793595135211944580078125	81.1950000127155959717129007913172245025634765625	1.1388888936903700521696691794204525649547576904296875	76.1000001182157035373165854252874851226806640625	0.0	3233.14061661560981519869528710842132568359375	0.0	1	1	1	1
108	S6	2020	1	5	12	90.29751612345370404000277630984783172607421875	3.40654044018851021036198289948515594005584716796875	89.1554764853583066042119753547012805938720703125	3.526666653156279807035389239899814128875732421875	79.4966669718424014945412636734545230865478515625	1.7958333297736099876118487372878007590770721435546875	92.96666694184159496217034757137298583984375	0.0	2768.00635606049991110921837389469146728515625	0.0	1	1	1	1
109	S6	2020	1	5	13	89.3607905493842054056585766375064849853515625	1.779227711467270101053372854948975145816802978515625	88.617343902587805359871708787977695465087890625	3.993333351612089909821179389837197959423065185546875	79.02583274841299498802982270717620849609375	2.441944443517260143750036149867810308933258056640625	94.3333333979044965644789044745266437530517578125	0.0	2708.03324927885978468111716210842132568359375	0.0	1	1	1	1
110	S6	2020	1	5	14	75.190951993730294589113327674567699432373046875	0.314377844292256014568920363672077655792236328125	75.116828536987299003158113919198513031005859375	4.520833349227899589095613919198513031005859375	80.4450000127155959717129007913172245025634765625	3.01277777850626993227933780872263014316558837890625	69.3333335841694946566349244676530361175537109375	0.0	2001.315091053639889651094563305377960205078125	0.0	1	1	1	1
111	S6	2020	1	5	15	35.794341818491602680296637117862701416015625	0.1987383690559199889147379280984750948846340179443359375	35.81395983166159879829137935303151607513427734375	4.800000071525570177755071199499070644378662109375	82.430833562215099163950071670114994049072265625	3.0547222197055798886822230997495353221893310546875	30.216666652510500767903067753650248050689697265625	0.0	871.081493546565980068407952785491943359375	0.0	1	1	1	1
112	S6	2020	1	5	16	7.30932236976749027945743364398367702960968017578125	0.1478855245828409881170273365569300949573516845703125	7.32794117612807038852906771353445947170257568359375	4.63498352541780977986718426109291613101959228515625	87.22838255123730277773574925959110260009765625	3.79801980615054990408907542587257921695709228515625	3.96666676582148003404881819733418524265289306640625	0.0	120.9843467921009931842490914277732372283935546875	0.0	1	1	1	1
113	S6	2020	1	5	17	0	0	0	0	0	0	0	0.0	0	0.0	1	1	1	0
114	S6	2020	1	5	18	0	0	0	0	0	0	0	0.0	0	0.0	1	1	1	0
115	S6	2020	1	5	19	0	0	0	0	0	0	0	0.0	0	0.0	1	1	1	0
116	S6	2020	1	5	20	0	0	0	0	0	0	0	0.0	0	0.0	1	1	1	0
117	S6	2020	1	5	21	0	0	0	0	0	0	0	0.0	0	0.0	1	1	1	0
118	S6	2020	1	5	22	0	0	0	0	0	0	0	0.0	0	0.0	1	1	1	0
119	S6	2020	1	5	23	0	0	0	0	0	0	0	0.0	0	0.0	1	1	1	0
120	S6	2020	1	5	24	0	0	0	0	0	0	0	0.0	0	0.0	1	1	1	0
121	S6	2020	1	6	1	0	0	0	0	0	0	0	0.0	0	0.0	1	1	1	0
122	S6	2020	1	6	2	0	0	0	0	0	0	0	0.0	0	0.0	1	1	1	0
123	S6	2020	1	6	3	0	0	0	0	0	0	0	0.0	0	0.0	1	1	1	0
124	S6	2020	1	6	4	0	0	0	0	0	0	0	0.0	0	0.0	1	1	1	0
125	S6	2020	1	6	5	0	0	0	0	0	0	0	0.0	0	0.0	1	1	1	0
126	S6	2020	1	6	6	0	0	0	0	0	0	0	0.0	0	0.0	1	1	1	0
127	S6	2020	1	6	7	0	0	0	0	0	0	0	0.0	0	0.0	1	1	1	0
128	S6	2020	1	6	8	0	0	0	0	0	0	0	0.0	0	0.0	1	1	1	0
129	S6	2020	1	6	9	3.035992354881469790228720739833079278469085693359375	0.1821744600992369900183120989822782576084136962890625	3.114364294017229806144086978747509419918060302734375	6.46219515800475985400908029987476766109466552734375	95.345122825808601874086889438331127166748046875	2.33658536759817980765774336759932339191436767578125	0.983333378098909971498642335063777863979339599609375	0.0	16.3863633565294009031276800669729709625244140625	0.0	1	1	1	0
130	S6	2020	1	6	10	6.7236451381394797266466412111185491085052490234375	0.18766246700570599070800881236209534108638763427734375	6.84459158886714025271658101701177656650543212890625	6.6532212225328901666898673283867537975311279296875	95.324370782248394107227795757353305816650390625	2.095238091064099972271606020512990653514862060546875	6.033333476322379596012979163788259029388427734375	0.0	167.51039829105098988293320871889591217041015625	0.0	1	1	1	1
131	S6	2020	1	6	11	18.114755725860501200941143906675279140472412109375	0.188982811363205993604452714862418361008167266845703125	18.246857410006999344886935432441532611846923828125	6.73083328008651005092133345897309482097625732421875	95.6374989827474024650655337609350681304931640625	1.9102777779102300126368163546430878341197967529296875	17.199999823545400801094729104079306125640869140625	0.0	492.83674359321497604469186626374721527099609375	0.0	1	1	1	1
132	S6	2020	1	6	12	28.27618731392750106579114799387753009796142578125	0.2089494903882339882361662830589921213686466217041015625	28.422571637895298835019275429658591747283935546875	6.770833373069759630880071199499070644378662109375	96.1733334223429068288169219158589839935302734375	2.040555553634959995434883239795453846454620361328125	26.750000100582798978621212881989777088165283203125	0.0	760.8290024101739845718839205801486968994140625	0.0	1	1	1	1
133	S6	2020	1	6	13	32.8766124354468018964325892738997936248779296875	0.2290195458051229870921616793566499836742877960205078125	33.07447306315099666562673519365489482879638671875	7.13083331982293966433417153893969953060150146484375	96.045834032694500592697295360267162322998046875	1.62972222227188989762680648709647357463836669921875	30.38333350171640034886877401731908321380615234375	0.0	873.4860770404339973538299091160297393798828125	0.0	1	1	1	1
134	S6	2020	1	6	14	22.618349674012900862862807116471230983734130859375	0.172586359476877004848205388043425045907497406005859375	22.7515557183158989573712460696697235107421875	7.09916658798853017486862881924025714397430419921875	95.840833028157504713817615993320941925048828125	2.15194443828529013984507400891743600368499755859375	19.466666722049300375374514260329306125640869140625	0.0	552.680419882138949105865322053432464599609375	0.0	1	1	1	1
135	S6	2020	1	6	15	16.336855604913498751784572959877550601959228515625	0.1852694588195940017527618692838586866855621337890625	16.49084251986599980455139302648603916168212890625	7.19416662454604960430515347979962825775146484375	95.5175007502237036760561750270426273345947265625	2.040277776039300050570091116242110729217529296875	14.033333382879700224066255032084882259368896484375	0.0	413.6799296364180236196261830627918243408203125	0.0	1	1	1	1
136	S6	2020	1	6	16	7.9201396724344501620862502022646367549896240234375	0.1611850399872009897972446879066410474479198455810546875	8.0463679884544294651504969806410372257232666015625	7.21003457336689024259612779133021831512451171875	94.2626294462738059110051835887134075164794921875	2.133564012273370114058934632339514791965484619140625	4.3166667145366499624969947035424411296844482421875	0.0	132.504218498554990901538985781371593475341796875	0.0	1	1	1	1
137	S6	2020	1	6	17	0	0	0	0	0	0	0	0.0	0	0.0	1	1	1	0
138	S6	2020	1	6	18	0	0	0	0	0	0	0	0.0	0	0.0	1	1	1	0
139	S6	2020	1	6	19	0	0	0	0	0	0	0	0.0	0	0.0	1	1	1	0
140	S6	2020	1	6	20	0	0	0	0	0	0	0	0.0	0	0.0	1	1	1	0
141	S6	2020	1	6	21	0	0	0	0	0	0	0	0.0	0	0.0	1	1	1	0
142	S6	2020	1	6	22	0	0	0	0	0	0	0	0.0	0	0.0	1	1	1	0
143	S6	2020	1	6	23	0	0	0	0	0	0	0	0.0	0	0.0	1	1	1	0
144	S6	2020	1	6	24	0	0	0	0	0	0	0	0.0	0	0.0	1	1	1	0
145	S6	2020	1	7	1	0	0	0	0	0	0	0	0.0	0	0.0	1	1	1	0
146	S6	2020	1	7	2	0	0	0	0	0	0	0	0.0	0	0.0	1	1	1	0
147	S6	2020	1	7	3	0	0	0	0	0	0	0	0.0	0	0.0	1	1	1	0
148	S6	2020	1	7	4	0	0	0	0	0	0	0	0.0	0	0.0	1	1	1	0
149	S6	2020	1	7	5	0	0	0	0	0	0	0	0.0	0	0.0	1	1	1	0
150	S6	2020	1	7	6	0	0	0	0	0	0	0	0.0	0	0.0	1	1	1	0
151	S6	2020	1	7	7	0	0	0	0	0	0	0	0.0	0	0.0	1	1	1	0
152	S6	2020	1	7	8	0	0	0	0	0	0	0	0.0	0	0.0	1	1	1	0
153	S6	2020	1	7	9	2.132179932235029884424193369341082870960235595703125	0.1667426150955559904787151026539504528045654296875	2.184661599871230208691486041061580181121826171875	4.334246641969020430451564607210457324981689453125	93.157532469866993096729856915771961212158203125	2.34383561513195015635346862836740911006927490234375	0.483333352409925975923243868237477727234363555908203125	0.0	9.1491833717252202262670834898017346858978271484375	0.0	1	1	1	0
154	S6	2020	1	7	10	10.0992613865268996420354596921242773532867431640625	0.1969204107299440120737443749021622352302074432373046875	10.21569304996059912582495599053800106048583984375	4.60666669209798040895975645980797708034515380859375	93.5858335494994975078952847979962825775146484375	2.516944443186119872990502699394710361957550048828125	9.366666890370350273542499053291976451873779296875	0.0	270.47276617959101940869004465639591217041015625	0.0	1	1	1	1
155	S6	2020	1	7	11	36.913288667466900960789644159376621246337890625	0.27115709069702298439352716741268523037433624267578125	37.0706904384824014186960994265973567962646484375	5.25916665395099958146829521865583956241607666015625	94.1583318710327006328952847979962825775146484375	2.8380555556880100454009152599610388278961181640625	35.63333339989179648910067044198513031005859375	0.0	1010.5808693915599860702059231698513031005859375	0.0	1	1	1	1
156	S6	2020	1	7	12	58.78550608423019951942478655837476253509521484375	0.274807713170432010851840232135145924985408782958984375	58.872502681944098412714083679020404815673828125	6.19583337704340042506601093919016420841217041015625	94.25416711171459382967441342771053314208984375	2.950555557674829909586833309731446206569671630859375	52.8666668881972015014980570413172245025634765625	0.0	1542.765572667120068217627704143524169921875	0.0	1	1	1	1
157	S6	2020	1	7	13	21.334441410170601471918416791595518589019775390625	0.2340771963819860135291861524819978512823581695556640625	21.4006964815987004158159834332764148712158203125	6.63750000794728034492209189920686185359954833984375	94.4233340581258033807898755185306072235107421875	1.840555552724330024005894301808439195156097412109375	20.1833333664882985658550751395523548126220703125	0.0	584.9605916688830120619968511164188385009765625	0.0	1	1	1	1
158	S6	2020	1	7	14	48.662892182668002760692615993320941925048828125	0.269670235862334017884478498672251589596271514892578125	49.06732971403329912618573871441185474395751953125	7.20666663249332994922724537900649011135101318359375	93.63666629791259765625	1.643055552906460103912422709981910884380340576171875	45.3166667682427970476055634208023548126220703125	0.0	1266.88315942882991294027306139469146728515625	0.0	1	1	1	1
159	S6	2020	1	7	15	39.875015763519201072995201684534549713134765625	0.202800250474706011960535079197143204510211944580078125	40.3698780994892985063415835611522197723388671875	7.40389978918855984346691911923699080944061279296875	89.7715879137468988346881815232336521148681640625	2.200557097585079890933457136270590126514434814453125	35.76666656881570105497303302399814128875732421875	0.0	1027.483081569270098043489269912242889404296875	0.0	1	1	1	1
160	S6	2020	1	7	16	17.90436266197090020568793988786637783050537109375	0.1693130038264719916529799093041219748556613922119140625	18.134565819468701164396406966261565685272216796875	7.30381947093539007909157589892856776714324951171875	87.4024306668174943979465751908719539642333984375	2.330902776370439966058256686665117740631103515625	12.03333344698570073205701191909611225128173828125	0.0	353.94034913430601818618015386164188385009765625	0.0	1	1	1	1
161	S6	2020	1	7	17	0	0	0	0	0	0	0	0.0	1.9478133336330401004232726336340419948101043701171875	0.0	1	1	1	0
162	S6	2020	1	7	18	0	0	0	0	0	0	0	0.0	0	0.0	1	1	1	0
163	S6	2020	1	7	19	0	0	0	0	0	0	0	0.0	0	0.0	1	1	1	0
164	S6	2020	1	7	20	0	0	0	0	0	0	0	0.0	0	0.0	1	1	1	0
165	S6	2020	1	7	21	0	0	0	0	0	0	0	0.0	0	0.0	1	1	1	0
166	S6	2020	1	7	22	0	0	0	0	0	0	0	0.0	0	0.0	1	1	1	0
167	S6	2020	1	7	23	0	0	0	0	0	0	0	0.0	0	0.0	1	1	1	0
168	S6	2020	1	7	24	0	0	0	0	0	0	0	0.0	0	0.0	1	1	1	0
169	S6	2020	1	8	1	0	0	0	0	0	0	0	0.0	0	0.0	1	1	1	0
170	S6	2020	1	8	2	0	0	0	0	0	0	0	0.0	0	0.0	1	1	1	0
171	S6	2020	1	8	3	0	0	0	0	0	0	0	0.0	0	0.0	1	1	1	0
172	S6	2020	1	8	4	0	0	0	0	0	0	0	0.0	0	0.0	1	1	1	0
173	S6	2020	1	8	5	0	0	0	0	0	0	0	0.0	0	0.0	1	1	1	0
174	S6	2020	1	8	6	0	0	0	0	0	0	0	0.0	0	0.0	1	1	1	0
175	S6	2020	1	8	7	0	0	0	0	0	0	0	0.0	0	0.0	1	1	1	0
176	S6	2020	1	8	8	0	0	0	0	0	0	0	0.0	0	0.0	1	1	1	0
177	S6	2020	1	8	9	1.487170410506859941079937925678677856922149658203125	0.197321485508890004378912408355972729623317718505859375	1.49523963998344999737355465185828506946563720703125	8.6941175741307805679980447166599333286285400390625	94.5823516845702982891452847979962825775146484375	4.25	0.28333334679095101282797486419440247118473052978515625	0.0	0.2527799922972899793194301309995353221893310546875	0.0	1	1	1	0
178	S6	2020	1	8	10	7.23174090357632959324973853654228150844573974609375	0.199662760139032002815184796418179757893085479736328125	7.396138866510749920735179330222308635711669921875	8.9081632041374998465244061662815511226654052734375	94.220408069844097553868778049945831298828125	3.381632644998080028386766571202315390110015869140625	6.31666673968234970715229792403988540172576904296875	0.0	188.747909649585011493400088511407375335693359375	0.0	1	1	1	1
179	S6	2020	1	8	11	28.149915787908700082198265590704977512359619140625	0.2480239304610420136842918736874707974493503570556640625	28.386888613965698624497235869057476520538330078125	9.325000087420139749383451999165117740631103515625	92.958333651224705818094662390649318695068359375	3.252222221427489845524405609467066824436187744140625	27.100000204518398305708615225739777088165283203125	0.0	744.9154263983169812490814365446567535400390625	0.0	1	1	1	1
180	S6	2020	1	8	12	44.2559237321217011640328564681112766265869140625	0.219768859156303009161348427369375713169574737548828125	44.38711036576160040567629039287567138671875	9.580833371480299121003554319031536579132080078125	91.5158332824706945984871708787977695465087890625	2.88777777138682978375072707422077655792236328125	42.433333427955602701331372372806072235107421875	0.0	1195.18404553333994044805876910686492919921875	0.0	1	1	1	1
181	S6	2020	1	8	13	63.30559214486009977918001823127269744873046875	0.267673941349816979506925918030901812016963958740234375	63.3187454117668977460198220796883106231689453125	9.722499974568680869424497359432280063629150390625	89.9524993896483948674358543939888477325439453125	3.0011111163430701509469145094044506549835205078125	61.03333343441280334218390635214745998382568359375	0.0	1712.01228027541992560145445168018341064453125	0.0	1	1	1	1
182	S6	2020	1	8	14	58.9000463909572999909869395196437835693359375	1.05777445131290992463846123428083956241607666015625	58.73469657897940265911529422737658023834228515625	9.565000049273169935304395039565861225128173828125	87.4683336893717040538831497542560100555419921875	3.11111111342906010435171992867253720760345458984375	63.33333337679510322004716726951301097869873046875	0.0	1711.090210328500006653484888374805450439453125	0.0	1	1	1	1
183	S6	2020	1	8	15	57.68449127939010168120148591697216033935546875	6.304623807925310075006564147770404815673828125	56.53615132437810331111904815770685672760009765625	9.4841667890548695396546463598497211933135986328125	84.6475001017251997836865484714508056640625	2.976666667064030047384903809870593249797821044921875	60.933333355933399388959514908492565155029296875	0.0	1606.22138356168989048455841839313507080078125	0.0	1	1	1	1
184	S6	2020	1	8	16	16.30622131505580085786277777515351772308349609375	0.286508739136966006366691317452932707965373992919921875	16.47634849730570039127997006289660930633544921875	8.865923556552569806399333174340426921844482421875	84.9121018184977032206006697379052639007568359375	2.950636949508810058517838115221820771694183349609375	12.6999998989049007747098585241474211215972900390625	0.0	378.363426184901982196606695652008056640625	0.0	1	1	1	1
185	S6	2020	1	8	17	0	0	0	0	0	0	0	0.0	2.693658333737400045748699994874186813831329345703125	0.0	1	1	1	0
186	S6	2020	1	8	18	0	0	0	0	0	0	0	0.0	0	0.0	1	1	1	0
187	S6	2020	1	8	19	0	0	0	0	0	0	0	0.0	0	0.0	1	1	1	0
188	S6	2020	1	8	20	0	0	0	0	0	0	0	0.0	0	0.0	1	1	1	0
189	S6	2020	1	8	21	0	0	0	0	0	0	0	0.0	0	0.0	1	1	1	0
190	S6	2020	1	8	22	0	0	0	0	0	0	0	0.0	0	0.0	1	1	1	0
191	S6	2020	1	8	23	0	0	0	0	0	0	0	0.0	0	0.0	1	1	1	0
192	S6	2020	1	8	24	0	0	0	0	0	0	0	0.0	0	0.0	1	1	1	0
193	S6	2020	1	9	1	0	0	0	0	0	0	0	0.0	0	0.0	1	1	1	0
194	S6	2020	1	9	2	0	0	0	0	0	0	0	0.0	0	0.0	1	1	1	0
195	S6	2020	1	9	3	0	0	0	0	0	0	0	0.0	0	0.0	1	1	1	0
196	S6	2020	1	9	4	0	0	0	0	0	0	0	0.0	0	0.0	1	1	1	0
197	S6	2020	1	9	5	0	0	0	0	0	0	0	0.0	0	0.0	1	1	1	0
198	S6	2020	1	9	6	0	0	0	0	0	0	0	0.0	0	0.0	1	1	1	0
199	S6	2020	1	9	7	0	0	0	0	0	0	0	0.0	0	0.0	1	1	1	0
200	S6	2020	1	9	8	0	0	0	0	0	0	0	0.0	0	0.0	1	1	1	0
201	S6	2020	1	9	9	2.6673976231265701386519140214659273624420166015625	0.195023257788773995979880737650091759860515594482421875	2.752870935040550026684513795771636068820953369140625	4.3108109139107302354432249558158218860626220703125	93.0756745209564968490667524747550487518310546875	0.9094594576068819602454595951712690293788909912109375	0.41666668645727600317485439518350176513195037841796875	0.0	8.5494700819254294543725336552597582340240478515625	0.0	1	1	1	0
202	S6	2020	1	9	10	6.28624799319675986453148652799427509307861328125	0.16580161604498100391680281973094679415225982666015625	6.33845655577523015011820461950264871120452880859375	4.38742867878505027334767873981036245822906494140625	93.0391431753975979290771647356450557708740234375	1.0894285718883700564418859357829205691814422607421875	5.5666667176410395967423028196208178997039794921875	0.0	168.7130309214500130110536701977252960205078125	0.0	1	1	1	1
203	S6	2020	1	9	11	17.941449920336399515008451999165117740631103515625	0.221240684327978998080510564250289462506771087646484375	18.03276260164039968003635294735431671142578125	5.050833320617670096908113919198513031005859375	92.883333333333297332501388154923915863037109375	2.358055552426309819935568157234229147434234619140625	16.516666727450999729853720054961740970611572265625	0.0	491.950011098135973952594213187694549560546875	0.0	1	1	1	1
204	S6	2020	1	9	12	23.72296411461299925349521799944341182708740234375	0.2280907192991830090278426723671145737171173095703125	23.753022808498801765608732239343225955963134765625	5.2883333166440298356292259995825588703155517578125	93.339999771118101534739253111183643341064453125	1.8819444436993799651958170215948484838008880615234375	21.266666955004200900702926446683704853057861328125	0.0	639.561913410823990489006973803043365478515625	0.0	1	1	1	1
205	S6	2020	1	9	13	13.4484930250378997840243755490519106388092041015625	0.1843078067319260104905964681165642105042934417724609375	13.46289777623280059515309403650462627410888671875	5.603672226943530176868080161511898040771484375	94.36472144656710270282928831875324249267578125	2.475423728173729909229905388201586902141571044921875	11.3333333982153998675812545116059482097625732421875	0.0	374.8400315021480082577909342944622039794921875	0.0	1	1	1	1
206	S6	2020	1	9	14	20.08822574615469847003623726777732372283935546875	0.187722236580318002641121211127028800547122955322265625	20.09107574621830138994482695125043392181396484375	5.70476183503949041408986886381171643733978271484375	94.8816684299044936778955161571502685546875	3.580672274283660083682434560614638030529022216796875	17.2500000335275984753025113604962825775146484375	0.0	502.79614863296302473827381618320941925048828125	0.0	1	1	1	1
207	S6	2020	1	9	15	8.118366197745000789609548519365489482879638671875	0.1940028107000719981289904580989968962967395782470703125	8.1322752250565404352755649597384035587310791015625	5.648304972944959700953404535539448261260986328125	95.7777773751152068371084169484674930572509765625	3.2912181342289699159664451144635677337646484375	6.45000014143684996525962560554035007953643798828125	0.0	185.74271627391300398812745697796344757080078125	0.0	1	1	1	1
208	S6	2020	1	9	16	3.01708090722206012657125029363669455051422119140625	0.2207536055218599913008148405424435622990131378173828125	3.0325580677461001499750636867247521877288818359375	6.08154765764871996225338079966604709625244140625	97.5047617412748053311588591895997524261474609375	2.9913690473352101406590008991770446300506591796875	2.216666733147580004015253507532179355621337890625	0.0	55.00253348145640330812966567464172840118408203125	0.0	1	1	1	1
209	S6	2020	1	9	17	0	0	0	0	0	0	0	0.0	0	0.0	1	1	1	0
210	S6	2020	1	9	18	0	0	0	0	0	0	0	0.0	0	0.0	1	1	1	0
211	S6	2020	1	9	19	0	0	0	0	0	0	0	0.0	0	0.0	1	1	1	0
212	S6	2020	1	9	20	0	0	0	0	0	0	0	0.0	0	0.0	1	1	1	0
213	S6	2020	1	9	21	0	0	0	0	0	0	0	0.0	0	0.0	1	1	1	0
214	S6	2020	1	9	22	0	0	0	0	0	0	0	0.0	0	0.0	1	1	1	0
215	S6	2020	1	9	23	0	0	0	0	0	0	0	0.0	0	0.0	1	1	1	0
216	S6	2020	1	9	24	0	0	0	0	0	0	0	0.0	0	0.0	1	1	1	0
217	S6	2020	1	10	1	0	0	0	0	0	0	0	0.0	0	0.0	1	1	1	0
218	S6	2020	1	10	2	0	0	0	0	0	0	0	0.0	0	0.0	1	1	1	0
219	S6	2020	1	10	3	0	0	0	0	0	0	0	0.0	0	0.0	1	1	1	0
220	S6	2020	1	10	4	0	0	0	0	0	0	0	0.0	0	0.0	1	1	1	0
221	S6	2020	1	10	5	0	0	0	0	0	0	0	0.0	0	0.0	1	1	1	0
222	S6	2020	1	10	6	0	0	0	0	0	0	0	0.0	0	0.0	1	1	1	0
223	S6	2020	1	10	7	0	0	0	0	0	0	0	0.0	0	0.0	1	1	1	0
224	S6	2020	1	10	8	0	0	0	0	0	0	0	0.0	0	0.0	1	1	1	0
225	S6	2020	1	10	9	0.4326599086211480038599574982072226703166961669921875	0.1917704786315100051741211473199655301868915557861328125	0.3431600806387979929468201589770615100860595703125	6.80606063206989997382834189920686185359954833984375	95.0242420543323049741957220248878002166748046875	0.251515153682592973449771989180590026080608367919921875	0.03333333491658330149931543928687460720539093017578125	0.0	0	0.0	1	1	1	0
226	S6	2020	1	10	10	5.14688974417544020667492077336646616458892822265625	0.1783731831992799998776177972104051150381565093994140625	5.2071699347044901884373757638968527317047119140625	7.10608097991427012374288096907548606395721435546875	95.6668903505480017201989539898931980133056640625	0.64560811322283095936569452533149160444736480712890625	3.616666725914309932221613053116016089916229248046875	0.0	98.1321332355339990272113936953246593475341796875	0.0	1	1	1	1
227	S6	2020	1	10	11	13.1374278518888001343611904303543269634246826171875	0.18594103039552700717962352428003214299678802490234375	13.1868084430694008091222713119350373744964599609375	7.08166658878325971926415149937383830547332763671875	95.906667963663693399212206713855266571044921875	0.6125000050498370374185697073698975145816802978515625	11.9500000650683997349688070244155824184417724609375	0.0	355.00840730965001057484187185764312744140625	0.0	1	1	1	1
228	S6	2020	1	10	12	37.516257980134696481400169432163238525390625	0.2063760769139560136142819146698457188904285430908203125	37.6285715474022026683087460696697235107421875	6.93666667540867987185038145980797708034515380859375	95.87916812896719420677982270717620849609375	0.95555555712845496874052741986815817654132843017578125	35.5333336318530967901097028516232967376708984375	0.0	1019.6955926716300382395274937152862548828125	0.0	1	1	1	1
229	S6	2020	1	10	13	23.78474014070290110112182446755468845367431640625	0.18351591917582599222669159644283354282379150390625	23.857002308633500575751895667053759098052978515625	6.88083335558572972701085745939053595066070556640625	96.0516658782957932771751075051724910736083984375	1.2202777805427700297258297723601572215557098388671875	21.50000006270899888249914511106908321380615234375	0.0	622.4320806562900543212890625	0.0	1	1	1	1
230	S6	2020	1	10	14	24.4065805801564010835136286914348602294921875	0.124668941139847999632905839462182484567165374755859375	24.420466140165100199510561651550233364105224609375	6.3864406811988896350840150262229144573211669921875	96.33785273665080239879898726940155029296875	0.94293785288845699543713863022276200354099273681640625	20.050000119954301425195808405987918376922607421875	0.0	588.8126611709600410904386080801486968994140625	0.0	1	1	1	1
231	S6	2020	1	10	15	21.595701246119201499595874338410794734954833984375	0.1389178369718239991481567585651646368205547332763671875	21.653947696401100841967490850947797298431396484375	5.59253730062228004982216589269228279590606689453125	96.407163568752906712688854895532131195068359375	1.575820893671969979976665854337625205516815185546875	18.900000195329301533320176531560719013214111328125	0.0	571.3285847877459673327393829822540283203125	0.0	1	1	1	1
232	S6	2020	1	10	16	13.308437693119000044816857553087174892425537109375	0.1449364697286739944726008388897753320634365081787109375	13.311493013185600631231864099390804767608642578125	5.19794112373800043513938362593762576580047607421875	95.8882350248449029095354489982128143310546875	0.606470590742195003741699110832996666431427001953125	10.5166666675357998173012674669735133647918701171875	0.0	330.3013838982830066015594638884067535400390625	0.0	1	1	1	1
233	S6	2020	1	10	17	0	0	0	0	0	0	0.08333333729145829538165202166055678389966487884521484375	0.0	4.44964161142701986051406493061222136020660400390625	0.0	1	1	1	0
234	S6	2020	1	10	18	0	0	0	0	0	0	0	0.0	0	0.0	1	1	1	0
235	S6	2020	1	10	19	0	0	0	0	0	0	0	0.0	0	0.0	1	1	1	0
236	S6	2020	1	10	20	0	0	0	0	0	0	0	0.0	0	0.0	1	1	1	0
237	S6	2020	1	10	21	0	0	0	0	0	0	0	0.0	0	0.0	1	1	1	0
238	S6	2020	1	10	22	0	0	0	0	0	0	0	0.0	0	0.0	1	1	1	0
239	S6	2020	1	10	23	0	0	0	0	0	0	0	0.0	0	0.0	1	1	1	0
240	S6	2020	1	10	24	0	0	0	0	0	0	0	0.0	0	0.0	1	1	1	0
241	S6	2020	1	11	1	0	0	0	0	0	0	0	0.0	0	0.0	1	1	1	0
242	S6	2020	1	11	2	0	0	0	0	0	0	0	0.0	0	0.0	1	1	1	0
243	S6	2020	1	11	3	0	0	0	0	0	0	0	0.0	0	0.0	1	1	1	0
244	S6	2020	1	11	4	0	0	0	0	0	0	0	0.0	0	0.0	1	1	1	0
245	S6	2020	1	11	5	0	0	0	0	0	0	0	0.0	0	0.0	1	1	1	0
246	S6	2020	1	11	6	0	0	0	0	0	0	0	0.0	0	0.0	1	1	1	0
247	S6	2020	1	11	7	0	0	0	0	0	0	0	0.0	0	0.0	1	1	1	0
248	S6	2020	1	11	8	0	0	0	0	0	0	0	0.0	0	0.0	1	1	1	0
249	S6	2020	1	11	9	5.17828923366108018200293372501619160175323486328125	4.5102648461451195771587663330137729644775390625	5.098170339084060032064371625892817974090576171875	3.89180331151993019744850244023837149143218994140625	88.8024599669409013813492492772638797760009765625	2.22213114089653007710012388997711241245269775390625	2.616666682297350110530942401965148746967315673828125	0.0	74.734771593163401348647312261164188385009765625	0.0	1	1	1	0
250	S6	2020	1	11	10	25.80346913205249848033417947590351104736328125	9.17502324560449977752796257846057415008544921875	24.690440335538600180598223232664167881011962890625	3.981666648387899964944836028735153377056121826171875	88.738333193461102155197295360267162322998046875	2.4008333300550699362929663038812577724456787109375	37.98333339703570032952484325505793094635009765625	0.0	822.2144555921360051797819323837757110595703125	0.0	1	1	1	1
251	S6	2020	1	11	11	49.335606437259201584311085753142833709716796875	12.018111669479100811486205202527344226837158203125	47.67073927985290282549613039009273052215576171875	4.5299999872843397241695129196159541606903076171875	89.083332888285298167829751037061214447021484375	2.704166664017570109734833749826066195964813232421875	50.84999979784090129442120087333023548126220703125	0.0	1361.18376528223006971529684960842132568359375	0.0	1	1	1	1
252	S6	2020	1	11	12	66.1270500712924018671401427127420902252197265625	0.9311502503024200461112513949046842753887176513671875	65.9782853020561930179610499180853366851806640625	5.21250000794727963437935613910667598247528076171875	88.622499656677206303356797434389591217041015625	2.994999993178570019125572798657231032848358154296875	66.78333319723600425277254544198513031005859375	0.0	1852.927933633319980799569748342037200927734375	0.0	1	1	1	1
253	S6	2020	1	11	13	78.69863546159530187651398591697216033935546875	0.308924923878577006863821452498086728155612945556640625	78.6538410398695049252637545578181743621826171875	6.01166664361953007045258345897309482097625732421875	85.6924995422363053876324556767940521240234375	4.6797222210301203659810198587365448474884033203125	78.500000201165704538652789779007434844970703125	0.0	2185.98457376162014043075032532215118408203125	0.0	1	1	1	1
254	S6	2020	1	11	14	66.5351264105901947232268867082893848419189453125	0.423375521393284992566208302378072403371334075927734375	66.444161181979694674737402237951755523681640625	6.18333319822947036215055049979127943515777587890625	83.66166699727369859829195775091648101806640625	5.08722223242123039455009347875602543354034423828125	62.8833334272105020090748439542949199676513671875	0.0	1747.609457373609984642826020717620849609375	0.0	1	1	1	1
255	S6	2020	1	11	15	32.6533938884735022156746708787977695465087890625	0.1870937043800950105865155137507827021181583404541015625	32.6752136866250992852656054310500621795654296875	6.0624999403953498955388567992486059665679931640625	82.9633332570393946525655337609350681304931640625	5.2324999911917497996682868688367307186126708984375	28.60000006233649827436238410882651805877685546875	0.0	797.5874452541280561490566469728946685791015625	0.0	1	1	1	1
256	S6	2020	1	11	16	7.813941583080559638574413838796317577362060546875	0.17190086148355299133783091747318394482135772705078125	7.8766477750695198523089857189916074275970458984375	5.986086969790250122969155199825763702392578125	82.54405802851130147246294654905796051025390625	5.49913043284761027251761333900503814220428466796875	5.68333334910372034443071243003942072391510009765625	0.0	165.0345181076160088196047581732273101806640625	0.0	1	1	1	1
257	S6	2020	1	11	17	0.809900581836699995363915149937383830547332763671875	0.2115745097398749885453383967615081928670406341552734375	0.84327238798141401776575776239042170345783233642578125	6	82.59999847412109375	5.59999990463256036576922269887290894985198974609375	0	0.0	0	0.0	1	1	1	0
258	S6	2020	1	11	18	0	0	0	0	0	0	0	0.0	0	0.0	1	1	1	0
259	S6	2020	1	11	19	0	0	0	0	0	0	0	0.0	0	0.0	1	1	1	0
260	S6	2020	1	11	20	0	0	0	0	0	0	0	0.0	0	0.0	1	1	1	0
261	S6	2020	1	11	21	0	0	0	0	0	0	0	0.0	0	0.0	1	1	1	0
262	S6	2020	1	11	22	0	0	0	0	0	0	0	0.0	0	0.0	1	1	1	0
263	S6	2020	1	11	23	0	0	0	0	0	0	0	0.0	0	0.0	1	1	1	0
264	S6	2020	1	11	24	0	0	0	0	0	0	0	0.0	0	0.0	1	1	1	0
265	S6	2020	1	12	1	0	0	0	0	0	0	0	0.0	0	0.0	1	1	1	0
266	S6	2020	1	12	2	0	0	0	0	0	0	0	0.0	0	0.0	1	1	1	0
267	S6	2020	1	12	3	0	0	0	0	0	0	0	0.0	0	0.0	1	1	1	0
268	S6	2020	1	12	4	0	0	0	0	0	0	0	0.0	0	0.0	1	1	1	0
269	S6	2020	1	12	5	0	0	0	0	0	0	0	0.0	0	0.0	1	1	1	0
270	S6	2020	1	12	6	0	0	0	0	0	0	0	0.0	0	0.0	1	1	1	0
271	S6	2020	1	12	7	0	0	0	0	0	0	0	0.0	0	0.0	1	1	1	0
272	S6	2020	1	12	8	0	0	0	0	0	0	0	0.0	0	0.0	1	1	1	0
273	S6	2020	1	12	9	3.324832790106240221206235219142399728298187255859375	0.153800429432715990429869634681381285190582275390625	3.365015862057509909988084473297931253910064697265625	7.017475711489179701629836927168071269989013671875	92.222329371183803914391319267451763153076171875	4.278640782948830434406772837974131107330322265625	1.066666703748829991837965280865319073200225830078125	0.0	21.303299892072800503228791058063507080078125	0.0	1	1	1	0
274	S6	2020	1	12	10	12.53512102900860014642603346146643161773681640625	0.1700210777629989900017193349412991665303707122802734375	12.6511056979973002256656400277279317378997802734375	7.01916165837269989680180515279062092304229736328125	92.15508987518120420645573176443576812744140625	4.11676645992757972436493218992836773395538330078125	11.25000007838630011747227399609982967376708984375	0.0	328.6647530893479824953828938305377960205078125	0.0	1	1	1	1
275	S6	2020	1	12	11	22.643979880544801375208407989703118801116943359375	0.192636228290695987741543149240897037088871002197265625	22.695813110139599899639506475068628787994384765625	7.0321126306560604035666983691044151782989501953125	92.7588891347248960528304451145231723785400390625	3.872957752456120061879119020886719226837158203125	20.816666726022898359360624453984200954437255859375	0.0	586.3922141492339505930431187152862548828125	0.0	1	1	1	1
276	S6	2020	1	12	12	29.4610369841256982681443332694470882415771484375	0.1863275713701209868045083339893608354032039642333984375	29.505785746044498552009827108122408390045166015625	7.09666657447813964409988329862244427204132080078125	92.5633328755695998779629007913172245025634765625	3.92194444338479986100765017908997833728790283203125	27.2666665725409984588623046875	0.0	791.35642846425298557733185589313507080078125	0.0	1	1	1	1
277	S6	2020	1	12	13	42.26818474663620150977294542826712131500244140625	0.207054228935803996680675709285424090921878814697265625	42.36880357000560337610295391641557216644287109375	7.0120447997619397284552178462035953998565673828125	92.6686104456583024102656054310500621795654296875	3.52605041001690988622385702910833060741424560546875	38.66666676476599917577914311550557613372802734375	0.0	1150.18361633022004753001965582370758056640625	0.0	1	1	1	1
278	S6	2020	1	12	14	35.5027873376617009171241079457104206085205078125	0.177687848036106987859028549792128615081310272216796875	35.61251499526679964446884696371853351593017578125	7.01587742218400034488468008930794894695281982421875	92.197492955454805496628978289663791656494140625	3.62033426163919980211858273833058774471282958984375	32.34999990090719990121215232647955417633056640625	0.0	973.8314084708689506442169658839702606201171875	0.0	1	1	1	1
279	S6	2020	1	12	15	14.753909911049699843488269834779202938079833984375	0.1557629871182140135488225496374070644378662109375	14.822525326410900703422157675959169864654541015625	6.694999946488270126110364799387753009796142578125	92.6161117977566021863822243176400661468505859375	2.985277773108740095864277463988400995731353759765625	12.050000112503699511989907477982342243194580078125	0.0	369.95030324906002761053969152271747589111328125	0.0	1	1	1	1
280	S6	2020	1	12	16	7.78520368727352973792221746407449245452880859375	0.1579110045583010102365761895271134562790393829345703125	7.86711630683678020403704067575745284557342529296875	6.45641029798067034306541245314292609691619873046875	92.92339845804059450529166497290134429931640625	2.98589743769321014355000443174503743648529052734375	4.95000009153347964030444927630014717578887939453125	0.0	159.422183486942998342783539555966854095458984375	0.0	1	1	1	1
281	S6	2020	1	12	17	0	0	0	0	0	0	0	0.0	0	0.0	1	1	1	0
282	S6	2020	1	12	18	0	0	0	0	0	0	0	0.0	0	0.0	1	1	1	0
283	S6	2020	1	12	19	0	0	0	0	0	0	0	0.0	0	0.0	1	1	1	0
284	S6	2020	1	12	20	0	0	0	0	0	0	0	0.0	0	0.0	1	1	1	0
285	S6	2020	1	12	21	0	0	0	0	0	0	0	0.0	0	0.0	1	1	1	0
286	S6	2020	1	12	22	0	0	0	0	0	0	0	0.0	0	0.0	1	1	1	0
287	S6	2020	1	12	23	0	0	0	0	0	0	0	0.0	0	0.0	1	1	1	0
288	S6	2020	1	12	24	0	0	0	0	0	0	0	0.0	0	0.0	1	1	1	0
289	S6	2020	1	13	1	0	0	0	0	0	0	0	0.0	0	0.0	1	1	1	0
290	S6	2020	1	13	2	0	0	0	0	0	0	0	0.0	0	0.0	1	1	1	0
291	S6	2020	1	13	3	0	0	0	0	0	0	0	0.0	0	0.0	1	1	1	0
292	S6	2020	1	13	4	0	0	0	0	0	0	0	0.0	0	0.0	1	1	1	0
293	S6	2020	1	13	5	0	0	0	0	0	0	0	0.0	0	0.0	1	1	1	0
294	S6	2020	1	13	6	0	0	0	0	0	0	0	0.0	0	0.0	1	1	1	0
295	S6	2020	1	13	7	0	0	0	0	0	0	0	0.0	0	0.0	1	1	1	0
296	S6	2020	1	13	8	0	0	0	0	0	0	0	0.0	0	0.0	1	1	1	0
297	S6	2020	1	13	9	9.7567906722877904002189097809605300426483154296875	0.6516180246165299561056372112943790853023529052734375	9.87460490248420086345504387281835079193115234375	5.02651512622832985499599089962430298328399658203125	91.1424238031560065564917749725282192230224609375	2.657575747280410016770701986388303339481353759765625	4.61666666475745035569389074225910007953643798828125	0.0	146.840484774049997440670267678797245025634765625	0.0	1	1	1	0
298	S6	2020	1	13	10	36.40830594698579858459197566844522953033447265625	2.09349508070283008009937475435435771942138671875	36.17043637699549663011566735804080963134765625	5.1833332538604697248274533194489777088165283203125	90.696666717529296875	2.536944442325160142814866048865951597690582275390625	41.63333360726640108850915567018091678619384765625	0.0	1106.491937239959952421486377716064453125	0.0	1	1	1	1
299	S6	2020	1	13	11	69.820762920379593197139911353588104248046875	3.771946706540049820688409454305656254291534423828125	68.987860340542198400726192630827426910400390625	5.50833334128061036238932501873932778835296630859375	91.2433339436849024650655337609350681304931640625	2.34416667107077980602980460389517247676849365234375	80.716667262216304834510083310306072235107421875	0.0	2086.26801719267996304552070796489715576171875	0.0	1	1	1	1
300	S6	2020	1	13	12	75.4098406579759057422052137553691864013671875	0.71230546497843294506679967525997199118137359619140625	75.0424226337008946075002313591539859771728515625	6.21166668732961024801397798000834882259368896484375	88.4833330790200989213190041482448577880859375	2.640555550158020015061310914461500942707061767578125	81.3833336656291947974750655703246593475341796875	0.0	2181.16056720415008385316468775272369384765625	0.0	1	1	1	1
301	S6	2020	1	13	13	66.1674618403116028275690041482448577880859375	3.8482126985159101906219802913255989551544189453125	65.1373101552326971841466729529201984405517578125	6.1533332983652702097288056393153965473175048828125	86.8766670227050070707264239899814128875732421875	2.1802777745657397900913565536029636859893798828125	75.600000036259501712265773676335811614990234375	0.0	1924.59490646917993217357434332370758056640625	0.0	1	1	1	1
302	S6	2020	1	13	14	67.4290511634613949354388751089572906494140625	26.48688914585439846405279240570962429046630859375	61.90631175835920174677085014991462230682373046875	6.2049999396006203511433341191150248050689697265625	86.3583334604899022224344662390649318695068359375	2.3355555512838801490715923137031495571136474609375	92.4000005703419020619548973627388477325439453125	0.0	2133.25174214938988370704464614391326904296875	0.0	1	1	1	1
303	S6	2020	1	13	15	25.50794853977649978560293675400316715240478515625	0.433610782193737998024829494170262478291988372802734375	25.483627641667201402242426411248743534088134765625	6.44525144886037981706294885952956974506378173828125	85.64413435099510252257459796965122222900390625	1.834636865381420012255375695531256496906280517578125	23.716666813318799000853687175549566745758056640625	0.0	638.48125593115901210694573819637298583984375	0.0	1	1	1	1
304	S6	2020	1	13	16	7.8835684612393297499011168838478624820709228515625	0.1483440430572950108345509079299517907202243804931640625	7.92477676495909033604903015657328069210052490234375	6.44875001609324982609905418939888477325439453125	85.966249871253893388711730949580669403076171875	2.17437500152735996294950382434763014316558837890625	5.35000007754810980031834333203732967376708984375	0.0	168.615686614065992898758850060403347015380859375	0.0	1	1	1	1
305	S6	2020	1	13	17	3.958447530865659924614874398685060441493988037109375	0.11667529167607400275574747183782164938747882843017578125	3.985983550548549914083196199499070644378662109375	6.07499992847442005228231209912337362766265869140625	88.7374992370605042424358543939888477325439453125	2.318750008940690054970445999060757458209991455078125	0.1833333401009460128516792565278592519462108612060546875	0.0	17.673230031505198667218792252242565155029296875	0.0	1	1	1	0
306	S6	2020	1	13	18	0	0	0	0	0	0	0	0.0	0	0.0	1	1	1	0
307	S6	2020	1	13	19	0	0	0	0	0	0	0	0.0	0	0.0	1	1	1	0
308	S6	2020	1	13	20	0	0	0	0	0	0	0	0.0	0	0.0	1	1	1	0
309	S6	2020	1	13	21	0	0	0	0	0	0	0	0.0	0	0.0	1	1	1	0
310	S6	2020	1	13	22	0	0	0	0	0	0	0	0.0	0	0.0	1	1	1	0
311	S6	2020	1	13	23	0	0	0	0	0	0	0	0.0	0	0.0	1	1	1	0
312	S6	2020	1	13	24	0	0	0	0	0	0	0	0.0	0	0.0	1	1	1	0
313	S6	2020	1	14	1	0	0	0	0	0	0	0	0.0	0	0.0	1	1	1	0
314	S6	2020	1	14	2	0	0	0	0	0	0	0	0.0	0	0.0	1	1	1	0
315	S6	2020	1	14	3	0	0	0	0	0	0	0	0.0	0	0.0	1	1	1	0
316	S6	2020	1	14	4	0	0	0	0	0	0	0	0.0	0	0.0	1	1	1	0
317	S6	2020	1	14	5	0	0	0	0	0	0	0	0.0	0	0.0	1	1	1	0
318	S6	2020	1	14	6	0	0	0	0	0	0	0	0.0	0	0.0	1	1	1	0
319	S6	2020	1	14	7	0	0	0	0	0	0	0	0.0	0	0.0	1	1	1	0
320	S6	2020	1	14	8	0	0	0	0	0	0	0	0.0	0	0.0	1	1	1	0
321	S6	2020	1	14	9	1.1515285564062001100182897062040865421295166015625	0.1932926077431839917419864605108159594237804412841796875	1.1637677079771899801841072985553182661533355712890625	6.53203880439683981506959753460250794887542724609375	92.4048540430161011727250297553837299346923828125	4.0543689195392200730339027359150350093841552734375	0.35000001468385499858726461752667091786861419677734375	0.0	2.705283365988469856944220737204886972904205322265625	0.0	1	1	1	0
322	S6	2020	1	14	10	6.55157568388514999213612099993042647838592529296875	0.210762861081294994303192424922599457204341888427734375	6.51967787080339977734411149867810308933258056640625	6.91346697001196996978933384525589644908905029296875	92.7763885921902016207241103984415531158447265625	4.70942858082907012118312195525504648685455322265625	6.4833334142652603304668446071445941925048828125	0.0	179.238741487884993830448365770280361175537109375	0.0	1	1	1	1
323	S6	2020	1	14	11	12.7600400673017997377201027120463550090789794921875	0.2102434877513179867225545649489504285156726837158203125	12.68591835763709951834243838675320148468017578125	7.44747772414889031011853148811496794223785400390625	93.0091670354207025184223311953246593475341796875	4.7390532451268398972388240508735179901123046875	11.6666667473811997979282750748097896575927734375	0.0	338.9566789070760250979219563305377960205078125	0.0	1	1	1	1
324	S6	2020	1	14	12	23.38619701862329947061880375258624553680419921875	0.2125414547199999948379200986892101354897022247314453125	23.343463214238401093325592228211462497711181640625	7.88055561516020031120888233999721705913543701171875	92.79611091613759299434605054557323455810546875	5.363333333200870356449740938842296600341796875	23.61666667275130038206043536774814128875732421875	0.0	679.495092853903997820452786982059478759765625	0.0	1	1	1	1
325	S6	2020	1	14	13	73.4952253977456990696737193502485752105712890625	9.64903875088526064018878969363868236541748046875	71.36014455689320357123506255447864532470703125	8.233333342605160254379370599053800106048583984375	92.166666942172497556384769268333911895751953125	4.38805556197960999753604482975788414478302001953125	84.200000297278393190936185419559478759765625	0.0	2199.04785528778984371456317603588104248046875	0.0	1	1	1	1
326	S6	2020	1	14	14	167.53445408634598834396456368267536163330078125	334.1594389869529777570278383791446685791015625	100.9503306099779962323736981488764286041259765625	8.816147272039739135607305797748267650604248046875	86.303965711728693577242665924131870269775390625	3.4830028335365899039288706262595951557159423828125	346.6333316018179857564973644912242889404296875	0.0	5979.243820905679967836476862430572509765625	0.0	1	1	1	1
327	S6	2020	1	14	15	69.0532793627844938555426779203116893768310546875	26.896537829831999033558531664311885833740234375	64.3333041985828941733416286297142505645751953125	8.596388898955449775485249119810760021209716796875	82.375833574930794611645978875458240509033203125	2.7663888855940701461122444015927612781524658203125	86.86666693538410299879615195095539093017578125	0.0	2025.153132031359973552753217518329620361328125	0.0	1	1	1	1
328	S6	2020	1	14	16	27.54264443432050057936066878028213977813720703125	8.8488685715435106970971901318989694118499755859375	26.79702793323230025634984485805034637451171875	7.93231196124572957018017405061982572078704833984375	83.555710115140499283370445482432842254638671875	2.65682451190390001016794485622085630893707275390625	33.50000015925610341582796536386013031005859375	0.0	808.5979473466669560366426594555377960205078125	0.0	1	1	1	1
329	S6	2020	1	14	17	5.75261320114134999670341130695305764675140380859375	0.1642055594921109917816437473447876982390880584716796875	5.7997617721557599423931605997495353221893310546875	7.47600002288818021867200513952411711215972900390625	84.679997253417894853555480949580669403076171875	3.09999998569487988930859501124359667301177978515625	0.116666672208038002533925237003131769597530364990234375	0.0	17.7750248772401988617275492288172245025634765625	0.0	1	1	1	0
330	S6	2020	1	14	18	0	0	0	0	0	0	0	0.0	0	0.0	1	1	1	0
331	S6	2020	1	14	19	0	0	0	0	0	0	0	0.0	0	0.0	1	1	1	0
332	S6	2020	1	14	20	0	0	0	0	0	0	0	0.0	0	0.0	1	1	1	0
333	S6	2020	1	14	21	0	0	0	0	0	0	0	0.0	0	0.0	1	1	1	0
334	S6	2020	1	14	22	0	0	0	0	0	0	0	0.0	0	0.0	1	1	1	0
335	S6	2020	1	14	23	0	0	0	0	0	0	0	0.0	0	0.0	1	1	1	0
336	S6	2020	1	14	24	0	0	0	0	0	0	0	0.0	0	0.0	1	1	1	0
337	S6	2020	1	15	1	0	0	0	0	0	0	0	0.0	0	0.0	1	1	1	0
338	S6	2020	1	15	2	0	0	0	0	0	0	0	0.0	0	0.0	1	1	1	0
339	S6	2020	1	15	3	0	0	0	0	0	0	0	0.0	0	0.0	1	1	1	0
340	S6	2020	1	15	4	0	0	0	0	0	0	0	0.0	0	0.0	1	1	1	0
341	S6	2020	1	15	5	0	0	0	0	0	0	0	0.0	0	0.0	1	1	1	0
342	S6	2020	1	15	6	0	0	0	0	0	0	0	0.0	0	0.0	1	1	1	0
343	S6	2020	1	15	7	0	0	0	0	0	0	0	0.0	0	0.0	1	1	1	0
344	S6	2020	1	15	8	0	0	0	0	0	0	0	0.0	0	0.0	1	1	1	0
345	S6	2020	1	15	9	4.34979389111200998030426490004174411296844482421875	0.164720490574836009312065243648248724639415740966796875	4.5269999305407200296258451999165117740631103515625	11.1999998092650994152563725947402417659759521484375	86.6833305358886008207264239899814128875732421875	6.54166662693022971097889239899814128875732421875	0.85000003261181600322515805601142346858978271484375	0.0	23.09059837522600133752348483540117740631103515625	0.0	1	1	1	0
346	S6	2020	1	15	10	17.94708740413179981487701297737658023834228515625	0.234765174402854992496969543935847468674182891845703125	18.29245074689379890742202405817806720733642578125	11.460312423110000423776000388897955417633056640625	83.5937499761580937729377183131873607635498046875	5.83312501534819016768551591667346656322479248046875	15.3999999320755005527416869881562888622283935546875	0.0	442.64474942659302314496017061173915863037109375	0.0	1	1	1	1
347	S6	2020	1	15	11	23.257737668355300542089025839231908321380615234375	0.21684471141132999338907438868773169815540313720703125	23.380831045574598903158403118140995502471923828125	11.9344444592792999770836104289628565311431884765625	78.4297223832871992499349289573729038238525390625	5.7661111086606897657702575088478624820709228515625	21.01666669671730147683774703182280063629150390625	0.0	580.23078156014298656373284757137298583984375	0.0	1	1	1	1
348	S6	2020	1	15	12	26.6904394149780017642115126363933086395263671875	0.198147398378285988229663416859693825244903564453125	26.77106690406790079350685118697583675384521484375	12.1366666475931008761790508287958800792694091796875	76.0727776209512995819750358350574970245361328125	5.5561111085944698828598120599053800106048583984375	23.94999998311210021029182826168835163116455078125	0.0	679.85469239453595946542918682098388671875	0.0	1	1	1	1
349	S6	2020	1	15	13	30.6665298355950000086522777564823627471923828125	0.2026613856355340137493925567468977533280849456787109375	30.70470276938539910815961775369942188262939453125	12.156111089388499379992936155758798122406005859375	74.6827783584594016019764239899814128875732421875	5.2130555419458204369220766238868236541748046875	27.40000019160400057671722606755793094635009765625	0.0	776.2596790989249484482570551335811614990234375	0.0	1	1	1	1
350	S6	2020	1	15	14	21.50154094317809949643560685217380523681640625	0.167909773893749003637054784121573902666568756103515625	21.528125057814801124322912073694169521331787109375	11.9314447273275998639974204706959426403045654296875	74.48271922686950574643560685217380523681640625	5.1260623320641602873593001277185976505279541015625	18.66666677718360034532452118583023548126220703125	0.0	548.5756140202259985017008148133754730224609375	0.0	1	1	1	1
351	S6	2020	1	15	15	38.89074518150749781852937303483486175537109375	0.1947329028095630132355609021033160388469696044921875	38.9214824676513018175683100707828998565673828125	11.118333297305600382287593674845993518829345703125	81.7374997668795941763164591975510120391845703125	4.7730555776092700170920579694211483001708984375	33.85000019334250254132712143473327159881591796875	0.0	1000.777053274209947630879469215869903564453125	0.0	1	1	1	1
352	S6	2020	1	15	16	6.39572391067356971205981608363799750804901123046875	0.205451354398118013477869681082665920257568359375	6.5057835440863502896036152378655970096588134765625	10.736029449631100618489654152654111385345458984375	84.4235290639540068013957352377474308013916015625	3.8772058732369298894582243519835174083709716796875	3.666666728289179832955824167584069073200225830078125	0.0	104.93945991232300229967222549021244049072265625	0.0	1	1	1	1
353	S6	2020	1	15	17	0.82407516241073597296207253748434595763683319091796875	0.362960040569304975832665149937383830547332763671875	0.85142588615417402753138276239042170345783233642578125	11.30000019073479933240378159098327159881591796875	79.90000152587890625	6.800000190734859728536321199499070644378662109375	0.0166666674582915987079534403392244712449610233306884765625	0.0	0	0.0	1	1	1	0
354	S6	2020	1	15	18	0	0	0	0	0	0	0	0.0	0	0.0	1	1	1	0
355	S6	2020	1	15	19	0	0	0	0	0	0	0	0.0	0	0.0	1	1	1	0
356	S6	2020	1	15	20	0	0	0	0	0	0	0	0.0	0	0.0	1	1	1	0
357	S6	2020	1	15	21	0	0	0	0	0	0	0	0.0	0	0.0	1	1	1	0
358	S6	2020	1	15	22	0	0	0	0	0	0	0	0.0	0	0.0	1	1	1	0
359	S6	2020	1	15	23	0	0	0	0	0	0	0	0.0	0	0.0	1	1	1	0
360	S6	2020	1	15	24	0	0	0	0	0	0	0	0.0	0	0.0	1	1	1	0
361	S6	2020	1	16	1	0	0	0	0	0	0	0	0.0	0	0.0	1	1	1	0
362	S6	2020	1	16	2	0	0	0	0	0	0	0	0.0	0	0.0	1	1	1	0
363	S6	2020	1	16	3	0	0	0	0	0	0	0	0.0	0	0.0	1	1	1	0
364	S6	2020	1	16	4	0	0	0	0	0	0	0	0.0	0	0.0	1	1	1	0
365	S6	2020	1	16	5	0	0	0	0	0	0	0	0.0	0	0.0	1	1	1	0
366	S6	2020	1	16	6	0	0	0	0	0	0	0	0.0	0	0.0	1	1	1	0
367	S6	2020	1	16	7	0	0	0	0	0	0	0	0.0	0	0.0	1	1	1	0
368	S6	2020	1	16	8	0	0	0	0	0	0	0	0.0	0	0.0	1	1	1	0
369	S6	2020	1	16	9	9.8171450865529692464406252838671207427978515625	0.203061157660761992804765441178460605442523956298828125	10.05155023867190067221599747426807880401611328125	7.44452560034981036807266718824394047260284423828125	82.380291291396900987820117734372615814208984375	4.14890511105530013225006769062019884586334228515625	5.03333341330287975523560817237012088298797607421875	0.0	158.4906083842109865145175717771053314208984375	0.0	1	1	1	0
370	S6	2020	1	16	10	34.20000951819940127052177558653056621551513671875	3.475579612246809890763188377604819834232330322265625	33.7719995233747027896242798306047916412353515625	7.58916658163069968168201739899814128875732421875	82.4288885752360016567763523198664188385009765625	3.8063888914055201695418872986920177936553955078125	43.3833333353201027193790650926530361175537109375	0.0	1029.8181413362399325706064701080322265625	0.0	1	1	1	1
371	S6	2020	1	16	11	71.6670602357487069866692763753235340118408203125	44.722093306627101583217154256999492645263671875	63.98215560063010087787915836088359355926513671875	7.8428969768428498099410717259161174297332763671875	81.998885534599907032315968535840511322021484375	3.27353760724612019572532517486251890659332275390625	102.8000001485140018075981060974299907684326171875	0.0	2163.36488276719001078163273632526397705078125	0.0	1	1	1	1
372	S6	2020	1	16	12	125.814808824327002412246656604111194610595703125	51.58846780314210178630673908628523349761962890625	113.6005961842000004935471224598586559295654296875	8.2680555873446994752384853200055658817291259765625	80.818333710564502325723879039287567138671875	3.126666664414929908133444769191555678844451904296875	175.53333298613500801366171799600124359130859375	0.0	4041.89074834187022133846767246723175048828125	0.0	1	1	1	1
373	S6	2020	1	16	13	166.140613449352002817249740473926067352294921875	168.99253225442998882499523460865020751953125	126.8717302503529964496920001693069934844970703125	8.4648044149302901217879480100236833095550537109375	79.5843575759972026162358815781772136688232421875	3.018156425080479987599346713977865874767303466796875	299.66666599114699920392013154923915863037109375	0.0	5630.80635567506033112294971942901611328125	0.0	1	1	1	1
374	S6	2020	1	16	14	153.678695914450003101592301391065120697021484375	295.13986889046901751498808152973651885986328125	91.1885777484165060968734906055033206939697265625	8.614325823408830018479420687071979045867919921875	79.06573066282800255066831596195697784423828125	2.6441011214524099415257296641357243061065673828125	302.51666742066498727581347338855266571044921875	0.0	5218.610264857599759125150740146636962890625	0.0	1	1	1	1
375	S6	2020	1	16	15	81.507474316490998944573220796883106231689453125	106.9943479541889956863087718375027179718017578125	63.4919798639084973501667263917624950408935546875	8.35888892544640071946560055948793888092041015625	80.1255552927652985317763523198664188385009765625	2.401944440934390190278691079583950340747833251953125	135.56666774675198894328786991536617279052734375	0.0	2645.71687405308011875604279339313507080078125	0.0	1	1	1	1
376	S6	2020	1	16	16	16.8226100537902993892203085124492645263671875	0.1371021396222819876964393870366620831191539764404296875	16.88901617964339862965061911381781101226806640625	7.90000008267058007049854495562613010406494140625	80.6810655763162998255211277864873409271240234375	2.399112422790750098755552244256250560283660888671875	13.0500001755232002409456981695257127285003662109375	0.0	364.9829610561320123451878316700458526611328125	0.0	1	1	1	1
377	S6	2020	1	16	17	5.5558282021553200280550299794413149356842041015625	0.06320158650557840263051190277110435999929904937744140625	5.76021588233208969853649250580929219722747802734375	7.4806451797485298271794817992486059665679931640625	80.5	2.983870944669159808171343684080056846141815185546875	0.21666667501752601143749643597402609884738922119140625	0.0	23.5974000534042005483570392243564128875732421875	0.0	1	1	1	0
378	S6	2020	1	16	18	0	0	0	0	0	0	0	0.0	0	0.0	1	1	1	0
379	S6	2020	1	16	19	0	0	0	0	0	0	0	0.0	0	0.0	1	1	1	0
380	S6	2020	1	16	20	0	0	0	0	0	0	0	0.0	0	0.0	1	1	1	0
381	S6	2020	1	16	21	0	0	0	0	0	0	0	0.0	0	0.0	1	1	1	0
382	S6	2020	1	16	22	0	0	0	0	0	0	0	0.0	0	0.0	1	1	1	0
383	S6	2020	1	16	23	0	0	0	0	0	0	0	0.0	0	0.0	1	1	1	0
384	S6	2020	1	16	24	0	0	0	0	0	0	0	0.0	0	0.0	1	1	1	0
385	S6	2020	1	17	1	0	0	0	0	0	0	0	0.0	0	0.0	1	1	1	0
386	S6	2020	1	17	2	0	0	0	0	0	0	0	0.0	0	0.0	1	1	1	0
387	S6	2020	1	17	3	0	0	0	0	0	0	0	0.0	0	0.0	1	1	1	0
388	S6	2020	1	17	4	0	0	0	0	0	0	0	0.0	0	0.0	1	1	1	0
389	S6	2020	1	17	5	0	0	0	0	0	0	0	0.0	0	0.0	1	1	1	0
390	S6	2020	1	17	6	0	0	0	0	0	0	0	0.0	0	0.0	1	1	1	0
391	S6	2020	1	17	7	0	0	0	0	0	0	0	0.0	0	0.0	1	1	1	0
392	S6	2020	1	17	8	0	0	0	0	0	0	0	0.0	0	0.0	1	1	1	0
393	S6	2020	1	17	9	16.309482928953599412125186063349246978759765625	40.14387075485360156790193286724388599395751953125	14.1422642061583996309082067455165088176727294921875	5.4460526830271600573496471042744815349578857421875	90.99342105263150415339623577892780303955078125	3.68684210510630006041310480213724076747894287109375	10.8166668098418998766874210559763014316558837890625	0.0	244.681250133240013155955239199101924896240234375	0.0	1	1	1	0
394	S6	2020	1	17	10	63.32498032251989883434362127445638179779052734375	273.09970732794801051568356342613697052001953125	32.90057300991480104812580975703895092010498046875	5.91611110104453974400939841871149837970733642578125	88.9283328586154055983570287935435771942138671875	3.310833331280279789865517159341834485530853271484375	170.1000005006779929317417554557323455810546875	0.0	1693.91113022963008916121907532215118408203125	0.0	1	1	1	1
395	S6	2020	1	17	11	149.444475809733006599344662390649318695068359375	532.8895118713370493424008600413799285888671875	54.93255052566519935908218030817806720733642578125	7.04999998940361027877088417881168425083160400390625	84.8744441138372991417782031930983066558837890625	2.886111105481779848247469999478198587894439697265625	375.14999955892500338450190611183643341064453125	0.0	5480.951571464540393208153545856475830078125	0.0	1	1	1	1
396	S6	2020	1	17	12	181.766022406683987355791032314300537109375	548.2399883694109803400351665914058685302734375	62.56083914438880100306050735525786876678466796875	8.11722221109602060096221975982189178466796875	81.4355555640325974309234879910945892333984375	2.96638889527983007354805522481910884380340576171875	432.766666511693983920849859714508056640625	0.0	6407.421303292119773686863481998443603515625	0.0	1	1	1	1
397	S6	2020	1	17	13	200.887769571939998058951459825038909912109375	620.9625112745490014276583679020404815673828125	59.17723114225599800874988432042300701141357421875	8.8238888528611898465214835596270859241485595703125	78.3794443766276032192763523198664188385009765625	2.912500000993409887684038039878942072391510009765625	497.13333000739402223189244978129863739013671875	0.0	7166.578204929819548851810395717620849609375	0.0	1	1	1	1
398	S6	2020	1	17	14	177.66106821695899498081416822969913482666015625	617.1398330688469968663412146270275115966796875	50.61814399295379729437627247534692287445068359375	9.142222213745110792615378159098327159881591796875	76.308333502875399290132918395102024078369140625	2.0686111073526998183069736114703118801116943359375	444.0666660666460074935457669198513031005859375	0.0	6409.5393424232797769946046173572540283203125	0.0	1	1	1	1
399	S6	2020	1	17	15	112.90401034884899900134769268333911895751953125	464.9102169036859777406789362430572509765625	40.614637523227202109410427510738372802734375	8.889444515440199978684177040122449398040771484375	76.9244443681505032373024732805788516998291015625	1.4713888871172999817105164765962399542331695556640625	289.066665371258977756951935589313507080078125	0.0	4337.095143645999996806494891643524169921875	0.0	1	1	1	1
400	S6	2020	1	17	16	44.22791100607970093960830126889050006866455078125	222.755163228511008810528437606990337371826171875	25.92651054859160097976200631819665431976318359375	7.717777800559989742623656638897955417633056640625	81.4000004238552037350018508732318878173828125	1.9761111043393599917550318423309363424777984619140625	97.9666668921708065909115248359739780426025390625	0.0	1350.006034970280097695649601519107818603515625	0.0	1	1	1	1
401	S6	2020	1	17	17	8.2738233889852192959324383991770446300506591796875	1.011317647461380087037241537473164498805999755859375	8.4267835191317903564822699991054832935333251953125	6.8892857858112801494598897988907992839813232421875	84.2428575243267943051250767894089221954345703125	1.9839285633393599628249148736358620226383209228515625	0.483333350469671019222772656576125882565975189208984375	0.0	41.5120851170891995707279420457780361175537109375	0.0	1	1	1	0
402	S6	2020	1	17	18	0	0	0	0	0	0	0	0.0	0	0.0	1	1	1	0
403	S6	2020	1	17	19	0	0	0	0	0	0	0	0.0	0	0.0	1	1	1	0
404	S6	2020	1	17	20	0	0	0	0	0	0	0	0.0	0	0.0	1	1	1	0
405	S6	2020	1	17	21	0	0	0	0	0	0	0	0.0	0	0.0	1	1	1	0
406	S6	2020	1	17	22	0	0	0	0	0	0	0	0.0	0	0.0	1	1	1	0
407	S6	2020	1	17	23	0	0	0	0	0	0	0	0.0	0	0.0	1	1	1	0
408	S6	2020	1	17	24	0	0	0	0	0	0	0	0.0	0	0.0	1	1	1	0
409	S6	2020	1	18	1	0	0	0	0	0	0	0	0.0	0	0.0	1	1	1	0
410	S6	2020	1	18	2	0	0	0	0	0	0	0	0.0	0	0.0	1	1	1	0
411	S6	2020	1	18	3	0	0	0	0	0	0	0	0.0	0	0.0	1	1	1	0
412	S6	2020	1	18	4	0	0	0	0	0	0	0	0.0	0	0.0	1	1	1	0
413	S6	2020	1	18	5	0	0	0	0	0	0	0	0.0	0	0.0	1	1	1	0
414	S6	2020	1	18	6	0	0	0	0	0	0	0	0.0	0	0.0	1	1	1	0
415	S6	2020	1	18	7	0	0	0	0	0	0	0	0.0	0	0.0	1	1	1	0
416	S6	2020	1	18	8	0	0	0	0	0	0	0	0.0	0	0.0	1	1	1	0
417	S6	2020	1	18	9	5.8469971171239496499083543312735855579376220703125	0.356571104922672021952934073851793073117733001708984375	5.88499484265722028197842519148252904415130615234375	6.52560973167418989504540149937383830547332763671875	80.3207315119301057393386145122349262237548828125	4.05182928864547964309394956217147409915924072265625	3.1833333700584898195984351332299411296844482421875	0.0	86.91101373794180062759551219642162322998046875	0.0	1	1	1	1
418	S6	2020	1	18	10	51.90523557662960030256726895458996295928955078125	79.9925624238120036579857696779072284698486328125	42.0947098864449031907497555948793888092041015625	6.43611112435657961583501673885621130466461181640625	79.11388931274410651894868351519107818603515625	4.22305555376741015294328462914563715457916259765625	99.0500000615914046875332132913172245025634765625	0.0	1583.550495405979972929344512522220611572265625	0.0	1	1	1	1
419	S6	2020	1	18	11	63.2752432028452034273868775926530361175537109375	23.12316040694710039815618074499070644378662109375	59.40909125010170299674427951686084270477294921875	6.42666674455006958766034586005844175815582275390625	80.7605558183457929999349289573729038238525390625	5.00361109276612037177756064920686185359954833984375	74.8833332831660953843311290256679058074951171875	0.0	1809.331475943319901489303447306156158447265625	0.0	1	1	1	1
420	S6	2020	1	18	12	43.36566938294299689005129039287567138671875	0.2223221133359599976930809361874707974493503570556640625	43.41415650049840024848890607245266437530517578125	6.6716665029525703545232317992486059665679931640625	80.22666693793399872447480447590351104736328125	4.68749998741678997049575627897866070270538330078125	39.13333332166070022140047512948513031005859375	0.0	1103.787121300890021302620880305767059326171875	0.0	1	1	1	1
421	S6	2020	1	18	13	102.8778911956949997374977101571857929229736328125	36.014713401511500023843836970627307891845703125	94.1963741496457060975444619543850421905517578125	6.89745767103076001802719474653713405132293701171875	79.255932069767595748999156057834625244140625	4.3923728785945801433854285278357565402984619140625	144.483333888152998270015814341604709625244140625	0.0	3255.635377764700024272315204143524169921875	0.0	1	1	1	1
422	S6	2020	1	18	14	81.35393588278020615689456462860107421875	0.8394349327621359879714191265520639717578887939453125	81.138703605863696566302678547799587249755859375	7.15222210089364995866390017908997833728790283203125	78.649444029066302164210355840623378753662109375	4.08638887835873010345721922931261360645294189453125	72.96666667486209689741372130811214447021484375	0.0	2062.4041753510600756271742284297943115234375	0.0	1	1	1	1
423	S6	2020	1	18	15	32.261702516343802926712669432163238525390625	0.2188437012955539995306963874099892564117908477783203125	32.37677114274760015177889727056026458740234375	6.84000008636049994237282589892856776714324951171875	79.4644437154133953526979894377291202545166015625	3.7511110997862200377994668087922036647796630859375	29.783333434412799789470227551646530628204345703125	0.0	835.7995159924020072139683179557323455810546875	0.0	1	1	1	1
424	S6	2020	1	18	16	14.76439765095710043851795489899814128875732421875	0.17578830855588101211850471372599713504314422607421875	14.809435360299200823419596417807042598724365234375	6.69166649182637041093357765930704772472381591796875	79.95833312140570114934234879910945892333984375	3.81222222612962990950791208888404071331024169921875	11.7333333861702993061726374435238540172576904296875	0.0	332.7213932760059833526611328125	0.0	1	1	1	1
425	S6	2020	1	18	17	3.10936518118414984002129131113179028034210205078125	0.17894859947788799292567318843794055283069610595703125	3.181883492939900026641453223419375717639923095703125	6.78591562996447006383959887898527085781097412109375	79.5140850443234938893510843627154827117919921875	4.016901402406279686374546145088970661163330078125	0.3666666782616350150902917448547668755054473876953125	0.0	10.3782067851473005504203683813102543354034423828125	0.0	1	1	1	0
426	S6	2020	1	18	18	0	0	0	0	0	0	0	0.0	0	0.0	1	1	1	0
427	S6	2020	1	18	19	0	0	0	0	0	0	0	0.0	0	0.0	1	1	1	0
428	S6	2020	1	18	20	0	0	0	0	0	0	0	0.0	0	0.0	1	1	1	0
429	S6	2020	1	18	21	0	0	0	0	0	0	0	0.0	0	0.0	1	1	1	0
430	S6	2020	1	18	22	0	0	0	0	0	0	0	0.0	0	0.0	1	1	1	0
431	S6	2020	1	18	23	0	0	0	0	0	0	0	0.0	0	0.0	1	1	1	0
432	S6	2020	1	18	24	0	0	0	0	0	0	0	0.0	0	0.0	1	1	1	0
433	S6	2020	1	19	1	0	0	0	0	0	0	0	0.0	0	0.0	1	1	1	0
434	S6	2020	1	19	2	0	0	0	0	0	0	0	0.0	0	0.0	1	1	1	0
435	S6	2020	1	19	3	0	0	0	0	0	0	0	0.0	0	0.0	1	1	1	0
436	S6	2020	1	19	4	0	0	0	0	0	0	0	0.0	0	0.0	1	1	1	0
437	S6	2020	1	19	5	0	0	0	0	0	0	0	0.0	0	0.0	1	1	1	0
438	S6	2020	1	19	6	0	0	0	0	0	0	0	0.0	0	0.0	1	1	1	0
439	S6	2020	1	19	7	0	0	0	0	0	0	0	0.0	0	0.0	1	1	1	0
440	S6	2020	1	19	8	0	0	0	0	0	0	0	0.0	0	0.0	1	1	1	0
441	S6	2020	1	19	9	15.9923984976040998162716277875006198883056640625	40.58715681820390130951636820100247859954833984375	13.568513461521600760306682786904275417327880859375	3.708333324818379850285054999403655529022216796875	91.3089291254678983023040927946567535400390625	0.9630952374566159601698700498673133552074432373046875	11.3833333617851995001046816469170153141021728515625	0.0	246.903277879270007133527542464435100555419921875	0.0	1	1	1	0
442	S6	2020	1	19	10	68.5404367817772026683087460696697235107421875	300.1024997711180049009271897375583648681640625	34.20637214978530238340681535191833972930908203125	4.22277776930067005878299823962152004241943359375	90.1827781253389986204638262279331684112548828125	1.4411111092401800437556858014431782066822052001953125	190.21666770180098637865739874541759490966796875	0.0	1931.25402505199008373892866075038909912109375	0.0	1	1	1	1
443	S6	2020	1	19	11	142.308186827765013049429398961365222930908203125	494.6568847656250227373675443232059478759765625	51.3938000255160005735888262279331684112548828125	5.1172221952014496082483674399554729461669921875	86.810555521647103205395978875458240509033203125	1.3761111127005600796024964438402093946933746337890625	372.35000083843800666727474890649318695068359375	0.0	5265.989404420050050248391926288604736328125	0.0	1	1	1	1
444	S6	2020	1	19	12	192.272095362344998648040927946567535400390625	598.7868301391599743510596454143524169921875	57.55671035978519967102329246699810028076171875	6.30444442431131957249590413994155824184417724609375	82.6061109330918981186187011189758777618408203125	1.226111106988450050181427286588586866855621337890625	470.79999943574199505746946670114994049072265625	0.0	6783.68159333864969084970653057098388671875	0.0	1	1	1	1
445	S6	2020	1	19	13	205.8123934851749936569831334054470062255859375	617.2987931993269512531696818768978118896484375	59.4721035957335999455608543939888477325439453125	6.81611119906107010280038593919016420841217041015625	80.3555549621581945984871708787977695465087890625	1.3097222212288099907340210847905836999416351318359375	501.14999711513399915929767303168773651123046875	0.0	7155.0961355368299336987547576427459716796875	0.0	1	1	1	1
446	S6	2020	1	19	14	183.26472591824000346605316735804080963134765625	595.905127292209044753690250217914581298828125	54.76644642088140102487159310840070247650146484375	7.0466666221618599053044817992486059665679931640625	78.6905549791124059311187011189758777618408203125	0.894444448832008021099682082422077655792236328125	454.499997695286992893670685589313507080078125	0.0	6565.5769119660099022439680993556976318359375	0.0	1	1	1	1
447	S6	2020	1	19	15	125.2588919109760041692425147630274295806884765625	498.35024176703501552765374071896076202392578125	44.7431045744153976784218684770166873931884765625	6.9577778180440201793999221990816295146942138671875	77.794443893432600134474341757595539093017578125	0.7572222233646439537579908574116416275501251220703125	326.93333253264398763349163345992565155029296875	0.0	4867.505561808749916963279247283935546875	0.0	1	1	1	1
448	S6	2020	1	19	16	49.50976868470510083852786920033395290374755859375	269.42029756969799336729920469224452972412109375	25.553678425152998698877127026207745075225830078125	6.45333337783813032473290149937383830547332763671875	78.1305558946396985220417263917624950408935546875	0.9744444451398319717583262900006957352161407470703125	117.48333405703300513778231106698513031005859375	0.0	1702.25288843115004056016914546489715576171875	0.0	1	1	1	1
449	S6	2020	1	19	17	9.6056461334228497861431605997495353221893310546875	10.628527798435900564300027326680719852447509765625	9.4877906093349704264028332545422017574310302734375	5.64415574383426044136058408184908330440521240234375	80.7584424700055052426250767894089221954345703125	1.2012987005246100746802540015778504312038421630859375	1.000000006752089998229848788469098508358001708984375	0.0	78.1104850660389047334319911897182464599609375	0.0	1	1	1	0
450	S6	2020	1	19	18	0	0	0	0	0	0	0	0.0	0	0.0	1	1	1	0
451	S6	2020	1	19	19	0	0	0	0	0	0	0	0.0	0	0.0	1	1	1	0
452	S6	2020	1	19	20	0	0	0	0	0	0	0	0.0	0	0.0	1	1	1	0
453	S6	2020	1	19	21	0	0	0	0	0	0	0	0.0	0	0.0	1	1	1	0
454	S6	2020	1	19	22	0	0	0	0	0	0	0	0.0	0	0.0	1	1	1	0
455	S6	2020	1	19	23	0	0	0	0	0	0	0	0.0	0	0.0	1	1	1	0
456	S6	2020	1	19	24	0	0	0	0	0	0	0	0.0	0	0.0	1	1	1	0
457	S6	2020	1	20	1	0	0	0	0	0	0	0	0.0	0	0.0	1	1	1	0
458	S6	2020	1	20	2	0	0	0	0	0	0	0	0.0	0	0.0	1	1	1	0
459	S6	2020	1	20	3	0	0	0	0	0	0	0	0.0	0	0.0	1	1	1	0
460	S6	2020	1	20	4	0	0	0	0	0	0	0	0.0	0	0.0	1	1	1	0
461	S6	2020	1	20	5	0	0	0	0	0	0	0	0.0	0	0.0	1	1	1	0
462	S6	2020	1	20	6	0	0	0	0	0	0	0	0.0	0	0.0	1	1	1	0
463	S6	2020	1	20	7	0	0	0	0	0	0	0	0.0	0	0.0	1	1	1	0
464	S6	2020	1	20	8	0	0	0	0	0	0	0	0.0	0	0.0	1	1	1	0
465	S6	2020	1	20	9	7.4055187481900901502740452997386455535888671875	0.31390179879963397979736328125	7.51859657919924995184146609972231090068817138671875	5.0043478219405397311447813990525901317596435546875	91.866304812224001352660707198083400726318359375	2.2831521675638501989169526495970785617828369140625	4.43333341584850959549157778383232653141021728515625	0.0	120.6477481716620019369656802155077457427978515625	0.0	1	1	1	1
466	S6	2020	1	20	10	27.977993758519399847273234627209603786468505859375	0.233632481843232986395975103732780553400516510009765625	28.092537130249798593695231829769909381866455078125	5.34611109362707992431751335971057415008544921875	90.4411111195882000401979894377291202545166015625	2.6077777738372400762045799638144671916961669921875	26.616666745394500281918226392008364200592041015625	0.0	747.051674127578053230536170303821563720703125	0.0	1	1	1	1
467	S6	2020	1	20	11	68.441876941256992950002313591539859771728515625	0.3043686793496209741505253987270407378673553466796875	68.5389772997962012368589057587087154388427734375	6.06277778678470014028789591975510120391845703125	88.811667548285498696714057587087154388427734375	2.46861110809776018726324764429591596126556396484375	66.316666857649494204451912082731723785400390625	0.0	1911.06196517745001983712427318096160888671875	0.0	1	1	1	1
468	S6	2020	1	20	12	71.1945637808905047450025449506938457489013671875	0.285472102670205007957093812365201301872730255126953125	71.2351358413695976423696265555918216705322265625	6.4872222344080601175164701999165117740631103515625	88.057777277628503043160890229046344757080078125	2.65500000317890982870494553935714066028594970703125	68.933333829045096763366018421947956085205078125	0.0	1999.126604696110007353127002716064453125	0.0	1	1	1	1
469	S6	2020	1	20	13	112.58694616953499689770978875458240509033203125	5.0491819988936104124377379775978624820709228515625	110.94230473836199735160334967076778411865234375	6.93833335505591008995907031930983066558837890625	85.553333324856197350527509115636348724365234375	2.8358333296245898935694640385918319225311279296875	125.31666706005700007153791375458240509033203125	0.0	3375.7858753204300228389911353588104248046875	0.0	1	1	1	1
470	S6	2020	1	20	14	110.426121796502002325723879039287567138671875	9.4628519704772298126727037015371024608612060546875	107.487132771809001496876589953899383544921875	7.229444442854980223955863039009273052215576171875	84.1350004831949007666480611078441143035888671875	2.834999985992900040088215973810292780399322509765625	128.44999966521999112956109456717967987060546875	0.0	3322.2325712442298026871867477893829345703125	0.0	1	1	1	1
471	S6	2020	1	20	15	81.145351356930206065953825600445270538330078125	7.06811264165572961104544447152875363826751708984375	79.643385495079797919970587827265262603759765625	7.12222212685478961446960965986363589763641357421875	84.541666751437702487237402237951755523681640625	3.112222220003599826299023334286175668239593505859375	95.4833334932722976873264997266232967376708984375	0.0	2466.8287004033700213767588138580322265625	0.0	1	1	1	1
472	S6	2020	1	20	16	27.747861075401299757459128159098327159881591796875	1.3472330280269100288847994306706823408603668212890625	27.61655744181729943420577910728752613067626953125	7.0783332586288398857732317992486059665679931640625	84.0650008307562046638850006274878978729248046875	2.929722224010359976631434619775973260402679443359375	28.850000165402800433867014362476766109466552734375	0.0	749.435389786958012336981482803821563720703125	0.0	1	1	1	1
473	S6	2020	1	20	17	5.62185545160312027945792578975670039653778076171875	0.1459964375303240136094728995885816402733325958251953125	5.71188916100395971398029359988868236541748046875	6.944444497426349727220440399833023548126220703125	84.7919188220090944696494261734187602996826171875	2.401010091256610134990978622226975858211517333984375	1.03333335525045999503390703466720879077911376953125	0.0	33.66482152293129814779604203067719936370849609375	0.0	1	1	1	0
474	S6	2020	1	20	18	0	0	0	0	0	0	0	0.0	0	0.0	1	1	1	0
475	S6	2020	1	20	19	0	0	0	0	0	0	0	0.0	0	0.0	1	1	1	0
476	S6	2020	1	20	20	0	0	0	0	0	0	0	0.0	0	0.0	1	1	1	0
477	S6	2020	1	20	21	0	0	0	0	0	0	0	0.0	0	0.0	1	1	1	0
478	S6	2020	1	20	22	0	0	0	0	0	0	0	0.0	0	0.0	1	1	1	0
479	S6	2020	1	20	23	0	0	0	0	0	0	0	0.0	0	0.0	1	1	1	0
480	S6	2020	1	20	24	0	0	0	0	0	0	0	0.0	0	0.0	1	1	1	0
481	S6	2020	1	21	1	0	0	0	0	0	0	0	0.0	0	0.0	1	1	1	0
482	S6	2020	1	21	2	0	0	0	0	0	0	0	0.0	0	0.0	1	1	1	0
483	S6	2020	1	21	3	0	0	0	0	0	0	0	0.0	0	0.0	1	1	1	0
484	S6	2020	1	21	4	0	0	0	0	0	0	0	0.0	0	0.0	1	1	1	0
485	S6	2020	1	21	5	0	0	0	0	0	0	0	0.0	0	0.0	1	1	1	0
486	S6	2020	1	21	6	0	0	0	0	0	0	0	0.0	0	0.0	1	1	1	0
487	S6	2020	1	21	7	0	0	0	0	0	0	0	0.0	0	0.0	1	1	1	0
488	S6	2020	1	21	8	0	0	0	0	0	0	0	0.0	0	0.0	1	1	1	0
489	S6	2020	1	21	9	6.9269223250448703765869140625	0.18087522138375700109236277057789266109466552734375	7.00391265004873009303310027462430298328399658203125	7.0359374657273203723661936237476766109466552734375	82.957812905311499207527958787977695465087890625	4.04374999615053010160181656829081475734710693359375	4.18333345248052967946250646491535007953643798828125	0.0	110.4665564140299949258405831642448902130126953125	0.0	1	1	1	1
490	S6	2020	1	21	10	17.72511798275839822736088535748422145843505859375	0.2028638616411219952606614924661698751151561737060546875	17.796000715096699451578388107009232044219970703125	7.1258332133293098564763567992486059665679931640625	83.1341665267944023298696265555918216705322265625	3.85916666752761994274578682961873710155487060546875	17.150000048180398692920789471827447414398193359375	0.0	478.4857381756110044079832732677459716796875	0.0	1	1	1	1
491	S6	2020	1	21	11	90.4072142601012984641783987171947956085205078125	0.324216162682406994210992934313253499567508697509765625	90.3705557293362033988159964792430400848388671875	7.46999996900558027590477649937383830547332763671875	83.192499669392901751052704639732837677001953125	4.359166666203069695484373369254171848297119140625	88.76666699846549590802169404923915863037109375	0.0	2584.086541334780122269876301288604736328125	0.0	1	1	1	1
492	S6	2020	1	21	12	82.43910400602550225812592543661594390869140625	0.363289049205680003584717496778466738760471343994140625	82.291035768720803389442153275012969970703125	7.60249990224837990382411589962430298328399658203125	83.8141660054524066936210147105157375335693359375	4.39999999619192028177394604426808655261993408203125	78.1499999264874958271320792846381664276123046875	0.0	2252.29162673154996809898875653743743896484375	0.0	1	1	1	1
493	S6	2020	1	21	13	55.7132267740037008252329542301595211029052734375	0.2213864088058470069864114293523016385734081268310546875	55.69936215082800146092267823405563831329345703125	7.69916655222573975692057501873932778835296630859375	83.90583311716710568362032063305377960205078125	4.01583333777055973001779420883394777774810791015625	52.4000002692142032856281730346381664276123046875	0.0	1465.76967388390994528890587389469146728515625	0.0	1	1	1	1
494	S6	2020	1	21	14	44.24602051311060080251991166733205318450927734375	0.1917748675785130030302383374873897992074489593505859375	44.22252167595750194095671758987009525299072265625	7.7691667397816903672946864389814436435699462890625	84.852499580383295096908113919198513031005859375	4.2458333328366197889636168838478624820709228515625	39.16666666045779976457197335548698902130126953125	0.0	1078.156327704580007775803096592426300048828125	0.0	1	1	1	1
495	S6	2020	1	21	15	28.5416920714908002310039591975510120391845703125	0.1986264108783659942947252829981152899563312530517578125	28.556026877297199462191201746463775634765625	7.697499847412100137944435118697583675384521484375	87.2316664377847956757250358350574970245361328125	4.446388890345890132493877899833023548126220703125	26.433333475142699597881801309995353221893310546875	0.0	700.7396647085739687099703587591648101806640625	0.0	1	1	1	1
496	S6	2020	1	21	16	17.207139660630900834803469479084014892578125	0.1916186388049800071176065330291748978197574615478515625	17.142135258231800065686911693774163722991943359375	7.87142869404384004639041449991054832935333251953125	87.1649997983659972078385180793702602386474609375	3.9535714307001601497404408291913568973541259765625	11.183333497804799350205939845182001590728759765625	0.0	305.36865661851999220743891783058643341064453125	0.0	1	1	1	1
497	S6	2020	1	21	17	1.8257315295288301104648098771576769649982452392578125	0.13368784425308899432849329969030804932117462158203125	1.87322827060537999699363354011438786983489990234375	7.77590371327227014575100838555954396724700927734375	88.6771087646483948674358543939888477325439453125	4.500000017235070259857820929028093814849853515625	0.1500000071246249955247975549355032853782176971435546875	0.0	2.97475992313894010976582649163901805877685546875	0.0	1	1	1	0
498	S6	2020	1	21	18	0	0	0	0	0	0	0	0.0	0	0.0	1	1	1	0
499	S6	2020	1	21	19	0	0	0	0	0	0	0	0.0	0	0.0	1	1	1	0
500	S6	2020	1	21	20	0	0	0	0	0	0	0	0.0	0	0.0	1	1	1	0
501	S6	2020	1	21	21	0	0	0	0	0	0	0	0.0	0	0.0	1	1	1	0
502	S6	2020	1	21	22	0	0	0	0	0	0	0	0.0	0	0.0	1	1	1	0
503	S6	2020	1	21	23	0	0	0	0	0	0	0	0.0	0	0.0	1	1	1	0
504	S6	2020	1	21	24	0	0	0	0	0	0	0	0.0	0	0.0	1	1	1	0
505	S6	2020	1	22	1	0	0	0	0	0	0	0	0.0	0	0.0	1	1	1	0
506	S6	2020	1	22	2	0	0	0	0	0	0	0	0.0	0	0.0	1	1	1	0
507	S6	2020	1	22	3	0	0	0	0	0	0	0	0.0	0	0.0	1	1	1	0
508	S6	2020	1	22	4	0	0	0	0	0	0	0	0.0	0	0.0	1	1	1	0
509	S6	2020	1	22	5	0	0	0	0	0	0	0	0.0	0	0.0	1	1	1	0
510	S6	2020	1	22	6	0	0	0	0	0	0	0	0.0	0	0.0	1	1	1	0
511	S6	2020	1	22	7	0	0	0	0	0	0	0	0.0	0	0.0	1	1	1	0
512	S6	2020	1	22	8	0	0	0	0	0	0	0	0.0	0	0.0	1	1	1	0
513	S6	2020	1	22	9	15.239485897993599650135365664027631282806396484375	18.13967291916230095694118062965571880340576171875	14.069620955413899565655810874886810779571533203125	5.78680211275362044176517883897759020328521728515625	85.6126896427366972375239129178225994110107421875	2.6705583683427800423260123352520167827606201171875	15.533333341590999765458036563359200954437255859375	0.0	295.37499662643898545866250060498714447021484375	0.0	1	1	1	0
514	S6	2020	1	22	10	77.9985881964365006524531054310500621795654296875	274.97174682617099961134954355657100677490234375	44.03809702661300207182648591697216033935546875	6.17750000158944967409979653893969953060150146484375	83.459999974568603420266299508512020111083984375	1.8177777746485299648071531919413246214389801025390625	199.73333341379799321657628752291202545166015625	0.0	2449.65657765666992418118752539157867431640625	0.0	1	1	1	1
515	S6	2020	1	22	11	140.395352575514010595725267194211483001708984375	307.064701390266009184415452182292938232421875	81.039823235405805235131992958486080169677734375	6.8116666475931797464227201999165117740631103515625	81.487500317891402801251388154923915863037109375	1.5663888884087400210631813024519942700862884521484375	322.0166655878230130838346667587757110595703125	0.0	5058.7600206335200709872879087924957275390625	0.0	1	1	1	1
516	S6	2020	1	22	12	188.927091593196990970682236365973949432373046875	498.14999180318199023531633429229259490966796875	70.843065989714801844456815160810947418212890625	7.18189419212446988893816524068824946880340576171875	80.7253482574207055222359485924243927001953125	0.97437326008230795704179172389558516442775726318359375	467.3499976595239786547608673572540283203125	0.0	6831.042697032289652270264923572540283203125	0.0	1	1	1	1
517	S6	2020	1	22	13	220.846841473049011028706445358693599700927734375	642.567740037706016664742492139339447021484375	61.64281949996939857783218030817806720733642578125	7.4683333834012302077098865993320941925048828125	80.0616669336954061009237193502485752105712890625	1.34444444254040007535877521149814128875732421875	537.9833360513040361183811910450458526611328125	0.0	7664.0702495972300312132574617862701416015625	0.0	1	1	1	1
518	S6	2020	1	22	14	199.111088265312986322896904312074184417724609375	623.3160459730360116736846975982189178466796875	57.59183354907560214996919967234134674072265625	7.72749998966852036375030365888960659503936767578125	78.567500050862605576185160316526889801025390625	0.93916666731238296339512316990294493734836578369140625	487.95000066359801849102950654923915863037109375	0.0	7040.55274426936011877842247486114501953125	0.0	1	1	1	1
519	S6	2020	1	22	15	145.11543032328199842595495283603668212890625	559.0147815280489567157928831875324249267578125	46.49656043582489672871815855614840984344482421875	7.46083334287007016172310613910667598247528076171875	77.0924997965494043228318332694470882415771484375	1.622499999321159958043381266179494559764862060546875	362.49999950329498688006424345076084136962890625	0.0	5341.611866156259566196240484714508056640625	0.0	1	1	1	1
520	S6	2020	1	22	16	56.49512176778579686242665047757327556610107421875	275.57047308021100207042763940989971160888671875	28.05162248346540110333080519922077655792236328125	7.11583337783812996946153361932374536991119384765625	81.2333329518636020338817615993320941925048828125	0.1702777800460650026170839055339456535875797271728515625	131.1999987810839911617222242057323455810546875	0.0	2057.872195231409932603128254413604736328125	0.0	1	1	1	1
521	S6	2020	1	22	17	7.735967793740510245470431982539594173431396484375	3.810995004147530007543309693573974072933197021484375	7.7143903960866300195675648865289986133575439453125	5.74214875402528956982450836221687495708465576171875	86.300826648050104950016248039901256561279296875	0.08181818433044370231232988999181543476879596710205078125	1.3833333350097098968234377025510184466838836669921875	0.0	74.1174997994676942880687420256435871124267578125	0.0	1	1	1	0
522	S6	2020	1	22	18	0	0	0	0	0	0	0	0.0	0	0.0	1	1	1	0
523	S6	2020	1	22	19	0	0	0	0	0	0	0	0.0	0	0.0	1	1	1	0
524	S6	2020	1	22	20	0	0	0	0	0	0	0	0.0	0	0.0	1	1	1	0
525	S6	2020	1	22	21	0	0	0	0	0	0	0	0.0	0	0.0	1	1	1	0
526	S6	2020	1	22	22	0	0	0	0	0	0	0	0.0	0	0.0	1	1	1	0
527	S6	2020	1	22	23	0	0	0	0	0	0	0	0.0	0	0.0	1	1	1	0
528	S6	2020	1	22	24	0	0	0	0	0	0	0	0.0	0	0.0	1	1	1	0
529	S6	2020	1	23	1	0	0	0	0	0	0	0	0.0	0	0.0	1	1	1	0
530	S6	2020	1	23	2	0	0	0	0	0	0	0	0.0	0	0.0	1	1	1	0
531	S6	2020	1	23	3	0	0	0	0	0	0	0	0.0	0	0.0	1	1	1	0
532	S6	2020	1	23	4	0	0	0	0	0	0	0	0.0	0	0.0	1	1	1	0
533	S6	2020	1	23	5	0	0	0	0	0	0	0	0.0	0	0.0	1	1	1	0
534	S6	2020	1	23	6	0	0	0	0	0	0	0	0.0	0	0.0	1	1	1	0
535	S6	2020	1	23	7	0	0	0	0	0	0	0	0.0	0	0.0	1	1	1	0
536	S6	2020	1	23	8	0	0	0	0	0	0	0	0.0	0	0.0	1	1	1	0
537	S6	2020	1	23	9	6.33965874585237987304253692855127155780792236328125	0.1870750321583309894180047194822691380977630615234375	6.582889799638220296174040413461625576019287109375	5.2436362613331102267011374351568520069122314453125	88.7272730047051965129867312498390674591064453125	2.581818173148410000550256881979294121265411376953125	3.7333334078236202202560889418236911296844482421875	0.0	89.0237199491821940000590984709560871124267578125	0.0	1	1	1	1
538	S6	2020	1	23	10	23.17184567583930032697026035748422145843505859375	0.253132314648893019803921333732432685792446136474609375	23.320722169346201013695463188923895359039306640625	5.39833338658014039168620001873932778835296630859375	87.8941670099894025725006940774619579315185546875	2.004444441530429887876607608632184565067291259765625	22.816666821017800970139433047734200954437255859375	0.0	616.9772860283650288693024776875972747802734375	0.0	1	1	1	1
539	S6	2020	1	23	11	43.76217317051349908751944894902408123016357421875	0.251029509947530982127972265516291372478008270263671875	43.86327248149439839153274078853428363800048828125	5.7583333373069702787461210391484200954437255859375	88.94916629791259765625	2.364166668305789809068073736852966248989105224609375	39.91666684548049914837974938564002513885498046875	0.0	1138.888751715420085020014084875583648681640625	0.0	1	1	1	1
540	S6	2020	1	23	12	40.285630538728497640477144159376621246337890625	0.2255753349926729878216491442799451760947704315185546875	40.3399442990619974125365843065083026885986328125	5.821666741371149811357099679298698902130126953125	91.9908336639404069501324556767940521240234375	2.959444443384799949825492149102501571178436279296875	37.80000014230599703068946837447583675384521484375	0.0	1094.565595686430015121004544198513031005859375	0.0	1	1	1	1
541	S6	2020	1	23	13	46.54195816251959882947630831040441989898681640625	0.213319660226504004274517001249478198587894439697265625	46.65970957014290121378508047200739383697509765625	5.85250010887780991453155365888960659503936767578125	93.6091670354206968340804451145231723785400390625	3.063333335518830136123824559035710990428924560546875	42.8000001857677006000812980346381664276123046875	0.0	1213.137632360060024439007975161075592041015625	0.0	1	1	1	1
542	S6	2020	1	23	14	36.545992136001501648934208787977695465087890625	0.230987552160190012795482061846996657550334930419921875	36.6906634595658971420562011189758777618408203125	5.97500002384184991655047269887290894985198974609375	93.7391671498616005919757299125194549560546875	3.150555553866750013725095413974486291408538818359375	33.14999987681699877839491819031536579132080078125	0.0	945.597434043884049970074556767940521240234375	0.0	1	1	1	1
543	S6	2020	1	23	15	27.405376815795801093145200866274535655975341796875	0.1944548708490189958819627236152882687747478485107421875	27.492122999827000029426926630549132823944091796875	6.05499994754790993312099089962430298328399658203125	93.4274993260701052122385590337216854095458984375	3.0991666681236598179793872986920177936553955078125	24.116666832317900315274528111331164836883544921875	0.0	691.41659215092704471317119896411895751953125	0.0	1	1	1	1
544	S6	2020	1	23	16	14.877293007903599431074326275847852230072021484375	0.1848394722781240007147829373934655450284481048583984375	14.9638573858472998523438945994712412357330322265625	5.98666667938231977785790149937383830547332763671875	94.2274997711181043769101961515843868255615234375	2.8555555442968998391961576999165117740631103515625	12.0000000965470992042583020520396530628204345703125	0.0	335.2724251337330088063026778399944305419921875	0.0	1	1	1	1
545	S6	2020	1	23	17	2.95050851596417995637011699727736413478851318359375	0.1491459284064380053091980471435817889869213104248046875	3.003006304881359778136129534686915576457977294921875	6.024030984834180202369680046103894710540771484375	94.5968988699506070361167076043784618377685546875	2.489147281461900007570875459350645542144775390625	0.53333335090429301317271892912685871124267578125	0.0	11.691328285572300416106372722424566745758056640625	0.0	1	1	1	0
546	S6	2020	1	23	18	0	0	0	0	0	0	0	0.0	0	0.0	1	1	1	0
547	S6	2020	1	23	19	0	0	0	0	0	0	0	0.0	0	0.0	1	1	1	0
548	S6	2020	1	23	20	0	0	0	0	0	0	0	0.0	0	0.0	1	1	1	0
549	S6	2020	1	23	21	0	0	0	0	0	0	0	0.0	0	0.0	1	1	1	0
550	S6	2020	1	23	22	0	0	0	0	0	0	0	0.0	0	0.0	1	1	1	0
551	S6	2020	1	23	23	0	0	0	0	0	0	0	0.0	0	0.0	1	1	1	0
552	S6	2020	1	23	24	0	0	0	0	0	0	0	0.0	0	0.0	1	1	1	0
553	S6	2020	1	24	1	0	0	0	0	0	0	0	0.0	0	0.0	1	1	1	0
554	S6	2020	1	24	2	0	0	0	0	0	0	0	0.0	0	0.0	1	1	1	0
555	S6	2020	1	24	3	0	0	0	0	0	0	0	0.0	0	0.0	1	1	1	0
556	S6	2020	1	24	4	0	0	0	0	0	0	0	0.0	0	0.0	1	1	1	0
557	S6	2020	1	24	5	0	0	0	0	0	0	0	0.0	0	0.0	1	1	1	0
558	S6	2020	1	24	6	0	0	0	0	0	0	0	0.0	0	0.0	1	1	1	0
559	S6	2020	1	24	7	0	0	0	0	0	0	0	0.0	0	0.0	1	1	1	0
560	S6	2020	1	24	8	0	0	0	0	0	0	0	0.0	0	0.0	1	1	1	0
561	S6	2020	1	24	9	11.0986814381820000363632061635144054889678955078125	0.17477604913126099095421750462264753878116607666015625	11.2114282404736993470351080759428441524505615234375	6.4651786046368702187692178995348513126373291015625	94.89419569287980493754730559885501861572265625	2.68973213753529005742848312365822494029998779296875	6.816666858503570125549231306649744510650634765625	0.0	190.743181668223002134254784323275089263916015625	0.0	1	1	1	1
562	S6	2020	1	24	10	19.852790006001701073046206147409975528717041015625	0.195806642601059011088437955550034530460834503173828125	20.08759497006730043722200207412242889404296875	6.5149999856948799248357317992486059665679931640625	93.5641670227050070707264239899814128875732421875	2.792222227983999882638954659341834485530853271484375	18.533333173642500213418315979652106761932373046875	0.0	526.185219610729973283014260232448577880859375	0.0	1	1	1	1
563	S6	2020	1	24	11	65.887649112277500762502313591539859771728515625	0.29068921965857297262658676118007861077785491943359375	66.20041482183660264126956462860107421875	6.8475000381469701693504248396493494510650634765625	90.9408332824707059671709430404007434844970703125	3.127499991489779862519071684801019728183746337890625	62.43333310509699884960355120711028575897216796875	0.0	1765.475733826549912919290363788604736328125	0.0	1	1	1	1
564	S6	2020	1	24	12	113.516033140817995672477991320192813873291015625	0.80835942148955297614776327463914640247821807861328125	113.293701468573004831341677345335483551025390625	7.1133332411448098042683341191150248050689697265625	89.4783335367837935336865484714508056640625	3.3772222174538502059704114799387753009796142578125	117.6166666671619935868875472806394100189208984375	0.0	3287.47709169984000254771672189235687255859375	0.0	1	1	1	1
565	S6	2020	1	24	13	77.5389563560485015614176518283784389495849609375	0.253878478602401980168679074267856776714324951171875	77.4021753629047992717460147105157375335693359375	7.246666649977360208367826999165117740631103515625	87.7025002797443988811210147105157375335693359375	3.2736111069718898392011396936140954494476318359375	72.4500006064773032221637549810111522674560546875	0.0	2091.12918277581002257647924125194549560546875	0.0	1	1	1	1
566	S6	2020	1	24	14	89.4370778613619989982908009551465511322021484375	0.330527438388930006052390808690688572824001312255859375	89.402103922102099886615178547799587249755859375	7.55583328008651022855701739899814128875732421875	84.3625000635781958635561750270426273345947265625	3.032222225434249907038974924944341182708740234375	80.583333658675400101856212131679058074951171875	0.0	2348.93358548482001424417831003665924072265625	0.0	1	1	1	1
567	S6	2020	1	24	15	44.490029350916501016399706713855266571044921875	0.201998091664992995841743095297715626657009124755859375	44.47110126283430275861974223516881465911865234375	7.54444440205891009298966309870593249797821044921875	84.6486113654242018355944310314953327178955078125	3.51999999723499978898644258151762187480926513671875	38.43333317587759978550820960663259029388427734375	0.0	1129.971615473419888076023198664188385009765625	0.0	1	1	1	1
568	S6	2020	1	24	16	8.4255624877942008055242695263586938381195068359375	0.12471823216160400626950632840816979296505451202392578125	8.4234054754306697532229009084403514862060546875	6.98283833324318958801768530975095927715301513671875	90.5386364676734984868744504638016223907470703125	2.844224421301289940089418450952507555484771728515625	6.2333333965701402945569498115219175815582275390625	0.0	209.1531198627000094347749836742877960205078125	0.0	1	1	1	1
569	S6	2020	1	24	17	3.279098653953340214428635590593330562114715576171875	0.1827137937781790066882336986964219249784946441650390625	3.344628973295220131234373184270225465297698974609375	6.73422814695627014458523262874223291873931884765625	93.3999992216993035754057927988469600677490234375	2.635570464518239841567037728964351117610931396484375	0.8500000190300249780506192109896801412105560302734375	0.0	17.879931617062499782377926749177277088165283203125	0.0	1	1	1	0
570	S6	2020	1	24	18	0	0	0	0	0	0	0	0.0	0	0.0	1	1	1	0
571	S6	2020	1	24	19	0	0	0	0	0	0	0	0.0	0	0.0	1	1	1	0
572	S6	2020	1	24	20	0	0	0	0	0	0	0	0.0	0	0.0	1	1	1	0
573	S6	2020	1	24	21	0	0	0	0	0	0	0	0.0	0	0.0	1	1	1	0
574	S6	2020	1	24	22	0	0	0	0	0	0	0	0.0	0	0.0	1	1	1	0
575	S6	2020	1	24	23	0	0	0	0	0	0	0	0.0	0	0.0	1	1	1	0
576	S6	2020	1	24	24	0	0	0	0	0	0	0	0.0	0	0.0	1	1	1	0
577	S6	2020	1	25	1	0	0	0	0	0	0	0	0.0	0	0.0	1	1	1	0
578	S6	2020	1	25	2	0	0	0	0	0	0	0	0.0	0	0.0	1	1	1	0
579	S6	2020	1	25	3	0	0	0	0	0	0	0	0.0	0	0.0	1	1	1	0
580	S6	2020	1	25	4	0	0	0	0	0	0	0	0.0	0	0.0	1	1	1	0
581	S6	2020	1	25	5	0	0	0	0	0	0	0	0.0	0	0.0	1	1	1	0
582	S6	2020	1	25	6	0	0	0	0	0	0	0	0.0	0	0.0	1	1	1	0
583	S6	2020	1	25	7	0	0	0	0	0	0	0	0.0	0	0.0	1	1	1	0
584	S6	2020	1	25	8	0	0	0	0	0	0	0	0.0	0	0.0	1	1	1	0
585	S6	2020	1	25	9	13.3384038515849994155360036529600620269775390625	6.148465365830769968624736065976321697235107421875	13.285241865478699452296496019698679447174072265625	5.36902667357858032204376286244951188564300537109375	92.128760413785897753768949769437313079833984375	2.001327430252480166217310397769324481487274169921875	9.4500000821426493047283656778745353221893310546875	0.0	265.0522710910689738739165477454662322998046875	0.0	1	1	1	1
586	S6	2020	1	25	10	89.8695035828483952400347334332764148712158203125	290.148823749191024035098962485790252685546875	48.14714347521459814061017823405563831329345703125	5.53166667222976027318281921907328069210052490234375	92.1833328247069943017777404747903347015380859375	1.7983333292106700174173283812706358730792999267578125	215.849999586741006396550801582634449005126953125	0.0	3101.72826126216978082084096968173980712890625	0.0	1	1	1	1
587	S6	2020	1	25	11	138.318807474772000887242029421031475067138671875	197.74487793753900177762261591851711273193359375	99.8196008364358959852324915118515491485595703125	6.36166669925052996603653809870593249797821044921875	89.9616671880086045121061033569276332855224609375	2.16555554941295991255856279167346656322479248046875	225.41666825612401225953362882137298583984375	0.0	4316.233190397409998695366084575653076171875	0.0	1	1	1	1
588	S6	2020	1	25	12	172.848321314608000420776079408824443817138671875	296.15386698888897853976231999695301055908203125	97.3309571769799930507360841147601604461669921875	6.90477525920010037907559308223426342010498046875	86.728089836206294194198562763631343841552734375	1.8890449431505000887909773155115544795989990234375	352.2166664401689786245697177946567535400390625	0.0	5815.2510260542103424086235463619232177734375	0.0	1	1	1	1
589	S6	2020	1	25	13	159.928202474583002867802861146628856658935546875	263.4526822794949794115382246673107147216796875	88.9227903994767956419309484772384166717529296875	7.1860335459256301504638031474314630031585693359375	86.7790497295016933776423684321343898773193359375	1.8508379888934098911335013326606713235378265380859375	310.8166692157579973354586400091648101806640625	0.0	5225.6072233120603414135985076427459716796875	0.0	1	1	1	1
590	S6	2020	1	25	14	73.28079087228479693294502794742584228515625	0.224472557564590002865401174858561716973781585693359375	73.274872623790400893994956277310848236083984375	7.4163636669968102665961851016618311405181884765625	84.8272726810339037228914094157516956329345703125	1.829696962147040029122990745236165821552276611328125	69.21666705360030391602776944637298583984375	0.0	1942.810938010610016135615296661853790283203125	0.0	1	1	1	1
591	S6	2020	1	25	15	81.6085970106316977989990846253931522369384765625	58.42243717043989903459078050218522548675537109375	69.7913834849420027239830233156681060791015625	7.15014403422901967388725097407586872577667236328125	86.676080489364693448806065134704113006591796875	1.968876076534769925530099499155767261981964111328125	104.033333001036993437082855962216854095458984375	0.0	2385.07099710404008874320425093173980712890625	0.0	1	1	1	1
592	S6	2020	1	25	16	19.11644880241809829612975590862333774566650390625	0.17169837666054499347723094615503214299678802490234375	19.220882895257698663726841914467513561248779296875	6.81583339770635010523847086005844175815582275390625	89.307499694824201696974341757595539093017578125	1.536388885395389980459412981872446835041046142578125	16.5666666192312987959667225368320941925048828125	0.0	474.0028396869710149985621683299541473388671875	0.0	1	1	1	1
593	S6	2020	1	25	17	9.12873590223249919972658972255885601043701171875	0.1760557205446300066409293094693566672503948211669921875	9.24979463085050923609742312692105770111083984375	6.92322587966917968316238329862244427204132080078125	89.2445157451013955096641439013183116912841796875	1.7367741965478400434363948079408146440982818603515625	3.533333417726680192316734974156133830547332763671875	0.0	118.087941291741998384168255142867565155029296875	0.0	1	1	1	0
594	S6	2020	1	25	18	0	0	0	0	0	0	0	0.0	0	0.0	1	1	1	0
595	S6	2020	1	25	19	0	0	0	0	0	0	0	0.0	0	0.0	1	1	1	0
596	S6	2020	1	25	20	0	0	0	0	0	0	0	0.0	0	0.0	1	1	1	0
597	S6	2020	1	25	21	0	0	0	0	0	0	0	0.0	0	0.0	1	1	1	0
598	S6	2020	1	25	22	0	0	0	0	0	0	0	0.0	0	0.0	1	1	1	0
599	S6	2020	1	25	23	0	0	0	0	0	0	0	0.0	0	0.0	1	1	1	0
600	S6	2020	1	25	24	0	0	0	0	0	0	0	0.0	0	0.0	1	1	1	0
601	S6	2020	1	26	1	0	0	0	0	0	0	0	0.0	0	0.0	1	1	1	0
602	S6	2020	1	26	2	0	0	0	0	0	0	0	0.0	0	0.0	1	1	1	0
603	S6	2020	1	26	3	0	0	0	0	0	0	0	0.0	0	0.0	1	1	1	0
604	S6	2020	1	26	4	0	0	0	0	0	0	0	0.0	0	0.0	1	1	1	0
605	S6	2020	1	26	5	0	0	0	0	0	0	0	0.0	0	0.0	1	1	1	0
606	S6	2020	1	26	6	0	0	0	0	0	0	0	0.0	0	0.0	1	1	1	0
607	S6	2020	1	26	7	0	0	0	0	0	0	0	0.0	0	0.0	1	1	1	0
608	S6	2020	1	26	8	0	0	0	0	0	0	0	0.0	0	0.0	1	1	1	0
609	S6	2020	1	26	9	4.006385894048779761078549199737608432769775390625	0.158464817489895992697057636178215034306049346923828125	4.08559404043923990457187755964696407318115234375	4.7595238186064197094538030796684324741363525390625	90.0314280918666014486007043160498142242431640625	2.39904761030560020884649929939769208431243896484375	1.91666671501783003606078636948950588703155517578125	0.0	56.17993673464899728742238949052989482879638671875	0.0	1	1	1	1
610	S6	2020	1	26	10	16.9337359428404994332595379091799259185791015625	0.1776290300198719862567742211467702873051166534423828125	17.030317322413100811218100716359913349151611328125	4.78944450749291039670652025961317121982574462890625	90.5566661410860973546732566319406032562255859375	2.320277774747869781180042991763912141323089599609375	15.7333335528771005584758313489146530628204345703125	0.0	463.33841035763401805525063537061214447021484375	0.0	1	1	1	1
611	S6	2020	1	26	11	49.97922381295089877539794542826712131500244140625	0.240562453327906988764794959934079088270664215087890625	50.05935658348929706562557839788496494293212890625	5.0249999761581403134869105997495353221893310546875	89.9211113823783989573712460696697235107421875	2.50888888173632995659545485978014767169952392578125	47.25000032534200045120087452232837677001953125	0.0	1349.349034329249889196944423019886016845703125	0.0	1	1	1	1
612	S6	2020	1	26	12	82.8585512903000989126667263917624950408935546875	0.3675133500041229961396993530797772109508514404296875	82.806912146674193309081601910293102264404296875	5.3405556175443802402469373191706836223602294921875	88.7361110263399979203313705511391162872314453125	2.607777770277520001940274596563540399074554443359375	77.3000002528229970266693271696567535400390625	0.0	2165.78503201405010258895345032215118408203125	0.0	1	1	1	1
613	S6	2020	1	26	13	61.865288172827803236941690556704998016357421875	0.22820743545889798920001112492172978818416595458984375	61.87672684987379767562742927111685276031494140625	5.4638889233271203949016125989146530628204345703125	87.8772218916150933409880963154137134552001953125	2.421944441894690047689664424979127943515777587890625	58.18333371231950224000684102065861225128173828125	0.0	1639.788292348380082330550067126750946044921875	0.0	1	1	1	1
614	S6	2020	1	26	14	64.55889857610060289516695775091648101806640625	0.27044321194084097736975991210783831775188446044921875	64.51371572282579336388153024017810821533203125	5.49055556456247995100738990004174411296844482421875	86.836111323038693399212206713855266571044921875	1.9636111098858999302052552593522705137729644775390625	62.30000058809910257195951999165117740631103515625	0.0	1730.213647584120053579681552946567535400390625	0.0	1	1	1	1
615	S6	2020	1	26	15	55.47109436459010112230316735804080963134765625	0.22598333872026798996301977240364067256450653076171875	55.42029268476689907174659310840070247650146484375	5.565555493036900003289701999165117740631103515625	86.6427784389918969054633635096251964569091796875	2.655833333730690082319370048935525119304656982421875	52.86666695028529971978059620596468448638916015625	0.0	1445.760736366109995287843048572540283203125	0.0	1	1	1	1
616	S6	2020	1	26	16	48.0316840118832004691284964792430400848388671875	5.99915723544028001157357721240259706974029541015625	47.597558975219698140790569595992565155029296875	5.362222213215289912113803438842296600341796875	87.188333426581493768026120960712432861328125	2.64083332949214000251458855927921831607818603515625	54.916666572292598402782459743320941925048828125	0.0	1414.774437000349962545442394912242889404296875	0.0	1	1	1	1
617	S6	2020	1	26	17	19.89864532101530159025060129351913928985595703125	0.8031658258649609916091094419243745505809783935546875	20.154623776097398746287581161595880985260009765625	4.76258065931258034453321670298464596271514892578125	88.6399998326455005326351965777575969696044921875	2.47741934560959986555417344789020717144012451171875	9.4500001015451999819561024196445941925048828125	0.0	285.835377437372017084271647036075592041015625	0.0	1	1	1	0
618	S6	2020	1	26	18	0	0	0	0	0	0	0	0.0	0	0.0	1	1	1	0
619	S6	2020	1	26	19	0	0	0	0	0	0	0	0.0	0	0.0	1	1	1	0
620	S6	2020	1	26	20	0	0	0	0	0	0	0	0.0	0	0.0	1	1	1	0
621	S6	2020	1	26	21	0	0	0	0	0	0	0	0.0	0	0.0	1	1	1	0
622	S6	2020	1	26	22	0	0	0	0	0	0	0	0.0	0	0.0	1	1	1	0
623	S6	2020	1	26	23	0	0	0	0	0	0	0	0.0	0	0.0	1	1	1	0
624	S6	2020	1	26	24	0	0	0	0	0	0	0	0.0	0	0.0	1	1	1	0
625	S6	2020	1	27	1	0	0	0	0	0	0	0	0.0	0	0.0	1	1	1	0
626	S6	2020	1	27	2	0	0	0	0	0	0	0	0.0	0	0.0	1	1	1	0
627	S6	2020	1	27	3	0	0	0	0	0	0	0	0.0	0	0.0	1	1	1	0
628	S6	2020	1	27	4	0	0	0	0	0	0	0	0.0	0	0.0	1	1	1	0
629	S6	2020	1	27	5	0	0	0	0	0	0	0	0.0	0	0.0	1	1	1	0
630	S6	2020	1	27	6	0	0	0	0	0	0	0	0.0	0	0.0	1	1	1	0
631	S6	2020	1	27	7	0	0	0	0	0	0	0	0.0	0	0.0	1	1	1	0
632	S6	2020	1	27	8	0	0	0	0	0	0	0	0.0	0	0.0	1	1	1	0
633	S6	2020	1	27	9	5.237558725888160182648789486847817897796630859375	0.1737371847275790137654638556341524235904216766357421875	5.164299654282199725230384501628577709197998046875	4.12398362935072970714145412785001099109649658203125	94.6455284056624037702931673265993595123291015625	3.15447153720428996592772818985395133495330810546875	3.250000047652669810105408032541163265705108642578125	0.0	91.8473949190229035366428433917462825775146484375	0.0	1	1	1	1
634	S6	2020	1	27	10	18.4203427500194010235645691864192485809326171875	0.1787573310546569926859916677130968309938907623291015625	18.4814004487461005510340328328311443328857421875	4.33888897101083959029210745939053595066070556640625	93.4727782779269062984894844703376293182373046875	3.18111110528310003786600645980797708034515380859375	17.2333333796510004276569816283881664276123046875	0.0	503.46939091880898331510252319276332855224609375	0.0	1	1	1	1
635	S6	2020	1	27	11	29.195901560783301675883194548077881336212158203125	0.2261038310204940005032625549574731849133968353271484375	29.318563977877300175123309600166976451873779296875	4.72944445345135999758667821879498660564422607421875	92.69111086527499310250277630984783172607421875	3.115833333465780174975634508882649242877960205078125	27.283333474770198989745040307752788066864013671875	0.0	785.0100732098029538974515162408351898193359375	0.0	1	1	1	1
636	S6	2020	1	27	12	25.580610789192999021679497673176229000091552734375	0.2297013086163330053413034192999475635588169097900390625	25.693226506974898626367576071061193943023681640625	5.19611112011803033539081297931261360645294189453125	92.65166609022350030500092543661594390869140625	2.743611106773209851183992213918827474117279052734375	22.8833332968253984063267125748097896575927734375	0.0	669.1424719989310005985316820442676544189453125	0.0	1	1	1	1
637	S6	2020	1	27	13	26.186246625582299429879640229046344757080078125	0.18035614467743299460522621302516199648380279541015625	26.279961000548400562593087670393288135528564453125	5.65722216500175978382003449951298534870147705078125	93.06333262125650662710540927946567535400390625	2.917222216063069861746726019191555678844451904296875	24.050000015025300825755039113573729991912841796875	0.0	707.6127766321100125423981808125972747802734375	0.0	1	1	1	1
638	S6	2020	1	27	14	43.90656266212459968301118351519107818603515625	0.2436245718143049965309643312139087356626987457275390625	44.02301600774119805237205582670867443084716796875	6.0422222428851597442189813591539859771728515625	93.7461108737521016109894844703376293182373046875	3.14888888961738988570004948996938765048980712890625	40.7499999739228968564930255524814128875732421875	0.0	1157.240925729269974908675067126750946044921875	0.0	1	1	1	1
639	S6	2020	1	27	15	30.629394692844801539877153118140995502471923828125	0.2242855756233129993493236042922944761812686920166015625	30.7222687350379004556089057587087154388427734375	6.47000002861021972222488329862244427204132080078125	93.9633338928222059394101961515843868255615234375	2.877777774797539933615553309209644794464111328125	26.83333366488420068662890116684138774871826171875	0.0	768.422186250488039149786345660686492919921875	0.0	1	1	1	1
640	S6	2020	1	27	16	14.8353498366143004005834882264025509357452392578125	0.1969432894554400126363447043331689201295375823974609375	14.974883172247100304730338393710553646087646484375	6.8266667180591102948028492392040789127349853515625	93.4177766587998945624349289573729038238525390625	3.014166663090379838507715248852036893367767333984375	12.416666924642999703110035625286400318145751953125	0.0	345.2315860117470265322481282055377960205078125	0.0	1	1	1	1
641	S6	2020	1	27	17	4.4230066670311796173109541996382176876068115234375	0.1641819918272539868819848152270424179732799530029296875	4.545194440417819947697353200055658817291259765625	6.8464053378385596460020678932778537273406982421875	93.30326918059699892182834446430206298828125	2.707843136943239858993592861224897205829620361328125	1.3333333772607101064266998946550302207469940185546875	0.0	37.649296802313301668618805706501007080078125	0.0	1	1	1	1
642	S6	2020	1	27	18	0	0	0	0	0	0	0	0.0	0	0.0	1	1	1	0
643	S6	2020	1	27	19	0	0	0	0	0	0	0	0.0	0	0.0	1	1	1	0
644	S6	2020	1	27	20	0	0	0	0	0	0	0	0.0	0	0.0	1	1	1	0
645	S6	2020	1	27	21	0	0	0	0	0	0	0	0.0	0	0.0	1	1	1	0
646	S6	2020	1	27	22	0	0	0	0	0	0	0	0.0	0	0.0	1	1	1	0
647	S6	2020	1	27	23	0	0	0	0	0	0	0	0.0	0	0.0	1	1	1	0
648	S6	2020	1	27	24	0	0	0	0	0	0	0	0.0	0	0.0	1	1	1	0
649	S6	2020	1	28	1	0	0	0	0	0	0	0	0.0	0	0.0	1	1	1	0
650	S6	2020	1	28	2	0	0	0	0	0	0	0	0.0	0	0.0	1	1	1	0
651	S6	2020	1	28	3	0	0	0	0	0	0	0	0.0	0	0.0	1	1	1	0
652	S6	2020	1	28	4	0	0	0	0	0	0	0	0.0	0	0.0	1	1	1	0
653	S6	2020	1	28	5	0	0	0	0	0	0	0	0.0	0	0.0	1	1	1	0
654	S6	2020	1	28	6	0	0	0	0	0	0	0	0.0	0	0.0	1	1	1	0
655	S6	2020	1	28	7	0	0	0	0	0	0	0	0.0	0	0.0	1	1	1	0
656	S6	2020	1	28	8	0	0	0	0	0	0	0	0.0	0	0.0	1	1	1	0
657	S6	2020	1	28	9	4.40019179312954999971907454892061650753021240234375	0.1758658113105900089312427780896541662514209747314453125	4.41217796693717989597871564910747110843658447265625	5.3261905624752898802398703992366790771484375	95.3301607767740932786182384006679058074951171875	1.607142857379380007643021599506027996540069580078125	2.91666672176990982023880860651843249797821044921875	0.0	73.267388343811006734540569595992565155029296875	0.0	1	1	1	1
658	S6	2020	1	28	10	17.37879906495410153866032487712800502777099609375	0.199697300005290012681058442467474378645420074462890625	17.4285218053393009540741331875324249267578125	5.5816666046778298237995841191150248050689697265625	95.3805557674831021586214774288237094879150390625	2.23472221559948014402152693946845829486846923828125	16.333333185563400746787010575644671916961669921875	0.0	459.08455116053499978079344145953655242919921875	0.0	1	0	1	1
659	S6	2020	1	28	11	35.127859936820101438570418395102024078369140625	0.1962750207011889902464218948807683773338794708251953125	35.29476213985009991347396862693130970001220703125	5.8688889794879397499016704387031495571136474609375	94.5144446902803991861219401471316814422607421875	2.978888884683450033463714134995825588703155517578125	32.2500001018245967543407459743320941925048828125	0.0	930.350575471916954484186135232448577880859375	0.0	1	1	1	1
660	S6	2020	1	28	12	37.34074233372999884750242927111685276031494140625	0.2230992725532910114782936261690338142216205596923828125	37.532756450441098650117055512964725494384765625	5.93055561383564988631178493960760533809661865234375	94.193888600667293076185160316526889801025390625	2.53861109945508989227391793974675238132476806640625	37.8999996775140033378193038515746593475341796875	0.0	1090.93585026760001710499636828899383544921875	0.0	1	1	1	1
661	S6	2020	1	28	13	98.908707762563693677293485961854457855224609375	0.7107191145336819726452404211158864200115203857421875	98.426100906713003269032924436032772064208984375	6.4217877201527802100144981523044407367706298828125	91.13575433485999610638828016817569732666015625	2.835195533723129823755471079493872821331024169921875	98.483332991599894512546597979962825775146484375	0.0	2781.31842513879018952138721942901611328125	0.0	1	1	1	1
662	S6	2020	1	28	14	73.904042522887294808242586441338062286376953125	0.28574580879762601082205719649209640920162200927734375	73.9482117124254045847919769585132598876953125	6.6615598141980996160782524384558200836181640625	87.483007978263998438706039451062679290771484375	2.515877438620929940071846431237645447254180908203125	65.8833336085080958355320035479962825775146484375	0.0	1882.045927395419994354597292840480804443359375	0.0	1	1	1	1
663	S6	2020	1	28	15	59.16465951071840123631773167289793491363525390625	0.229912308396564013523999392418772913515567779541015625	59.30707658131910164911460014991462230682373046875	6.73499995867411005434632897959090769290924072265625	86.80777778625480323171359486877918243408203125	2.068888882464829936935757359606213867664337158203125	54.0833334128061977708057384006679058074951171875	0.0	1536.784608662120035660336725413799285888671875	0.0	1	1	1	1
664	S6	2020	1	28	16	36.07305272950060270886751823127269744873046875	0.1926224405773810099962162212250404991209506988525390625	36.2292712555991016643019975163042545318603515625	6.61444438298542980447791705955751240253448486328125	86.1277782440185006862520822323858737945556640625	2.134444440570140155699618844664655625820159912109375	31.26666668492050149552596849389374256134033203125	0.0	885.790071077643005992285907268524169921875	0.0	1	1	1	1
665	S6	2020	1	28	17	4.841012731269369595565876807086169719696044921875	0.18622872701392101379980204001185484230518341064453125	4.78804463237973010336645529605448246002197265625	6.53969845460286958171991500421427190303802490234375	86.2532658792620026133590727113187313079833984375	2.4658291465672999009939303505234420299530029296875	1.483333378564569926538752042688429355621337890625	0.0	44.7442381099486965467804111540317535400390625	0.0	1	1	1	1
666	S6	2020	1	28	18	0	0	0	0	0	0	0	0.0	0	0.0	1	1	1	0
667	S6	2020	1	28	19	0	0	0	0	0	0	0	0.0	0	0.0	1	1	1	0
668	S6	2020	1	28	20	0	0	0	0	0	0	0	0.0	0	0.0	1	1	1	0
669	S6	2020	1	28	21	0	0	0	0	0	0	0	0.0	0	0.0	1	1	1	0
670	S6	2020	1	28	22	0	0	0	0	0	0	0	0.0	0	0.0	1	1	1	0
671	S6	2020	1	28	23	0	0	0	0	0	0	0	0.0	0	0.0	1	1	1	0
672	S6	2020	1	28	24	0	0	0	0	0	0	0	0.0	0	0.0	1	1	1	0
673	S6	2020	1	29	1	0	0	0	0	0	0	0	0.0	0	0.0	1	1	1	0
674	S6	2020	1	29	2	0	0	0	0	0	0	0	0.0	0	0.0	1	1	1	0
675	S6	2020	1	29	3	0	0	0	0	0	0	0	0.0	0	0.0	1	1	1	0
676	S6	2020	1	29	4	0	0	0	0	0	0	0	0.0	0	0.0	1	1	1	0
677	S6	2020	1	29	5	0	0	0	0	0	0	0	0.0	0	0.0	1	1	1	0
678	S6	2020	1	29	6	0	0	0	0	0	0	0	0.0	0	0.0	1	1	1	0
679	S6	2020	1	29	7	0	0	0	0	0	0	0	0.0	0	0.0	1	1	1	0
680	S6	2020	1	29	8	0	0	0	0	0	0	0	0.0	0	0.0	1	1	1	0
681	S6	2020	1	29	9	21.877365646722100933629917562939226627349853515625	27.75159768687100125816868967376649379730224609375	19.92773535926379935290242428891360759735107421875	3.9075471959024099533053231425583362579345703125	86.5890567419663028658760595135390758514404296875	3.14264150588016999421370201162062585353851318359375	24.350000262105201187523562111891806125640869140625	0.0	495.9921840267879815655760467052459716796875	0.0	1	1	1	1
682	S6	2020	1	29	10	101.04787274466599455990944989025592803955078125	300.47040947543200672953389585018157958984375	55.5145047823587987068094662390649318695068359375	4.58944444126553019458469862001948058605194091796875	86.48055453830289707184419967234134674072265625	3.104166660209489947419569944031536579132080078125	227.5999995569389966476592235267162322998046875	0.0	3255.9269959727898822166025638580322265625	0.0	1	1	1	1
683	S6	2020	1	29	11	157.062228986003987074582255445420742034912109375	357.87866430192599409565445967018604278564453125	76.0420199133163947635694057680666446685791015625	5.14497208328886035388904929277487099170684814453125	84.4787708474270999658983782865107059478759765625	2.94106144279075021330527306417934596538543701171875	307.18333187202597400755621492862701416015625	0.0	4878.9531866709303358220495283603668212890625	0.0	1	1	1	1
684	S6	2020	1	29	12	175.583778316323986246061394922435283660888671875	61.53472291618920309019813430495560169219970703125	158.219317891380995888539473526179790496826171875	5.7124999978325501359677218715660274028778076171875	83.68238615989679374251863919198513031005859375	2.900284092195999807728412633878178894519805908203125	221.516667306422988303893362171947956085205078125	0.0	5390.6689782937401105300523340702056884765625	0.0	1	1	1	1
685	S6	2020	1	29	13	117.040464247317999024744494818150997161865234375	5.2548668369577296033412494580261409282684326171875	114.9748821325459999798113130964338779449462890625	6.07754378235129966157046510488726198673248291015625	83.302104963336006449026172049343585968017578125	2.93157894318563005953137690084986388683319091796875	91.56666677445190316575462929904460906982421875	0.0	2612.5813926259697836940176784992218017578125	0.0	1	1	1	1
686	S6	2020	1	29	14	62.71892388661699868634968879632651805877685546875	0.31810098444628998048955281774397008121013641357421875	62.78206008275339655710922670550644397735595703125	5.736111100514730054555911920033395290374755859375	86.696666590372700511579751037061214447021484375	2.96861110031604003012262182892300188541412353515625	62.2666670009493969928371370770037174224853515625	0.0	1803.836291035009935512789525091648101806640625	0.0	1	1	1	1
687	S6	2020	1	29	15	79.080350769890600304279359988868236541748046875	0.494227679280770992864546542477910406887531280517578125	79.145690335167699913654359988868236541748046875	6.11277781062656000443666926003061234951019287109375	84.0522220187717010730921174399554729461669921875	3.010833331280279967501201099366880953311920166015625	73.933333220581204159316257573664188385009765625	0.0	2098.48812669515018569654785096645355224609375	0.0	1	1	1	1
688	S6	2020	1	29	16	45.88361733754469895529837231151759624481201171875	53.43631095555090126936192973516881465911865234375	41.070737028121897083110525272786617279052734375	6.40888896783191963635317733860574662685394287109375	80.3172220442030067033556406386196613311767578125	2.969999988211519781344804869149811565876007080078125	68.450000571707704466462018899619579315185546875	0.0	1427.552578349899931708932854235172271728515625	0.0	1	1	1	1
689	S6	2020	1	29	17	21.9090128874778002909806673415005207061767578125	23.113490752428699437359682633541524410247802734375	20.49717817544929943096576607786118984222412109375	6.2300000143051104117830618633888661861419677734375	78.2500003051757033745161606930196285247802734375	2.744999995231620193436583576840348541736602783203125	12.3666667340632994154248081031255424022674560546875	0.0	331.42225898336602085691993124783039093017578125	0.0	1	1	1	0
690	S6	2020	1	29	18	0	0	0	0	0	0	0	0.0	0	0.0	1	1	1	0
691	S6	2020	1	29	19	0	0	0	0	0	0	0	0.0	0	0.0	1	1	1	0
692	S6	2020	1	29	20	0	0	0	0	0	0	0	0.0	0	0.0	1	1	1	0
693	S6	2020	1	29	21	0	0	0	0	0	0	0	0.0	0	0.0	1	1	1	0
694	S6	2020	1	29	22	0	0	0	0	0	0	0	0.0	0	0.0	1	1	1	0
695	S6	2020	1	29	23	0	0	0	0	0	0	0	0.0	0	0.0	1	1	1	0
696	S6	2020	1	29	24	0	0	0	0	0	0	0	0.0	0	0.0	1	1	1	0
697	S6	2020	1	30	1	0	0	0	0	0	0	0	0.0	0	0.0	1	1	1	0
698	S6	2020	1	30	2	0	0	0	0	0	0	0	0.0	0	0.0	1	1	1	0
699	S6	2020	1	30	3	0	0	0	0	0	0	0	0.0	0	0.0	1	1	1	0
700	S6	2020	1	30	4	0	0	0	0	0	0	0	0.0	0	0.0	1	1	1	0
701	S6	2020	1	30	5	0	0	0	0	0	0	0	0.0	0	0.0	1	1	1	0
702	S6	2020	1	30	6	0	0	0	0	0	0	0	0.0	0	0.0	1	1	1	0
703	S6	2020	1	30	7	0	0	0	0	0	0	0	0.0	0	0.0	1	1	1	0
704	S6	2020	1	30	8	0	0	0	0	0	0	0	0.0	0	0.0	1	1	1	0
705	S6	2020	1	30	9	8.000163312535729431829167879186570644378662109375	0.1749319601804009971512954280115081928670406341552734375	8.111618134658780121526433504186570644378662109375	7.08906241506338030688993967487476766109466552734375	93.8171869516371970121326739899814128875732421875	3.272656254470339920459309723810292780399322509765625	4.9166667779597101883837240166030824184417724609375	0.0	128.2362429657949860484222881495952606201171875	0.0	1	1	1	1
706	S6	2020	1	30	10	40.99845242235389974894133047200739383697509765625	0.430204162560403002846243225576472468674182891845703125	41.0877099514006971503476961515843868255615234375	6.92206704549948970139894299791194498538970947265625	93.616667238871201561778434552252292633056640625	3.043016762373830008669983726576901972293853759765625	43.7666665141779986925030243583023548126220703125	0.0	1169.533528511720078313373960554599761962890625	0.0	1	1	1	1
707	S6	2020	1	30	11	93.6804757648043988638164591975510120391845703125	4.7513577741053296676909667439758777618408203125	92.616376834445503618553630076348781585693359375	7.09833332697550023482335745939053595066070556640625	92.518333943684893938552704639732837677001953125	2.75194444656372017021794817992486059665679931640625	103.99999941388699653543881140649318695068359375	0.0	2747.42091695466979217599146068096160888671875	0.0	1	1	1	1
708	S6	2020	1	30	12	96.7782642576429026348705519922077655792236328125	0.399133961233826994874362981136073358356952667236328125	96.9667874760097987518747686408460140228271484375	7.92416680653890015406659586005844175815582275390625	90.7000000635782015478980611078441143035888671875	2.51388888681927991086695328704081475734710693359375	91.033333850403693077169009484350681304931640625	0.0	2545.49119323492004696163348853588104248046875	0.0	1	1	1	1
709	S6	2020	1	30	13	78.593537224663606366448220796883106231689453125	0.69251115274512098363146606061491183936595916748046875	78.327623669306404963208478875458240509033203125	8.2391666571299193577715413994155824184417724609375	89.2708340962727930900655337609350681304931640625	2.8124999985098799726301876944489777088165283203125	75.3833337066075017673938418738543987274169921875	0.0	2136.42125216621980143827386200428009033203125	0.0	1	1	1	1
710	S6	2020	1	30	14	88.9227416780259005690822959877550601959228515625	4.54586727485939956494576108525507152080535888671875	87.688901646931896038950071670114994049072265625	8.123333382606499952771628159098327159881591796875	88.614166895548493130263523198664188385009765625	2.4658333279192401477075691218487918376922607421875	104.283333259323995889644720591604709625244140625	0.0	2779.3073799461099042673595249652862548828125	0.0	1	1	1	1
711	S6	2020	1	30	15	95.0825595431856953609894844703376293182373046875	12.33103883329570038540623500011861324310302734375	91.700072171952996313848416320979595184326171875	8.4341665426890006784788056393153965473175048828125	83.96166725158690269381622783839702606201171875	2.849999988906910086683410554542206227779388427734375	90.033333872755093807427329011261463165283203125	0.0	2436.5254464248801014036871492862701416015625	0.0	1	1	1	1
712	S6	2020	1	30	16	17.37085417882060056626869481988251209259033203125	0.188102833291034998719482018714188598096370697021484375	17.529230015409499543466154136694967746734619140625	8.144171821559130108880708576180040836334228515625	88.665643773927200754769728519022464752197265625	2.78220858100366985610207848367281258106231689453125	13.1500000444550995126746784080751240253448486328125	0.0	385.24259359886099218783783726394176483154296875	0.0	1	1	1	1
713	S6	2020	1	30	17	9.6969188034154800703845467069186270236968994140625	0.18621609580649600701462986762635409832000732421875	9.95692835643792051314449054189026355743408203125	8.112102028670580722291560960002243518829345703125	88.317197666046695303521119058132171630859375	2.633757966339199896310674375854432582855224609375	3.7666667543817400343186818645335733890533447265625	0.0	113.392517777780000187703990377485752105712890625	0.0	1	1	1	1
714	S6	2020	1	30	18	0	0	0	0	0	0	0	0.0	0	0.0	1	1	1	0
715	S6	2020	1	30	19	0	0	0	0	0	0	0	0.0	0	0.0	1	1	1	0
716	S6	2020	1	30	20	0	0	0	0	0	0	0	0.0	0	0.0	1	1	1	0
717	S6	2020	1	30	21	0	0	0	0	0	0	0	0.0	0	0.0	1	1	1	0
718	S6	2020	1	30	22	0	0	0	0	0	0	0	0.0	0	0.0	1	1	1	0
719	S6	2020	1	30	23	0	0	0	0	0	0	0	0.0	0	0.0	1	1	1	0
720	S6	2020	1	30	24	0	0	0	0	0	0	0	0.0	0	0.0	1	1	1	0
721	S6	2020	1	31	1	0	0	0	0	0	0	0	0.0	0	0.0	1	1	1	0
722	S6	2020	1	31	2	0	0	0	0	0	0	0	0.0	0	0.0	1	1	1	0
723	S6	2020	1	31	3	0	0	0	0	0	0	0	0.0	0	0.0	1	1	1	0
724	S6	2020	1	31	4	0	0	0	0	0	0	0	0.0	0	0.0	1	1	1	0
725	S6	2020	1	31	5	0	0	0	0	0	0	0	0.0	0	0.0	1	1	1	0
726	S6	2020	1	31	6	0	0	0	0	0	0	0	0.0	0	0.0	1	1	1	0
727	S6	2020	1	31	7	0	0	0	0	0	0	0	0.0	0	0.0	1	1	1	0
728	S6	2020	1	31	8	0	0	0	0	0	0	0.08333333729145829538165202166055678389966487884521484375	0.0	2.4501349932203400072694421396590769290924072265625	0.0	1	1	1	0
729	S6	2020	1	31	9	9.5271296510773293420015761512331664562225341796875	0.1635331141897619910974270851511391811072826385498046875	9.6339269717854794095046599977649748325347900390625	7.9637097966286400918534127413295209407806396484375	92.4036295490879950875751092098653316497802734375	4.12258064314242034242852241732180118560791015625	6.85000007700485991080086023430339992046356201171875	0.0	198.3143259150280073299654759466648101806640625	0.0	1	1	1	1
730	S6	2020	1	31	10	43.81041187445320161941708647646009922027587890625	0.28853693006353198224900324930786155164241790771484375	43.92730784151279976867954246699810028076171875	7.8900000969568804265463768388144671916961669921875	92.69166564941400565658113919198513031005859375	3.59777779082457005443984598969109356403350830078125	42.483333343019097583237453363835811614990234375	0.0	1201.53287760913008241914212703704833984375	0.0	1	1	1	1
731	S6	2020	1	31	11	74.9251997841729036053948220796883106231689453125	0.46373366030553897498833748613833449780941009521484375	75.123171954684693218950997106730937957763671875	8.271666781107580135312673519365489482879638671875	88.181667073567695069868932478129863739013671875	4.026388890544570386964551289565861225128173828125	74.9333340674642016665529808960855007171630859375	0.0	2084.8750914136498977313749492168426513671875	0.0	1	1	1	1
732	S6	2020	1	31	12	126.09197787432600534884841181337833404541015625	8.886432920378940281125323963351547718048095703125	123.125833409269006324393558315932750701904296875	8.2163380528839500271942597464658319950103759765625	86.2101406903334037679087487049400806427001953125	3.89521127150092016933058403083123266696929931640625	142.266666640837996737900539301335811614990234375	0.0	3794.71995184817978952196426689624786376953125	0.0	1	1	1	1
733	S6	2020	1	31	13	115.821180915832002256138366647064685821533203125	1.5671148400339800499381226472905836999416351318359375	114.9414347118800066027688444592058658599853515625	8.4916666507720908185774533194489777088165283203125	80.91333312988280113131622783839702606201171875	3.628888895279830162365897194831632077693939208984375	110.033333798249003621094743721187114715576171875	0.0	3078.6972930033998636645264923572540283203125	0.0	1	1	1	1
734	S6	2020	1	31	14	76.4674949804940951025855611078441143035888671875	0.2417907733470200104530789531054324470460414886474609375	76.297642644246394638685160316526889801025390625	8.5200000921885106208719662390649318695068359375	79.8366662343343023167108185589313507080078125	3.3877777886059501355475731543265283107757568359375	71.11666655788809521254734136164188385009765625	0.0	2071.52714853484985724207945168018341064453125	0.0	1	1	1	1
735	S6	2020	1	31	15	44.08888928863630241039572865702211856842041015625	0.1658922838519729936468394271287252195179462432861328125	44.1160999851154969064737088046967983245849609375	8.1267658272640392880248327855952084064483642578125	84.24981400160089606288238428533077239990234375	2.9561338247419701730223096092231571674346923828125	34.6833334925272964710529777221381664276123046875	0.0	1059.04051624237990836263634264469146728515625	0.0	1	1	1	1
736	S6	2020	1	31	16	13.184502228100999587923070066608488559722900390625	0.1721155809859430119157508443095139227807521820068359375	13.28818024131980024549193331040441989898681640625	7.38500007788339996039894685964100062847137451171875	91.228333028157493345133843831717967987060546875	2.39611110869380983245946481474675238132476806640625	10.600000107660800807707346393726766109466552734375	0.0	328.3722357203570254569058306515216827392578125	0.0	1	1	1	1
737	S6	2020	1	31	17	5.25516621794019034297207326744683086872100830078125	0.1718763256072990130984834422633866779506206512451171875	5.40158255849565005490831026691012084484100341796875	7.28139544642248015549057527096010744571685791015625	91.2480000959123032089337357319891452789306640625	2.308139535230250061204060330055654048919677734375	1.7500000443154399842882185112102888524532318115234375	0.0	61.044778461412903425298281945288181304931640625	0.0	1	1	1	1
738	S6	2020	1	31	18	0	0	0	0	0	0	0	0.0	0	0.0	1	1	1	0
739	S6	2020	1	31	19	0	0	0	0	0	0	0	0.0	0	0.0	1	1	1	0
740	S6	2020	1	31	20	0	0	0	0	0	0	0	0.0	0	0.0	1	1	1	0
741	S6	2020	1	31	21	0	0	0	0	0	0	0	0.0	0	0.0	1	1	1	0
742	S6	2020	1	31	22	0	0	0	0	0	0	0	0.0	0	0.0	1	1	1	0
743	S6	2020	1	31	23	0	0	0	0	0	0	0	0.0	0	0.0	1	1	1	0
744	S6	2020	1	31	24	0	0	0	0	0	0	0	0.0	0	0.0	1	1	1	0
745	S6	2020	2	1	1	0	0	0	0	0	0	0	0.0	0	0.0	1	1	1	0
746	S6	2020	2	1	2	0	0	0	0	0	0	0	0.0	0	0.0	1	1	1	0
747	S6	2020	2	1	3	0	0	0	0	0	0	0	0.0	0	0.0	1	1	1	0
748	S6	2020	2	1	4	0	0	0	0	0	0	0	0.0	0	0.0	1	1	1	0
749	S6	2020	2	1	5	0	0	0	0	0	0	0	0.0	0	0.0	1	1	1	0
750	S6	2020	2	1	6	0	0	0	0	0	0	0	0.0	0	0.0	1	1	1	0
751	S6	2020	2	1	7	0	0	0	0	0	0	0	0.0	0	0.0	1	1	1	0
752	S6	2020	2	1	8	0	0	0	0	0	0	0	0.0	0	0.0	1	1	1	0
753	S6	2020	2	1	9	9.6577215679925796365523638087324798107147216796875	0.21053589704497899237622959844884462654590606689453125	9.7786482123274307554083861759863793849945068359375	9.730150668465309848897959454916417598724365234375	90.134170877274499389386619441211223602294921875	3.819095473193640177811403191299177706241607666015625	5.500000065270199911537929438054561614990234375	0.0	142.7935532255399948553531430661678314208984375	0.0	1	1	1	1
754	S6	2020	2	1	10	24.57420309649570100418713991530239582061767578125	0.230012042406532002392083313679904676973819732666015625	24.747730305459700872461326071061193943023681640625	9.936110920376240329687789198942482471466064453125	88.4744443257649066936210147105157375335693359375	3.41999999880790017670051383902318775653839111328125	24.7166667599230009955135756172239780426025390625	0.0	664.3832396715870345360599458217620849609375	0.0	1	1	1	1
755	S6	2020	2	1	11	57.0659621233319995781130273826420307159423828125	14.5932075046028995046754062059335410594940185546875	53.37213919795829752956706215627491474151611328125	10.302824790868299942303565330803394317626953125	85.752542829782896660617552697658538818359375	3.137288134987069820880378756555728614330291748046875	72.883333700398594601210788823664188385009765625	0.0	1670.97473467388999779359437525272369384765625	0.0	1	1	1	1
756	S6	2020	2	1	12	48.63185443492290005451650358736515045166015625	7.60529125426293983736059090006165206432342529296875	46.3791498696871968832056154496967792510986328125	10.056936410121100067271981970407068729400634765625	86.84942177127550166915170848369598388671875	3.332947973398800112221351810148917138576507568359375	45.56666680922109691209698212333023548126220703125	0.0	1173.439947888249889729195274412631988525390625	0.0	1	1	1	1
757	S6	2020	2	1	13	52.646775764889099491483648307621479034423828125	0.308043369587458981673222524477750994265079498291015625	52.825478876961597052286379039287567138671875	9.5116667217678401158309497986920177936553955078125	89.2711106194389998336191638372838497161865234375	2.734999994271329892825406204792670905590057373046875	53.2166671628752965261810459196567535400390625	0.0	1496.908812845739930708077736198902130126953125	0.0	1	1	1	1
758	S6	2020	2	1	14	100.5557260513299979720613919198513031005859375	3.826540671123389802943393078749068081378936767578125	99.4007347530787939149377052672207355499267578125	10.2427777714199006453554829931817948818206787109375	85.181666692097905979608185589313507080078125	3.130277781354049881912260389071889221668243408203125	97.833332916100602005826658569276332855224609375	0.0	2711.5163584550100495107471942901611328125	0.0	1	1	1	1
759	S6	2020	2	1	15	58.39660229153100345911298063583672046661376953125	0.26701870517184300712898448182386346161365509033203125	58.419520907931797637502313591539859771728515625	10.2361112276712997726235698792152106761932373046875	82.778333282470697440658113919198513031005859375	3.20333332957492000758747963118366897106170654296875	54.03333377713949658982528490014374256134033203125	0.0	1516.221076001719893611152656376361846923828125	0.0	1	1	1	1
760	S6	2020	2	1	16	39.683989561928598277518176473677158355712890625	0.20325182564556598663330078125	39.8631691323385979330851114355027675628662109375	9.9116665310329796767518928390927612781524658203125	82.126111433241106851710355840623378753662109375	3.10055555750926004066059249453246593475341796875	33.61666677519669832463478087447583675384521484375	0.0	955.3834483648339528372162021696567535400390625	0.0	1	1	1	1
761	S6	2020	2	1	17	6.51192362268430979810318603995256125926971435546875	0.15471433798054601282956355134956538677215576171875	6.57204426236512961878588612307794392108917236328125	9.7214286908382092633473803289234638214111328125	80.9638654885171007435928913764655590057373046875	3.507563013990380174078609343268908560276031494140625	3.6666667341099401511428368394263088703155517578125	0.0	122.5438867385179975144637865014374256134033203125	0.0	1	1	1	1
762	S6	2020	2	1	18	0	0	0	0	0	0	0	0.0	0	0.0	1	1	1	0
763	S6	2020	2	1	19	0	0	0	0	0	0	0	0.0	0	0.0	1	1	1	0
764	S6	2020	2	1	20	0	0	0	0	0	0	0	0.0	0	0.0	1	1	1	0
765	S6	2020	2	1	21	0	0	0	0	0	0	0	0.0	0	0.0	1	1	1	0
766	S6	2020	2	1	22	0	0	0	0	0	0	0	0.0	0	0.0	1	1	1	0
767	S6	2020	2	1	23	0	0	0	0	0	0	0	0.0	0	0.0	1	1	1	0
768	S6	2020	2	1	24	0	0	0	0	0	0	0	0.0	0	0.0	1	1	1	0
769	S6	2020	2	2	1	0	0	0	0	0	0	0	0.0	0	0.0	1	1	1	0
770	S6	2020	2	2	2	0	0	0	0	0	0	0	0.0	0	0.0	1	1	1	0
771	S6	2020	2	2	3	0	0	0	0	0	0	0	0.0	0	0.0	1	1	1	0
772	S6	2020	2	2	4	0	0	0	0	0	0	0	0.0	0	0.0	1	1	1	0
773	S6	2020	2	2	5	0	0	0	0	0	0	0	0.0	0	0.0	1	1	1	0
774	S6	2020	2	2	6	0	0	0	0	0	0	0	0.0	0	0.0	1	1	1	0
775	S6	2020	2	2	7	0	0	0	0	0	0	0	0.0	0	0.0	1	1	1	0
776	S6	2020	2	2	8	0	0	0	0	0	0	0.050000002374875000821230486280910554341971874237060546875	0.0	6.9488366832956796059761472861282527446746826171875	0.0	1	1	1	0
777	S6	2020	2	2	9	32.1992901052746987033970071934163570404052734375	139.31449056806201269864686764776706695556640625	20.298571371412801767064593150280416011810302734375	5.7168830153229901469558171811513602733612060546875	81.7058443837350978355971165001392364501953125	4.1720779193686201580248962272889912128448486328125	67.7833335144288042783955461345613002777099609375	0.0	592.1506281631690171707305125892162322998046875	0.0	1	1	1	0
778	S6	2020	2	2	10	119.58394379085899572601192630827426910400390625	452.1197081671820114934234879910945892333984375	46.54572517606940351697630831040441989898681640625	6.05555556880103029726569729973562061786651611328125	80.4077778286404054597369395196437835693359375	3.911666668620370046483003534376621246337890625	286.98333178957199152137036435306072235107421875	0.0	3981.0887316862599618616513907909393310546875	0.0	1	1	1	1
779	S6	2020	2	2	11	203.362857003496998231639736331999301910400390625	560.5584615017270380121772177517414093017578125	68.62285353179669300516252405941486358642578125	6.5985755091718800713351811282336711883544921875	78.610256249408706707981764338910579681396484375	4.073219370298570396471404819749295711517333984375	464.0166662633420173733611591160297393798828125	0.0	6613.1671448548504486097954213619232177734375	0.0	1	1	1	1
780	S6	2020	2	2	12	252.0745500192130066352547146379947662353515625	611.910970744296037082676775753498077392578125	76.810016158064399860450066626071929931640625	7.06420112220493034982382596354000270366668701171875	75.92573931090220185069483704864978790283203125	4.017159763877909739449023618362843990325927734375	541.516671081383947239373810589313507080078125	0.0	7911.3082493344800241175107657909393310546875	0.0	1	0	1	1
781	S6	2020	2	2	13	166.19364077896699427583371289074420928955078125	275.1046109226459748242632485926151275634765625	81.2402576511188954100362025201320648193359375	6.80762710813748039839765624492429196834564208984375	76.7299435502390991814536391757428646087646484375	3.6703389803905199784139767871238291263580322265625	320.233332862457018563873134553432464599609375	0.0	5306.096613407129552797414362430572509765625	0.0	1	1	1	1
782	S6	2020	2	2	14	110.617445239912996157727320678532123565673828125	119.608665878489006217932910658419132232666015625	76.630229238736404795417911373078823089599609375	6.4118644665863495646362935076467692852020263671875	78.6748587182685952257088501937687397003173828125	2.935593213065189832633450350840575993061065673828125	202.550001318255993965067318640649318695068359375	0.0	3806.74178898334002951742149889469146728515625	0.0	1	1	1	1
783	S6	2020	2	2	15	85.33556723064839388825930655002593994140625	57.198968769071797169090132229030132293701171875	71.7715726958380031419437727890908718109130859375	6.1627777867846997850165280397050082683563232421875	79.588888676961204282633843831717967987060546875	2.58333333134650988682778915972448885440826416015625	119.1000005851179963656250038184225559234619140625	0.0	2637.85255153974003405892290174961090087890625	0.0	1	1	1	1
784	S6	2020	2	2	16	57.4932257758245981449363171122968196868896484375	47.39857276247600026408690609969198703765869140625	49.68017893897160064398121903650462627410888671875	5.9577778180440201793999221990816295146942138671875	79.7361116197374002467768150381743907928466796875	2.96083333028686990218147911946289241313934326171875	82.3333332935967945331867667846381664276123046875	0.0	1831.134331226350013821502216160297393798828125	0.0	1	1	1	1
785	S6	2020	2	2	17	13.9637101220149002500647839042358100414276123046875	5.9485533342641900844682822935283184051513671875	13.6239643386766005050958483479917049407958984375	5.84196090324252015335559917730279266834259033203125	79.445098458084402182066696695983409881591796875	2.88549019939758988329003841499797999858856201171875	10.2166667794031997829051761073060333728790283203125	0.0	253.322224710912990985889337025582790374755859375	0.0	1	1	1	1
786	S6	2020	2	2	18	0	0	0	0	0	0	0	0.0	0	0.0	1	1	1	0
787	S6	2020	2	2	19	0	0	0	0	0	0	0	0.0	0	0.0	1	1	1	0
788	S6	2020	2	2	20	0	0	0	0	0	0	0	0.0	0	0.0	1	1	1	0
789	S6	2020	2	2	21	0	0	0	0	0	0	0	0.0	0	0.0	1	1	1	0
790	S6	2020	2	2	22	0	0	0	0	0	0	0	0.0	0	0.0	1	1	1	0
791	S6	2020	2	2	23	0	0	0	0	0	0	0	0.0	0	0.0	1	1	1	0
792	S6	2020	2	2	24	0	0	0	0	0	0	0	0.0	0	0.0	1	1	1	0
793	S6	2020	2	3	1	0	0	0	0	0	0	0	0.0	0	0.0	1	1	1	0
794	S6	2020	2	3	2	0	0	0	0	0	0	0	0.0	0	0.0	1	1	1	0
795	S6	2020	2	3	3	0	0	0	0	0	0	0	0.0	0	0.0	1	1	1	0
796	S6	2020	2	3	4	0	0	0	0	0	0	0	0.0	0	0.0	1	1	1	0
797	S6	2020	2	3	5	0	0	0	0	0	0	0	0.0	0	0.0	1	1	1	0
798	S6	2020	2	3	6	0	0	0	0	0	0	0	0.0	0	0.0	1	1	1	0
799	S6	2020	2	3	7	0	0	0	0	0	0	0	0.0	0	0.0	1	1	1	0
800	S6	2020	2	3	8	0	0	0	0	0	0	0.1500000071246199995211867417310713790357112884521484375	0.0	11.62962328332159955834868014790117740631103515625	0.0	1	1	1	0
801	S6	2020	2	3	9	31.118159014081101076953927986323833465576171875	51.33089865237940330189303494989871978759765625	26.879267008342399236653363914228975772857666015625	3.55746030656117984136699305963702499866485595703125	91.831428576272600139418500475585460662841796875	0.93523810051736300241742583239101804792881011962890625	47.516666822290602567591122351586818695068359375	0.0	812.343667354434046501410193741321563720703125	0.0	1	1	1	1
802	S6	2020	2	3	10	49.44239861700270211031238432042300701141357421875	1.67759429501990009470091536059044301509857177734375	49.06486755477050110130221582949161529541015625	3.90444445477591006721240773913450539112091064453125	91.0083323584662053917782031930983066558837890625	1.243611110581289924681414049700833857059478759765625	56.73333335046969949644335429184138774871826171875	0.0	1486.611947417249893987900577485561370849609375	0.0	1	1	1	1
803	S6	2020	2	3	11	78.4778866344027932200333452783524990081787109375	3.37749849756557996016681499895639717578887939453125	77.4108255704243930495067615993320941925048828125	4.7394444015291004035361766000278294086456298828125	89.576666768391902451185160316526889801025390625	1.3366666654745700260065177644719369709491729736328125	82.9999998832740999432644457556307315826416015625	0.0	2230.54925675192998824059031903743743896484375	0.0	1	1	1	1
804	S6	2020	2	3	12	113.9094847989880037175680627115070819854736328125	10.7921305427411002852977617294527590274810791015625	110.564087235524993957369588315486907958984375	5.39943820572970967219816884608007967472076416015625	89.898314615313893227721564471721649169921875	1.2075842681727999572416365481331013143062591552734375	121.8500001976880042775519541464745998382568359375	0.0	3312.88679242133002844639122486114501953125	0.0	1	1	1	1
805	S6	2020	2	3	13	110.3703732851169974082949920557439327239990234375	0.70879746416807998254938638638122938573360443115234375	110.069315346682998324467916972935199737548828125	5.7596638970682203506612495402805507183074951171875	88.527730476956406846511526964604854583740234375	1.535294111870249889051365244085900485515594482421875	108.800000200667994931791326962411403656005859375	0.0	3066.64228687683998941793106496334075927734375	0.0	1	1	1	1
806	S6	2020	2	3	14	69.3994645542567951679302495904266834259033203125	0.294175067016234026429088999066152609884738922119140625	69.531494649251300188552704639732837677001953125	5.7991667548815399868544773198664188385009765625	89.1208330790201017634899471886456012725830078125	1.5724999979138301053893655989668332040309906005859375	64.18333326776820513259735889732837677001953125	0.0	1819.5733855168000445701181888580322265625	0.0	1	1	1	1
807	S6	2020	2	3	15	39.80990220705660220801291870884597301483154296875	0.1918226281698370006001397314321366138756275177001953125	39.89167378213669934439167263917624950408935546875	5.67833331028619969771398245939053595066070556640625	91.29083290100089698171359486877918243408203125	1.35749999814562993805111545952968299388885498046875	35.9833335193495003068164805881679058074951171875	0.0	1031.271645426749955731793306767940521240234375	0.0	1	1	1	1
808	S6	2020	2	3	16	37.763682089911497996581601910293102264404296875	0.2405350319834209937841507098710280843079090118408203125	37.91981391376909726886879070661962032318115234375	5.67083323796590033083475645980797708034515380859375	93.3516677856444943017777404747903347015380859375	1.543888882050910016374700717278756201267242431640625	32.299999939277796556780231185257434844970703125	0.0	907.19455207387500195181928575038909912109375	0.0	1	1	1	1
809	S6	2020	2	3	17	8.0459350449087292389549475046806037425994873046875	0.1571556745690080025834589605437940917909145355224609375	8.139431740136419790587751776911318302154541015625	5.686098560624049724765427527017891407012939453125	93.694169527746595349526614882051944732666015625	1.6843049274966299666544955471181310713291168212890625	3.383333422243600008272323975688777863979339599609375	0.0	101.71289071440600082496530376374721527099609375	0.0	1	1	1	1
810	S6	2020	2	3	18	0	0	0	0	0	0	0	0.0	0	0.0	1	1	1	0
811	S6	2020	2	3	19	0	0	0	0	0	0	0	0.0	0	0.0	1	1	1	0
812	S6	2020	2	3	20	0	0	0	0	0	0	0	0.0	0	0.0	1	1	1	0
813	S6	2020	2	3	21	0	0	0	0	0	0	0	0.0	0	0.0	1	1	1	0
814	S6	2020	2	3	22	0	0	0	0	0	0	0	0.0	0	0.0	1	1	1	0
815	S6	2020	2	3	23	0	0	0	0	0	0	0	0.0	0	0.0	1	1	1	0
816	S6	2020	2	3	24	0	0	0	0	0	0	0	0.0	0	0.0	1	1	1	0
817	S6	2020	2	4	1	0	0	0	0	0	0	0	0.0	0	0.0	1	1	1	0
818	S6	2020	2	4	2	0	0	0	0	0	0	0	0.0	0	0.0	1	1	1	0
819	S6	2020	2	4	3	0	0	0	0	0	0	0	0.0	0	0.0	1	1	1	0
820	S6	2020	2	4	4	0	0	0	0	0	0	0	0.0	0	0.0	1	1	1	0
821	S6	2020	2	4	5	0	0	0	0	0	0	0	0.0	0	0.0	1	1	1	0
822	S6	2020	2	4	6	0	0	0	0	0	0	0	0.0	0	0.0	1	1	1	0
823	S6	2020	2	4	7	0	0	0	0	0	0	0	0.0	0	0.0	1	1	1	0
824	S6	2020	2	4	8	0	0	0	0	0	0	0.10000000474974600483957232199827558360993862152099609375	0.0	6.41920003108679981806972136837430298328399658203125	0.0	1	1	1	0
825	S6	2020	2	4	9	35.62036924513549962512115598656237125396728515625	55.9441848635436969061629497446119785308837890625	30.2289635052756011646124534308910369873046875	4.619999921889530014595948159694671630859375	85.15428532191680233154329471290111541748046875	3.079365067822589896451290769618935883045196533203125	57.2000004157116990199938300065696239471435546875	0.0	950.9481935451429990280303172767162322998046875	0.0	1	1	1	1
826	S6	2020	2	4	10	100.7054792933989944003769778646528720855712890625	113.096025543742001673308550380170345306396484375	80.708583789401501462634769268333911895751953125	4.834999938805889740933707798831164836883544921875	84.2491663614907935198061750270426273345947265625	2.981666666434870105462096034898422658443450927734375	158.06666687130899617841350845992565155029296875	0.0	3192.04909702142003879998810589313507080078125	0.0	1	1	1	1
827	S6	2020	2	4	11	67.3950460751851068152973311953246593475341796875	0.416700295296808020939494099366129375994205474853515625	67.29800290001759321967256255447864532470703125	5.2083332856496102891696864389814436435699462890625	83.248333740234301103555480949580669403076171875	3.25722222742107003767841888475231826305389404296875	62.71666685740159863371445680968463420867919921875	0.0	1777.492762356989942418294958770275115966796875	0.0	1	1	1	1
828	S6	2020	2	4	12	51.75792452051660319511938723735511302947998046875	0.1421586439511559885051639184894156642258167266845703125	51.75351025182980180261438363231718540191650390625	4.64462028877643984259293574723415076732635498046875	88.8079114744933946212768205441534519195556640625	3.047151890359339976299679619842208921909332275390625	43.8500001405675021715069306083023548126220703125	0.0	1351.8830535312399661052040755748748779296875	0.0	1	1	1	1
829	S6	2020	2	4	13	49.48036185900370043100338079966604709625244140625	0.27161953733302601765586814508424140512943267822265625	49.52407531208459801064236671663820743560791015625	3.875833348433169955882249269052408635616302490234375	91.29750022888180183144868351519107818603515625	2.70638888064357985285823815502226352691650390625	48.4166670280198019327144720591604709625244140625	0.0	1351.11281648278009015484713017940521240234375	0.0	1	1	1	1
830	S6	2020	2	4	14	54.47207132796160067300661467015743255615234375	0.2488310246964469951702625394318602047860622406005859375	54.4461641822062034634654992260038852691650390625	4.0884506836743401692046973039396107196807861328125	90.0267607138190015803047572262585163116455078125	2.01830985361420989221414856729097664356231689453125	51.3500001591938968203976401127874851226806640625	0.0	1459.304350490370097759296186268329620361328125	0.0	1	1	1	1
831	S6	2020	2	4	15	31.592885894245501532395792310126125812530517578125	0.21011707847937899362733560337801463901996612548828125	31.56004758146070088287160615436732769012451171875	4.06083328326543036013163145980797708034515380859375	92.2024997711180986925683100707828998565673828125	1.9594444423913899289146911542047746479511260986328125	26.916666639347798906101161264814436435699462890625	0.0	763.43228518962905582156963646411895751953125	0.0	1	1	1	1
832	S6	2020	2	4	16	14.6203203964769006262258699280209839344024658203125	0.204037145889373994211979379542754031717777252197265625	14.8541256390259999164982218644581735134124755859375	4.2626404494381997523078098311088979244232177734375	88.8115172868364055602796724997460842132568359375	1.590449440512760048704876680858433246612548828125	12.4333335086702998495411520707421004772186279296875	0.0	357.12499854465301041273050941526889801025390625	0.0	1	1	1	1
833	S6	2020	2	4	17	5.52882831449239997567701720981858670711517333984375	0.1691919870569670025783892697290866635739803314208984375	5.75671358343581029970437157317064702510833740234375	4.35352121272557024411753445747308433055877685546875	85.808449973522698428496369160711765289306640625	2.85492958149438980086642914102412760257720947265625	1.6333333915099499389356196843436919152736663818359375	0.0	40.5404349323361969936740933917462825775146484375	0.0	1	1	1	1
834	S6	2020	2	4	18	0	0	0	0	0	0	0	0.0	0	0.0	1	1	1	0
835	S6	2020	2	4	19	0	0	0	0	0	0	0	0.0	0	0.0	1	1	1	0
836	S6	2020	2	4	20	0	0	0	0	0	0	0	0.0	0	0.0	1	1	1	0
837	S6	2020	2	4	21	0	0	0	0	0	0	0	0.0	0	0.0	1	1	1	0
838	S6	2020	2	4	22	0	0	0	0	0	0	0	0.0	0	0.0	1	1	1	0
839	S6	2020	2	4	23	0	0	0	0	0	0	0	0.0	0	0.0	1	1	1	0
840	S6	2020	2	4	24	0	0	0	0	0	0	0	0.0	0	0.0	1	1	1	0
841	S6	2020	2	5	1	0	0	0	0	0	0	0	0.0	0	0.0	1	1	1	0
842	S6	2020	2	5	2	0	0	0	0	0	0	0	0.0	0	0.0	1	1	1	0
843	S6	2020	2	5	3	0	0	0	0	0	0	0	0.0	0	0.0	1	1	1	0
844	S6	2020	2	5	4	0	0	0	0	0	0	0	0.0	0	0.0	1	1	1	0
845	S6	2020	2	5	5	0	0	0	0	0	0	0	0.0	0	0.0	1	1	1	0
846	S6	2020	2	5	6	0	0	0	0	0	0	0	0.0	0	0.0	1	1	1	0
847	S6	2020	2	5	7	0	0	0	0	0	0	0	0.0	0	0.0	1	1	1	0
848	S6	2020	2	5	8	0	0	0	0	0	0	0.25000000799385302396871111341170035302639007568359375	0.0	18.7362899072467001815311959944665431976318359375	0.0	1	1	1	0
849	S6	2020	2	5	9	41.93249810296430268863332457840442657470703125	303.546344276084028024342842400074005126953125	16.644783399825801240012879134155809879302978515625	2.1813953501540499502198144909925758838653564453125	80.000872146251595040666870772838592529296875	1.7258720931618700689114120905287563800811767578125	112.19999986545400361137581057846546173095703125	0.0	788.00785665710600369493477046489715576171875	0.0	1	1	1	0
850	S6	2020	2	5	10	141.244500117830995122858439572155475616455078125	623.0524970160589646184234879910945892333984375	34.7407322830623996878784964792430400848388671875	3.222500012318290085744365569553337991237640380859375	76.652499771118101534739253111183643341064453125	2.199444441000620198423121109954081475734710693359375	347.199999541044007855816744267940521240234375	0.0	4746.9104975461896174238063395023345947265625	0.0	1	1	1	1
851	S6	2020	2	5	11	230.508384365505008872787584550678730010986328125	738.4265686035149656163412146270275115966796875	45.41095443301730227858570287935435771942138671875	4.569166692097979876052704639732837677001953125	70.4733332951862934123710147105157375335693359375	2.71750000384118006735434391885064542293548583984375	514.016669491925995316705666482448577880859375	0.0	7135.046089688939900952391326427459716796875	0.0	1	1	1	1
852	S6	2020	2	5	12	290.1721784803600030500092543661594390869140625	791.143064880370957325794734060764312744140625	53.196816454993296474640374071896076202392578125	5.3724999348322501901975556393153965473175048828125	70.7275000890095952854608185589313507080078125	3.31388888723320018669937780941836535930633544921875	620.1166689395910225357511080801486968994140625	0.0	8690.547326207159130717627704143524169921875	0.0	1	0	1	1
853	S6	2020	2	5	13	297.04642497198102546462905593216419219970703125	746.8090199866329612632398493587970733642578125	61.126377615755899341820622794330120086669921875	5.955431753546410078570261248387396335601806640625	71.05515323309509767568670213222503662109375	3.00027854661755011278501115157268941402435302734375	621.916664888462037197314202785491943359375	0.0	8868.221152325479124556295573711395263671875	0.0	1	0	1	1
854	S6	2020	2	5	14	278.2130627339109878448653034865856170654296875	754.4716406454580237550544552505016326904296875	56.77160716989180144764759461395442485809326171875	6.50167596406776038264752060058526694774627685546875	73.567318303625000908141373656690120697021484375	2.6044692760073200332726628403179347515106201171875	589.73333140214299419312737882137298583984375	0.0	8433.97135635216909577138721942901611328125	0.0	1	0	1	1
855	S6	2020	2	5	15	150.77463061014799450276768766343593597412109375	272.1623930162850228953175246715545654296875	80.6837034649318951551322243176400661468505859375	6.34666665792464979034548377967439591884613037109375	75.879166603088293641121708787977695465087890625	3.0927777762214301304766195244155824184417724609375	263.4833349535859952084138058125972747802734375	0.0	4737.1408844987499833223409950733184814453125	0.0	1	1	1	1
856	S6	2020	2	5	16	64.9192201084560025492464774288237094879150390625	4.165190075503449662619459559209644794464111328125	64.246514140235007062074146233499050140380859375	6.044999949137359607220787438564002513885498046875	76.4591659545898068017777404747903347015380859375	3.214722217702199902333859427017159759998321533203125	67.2833332171042997060794732533395290374755859375	0.0	1817.72608757018997494014911353588104248046875	0.0	1	1	1	1
857	S6	2020	2	5	17	20.90744754746820177615518332459032535552978515625	5.00735640378942026273989540641196072101593017578125	20.676644424383699316649654065258800983428955078125	5.909677484984030115811037831008434295654296875	76.8508957893617008494402398355305194854736328125	3.59068099486785019536227991920895874500274658203125	16.41666674210370047148899175226688385009765625	0.0	436.253559845499012226355262100696563720703125	0.0	1	1	1	1
858	S6	2020	2	5	18	0	0	0	0	0	0	0	0.0	0	0.0	1	1	1	0
859	S6	2020	2	5	19	0	0	0	0	0	0	0	0.0	0	0.0	1	1	1	0
860	S6	2020	2	5	20	0	0	0	0	0	0	0	0.0	0	0.0	1	1	1	0
861	S6	2020	2	5	21	0	0	0	0	0	0	0	0.0	0	0.0	1	1	1	0
862	S6	2020	2	5	22	0	0	0	0	0	0	0	0.0	0	0.0	1	1	1	0
863	S6	2020	2	5	23	0	0	0	0	0	0	0	0.0	0	0.0	1	1	1	0
864	S6	2020	2	5	24	0	0	0	0	0	0	0	0.0	0	0.0	1	1	1	0
865	S6	2020	2	6	1	0	0	0	0	0	0	0	0.0	0	0.0	1	1	1	0
866	S6	2020	2	6	2	0	0	0	0	0	0	0	0.0	0	0.0	1	1	1	0
867	S6	2020	2	6	3	0	0	0	0	0	0	0	0.0	0	0.0	1	1	1	0
868	S6	2020	2	6	4	0	0	0	0	0	0	0	0.0	0	0.0	1	1	1	0
869	S6	2020	2	6	5	0	0	0	0	0	0	0	0.0	0	0.0	1	1	1	0
870	S6	2020	2	6	6	0	0	0	0	0	0	0	0.0	0	0.0	1	1	1	0
871	S6	2020	2	6	7	0	0	0	0	0	0	0	0.0	0	0.0	1	1	1	0
872	S6	2020	2	6	8	2.85900187492369983743856209912337362766265869140625	0.1784474998712529958400097029880271293222904205322265625	2.927837848663330078125	6.5	87.5	3.799999952316280182884611349436454474925994873046875	0.266666675452143009383831895320327021181583404541015625	0.0	0.97281663523365102808071469553397037088871002197265625	0.0	1	1	1	0
873	S6	2020	2	6	9	19.623541014724299458293899078853428363800048828125	0.23081674528204698670919015057734213769435882568359375	19.6848699834610982861704542301595211029052734375	6.69249991575876013172319289878942072391510009765625	86.9799998601277053467129007913172245025634765625	3.105000005165730048162231469177640974521636962890625	20.300000013473098903205027454532682895660400390625	0.0	551.1964895762499736520112492144107818603515625	0.0	1	1	1	1
874	S6	2020	2	6	10	51.1043099615308022976023494265973567962646484375	0.29826696842081001914692706122878007590770721435546875	51.15256527794730345704010687768459320068359375	6.9891667207082104340543082798831164836883544921875	84.7891662597655937361196265555918216705322265625	2.8516666634215201980850906693376600742340087890625	51.5833338101704015343784703873097896575927734375	0.0	1401.011979331570046269916929304599761962890625	0.0	1	1	1	1
875	S6	2020	2	6	11	95.1235291262185995719846687279641628265380859375	11.905266862668600680308372830040752887725830078125	91.5163948015856050233196583576500415802001953125	7.40509918391197974329998032771982252597808837890625	82.431161745411799302019062452018260955810546875	2.8951841341199600066147468169219791889190673828125	115.1666666070610034466881188564002513885498046875	0.0	2830.6465441981899857637472450733184814453125	0.0	1	1	1	1
876	S6	2020	2	6	12	144.16958928911799375782720744609832763671875	10.4210662866911007995440741069614887237548828125	139.74683084380700393012375570833683013916015625	7.72668536995233967701324218069203197956085205078125	81.2974718501057935782228014431893825531005859375	2.88117977742397979312727329670451581478118896484375	180.700000499686012744859908707439899444580078125	0.0	4621.39811813830965547822415828704833984375	0.0	1	1	1	1
877	S6	2020	2	6	13	170.59514811962299063452519476413726806640625	56.69640038115090163728382322005927562713623046875	150.647603668918009134358726441860198974609375	8.0424856987991706347429499146528542041778564453125	80.2265893572326973526287474669516086578369140625	2.611271672682950129029677555081434547901153564453125	233.59999905029900446606916375458240509033203125	0.0	5499.9120056629299142514355480670928955078125	0.0	1	0	1	1
878	S6	2020	2	6	14	232.83895766429401419372879900038242340087890625	440.05226484934399877602118067443370819091796875	102.8706770187759929058302077464759349822998046875	8.45192308303636963273675064556300640106201171875	79.7762817480625017196871340274810791015625	2.675641020521129842535401621717028319835662841796875	448.76666689912502761217183433473110198974609375	0.0	7312.7401267488703524577431380748748779296875	0.0	1	0	1	1
879	S6	2020	2	6	15	217.155186331611986361167510040104389190673828125	611.7084068080349652518634684383869171142578125	69.38722687857489290763624012470245361328125	8.585142857687809936351186479441821575164794921875	80.0085714067731004206507350318133831024169921875	2.242571424586429884584504179656505584716796875	452.03333248694701751446700654923915863037109375	0.0	6946.4328249295404020813293755054473876953125	0.0	1	1	1	1
880	S6	2020	2	6	16	147.653050053418013476402848027646541595458984375	482.992925064809014656930230557918548583984375	71.333276382063701248625875450670719146728515625	8.39275762297648952880990691483020782470703125	81.011420566059399561709142290055751800537109375	2.1966573848365698040652205236256122589111328125	302.11666772762902155591291375458240509033203125	0.0	5153.6766896645103770424611866474151611328125	0.0	1	1	1	1
881	S6	2020	2	6	17	43.63471899001419984642780036665499210357666015625	183.471085283820002587162889540195465087890625	29.87193817250859950718222535215318202972412109375	7.56862748370451043911089072935283184051513671875	84.224509444891197063043364323675632476806640625	1.62549020009103006856321371742524206638336181640625	63.7499997663930031421841704286634922027587890625	0.0	1104.0786111416900894255377352237701416015625	0.0	1	1	1	0
882	S6	2020	2	6	18	0	0	0	0	0	0	0	0.0	13.979660145317499342354494729079306125640869140625	0.0	1	1	1	0
883	S6	2020	2	6	19	0	0	0	0	0	0	0	0.0	0	0.0	1	1	1	0
884	S6	2020	2	6	20	0	0	0	0	0	0	0	0.0	0	0.0	1	1	1	0
885	S6	2020	2	6	21	0	0	0	0	0	0	0	0.0	0	0.0	1	1	1	0
886	S6	2020	2	6	22	0	0	0	0	0	0	0	0.0	0	0.0	1	1	1	0
887	S6	2020	2	6	23	0	0	0	0	0	0	0	0.0	0	0.0	1	1	1	0
888	S6	2020	2	6	24	0	0	0	0	0	0	0	0.0	0	0.0	1	1	1	0
889	S6	2020	2	7	1	0	0	0	0	0	0	0	0.0	0	0.0	1	1	1	0
890	S6	2020	2	7	2	0	0	0	0	0	0	0	0.0	0	0.0	1	1	1	0
891	S6	2020	2	7	3	0	0	0	0	0	0	0	0.0	0	0.0	1	1	1	0
892	S6	2020	2	7	4	0	0	0	0	0	0	0	0.0	0	0.0	1	1	1	0
893	S6	2020	2	7	5	0	0	0	0	0	0	0	0.0	0	0.0	1	1	1	0
894	S6	2020	2	7	6	0	0	0	0	0	0	0	0.0	0	0.0	1	1	1	0
895	S6	2020	2	7	7	0	0	0	0	0	0	0	0.0	0	0.0	1	1	1	0
896	S6	2020	2	7	8	2.079688445727029932896812169929035007953643798828125	0.167448808749516009353186518637812696397304534912109375	2.11049199899037009942048825905658304691314697265625	4.4933333396911603330181605997495353221893310546875	95.8333348592122007403304451145231723785400390625	0.5333333373069759630880071199499070644378662109375	0.2666666793326599727009806883870624005794525146484375	0.0	0	0.0	1	1	1	0
897	S6	2020	2	7	9	9.3333198860798294305141098448075354099273681640625	0.1858825852566410030686228083141031675040721893310546875	9.42380056574337032770927180536091327667236328125	4.63271018500639986115174906444735825061798095703125	95.55825546597390030001406557857990264892578125	0.58753894524782201980173113042837940156459808349609375	8.683333425627370871779930894263088703155517578125	0.0	233.7324400898060048348270356655120849609375	0.0	1	1	1	1
898	S6	2020	2	7	10	30.318935388988901280526988557539880275726318359375	0.22579332298288701252886312431655824184417724609375	30.420281791686999639523492078296840190887451171875	4.813888947168980081414701999165117740631103515625	95.495277362399605181053630076348781585693359375	1.0350000022186101045207351489807479083538055419921875	29.016666548947501524935432826168835163116455078125	0.0	803.652457023659962942474521696567535400390625	0.0	1	1	1	1
899	S6	2020	2	7	11	40.87175374575640063312675920315086841583251953125	0.2327520141902069961137300424525164999067783355712890625	41.02638763172709701620988198556005954742431640625	5.0495821254167001512769274995662271976470947265625	93.879387326891304610398947261273860931396484375	1.3618384389658100275255492306314408779144287109375	38.4999994188546992290866910479962825775146484375	0.0	1095.60652871926004081615246832370758056640625	0.0	1	1	1	1
900	S6	2020	2	7	12	52.592688549889402338521904312074184417724609375	0.250218632610307023522722147390595637261867523193359375	52.64322848849820246641684207133948802947998046875	5.182777688238349611538069439120590686798095703125	92.291666666666600349344662390649318695068359375	1.8047222203678499052870165542117320001125335693359375	49.00000014652810165216578752733767032623291015625	0.0	1403.16359599431007154635153710842132568359375	0.0	1	1	1	1
901	S6	2020	2	7	13	51.5850806978013025627660681493580341339111328125	0.265793746730518976040258394277771003544330596923828125	51.628970294528500062369857914745807647705078125	5.57333330048455000138574177981354296207427978515625	89.8572222815619028324363171122968196868896484375	1.888888889551159966373461429611779749393463134765625	47.7166667580604979548297706060111522674560546875	0.0	1371.7139194409000992891378700733184814453125	0.0	1	1	1	1
902	S6	2020	2	7	14	47.1388385242886016612828825600445270538330078125	0.2343990629124970137553418680909089744091033935546875	47.17055832544959770302739343605935573577880859375	5.90277787049611024627893129945732653141021728515625	87.0983338250053975571063347160816192626953125	2.315277777943339998500960064120590686798095703125	42.3499997705221034038913785479962825775146484375	0.0	1218.16220035154992729076184332370758056640625	0.0	1	1	1	1
903	S6	2020	2	7	15	38.07675267855319845011763391084969043731689453125	0.217937426527754996019581312793889082968235015869140625	38.11250573264219809743735822848975658416748046875	5.92055563131968032308805049979127943515777587890625	86.27499995761439777197665534913539886474609375	2.031666664944749900456599789322353899478912353515625	34.383333195000801651985966600477695465087890625	0.0	978.048317631087002155254594981670379638671875	0.0	1	1	1	1
904	S6	2020	2	7	16	19.823380533125398272886741324327886104583740234375	0.1977583644511360094764285122437286190688610076904296875	19.86550892116679989385374938137829303741455078125	5.85100296643537998164674718282185494899749755859375	85.9091691724892001502666971646249294281005859375	1.8169054374483000202644689125008881092071533203125	14.3333334087704002968166605569422245025634765625	0.0	426.3233009725789770527626387774944305419921875	0.0	1	1	1	1
905	S6	2020	2	7	17	5.67186485226191994257760597974993288516998291015625	0.1776417692502330059056703248643316328525543212890625	5.720879158141119802394314319826662540435791015625	5.88126992725189978727939887903630733489990234375	86.14761914450019730793428607285022735595703125	1.634920634069140010780074590002186596393585205078125	1.4666667149867900210580273778759874403476715087890625	0.0	82.672368300457804934922023676335811614990234375	0.0	1	1	1	1
906	S6	2020	2	7	18	0	0	0	0	0	0	0	0.0	0	0.0	1	1	1	0
907	S6	2020	2	7	19	0	0	0	0	0	0	0	0.0	0	0.0	1	1	1	0
908	S6	2020	2	7	20	0	0	0	0	0	0	0	0.0	0	0.0	1	1	1	0
909	S6	2020	2	7	21	0	0	0	0	0	0	0	0.0	0	0.0	1	1	1	0
910	S6	2020	2	7	22	0	0	0	0	0	0	0	0.0	0	0.0	1	1	1	0
911	S6	2020	2	7	23	0	0	0	0	0	0	0	0.0	0	0.0	1	1	1	0
912	S6	2020	2	7	24	0	0	0	0	0	0	0	0.0	0	0.0	1	1	1	0
913	S6	2020	2	8	1	0	0	0	0	0	0	0	0.0	0	0.0	1	1	1	0
914	S6	2020	2	8	2	0	0	0	0	0	0	0	0.0	0	0.0	1	1	1	0
915	S6	2020	2	8	3	0	0	0	0	0	0	0	0.0	0	0.0	1	1	1	0
916	S6	2020	2	8	4	0	0	0	0	0	0	0	0.0	0	0.0	1	1	1	0
917	S6	2020	2	8	5	0	0	0	0	0	0	0	0.0	0	0.0	1	1	1	0
918	S6	2020	2	8	6	0	0	0	0	0	0	0	0.0	0	0.0	1	1	1	0
919	S6	2020	2	8	7	0	0	0	0	0	0	0	0.0	0	0.0	1	1	1	0
920	S6	2020	2	8	8	6.5430762052536000084046463598497211933135986328125	0.61054101735353405455697384240920655429363250732421875	6.6606973648071203797371708787977695465087890625	4.270000076293939628158113919198513031005859375	82.8700019836424957020426518283784389495849609375	1.934999978542319976071439668885432183742523193359375	0.71666668518446596802817794014117680490016937255859375	0.0	32.53751173615449943099520169198513031005859375	0.0	1	1	1	0
921	S6	2020	2	8	9	40.05874876578639742774612386710941791534423828125	154.520866510850993336134706623852252960205078125	24.91079046328859902814656379632651805877685546875	4.0444444576899201138076023198664188385009765625	84.371666929456893058159039355814456939697265625	1.9802777711715899844335808666073717176914215087890625	112.5500002720699939118276233784854412078857421875	0.0	811.4841161295770461947540752589702606201171875	0.0	1	1	1	1
922	S6	2020	2	8	10	138.88927631378101068548858165740966796875	451.2243577745219909047591499984264373779296875	54.15425261391529687671209103427827358245849609375	4.82944445080226980593351981951855123043060302734375	82.623888863457494835529359988868236541748046875	2.658611109852790033158953519887290894985198974609375	391.06666743755300785778672434389591217041015625	0.0	5321.4828853805802282295189797878265380859375	0.0	1	1	1	1
923	S6	2020	2	8	11	229.6044265917549864752800203859806060791015625	595.9141158631390453592757694423198699951171875	70.975352974577305076309130527079105377197265625	5.65335191694717043020546043408103287220001220703125	77.772625907173306814001989550888538360595703125	2.834636872374140192931690762634389102458953857421875	593.0166661739340270287357270717620849609375	0.0	8648.816234370069651049561798572540283203125	0.0	1	1	1	1
924	S6	2020	2	8	12	293.0641807194870125385932624340057373046875	691.6152064926440061753964982926845550537109375	74.496975189463995548067032359540462493896484375	6.30445682637205973009031367837451398372650146484375	73.7827299750282037393844802863895893096923828125	2.928690801091839990277776450966484844684600830078125	723.083330194154996206634677946567535400390625	0.0	10459.770594040499418042600154876708984375	0.0	1	1	1	1
925	S6	2020	2	8	13	316.37764443291501947896904312074184417724609375	702.9017411973740081521100364625453948974609375	83.407917213439901615856797434389591217041015625	7.02888890637291030571986993891187012195587158203125	70.59777768452960344802704639732837677001953125	2.810277773274310053608360249199904501438140869140625	783.1666658322020566629362292587757110595703125	0.0	11119.425712029100395739078521728515625	0.0	1	1	1	1
926	S6	2020	2	8	14	219.4149365742999862050055526196956634521484375	246.68315641615100730632548220455646514892578125	140.749659771388991202911711297929286956787109375	7.04333329200744007181356209912337362766265869140625	70.39166649712450407605501823127269744873046875	2.630277776552569779511259184801019728183746337890625	416.21666625142000839332467876374721527099609375	0.0	7385.169462362930062226951122283935546875	0.0	1	1	1	1
927	S6	2020	2	8	15	140.662543127270993181809899397194385528564453125	49.4185395558674969151979894377291202545166015625	127.25135150485499480055295862257480621337890625	6.7366666502422702933472464792430400848388671875	71.478333409627197170266299508512020111083984375	2.376388885246380144877775819622911512851715087890625	189.966665208339009041083045303821563720703125	0.0	4316.7433788379103134502656757831573486328125	0.0	1	1	1	1
928	S6	2020	2	8	16	82.5435216161938996037861215882003307342529296875	15.2254298500716007680466645979322493076324462890625	79.6059729258219022085540927946567535400390625	6.2655555592642802054115236387588083744049072265625	73.8077786339652988090165308676660060882568359375	2.198888887299430106025965869775973260402679443359375	94.783333751062599503711680881679058074951171875	0.0	2364.44459954897001807694323360919952392578125	0.0	1	1	1	1
929	S6	2020	2	8	17	27.5734086093279984197579324245452880859375	1.9866064770992799548565699296887032687664031982421875	27.70544622206190155111471540294587612152099609375	5.894955581302809832777711562812328338623046875	76.741839038158303765158052556216716766357421875	2.01275964147612995702729676850140094757080078125	22.36666674919739961069353739731013774871826171875	0.0	615.9634027474850199723732657730579376220703125	0.0	1	1	1	1
930	S6	2020	2	8	18	0	0	0	0	0	0	0.03333333491658330149931543928687460720539093017578125	0.0	1.3542300245414100601237805676646530628204345703125	0.0	1	1	1	0
931	S6	2020	2	8	19	0	0	0	0	0	0	0	0.0	0	0.0	1	1	1	0
932	S6	2020	2	8	20	0	0	0	0	0	0	0	0.0	0	0.0	1	1	1	0
933	S6	2020	2	8	21	0	0	0	0	0	0	0	0.0	0	0.0	1	1	1	0
934	S6	2020	2	8	22	0	0	0	0	0	0	0	0.0	0	0.0	1	1	1	0
935	S6	2020	2	8	23	0	0	0	0	0	0	0	0.0	0	0.0	1	1	1	0
936	S6	2020	2	8	24	0	0	0	0	0	0	0	0.0	0	0.0	1	1	1	0
937	S6	2020	2	9	1	0	0	0	0	0	0	0	0.0	0	0.0	1	1	1	0
938	S6	2020	2	9	2	0	0	0	0	0	0	0	0.0	0	0.0	1	1	1	0
939	S6	2020	2	9	3	0	0	0	0	0	0	0	0.0	0	0.0	1	1	1	0
940	S6	2020	2	9	4	0	0	0	0	0	0	0	0.0	0	0.0	1	1	1	0
941	S6	2020	2	9	5	0	0	0	0	0	0	0	0.0	0	0.0	1	1	1	0
942	S6	2020	2	9	6	0	0	0	0	0	0	0	0.0	0	0.0	1	1	1	0
943	S6	2020	2	9	7	0	0	0	0	0	0	0	0.0	0	0.0	1	1	1	0
944	S6	2020	2	9	8	7.19129376752035032183130169869400560855865478515625	1.6037188390535899173983125365339219570159912109375	7.2871021202632295654666449991054832935333251953125	7.21428557804652026419489629915915429592132568359375	86.4285725184848985236385487951338291168212890625	4.0178571684019903642592907999642193317413330078125	3.550000040559070146883868801523931324481964111328125	0.0	88.270593030999094708022312261164188385009765625	0.0	1	1	1	0
945	S6	2020	2	9	9	26.6034191581938017634456628002226352691650390625	0.335695393756031024157238107363809831440448760986328125	26.7168641487756985952728427946567535400390625	7.4133334080378201491612344398163259029388427734375	84.8416671329074034701989148743450641632080078125	4.586944442656299969485189649276435375213623046875	26.900000000993298243656681734137237071990966796875	0.0	745.98800987005097340443171560764312744140625	0.0	1	1	1	1
946	S6	2020	2	9	10	90.1340592399476037144268047995865345001220703125	6.180743538464099628981784917414188385009765625	88.9086222936235941460836329497396945953369140625	7.91650804640754035546024169889278709888458251953125	82.4149203345888992089385283179581165313720703125	4.6657142964620401670572391594760119915008544921875	105.8333342894899971042832476086914539337158203125	0.0	2697.83584624529021311900578439235687255859375	0.0	1	1	1	1
947	S6	2020	2	9	11	49.263496488995002664523781277239322662353515625	0.282835525564020973110501699920860119163990020751953125	49.2629750251769991109540569595992565155029296875	8.219444561004639382417735760100185871124267578125	79.8655558268228986662506940774619579315185546875	5.5044444554381897205530549399554729461669921875	42.68333346893390256582279107533395290374755859375	0.0	1229.146457463499928053352050483226776123046875	0.0	1	1	1	1
948	S6	2020	2	9	12	48.71441993713369811302982270717620849609375	0.257981571356027006292066516834893263876438140869140625	48.70029938138760172705588047392666339874267578125	8.3824139562146395832087364397011697292327880859375	78.147241579253005738792126066982746124267578125	6.29068963938745984165734626003541052341461181640625	38.449999907364400542064686305820941925048828125	0.0	1160.941759745280023707891814410686492919921875	0.0	1	1	1	1
949	S6	2020	2	9	13	57.61750030517570309029906638897955417633056640625	0.313008653620877985712667168627376668155193328857421875	57.8953502866956029038192355073988437652587890625	8.4594444645775599411763323587365448474884033203125	77.246666293673996506186085753142833709716796875	6.23499999344347966001578242867253720760345458984375	47.23333337654670316396732232533395290374755859375	0.0	1445.560017228119932042318396270275115966796875	0.0	1	1	1	1
950	S6	2020	2	9	14	46.59333018218570288127011735923588275909423828125	0.2386046867171409957553152025866438634693622589111328125	46.614637024548500221499125473201274871826171875	8.82176855956615924014840857125818729400634765625	72.8918367243137055311308358795940876007080078125	6.127210894409490293810449657030403614044189453125	31.333333346992699119937242357991635799407958984375	0.0	972.1413335452469937081332318484783172607421875	0.0	1	1	1	1
951	S6	2020	2	9	15	11.0744886446642993860223214142024517059326171875	0.12873596043170199010319265653379261493682861328125	11.0898240369718994458025917992927134037017822265625	7.60929207464235002333907686988823115825653076171875	83.0216214979017053110510460101068019866943359375	5.56140350772623026642804688890464603900909423828125	8.8833333924412496429567909217439591884613037109375	0.0	281.78992830216799347908818162977695465087890625	0.0	1	0	1	1
952	S6	2020	2	9	16	13.6794275745377991171380926971323788166046142578125	0.34272705450706997254428642918355762958526611328125	13.9699950235168994794321406516246497631072998046875	8.4129496203909592821901242132298648357391357421875	79.8042701911247007728889002464711666107177734375	6.7543165520798300605065378476865589618682861328125	12.0000001198300996207990465336479246616363525390625	0.0	337.110005505383014678955078125	0.0	1	1	1	1
953	S6	2020	2	9	17	5.1787040271020803317014724598266184329986572265625	0.275721399574326009318525620983564294874668121337890625	5.1771700756320395697684944025240838527679443359375	10.236401709552499283972792909480631351470947265625	67.8401673129412046137076686136424541473388671875	7.2916318043505299328899127431213855743408203125	3.26666668600713006043179120752029120922088623046875	0.0	86.1768036149441059023956768214702606201171875	0.0	1	1	1	1
954	S6	2020	2	9	18	0	0	0	0	0	0	0	0.0	0	0.0	1	1	1	0
955	S6	2020	2	9	19	0	0	0	0	0	0	0	0.0	0	0.0	1	1	1	0
956	S6	2020	2	9	20	0	0	0	0	0	0	0	0.0	0	0.0	1	1	1	0
957	S6	2020	2	9	21	0	0	0	0	0	0	0	0.0	0	0.0	1	1	1	0
958	S6	2020	2	9	22	0	0	0	0	0	0	0	0.0	0	0.0	1	1	1	0
959	S6	2020	2	9	23	0	0	0	0	0	0	0	0.0	0	0.0	1	1	1	0
960	S6	2020	2	9	24	0	0	0	0	0	0	0	0.0	0	0.0	1	1	1	0
961	S6	2020	2	10	1	0	0	0	0	0	0	0	0.0	0	0.0	1	1	1	0
962	S6	2020	2	10	2	0	0	0	0	0	0	0	0.0	0	0.0	1	1	1	0
963	S6	2020	2	10	3	0	0	0	0	0	0	0	0.0	0	0.0	1	1	1	0
964	S6	2020	2	10	4	0	0	0	0	0	0	0	0.0	0	0.0	1	1	1	0
965	S6	2020	2	10	5	0	0	0	0	0	0	0	0.0	0	0.0	1	1	1	0
966	S6	2020	2	10	6	0	0	0	0	0	0	0	0.0	0	0.0	1	1	1	0
967	S6	2020	2	10	7	0	0	0	0	0	0	0	0.0	0	0.0	1	1	1	0
968	S6	2020	2	10	8	3.24809705849849006398244455340318381786346435546875	0.042396747189658599841433073152074939571321010589599609375	3.201697262850669911671275258413515985012054443359375	5.743478339651350239591920399107038974761962890625	85.86666662042790676423464901745319366455078125	4.95833336313565009589865439920686185359954833984375	0.183333340100943986694659315617172978818416595458984375	0.0	6.68857498094437996627448228537105023860931396484375	0.0	1	1	1	0
969	S6	2020	2	10	9	21.00406423211089901315062888897955417633056640625	0.21018808232329300178520270492299459874629974365234375	21.357818657159800324052412179298698902130126953125	5.88927453850345994368353785830549895763397216796875	87.2431247711181043769101961515843868255615234375	4.57075471885548978434599121101200580596923828125	15.4500001032526004252076745615340769290924072265625	0.0	458.4074597340060108763282187283039093017578125	0.0	1	1	1	1
970	S6	2020	2	10	10	77.1394196616277980638187727890908718109130859375	49.92153782221590319068127428181469440460205078125	65.9686816851297948005594662390649318695068359375	6.493055579397410070896512479521334171295166015625	82.43888865576849411809234879910945892333984375	4.98833334114816029369876559940166771411895751953125	130.183332444477997569265426136553287506103515625	0.0	2586.9850342472300326335243880748748779296875	0.0	1	1	1	1
971	S6	2020	2	10	11	216.480375327954988051715190522372722625732421875	289.429303606520988978445529937744140625	138.99299132518200394770246930420398712158203125	7.320227909631530138767629978246986865997314453125	79.82621117398940668863360770046710968017578125	4.76638176366474031198094962746836245059967041015625	397.63333350419901535133249126374721527099609375	0.0	6905.4826145370798258227296173572540283203125	0.0	1	1	1	1
972	S6	2020	2	10	12	222.66921473911799012057599611580371856689453125	264.53319776013501041234121657907962799072265625	134.5828935774540013881050981581211090087890625	7.689523796808149569415036239661276340484619140625	76.335872686476903936636517755687236785888671875	5.573333329246150213975852238945662975311279296875	400.76666486759899044045596383512020111083984375	0.0	7080.861245095709818997420370578765869140625	0.0	1	1	1	1
973	S6	2020	2	10	13	153.297775737676005292087211273610591888427734375	17.98612457629049998786285868845880031585693359375	146.81306887135900751673034392297267913818359375	7.38770225518728995695028061163611710071563720703125	76.157281745984704457441694103181362152099609375	5.16634303948640027925875983783043920993804931640625	143.48333391050499585617217235267162322998046875	0.0	3793.66349230209016241133213043212890625	0.0	1	1	1	1
974	S6	2020	2	10	14	96.394194755554195808144868351519107818603515625	0.9984945878258439933006229694001376628875732421875	96.3935449473062959668823168613016605377197265625	6.671999936103819806021419935859739780426025390625	75.923000157674096044502221047878265380859375	4.92466666618982973346874132403172552585601806640625	77.5000002235176026488261413760483264923095703125	0.0	2254.25209080179001830401830375194549560546875	0.0	1	1	1	1
975	S6	2020	2	10	15	116.133627022637000436589005403220653533935546875	11.83549526812399932396147050894796848297119140625	113.2111475202769952375092543661594390869140625	6.76194437874687981349097753991372883319854736328125	75.5194446563720021003973670303821563720703125	4.66555555313825021102047685417346656322479248046875	118.550000091393002321638050489127635955810546875	0.0	3137.33753959337991545908153057098388671875	0.0	1	1	1	1
976	S6	2020	2	10	16	69.1318045863144021723201149143278598785400390625	3.2887042828646197989428401342593133449554443359375	68.5910865214230938136097392998635768890380859375	6.02081781160431983579428560915403068065643310546875	83.161510467529296875	4.359259253519550014743799692951142787933349609375	55.05000016613239921525746467523276805877685546875	0.0	1548.712668373859969506156630814075469970703125	0.0	1	1	1	1
977	S6	2020	2	10	17	26.005255019664698323822449310682713985443115234375	1.5114224303147800743118978061829693615436553955078125	26.36648295692030075088041485287249088287353515625	6.0942856958934203959188380395062267780303955078125	79.60821492331359650052036158740520477294921875	4.65214286127260034930941401398740708827972412109375	18.366666708607201741187964216805994510650634765625	0.0	529.504265077410991580109111964702606201171875	0.0	1	1	1	1
978	S6	2020	2	10	18	3.246509122848510120462606209912337362766265869140625	0.2284051775932310068828456905976054258644580841064453125	3.256299495697020152107370449812151491641998291015625	5.9000000953674298642681605997495353221893310546875	77	3.320000028610219811042725268634967505931854248046875	0.1833333420412059933113368970225565135478973388671875	0.0	9.8569833983978494273969772621057927608489990234375	0.0	1	1	1	0
979	S6	2020	2	10	19	0	0	0	0	0	0	0	0.0	0	0.0	1	1	1	0
980	S6	2020	2	10	20	0	0	0	0	0	0	0	0.0	0	0.0	1	1	1	0
981	S6	2020	2	10	21	0	0	0	0	0	0	0	0.0	0	0.0	1	1	1	0
982	S6	2020	2	10	22	0	0	0	0	0	0	0	0.0	0	0.0	1	1	1	0
983	S6	2020	2	10	23	0	0	0	0	0	0	0	0.0	0	0.0	1	1	1	0
984	S6	2020	2	10	24	0	0	0	0	0	0	0	0.0	0	0.0	1	1	1	0
985	S6	2020	2	11	1	0	0	0	0	0	0	0	0.0	0	0.0	1	1	1	0
986	S6	2020	2	11	2	0	0	0	0	0	0	0	0.0	0	0.0	1	1	1	0
987	S6	2020	2	11	3	0	0	0	0	0	0	0	0.0	0	0.0	1	1	1	0
988	S6	2020	2	11	4	0	0	0	0	0	0	0	0.0	0	0.0	1	1	1	0
989	S6	2020	2	11	5	0	0	0	0	0	0	0	0.0	0	0.0	1	1	1	0
990	S6	2020	2	11	6	0	0	0	0	0	0	0	0.0	0	0.0	1	1	1	0
991	S6	2020	2	11	7	0	0	0	0	0	0	0	0.0	0	0.0	1	1	1	0
992	S6	2020	2	11	8	11.7648069365270995234595829970203340053558349609375	2.776659112038279975109844599501229822635650634765625	11.8580415084443995255014669965021312236785888671875	3.151724091891579870861050949315540492534637451171875	86.5586205844221012739581055939197540283203125	3.91551723562437015146997509873472154140472412109375	3.03333338233642990644511883147060871124267578125	0.0	73.495976626872305814686114899814128875732421875	0.0	1	1	1	0
993	S6	2020	2	11	9	14.7306260769420998002487976918928325176239013671875	1.5606245645478200589906236928072758018970489501953125	14.8132631153735996321074708248488605022430419921875	3.6566343168610497826875871396623551845550537109375	86.5239474595942965606809593737125396728515625	4.03689321422267965999708394519984722137451171875	15.766666767497799384045720216818153858184814453125	0.0	451.0151787350570202761446125805377960205078125	0.0	1	1	1	1
994	S6	2020	2	11	10	52.30448469083899709630713914521038532257080078125	0.25240445820266099730133646517060697078704833984375	52.4847618069564987308694981038570404052734375	3.2551622264153099450822992366738617420196533203125	90.37017525566949416315765120089054107666015625	3.773451319134689896372947259806096553802490234375	48.76666677494839774453794234432280063629150390625	0.0	1425.1370092233000832493416965007781982421875	0.0	1	1	1	1
995	S6	2020	2	11	11	88.7790153503417940328290569595992565155029296875	5.6626632956994900069958021049387753009796142578125	87.2252001762389994610202847979962825775146484375	4.073504254349270325974430306814610958099365234375	89.2908330705430017815160681493580341339111328125	4.25937499715522971399650487001053988933563232421875	102.2666667277610059727521729655563831329345703125	0.0	2768.62566719451979224686510860919952392578125	0.0	1	1	1	1
996	S6	2020	2	11	12	120.1951397154060003913400578312575817108154296875	2.7746163125667298032794860773719847202301025390625	119.7041791915890058817240060307085514068603515625	5.08333329624599006280050161876715719699859619140625	83.22555537753629550934419967234134674072265625	4.29583334028720020825176106882281601428985595703125	116.8999997278040012815836234949529170989990234375	0.0	3288.338105877230191254056990146636962890625	0.0	1	1	1	1
997	S6	2020	2	11	13	280.2802250576299911699607037007808685302734375	320.2057575200529981884756125509738922119140625	166.301873657045007348642684519290924072265625	6.1275964603933399388324687606655061244964599609375	77.6750740255020986069212085567414760589599609375	4.61127595484078955934137411531992256641387939453125	467.46666381756398322977474890649318695068359375	0.0	10922.12061285970048629678785800933837890625	0.0	1	1	1	1
998	S6	2020	2	11	14	145.226329522973998109591775573790073394775390625	130.530894313292009201177279464900493621826171875	99.918295837851104579385719262063503265380859375	6.86735299475051963469240945414640009403228759765625	74.9658823574289954194682650268077850341796875	4.769411758815540025580048677511513233184814453125	220.216666969160002054195501841604709625244140625	0.0	5457.13400952517986297607421875	0.0	1	1	1	1
999	S6	2020	2	11	15	84.51346015930170096908113919198513031005859375	10.2452737454143001372131038806401193141937255859375	81.569141356464996306385728530585765838623046875	6.9023102203217998606987748644314706325531005859375	73.89406011600300416830577887594699859619140625	4.990429042589539676555432379245758056640625	82.6000008732080033269085106439888477325439453125	0.0	2313.72610703110012764227576553821563720703125	0.0	1	1	1	1
1000	S6	2020	2	11	16	59.11952253104809784645112813450396060943603515625	5.34579527984354996306137763895094394683837890625	58.06952125418420251889983774162828922271728515625	5.33333333489161987017723731696605682373046875	84.6562093098958001746723311953246593475341796875	4.58692809062844997214369868743233382701873779296875	51.5500001531712968017018283717334270477294921875	0.0	1445.2886776377699789009056985378265380859375	0.0	1	1	1	1
1001	S6	2020	2	11	17	13.0408088969819999647370423190295696258544921875	0.1281417213657599918352758550099679268896579742431640625	13.3041774079998997848406361299566924571990966796875	3.928625964936399928006949267000891268253326416015625	94.957251774445694536552764475345611572265625	4.32175572136886021468171747983433306217193603515625	9.1166669037192900049149102414958178997039794921875	0.0	273.08563023495099741921876557171344757080078125	0.0	1	1	1	1
1002	S6	2020	2	11	18	0	0	0	0	0	0	0.10000000474975000164246097256182110868394374847412109375	0.0	0.5222983347872880433016007373225875198841094970703125	0.0	1	1	1	0
1003	S6	2020	2	11	19	0	0	0	0	0	0	0	0.0	0	0.0	1	1	1	0
1004	S6	2020	2	11	20	0	0	0	0	0	0	0	0.0	0	0.0	1	1	1	0
1005	S6	2020	2	11	21	0	0	0	0	0	0	0	0.0	0	0.0	1	1	1	0
1006	S6	2020	2	11	22	0	0	0	0	0	0	0	0.0	0	0.0	1	1	1	0
1007	S6	2020	2	11	23	0	0	0	0	0	0	0	0.0	0	0.0	1	1	1	0
1008	S6	2020	2	11	24	0	0	0	0	0	0	0	0.0	0	0.0	1	1	1	0
1009	S6	2020	2	12	1	0	0	0	0	0	0	0	0.0	0	0.0	1	1	1	0
1010	S6	2020	2	12	2	0	0	0	0	0	0	0	0.0	0	0.0	1	1	1	0
1011	S6	2020	2	12	3	0	0	0	0	0	0	0	0.0	0	0.0	1	1	1	0
1012	S6	2020	2	12	4	0	0	0	0	0	0	0	0.0	0	0.0	1	1	1	0
1013	S6	2020	2	12	5	0	0	0	0	0	0	0	0.0	0	0.0	1	1	1	0
1014	S6	2020	2	12	6	0	0	0	0	0	0	0	0.0	0	0.0	1	1	1	0
1015	S6	2020	2	12	7	0	0	0	0	0	0	0	0.0	0	0.0	1	1	1	0
1016	S6	2020	2	12	8	11.3908942788839002702161451452411711215972900390625	0.159810316050425005318658122632768936455249786376953125	11.6083875149488005007469837437383830547332763671875	4.67187483608721976224842364899814128875732421875	80.46249985694879569564363919198513031005859375	4.0265625081956297748320139362476766109466552734375	3.116666702165579838634812404052354395389556884765625	0.0	88.784717861563393626056495122611522674560546875	0.0	1	1	1	0
1017	S6	2020	2	12	9	44.8346009413400992116294219158589839935302734375	3.404372228971780156570048347930423915386199951171875	44.70354732937280317628392367623746395111083984375	4.8445378511893597561766000580973923206329345703125	80.6405554029676068239496089518070220947265625	4.455742295716650147596737951971590518951416015625	44.2833332965769983502468676306307315826416015625	0.0	1300.354991356530035773175768554210662841796875	0.0	1	1	1	1
1018	S6	2020	2	12	10	34.7596016478614018296866561286151409149169921875	0.1755770561590299927434699611694668419659137725830078125	34.9424605811365012186797684989869594573974609375	4.895806461764919959023245610296726226806640625	83.401597458714405775026534684002399444580078125	4.7032257983761400765843063709326088428497314453125	33.6499999277292971555652911774814128875732421875	0.0	1001.7775293439600545752909965813159942626953125	0.0	1	1	1	1
1019	S6	2020	2	12	11	82.48736740748080364937777630984783172607421875	0.471287605238870976887000097121926955878734588623046875	82.7391085836622011129293241538107395172119140625	4.7027778890397797795230871997773647308349609375	85.9972220950655952265151427127420902252197265625	4.67749999231762014773039481951855123043060302734375	77.9500005145868044564849697053432464599609375	0.0	2245.53965131441009361878968775272369384765625	0.0	1	1	1	1
1020	S6	2020	2	12	12	93.0982227441740946005666046403348445892333984375	1.5205283945176299997825708487653173506259918212890625	92.8524790275387061910805641673505306243896484375	4.949846182603099720154204987920820713043212890625	84.7131100631340956397252739407122135162353515625	4.72030768871306971590229295543394982814788818359375	86.6333338121574030310512171126902103424072265625	0.0	2556.0602560639299554168246686458587646484375	0.0	1	1	1	1
1021	S6	2020	2	12	13	112.381040259808997916479711420834064483642578125	6.83498472988240024506012559868395328521728515625	110.376309980233003216198994778096675872802734375	4.668328440434070358833196223713457584381103515625	89.575215298435495014928164891898632049560546875	3.28362572681136999364071016316302120685577392578125	118.799999604622001925235963426530361175537109375	0.0	3427.73984074591999160475097596645355224609375	0.0	1	1	1	1
1022	S6	2020	2	12	14	135.448858120447994224377907812595367431640625	61.36071595859470306777438963763415813446044921875	115.543181675373006100926431827247142791748046875	5.36696167048450956116312227095477283000946044921875	85.20353950793059993884526193141937255859375	4.25752212375313998649062341428361833095550537109375	178.66666764020800428625079803168773651123046875	0.0	4812.7329995234804300707764923572540283203125	0.0	1	1	1	1
1023	S6	2020	2	12	15	71.1790953931037932989056571386754512786865234375	0.865993688880493994730613849242217838764190673828125	71.1106864376651941483942209742963314056396484375	5.689972177521429586022350122220814228057861328125	82.4364901784401951090330840088427066802978515625	4.176323109018429846628350787796080112457275390625	67.1000002572931038002934656105935573577880859375	0.0	1948.45239967106999756651930510997772216796875	0.0	1	1	1	1
1024	S6	2020	2	12	16	72.304245355394101579804555512964725494384765625	5.5554702706635001874246881925500929355621337890625	71.1859888712564981005925801582634449005126953125	5.6705554498566499432854470796883106231689453125	82.520555326673701301842811517417430877685546875	4.2530555516481403088846491300500929355621337890625	74.6666662394997047158540226519107818603515625	0.0	2030.050208171199983553378842771053314208984375	0.0	1	1	1	1
1025	S6	2020	2	12	17	18.9709696509492999894064269028604030609130859375	0.15389363516594600778120138784288428723812103271484375	19.016736837966600859317622962407767772674560546875	5.53008856674914017759192574885673820972442626953125	82.60914501539019738629576750099658966064453125	4.16312683824240981067532629822380840778350830078125	14.81666671461420037303469143807888031005859375	0.0	428.51486100504899923180346377193927764892578125	0.0	1	1	1	1
1026	S6	2020	2	12	18	2.800161396755890041987413496826775372028350830078125	0.16784190583754898806745359252090565860271453857421875	2.825188363299650173843247102922759950160980224609375	5.300000190734859728536321199499070644378662109375	82.726468254538104929451947100460529327392578125	4.33823528359917975905091225286014378070831298828125	0.050000002374875000821230486280910554341971874237060546875	0.0	7.30283495504405966158856244874186813831329345703125	0.0	1	1	1	0
1027	S6	2020	2	12	19	0	0	0	0	0	0	0	0.0	0	0.0	1	1	1	0
1028	S6	2020	2	12	20	0	0	0	0	0	0	0	0.0	0	0.0	1	1	1	0
1029	S6	2020	2	12	21	0	0	0	0	0	0	0	0.0	0	0.0	1	1	1	0
1030	S6	2020	2	12	22	0	0	0	0	0	0	0	0.0	0	0.0	1	1	1	0
1031	S6	2020	2	12	23	0	0	0	0	0	0	0	0.0	0	0.0	1	1	1	0
1032	S6	2020	2	12	24	0	0	0	0	0	0	0	0.0	0	0.0	1	1	1	0
1033	S6	2020	2	13	1	0	0	0	0	0	0	0	0.0	0	0.0	1	1	1	0
1034	S6	2020	2	13	2	0	0	0	0	0	0	0	0.0	0	0.0	1	1	1	0
1035	S6	2020	2	13	3	0	0	0	0	0	0	0	0.0	0	0.0	1	1	1	0
1036	S6	2020	2	13	4	0	0	0	0	0	0	0	0.0	0	0.0	1	1	1	0
1037	S6	2020	2	13	5	0	0	0	0	0	0	0	0.0	0	0.0	1	1	1	0
1038	S6	2020	2	13	6	0	0	0	0	0	0	0	0.0	0	0.0	1	1	1	0
1039	S6	2020	2	13	7	0	0	0	0	0	0	0	0.0	0	0.0	1	1	1	0
1040	S6	2020	2	13	8	11.251978974188499904585114563815295696258544921875	7.11819640547037035815947092487476766109466552734375	11.2665757440750997631084828753955662250518798828125	3.341935515403740009077182548935525119304656982421875	86.191934277934393549003289081156253814697265625	2.740322582183340127670589936315082013607025146484375	3.28333338062900015330569658544845879077911376953125	0.0	96.43154852092260398421785794198513031005859375	0.0	1	1	1	0
1041	S6	2020	2	13	9	68.47187955900170663880999200046062469482421875	194.36233956786401222416316159069538116455078125	45.8251285635191010214839479885995388031005859375	3.679597691557869865164320799522101879119873046875	85.230460090198704392605577595531940460205078125	2.86063217637182010122387509909458458423614501953125	133.150000125170009823705186136066913604736328125	0.0	2002.276287600390105581027455627918243408203125	0.0	1	1	1	1
1042	S6	2020	2	13	10	163.00316079457599016677704639732837677001953125	340.81636443592202567742788232862949371337890625	85.2463300568715993676960351876914501190185546875	4.437202367044630335612964699976146221160888671875	81.9791665077209046330608543939888477325439453125	3.1068452382016698010147592867724597454071044921875	317.0000021656350099874543957412242889404296875	0.0	5161.45920256773024448193609714508056640625	0.0	1	0	1	1
1043	S6	2020	2	13	11	250.53840853975299296507728286087512969970703125	572.0880072548519592601223848760128021240234375	82.6002815905386995609660516493022441864013671875	5.2534819007916002675528943655081093311309814453125	79.152924434056103564216755330562591552734375	2.839832861277379993936165192280896008014678955078125	503.61666580041202223583240993320941925048828125	0.0	7788.8533453146601459593512117862701416015625	0.0	1	1	1	1
1044	S6	2020	2	13	12	323.11073229319600841336068697273731231689453125	648.3428978335820147549384273588657379150390625	100.097660988483994515263475477695465087890625	5.99629634330074967607515645795501768589019775390625	76.1997145302274958567068097181618213653564453125	2.689173788936039866115379481925629079341888427734375	628.116669754185977581073530018329620361328125	0.0	13722.2158282995005720295011997222900390625	0.0	1	1	1	1
1045	S6	2020	2	13	13	289.48824783410401551009272225201129913330078125	450.53779399861099363988614641129970550537109375	125.866102953861997093554236926138401031494140625	6.39944137940859025803774784435518085956573486328125	72.7273741354488976185166393406689167022705078125	2.39581004392834007177270905231125652790069580078125	520.1999977231020011458895169198513031005859375	0.0	12869.6916262308004661463201045989990234375	0.0	1	1	1	1
1046	S6	2020	2	13	14	270.20522960470998441451229155063629150390625	342.6077231717130189281306229531764984130859375	153.78935910869500958142452873289585113525390625	6.5980446738237699122464618994854390621185302734375	70.2022346198225051239205640740692615509033203125	2.28575418531560980994754572748206555843353271484375	469.400002310673016836517490446567535400390625	0.0	11943.10375054669930250383913516998291015625	0.0	1	1	1	1
1047	S6	2020	2	13	15	197.164185926648997337906621396541595458984375	246.102402157253010273052495904266834259033203125	126.9146593305789991745768929831683635711669921875	6.5922222587797296711187300388701260089874267578125	70.315277947319799523029359988868236541748046875	2.307777777645319883248475889558903872966766357421875	313.31666732827699206609395332634449005126953125	0.0	7093.3413813511497210129164159297943115234375	0.0	1	1	1	1
1048	S6	2020	2	13	16	106.980965561336006430792622268199920654296875	109.732169816229003345142700709402561187744140625	83.376804320017498639572295360267162322998046875	5.736944492657979566274661920033395290374755859375	74.477500237358896129080676473677158355712890625	2.376111116177499926749305814155377447605133056640625	152.44999962548399707884527742862701416015625	0.0	3336.2731600801098466035909950733184814453125	0.0	1	1	1	1
1049	S6	2020	2	13	17	29.254043779665298785630511702038347721099853515625	1.889955973854509974074744604877196252346038818359375	29.24293678517459937893363530747592449188232421875	4.6192200349897998279402600019238889217376708984375	80.554038958961200478370301425457000732421875	1.48161559715908008882934154826216399669647216796875	27.233333361800699634613920352421700954437255859375	0.0	784.9215082513779861983493901789188385009765625	0.0	1	1	1	1
1050	S6	2020	2	13	18	5.00088316744024030668924751807935535907745361328125	0.1070066913962360033441001405662973411381244659423828125	5.22672533988952014993856209912337362766265869140625	3.886363614689220202791375413653440773487091064453125	86.3045446222478034314917749725282192230224609375	1.8545454659245199646733226472861133515834808349609375	0.066666669833164993175245172096765600144863128662109375	0.0	13.5230500483884998885741879348643124103546142578125	0.0	1	1	1	0
1051	S6	2020	2	13	19	0	0	0	0	0	0	0	0.0	0	0.0	1	1	1	0
1052	S6	2020	2	13	20	0	0	0	0	0	0	0	0.0	0	0.0	1	1	1	0
1053	S6	2020	2	13	21	0	0	0	0	0	0	0	0.0	0	0.0	1	1	1	0
1054	S6	2020	2	13	22	0	0	0	0	0	0	0	0.0	0	0.0	1	1	1	0
1055	S6	2020	2	13	23	0	0	0	0	0	0	0	0.0	0	0.0	1	1	1	0
1056	S6	2020	2	13	24	0	0	0	0	0	0	0	0.0	0	0.0	1	1	1	0
1057	S6	2020	2	14	1	0	0	0	0	0	0	0	0.0	0	0.0	1	1	1	0
1058	S6	2020	2	14	2	0	0	0	0	0	0	0	0.0	0	0.0	1	1	1	0
1059	S6	2020	2	14	3	0	0	0	0	0	0	0	0.0	0	0.0	1	1	1	0
1060	S6	2020	2	14	4	0	0	0	0	0	0	0	0.0	0	0.0	1	1	1	0
1061	S6	2020	2	14	5	0	0	0	0	0	0	0	0.0	0	0.0	1	1	1	0
1062	S6	2020	2	14	6	0	0	0	0	0	0	0	0.0	0	0.0	1	1	1	0
1063	S6	2020	2	14	7	0	0	0	0	0	0	0	0.0	0	0.0	1	1	1	0
1064	S6	2020	2	14	8	5.82925897663078984578532981686294078826904296875	0.325310537103309982409626854860107414424419403076171875	5.96135492926662013957184171886183321475982666015625	3.145631037869499824211061422829516232013702392578125	91.885438196867397664391319267451763153076171875	0.5378640823572580220712779919267632067203521728515625	1.6333333662866300617366732694790698587894439697265625	0.0	54.20865344349279979496714076958596706390380859375	0.0	1	1	1	0
1065	S6	2020	2	14	9	41.54595537185659992474029422737658023834228515625	3.589177455628909996221409528516232967376708984375	40.96767912175919690298542263917624950408935546875	3.505277762810380171032420548726804554462432861328125	91.21666660308829932546359486877918243408203125	0.321111114654275997537524744984693825244903564453125	51.6166668385267968233165447600185871124267578125	0.0	1289.061310390630069377948530018329620361328125	0.0	1	1	1	1
1066	S6	2020	2	14	10	126.9933821784120056008760002441704273223876953125	64.8411751376257967649507918395102024078369140625	110.6363142649330058020495926029980182647705078125	4.325833310683560029019645298831164836883544921875	89.27111108567970632066135294735431671142578125	0.55055555833710501101307954741059802472591400146484375	181.333333874740986857432289980351924896240234375	0.0	4025.80015162626978053594939410686492919921875	0.0	1	0	1	1
1067	S6	2020	2	14	11	258.2653254503640027905930764973163604736328125	478.5713657613570148896542377769947052001953125	116.0333430753729970774656976573169231414794921875	5.8399441695080103187365239136852324008941650390625	84.4687149644563959327570046298205852508544921875	0.5326815671261460050089908691006712615489959716796875	470.66666583220097663797787390649318695068359375	0.0	8244.04393931229060399346053600311279296875	0.0	1	1	1	1
1068	S6	2020	2	14	12	273.17660049353202111888094805181026458740234375	510.3749169947039945327560417354106903076171875	96.8894625828917952503616106696426868438720703125	6.65391059827538011717251720256172120571136474609375	80.6474860207327992611681111156940460205078125	0.414245813668772999704970061429776251316070556640625	517.38333081205701091676019132137298583984375	0.0	11785.283093651099989074282348155975341796875	0.0	1	1	1	1
1069	S6	2020	2	14	13	346.42470649119098879964440129697322845458984375	717.82137916864894577884115278720855712890625	85.687916273481306461690110154449939727783203125	7.17865171995055018072662278427742421627044677734375	77.73174170161900065068039111793041229248046875	0.4353932616918270159800385954440571367740631103515625	640.366663535435009180218912661075592041015625	0.0	13921.268620900800669915042817592620849609375	0.0	1	1	1	1
1070	S6	2020	2	14	14	269.27244955769998568939627148211002349853515625	505.258399873637017662986181676387786865234375	94.793424027689297872711904346942901611328125	7.54438203506254989605395167018286883831024169921875	73.6297755080662028603910584934055805206298828125	0.55983146405621797558893604218610562384128570556640625	465.50000210603002415155060589313507080078125	0.0	11669.0160423517008894123136997222900390625	0.0	1	1	1	1
1071	S6	2020	2	14	15	179.285923376055990274835494346916675567626953125	234.944578852494004195250454358756542205810546875	115.0146058914049973509463598020374774932861328125	7.6504178286262796149230780429206788539886474609375	69.2036210594070979595926473848521709442138671875	0.384679668710092015349033545135171152651309967041015625	286.183334141968998665106482803821563720703125	0.0	6391.9533679882597425603307783603668212890625	0.0	1	0	1	1
1072	S6	2020	2	14	16	111.125398996141001362047973088920116424560546875	145.526457264501999588901526294648647308349609375	78.1594923443263951412518508732318878173828125	7.41722222699058963968354873941279947757720947265625	69.4502780914306043769101961515843868255615234375	0.66916666966345494937939974988694302737712860107421875	161.799998457232987902898457832634449005126953125	0.0	3448.5107456644300327752716839313507080078125	0.0	1	1	1	1
1073	S6	2020	2	14	17	33.91067050094390111780739971436560153961181640625	3.83042881805396984162825901876203715801239013671875	33.993860531650199163777870126068592071533203125	6.2729805478810600760652960161678493022918701171875	73.9746524311373008231385028921067714691162109375	0.7838440135660940111250738482340238988399505615234375	31.133333378238599919995976961217820644378662109375	0.0	899.1363729660710077951080165803432464599609375	0.0	1	1	1	1
1074	S6	2020	2	14	18	5.0840490231147104083220256143249571323394775390625	0.05207689661675919678973656345988274551928043365478515625	5.32083755273084957337914602248929440975189208984375	5.57692300356351022827539054560475051403045654296875	77.138461186335604224950657226145267486572265625	0.93846152608211197421184124323190189898014068603515625	0	0.0	14.9072716167816992083317018114030361175537109375	0.0	1	1	1	0
1075	S6	2020	2	14	19	0	0	0	0	0	0	0	0.0	0	0.0	1	1	1	0
1076	S6	2020	2	14	20	0	0	0	0	0	0	0	0.0	0	0.0	1	1	1	0
1077	S6	2020	2	14	21	0	0	0	0	0	0	0	0.0	0	0.0	1	1	1	0
1078	S6	2020	2	14	22	0	0	0	0	0	0	0	0.0	0	0.0	1	1	1	0
1079	S6	2020	2	14	23	0	0	0	0	0	0	0	0.0	0	0.0	1	1	1	0
1080	S6	2020	2	14	24	0	0	0	0	0	0	0	0.0	0	0.0	1	1	1	0
1081	S6	2020	2	15	1	0	0	0	0	0	0	0	0.0	0	0.0	1	1	1	0
1082	S6	2020	2	15	2	0	0	0	0	0	0	0	0.0	0	0.0	1	1	1	0
1083	S6	2020	2	15	3	0	0	0	0	0	0	0	0.0	0	0.0	1	1	1	0
1084	S6	2020	2	15	4	0	0	0	0	0	0	0	0.0	0	0.0	1	1	1	0
1085	S6	2020	2	15	5	0	0	0	0	0	0	0	0.0	0	0.0	1	1	1	0
1086	S6	2020	2	15	6	0	0	0	0	0	0	0	0.0	0	0.0	1	1	1	0
1087	S6	2020	2	15	7	0	0	0	0	0	0	0	0.0	0	0.0	1	1	1	0
1088	S6	2020	2	15	8	2.98871036876330986586935978266410529613494873046875	0.1659747619520529904324490644285106100142002105712890625	3.0371797507459401543883359408937394618988037109375	5.44545459747314009035790149937383830547332763671875	93.88363730690690545088727958500385284423828125	3.9290909246964798029466692241840064525604248046875	0.60000001491668097930443082077545113861560821533203125	0.0	12.7416432990381007783753375406377017498016357421875	0.0	1	1	1	0
1089	S6	2020	2	15	9	10.299811236582399942562915384769439697265625	0.1833347620039020020588083070833818055689334869384765625	10.4198312497633995832302389317192137241363525390625	5.71661722624691037708544172346591949462890625	93.7919870936905937242045183666050434112548828125	3.704747777664339825065553668537177145481109619140625	9.7666667463878606980642871349118649959564208984375	0.0	262.73088573167700587873696349561214447021484375	0.0	1	1	1	1
1090	S6	2020	2	15	10	33.684020137786802706614253111183643341064453125	0.24199706506397899996585465487441979348659515380859375	33.93935384220539930311133502982556819915771484375	6.1600000076823704375783563591539859771728515625	93.075555483500096443094662390649318695068359375	4.47444444166289034825467751943506300449371337890625	31.916666931162200881999524426646530628204345703125	0.0	902.1855488419549828904564492404460906982421875	0.0	1	1	1	1
1091	S6	2020	2	15	11	59.5539986080593024553309078328311443328857421875	0.300715842760271023781371013683383353054523468017578125	59.8759927537706033717768150381743907928466796875	6.61249995761447006970001893932931125164031982421875	92.084722285800495455987402237951755523681640625	3.321111106541419832893780039739795029163360595703125	56.233333206425101025160984136164188385009765625	0.0	1590.740981201329987015924416482448577880859375	0.0	1	1	1	1
1092	S6	2020	2	15	12	88.790177069769896434081601910293102264404296875	0.3284342571679079725299743586219847202301025390625	88.95186063978400170526583679020404815673828125	6.96750002304712001688358213868923485279083251953125	90.887500254313096093028434552252292633056640625	3.0008333336975798744106214144267141819000244140625	83.7833333760496969944142620079219341278076171875	0.0	2387.31404095888001393177546560764312744140625	0.0	1	1	1	1
1093	S6	2020	2	15	13	79.4521529409619944317455519922077655792236328125	0.259296230061186017135099746155901812016963958740234375	79.3273957464430026220725267194211483001708984375	7.08166658878325971926415149937383830547332763671875	90.000000614590106806645053438842296600341796875	3.650000006622729831207152528804726898670196533203125	72.316666754583394549626973457634449005126953125	0.0	2051.15207731723012329894118010997772216796875	0.0	1	1	1	1
1094	S6	2020	2	15	14	107.704686943202005977582302875816822052001953125	0.317061107390376017978184108869754709303379058837890625	107.61471553366800435469485819339752197265625	6.99164346200841979594997610547579824924468994140625	90.5891361927255047703511081635951995849609375	3.695543170639389973786137488787062466144561767578125	98.6500003685554958110515144653618335723876953125	0.0	2835.0691199302600580267608165740966796875	0.0	1	1	1	1
1095	S6	2020	2	15	15	70.5229726579454023749349289573729038238525390625	0.243168945920963996965014075612998567521572113037109375	70.4396612803140982350669219158589839935302734375	7.10166656970976983842547269887290894985198974609375	89.86722270117860489335726015269756317138671875	3.670000000794720218522115828818641602993011474609375	62.26666712512570001081257942132651805877685546875	0.0	1761.90558870633003607508726418018341064453125	0.0	1	1	1	1
1096	S6	2020	2	15	16	31.6203576220406006314078695140779018402099609375	0.2005486343469879972900571374339051544666290283203125	31.54301677809819892672749119810760021209716796875	7.15888877842160997744258565944619476795196533203125	89.2944444868299029849367798306047916412353515625	3.23222223122913998594185613910667598247528076171875	27.333333731318401049747990327887237071990966796875	0.0	778.5101000219580100747407414019107818603515625	0.0	1	1	1	1
1097	S6	2020	2	15	17	12.6803145759455997421127904090099036693572998046875	0.1844760770126389892720197849484975449740886688232421875	12.674350607502500309919923893176019191741943359375	7.3471472585523400766760460101068019866943359375	87.879579515428503100338275544345378875732421875	2.9354354336454999696570666856132447719573974609375	9.766666715343770732715711346827447414398193359375	0.0	269.18996236442200142846559174358844757080078125	0.0	1	1	1	1
1098	S6	2020	2	15	18	1.92202562358643991302642461960203945636749267578125	0.12454752913779600087540444519618176855146884918212890625	1.8892369574970599988006370040238834917545318603515625	7.46222225824991003406694289878942072391510009765625	87.2000020345052035963817615993320941925048828125	2.986666670110489807399289929890073835849761962890625	0.0166666674582915987079534403392244712449610233306884765625	0.0	2.675649966113299971226524576195515692234039306640625	0.0	1	1	1	0
1099	S6	2020	2	15	19	0	0	0	0	0	0	0	0.0	0	0.0	1	1	1	0
1100	S6	2020	2	15	20	0	0	0	0	0	0	0	0.0	0	0.0	1	1	1	0
1101	S6	2020	2	15	21	0	0	0	0	0	0	0	0.0	0	0.0	1	1	1	0
1102	S6	2020	2	15	22	0	0	0	0	0	0	0	0.0	0	0.0	1	1	1	0
1103	S6	2020	2	15	23	0	0	0	0	0	0	0	0.0	0	0.0	1	1	1	0
1104	S6	2020	2	15	24	0	0	0	0	0	0	0	0.0	0	0.0	1	1	1	0
1105	S6	2020	2	16	1	0	0	0	0	0	0	0	0.0	0	0.0	1	1	1	0
1106	S6	2020	2	16	2	0	0	0	0	0	0	0	0.0	0	0.0	1	1	1	0
1107	S6	2020	2	16	3	0	0	0	0	0	0	0	0.0	0	0.0	1	1	1	0
1108	S6	2020	2	16	4	0	0	0	0	0	0	0	0.0	0	0.0	1	1	1	0
1109	S6	2020	2	16	5	0	0	0	0	0	0	0	0.0	0	0.0	1	1	1	0
1110	S6	2020	2	16	6	0	0	0	0	0	0	0	0.0	0	0.0	1	1	1	0
1111	S6	2020	2	16	7	0	0	0	0	0	0	0	0.0	0	0.0	1	1	1	0
1112	S6	2020	2	16	8	1.64043696955419004979148667189292609691619873046875	0.313186185291179974843345235058222897350788116455078125	1.664594441437369898295628445339389145374298095703125	11.373076989100500355789336026646196842193603515625	73.7403849088228042774062487296760082244873046875	6.403846135506260139891310245729982852935791015625	1.0666666862865199494336820862372405827045440673828125	0.0	16.391543229110400403669700608588755130767822265625	0.0	1	1	1	0
1113	S6	2020	2	16	9	21.062123778145998898025936796329915523529052734375	0.1907174043440610089472642130203894339501857757568359375	21.1967508473208994246306247077882289886474609375	11.603631485773799880689693964086472988128662109375	73.494971994581106855548569001257419586181640625	6.0902234755414799138861781102605164051055908203125	20.400000130757700134154219995252788066864013671875	0.0	564.1629065076509732534759677946567535400390625	0.0	1	1	1	1
1114	S6	2020	2	16	10	50.80800995826719912429325631819665431976318359375	0.262555300899676991033260264885029755532741546630859375	50.95049901538420300539655727334320545196533203125	11.7727778832117007112856299499981105327606201171875	74.726666069030699190989253111183643341064453125	6.52250000238417992903805497917346656322479248046875	49.58333342025670020802863291464745998382568359375	0.0	1412.401927014190050613251514732837677001953125	0.0	1	1	1	1
1115	S6	2020	2	16	11	63.7534354527791009559223311953246593475341796875	0.281115835201408981181003809979301877319812774658203125	63.78292824427280294230513391084969043731689453125	11.984722182485700869847278227098286151885986328125	75.527499749925397054539644159376621246337890625	6.8944444411330696453887867392040789127349853515625	58.5499997561176996896392665803432464599609375	0.0	1663.830877840520088284392841160297393798828125	0.0	1	1	1	1
1116	S6	2020	2	16	12	78.622471195156293788386392407119274139404296875	0.2162191492316599961132084217751980759203433990478515625	78.6173299369165050620722468011081218719482421875	11.6937320252768994777170519228093326091766357421875	80.7855932375804997036539134569466114044189453125	7.205982913998109751219089957885444164276123046875	74.24999993915349705275730229914188385009765625	0.0	2124.69733183582002311595715582370758056640625	0.0	1	1	1	1
1117	S6	2020	2	16	13	91.3257489190898041897526127286255359649658203125	0.254980245296428986723213938603294081985950469970703125	91.2817450353173995836186804808676242828369140625	11.242241407262799413047105190344154834747314453125	87.9600573747759000298174214549362659454345703125	7.0267241425897797313382397987879812717437744140625	85.633333586156595629290677607059478759765625	0.0	2447.05036679903014373849146068096160888671875	0.0	1	1	1	1
1118	S6	2020	2	16	14	65.84244537353509940658113919198513031005859375	0.25717403667254501442585024051368236541748046875	65.8428574879963974808561033569276332855224609375	11.4407302422469001612626016139984130859375	90.055833265516497476710355840623378753662109375	7.3668539490592603868890364537946879863739013671875	59.05000027269120010942060616798698902130126953125	0.0	1686.10122501848991305450908839702606201171875	0.0	1	1	1	1
1119	S6	2020	2	16	15	40.90972685284079801704137935303151607513427734375	0.23820368873162400813470185312326066195964813232421875	40.83593676355150137169403024017810821533203125	11.868333371480300542089025839231908321380615234375	90.36833343505850280052982270717620849609375	6.97583335174453988969389683916233479976654052734375	37.19999988873789931176361278630793094635009765625	0.0	1061.7708538969300207099877297878265380859375	0.0	1	1	1	1
1120	S6	2020	2	16	16	22.327756044476501529061351902782917022705078125	0.1682830125331699899771109585344674997031688690185546875	22.269266491712500055655254982411861419677734375	11.8316859533619993527508995612151920795440673828125	91.428197927253194166041794233024120330810546875	4.9299418510392598591351998038589954376220703125	19.683333331098101126599431154318153858184814453125	0.0	568.1431702027720120895537547767162322998046875	0.0	1	1	1	1
1121	S6	2020	2	16	17	22.506296340376099607283322256989777088165283203125	0.2058574899332590024680911255927640013396739959716796875	22.666229008138099487723593483678996562957763671875	11.3806247115134997471841415972448885440826416015625	91.6712496757507011579946265555918216705322265625	3.505937489680940100100769996060989797115325927734375	17.50000007838630011747227399609982967376708984375	0.0	489.38303059742901268691639415919780731201171875	0.0	1	1	1	1
1122	S6	2020	2	16	18	1.1556923915358099375083611448644660413265228271484375	0.04662104518444949718958270068469573743641376495361328125	0.99494074840171597973181860652402974665164947509765625	10.8980391259285998017958263517357409000396728515625	92.082353030934001481000450439751148223876953125	3.17450979176688985461396441678516566753387451171875	0	0.0	0.2232699965437260070100222719702287577092647552490234375	0.0	1	1	1	0
1123	S6	2020	2	16	19	0	0	0	0	0	0	0	0.0	0	0.0	1	1	1	0
1124	S6	2020	2	16	20	0	0	0	0	0	0	0	0.0	0	0.0	1	1	1	0
1125	S6	2020	2	16	21	0	0	0	0	0	0	0	0.0	0	0.0	1	1	1	0
1126	S6	2020	2	16	22	0	0	0	0	0	0	0	0.0	0	0.0	1	1	1	0
1127	S6	2020	2	16	23	0	0	0	0	0	0	0	0.0	0	0.0	1	1	1	0
1128	S6	2020	2	16	24	0	0	0	0	0	0	0	0.0	0	0.0	1	1	1	0
1129	S6	2020	2	17	1	0	0	0	0	0	0	0	0.0	0	0.0	1	1	1	0
1130	S6	2020	2	17	2	0	0	0	0	0	0	0	0.0	0	0.0	1	1	1	0
1131	S6	2020	2	17	3	0	0	0	0	0	0	0	0.0	0	0.0	1	1	1	0
1132	S6	2020	2	17	4	0	0	0	0	0	0	0	0.0	0	0.0	1	1	1	0
1133	S6	2020	2	17	5	0	0	0	0	0	0	0	0.0	0	0.0	1	1	1	0
1134	S6	2020	2	17	6	0	0	0	0	0	0	0	0.0	0	0.0	1	1	1	0
1135	S6	2020	2	17	7	0	0	0	0	0	0	0	0.0	0	0.0	1	1	1	0
1136	S6	2020	2	17	8	12.4413718074114996170465019531548023223876953125	0.216228392016865000879732860994408838450908660888671875	12.46183408907990042280289344489574432373046875	7.1082088520277704191130396793596446514129638671875	73.899999931677001541174831800162792205810546875	5.48507463220339985809914651326835155487060546875	5.2833333766708800993683325941674411296844482421875	0.0	154.588934577380996415740810334682464599609375	0.0	1	1	1	0
1137	S6	2020	2	17	9	47.8583874808416993573700892738997936248779296875	31.564896411821198540792465792037546634674072265625	43.30569910208379980076642823405563831329345703125	7.29138888253106021153371330001391470432281494140625	70.9397218916150933409880963154137134552001953125	5.34999999801317027703362327883951365947723388671875	62.70000015695899975298743811435997486114501953125	0.0	1354.51210848986011114902794361114501953125	0.0	1	1	1	1
1138	S6	2020	2	17	10	92.381241173214306172667420469224452972412109375	18.38367218143410042330287978984415531158447265625	87.4725382698906059886212460696697235107421875	7.74083338313632030036615105927921831607818603515625	67.7802772098117003451989148743450641632080078125	5.0136111067401003538179793395102024078369140625	108.0000005662430027086884365417063236236572265625	0.0	2682.64747510352981407777406275272369384765625	0.0	1	1	1	1
1139	S6	2020	2	17	11	108.9201465277279936572085716761648654937744140625	4.4433323233738502011647142353467643260955810546875	107.4007508960600034697563387453556060791015625	8.0038998213319008101507279206998646259307861328125	69.0139276616088039872920489870011806488037109375	5.188300835388940157599790836684405803680419921875	112.3666671415160038804970099590718746185302734375	0.0	3057.22910960514991529635153710842132568359375	0.0	1	1	1	1
1140	S6	2020	2	17	12	114.6919421359630035794907598756253719329833984375	2.39089892302864992501554297632537782192230224609375	113.5682596511380069159713457338511943817138671875	7.8591716896147403303984901867806911468505859375	72.91804743659560017476906068623065948486328125	5.8748520817276901340164840803481638431549072265625	113.549999768535002431235625408589839935302734375	0.0	3213.85737160841017612256109714508056640625	0.0	1	1	1	1
1141	S6	2020	2	17	13	213.341208558493008240475319325923919677734375	145.416639185664990918667172081768512725830078125	157.3648465433819865211262367665767669677734375	7.7599999827723298295722997863776981830596923828125	74.3172525521664937286914209835231304168701171875	5.73247589942342994362434183130972087383270263671875	331.78333242734197483514435589313507080078125	0.0	8504.812996586149893118999898433685302734375	0.0	1	1	1	1
1142	S6	2020	2	17	14	188.219177400000006628033588640391826629638671875	77.79812740633309431359521113336086273193359375	158.591827546485006905641057528555393218994140625	8.8553312230178793384993696236051619052886962890625	67.1974059882699066292843781411647796630859375	5.14034582249368998674299291451461613178253173828125	223.1833342462770133352023549377918243408203125	0.0	6013.2088909546500872238539159297943115234375	0.0	1	1	1	1
1143	S6	2020	2	17	15	156.6585614632859915218432433903217315673828125	106.6619217025189954028974170796573162078857421875	124.5836475095880047092578024603426456451416015625	9.047826139477709972425145679153501987457275390625	65.9988402214602984940938767977058887481689453125	5.248695655145500182925388799048960208892822265625	210.583334416149995149680762551724910736083984375	0.0	5625.0517606735202207346446812152862548828125	0.0	1	1	1	1
1144	S6	2020	2	17	16	116.66154049959999383645481429994106292724609375	142.34062578870299375921604223549365997314453125	83.2303623338178937274278723634779453277587890625	8.7956363955411003274775794125162065029144287109375	68.4170905095879930968294502235949039459228515625	5.35854545246470959085627328022383153438568115234375	147.383332904427987841700087301433086395263671875	0.0	3360.32353738942993004457093775272369384765625	0.0	1	1	1	1
1145	S6	2020	2	17	17	47.4439703489885005183168686926364898681640625	29.179091196246300654593142098747193813323974609375	44.58770196845210165292883175425231456756591796875	7.50840336401588981374288778170011937618255615234375	77.8364147966315016446969821117818355560302734375	4.9658263327360803174315151409246027469635009765625	77.8499998152255017203060560859739780426025390625	0.0	1537.48324563106007190071977674961090087890625	0.0	1	1	1	1
1146	S6	2020	2	17	18	6.3762747086200501911434912472032010555267333984375	0.292924597014470988742829149487079121172428131103515625	6.50185052144157982212391289067454636096954345703125	7.76804129118770969597562725539319217205047607421875	75.3195879434801014440381550230085849761962890625	4.7371133910012002132816633093170821666717529296875	1.45000002424542007162244772189296782016754150390625	0.0	58.34532480997339831674253218807280063629150390625	0.0	1	1	1	0
1147	S6	2020	2	17	19	0	0	0	0	0	0	0	0.0	0	0.0	1	1	1	0
1148	S6	2020	2	17	20	0	0	0	0	0	0	0	0.0	0	0.0	1	1	1	0
1149	S6	2020	2	17	21	0	0	0	0	0	0	0	0.0	0	0.0	1	1	1	0
1150	S6	2020	2	17	22	0	0	0	0	0	0	0	0.0	0	0.0	1	1	1	0
1151	S6	2020	2	17	23	0	0	0	0	0	0	0	0.0	0	0.0	1	1	1	0
1152	S6	2020	2	17	24	0	0	0	0	0	0	0	0.0	0	0.0	1	1	1	0
1153	S6	2020	2	18	1	0	0	0	0	0	0	0	0.0	0	0.0	1	1	1	0
1154	S6	2020	2	18	2	0	0	0	0	0	0	0	0.0	0	0.0	1	1	1	0
1155	S6	2020	2	18	3	0	0	0	0	0	0	0	0.0	0	0.0	1	1	1	0
1156	S6	2020	2	18	4	0	0	0	0	0	0	0	0.0	0	0.0	1	1	1	0
1157	S6	2020	2	18	5	0	0	0	0	0	0	0	0.0	0	0.0	1	1	1	0
1158	S6	2020	2	18	6	0	0	0	0	0	0	0	0.0	0	0.0	1	1	1	0
1159	S6	2020	2	18	7	0	0	0	0	0	0	0	0.0	0	0.0	1	1	1	0
1160	S6	2020	2	18	8	15.921811391186199813319035456515848636627197265625	7.41843719553472968897267492138780653476715087890625	15.7090922949328994917550517129711806774139404296875	6.2139072481370103417930295108817517757415771484375	79.525165279969399989568046294152736663818359375	3.098013242348919948909724553232081234455108642578125	8.6833333053315495675406054942868649959564208984375	0.0	234.607831450799011463459464721381664276123046875	0.0	1	1	1	0
1161	S6	2020	2	18	9	86.4433978716532038788500358350574970245361328125	155.20621003309798879854497499763965606689453125	63.59577554596790349705770495347678661346435546875	6.34611114131079023792381121893413364887237548828125	77.3983332739936003008551779203116893768310546875	3.719166665607020139105998168815858662128448486328125	143.9500003432229959798860363662242889404296875	0.0	2548.0719683071001782082021236419677734375	0.0	1	1	1	1
1162	S6	2020	2	18	10	151.0275411224359913830994628369808197021484375	257.72135420411797213091631419956684112548828125	89.639937002999403148351120762526988983154296875	6.4817143031529003138757616397924721240997314453125	74.649143306187198732004617340862751007080078125	4.1617142939567504100750738871283829212188720703125	269.41666783144000874017365276813507080078125	0.0	4661.400645971300036762841045856475830078125	0.0	1	1	1	1
1163	S6	2020	2	18	11	263.42241192164800622776965610682964324951171875	377.06283843423199186872807331383228302001953125	141.323516340285010528532438911497592926025390625	6.83091488095111998291031341068446636199951171875	72.3624609577166069129816605709493160247802734375	4.49400629756577973950015802984125912189483642578125	428.58333289623300288440077565610408782958984375	0.0	9772.398541371019746293313801288604736328125	0.0	1	1	1	1
1164	S6	2020	2	18	12	205.48455958510800201111123897135257720947265625	126.110349809968994350128923542797565460205078125	158.852448896927995747319073416292667388916015625	6.80212120576338019617423924501053988933563232421875	72.330000212698195127813960425555706024169921875	4.69999999133023038666578941047191619873046875	294.19999979436300918678171001374721527099609375	0.0	7591.3407504558499567792750895023345947265625	0.0	1	1	1	1
1165	S6	2020	2	18	13	187.039940970283993237899267114698886871337890625	2.799420397101190172151063961791805922985076904296875	185.604244665348005582927726209163665771484375	6.46336984983730022946701865294016897678375244140625	78.6798536139965989377742516808211803436279296875	3.89523809515076013809675714583136141300201416015625	166.3333335270480120016145519912242889404296875	0.0	4785.34826636314028291963040828704833984375	0.0	1	1	1	1
1166	S6	2020	2	18	14	193.198563685399989253710373304784297943115234375	159.53363496693100387346930801868438720703125	138.1715327804510025089257396757602691650390625	6.06585363893143014735187534824945032596588134765625	85.03693427109129743257653899490833282470703125	3.933101035576660020609551793313585221767425537109375	264.46666711320398235329776071012020111083984375	0.0	6916.13925720253973850049078464508056640625	0.0	1	1	1	1
1167	S6	2020	2	18	15	204.317168682295999815323739312589168548583984375	161.3279905208900117941084317862987518310546875	152.723818145046010386067791841924190521240234375	7.2436046309249295660492862225510179996490478515625	76.72514471153300519290496595203876495361328125	4.91311952775838012286158118513412773609161376953125	285.49999992052602237890823744237422943115234375	0.0	7486.223292350759948021732270717620849609375	0.0	1	1	1	1
1168	S6	2020	2	18	16	110.4444935362210031826180056668817996978759765625	71.2182265505363005786421126686036586761474609375	94.948726255341398427844978868961334228515625	7.04887013785582983160793446586467325687408447265625	74.3872881959386944572543143294751644134521484375	4.36892655138241980949942444567568600177764892578125	150.033334145942006898621912114322185516357421875	0.0	3567.515059312179801054298877716064453125	0.0	1	1	1	1
1169	S6	2020	2	18	17	49.1422225460618022907510749064385890960693359375	15.238763287957500125457954709418118000030517578125	47.98256328059169817379370215348899364471435546875	6.22549025484827023291245495784096419811248779296875	80.550980725542103755287826061248779296875	4.2316526630345503434682541410438716411590576171875	52.83333376670869796498664072714745998382568359375	0.0	1372.840125982949984972947277128696441650390625	0.0	1	1	1	1
1170	S6	2020	2	18	18	12.6864370466434994710880346246995031833648681640625	0.186007634673303001715538584903697483241558074951171875	12.7429650964088008180397082469426095485687255859375	5.9000000953674298642681605997495353221893310546875	79.8271842882470963331797975115478038787841796875	4.67281555203557985578299849294126033782958984375	3.300000042266530098089560851803980767726898193359375	0.0	102.557541422235004802132607437670230865478515625	0.0	1	1	1	0
1171	S6	2020	2	18	19	0	0	0	0	0	0	0	0.0	0	0.0	1	1	1	0
1172	S6	2020	2	18	20	0	0	0	0	0	0	0	0.0	0	0.0	1	1	1	0
1173	S6	2020	2	18	21	0	0	0	0	0	0	0	0.0	0	0.0	1	1	1	0
1174	S6	2020	2	18	22	0	0	0	0	0	0	0	0.0	0	0.0	1	1	1	0
1175	S6	2020	2	18	23	0	0	0	0	0	0	0	0.0	0	0.0	1	1	1	0
1176	S6	2020	2	18	24	0	0	0	0	0	0	0	0.0	0	0.0	1	1	1	0
1177	S6	2020	2	19	1	0	0	0	0	0	0	0	0.0	0	0.0	1	1	1	0
1178	S6	2020	2	19	2	0	0	0	0	0	0	0	0.0	0	0.0	1	1	1	0
1179	S6	2020	2	19	3	0	0	0	0	0	0	0	0.0	0	0.0	1	1	1	0
1180	S6	2020	2	19	4	0	0	0	0	0	0	0	0.0	0	0.0	1	1	1	0
1181	S6	2020	2	19	5	0	0	0	0	0	0	0	0.0	0	0.0	1	1	1	0
1182	S6	2020	2	19	6	0	0	0	0	0	0	0	0.0	0	0.0	1	1	1	0
1183	S6	2020	2	19	7	0	0	0	0	0	0	0	0.0	0	0.0	1	1	1	0
1184	S6	2020	2	19	8	5.610530721880220283992457552812993526458740234375	0.11132662308854400501356707309241755865514278411865234375	5.67240932562055011345591992721892893314361572265625	4.579562009686100054750568233430385589599609375	90.7846722568038018152947188355028629302978515625	3.202919699414799925563102078740485012531280517578125	2.083333391540989953938378675957210361957550048828125	0.0	58.86580021275830176818999461829662322998046875	0.0	1	1	1	1
1185	S6	2020	2	19	9	23.546602047353498932125148712657392024993896484375	0.157386309132518997788707793006324209272861480712890625	23.623458339856998833283796557225286960601806640625	4.2510145256484701548060911591164767742156982421875	91.694782621964094460054184310138225555419921875	2.4504347865996098931873348192311823368072509765625	21.216666574279400947489193640649318695068359375	0.0	630.655119506018991160090081393718719482421875	0.0	1	1	1	1
1186	S6	2020	2	19	10	31.120045586855599850650833104737102985382080078125	0.243968224920874998673525624326430261135101318359375	31.195615153965999155616373172961175441741943359375	3.783965012769999969322043398278765380382537841796875	92.0658893863244003341606003232300281524658203125	2.44810494667586997508124113664962351322174072265625	29.48333352493740022737256367690861225128173828125	0.0	877.705974255997944055707193911075592041015625	0.0	1	1	1	1
1187	S6	2020	2	19	11	80.9067299080426067803273326717317104339599609375	0.43767342950972298876166632908280007541179656982421875	81.107724064904004990239627659320831298828125	4.67214484068675961481176273082382977008819580078125	92.53983215502040593491983599960803985595703125	2.644011140533800041652057188912294805049896240234375	77.533333376049796470397268421947956085205078125	0.0	2238.869303961590048857033252716064453125	0.0	1	1	1	1
1188	S6	2020	2	19	12	142.55220370822399900134769268333911895751953125	3.376844238055240143836499555618502199649810791015625	141.096907933553012526317615993320941925048828125	5.138333312670379626752037438564002513885498046875	90.4333335876464019520426518283784389495849609375	2.914999995297849810782508939155377447605133056640625	155.316667010385998537458362989127635955810546875	0.0	4261.4556978146201799972914159297943115234375	0.0	1	1	1	1
1189	S6	2020	2	19	13	247.82905453257700401081820018589496612548828125	78.061620549929301660085911862552165985107421875	214.949579298326995058232569135725498199462890625	5.9716713921544197773982887156307697296142578125	84.3869684883959934040831285528838634490966796875	3.166572234448219891334019848727621138095855712890625	318.9999995132289996035979129374027252197265625	0.0	8530.5543492237702594138681888580322265625	0.0	1	1	1	1
1190	S6	2020	2	19	14	231.446968143821010244209901429712772369384765625	151.795321323529009305275394581258296966552734375	174.43029772114499564850120805203914642333984375	6.2216524344224097831101971678435802459716796875	81.564672269033195561860338784754276275634765625	2.864387462111949833598600889672525227069854736328125	354.9333329002059826962067745625972747802734375	0.0	9421.3286677996293292380869388580322265625	0.0	1	1	1	1
1191	S6	2020	2	19	15	174.5199338291459980609943158924579620361328125	75.24256595014850290681351907551288604736328125	148.908541690096996035208576358854770660400390625	6.2853932139578798654611091478727757930755615234375	80.7146068744444988851682865060865879058837890625	2.81039325558066988008931730291806161403656005859375	223.6999996006489936917205341160297393798828125	0.0	6024.3134240309400411206297576427459716796875	0.0	1	1	1	1
1192	S6	2020	2	19	16	134.66408621931799416415742598474025726318359375	239.135589645810995307328994385898113250732421875	87.78817009526250103590427897870540618896484375	6.34553077101041029806083315634168684482574462890625	80.5025138002533964254325837828218936920166015625	2.51201116722389006241655806661583483219146728515625	233.59999991953299058877746574580669403076171875	0.0	4753.0690163373901668819598853588104248046875	0.0	1	1	1	1
1193	S6	2020	2	19	17	68.583827964464802562361001037061214447021484375	282.72505791700501731611439026892185211181640625	31.23737194008290174451758502982556819915771484375	6.27000004450480030726566837984137237071990966796875	79.5916670481363013323061750270426273345947265625	2.063611108230209989500281153596006333827972412109375	130.933333421125013273922377265989780426025390625	0.0	2140.1499175776998526998795568943023681640625	0.0	1	1	1	1
1194	S6	2020	2	19	18	9.446909420926800748929963447153568267822265625	0.289408000107381990773092184099368751049041748046875	9.769098066947830005801733932457864284515380859375	5.73802819050532963984778689336962997913360595703125	80.3169016233631936074743862263858318328857421875	1.971830984236480066584817905095405876636505126953125	1.73333335551432998755672088009305298328399658203125	0.0	85.71327141641330626953276805579662322998046875	0.0	1	1	1	0
1195	S6	2020	2	19	19	0	0	0	0	0	0	0	0.0	0	0.0	1	1	1	0
1196	S6	2020	2	19	20	0	0	0	0	0	0	0	0.0	0	0.0	1	1	1	0
1197	S6	2020	2	19	21	0	0	0	0	0	0	0	0.0	0	0.0	1	1	1	0
1198	S6	2020	2	19	22	0	0	0	0	0	0	0	0.0	0	0.0	1	1	1	0
1199	S6	2020	2	19	23	0	0	0	0	0	0	0	0.0	0	0.0	1	1	1	0
1200	S6	2020	2	19	24	0	0	0	0	0	0	0	0.0	0	0.0	1	1	1	0
1201	S6	2020	2	20	1	0	0	0	0	0	0	0	0.0	0	0.0	1	1	1	0
1202	S6	2020	2	20	2	0	0	0	0	0	0	0	0.0	0	0.0	1	1	1	0
1203	S6	2020	2	20	3	0	0	0	0	0	0	0	0.0	0	0.0	1	1	1	0
1204	S6	2020	2	20	4	0	0	0	0	0	0	0	0.0	0	0.0	1	1	1	0
1205	S6	2020	2	20	5	0	0	0	0	0	0	0	0.0	0	0.0	1	1	1	0
1206	S6	2020	2	20	6	0	0	0	0	0	0	0	0.0	0	0.0	1	1	1	0
1207	S6	2020	2	20	7	0	0	0	0	0	0	0	0.0	0	0.0	1	1	1	0
1208	S6	2020	2	20	8	17.706969665078499787114196806214749813079833984375	0.1906325510319540061932030994285014458000659942626953125	17.837144414116298918315806076861917972564697265625	3.582352906114909973922522112843580543994903564453125	90.132940808464496740270988084375858306884765625	2.531176460841119801870036098989658057689666748046875	11.8499998507711001849429521826095879077911376953125	0.0	338.04934490471902108765789307653903961181640625	0.0	1	1	1	1
1209	S6	2020	2	20	9	40.07487765418149905372047214768826961517333984375	1.9538473971187999556065051365294493734836578369140625	39.91219557126360228949124575592577457427978515625	3.60416662361885986598508679890073835849761962890625	89.8308326933119047907894128002226352691650390625	2.982499993178569841489888858632184565067291259765625	40.10000005364410213815062888897955417633056640625	0.0	1125.03095567226000639493577182292938232421875	0.0	1	1	1	1
1210	S6	2020	2	20	10	62.4200003517997998869759612716734409332275390625	0.294945147964689013964090236186166293919086456298828125	62.48820844226410287092221551574766635894775390625	4.02805555860201014439780919929035007953643798828125	88.7944441265530031159869395196437835693359375	3.583888882398599928791327329236082732677459716796875	60.63333352406819898305911920033395290374755859375	0.0	1754.1957820455199907883070409297943115234375	0.0	1	1	1	1
1211	S6	2020	2	20	11	69.1033256954616064149377052672207355499267578125	0.2772475835970700241972508592880330979824066162109375	69.1072928216722033312180428765714168548583984375	4.47027780612309033614337749895639717578887939453125	88.3586104498969007181585766375064849853515625	3.69861110895871991743888429482467472553253173828125	63.35000017037000219488618313334882259368896484375	0.0	1881.488490104670063374214805662631988525390625	0.0	1	1	1	1
1212	S6	2020	2	20	12	70.89515917036260361783206462860107421875	0.29577646404504698285364838739042170345783233642578125	70.97480578952360019684419967234134674072265625	4.53472223016949982365986215882003307342529296875	91.6452775107488974981606588698923587799072265625	3.2805555618471498036115008289925754070281982421875	68.183333488802105648574070073664188385009765625	0.0	2041.054486731680071898153983056545257568359375	0.0	1	1	1	1
1213	S6	2020	2	20	13	68.49434552722499347510165534913539886474609375	0.27408928119887898677831117311143316328525543212890625	68.566229343414306640625	5.0124999801317802194944306393153965473175048828125	92.2708337995741061376975267194211483001708984375	3.180833330088189914164331639767624437808990478515625	63.0000003923970979258228908292949199676513671875	0.0	1865.674113730580074843601323664188385009765625	0.0	1	1	1	1
1214	S6	2020	2	20	14	42.06786350674089902668129070661962032318115234375	0.2250072595973799938207093873643316328525543212890625	42.11480295923019667725384351797401905059814453125	5.27916665607027990603228317922912538051605224609375	93.0555554072061994475006940774619579315185546875	3.178055555290640210586161629180423915386199951171875	39.33333338548730040429290966130793094635009765625	0.0	1147.268334279450073154293932020664215087890625	0.0	1	1	1	1
1215	S6	2020	2	20	15	46.498232894473602527796174399554729461669921875	0.258495210566454025613580824938253499567508697509765625	46.6164952278137008079283987171947956085205078125	5.74805555873447016068666926003061234951019287109375	94.1563891940646016109894844703376293182373046875	3.34722221692403021364725645980797708034515380859375	43.09999983136849976972371223382651805877685546875	0.0	1256.170100718730054722982458770275115966796875	0.0	1	1	1	1
1216	S6	2020	2	20	16	25.61520586013789824164632591418921947479248046875	0.2426045296713700005764025036114617250859737396240234375	25.716018576092100289542941027320921421051025390625	6.2383333298894996232775156386196613311767578125	93.938610882229198750792420469224452972412109375	3.9022222148047500667189524392597377300262451171875	23.89999981969589981645185616798698902130126953125	0.0	698.6435335129490340477786958217620849609375	0.0	1	1	1	1
1217	S6	2020	2	20	17	25.321865261925498913342380546964704990386962890625	0.214383152944760013713931812162627466022968292236328125	25.522544137636799632673501037061214447021484375	6.95305551422965972818701629876159131526947021484375	92.6438886218600003985557123087346553802490234375	4.1047222246726295935559392091818153858184814453125	21.9500001519918015446819481439888477325439453125	0.0	610.5419454475239717794465832412242889404296875	0.0	1	1	1	1
1218	S6	2020	2	20	18	5.3720725879669100066848841379396617412567138671875	0.2011741358041760074915060840794467367231845855712890625	5.53827592086792019898666694643907248973846435546875	7.16239984512329019850085387588478624820709228515625	91.19440026855460246224538423120975494384765625	4.33360000705719006219851507921703159809112548828125	1.56666670421448994687807498848997056484222412109375	0.0	39.01617499456430238069515326060354709625244140625	0.0	1	1	1	0
1219	S6	2020	2	20	19	0	0	0	0	0	0	0	0.0	0	0.0	1	1	1	0
1220	S6	2020	2	20	20	0	0	0	0	0	0	0	0.0	0	0.0	1	1	1	0
1221	S6	2020	2	20	21	0	0	0	0	0	0	0	0.0	0	0.0	1	1	1	0
1222	S6	2020	2	20	22	0	0	0	0	0	0	0	0.0	0	0.0	1	1	1	0
1223	S6	2020	2	20	23	0	0	0	0	0	0	0	0.0	0	0.0	1	1	1	0
1224	S6	2020	2	20	24	0	0	0	0	0	0	0	0.0	0	0.0	1	1	1	0
1225	S6	2020	2	21	1	0	0	0	0	0	0	0	0.0	0	0.0	1	1	1	0
1226	S6	2020	2	21	2	0	0	0	0	0	0	0	0.0	0	0.0	1	1	1	0
1227	S6	2020	2	21	3	0	0	0	0	0	0	0	0.0	0	0.0	1	1	1	0
1228	S6	2020	2	21	4	0	0	0	0	0	0	0	0.0	0	0.0	1	1	1	0
1229	S6	2020	2	21	5	0	0	0	0	0	0	0	0.0	0	0.0	1	1	1	0
1230	S6	2020	2	21	6	0	0	0	0	0	0	0	0.0	0	0.0	1	1	1	0
1231	S6	2020	2	21	7	0	0	0	0	0	0	0	0.0	0	0.0	1	1	1	0
1232	S6	2020	2	21	8	16.365221758683500041797742596827447414398193359375	11.8387559391723993229561529005877673625946044921875	15.8713710137774999253679197863675653934478759765625	4.99047619955879984132707249955274164676666259765625	83.1136897404987990967129007913172245025634765625	3.502380949755509842447054325020872056484222412109375	9.8500001030818804537148025701753795146942138671875	0.0	272.022485422590989401214756071567535400390625	0.0	1	1	1	1
1233	S6	2020	2	21	9	89.8356402564512990238654310815036296844482421875	177.222180489032012928873882628977298736572265625	61.457242870065101669752039015293121337890625	5.17103067015538986339606708497740328311920166015625	83.9607247907803042608065879903733730316162109375	3.29610027169449981698789997608400881290435791015625	159.416665943959998230639030225574970245361328125	0.0	2686.3762592275897986837662756443023681640625	0.0	1	0	1	1
1234	S6	2020	2	21	10	208.238649749755012408058973960578441619873046875	474.48465635511598748053074814379215240478515625	86.8678859286838047637502313591539859771728515625	6.14972219334708025684221865958534181118011474609375	79.059166653950995851118932478129863739013671875	3.70166667037539998119655137998051941394805908203125	395.81666663289098551103961654007434844970703125	0.0	6737.73439427215998875908553600311279296875	0.0	1	1	1	1
1235	S6	2020	2	21	11	273.93290529993402060426888056099414825439453125	429.88236577335902666163747198879718780517578125	130.64458920141800035708001814782619476318359375	7.0437126188221004241540867951698601245880126953125	74.722754404216402690508402884006500244140625	4.1985029892293201925212997593916952610015869140625	456.233333547909978733514435589313507080078125	0.0	11116.05659623939936864189803600311279296875	0.0	1	1	1	1
1236	S6	2020	2	21	12	295.586531146220977461780421435832977294921875	300.2321497183689871235401369631290435791015625	177.37377663708599584424518980085849761962890625	7.44220180686459986674208266776986420154571533203125	73.1559629294485063155661919154226779937744140625	4.19633028339536995332537117064930498600006103515625	462.75000000993298954199417494237422943115234375	0.0	11642.47520963349961675703525543212890625	0.0	1	1	1	1
1237	S6	2020	2	21	13	325.2896936416619837473263032734394073486328125	349.7928053351109838331467472016811370849609375	184.239552450180013920544297434389591217041015625	8.116562587022780661527576739899814128875732421875	69.960624670982298312083003111183643341064453125	3.893437494710080049031830640160478651523590087890625	498.899996777375008605304174125194549560546875	0.0	12925.205068786899573751725256443023681640625	0.0	1	1	1	1
1238	S6	2020	2	21	14	195.372821346496010619375738315284252166748046875	57.86805096037330287117583793587982654571533203125	172.94434439960099325617193244397640228271484375	8.175516257947169407316323486156761646270751953125	69.376401377990106311699491925537586212158203125	4.53510325637186983982473975629545748233795166015625	237.083334227401991256556357257068157196044921875	0.0	6447.3136047522102671791799366474151611328125	18.713305093	1	1	1	1
1239	S6	2020	2	21	15	185.972043122124006231388193555176258087158203125	86.2300336255043049504820373840630054473876953125	156.2204580006419973869924433529376983642578125	8.237249248690449832110971328802406787872314453125	68.703151866836293493179255165159702301025390625	4.2676217668719100828411683323793113231658935546875	249.3333328515290077120880596339702606201171875	0.0	6491.9103533029401660314761102199554443359375	17.847900009	1	1	1	1
1240	S6	2020	2	21	16	54.89860510296289675125080975703895092010498046875	0.316138799892117017265036338358186185359954833984375	54.81724309921259674638349679298698902130126953125	7.87083350287543037637760789948515594005584716796875	73.0838893466524979203313705511391162872314453125	4.0383333365122400238078625989146530628204345703125	49.15000035737949701797333545982837677001953125	0.0	1368.55847065647003546473570168018341064453125	4.2088000039	1	1	1	1
1241	S6	2020	2	21	17	28.7287253604797996331399190239608287811279296875	0.1809393478728799908861191170217352919280529022216796875	28.77932637452369846187139046378433704376220703125	7.6857565998677301877251011319458484649658203125	75.099109842090996380647993646562099456787109375	3.98486646205097994055677190772257745265960693359375	23.816666773442701554586165002547204494476318359375	0.0	676.6718893932810487967799417674541473388671875	0.999166664	1	1	1	1
1242	S6	2020	2	21	18	1.8867785153181599877569851742009632289409637451171875	0.1242256657797430052792009291806607507169246673583984375	1.862821521966349980203858649474568665027618408203125	7.2565217432768402971987597993575036525726318359375	78.5608683047087055228985263966023921966552734375	3.69130435197248996104235629900358617305755615234375	0	0.0	4.179774942652610292270765057764947414398193359375	-1.754758332	1	1	1	0
1243	S6	2020	2	21	19	0	0	0	0	0	0	0	0.0	0	0.0	1	1	1	0
1244	S6	2020	2	21	20	0	0	0	0	0	0	0	0.0	0	0.0	1	1	1	0
1245	S6	2020	2	21	21	0	0	0	0	0	0	0	0.0	0	0.0	1	1	1	0
1246	S6	2020	2	21	22	0	0	0	0	0	0	0	0.0	0	0.0	1	1	1	0
1247	S6	2020	2	21	23	0	0	0	0	0	0	0	0.0	0	0.0	1	1	1	0
1248	S6	2020	2	21	24	0	0	0	0	0	0	0	0.0	0	0.0	1	1	1	0
1249	S6	2020	2	22	1	0	0	0	0	0	0	0	0.0	0	0.0	1	1	1	0
1250	S6	2020	2	22	2	0	0	0	0	0	0	0	0.0	0	0.0	1	1	1	0
1251	S6	2020	2	22	3	0	0	0	0	0	0	0	0.0	0	0.0	1	1	1	0
1252	S6	2020	2	22	4	0	0	0	0	0	0	0	0.0	0	0.0	1	1	1	0
1253	S6	2020	2	22	5	0	0	0	0	0	0	0	0.0	0	0.0	1	1	1	0
1254	S6	2020	2	22	6	0	0	0	0	0	0	0	0.0	0	0.0	1	1	1	0
1255	S6	2020	2	22	7	0	0	0	0	0	0	0	0.0	0	0.0	1	1	1	0
1256	S6	2020	2	22	8	3.719203973379659800002627889625728130340576171875	0.1253795893496179869597284550764015875756740570068359375	3.7214190740519601519054049276746809482574462890625	7.94881898023950039799956357455812394618988037109375	87.274802801177202127291820943355560302734375	6.497637823810720192341250367462635040283203125	1.1666666890960299962642920945654623210430145263671875	0.0	30.948603339493200081733448314480483531951904296875	-0.491591667	1	1	1	1
1257	S6	2020	2	22	9	19.977347653441899666404424351640045642852783203125	0.174746064116091004425612709383131004869937896728515625	20.01086533334520112248355871997773647308349609375	7.99719116125213957957384991459548473358154296875	87.0694443808661020511863171122968196868896484375	6.818258426832340290957290562801063060760498046875	19.083333442297998772119171917438507080078125	0.0	551.4373009093100108657381497323513031005859375	1.5461666701	1	1	1	1
1258	S6	2020	2	22	10	59.6416256533727988653481588698923587799072265625	0.2086903576739130017347889634038438089191913604736328125	59.69059102270330186001956462860107421875	7.90500016212463041398450513952411711215972900390625	88.5683336893716983695412636734545230865478515625	6.5322222438123400678477992187254130840301513671875	55.933333436648098313526134006679058074951171875	0.0	1664.087579647700067653204314410686492919921875	5.9091249853	1	1	1	1
1259	S6	2020	2	22	11	47.52336898379849827733778511174023151397705078125	0.2087298163937189865446697467632475309073925018310546875	47.51696173350010354852201999165117740631103515625	7.86887622223119986841766149154864251613616943359375	88.9077779981824960486846975982189178466796875	6.558333350324080157633943599648773670196533203125	47.91666691501949770781720872037112712860107421875	0.0	1417.49714488784002242027781903743743896484375	3.9167583386	1	1	1	1
1260	S6	2020	2	22	12	76.525096872117700286253239028155803680419921875	0.27257923583189602734222489743842743337154388427734375	76.4597618844774018498355871997773647308349609375	8.0615385495699296569682701374404132366180419921875	89.2380560133191949034880963154137134552001953125	6.14147059005849005330901491106487810611724853515625	69.266666285693503368747769854962825775146484375	0.0	2034.352405120919911496457643806934356689453125	7.7851083736	1	1	1	1
1261	S6	2020	2	22	13	69.0479844606021941899598459713160991668701171875	0.229964560753870006504229195343214087188243865966796875	68.948403855220107061541057191789150238037109375	7.988387187834700142730071092955768108367919921875	90.3635097068000021636180463247001171112060546875	5.391025637204830189830317976884543895721435546875	63.43333385884749731076226453296840190887451171875	0.0	1876.4083864788199207396246492862701416015625	6.7608416557	1	1	1	1
1262	S6	2020	2	22	14	87.6750305007104060450728866271674633026123046875	0.59663262082418999643351753547904081642627716064453125	87.3139082882679957720029051415622234344482421875	6.29372690876471008181169963791035115718841552734375	94.979251679919997286560828797519207000732421875	5.3091574933502698740994674153625965118408203125	95.51666748399520656676031649112701416015625	0.0	2656.00139293818983787787146866321563720703125	7.2952416316	1	1	1	1
1263	S6	2020	2	22	15	215.766121560876996454680920578539371490478515625	134.727978129574012200464494526386260986328125	168.167370882900996775788371451199054718017578125	7.6255682490088698699537417269311845302581787109375	82.634091030467601513009867630898952484130859375	5.52897727354006018885002049501053988933563232421875	312.28333401183198247963446192443370819091796875	0.0	8256.651572386419502436183393001556396484375	19.321416688	1	1	1	1
1264	S6	2020	2	22	16	103.714977417407993698361678980290889739990234375	49.69035427796870152405972476117312908172607421875	90.5447964207777005185562302358448505401611328125	8.29844229689268075844665872864425182342529296875	73.36697846409680323631619103252887725830078125	5.4302180719524102414652588777244091033935546875	101.60000061150600458859116770327091217041015625	0.0	2710.84524935576018833671696484088897705078125	9.3567666662	1	1	1	1
1265	S6	2020	2	22	17	30.523818622543000600444429437629878520965576171875	0.43656568865930400757946472367621026933193206787109375	30.71336643141199829187826253473758697509765625	4.13888890507779994010206792154349386692047119140625	93.2676740110459974175682873465120792388916015625	4.84400000865641988667675832402892410755157470703125	29.233333311276400223732707672752439975738525390625	0.0	784.0926708886389633335056714713573455810546875	2.3284416643	1	1	1	1
1266	S6	2020	2	22	18	8.0671531599272707779846314224414527416229248046875	0.313400558237009019268981546701979823410511016845703125	8.2944032935976199638616890297271311283111572265625	5.717610044299430427372499252669513225555419921875	85.4025155793195978048970573581755161285400390625	5.84339622656503987485621109954081475734710693359375	3.316666692262499882559723118902184069156646728515625	0.0	98.548339951472797793030622415244579315185546875	0.3227333326	1	1	1	0
1267	S6	2020	2	22	19	0	0	0	0	0	0	0	0.0	0	0.0	1	1	1	0
1268	S6	2020	2	22	20	0	0	0	0	0	0	0	0.0	0	0.0	1	1	1	0
1269	S6	2020	2	22	21	0	0	0	0	0	0	0	0.0	0	0.0	1	1	1	0
1270	S6	2020	2	22	22	0	0	0	0	0	0	0	0.0	0	0.0	1	1	1	0
1271	S6	2020	2	22	23	0	0	0	0	0	0	0	0.0	0	0.0	1	1	1	0
1272	S6	2020	2	22	24	0	0	0	0	0	0	0	0.0	0	0.0	1	1	1	0
1273	S6	2020	2	23	1	0	0	0	0	0	0	0	0.0	0	0.0	1	1	1	0
1274	S6	2020	2	23	2	0	0	0	0	0	0	0	0.0	0	0.0	1	1	1	0
1275	S6	2020	2	23	3	0	0	0	0	0	0	0	0.0	0	0.0	1	1	1	0
1276	S6	2020	2	23	4	0	0	0	0	0	0	0	0.0	0	0.0	1	1	1	0
1277	S6	2020	2	23	5	0	0	0	0	0	0	0	0.0	0	0.0	1	1	1	0
1278	S6	2020	2	23	6	0	0	0	0	0	0	0	0.0	0	0.0	1	1	1	0
1279	S6	2020	2	23	7	0	0	0	0	0	0	0	0.0	0	0.0	1	1	1	0
1280	S6	2020	2	23	8	14.42804513675410049700076342560350894927978515625	0.199659168211424986605351250545936636626720428466796875	14.6460097464119005650218241498805582523345947265625	5.41756105422973011087606209912337362766265869140625	75.099024740079499906642013229429721832275390625	4.5795122193127095755471600568853318691253662109375	8.7000000329377602525937618338502943515777587890625	0.0	260.6817571213470046131988056004047393798828125	-0.045158334	1	1	1	1
1281	S6	2020	2	23	9	63.6814183129203996713840751908719539642333984375	12.1965171345820007076099500409327447414398193359375	61.57131962246359790924543631263077259063720703125	5.69999997615814013585122665972448885440826416015625	74.3000006357827942338190041482448577880859375	4.128055554297230145266439649276435375213623046875	73.283333641787294254754669964313507080078125	0.0	1894.704266885910101336776278913021087646484375	6.3259249926	1	1	1	1
1282	S6	2020	2	23	10	109.5593839221530032546070287935435771942138671875	5.1398626637127602378996016341261565685272216796875	108.29645313686700092148385010659694671630859375	6.0983332395553500049345529987476766109466552734375	73.633332570393804417108185589313507080078125	4.44833333061801017294101256993599236011505126953125	114.05000040928399585027364082634449005126953125	0.0	3136.41905188559985617757774889469146728515625	12.105583366	1	1	1	1
1283	S6	2020	2	23	11	146.809095721774014009497477672994136810302734375	2.748289310352669989612195422523654997348785400390625	145.74743682013598800040199421346187591552734375	6.358333452542620278791218879632651805877685546875	75.215000152587805359871708787977695465087890625	3.956111118031869988698190354625694453716278076171875	149.866667886573992518606246449053287506103515625	0.0	4221.7798839012803000514395534992218017578125	15.758416629	1	1	1	1
1284	S6	2020	2	23	12	202.9854550679519888944923877716064453125	9.0336188719090397825084437499754130840301513671875	198.77971038818299120976007543504238128662109375	6.77999993165334036149261009995825588703155517578125	77.099999745686801588817615993320941925048828125	3.583333328697409836394172089057974517345428466796875	213.61666657030599481004173867404460906982421875	0.0	5963.23661009470015414990484714508056640625	22.873333263	1	1	1	1
1285	S6	2020	2	23	13	105.9737427605519997086958028376102447509765625	0.277117773062653005577971043749130330979824066162109375	105.87749359342700472552678547799587249755859375	7.04166661898295043187090413994155824184417724609375	74.6266663869221957838817615993320941925048828125	3.667500002847770002034621938946656882762908935546875	97.6666669671732989854717743583023548126220703125	0.0	2895.20989010731000234954990446567535400390625	10.89782505	1	1	1	1
1286	S6	2020	2	23	14	77.9359265671294991761897108517587184906005859375	0.2189535087253260126072262892193975858390331268310546875	77.852254737802098816246143542230129241943359375	6.324489797864639939461994799785315990447998046875	78.7061221064353020437920349650084972381591796875	3.43367346553575014667103459942154586315155029296875	64.316666685044793894121539779007434844970703125	0.0	1971.947993338100104665500111877918243408203125	6.1856916457	1	1	1	1
1287	S6	2020	2	23	15	52.06683205474499942511101835407316684722900390625	0.1644415108808469916379380038051749579608440399169921875	52.05176914821969802460444043390452861785888671875	5.35426137528636036932994102244265377521514892578125	84.883806445381793537308112718164920806884765625	3.691761372102929872340837391675449907779693603515625	46.15000033130240097989371861331164836883544921875	0.0	1422.30108454822993735433556139469146728515625	4.1760333379	1	1	1	1
1288	S6	2020	2	23	16	52.0656523489736997589716338552534580230712890625	0.2722379237905629967286813553073443472385406494140625	52.15112144309829744770468096248805522918701171875	4.81141147670803004388062618090771138668060302734375	89.206005611935097476816736161708831787109375	2.393093086130260171984218686702661216259002685546875	44.516667025163798143694293685257434844970703125	0.0	1310.518934546649916228489018976688385009765625	4.1233166789	1	1	1	1
1289	S6	2020	2	23	17	28.397473185490298419608734548091888427734375	0.200595423119523996735580340100568719208240509033203125	28.506249650930701733386740670539438724517822265625	3.965064119834159850341848141397349536418914794921875	91.1679495053412978222695528529584407806396484375	1.8195512789564201039382851377013139426708221435546875	24.98333373417450076203749631531536579132080078125	0.0	729.3039080376430547403288073837757110595703125	1.4381916645	1	1	1	1
1290	S6	2020	2	23	18	8.0976656484603797281351944548077881336212158203125	0.21162064172327499367298742072307504713535308837890625	8.2733368396759008334129248396493494510650634765625	4.38000003814696992066046732361428439617156982421875	91.1019984436035059616187936626374721527099609375	2.296999996304510016642552727716974914073944091796875	2.08333337989945999169094648095779120922088623046875	0.0	66.506459777398703181461314670741558074951171875	-0.834583335	1	1	1	1
1291	S6	2020	2	23	19	0	0	0	0	0	0	0	0.0	0	0.0	1	1	1	0
1292	S6	2020	2	23	20	0	0	0	0	0	0	0	0.0	0	0.0	1	1	1	0
1293	S6	2020	2	23	21	0	0	0	0	0	0	0	0.0	0	0.0	1	1	1	0
1294	S6	2020	2	23	22	0	0	0	0	0	0	0	0.0	0	0.0	1	1	1	0
1295	S6	2020	2	23	23	0	0	0	0	0	0	0	0.0	0	0.0	1	1	1	0
1296	S6	2020	2	23	24	0	0	0	0	0	0	0	0.0	0	0.0	1	1	1	0
1297	S6	2020	2	24	1	0	0	0	0	0	0	0	0.0	0	0.0	1	1	1	0
1298	S6	2020	2	24	2	0	0	0	0	0	0	0	0.0	0	0.0	1	1	1	0
1299	S6	2020	2	24	3	0	0	0	0	0	0	0	0.0	0	0.0	1	1	1	0
1300	S6	2020	2	24	4	0	0	0	0	0	0	0	0.0	0	0.0	1	1	1	0
1301	S6	2020	2	24	5	0	0	0	0	0	0	0	0.0	0	0.0	1	1	1	0
1302	S6	2020	2	24	6	0	0	0	0	0	0	0	0.0	0	0.0	1	1	1	0
1303	S6	2020	2	24	7	0	0	0	0	0	0	0	0.0	0	0.0	1	1	1	0
1304	S6	2020	2	24	8	35.73701417757109766171197406947612762451171875	112.4429058235620004779775626957416534423828125	28.065726686560498848166389507241547107696533203125	4.43217389479926993089975439943373203277587890625	79.5347828740658968627030844800174236297607421875	2.5634782625281200552080917987041175365447998046875	28.53333350891870168197783641517162322998046875	0.0	634.0597023256119655343354679644107818603515625	1.0451333237	1	1	1	0
1305	S6	2020	2	24	9	109.77809273401800282954354770481586456298828125	179.689159181381995722404099069535732269287109375	80.965245490603905409443541429936885833740234375	5.11944445239172996053866881993599236011505126953125	77.4261112636989992097369395196437835693359375	2.604166666997799861604789839475415647029876708984375	170.166667302449013732257299125194549560546875	0.0	3243.63371978202985701500438153743743896484375	8.5628499826	1	1	1	1
1306	S6	2020	2	24	10	185.043379084268991618955624289810657501220703125	136.08250825670000949685345403850078582763671875	147.067628118725991726023494265973567962646484375	5.8744444343778798867106161196716129779815673828125	74.950000127156499729608185589313507080078125	2.6522222252355600602413687738589942455291748046875	262.8166658182930177645175717771053314208984375	0.0	6332.3021342356996683520264923572540283203125	15.30424997	1	1	1	1
1307	S6	2020	2	24	11	243.82113087971998766079195775091648101806640625	87.8617909726169017403663019649684429168701171875	211.348965496487011250792420469224452972412109375	6.26444442802004974879537257947959005832672119140625	75.245555241902593479608185589313507080078125	2.425833334690989939730343394330702722072601318359375	308.08333307504602771587087772786617279052734375	0.0	8180.2850147088201993028633296489715576171875	23.181999954	1	1	1	1
1308	S6	2020	2	24	12	238.825562710231992014087154529988765716552734375	31.89975093338220091254697763361036777496337890625	224.614051734076014099628082476556301116943359375	6.25277779102324959836778361932374536991119384765625	74.860555691189205163027509115636348724365234375	2.496666660739310206196250874199904501438140869140625	266.40000094970099553393083624541759490966796875	0.0	7399.517782529190299101173877716064453125	25.053666576	1	1	1	1
1309	S6	2020	2	24	13	174.922410753038008124349289573729038238525390625	3.4491396033101597851100450498051941394805908203125	173.208612823485992748828721232712268829345703125	6.22666664918263013106525249895639717578887939453125	72.5283333248562058770403382368385791778564453125	2.0947222260965201456883733044378459453582763671875	169.066666066647002253375831060111522674560546875	0.0	4942.3027863105098731466569006443023681640625	19.06791664	1	1	1	1
1310	S6	2020	2	24	14	144.100266774494997434885590337216854095458984375	0.779550075282652965569241132470779120922088623046875	143.827891286213997545928577892482280731201171875	6.132222159703569985822468879632651805877685546875	74.2488888210720006100018508732318878173828125	2.005555549926219871537114158854819834232330322265625	137.466668585935991586666204966604709625244140625	0.0	3799.91485526164979091845452785491943359375	15.520833341	1	1	1	1
1311	S6	2020	2	24	15	106.890093771615994455714826472103595733642578125	0.52653741646144103238924571996903978288173675537109375	106.7805716832470039889813051559031009674072265625	5.812777810626560182072353200055658817291259765625	77.540000067816805540132918395102024078369140625	1.740277776618790017693072513793595135211944580078125	96.8166677281262053611499140970408916473388671875	0.0	2904.7037402788801045971922576427459716796875	10.311591681	1	1	1	1
1312	S6	2020	2	24	16	43.41077797147959671519856783561408519744873046875	0.1971516168779789968112936549005098640918731689453125	43.5766253895229027648383635096251964569091796875	5.7105555693308502895888523198664188385009765625	76.7250000423855027520403382368385791778564453125	1.2438888875146700829787960174144245684146881103515625	37.933333218097601502449833787977695465087890625	0.0	1168.709673980870093146222643554210662841796875	2.2623666648	1	1	1	1
1313	S6	2020	2	24	17	18.37277282608879858116779359988868236541748046875	0.158039165101944989455517998067080043256282806396484375	18.5623330884508987992376205511391162872314453125	5.293888860278659791447353200055658817291259765625	77.2422216627332005600692355073988437652587890625	1.1144444457358699818172453888109885156154632568359375	14.899999927729300708278969977982342243194580078125	0.0	477.2017068540050104274996556341648101806640625	-1.173533334	1	1	1	1
1314	S6	2020	2	24	18	5.8374202314731196139518942800350487232208251953125	0.13642980807782201235767161051626317203044891357421875	5.98468654767601027089085619081743061542510986328125	5.02920351197233994611224261461757123470306396484375	80.2132745253301067123175016604363918304443359375	1.174336284926499995862059222417883574962615966796875	1.000000024214390048626910356688313186168670654296875	0.0	40.50349855485060146520481794141232967376708984375	-2.462833333	1	1	1	1
1315	S6	2020	2	24	19	0	0	0	0	0	0	0	0.0	0	0.0	1	1	1	0
1316	S6	2020	2	24	20	0	0	0	0	0	0	0	0.0	0	0.0	1	1	1	0
1317	S6	2020	2	24	21	0	0	0	0	0	0	0	0.0	0	0.0	1	1	1	0
1318	S6	2020	2	24	22	0	0	0	0	0	0	0	0.0	0	0.0	1	1	1	0
1319	S6	2020	2	24	23	0	0	0	0	0	0	0	0.0	0	0.0	1	1	1	0
1320	S6	2020	2	24	24	0	0	0	0	0	0	0	0.0	0	0.0	1	1	1	0
1321	S6	2020	2	25	1	0	0	0	0	0	0	0	0.0	0	0.0	1	1	1	0
1322	S6	2020	2	25	2	0	0	0	0	0	0	0	0.0	0	0.0	1	1	1	0
1323	S6	2020	2	25	3	0	0	0	0	0	0	0	0.0	0	0.0	1	1	1	0
1324	S6	2020	2	25	4	0	0	0	0	0	0	0	0.0	0	0.0	1	1	1	0
1325	S6	2020	2	25	5	0	0	0	0	0	0	0	0.0	0	0.0	1	1	1	0
1326	S6	2020	2	25	6	0	0	0	0	0	0	0	0.0	0	0.0	1	1	1	0
1327	S6	2020	2	25	7	0	0	0	0	0	0	0	0.0	0	0.0	1	1	1	0
1328	S6	2020	2	25	8	13.6470278873745005654427586705423891544342041015625	3.51344904187411000151541884406469762325286865234375	13.433266016805500697728348313830792903900146484375	5.15335970339566973308365049888379871845245361328125	84.661264743729503834401839412748813629150390625	3.571541490762129900105037449975498020648956298828125	10.53333334469540005784438108094036579132080078125	0.0	275.14405719314999032576452009379863739013671875	-0.197474998	1	1	1	1
1329	S6	2020	2	25	9	60.71257243156429694863618351519107818603515625	10.554732953053299837620215839706361293792724609375	58.724696869320297309968736954033374786376953125	5.50444444550408018557163813966326415538787841796875	81.362221908569296147106797434389591217041015625	3.564722225235560149059210743871517479419708251953125	68.0333334331709949083233368583023548126220703125	0.0	1751.271599655349973545526154339313507080078125	5.5588083586	1	1	1	1
1330	S6	2020	2	25	10	112.704780022970993513808934949338436126708984375	34.45491052561710176860287901945412158966064453125	102.2364143563909948397849802859127521514892578125	5.81316534678141039194088079966604709625244140625	78.7904762460403986779056140221655368804931640625	3.89495797184001002477771180565468966960906982421875	160.733332981665995475850650109350681304931640625	0.0	4111.5400900443300997721962630748748779296875	10.258808339	1	1	1	1
1331	S6	2020	2	25	11	163.978800527771994666181853972375392913818359375	40.49784489340739668250535032711923122406005859375	149.2608123217349884725990705192089080810546875	6.03948866643688031530246007605455815792083740234375	77.320396380113805889777722768485546112060546875	3.721082611640969872723871958442032337188720703125	176.850000520545989957099664025008678436279296875	0.0	4826.7052556077496774378232657909393310546875	16.935925062	1	1	1	1
1332	S6	2020	2	25	12	185.1472072013619936114992015063762664794921875	6.83852936049625004244489900884218513965606689453125	181.891105138954998210465419106185436248779296875	6.62464981987362033777344549889676272869110107421875	73.1218490814294028723452356643974781036376953125	4.3731092402414102338070733821950852870941162109375	208.449999491373006321737193502485752105712890625	0.0	5808.617682258280183305032551288604736328125	18.826500026	1	1	1	1
1333	S6	2020	2	25	13	288.863284685457983869127929210662841796875	101.14987004265600489816279150545597076416015625	243.553734807242989290898549370467662811279296875	7.36111106928329039789105081581510603427886962890625	70.2804095619602975375528330914676189422607421875	5.11988303466149030640508499345742166042327880859375	362.86666666467999675660394132137298583984375	0.0	9634.507115681959476205520331859588623046875	27.034583457	1	1	1	1
1334	S6	2020	2	25	14	162.496052027899992253878735937178134918212890625	28.959402461425998609456655685789883136749267578125	149.392664683612991893824073486030101776123046875	6.17826085390100043781558269984088838100433349609375	79.70483107267369859982863999903202056884765625	4.98550724522502974878079839982092380523681640625	200.416667448976994592158007435500621795654296875	0.0	5436.6551193098302974249236285686492919921875	14.464925065	1	1	1	1
1335	S6	2020	2	25	15	128.524709342507009068867773748934268951416015625	51.39708813331770187460278975777328014373779296875	108.6569478726849951044641784392297267913818359375	5.9411765117271198022308453801088035106658935546875	81.6411769792145065594013431109488010406494140625	5.82745099348179973475225779111497104167938232421875	131.683333404362002738707815296947956085205078125	0.0	3588.89814404149001347832381725311279296875	9.484225022	1	1	1	1
1336	S6	2020	2	25	16	70.7093373241039984122835448943078517913818359375	0.346659443031796021816859365571872331202030181884765625	70.3883942277638965379082947038114070892333984375	5.96208050427020008754652735660783946514129638671875	78.611744797469697232372709549963474273681640625	7.09932885874037022944094132981263101100921630859375	61.83333294466120122478969278745353221893310546875	0.0	1803.121891369419927286799065768718719482421875	6.4731583347	1	1	1	1
1337	S6	2020	2	25	17	34.04371458128949967658627429045736789703369140625	0.319957823135908980827224468157510273158550262451171875	33.753978062545598959331982769072055816650390625	5.81398179393408032211709723924286663532257080078125	76.3534953572467003368728910572826862335205078125	6.89969604283480020257002252037636935710906982421875	28.700000187381998983937592129223048686981201171875	0.0	814.228881460923958002240397036075592041015625	2.5796583481	1	1	1	1
1338	S6	2020	2	25	18	3.4422815728904598842063933261670172214508056640625	0.1357821492671690000175743762156344018876552581787109375	3.056718005049490205493611938436515629291534423828125	5.6338581926240696162722088047303259372711181640625	74.4857137006028011683156364597380161285400390625	6.50944880613190957063807218219153583049774169921875	0.46666668883214501573064580952632240951061248779296875	0.0	30.286746627340601634159611421637237071990966796875	-1.180208335	1	1	1	1
1339	S6	2020	2	25	19	0	0	0	0	0	0	0	0.0	0	0.0	1	1	1	0
1340	S6	2020	2	25	20	0	0	0	0	0	0	0	0.0	0	0.0	1	1	1	0
1341	S6	2020	2	25	21	0	0	0	0	0	0	0	0.0	0	0.0	1	1	1	0
1342	S6	2020	2	25	22	0	0	0	0	0	0	0	0.0	0	0.0	1	1	1	0
1343	S6	2020	2	25	23	0	0	0	0	0	0	0	0.0	0	0.0	1	1	1	0
1344	S6	2020	2	25	24	0	0	0	0	0	0	0	0.0	0	0.0	1	1	1	0
1345	S6	2020	2	26	1	0	0	0	0	0	0	0	0.0	0	0.0	1	1	1	0
1346	S6	2020	2	26	2	0	0	0	0	0	0	0	0.0	0	0.0	1	1	1	0
1347	S6	2020	2	26	3	0	0	0	0	0	0	0	0.0	0	0.0	1	1	1	0
1348	S6	2020	2	26	4	0	0	0	0	0	0	0	0.0	0	0.0	1	1	1	0
1349	S6	2020	2	26	5	0	0	0	0	0	0	0	0.0	0	0.0	1	1	1	0
1350	S6	2020	2	26	6	0	0	0	0	0	0	0	0.0	0	0.0	1	1	1	0
1351	S6	2020	2	26	7	0	0	0	0	0	0	0	0.0	0	0.0	1	1	1	0
1352	S6	2020	2	26	8	10.126011916060900119873622315935790538787841796875	0.174511182730071989777087537731858901679515838623046875	10.1332245317857001509764813818037509918212890625	2.026119366510589880903125958866439759731292724609375	93.387313899709198494747397489845752716064453125	1.0817164153750200572545736577012576162815093994140625	7.8333335948021396433205154608003795146942138671875	0.0	209.99131210458699570153839886188507080078125	-0.301958336	1	1	1	1
1353	S6	2020	2	26	9	33.85311781565339828148353262804448604583740234375	0.328004361337257022146474128021509386599063873291015625	33.8599842389424026123379007913172245025634765625	2.06555555131699986048943173955194652080535888671875	91.0633338080511975931585766375064849853515625	0.725555558005968048718159479903988540172576904296875	35.0499998933324974359493353404104709625244140625	0.0	975.5719841768319611219340004026889801025390625	2.2677499956	1	1	1	1
1354	S6	2020	2	26	10	83.304400104946495275726192630827426910400390625	0.3614809849609930125780010712333023548126220703125	83.4489113913642057696051779203116893768310546875	2.573333313730020055487557328888215124607086181640625	87.6444446563720021003973670303821563720703125	1.1327777791354300962467505087261088192462921142578125	82.1500002096097006187847000546753406524658203125	0.0	2310.37809501090987396310083568096160888671875	8.3469833533	1	1	1	1
1355	S6	2020	2	26	11	136.858003637525001749963848851621150970458984375	0.4687414648218279911162653661449439823627471923828125	136.791514756943996644622529856860637664794921875	2.833333365122470137720256389002315700054168701171875	85.2438889397514998336191638372838497161865234375	2.3374999956952198232329465099610388278961181640625	133.416667828957002939205267466604709625244140625	0.0	3839.40745641786998021416366100311279296875	14.017925036	1	1	1	1
1356	S6	2020	2	26	12	173.559437772962013468713848851621150970458984375	0.665814848740895026679709189920686185359954833984375	173.2877615822679899793001823127269744873046875	2.7711111095216498512172620394267141819000244140625	84.214999855889203672631992958486080169677734375	1.8399999992714899388346339037525467574596405029296875	183.683334166804996812061290256679058074951171875	0.0	5182.02769557634019292891025543212890625	18.608416708	1	1	1	1
1357	S6	2020	2	26	13	304.85762758033200725549249909818172454833984375	106.905181655353999303770251572132110595703125	256.51583948800697498882072977721691131591796875	3.514825588741960160632515908218920230865478515625	79.036046538242004544372321106493473052978515625	1.7296511671224299444560301708406768739223480224609375	330.78333251178202090159174986183643341064453125	0.0	9116.254851222029174095951020717620849609375	28.216749978	1	1	1	1
1358	S6	2020	2	26	14	136.7856368381000038425554521381855010986328125	0.83896160150636800434398310244432650506496429443359375	136.317941458444011004758067429065704345703125	3.326462390363050136699030190357007086277008056640625	74.6011142571323944139294326305389404296875	1.9075208850059599541282295831479132175445556640625	126.116666942834996234523714520037174224853515625	0.0	3641.89255038896999394637532532215118408203125	14.138916651	1	1	1	1
1359	S6	2020	2	26	15	104.2860658433699967417851439677178859710693359375	0.320758095739356985376389275188557803630828857421875	104.2704918755420067100203596055507659912109375	3.179444434907699790215929169789887964725494384765625	72.8699993981255005337516195140779018402099609375	2.016111109322970218471482439781539142131805419921875	96.1833336700995999990482232533395290374755859375	0.0	2754.5301829775098667596466839313507080078125	10.266358332	1	1	1	1
1360	S6	2020	2	26	16	62.71905430783039747666407492943108081817626953125	0.205785845562172997613714642284321598708629608154296875	62.743036398726900415567797608673572540283203125	2.808426992946789990668321479461155831813812255859375	72.9780897504827947841476998291909694671630859375	2.153932579112849854396927185007371008396148681640625	56.45000071575230293774438905529677867889404296875	0.0	1648.629683256139969671494327485561370849609375	6.0632166902	1	1	1	1
1361	S6	2020	2	26	17	19.38076299561389959080770495347678661346435546875	0.1603285524269769946048569408958428539335727691650390625	19.402944389979001726942442473955452442169189453125	2.43555554946262997617623113910667598247528076171875	73.4599997202554959585540927946567535400390625	2.027499997450239899166035684174858033657073974609375	15.6999998725950007383289630524814128875732421875	0.0	475.74442842354397953386069275438785552978515625	0.4481666606	1	1	1	1
1362	S6	2020	2	26	18	4.67583027026922959379362509935162961483001708984375	0.1689985787560190078071542529869475401937961578369140625	4.746131175257300327530174399726092815399169921875	2.49261085153213013398953989963047206401824951171875	74.1576355431466964773790095932781696319580078125	1.7891625547643899007965728742419742047786712646484375	1.766666713713969993904129296424798667430877685546875	0.0	57.6956569527585969581195968203246593475341796875	-1.207316665	1	1	1	1
1363	S6	2020	2	26	19	0	0	0	0	0	0	0	0.0	0	0.0	1	1	1	0
1364	S6	2020	2	26	20	0	0	0	0	0	0	0	0.0	0	0.0	1	1	1	0
1365	S6	2020	2	26	21	0	0	0	0	0	0	0	0.0	0	0.0	1	1	1	0
1366	S6	2020	2	26	22	0	0	0	0	0	0	0	0.0	0	0.0	1	1	1	0
1367	S6	2020	2	26	23	0	0	0	0	0	0	0	0.0	0	0.0	1	1	1	0
1368	S6	2020	2	26	24	0	0	0	0	0	0	0	0.0	0	0.0	1	1	1	0
1369	S6	2020	2	27	1	0	0	0	0	0	0	0	0.0	0	0.0	1	1	1	0
1370	S6	2020	2	27	2	0	0	0	0	0	0	0	0.0	0	0.0	1	1	1	0
1371	S6	2020	2	27	3	0	0	0	0	0	0	0	0.0	0	0.0	1	1	1	0
1372	S6	2020	2	27	4	0	0	0	0	0	0	0	0.0	0	0.0	1	1	1	0
1373	S6	2020	2	27	5	0	0	0	0	0	0	0	0.0	0	0.0	1	1	1	0
1374	S6	2020	2	27	6	0	0	0	0	0	0	0	0.0	0	0.0	1	1	1	0
1375	S6	2020	2	27	7	0	0	0	0	0	0	0	0.0	0	0.0	1	1	1	0
1376	S6	2020	2	27	8	36.75696345127609987457617535255849361419677734375	246.043406215619000931837945245206356048583984375	17.31215327273130100138587295077741146087646484375	-0.16666667158031100992587880682549439370632171630859375	84.255555375075203983215033076703548431396484375	0.71971326510966004974534371285699307918548583984375	33.6666666941406020896465633995831012725830078125	0.0	637.0221297179019757095375098288059234619140625	-0.479441669	1	1	1	0
1377	S6	2020	2	27	9	143.579038174946987282964983023703098297119140625	498.92976963188897343570715747773647308349609375	58.73484889666229946669773198664188385009765625	1.6899999903308000614998718447168357670307159423828125	76.7844442579480954691462102346122264862060546875	0.81277778074145301534514373997808434069156646728515625	256.18333543340298774637631140649318695068359375	0.0	3884.09437264004009193740785121917724609375	7.2325749874	1	1	1	1
1378	S6	2020	2	27	10	142.48044844733300351435900665819644927978515625	9.624437888421940812122556963004171848297119140625	139.32381685044998675948590971529483795166015625	2.24444443583487984739122111932374536991119384765625	73.2111112382676054721741820685565471649169921875	0.8563888918194499932923235974158160388469696044921875	156.250000372529001424481975845992565155029296875	0.0	4234.0388298034604304120875895023345947265625	13.474749947	1	1	1	1
1379	S6	2020	2	27	11	168.943955781723985865028225816786289215087890625	1.1692909405463201011343699065037071704864501953125	168.064380857678997926996089518070220947265625	2.943333330419319882054196568788029253482818603515625	66.65111115773510164217441342771053314208984375	1.2219444412324100834865703291143290698528289794921875	170.26666700839899704078561626374721527099609375	0.0	4742.5825138886602871934883296489715576171875	16.557500021	1	1	1	1
1380	S6	2020	2	27	12	171.03581992255300292526953853666782379150390625	0.5705521382391449680682171674561686813831329345703125	170.695325130886004671992850489914417266845703125	3.487777793407440096729033029987476766109466552734375	66.024999915228903546449146233499050140380859375	0.97833333330021898799344626240781508386135101318359375	169.266667217015992719097994267940521240234375	0.0	4789.6247446536899587954394519329071044921875	16.070333322	1	1	1	1
1381	S6	2020	2	27	13	200.954370371500004921472282148897647857666015625	1.3629705280893300578526350363972596824169158935546875	200.0033496856680130804306827485561370849609375	4.094444466961750350719739799387753009796142578125	70.5777781168618929541480611078441143035888671875	1.57416666597127008486722843372263014316558837890625	199.74999949336000781840994022786617279052734375	0.0	5629.0272613366496443632058799266815185546875	19.8991666	1	1	1	1
1382	S6	2020	2	27	14	160.51262926922100859883357770740985870361328125	6.12091620515136991542703981394879519939422607421875	157.42789542342001141150831244885921478271484375	4.16312841596549976230789980036206543445587158203125	73.1027933046137974315570318140089511871337890625	1.516480448692199889393350531463511288166046142578125	170.000000298022001743447617627680301666259765625	0.0	4744.1061953703601830056868493556976318359375	13.444583368	1	1	1	1
1383	S6	2020	2	27	15	78.128441963195797370644868351519107818603515625	0.407556507095383990790793404812575317919254302978515625	77.7335977300007954227112350054085254669189453125	4.29233334382375009141696864389814436435699462890625	75.0863332366943012630144949071109294891357421875	1.1216666682561200474310680874623358249664306640625	71.1499998345972954894023132510483264923095703125	0.0	2033.769440899289975277497433125972747802734375	4.6302583473	1	1	1	1
1384	S6	2020	2	27	16	119.783851007018000700554694049060344696044921875	1.5449200506456899351093170480453409254550933837890625	119.688174058290996981668286025524139404296875	3.698653179387049849680124680162407457828521728515625	85.2131313234065004280637367628514766693115234375	1.0060606076059099844854927141568623483180999755859375	145.11666620771001134926336817443370819091796875	0.0	4235.55716574190955725498497486114501953125	14.059833301	1	1	1	1
1385	S6	2020	2	27	17	69.0128795891477011537062935531139373779296875	1.34543047486041000837531100842170417308807373046875	69.4049139190137935884195030666887760162353515625	3.739766093025429949392446360434405505657196044921875	83.296491410997106186187011189758777618408203125	0.63040935967052103006125207684817723929882049560546875	66.183333719770104153212741948664188385009765625	0.0	1898.781706144410009073908440768718719482421875	5.8877333178	1	1	1	1
1386	S6	2020	2	27	18	21.82278619108900130640904535539448261260986328125	40.0017377512593981236932449974119663238525390625	18.1938527775349001558424788527190685272216796875	3.24689267045360008268062301794998347759246826171875	87.3429380082813935359808965586125850677490234375	0.98926553685786300373905532978824339807033538818359375	16.25000010632589919623569585382938385009765625	0.0	315.29566468670901713267085142433643341064453125	-1.524600002	1	1	1	0
1387	S6	2020	2	27	19	0	0	0	0	0	0	0	0.0	0	0.0	1	1	1	0
1388	S6	2020	2	27	20	0	0	0	0	0	0	0	0.0	0	0.0	1	1	1	0
1389	S6	2020	2	27	21	0	0	0	0	0	0	0	0.0	0	0.0	1	1	1	0
1390	S6	2020	2	27	22	0	0	0	0	0	0	0	0.0	0	0.0	1	1	1	0
1391	S6	2020	2	27	23	0	0	0	0	0	0	0.050000002374875000821230486280910554341971874237060546875	0.0	0	0.0	1	1	1	0
1392	S6	2020	2	27	24	0	0	0	0	0	0	0	0.0	0	0.0	1	1	1	0
1393	S6	2020	2	28	1	0	0	0	0	0	0	0	0.0	0	0.0	1	1	1	0
1394	S6	2020	2	28	2	0	0	0	0	0	0	0	0.0	0	0.0	1	1	1	0
1395	S6	2020	2	28	3	0	0	0	0	0	0	0	0.0	0	0.0	1	1	1	0
1396	S6	2020	2	28	4	0	0	0	0	0	0	0	0.0	0	0.0	1	1	1	0
1397	S6	2020	2	28	5	0	0	0	0	0	0	0	0.0	0	0.0	1	1	1	0
1398	S6	2020	2	28	6	0	0	0	0	0	0	0	0.0	0	0.0	1	1	1	0
1399	S6	2020	2	28	7	0	0	0	0	0	0	0	0.0	0	0.0	1	1	1	0
1400	S6	2020	2	28	8	15.6193045314153007296908981516025960445404052734375	0.9802152961795209673567796926363371312618255615234375	15.675474890867800326077485806308686733245849609375	2.9266666674613901477641775272786617279052734375	89.229000167846606927923858165740966796875	2.365333329637839820946965119219385087490081787109375	13.8833334727678003872597400913946330547332763671875	0.0	372.97534241030598423094488680362701416015625	0.1271750004	1	1	1	1
1401	S6	2020	2	28	9	28.876557299825801550241521908901631832122802734375	0.221561960617287001529263079646625556051731109619140625	29.000158943070299955024893279187381267547607421875	3.520000006755190202767380469595082104206085205078125	87.7452776590983063442763523198664188385009765625	2.969722218645939992853755029500462114810943603515625	28.083333342025600387614758801646530628204345703125	0.0	808.6479314913359530692105181515216827392578125	2.200441651	1	1	1	1
1402	S6	2020	2	28	10	104.2808946296350001148312003351747989654541015625	17.412198366605199595369413145817816257476806640625	98.65170271005200675062951631844043731689453125	3.942388057708739790285790149937383830547332763671875	86.71104478978389806798077188432216644287109375	3.487761196983389933024000129080377519130706787109375	113.5499988372120014901156537234783172607421875	0.0	3056.51543935138988672406412661075592041015625	9.7492333372	1	1	1	1
1403	S6	2020	2	28	11	129.288704996984989747943473048508167266845703125	7.94207245423807961515194620005786418914794921875	126.0342131962679985690556350164115428924560546875	4.696657389319369713120977394282817840576171875	82.9961002530493061613015015609562397003173828125	2.94011142302024008898797546862624585628509521484375	172.733333458503011570428498089313507080078125	0.0	4745.7749384144999567070044577121734619140625	13.99125001	1	1	1	1
1404	S6	2020	2	28	12	323.47137364254700742094428278505802154541015625	233.098274483176993499000673182308673858642578125	222.704962573473011389069142751395702362060546875	6.0772151841393000637481236481107771396636962890625	77.4699365881424029112167772836983203887939453125	3.622151900695839810140341796795837581157684326171875	480.483336249985995891620405018329620361328125	0.0	12237.034182747200247831642627716064453125	32.39299988	1	1	1	1
1405	S6	2020	2	28	13	239.344801245545994561325642280280590057373046875	90.9106990836158956881263293325901031494140625	198.230800371365006640189676545560359954833984375	6.30351904200667956246206813375465571880340576171875	73.35249277154019864610745571553707122802734375	3.443401760369800168604115242487750947475433349609375	307.1500005821390004712156951427459716796875	0.0	8319.898563623419249779544770717620849609375	23.01183331	1	1	1	1
1406	S6	2020	2	28	14	402.1056006769209716367186047136783599853515625	521.754160782287044639815576374530792236328125	183.71268937010199806536547839641571044921875	7.5503105850693597034251069999299943447113037109375	71.1503102083382970022285007871687412261962890625	3.290683224334479906048045450006611645221710205078125	663.36666668454699902213178575038909912109375	0.0	16629.9213488895984482951462268829345703125	38.374999881	1	1	1	1
1407	S6	2020	2	28	15	265.25048342218298103034612722694873809814453125	335.98519246212498501336085610091686248779296875	139.34210537077700564623228274285793304443359375	7.44063402527690964660678218933753669261932373046875	70.530259651821694433238008059561252593994140625	3.68386165690353006851864847703836858272552490234375	398.0333307137090059768524952232837677001953125	0.0	10523.89867603779930504970252513885498046875	23.470566686	1	1	1	1
1408	S6	2020	2	28	16	142.00033823648999486977118067443370819091796875	237.73690065610799138084985315799713134765625	89.812142994092795333926915191113948822021484375	6.51050724326699992161593399941921234130859375	74.332246559253604800687753595411777496337890625	2.729347820299250049203010348719544708728790283203125	187.7833329762009952901280485093593597412109375	0.0	5037.781111647689613164402544498443603515625	9.3181333434	1	1	1	1
1409	S6	2020	2	28	17	100.11290981112000508801429532468318939208984375	170.7285567292919949977658689022064208984375	72.9520937460046070555108599364757537841796875	6.693871880640219984570649103261530399322509765625	73.1888581809891007878832169808447360992431640625	2.26545960840075988329544998123310506343841552734375	141.7999997735020087930024601519107818603515625	0.0	3461.0429704189200492692179977893829345703125	7.9137500087	1	1	1	1
1410	S6	2020	2	28	18	21.126376684675800987633920158259570598602294921875	29.580747739193899548126864829100668430328369140625	18.637397641831199734951951541006565093994140625	6.0872340684241397212872470845468342304229736328125	74.8042554246618038860106025822460651397705078125	1.57180851032125001864869773271493613719940185546875	12.716666667256500744542790926061570644378662109375	0.0	333.00621878200399805791676044464111328125	-1.171250004	1	1	1	0
1411	S6	2020	2	28	19	0	0	0	0	0	0	0	0.0	0	0.0	1	1	1	0
1412	S6	2020	2	28	20	0	0	0	0	0	0	0	0.0	0	0.0	1	1	1	0
1413	S6	2020	2	28	21	0	0	0	0	0	0	0	0.0	0	0.0	1	1	1	0
1414	S6	2020	2	28	22	0	0	0	0	0	0	0	0.0	0	0.0	1	1	1	0
1415	S6	2020	2	28	23	0	0	0	0	0	0	0	0.0	0	0.0	1	1	1	0
1416	S6	2020	2	28	24	0	0	0	0	0	0	0	0.0	0	0.0	1	1	1	0
1417	S6	2020	3	1	1	0	0	0	0	0	0	0	0.0	0	0.0	1	1	1	0
1418	S6	2020	3	1	2	0	0	0	0	0	0	0	0.0	0	0.0	1	1	1	0
1419	S6	2020	3	1	3	0	0	0	0	0	0	0	0.0	0	0.0	1	1	1	0
1420	S6	2020	3	1	4	0	0	0	0	0	0	0	0.0	0	0.0	1	1	1	0
1421	S6	2020	3	1	5	0	0	0	0	0	0	0	0.0	0	0.0	1	1	1	0
1422	S6	2020	3	1	6	0	0	0	0	0	0	0	0.0	0	0.0	1	1	1	0
1423	S6	2020	3	1	7	0	0	0	0	0	0	0.0166666674582915987079534403392244712449610233306884765625	0.0	0	0.0	1	1	1	0
1424	S6	2020	3	1	8	6.53936464793797966876809368841350078582763671875	0.2766811728659199776103605472599156200885772705078125	6.572276993132209810255517368204891681671142578125	5.83079279195971000859799460158683359622955322265625	75.353658071378305294274468906223773956298828125	5.147865848570329916356058674864470958709716796875	5.76666673102106042136938413023017346858978271484375	0.0	159.228642991122995908881421200931072235107421875	-0.539708335	1	1	1	1
1425	S6	2020	3	1	9	39.5650691694683018795331008732318878173828125	0.2463145304264290069706788699477328918874263763427734375	39.61856220033430275861974223516881465911865234375	6.01555554734335995448191169998608529567718505859375	75.8569444868299029849367798306047916412353515625	5.46388889484935003082455295952968299388885498046875	39.666666897634598853983334265649318695068359375	0.0	1116.963574911150089974398724734783172607421875	3.2577249939	1	1	1	1
1426	S6	2020	3	1	10	65.1418553140428002734552137553691864013671875	0.2876328202171449799351421461324207484722137451171875	65.1030842463174934664493775926530361175537109375	6.44500005245208029691639239899814128875732421875	74.4130556318495024470394128002226352691650390625	5.70388888683584038830076679005287587642669677734375	61.26666665077200235600685118697583675384521484375	0.0	1751.854916413620003368123434484004974365234375	6.1351416647	1	1	1	1
1427	S6	2020	3	1	11	142.77820072174000642917235381901264190673828125	1.7862375360396101076077002289821393787860870361328125	141.863088523017012221316690556704998016357421875	6.70083334710862033034572959877550601959228515625	73.23888910081649328276398591697216033935546875	5.56722221705647957179508011904545128345489501953125	149.7166670858860015869140625	0.0	4192.795284589139555464498698711395263671875	15.204016687	1	1	1	1
1428	S6	2020	3	1	12	340.68623914459300294765853323042392730712890625	240.368202838831990675316774286329746246337890625	231.351364735029989105896675027906894683837890625	7.7398792566489600375234658713452517986297607421875	68.2960721157107997214552597142755985260009765625	6.14380664047517033310441547655500471591949462890625	491.100000093380003818310797214508056640625	0.0	12712.07363009449909441173076629638671875	34.30800012	1	1	1	1
1429	S6	2020	3	1	13	274.613916374916016138740815222263336181640625	116.7749120931370043763308785855770111083984375	219.743353511011008549758116714656352996826171875	7.70552321921946958838134378311224281787872314453125	68.4409884519354960730197490192949771881103515625	5.93139534149058977874346965108998119831085205078125	319.1666662693020271035493351519107818603515625	0.0	8561.60269180933028110302984714508056640625	26.969500089	1	1	1	1
1430	S6	2020	3	1	14	169.84711981218100618207245133817195892333984375	2.896153866554649791709152850671671330928802490234375	168.27053361217900828705751337110996246337890625	7.36183850014773977221693712635897099971771240234375	70.4732591421823002519886358641088008880615234375	5.72618383750277981647514025098644196987152099609375	164.91666783889098724102950654923915863037109375	0.0	4767.1319832404396947822533547878265380859375	18.062499952	1	1	1	1
1431	S6	2020	3	1	15	156.345799876311986054133740253746509552001953125	29.09806746943510091796269989572465419769287109375	144.816118017732009093379019759595394134521484375	7.46782335197134994331236157449893653392791748046875	70.7164041176202999849920161068439483642578125	5.48454258193728971804148386581800878047943115234375	155.216667366524006865802221000194549560546875	0.0	4397.37216482559961150400340557098388671875	14.956316727	1	1	1	1
1432	S6	2020	3	1	16	182.3530739512519858180894516408443450927734375	159.512921192396987635220284573733806610107421875	139.4099207830159912191447801887989044189453125	7.46703912825557036825330214924179017543792724609375	73.336592200082094450408476404845714569091796875	4.772905022738360258927059476263821125030517578125	252.150001128513991943691507913172245025634765625	0.0	6764.549471934629764291457831859588623046875	18.747250048	1	1	1	1
1433	S6	2020	3	1	17	98.5193960613674022397390217520296573638916015625	149.80122698669600822540814988315105438232421875	74.4688425276013958864496089518070220947265625	6.3194443901379901973314190399833023548126220703125	77.762222544352198383421637117862701416015625	4.33111110528310039313737433985807001590728759765625	135.86666764070599811020656488835811614990234375	0.0	3502.5659501552499932586215436458587646484375	7.681466642	1	1	1	1
1434	S6	2020	3	1	18	33.11287063732739710530950105749070644378662109375	53.75183565478069880327893770299851894378662109375	28.24337824992829837356111966073513031005859375	6.07343742996453972438075652462430298328399658203125	78.4945320188999033916843472979962825775146484375	4.07773436512797982089750803424976766109466552734375	28.86666672032620084564769058488309383392333984375	0.0	680.5392269995840024421340785920619964599609375	1.7585750011	1	1	1	0
1435	S6	2020	3	1	19	0	0	0	0	0	0	0	0.0	0	0.0	1	1	1	0
1436	S6	2020	3	1	20	0	0	0	0	0	0	0	0.0	0	0.0	1	1	1	0
1437	S6	2020	3	1	21	0	0	0	0	0	0	0	0.0	0	0.0	1	1	1	0
1438	S6	2020	3	1	22	0	0	0	0	0	0	0	0.0	0	0.0	1	1	1	0
1439	S6	2020	3	1	23	0	0	0	0	0	0	0	0.0	0	0.0	1	1	1	0
1440	S6	2020	3	1	24	0	0	0	0	0	0	0	0.0	0	0.0	1	1	1	0
1441	S6	2020	3	2	1	0	0	0	0	0	0	0	0.0	0	0.0	1	1	1	0
1442	S6	2020	3	2	2	0	0	0	0	0	0	0	0.0	0	0.0	1	1	1	0
1443	S6	2020	3	2	3	0	0	0	0	0	0	0	0.0	0	0.0	1	1	1	0
1444	S6	2020	3	2	4	0	0	0	0	0	0	0	0.0	0	0.0	1	1	1	0
1445	S6	2020	3	2	5	0	0	0	0	0	0	0	0.0	0	0.0	1	1	1	0
1446	S6	2020	3	2	6	0	0	0	0	0	0	0	0.0	0	0.0	1	1	1	0
1447	S6	2020	3	2	7	0	0	0	0	0	0	0.050000002374875000821230486280910554341971874237060546875	0.0	0	0.0	1	1	1	0
1448	S6	2020	3	2	8	12.5122253690245006652048687101341784000396728515625	0.1824462497110899972252440193187794648110866546630859375	12.6553687897658999617078734445385634899139404296875	4.07130171561381981604199609137140214443206787109375	86.9606504045294030902368831448256969451904296875	1.2988165675183001024350915031391195952892303466796875	11.816666758386499935795654891990125179290771484375	0.0	327.35052642723002236380125395953655242919921875	-0.857491667	1	1	1	1
1449	S6	2020	3	2	9	68.8193552388084981430438347160816192626953125	6.2315888943357595763927747611887753009796142578125	67.41890266736339754061191342771053314208984375	4.52166666984557963360202847979962825775146484375	87.184999465942297547371708787977695465087890625	1.42722222250367991591701866127550601959228515625	77.850000125666298345095128752291202545166015625	0.0	2095.04693994918989119469188153743743896484375	5.7733749896	1	1	1	1
1450	S6	2020	3	2	10	123.54077712164900049174320884048938751220703125	45.40386798017549807582327048294246196746826171875	109.37634891933799963226192630827426910400390625	5.22499999205270970747960745939053595066070556640625	83.0833337148030039998047868721187114715576171875	1.6363888867199400944940634872182272374629974365234375	150.0000003725280066646519117057323455810546875	0.0	3920.26798327763981433236040174961090087890625	9.7887083292	1	1	1	1
1451	S6	2020	3	2	11	211.30339734819199293269775807857513427734375	159.746469542715004763522301800549030303955078125	143.712308226690993251395411789417266845703125	5.8316666762034099491529559600166976451873779296875	80.5983329772949019798033987171947956085205078125	1.4061111098362299998143498669378459453582763671875	316.41666616002697764997719787061214447021484375	0.0	8137.056867281609811470843851566314697265625	17.211916685	1	1	1	1
1452	S6	2020	3	2	12	367.477730459859003531164489686489105224609375	461.93142465115897721261717379093170166015625	155.820089431035995630736579187214374542236328125	7.54257703562076020631366191082634031772613525390625	74.2941176043170941056814626790583133697509765625	1.4394957941620198926813145590131171047687530517578125	598.4333321452139671237091533839702606201171875	0.0	15074.639290571200035628862679004669189453125	28.996583311	1	1	1	1
1453	S6	2020	3	2	13	465.57670464676397159564658068120479583740234375	793.3825538720969916539615951478481292724609375	96.046806528327095975328120402991771697998046875	9.040449431772980659616223420016467571258544921875	67.0393258855583979993753018788993358612060546875	1.79943819611929001212047296576201915740966796875	793.48333477973801564075984060764312744140625	0.0	19644.73302761710147024132311344146728515625	34.998583221	1	1	1	1
1454	S6	2020	3	2	14	346.48822198431099650406395085155963897705078125	486.15148172285097416533972136676311492919921875	132.1433718348120009977719746530055999755859375	9.3849397653556696496934819151647388935089111328125	63.4662652302937004833438550122082233428955078125	2.1927710798490398502735843067057430744171142578125	580.26666666070605060667730867862701416015625	0.0	14219.625121355000374023802578449249267578125	27.024283169	1	1	1	1
1455	S6	2020	3	2	15	170.280109362894989999404060654342174530029296875	59.193893972805000203152303583920001983642578125	145.664022371089004082023166120052337646484375	9.1586592423849193522755740559659898281097412109375	60.112290686069201228747260756790637969970703125	1.9097765332826599493643016103305853903293609619140625	193.416666984556997022082214243710041046142578125	0.0	5160.68315406640977016650140285491943359375	11.013291738	1	1	1	1
1456	S6	2020	3	2	16	140.014841439988003912731073796749114990234375	64.825148398620598300112760625779628753662109375	123.5320894877110049492330290377140045166015625	8.853333441416420868108616559766232967376708984375	62.17000001271559739279837231151759624481201171875	1.1022222238282299855427481816150248050689697265625	167.416666696468013242338201962411403656005859375	0.0	4588.5943094889298663474619388580322265625	12.737908343	1	1	1	1
1457	S6	2020	3	2	17	103.0856168111159973932444700039923191070556640625	137.854191668166009776541613973677158355712890625	80.591563786400598701220587827265262603759765625	8.5799999872843404347122486797161400318145751953125	65.9550002415974034875034703873097896575927734375	1.2238888875477800244340187418856658041477203369140625	136.183333583174999148468486964702606201171875	0.0	3583.1464077035498121404089033603668212890625	6.4401583253	1	1	1	1
1458	S6	2020	3	2	18	27.186189637308199706922096083872020244598388671875	50.414637040360702258112723939120769500732421875	22.70097127013929849681517225690186023712158203125	7.15947955425786997096793129458092153072357177734375	78.9605946310390010012270067818462848663330078125	1.182527879689259986406568714301101863384246826171875	20.133333274861801243105219327844679355621337890625	0.0	531.477135155970017876825295388698577880859375	-1.991516674	1	1	1	1
1459	S6	2020	3	2	19	0	0	0	0	0	0	0	0.0	0	0.0	1	1	1	0
1460	S6	2020	3	2	20	0	0	0	0	0	0	0	0.0	0	0.0	1	1	1	0
1461	S6	2020	3	2	21	0	0	0	0	0	0	0	0.0	0	0.0	1	1	1	0
1462	S6	2020	3	2	22	0	0	0	0	0	0	0	0.0	0	0.0	1	1	1	0
1463	S6	2020	3	2	23	0	0	0	0	0	0	0	0.0	0	0.0	1	1	1	0
1464	S6	2020	3	2	24	0	0	0	0	0	0	0	0.0	0	0.0	1	1	1	0
1465	S6	2020	3	3	1	0	0	0	0	0	0	0	0.0	0	0.0	1	1	1	0
1466	S6	2020	3	3	2	0	0	0	0	0	0	0	0.0	0	0.0	1	1	1	0
1467	S6	2020	3	3	3	0	0	0	0	0	0	0	0.0	0	0.0	1	1	1	0
1468	S6	2020	3	3	4	0	0	0	0	0	0	0	0.0	0	0.0	1	1	1	0
1469	S6	2020	3	3	5	0	0	0	0	0	0	0	0.0	0	0.0	1	1	1	0
1470	S6	2020	3	3	6	0	0	0	0	0	0	0	0.0	0	0.0	1	1	1	0
1471	S6	2020	3	3	7	1.4248995542526199375998885443550534546375274658203125	0.12316987961530599660076035206657252274453639984130859375	1.355815982818600051729163169511593878269195556640625	3.700000047683710047152771949185989797115325927734375	93.5	1.919999980926510030343479229486547410488128662109375	0.050000002374875000821230486280910554341971874237060546875	0.0	0	-1.916062498	1	1	1	0
1472	S6	2020	3	3	8	7.7160599988815103955630547716282308101654052734375	0.161192212347199992361623799297376535832881927490234375	7.72770349461387962008984686690382659435272216796875	3.833426195930969893055362263112328946590423583984375	93.8495811526156984427871066145598888397216796875	1.775766014471690024123518014675937592983245849609375	7.016666613829610099628553143702447414398193359375	0.0	186.706165984893004861078225076198577880859375	-0.858291667	1	1	1	1
1473	S6	2020	3	3	9	27.237536448902499586210979032330214977264404296875	0.205243927126542990979629621506319381296634674072265625	27.270034935739300152590658399276435375213623046875	4.0266666491826299534295685589313507080078125	93.5166670481363979661182384006679058074951171875	1.6524999991059299286888517599436454474925994873046875	27.1166669204829986483673565089702606201171875	0.0	776.068313668170958408154547214508056640625	1.5762166704	1	1	1	1
1474	S6	2020	3	3	10	55.13066713545050134825942222960293292999267578125	0.25992369175785101642617291872738860547542572021484375	55.1407544030083016650678473524749279022216796875	4.361666663487749673322468879632651805877685546875	91.7883337656655982073061750270426273345947265625	2.027777772148450008415920819970779120922088623046875	51.550000533461599161455524154007434844970703125	0.0	1535.7378522555000017746351659297943115234375	4.7927666803	1	1	1	1
1475	S6	2020	3	3	11	75.975313684675398917534039355814456939697265625	0.298895969334989020094184297704487107694149017333984375	75.9399390114677999008563347160816192626953125	4.68166657288869014763577069970779120922088623046875	89.3249998728434064787506940774619579315185546875	1.8188888893359200782384732519858516752719879150390625	71.866666339337598401471041142940521240234375	0.0	2187.782652676100042299367487430572509765625	6.9502166708	1	1	1	1
1476	S6	2020	3	3	12	88.69959707260130699069122783839702606201171875	0.329792868097622982048733319970779120922088623046875	88.596296914418502410626388154923915863037109375	4.8283333698908403874838768388144671916961669921875	86.858333206176695284739253111183643341064453125	2.106111107021570116870634592487476766109466552734375	84.766666404902792919529019854962825775146484375	0.0	2572.10624217986014627967961132526397705078125	8.2515667081	1	1	1	1
1477	S6	2020	3	3	13	86.147057618035205450723879039287567138671875	0.27438841608301201002717562005273066461086273193359375	85.9922716988456983244759612716734409332275390625	4.7916666825612299618342149187810719013214111328125	86.3450004577636036628973670303821563720703125	2.027222216957139888648953274241648614406585693359375	77.94999964535219305616919882595539093017578125	0.0	2362.802322705580081674270331859588623046875	7.569475023	1	1	1	1
1478	S6	2020	3	3	14	88.165274959140305099936085753142833709716796875	0.338390626489288026679247423089691437780857086181640625	88.085982704162603340591886080801486968994140625	5.0516666730244903504853937192820012569427490234375	84.6516662597656051048033987171947956085205078125	1.4613888858920900393201236511231400072574615478515625	80.249999960263295406548422761261463165283203125	0.0	2411.56787127255984160001389682292938232421875	7.982825009	1	1	1	1
1479	S6	2020	3	3	15	56.01086941825010256934547214768826961517333984375	0.28245965527991401256002745867590419948101043701171875	55.96473823123500324072665534913539886474609375	5.40666673183441037764396241982467472553253173828125	82.7083329518635963495398755185306072235107421875	1.236111113015140094972821316332556307315826416015625	52.199999677638203365859226323664188385009765625	0.0	1536.03974928458001159015111625194549560546875	3.8378750026	1	1	1	1
1480	S6	2020	3	3	16	51.662995142406799686796148307621479034423828125	0.2216437055677580036938678631486254744231700897216796875	51.75621975262959750807567615993320941925048828125	5.54833328723907026613915149937383830547332763671875	83.459999974568603420266299508512020111083984375	1.20750000004967006361766834743320941925048828125	45.38333329061659782155402353964745998382568359375	0.0	1361.347944041089931488386355340480804443359375	3.7806666633	1	1	1	1
1481	S6	2020	3	3	17	24.632546549373198985222188639454543590545654296875	0.1574446840884370091284694126443355344235897064208984375	24.628528004222399516720543033443391323089599609375	5.24166665077208993039903361932374536991119384765625	86.7133336385090984776979894377291202545166015625	1.35166666830579007552159964689053595066070556640625	21.299999905750201634191398625262081623077392578125	0.0	638.4839355945599663755274377763271331787109375	0.189025	1	1	1	1
1482	S6	2020	3	3	18	8.8653960791352606207738062948919832706451416015625	0.12075941801096599925724461854770197533071041107177734375	8.905499688566539617795569938607513904571533203125	4.81369863470939041150131743052043020725250244140625	89.6547947191211989093062584288418292999267578125	1.440753422269259953480968761141411960124969482421875	4.6833333811567303683887075749225914478302001953125	0.0	149.468765167208999855574802495539188385009765625	-1.831474993	1	1	1	1
1483	S6	2020	3	3	19	0	0	0	0	0	0	0	0.0	0	0.0	1	1	1	0
1484	S6	2020	3	3	20	0	0	0	0	0	0	0	0.0	0	0.0	1	1	1	0
1485	S6	2020	3	3	21	0	0	0	0	0	0	0	0.0	0	0.0	1	1	1	0
1486	S6	2020	3	3	22	0	0	0	0	0	0	0	0.0	0	0.0	1	1	1	0
1487	S6	2020	3	3	23	0	0	0	0	0	0	0	0.0	0	0.0	1	1	1	0
1488	S6	2020	3	3	24	0	0	0	0	0	0	0	0.0	0	0.0	1	1	1	0
1489	S6	2020	3	4	1	0	0	0	0	0	0	0	0.0	0	0.0	1	1	1	0
1490	S6	2020	3	4	2	0	0	0	0	0	0	0	0.0	0	0.0	1	1	1	0
1491	S6	2020	3	4	3	0	0	0	0	0	0	0	0.0	0	0.0	1	1	1	0
1492	S6	2020	3	4	4	0	0	0	0	0	0	0	0.0	0	0.0	1	1	1	0
1493	S6	2020	3	4	5	0	0	0	0	0	0	0	0.0	0	0.0	1	1	1	0
1494	S6	2020	3	4	6	0	0	0	0	0	0	0	0.0	0	0.0	1	1	1	0
1495	S6	2020	3	4	7	2.92245096630519984870488769956864416599273681640625	0.10435258845488200318829541402010363526642322540283203125	3.025631401273929821371666548657231032848358154296875	3.93333339691162020557158029987476766109466552734375	90.766667683919195042108185589313507080078125	2.02222222089767011965477649937383830547332763671875	0.2166666769577849926964319138278369791805744171142578125	0.0	4.6598049889629198361262751859612762928009033203125	-1.632895348	1	1	1	0
1496	S6	2020	3	4	8	24.9265261718204982344104791991412639617919921875	0.1566128227259719896125034210854209959506988525390625	25.06623978040460087868268601596355438232421875	3.792436992420869845688002897077240049839019775390625	91.054621186242997055160230956971645355224609375	2.419327728805079846807757348869927227497100830078125	26.416666751417000824631031719036400318145751953125	0.0	713.407081148274983206647448241710662841796875	1.0379916679	1	1	1	1
1497	S6	2020	3	4	9	69.9335570229423950650016195140779018402099609375	0.3015074276675779874068439312395639717578887939453125	69.9890650325350947014158009551465511322021484375	3.6416666467984502020271975197829306125640869140625	91.76833279927569719802704639732837677001953125	2.44638888339200999411104930914007127285003662109375	70.9166668355463940542904310859739780426025390625	0.0	1939.49547012646007715375162661075592041015625	6.6009749671	1	1	1	1
1498	S6	2020	3	4	10	167.89086435355301318850251846015453338623046875	89.70196317098719873683876357972621917724609375	135.124556618912009753330494277179241180419921875	4.1792717407397503848187625408172607421875	90.9151260205009066339698620140552520751953125	2.2310924361399901982849769410677254199981689453125	213.6000006149209866634919308125972747802734375	0.0	5454.853912194559597992338240146636962890625	15.365299988	1	1	1	1
1499	S6	2020	3	4	11	263.67534257140897580029559321701526641845703125	146.298551993294012163460138253867626190185546875	202.119639967712004136046743951737880706787109375	5.9139818000213697501976639614440500736236572265625	82.865349395659194442487205378711223602294921875	2.308510637935529796749278830247931182384490966796875	319.46666588385897966873017139732837677001953125	0.0	7952.159013350799796171486377716064453125	22.844750079	1	1	1	1
1500	S6	2020	3	4	12	397.82303993023697330499999225139617919921875	449.280775785018022361327894032001495361328125	185.35490104250101239813375286757946014404296875	6.66363637258579988298379248590208590030670166015625	77.3466274451649979937428724952042102813720703125	2.79501465408683014146618006634525954723358154296875	618.3166675269600318642915226519107818603515625	0.0	15996.757680177599468152038753032684326171875	40.089916523	1	1	1	1
1501	S6	2020	3	4	13	332.94676850597301154266460798680782318115234375	334.717094166019023759872652590274810791015625	171.463461479044013913153321482241153717041015625	7.34596277023694010921417429926805198192596435546875	73.3521737519258039128544623963534832000732421875	2.127018632448229862319521998870186507701873779296875	387.81666681170401034250971861183643341064453125	0.0	10005.717231829899901640601456165313720703125	27.351541662	1	1	1	1
1502	S6	2020	3	4	14	216.15294471882799598461133427917957305908203125	156.74163231738799595404998399317264556884765625	145.14735189876199683567392639815807342529296875	7.11739129309327989147959669935517013072967529296875	71.5288823761554937163964495994150638580322265625	2.139751550943949975902569349273107945919036865234375	325.85000159839802336136926896870136260986328125	0.0	8457.340880235029544564895331859588623046875	22.11866672	1	1	1	1
1503	S6	2020	3	4	15	339.38269409952198429891723208129405975341796875	461.087037195369020992075093090534210205078125	158.317696462702997450833208858966827392578125	7.8648734847201495767876622267067432403564453125	65.39905074880090296574053354561328887939453125	2.47626582278480977805656948476098477840423583984375	451.54999804993400402963743545114994049072265625	0.0	12134.759897986999931163154542446136474609375	33.030350053	1	1	1	1
1504	S6	2020	3	4	16	55.9595339457194000942763523198664188385009765625	0.1912442894236210111369445030504721216857433319091796875	55.97864458488690075910199084319174289703369140625	7.1596968809763499308473910787142813205718994140625	67.7006060051194964444221113808453083038330078125	2.33696969151495981265043155872263014316558837890625	50.03333374237009678608956164680421352386474609375	0.0	1445.987525085600054808310233056545257568359375	4.3121416539	1	1	1	1
1505	S6	2020	3	4	17	77.515756352742499757368932478129863739013671875	98.12994381271090560403536073863506317138671875	64.9305623478359024147721356712281703948974609375	6.89333331584929975832665149937383830547332763671875	72.4299996693928989088817615993320941925048828125	1.865277775790949998935275289113633334636688232421875	97.6833337917924069415676058270037174224853515625	0.0	2571.95633028942984310560859739780426025390625	7.3267999947	1	1	1	1
1506	S6	2020	3	4	18	37.2242421966661964916056604124605655670166015625	103.768374261183993212398490868508815765380859375	26.42313297189389942332127247937023639678955078125	6.766187070942610404244987876154482364654541015625	73.824819798092192968397284857928752899169921875	2.0420863318571900180131706292741000652313232421875	38.25000022188749682072739233262836933135986328125	0.0	959.09188413061201572418212890625	1.1172333216	1	1	1	0
1507	S6	2020	3	4	19	0	0	0	0	0	0	0	0.0	0.96810335914293299541810711161815561354160308837890625	0.0	1	1	1	0
1508	S6	2020	3	4	20	0	0	0	0	0	0	0	0.0	0	0.0	1	1	1	0
1509	S6	2020	3	4	21	0	0	0	0	0	0	0	0.0	0	0.0	1	1	1	0
1510	S6	2020	3	4	22	0	0	0	0	0	0	0	0.0	0	0.0	1	1	1	0
1511	S6	2020	3	4	23	0	0	0	0	0	0	0	0.0	0	0.0	1	1	1	0
1512	S6	2020	3	4	24	0	0	0	0	0	0	0	0.0	0	0.0	1	1	1	0
1513	S6	2020	3	5	1	0	0	0	0	0	0	0	0.0	0	0.0	1	1	1	0
1514	S6	2020	3	5	2	0	0	0	0	0	0	0	0.0	0	0.0	1	1	1	0
1515	S6	2020	3	5	3	0	0	0	0	0	0	0	0.0	0	0.0	1	1	1	0
1516	S6	2020	3	5	4	0	0	0	0	0	0	0	0.0	0	0.0	1	1	1	0
1517	S6	2020	3	5	5	0	0	0	0	0	0	0	0.0	0	0.0	1	1	1	0
1518	S6	2020	3	5	6	0	0	0	0	0	0	0	0.0	0	0.0	1	1	1	0
1519	S6	2020	3	5	7	5.984967920515270378700733999721705913543701171875	4.00478115567454029388727576588280498981475830078125	5.98224238996152024583352613262832164764404296875	3.444444497426350171309650249895639717578887939453125	91.8333358764648011174358543939888477325439453125	0.98148148479285002299121742908027954399585723876953125	1.083333373147369993461097692488692700862884521484375	0.0	37.30950345440449922307379893027245998382568359375	-1.494055557	1	1	1	0
1520	S6	2020	3	5	8	27.873971370855901596996773150749504566192626953125	0.322425007137158992076564345552469603717327117919921875	27.972524596585099487811021390371024608612060546875	3.531666672229759829093609369010664522647857666015625	91.4766666412352975612520822323858737945556640625	1.0255555585854498890086006213095970451831817626953125	28.15000014379609893921951879747211933135986328125	0.0	773.7731194123620070968172512948513031005859375	1.7669666635	1	1	1	1
1521	S6	2020	3	5	9	67.9526578479343044136840035207569599151611328125	0.385699913609359013033639485001913271844387054443359375	67.9740083906385024192786659114062786102294921875	3.728333298365269943275279729277826845645904541015625	89.740000152587896309341886080801486968994140625	1.150555554529030022337110494845546782016754150390625	67.2833337138097959950755466707050800323486328125	0.0	1870.548933496070048931869678199291229248046875	6.1638499886	1	1	1	1
1522	S6	2020	3	5	10	166.25628329382999481822480447590351104736328125	14.0580085938589007810151088051497936248779296875	160.372756216260995643096975982189178466796875	4.586666647593180101694088079966604709625244140625	86.7016662597656022626324556767940521240234375	1.579722217967109987313278907095082104206085205078125	197.683333729704003189908689819276332855224609375	0.0	5326.4940609534396571689285337924957275390625	17.354958399	1	1	1	1
1523	S6	2020	3	5	11	380.5546237478220064076595008373260498046875	488.50724780474598674118169583380222320556640625	172.44335096310300059485598467290401458740234375	5.83076925902623965924931326298974454402923583984375	81.1017091104447018778955680318176746368408203125	1.5937321926453800191580967293702997267246246337890625	569.9000025788940320126130245625972747802734375	0.0	14339.96637761589954607188701629638671875	36.260249897	1	1	1	1
1524	S6	2020	3	5	12	377.84606154272097455759649164974689483642578125	345.99625458220901919048628769814968109130859375	212.60357396880499436520040035247802734375	6.47392640523383988693240098655223846435546875	75.385276045535903222116758115589618682861328125	1.57730061282043010351117118261754512786865234375	557.4166650573409924618317745625972747802734375	0.0	13866.7005499203005456365644931793212890625	34.064575058	1	1	1	1
1525	S6	2020	3	5	13	427.70150561723500004518427886068820953369140625	583.9395386454780236817896366119384765625	146.070432519131003346046782098710536956787109375	7.34131150636515972252027495414949953556060791015625	64.960328111492202651788829825818538665771484375	1.72163934590385991896255291067063808441162109375	603.7999995052799704353674314916133880615234375	0.0	15251.54369076090006274171173572540283203125	30.99750001	1	1	1	1
1526	S6	2020	3	5	14	528.994483410471957540721632540225982666015625	742.3418185274359757386264391243457794189453125	189.831129906882011937341303564608097076416015625	8.102816906781260541947631281800568103790283203125	64.1149297042631047816030331887304782867431640625	2.21774647504510991069537340081296861171722412109375	820.833335320153992142877541482448577880859375	0.0	20952.49994198479907936416566371917724609375	51.377666481	1	1	1	1
1527	S6	2020	3	5	15	379.65850493867498016697936691343784332275390625	639.262739399732026868150569498538970947265625	127.7122021260230013695036177523434162139892578125	7.874576322102949887948852847330272197723388671875	64.1836158407609929099635337479412555694580078125	2.19350282022845011198342035640962421894073486328125	617.6000008980439588412991724908351898193359375	0.0	16129.915455977099554729647934436798095703125	35.884166559	1	1	1	1
1528	S6	2020	3	5	16	295.6266831256419891360565088689327239990234375	642.3782222117359879121067933738231658935546875	101.3321147245510047696370747871696949005126953125	7.51372548512050020264041449991054832935333251953125	64.315966459215502482038573361933231353759765625	1.879831930502450010322945672669447958469390869140625	495.58333307504500453433138318359851837158203125	0.0	12971.844748655899820732884109020233154296875	27.300416644	1	1	1	1
1529	S6	2020	3	5	17	144.097798707750001767635694704949855804443359375	375.19902843766698197214282117784023284912109375	77.798270193735703514903434552252292633056640625	7.01166664759317992405840413994155824184417724609375	66.92666651407870404000277630984783172607421875	1.4911111072533600463430047966539859771728515625	223.749999453624013767694123089313507080078125	0.0	5821.3385452826796608860604465007781982421875	10.150300047	1	1	1	1
1530	S6	2020	3	5	18	42.92280137810720219704307965002954006195068359375	182.78972225837600262821069918572902679443359375	26.950963223795898926482550450600683689117431640625	5.6925081336925398289849908906035125255584716796875	72.080130263337792939637438394129276275634765625	1.4680781763423100816368105370202101767063140869140625	47.233333277593402499405783601105213165283203125	0.0	1151.319721310080012699472717940807342529296875	0.6580083475	1	1	1	0
1531	S6	2020	3	5	19	0	0	0	0	0	0	0	0.0	3.1983582768589400302516878582537174224853515625	0.0	1	1	1	0
1532	S6	2020	3	5	20	0	0	0	0	0	0	0	0.0	0	0.0	1	1	1	0
1533	S6	2020	3	5	21	0	0	0	0	0	0	0	0.0	0	0.0	1	1	1	0
1534	S6	2020	3	5	22	0	0	0	0	0	0	0	0.0	0	0.0	1	1	1	0
1535	S6	2020	3	5	23	0	0	0	0	0	0	0	0.0	0	0.0	1	1	1	0
1536	S6	2020	3	5	24	0	0	0	0	0	0	0	0.0	0	0.0	1	1	1	0
1537	S6	2020	3	6	1	0	0	0	0	0	0	0	0.0	0	0.0	1	1	1	0
1538	S6	2020	3	6	2	0	0	0	0	0	0	0	0.0	0	0.0	1	1	1	0
1539	S6	2020	3	6	3	0	0	0	0	0	0	0	0.0	0	0.0	1	1	1	0
1540	S6	2020	3	6	4	0	0	0	0	0	0	0	0.0	0	0.0	1	1	1	0
1541	S6	2020	3	6	5	0	0	0	0	0	0	0	0.0	0	0.0	1	1	1	0
1542	S6	2020	3	6	6	0	0	0	0	0	0	0	0.0	0	0.0	1	1	1	0
1543	S6	2020	3	6	7	3.19999898240920988001789737609215080738067626953125	0.16199829255012698769888856986653991043567657470703125	3.298343577283489924667492232401855289936065673828125	4.09999990463256036576922269887290894985198974609375	87.689359786662606666141073219478130340576171875	3.853191467041659823422605768428184092044830322265625	0.5333333528445429738695793275837786495685577392578125	0.0	9.0846799546852405882191305863671004772186279296875	-1.218187502	1	1	1	0
1544	S6	2020	3	6	8	24.61106024450720042295870371162891387939453125	0.1932758367516919928430496611326816491782665252685546875	24.72441668113069823675687075592577457427978515625	4.176944331328069637265798519365489482879638671875	87.3922204335530068419757299125194549560546875	3.68333333416117003622503034421242773532867431640625	24.066666855166200633675543940626084804534912109375	0.0	673.9434525991470081862644292414188385009765625	1.832333341	1	1	1	1
1545	S6	2020	3	6	9	84.3189814037746003805295913480222225189208984375	1.3346093368199098971871308094705455005168914794921875	84.0637724770439973553948220796883106231689453125	4.33944448762469026092958301887847483158111572265625	86.7497217602199981456578825600445270538330078125	3.492777773737900215422769178985618054866790771484375	86.033333341280496142644551582634449005126953125	0.0	2462.69643008707998887985013425350189208984375	9.328433311	1	1	1	1
1546	S6	2020	3	6	10	177.962041303846007167521747760474681854248046875	16.702210157447300531430300907231867313385009765625	171.83112025790700272409594617784023284912109375	4.96833329333199014143929161946289241313934326171875	82.83444461822500670677982270717620849609375	4.032222225434249907038974924944341182708740234375	188.96666690707201041732332669198513031005859375	0.0	5337.5518480936598280095495283603668212890625	20.426583433	1	1	1	1
1547	S6	2020	3	6	11	164.5126642015239895044942386448383331298828125	1.054632400555739923930786972050555050373077392578125	163.981731541951006647650501690804958343505859375	5.64861115482117970287845309940166771411895751953125	77.6636110517712978662530076690018177032470703125	4.29999999486737038978390046395361423492431640625	157.266667733589002864391659386456012725830078125	0.0	4652.134368816999995033256709575653076171875	19.50133338	1	1	1	1
1548	S6	2020	3	6	12	197.48205193413599545237957499921321868896484375	2.90114435156186001307787591940723359584808349609375	195.723319074842009968051570467650890350341796875	6.2116666886541498371343550388701260089874267578125	74.106388664245599784408113919198513031005859375	4.72916667229598974842019742936827242374420166015625	194.3499992291129956356598995625972747802734375	0.0	5737.124596039449897943995893001556396484375	23.235166581	1	1	1	1
1549	S6	2020	3	6	13	184.943926069470990114496089518070220947265625	1.2002033198873200969813979099853895604610443115234375	184.16373299492698834001203067600727081298828125	6.78833331399493022928481877897866070270538330078125	71.726944372388999227041495032608509063720703125	4.572777779234780126671466859988868236541748046875	175.733334571121986300568096339702606201171875	0.0	5201.48536960284036467783153057098388671875	21.841583331	1	1	1	1
1550	S6	2020	3	6	14	161.838932291665997809104737825691699981689453125	0.56493589778741204465717373750521801412105560302734375	161.599833891125996387927443720400333404541015625	7.1622221324178898527179626398719847202301025390625	70.510555076599104040724341757595539093017578125	4.32277777294317022693803664878942072391510009765625	152.900000164906003874421003274619579315185546875	0.0	4550.6570945183202638872899115085601806640625	18.434583362	1	1	1	1
1551	S6	2020	3	6	15	129.70207583109498727935715578496456146240234375	0.42092569292419401705274140113033354282379150390625	129.627205933464011877731536515057086944580078125	7.3436112443606003097329448792152106761932373046875	69.6850001229179980555272777564823627471923828125	3.996944443053660034337326578679494559764862060546875	120.5500001708659993937544641084969043731689453125	0.0	3604.81302042801007701200433075428009033203125	14.527333371	1	1	1	1
1552	S6	2020	3	6	16	84.72107240888800561151583679020404815673828125	0.347268520254226997767688089879811741411685943603515625	84.8257506052652985317763523198664188385009765625	7.50499999523162042436297269887290894985198974609375	66.41138887405389823470613919198513031005859375	3.93499999311235004739728537970222532749176025390625	76.43333319574639972415752708911895751953125	0.0	2285.07841825485002118512056767940521240234375	8.808349967	1	1	1	1
1553	S6	2020	3	6	17	61.2375852055019009867464774288237094879150390625	0.49358756906456402457905596747878007590770721435546875	61.36072488360930066164655727334320545196533203125	7.2341666645473896579687789198942482471466064453125	64.4177776866489040230590035207569599151611328125	3.843055556217819912490085698664188385009765625	57.649999919036901019353535957634449005126953125	0.0	1703.415928781030061145429499447345733642578125	5.8433999737	1	1	1	1
1554	S6	2020	3	6	18	26.03632463320440137977129779756069183349609375	0.567547597199308029303210787475109100341796875	26.1492384120544016923304297961294651031494140625	6.88881988555007040986311039887368679046630859375	67.113975264270806064814678393304347991943359375	3.43198757549250021980924429954029619693756103515625	18.716666647621099883735951152630150318145751953125	0.0	570.401868344438980784616433084011077880859375	1.2122416786	1	1	1	1
1555	S6	2020	3	6	19	0	0	0	0	0	0	0	0.0	0	0.0	1	1	1	0
1556	S6	2020	3	6	20	0	0	0	0	0	0	0	0.0	0	0.0	1	1	1	0
1557	S6	2020	3	6	21	0	0	0	0	0	0	0	0.0	0	0.0	1	1	1	0
1558	S6	2020	3	6	22	0	0	0	0	0	0	0	0.0	0	0.0	1	1	1	0
1559	S6	2020	3	6	23	0	0	0	0	0	0	0	0.0	0	0.0	1	1	1	0
1560	S6	2020	3	6	24	0	0	0	0	0	0	0	0.0	0	0.0	1	1	1	0
1561	S6	2020	3	7	1	0	0	0	0	0	0	0	0.0	0	0.0	1	1	1	0
1562	S6	2020	3	7	2	0	0	0	0	0	0	0	0.0	0	0.0	1	1	1	0
1563	S6	2020	3	7	3	0	0	0	0	0	0	0	0.0	0	0.0	1	1	1	0
1564	S6	2020	3	7	4	0	0	0	0	0	0	0	0.0	0	0.0	1	1	1	0
1565	S6	2020	3	7	5	0	0	0	0	0	0	0	0.0	0	0.0	1	1	1	0
1566	S6	2020	3	7	6	0	0	0	0	0	0	0	0.0	0	0.0	1	1	1	0
1567	S6	2020	3	7	7	5.316930770874019884786321199499070644378662109375	0.099218464261570604723061705954023636877536773681640625	5.51307602815848962762856899644248187541961669921875	4.0883720198342903273669435293413698673248291015625	87.018604367278300060206674970686435699462890625	2.525581395903290005122698858031071722507476806640625	0.58333335521941498402753722984925843775272369384765625	0.0	28.925049708535201631320887827314436435699462890625	-2.194599996	1	1	1	0
1568	S6	2020	3	7	8	26.363826804690798866204204387031495571136474609375	1.01847690356273989920055100810714066028594970703125	26.254633253150501559503027237951755523681640625	4.2463888936572597998519995599053800106048583984375	86.2069439782035971120421891100704669952392578125	1.86638888700140004317518105381168425083160400390625	28.400000246862600050690161879174411296844482421875	0.0	771.4119669049970298146945424377918243408203125	1.8428833432	1	1	1	1
1569	S6	2020	3	7	9	40.799451314078396535478532314300537109375	0.51291965177903497963285417426959611475467681884765625	40.72775441275700103460621903650462627410888671875	4.59416659408145022780445287935435771942138671875	84.09583322736949639875092543661594390869140625	1.5244444436497099903959906441741622984409332275390625	38.6166666323940006577686290256679058074951171875	0.0	1089.403570691740014808601699769496917724609375	3.0631666631	1	1	1	1
1570	S6	2020	3	7	10	62.27147983264369912603797274641692638397216796875	0.312001077347902999736817264420096762478351593017578125	62.282273165752400245764874853193759918212890625	4.5820809458032503158619874739088118076324462890625	86.280347085412500973689020611345767974853515625	1.6872832353921201065105606176075525581836700439453125	63.28333343068769778483328991569578647613525390625	0.0	1813.50001816947997212992049753665924072265625	5.5863000075	1	1	1	1
1571	S6	2020	3	7	11	229.562405416699988336404203437268733978271484375	88.4207375152243031379839521832764148712158203125	188.1710327572289997988264076411724090576171875	5.42194437848197008378292593988589942455291748046875	81.8183330323960973373687011189758777618408203125	1.6322222188942900888974918416352011263370513916015625	281.34999945759699357950012199580669403076171875	0.0	7416.785097122179649886675179004669189453125	20.901583306	1	1	1	1
1572	S6	2020	3	7	12	469.51120615669600510955206118524074554443359375	630.331054150891986864735372364521026611328125	163.14067079761798595427535474300384521484375	7.3105849701713996324770050705410540103912353515625	74.668523379355093538833898492157459259033203125	1.0610027886034700816964004843612201511859893798828125	761.51666666070605060667730867862701416015625	0.0	19089.90485668179826461710035800933837890625	42.373774997	1	1	1	1
1573	S6	2020	3	7	13	473.82475346912502800478250719606876373291015625	626.3325259644169591410900466144084930419921875	162.518422959166997543434263207018375396728515625	8.1491329918017907374405695009045302867889404296875	69.988728120836896096079726703464984893798828125	1.1965317949222000759590400775778107345104217529296875	705.0166666507719810397247783839702606201171875	0.0	17690.25880495700039318762719631195068359375	39.625683244	1	1	1	1
1574	S6	2020	3	7	14	363.92773075047801967230043374001979827880859375	315.3244964244560151200857944786548614501953125	212.9802696026659987182938493788242340087890625	8.6173020360057304145584566867910325527191162109375	68.3442815741484963609764236025512218475341796875	0.80087976843730401821375153303961269557476043701171875	413.4166638056429974312777630984783172607421875	0.0	10550.2837340037003741599619388580322265625	27.143008304	1	1	1	1
1575	S6	2020	3	7	15	410.7250369186180023461929522454738616943359375	749.0800288633380432656849734485149383544921875	107.36101576611099517322145402431488037109375	8.508356532678629235988410073332488536834716796875	67.9696381444053940867888741195201873779296875	1.2596100275729000816937741547008045017719268798828125	659.000001351038008579052984714508056640625	0.0	17407.89920886349864304065704345703125	41.197250112	1	1	1	1
1576	S6	2020	3	7	16	288.3220864189989924852852709591388702392578125	717.7722573174370381821063347160816192626953125	63.321402687496600947270053438842296600341796875	8.72861114078096989032928831875324249267578125	63.2497222370570995053640217520296573638916015625	0.960555554512473985795395492459647357463836669921875	473.7999985615409741512848995625972747802734375	0.0	12699.608890215500650811009109020233154296875	27.783250014	1	1	1	1
1577	S6	2020	3	7	17	159.469444126552986062961281277239322662353515625	475.35381647745697364371153526008129119873046875	63.8305050849914010768770822323858737945556640625	7.528888877232869702993411920033395290374755859375	75.41083357069220483026583679020404815673828125	1.2947222215433900061043459572829306125640869140625	245.133333653210996772031649015843868255615234375	0.0	6443.977557619409708422608673572540283203125	14.63718334	1	1	1	1
1578	S6	2020	3	7	18	39.189041529696396537474356591701507568359375	157.870204927364994773597572930157184600830078125	25.4987645792813992784431320615112781524658203125	5.251840497818459851941952365450561046600341796875	85.44969277879209812454064376652240753173828125	1.08558282274410000667330677970312535762786865234375	45.1999998961886007009525201283395290374755859375	0.0	1107.6809677838600691757164895534515380859375	1.4869916634	1	1	1	1
1579	S6	2020	3	7	19	0	0	0	0	0	0	0	0.0	3.03045827895402997143037282512523233890533447265625	0.0	1	1	1	0
1580	S6	2020	3	7	20	0	0	0	0	0	0	0	0.0	0	0.0	1	1	1	0
1581	S6	2020	3	7	21	0	0	0	0	0	0	0	0.0	0	0.0	1	1	1	0
1582	S6	2020	3	7	22	0	0	0	0	0	0	0	0.0	0	0.0	1	1	1	0
1583	S6	2020	3	7	23	0	0	0	0	0	0	0	0.0	0	0.0	1	1	1	0
1584	S6	2020	3	7	24	0	0	0	0	0	0	0	0.0	0	0.0	1	1	1	0
1585	S6	2020	3	8	1	0	0	0	0	0	0	0	0.0	0	0.0	1	1	1	0
1586	S6	2020	3	8	2	0	0	0	0	0	0	0	0.0	0	0.0	1	1	1	0
1587	S6	2020	3	8	3	0	0	0	0	0	0	0	0.0	0	0.0	1	1	1	0
1588	S6	2020	3	8	4	0	0	0	0	0	0	0	0.0	0	0.0	1	1	1	0
1589	S6	2020	3	8	5	0	0	0	0	0	0	0	0.0	0	0.0	1	1	1	0
1590	S6	2020	3	8	6	0	0	0	0	0	0	0	0.0	0	0.0	1	1	1	0
1591	S6	2020	3	8	7	3.1025783106432101021709968335926532745361328125	0.1886682666964449861524144580471329391002655029296875	3.172268861431180031473786584683693945407867431640625	5.4745762954323904381226384430192410945892333984375	83.5593211287158936784180696122348308563232421875	2.811864410416549997506763247656635940074920654296875	0.800000030236942993866477991105057299137115478515625	0.0	11.191746545955499669844357413239777088165283203125	-1.417886792	1	1	1	0
1592	S6	2020	3	8	8	14.0332004295455003983761343988589942455291748046875	0.1881878903342610043214477855144650675356388092041015625	14.09698073069250057187673519365489482879638671875	5.62111109230253003232746777939610183238983154296875	83.165833028157493345133843831717967987060546875	2.80194443861643005533323957934044301509857177734375	13.28333318233489990234375	0.0	381.00153297806701857552980072796344757080078125	-0.066058334	1	1	1	1
1593	S6	2020	3	8	9	27.07723700205480099612032063305377960205078125	0.18794998113686800511601404650718905031681060791015625	27.121887562009998617895689676515758037567138671875	5.9372222503026303996875867596827447414398193359375	82.120554945203906527240178547799587249755859375	2.54888888183567008383079155464656651020050048828125	27.116666547954100252582065877504646778106689453125	0.0	780.8699569354430423118174076080322265625	1.0240166636	1	0	1	1
1594	S6	2020	3	8	10	147.77971267700098678687936626374721527099609375	0.5392231624159540270824209073907695710659027099609375	147.587499173482001424417831003665924072265625	6.71833328803379981053467417950741946697235107421875	81.0219443427190952888850006274878978729248046875	3.424444445139830150992565904743969440460205078125	148.40000073114998713208478875458240509033203125	0.0	4161.22797429561978788115084171295166015625	16.208150053	1	1	1	1
1595	S6	2020	3	8	11	211.7040685865609930260688997805118560791015625	0.825068332751591970719573509995825588703155517578125	210.75662324693399796160520054399967193603515625	7.791388993793059825065938639454543590545654296875	76.423610538906501687961281277239322662353515625	3.42194444239139006214145410922355949878692626953125	214.583333333333001746723311953246593475341796875	0.0	5961.5914305051001065294258296489715576171875	22.036500041	1	1	1	1
1596	S6	2020	3	8	12	269.7815858629010108415968716144561767578125	48.57506588598089791730672004632651805877685546875	244.013891177706994994878186844289302825927734375	8.799722194671630859375	74.021111297607404821974341757595539093017578125	3.543055558866920140559386709355749189853668212890625	319.4999997814489915981539525091648101806640625	0.0	8737.2832318146902252919971942901611328125	27.877416722	1	1	1	1
1597	S6	2020	3	8	13	312.8977290259459778098971582949161529541015625	123.3255058434269955114359618164598941802978515625	248.322624969482006918042316101491451263427734375	9.8813889079623695721465992392040789127349853515625	71.63694487677679489934234879910945892333984375	3.563055555025730125606742149102501571178436279296875	392.699998617172013837262056767940521240234375	0.0	10514.16397492080068332143127918243408203125	30.767750104	1	1	1	1
1598	S6	2020	3	8	14	231.825120205349008983830572105944156646728515625	13.3662927847769008593559192377142608165740966796875	224.1508492363819868842256255447864532470703125	10.3177776972451997750113150686956942081451416015625	71.33000011444090660006622783839702606201171875	3.997499987814160160581877789809368550777435302734375	249.816667040189003046180005185306072235107421875	0.0	6976.9369363784799134009517729282379150390625	22.866583387	1	1	1	1
1599	S6	2020	3	8	15	143.94864716000000726126017980277538299560546875	3.9177330326288899442488400381989777088165283203125	141.83010319603801008270238526165485382080078125	10.496944432788399836908865836448967456817626953125	71.0861107296413052836214774288237094879150390625	3.95249999529784989960035090916790068149566650390625	136.233334119120996774654486216604709625244140625	0.0	3833.98854037125011018360964953899383544921875	14.599224997	1	1	1	1
1600	S6	2020	3	8	16	106.4955701510109946639204281382262706756591796875	0.41913103359854797513861512925359420478343963623046875	106.4508470535269992751636891625821590423583984375	10.436110981305400713381459354422986507415771484375	71.9983334011501057148052495904266834259033203125	3.875277777512859955777457798831164836883544921875	98.0666669706503029146915650926530361175537109375	0.0	2794.8028877377500975853763520717620849609375	10.611475009	1	1	1	1
1601	S6	2020	3	8	17	45.094399388631103420266299508512020111083984375	0.2082970274612299943495230536427698098123073577880859375	45.03629142973149868112159310840070247650146484375	10.287777829170199339614555356092751026153564453125	72.8194446987575929597369395196437835693359375	3.567499989602299859114964419859461486339569091796875	41.11666648338240293014678172767162322998046875	0.0	1186.7464398344300207099877297878265380859375	2.5564833244	1	1	1	1
1602	S6	2020	3	8	18	24.838482811934898819572481443174183368682861328125	0.1506281313913100106116615961582283489406108856201171875	24.911873170307700320336152799427509307861328125	9.7319549761320391922936323680914938449859619140625	77.024812081702606292310520075261592864990234375	3.9308270726885101709058289998210966587066650390625	16.950000124052099437221841071732342243194580078125	0.0	556.5395638967539753139135427772998809814453125	0.0743416586	1	1	1	1
1603	S6	2020	3	8	19	0	0	0	0	0	0	0	0.0	2.259661653079100052110561591689474880695343017578125	0.0	1	1	1	0
1604	S6	2020	3	8	20	0	0	0	0	0	0	0	0.0	0	0.0	1	1	1	0
1605	S6	2020	3	8	21	0	0	0	0	0	0	0	0.0	0	0.0	1	1	1	0
1606	S6	2020	3	8	22	0	0	0	0	0	0	0	0.0	0	0.0	1	1	1	0
1607	S6	2020	3	8	23	0	0	0	0	0	0	0	0.0	0	0.0	1	1	1	0
1608	S6	2020	3	8	24	0	0	0	0	0	0	0	0.0	0	0.0	1	1	1	0
1609	S6	2020	3	9	1	0	0	0	0	0	0	0	0.0	0	0.0	1	1	1	0
1610	S6	2020	3	9	2	0	0	0	0	0	0	0	0.0	0	0.0	1	1	1	0
1611	S6	2020	3	9	3	0	0	0	0	0	0	0	0.0	0	0.0	1	1	1	0
1612	S6	2020	3	9	4	0	0	0	0	0	0	0	0.0	0	0.0	1	1	1	0
1613	S6	2020	3	9	5	0	0	0	0	0	0	0	0.0	0	0.0	1	1	1	0
1614	S6	2020	3	9	6	0	0	0	0	0	0	0	0.0	0	0.0	1	1	1	0
1615	S6	2020	3	9	7	0.71792480891401100340232233065762557089328765869140625	0.1898786845532330069818982565266196615993976593017578125	0.7251929514335859749962764908559620380401611328125	7.05151510238647016848290149937383830547332763671875	90.781819199070696413400582969188690185546875	1.0424242615699699232578723240294493734836578369140625	0.116666672208038002533925237003131769597530364990234375	0.0	0.473193327585859024875247769159614108502864837646484375	-1.793463633	1	1	1	0
1616	S6	2020	3	9	8	21.3300878628026993055755156092345714569091796875	0.169586301958014995516776934891822747886180877685546875	21.385963679718400953788659535348415374755859375	6.842450227492889780478435568511486053466796875	92.4900282944029044074341072700917720794677734375	0.9250712256316100390307610723539255559444427490234375	21.183333542042600328159096534363925457000732421875	0.0	609.5647650382790061485138721764087677001953125	0.1819000017	1	1	1	1
1617	S6	2020	3	9	9	66.716160138448003635858185589313507080078125	0.30510900244116700985586021488416008651256561279296875	66.8208304511176010009876335971057415008544921875	7.20777779552671038487687837914563715457916259765625	92.9547225316365057778966729529201984405517578125	1.8116666631566100686967502042534761130809783935546875	64.2333335553606019630024093203246593475341796875	0.0	1847.703651090459970873780548572540283203125	6.3186916709	1	1	1	1
1618	S6	2020	3	9	10	58.06654782825039973204184207133948802947998046875	0.253496428061689982325077608038554899394512176513671875	58.1462550905014978752660681493580341339111328125	7.4872222344080601175164701999165117740631103515625	93.45750005510109303941135294735431671142578125	1.4083333297736100320207697222940623760223388671875	55.900000159939196464620181359350681304931640625	0.0	1637.079105774550043861381709575653076171875	3.840000011	1	1	1	1
1619	S6	2020	3	9	11	125.7678782992889949809978133998811244964599609375	0.481903225928545009271175558751565404236316680908203125	125.6782527499720032437835470773279666900634765625	7.85694451199637011740151137928478419780731201171875	93.736666679382295797040569595992565155029296875	1.4386111110448800420869019944802857935428619384765625	122.283333291610006199334748089313507080078125	0.0	3523.19898704687011559144593775272369384765625	12.325124947	1	1	1	1
1620	S6	2020	3	9	12	170.100316831800000727525912225246429443359375	0.49010942145768099376113013931899331510066986083984375	169.825384203591994491944205947220325469970703125	8.6663889143201995324261588393710553646087646484375	89.7947226630316066575687727890908718109130859375	1.7236111107799700903342454694211483001708984375	158.58333408832498889751150272786617279052734375	0.0	4561.4618519941795966587960720062255859375	17.138533235	1	1	1	1
1621	S6	2020	3	9	13	203.89537296187398851543548516929149627685546875	87.5011599697067055103616439737379550933837890625	157.413106584279006483484408818185329437255859375	9.1765536588463998413089939276687800884246826171875	85.8101688966911950728899682871997356414794921875	1.7175141189899800764351311954669654369354248046875	245.066667472321995546735706739127635955810546875	0.0	6476.056160529449698515236377716064453125	18.642966608	1	1	1	1
1622	S6	2020	3	9	14	151.295357878422009889618493616580963134765625	1.9623719500455099051805518683977425098419189453125	149.924091592579003417995409108698368072509765625	8.7292358201999604716547764837741851806640625	85.238870234188397034813533537089824676513671875	1.8332225882333699207293875588220544159412384033203125	143.33333342025599677072023041546344757080078125	0.0	4068.08136254547980570350773632526397705078125	11.991666704	1	1	1	1
1623	S6	2020	3	9	15	133.213353490116986677094246260821819305419921875	0.71274902043002297258311728000990115106105804443359375	132.49238998640799991335370577871799468994140625	9.0080597066167502617872742121107876300811767578125	82.603581852699306864451500587165355682373046875	1.3465671622041399668745498274802230298519134521484375	121.7500007090460059089309652335941791534423828125	0.0	3412.999732544019934721291065216064453125	11.372424971	1	1	1	1
1624	S6	2020	3	9	16	75.3975793690089943765997304581105709075927734375	0.28179088034277899321722316017257981002330780029296875	75.4871785166626949603596585802733898162841796875	8.977521643514929650109479553066194057464599609375	80.7221904391856952543093939311802387237548828125	0.94322766831697502087905604639672674238681793212890625	66.333333527048495170674868859350681304931640625	0.0	1905.901051064329976725275628268718719482421875	6.4575333367	1	1	1	1
1625	S6	2020	3	9	17	61.77158925725120042216076399199664592742919921875	2.25975046704567006372599280439317226409912109375	61.5772406479407976576112559996545314788818359375	9.00833335964158976594262639991939067840576171875	81.4945403570416004868093295954167842864990234375	1.60086206346749992945888152462430298328399658203125	60.61666710302220195671907276846468448638916015625	0.0	1721.7987651626199294696561992168426513671875	4.6708500326	1	1	1	1
1626	S6	2020	3	9	18	23.915079202026600313502058270387351512908935546875	0.6623996639013529641459854246932081878185272216796875	24.019621258876298952600336633622646331787109375	8.660655862776959423854350461624562740325927734375	82.1026223354651989438934833742678165435791015625	1.589836061391669996822884058929048478603363037109375	17.716666656390998468850739300251007080078125	0.0	499.29500888877799980036797933280467987060546875	-0.516466668	1	1	1	1
1627	S6	2020	3	9	19	0	0	0	0	0	0	0	0.0	0	0.0	1	1	1	0
1628	S6	2020	3	9	20	0	0	0	0	0	0	0	0.0	0	0.0	1	1	1	0
1629	S6	2020	3	9	21	0	0	0	0	0	0	0	0.0	0	0.0	1	1	1	0
1630	S6	2020	3	9	22	0	0	0	0	0	0	0	0.0	0	0.0	1	1	1	0
1631	S6	2020	3	9	23	0	0	0	0	0	0	0	0.0	0	0.0	1	1	1	0
1632	S6	2020	3	9	24	0	0	0	0	0	0	0	0.0	0	0.0	1	1	1	0
1633	S6	2020	3	10	1	0	0	0	0	0	0	0	0.0	0	0.0	1	1	1	0
1634	S6	2020	3	10	2	0	0	0	0	0	0	0	0.0	0	0.0	1	1	1	0
1635	S6	2020	3	10	3	0	0	0	0	0	0	0	0.0	0	0.0	1	1	1	0
1636	S6	2020	3	10	4	0	0	0	0	0	0	0	0.0	0	0.0	1	1	1	0
1637	S6	2020	3	10	5	0	0	0	0	0	0	0	0.0	0	0.0	1	1	1	0
1638	S6	2020	3	10	6	0	0	0	0	0	0	0	0.0	0	0.0	1	1	1	0
1639	S6	2020	3	10	7	14.2916481615315991149373076041229069232940673828125	0.2146797988450880045885327263022190891206264495849609375	14.5025951212102004461712567717768251895904541015625	5.069696903228759765625	90.212120287346095892644370906054973602294921875	2.802020190942160038360952967195771634578704833984375	4.88333345274441033012635671184398233890533447265625	0.0	145.7776005690290048733004368841648101806640625	-1.070275858	1	1	1	0
1640	S6	2020	3	10	8	22.793288249439598303069942630827426910400390625	0.23412145568678699447673352551646530628204345703125	22.93207849661499864168945350684225559234619140625	5.312777768241030429408056079410016536712646484375	90.163889524671702702107722871005535125732421875	3.068333338366609819303221229347400367259979248046875	21.533333168675401481095832423307001590728759765625	0.0	607.78317662577001101453788578510284423828125	1.2650500045	1	1	1	1
1641	S6	2020	3	10	9	56.71162471241419922307613887824118137359619140625	0.398256667806870023884613374320906586945056915283203125	56.7114654699960993866625358350574970245361328125	5.907777749167539838026641518808901309967041015625	88.10555564032659958684234879910945892333984375	2.731944437656129931468740323907695710659027099609375	58.66666672130440218779767747037112712860107421875	0.0	1670.8415567874899352318607270717620849609375	4.8298583388	1	1	1	1
1642	S6	2020	3	10	10	126.4509871800739944092129007913172245025634765625	0.4879373083526890031436096251127310097217559814453125	126.369119667711998999948264099657535552978515625	6.44984516639827010209273794316686689853668212890625	84.8268518565613049986495752818882465362548828125	3.12910216363960014263057018979452550411224365234375	114.200000464916001874371431767940521240234375	0.0	3341.97220901648006474715657532215118408203125	12.319425015	1	1	1	1
1643	S6	2020	3	10	11	93.4799530029296050770426518283784389495849609375	0.29337656386196597768645233372808434069156646728515625	93.524764453040205580691690556704998016357421875	6.0305555423100702938654649187810719013214111328125	87.4605550130207944903304451145231723785400390625	3.5488888899485200312255983590148389339447021484375	87.0999996239940941222812398336827754974365234375	0.0	2543.5487866401599603705108165740966796875	8.3596749862	1	1	1	1
1644	S6	2020	3	10	12	90.34467200173270384766510687768459320068359375	0.35248065592928001787953462553559802472591400146484375	90.394368701510899200002313591539859771728515625	6.164444417423670330435925279743969440460205078125	85.260555733574705072896904312074184417724609375	3.393333331081600068301895589684136211872100830078125	84.9500004823012062615816830657422542572021484375	0.0	2516.09725207090014009736478328704833984375	8.2412166754	1	1	1	1
1645	S6	2020	3	10	13	107.42522903018499391691875644028186798095703125	0.32696232851077200454170679222443141043186187744140625	107.3036416159730066510746837593615055084228515625	6.51166665554046009134481209912337362766265869140625	84.856110890706304417108185589313507080078125	3.626666670044259799254859899519942700862884521484375	98.333333184321901399016496725380420684814453125	0.0	2901.690707107380148954689502716064453125	9.9156916976	1	1	1	1
1646	S6	2020	3	10	14	99.391243620352298648867872543632984161376953125	0.2450967137385960115114613699915935285389423370361328125	99.2793000936508036602390347979962825775146484375	6.35795463215221001718191473628394305706024169921875	90.669317982413502932104165665805339813232421875	3.3971590877256598872691029100678861141204833984375	93.8833336656289958455090527422726154327392578125	0.0	2782.3630447188998005003668367862701416015625	9.0877833426	1	1	1	1
1647	S6	2020	3	10	15	78.9329085985819034476662636734545230865478515625	0.294020736527938975068963145531597547233104705810546875	78.948623583051897867335355840623378753662109375	6.54999994832043963555179288960061967372894287109375	92.9236111111111000582241103984415531158447265625	3.7262569762474999635060157743282616138458251953125	73.9833335081736009897213079966604709625244140625	0.0	2171.1558729410098749212920665740966796875	6.9106749535	1	1	1	1
1648	S6	2020	3	10	16	49.08746362792120265794437727890908718109130859375	0.264767534699703988021468603619723580777645111083984375	49.14286570019189781532986671663820743560791015625	7.12333334684371966005755894002504646778106689453125	94.472500546773204632700071670114994049072265625	4.60388888137207974438069868483580648899078369140625	44.85000018030400070756513741798698902130126953125	0.0	1306.384844332930015298188664019107818603515625	4.2130833268	1	1	1	1
1649	S6	2020	3	10	17	25.7222787724600010506037506274878978729248046875	0.21475143229795801147474776371382176876068115234375	25.78260791831539933127714903093874454498291015625	7.89083333412806009476980761974118649959564208984375	94.5016671498616034341466729529201984405517578125	4.2169444461663498913139846990816295146942138671875	23.166666831821199679097844636999070644378662109375	0.0	677.8038470695420301126432605087757110595703125	1.4531083415	1	1	1	1
1650	S6	2020	3	10	18	14.3228005201276999969195458106696605682373046875	0.17298796904837498988882771300268359482288360595703125	14.4181074604500008007335054571740329265594482421875	8.4175181319243694844089986872859299182891845703125	93.5069345905832989274131250567734241485595703125	4.10401459462450990400839145877398550510406494140625	9.3833333211175204979781483416445553302764892578125	0.0	272.9761581014209923523594625294208526611328125	-0.39604167	1	1	1	1
1651	S6	2020	3	10	19	0.9050859212875359549599352249060757458209991455078125	0.03826875891536470064568931093162973411381244659423828125	0.9457257688045499488538325749686919152736663818359375	8.60000038146971945707264239899814128875732421875	93.199996948242102234871708787977695465087890625	2.25	0	0.0	0	-1.51163954	1	1	1	0
1652	S6	2020	3	10	20	0	0	0	0	0	0	0	0.0	0	0.0	1	1	1	0
1653	S6	2020	3	10	21	0	0	0	0	0	0	0	0.0	0	0.0	1	1	1	0
1654	S6	2020	3	10	22	0	0	0	0	0	0	0	0.0	0	0.0	1	1	1	0
1655	S6	2020	3	10	23	0	0	0	0	0	0	0	0.0	0	0.0	1	1	1	0
1656	S6	2020	3	10	24	0	0	0	0	0	0	0	0.0	0	0.0	1	1	1	0
1657	S6	2020	3	11	1	0	0	0	0	0	0	0	0.0	0	0.0	1	1	1	0
1658	S6	2020	3	11	2	0	0	0	0	0	0	0	0.0	0	0.0	1	1	1	0
1659	S6	2020	3	11	3	0	0	0	0	0	0	0	0.0	0	0.0	1	1	1	0
1660	S6	2020	3	11	4	0	0	0	0	0	0	0	0.0	0	0.0	1	1	1	0
1661	S6	2020	3	11	5	0	0	0	0	0	0	0	0.0	0	0.0	1	1	1	0
1662	S6	2020	3	11	6	0	0	0	0	0	0	0	0.0	0	0.0	1	1	1	0
1663	S6	2020	3	11	7	14.483861009613800518991411081515252590179443359375	12.59518266012180021107269567437469959259033203125	14.2304838364864991717695374973118305206298828125	6.2647059384514296453971837763674557209014892578125	82.6882357557280016635559150017797946929931640625	4.16470587453922025389374539372511208057403564453125	5.33333337128472972921144901192747056484222412109375	0.0	160.777665139175013564454275183379650115966796875	-1.028875003	1	1	1	0
1664	S6	2020	3	11	8	62.9717496236165032996723311953246593475341796875	99.5780910207578955350982141681015491485595703125	46.68931658003059936845602351240813732147216796875	6.48861118422613980527557941968552768230438232421875	83.5897220187716953887502313591539859771728515625	4.17888889014720010806058780872263014316558837890625	86.783333526303295002435334026813507080078125	0.0	1797.32779065766999337938614189624786376953125	4.5651750088	1	1	1	1
1665	S6	2020	3	11	9	200.92348541169400277794920839369297027587890625	431.14633772623602681051124818623065948486328125	91.8414466677331944310935796238481998443603515625	7.15384616936452033542082062922418117523193359375	81.4139054202469054644097923301160335540771484375	4.51360946170677035382823305553756654262542724609375	324.783333639303009476861916482448577880859375	0.0	7586.7363224426799206412397325038909912109375	17.336500009	1	1	1	1
1666	S6	2020	3	11	10	248.2743508579629860832937993109226226806640625	251.76886032954899974356521852314472198486328125	158.870283011048996968384017236530780792236328125	7.73035141759025012930806042277254164218902587890625	74.654952003552097039573709480464458465576171875	4.57795528177255039992132878978736698627471923828125	354.049997031688008064520545303821563720703125	0.0	8967.5694624582902179099619388580322265625	24.871833309	1	1	1	1
1667	S6	2020	3	11	11	212.532504216293006038540625013411045074462890625	97.99839573454079300063312985002994537353515625	167.96433049769399303841055370867252349853515625	7.890797689648490376157496939413249492645263671875	72.2855829812265966438644682057201862335205078125	4.2481595047412401555675387498922646045684814453125	268.14999977747601178634795360267162322998046875	0.0	6932.700433333709952421486377716064453125	22.326416699	1	1	1	1
1668	S6	2020	3	11	12	370.65314284502397867981926538050174713134765625	306.36477653171999691039673052728176116943359375	215.70161319021400458950665779411792755126953125	8.4705084913868002871595308533869683742523193359375	68.9345762867038018839593860320746898651123046875	4.4155932171870002633795593283139169216156005859375	543.1333320836230313943815417587757110595703125	0.0	13612.772738933499567792750895023345947265625	37.512666559	1	1	1	1
1669	S6	2020	3	11	13	399.990373122386017712415196001529693603515625	360.27291247850399713570368476212024688720703125	211.592028202154011751190409995615482330322265625	8.9519230799797195885503242607228457927703857421875	64.694550978831699694637791253626346588134765625	4.5262820483782295610808432684279978275299072265625	524.4500006238610012587741948664188385009765625	0.0	13477.955764532000102917663753032684326171875	39.00333329	1	1	1	1
1670	S6	2020	3	11	14	503.60941813208802386725437827408313751220703125	801.0007596652609436205239035189151763916015625	112.8336347233159955294468090869486331939697265625	9.6159090670672302536559072905220091342926025390625	59.78664777495639981452768552117049694061279296875	4.49573864669284972706009284593164920806884765625	814.900000890095952854608185589313507080078125	0.0	21107.70139694209865410812199115753173828125	50.806916364	1	1	1	1
1671	S6	2020	3	11	15	422.477372346100992217543534934520721435546875	773.1027121910680079963640309870243072509765625	91.3313455608835056409589014947414398193359375	9.988319049193979282108557526953518390655517578125	59.711396111382299523029359988868236541748046875	4.43019943427495999088705502799712121486663818359375	685.649997989336043247021734714508056640625	0.0	18017.22464164089979021809995174407958984375	44.239833315	1	1	1	1
1672	S6	2020	3	11	16	305.827334828459015625412575900554656982421875	639.7305953736939727605204097926616668701171875	96.2335998667457062083485652692615985870361328125	9.7135837918761094300634795217774808406829833984375	61.93294817312600031300462433136999607086181640625	4.6667629997165196442665546783246099948883056640625	475.749997794627006442169658839702606201171875	0.0	12772.642502188600701629184186458587646484375	34.013941773	1	1	1	1
1673	S6	2020	3	11	17	179.469162306080988855683244764804840087890625	571.1442016080890198281849734485149383544921875	56.06734629128960278876547818072140216827392578125	9.5593314263813997655461207614280283451080322265625	62.64150409114059669946072972379624843597412109375	4.28551532182851957486491301096975803375244140625	292.216666291157025625579990446567535400390625	0.0	7638.395180304840323515236377716064453125	22.039833371	1	1	1	1
1674	S6	2020	3	11	18	45.4365654362571973479134612716734409332275390625	220.032607762017988761726883240044116973876953125	23.4343576113381999448392889462411403656005859375	8.8541666428248095854769417201168835163116455078125	63.6155554665458993213178473524749279022216796875	3.026944446563720081400106209912337362766265869140625	62.43333358628090223874096409417688846588134765625	0.0	1468.9873942484400686225853860378265380859375	4.5985916715	1	1	1	1
1675	S6	2020	3	11	19	6.8298303286234496312090413994155824184417724609375	9.7522929282415393714700257987715303897857666015625	7.03236130305698026177196879871189594268798828125	8.3999998910086492998061657999642193317413330078125	64.6523800804501007633007247932255268096923828125	2.933333334468660069660472800023853778839111328125	0.2333333405355630107980147158741601742804050445556640625	0.0	28.97831184479100130602091667242348194122314453125	-2.115655542	1	1	1	0
1676	S6	2020	3	11	20	0	0	0	0	0	0	0	0.0	0	0.0	1	1	1	0
1677	S6	2020	3	11	21	0	0	0	0	0	0	0	0.0	0	0.0	1	1	1	0
1678	S6	2020	3	11	22	0	0	0	0	0	0	0	0.0	0	0.0	1	1	1	0
1679	S6	2020	3	11	23	0	0	0	0	0	0	0	0.0	0	0.0	1	1	1	0
1680	S6	2020	3	11	24	0	0	0	0	0	0	0	0.0	0	0.0	1	1	1	0
1681	S6	2020	3	12	1	0	0	0	0	0	0	0	0.0	0	0.0	1	1	1	0
1682	S6	2020	3	12	2	0	0	0	0	0	0	0	0.0	0	0.0	1	1	1	0
1683	S6	2020	3	12	3	0	0	0	0	0	0	0	0.0	0	0.0	1	1	1	0
1684	S6	2020	3	12	4	0	0	0	0	0	0	0	0.0	0	0.0	1	1	1	0
1685	S6	2020	3	12	5	0	0	0	0	0	0	0	0.0	0	0.0	1	1	1	0
1686	S6	2020	3	12	6	0	0	0	0	0	0	0	0.0	0	0.0	1	1	1	0
1687	S6	2020	3	12	7	6.61095065486674027255276087089441716670989990234375	0.1110664649334330011942739702135440893471240997314453125	6.7494401396537302417755199712701141834259033203125	8.3387754985264308515979791991412639617919921875	89.0224486370475034391347435303032398223876953125	4.585714276956050383660112856887280941009521484375	2.23333335403972998989274856285192072391510009765625	0.0	47.54402670077980275209483806975185871124267578125	-2.093458342	1	1	1	0
1688	S6	2020	3	12	8	56.0833585539973995537366135977208614349365234375	16.608578899964498987174010835587978363037109375	54.15854188620320286418063915334641933441162109375	8.728048756839779542815449531190097332000732421875	84.5224905052338044697535224258899688720703125	5.330769236753820194962827372364699840545654296875	52.53333336052789803716223104856908321380615234375	0.0	1381.202355027189923930563963949680328369140625	4.1491749777	1	1	1	1
1689	S6	2020	3	12	9	128.61626375016300016795867122709751129150390625	110.0497558413830034851343953050673007965087890625	101.421243458670005566091276705265045166015625	7.55647485204737012765008330461569130420684814453125	81.798939735223797242724685929715633392333984375	5.3273381234930496930246590636670589447021484375	150.850000853338997330865822732448577880859375	0.0	3772.61527739464008845970965921878814697265625	12.487866746	1	1	1	1
1690	S6	2020	3	12	10	187.0298050189840068924240767955780029296875	121.445068231719005780178122222423553466796875	142.50985045451301402863464318215847015380859375	7.19922484907992998870440715108998119831085205078125	76.170881337132897215269622392952442169189453125	6.5934108726738003269929322414100170135498046875	172.23333219687100381634081713855266571044921875	0.0	4659.490717947470329818315804004669189453125	20.533191635	1	1	1	1
1691	S6	2020	3	12	11	243.63905208141699176849215291440486907958984375	85.360448839481506411175359971821308135986328125	202.23217139306001399745582602918148040771484375	6.6366883733055797023325794725678861141204833984375	77.118506716443306459041195921599864959716796875	7.52110390152250030126879210001789033412933349609375	271.78333314756497429698356427252292633056640625	0.0	7182.3080738385497170384041965007781982421875	34.950583172	1	1	1	1
1692	S6	2020	3	12	12	330.3385236837090133121819235384464263916015625	222.981416192272007492647389881312847137451171875	215.1340225995589889862458221614360809326171875	6.67406145297626007817370918928645551204681396484375	73.727457647808506635556113906204700469970703125	7.94368601333566015654241709853522479534149169921875	341.08333239952702342634438537061214447021484375	0.0	9252.225411931680355337448418140411376953125	42.878333394	1	1	1	1
1693	S6	2020	3	12	13	407.56968357138401870543020777404308319091796875	203.09004800873799467808566987514495849609375	298.19663609543800930623547174036502838134765625	6.721575335280530083537087193690240383148193359375	69.7791098764497945694529335014522075653076171875	7.4202054845143603500901008374057710170745849609375	465.6666698555139873860753141343593597412109375	0.0	12139.22711561120013357140123844146728515625	49.029125144	1	1	1	1
1694	S6	2020	3	12	14	439.9651415074760052448255009949207305908203125	434.2468838013199956549215130507946014404296875	223.863900286405993256266810931265354156494140625	6.93122526967948981990730317193083465099334716796875	67.7999999758753943979172618128359317779541015625	7.35889328892522964764566495432518422603607177734375	592.78333385785299469716846942901611328125	0.0	15564.49103852110056322999298572540283203125	45.855249874	1	1	1	1
1695	S6	2020	3	12	15	320.17296164376301703669014386832714080810546875	238.85193825689799496103660203516483306884765625	215.936461424215991655728430487215518951416015625	6.97765568848493966669366272981278598308563232421875	65.9435893327761988302881945855915546417236328125	6.53406591380471990504474888439290225505828857421875	374.0166674678520166708040051162242889404296875	0.0	10318.872075776200290420092642307281494140625	30.041383427	1	1	1	1
1696	S6	2020	3	12	16	255.023522272417011436118627898395061492919921875	260.40999487092000208576791919767856597900390625	163.3517443503100139423622749745845794677734375	7.24483868229772998148519036476500332355499267578125	65.6919352746778031360008753836154937744140625	5.98161292422201995577779598534107208251953125	353.199999034404982012347318232059478759765625	0.0	9482.787721852460890659131109714508056640625	31.825683383	1	1	1	1
1697	S6	2020	3	12	17	174.776736251355004014840233139693737030029296875	372.98664832689200920867733657360076904296875	92.1267668856439030378169263713061809539794921875	7.338243593912959994440825539641082286834716796875	61.79206800595890314298230805434286594390869140625	6.05722378603797029228417159174568951129913330078125	255.06666669001100444802432321012020111083984375	0.0	6795.9251761436398737714625895023345947265625	23.887050009	1	1	1	1
1698	S6	2020	3	12	18	49.70354038609389846214980934746563434600830078125	147.266962804438009015939314849674701690673828125	31.92606818013720015869694179855287075042724609375	6.80166666507720041323636905872263014316558837890625	61.86999950408930004641661071218550205230712890625	5.231111112236970228650534409098327159881591796875	63.8000003450240029678752762265503406524658203125	0.0	1582.494878241169999455451034009456634521484375	6.4969333546	1	1	1	1
1699	S6	2020	3	12	19	5.5655872445357399413978782831691205501556396484375	0.2002921261285479925806640721930307336151599884033203125	5.7176504009648301263268876937218010425567626953125	6.5631578345047802969247641158290207386016845703125	65.8473691438372981110660475678741931915283203125	4.95263157392802977341261794208548963069915771484375	0.500000021808471029061138324323110282421112060546875	0.0	28.088121651671798417737591080367565155029296875	-1.49182979	1	1	1	0
1700	S6	2020	3	12	20	0	0	0	0	0	0	0	0.0	0	0.0	1	1	1	0
1701	S6	2020	3	12	21	0	0	0	0	0	0	0	0.0	0	0.0	1	1	1	0
1702	S6	2020	3	12	22	0	0	0	0	0	0	0	0.0	0	0.0	1	1	1	0
1703	S6	2020	3	12	23	0	0	0	0	0	0	0	0.0	0	0.0	1	1	1	0
1704	S6	2020	3	12	24	0	0	0	0	0	0	0	0.0	0	0.0	1	1	1	0
1705	S6	2020	3	13	1	0	0	0	0	0	0	0	0.0	0	0.0	1	1	1	0
1706	S6	2020	3	13	2	0	0	0	0	0	0	0	0.0	0	0.0	1	1	1	0
1707	S6	2020	3	13	3	0	0	0	0	0	0	0	0.0	0	0.0	1	1	1	0
1708	S6	2020	3	13	4	0	0	0	0	0	0	0	0.0	0	0.0	1	1	1	0
1709	S6	2020	3	13	5	0	0	0	0	0	0	0	0.0	0	0.0	1	1	1	0
1710	S6	2020	3	13	6	0	0	0	0	0	0	0	0.0	0	0.0	1	1	1	0
1711	S6	2020	3	13	7	12.5400946961508008570262973080389201641082763671875	0.47544273154603100550730232498608529567718505859375	12.774870382414899694367704796604812145233154296875	5.53333330154417968316238329862244427204132080078125	82.39333207872169850816135294735431671142578125	4.0211111095216498512172620394267141819000244140625	3.40000002955398006321274806396104395389556884765625	0.0	117.148784788635992981653544120490550994873046875	-1.011766675	1	1	1	0
1712	S6	2020	3	13	8	24.437613873724700397360720671713352203369140625	1.980938318290800026488795992918312549591064453125	24.254880432490299568826230824925005435943603515625	5.02866240215908977262415646691806614398956298828125	89.0006366413869045572937466204166412353515625	3.900955412797860066831390213337726891040802001953125	30.066666672549398953151467139832675457000732421875	0.0	752.8231547757369526152615435421466827392578125	0.6145416661	1	1	1	1
1713	S6	2020	3	13	9	128.461048763151012508387793786823749542236328125	103.47197437543900377932004630565643310546875	103.1227287678079989063917309977114200592041015625	5.7906137476759198534637107513844966888427734375	86.036823258933594615882611833512783050537109375	4.726353791646570101647739647887647151947021484375	118.0666664149610056711026118136942386627197265625	0.0	3077.75871182481978394207544624805450439453125	10.354150023	1	1	1	1
1714	S6	2020	3	13	10	75.0406097369605049607343971729278564453125	1.737499897111419944195631615002639591693878173828125	74.5617167491434003068206948228180408477783203125	5.7264788426143997668305019033141434192657470703125	86.6381616618972003607268561609089374542236328125	4.9794366077637999268290514010004699230194091796875	74.93333353971439692031708545982837677001953125	0.0	2174.28230643271990629727952182292938232421875	6.914399999	1	1	1	1
1715	S6	2020	3	13	11	95.5482260012158945983173907734453678131103515625	0.305223188886721008561409007597831077873706817626953125	95.4930297360032938058793661184608936309814453125	5.43731788018005968154966467409394681453704833984375	89.4697478478695984449586831033229827880859375	4.24502922777544000609850627370178699493408203125	93.949999349812600257791928015649318695068359375	0.0	2758.0118656158401790889911353588104248046875	9.6057499955	1	1	1	1
1716	S6	2020	3	13	12	261.90235223422797616876778192818164825439453125	11.591527180636600036223171628080308437347412109375	254.89251166164700634908513166010379791259765625	6.00672275879802963771680879290215671062469482421875	86.152101062593004598966217599809169769287109375	3.94957982825965014939129105187021195888519287109375	315.8500005801510042147128842771053314208984375	0.0	8655.204219619439754751510918140411376953125	29.364583341	1	1	1	1
1717	S6	2020	3	13	13	331.47750032486402460563112981617450714111328125	167.92559584643498737932532094419002532958984375	239.542459598664009945423458702862262725830078125	6.84935480548489028507219700259156525135040283203125	77.0580645161289936595494509674608707427978515625	3.235161287169300070587496520602144300937652587890625	517.84999395410295619512908160686492919921875	0.0	13532.56655136739937006495893001556396484375	38.184383289	1	1	1	1
1718	S6	2020	3	13	14	317.10363614027602352507528848946094512939453125	138.772221815362996721887611784040927886962890625	244.225416341405008324727532453835010528564453125	7.89203822081255967901824988075532019138336181640625	73.2837576410573063867559540085494518280029296875	3.519108268865350108711709253839217126369476318359375	374.2500004669039981308742426335811614990234375	0.0	9655.054359634710635873489081859588623046875	30.31091671	1	1	1	1
1719	S6	2020	3	13	15	406.21745213537298013761756010353565216064453125	421.0645554885260253286105580627918243408203125	220.107492529826998861608444713056087493896484375	8.6260869431256406159036487224511802196502685546875	71.39632127436499331452068872749805450439453125	4.02943143198721021036590173025615513324737548828125	595.6833340227600501748383976519107818603515625	0.0	16133.6044728755005053244531154632568359375	51.009583251	1	1	1	1
1720	S6	2020	3	13	16	165.280125004077007133673760108649730682373046875	46.51579308785829880434903316199779510498046875	148.1980438695740076582296751439571380615234375	5.8198380894989103495618110173381865024566650390625	86.6303636496848952219806960783898830413818359375	1.70242915510648007426652839058078825473785400390625	169.849999714641995751662761904299259185791015625	0.0	4729.573783278459814027883112430572509765625	14.513574955	1	1	1	1
1721	S6	2020	3	13	17	108.637106252270996264996938407421112060546875	53.41114142852089941015947260893881320953369140625	96.819450568519101807396509684622287750244140625	4.432890400934059726978375692851841449737548828125	81.719269736660606895384262315928936004638671875	3.113289036624049987977969067287631332874298095703125	115.03333356231399875468923710286617279052734375	0.0	3250.3589689731597900390625	12.611658404	1	1	1	1
1722	S6	2020	3	13	18	40.43649421797849896620391518808901309967041015625	119.9111449898729944152364623732864856719970703125	31.003082537651000194500738871283829212188720703125	3.57277779711616982893929161946289241313934326171875	79.8305551740858021503299823962152004241943359375	2.529999991092410027704318054020404815673828125	49.00000036383669765882586943916976451873779296875	0.0	1156.568147242059922064072452485561370849609375	5.7777166561	1	1	1	1
1723	S6	2020	3	13	19	7.51448228836058973456601961515843868255615234375	18.835586708187999960273373289965093135833740234375	7.06524004936218030792360877967439591884613037109375	3.59600001335144003888899533194489777088165283203125	74.288000488281198840923025272786617279052734375	1.9259999954700399715790126720094121992588043212890625	0.81666668023293598199785492397495545446872711181640625	0.0	39.8625801006952968918994884006679058074951171875	-1.492663268	1	1	1	0
1724	S6	2020	3	13	20	0	0	0	0	0	0	0	0.0	0	0.0	1	1	1	0
1725	S6	2020	3	13	21	0	0	0	0	0	0	0	0.0	0	0.0	1	1	1	0
1726	S6	2020	3	13	22	0	0	0	0	0	0	0	0.0	0	0.0	1	1	1	0
1727	S6	2020	3	13	23	0	0	0	0	0	0	0	0.0	0	0.0	1	1	1	0
1728	S6	2020	3	13	24	0	0	0	0	0	0	0	0.0	0	0.0	1	1	1	0
1729	S6	2020	3	14	1	0	0	0	0	0	0	0	0.0	0	0.0	1	1	1	0
1730	S6	2020	3	14	2	0	0	0	0	0	0	0	0.0	0	0.0	1	1	1	0
1731	S6	2020	3	14	3	0	0	0	0	0	0	0	0.0	0	0.0	1	1	1	0
1732	S6	2020	3	14	4	0	0	0	0	0	0	0	0.0	0	0.0	1	1	1	0
1733	S6	2020	3	14	5	0	0	0	0	0	0	0	0.0	0	0.0	1	1	1	0
1734	S6	2020	3	14	6	0	0	0	0	0	0	0	0.0	0	0.0	1	1	1	0
1735	S6	2020	3	14	7	21.523638770386899210507181123830378055572509765625	124.53917125189599346413160674273967742919921875	14.1879420409331000740849049179814755916595458984375	-0.400675686277649989452953604995855130255222320556640625	82.3952701671702953944986802525818347930908203125	0.21351351810468199854398108072928152978420257568359375	8.300000085728239440641118562780320644378662109375	0.0	230.117081330778006531545543111860752105712890625	-1.118341665	1	1	1	0
1736	S6	2020	3	14	8	110.5956679615890010381917818449437618255615234375	512.2644655025200108866556547582149505615234375	32.88024489440059738853960880078375339508056640625	0.67318435675105503523951711031259037554264068603515625	78.66089365868589311503455974161624908447265625	0.459497210117024990072565060472697950899600982666015625	183.53333373864398936348152346909046173095703125	0.0	2880.980956306049847626127302646636962890625	7.3150166879	1	1	1	1
1737	S6	2020	3	14	9	251.5256475236679989393451251089572906494140625	718.0285910712340182726620696485042572021484375	50.738914924197700884178630076348781585693359375	3.27333335081736009897213079966604709625244140625	68.12833311292860116736846975982189178466796875	0.7861111121045210037294737048796378076076507568359375	425.0333348909999813258764334022998809814453125	0.0	9615.947393576299873529933393001556396484375	24.371749926	1	1	1	1
1738	S6	2020	3	14	10	381.594478946261006058193743228912353515625	816.5444168090820085126324556767940521240234375	61.22359767489960091779721551574766635894775390625	4.77111107508341003580198957934044301509857177734375	51.3855554156832994294745731167495250701904296875	1.2363888861404499497353981496416963636875152587890625	595.80000042915298763546161353588104248046875	0.0	15499.027736981699490570463240146636962890625	37.655500078	1	1	1	1
1739	S6	2020	3	14	11	484.79711846245601236660149879753589630126953125	875.0743428548170186331844888627529144287109375	65.63099540074659898891695775091648101806640625	5.74722225666045982706009453977458178997039794921875	42.9538888083562966357931145466864109039306640625	1.5069444395601701014442141968174837529659271240234375	746.2000052134200132059049792587757110595703125	0.0	19516.734592119799344800412654876708984375	43.83358353	1	1	1	1
1740	S6	2020	3	14	12	545.306646135117944140802137553691864013671875	895.1143847995330133926472626626491546630859375	70.6369888729519033176984521560370922088623046875	6.06722222699058999495491661946289241313934326171875	41.67999990251320241441135294735431671142578125	1.6133333293100100558348231061245314776897430419921875	863.85000050067901611328125	0.0	21785.178017616199213080108165740966796875	47.967833249	1	1	1	1
1741	S6	2020	3	14	13	559.12709967834098279126919806003570556640625	886.6504701948430238189757801592350006103515625	77.3348646217820032688905484974384307861328125	6.5392655518095299527203678735531866550445556640625	43.46045207438489654805380268953740596771240234375	1.9607344629232399402241071584285236895084381103515625	885.9166632095970044247223995625972747802734375	0.0	22468.2213147481015766970813274383544921875	49.610750008	1	1	1	1
1742	S6	2020	3	14	14	524.2814827713309568935073912143707275390625	874.286539542574018923914991319179534912109375	73.1984799596107933439270709641277790069580078125	6.37647059785216985261513400473631918430328369140625	48.5408962794711982269291183911263942718505859375	2.6400560219080801971358596347272396087646484375	833.149999380111012214911170303821563720703125	0.0	21461.35009129839818342588841915130615234375	48.076749984	1	1	1	1
1743	S6	2020	3	14	15	453.63247375488202806081972084939479827880859375	835.572124905055943600018508732318878173828125	75.8142506281534025447399471886456012725830078125	6.96055555608537002143521021935157477855682373046875	44.48722241719560344108685967512428760528564453125	2.882500003443820180137890929472632706165313720703125	716.833331187566045628045685589313507080078125	0.0	18877.76843706759973429143428802490234375	45.290333287	1	1	1	1
1744	S6	2020	3	14	16	333.3924713134759940658113919198513031005859375	758.879601203070023984764702618122100830078125	63.9298699590894017319442355073988437652587890625	6.44777781433529018073613769956864416599273681640625	47.06611122555199955286298063583672046661376953125	3.491388886504700028723391369567252695560455322265625	525.299999117851029950543306767940521240234375	0.0	14202.733854452699233661405742168426513671875	34.824666882	1	1	1	1
1745	S6	2020	3	14	17	186.897584491304996845428831875324249267578125	518.396001180012945042108185589313507080078125	64.5753254572550048351331497542560100555419921875	5.82611108356050966250450073857791721820831298828125	49.1094446394178021364496089518070220947265625	3.59555554621748996169117162935435771942138671875	282.2166661421459821212920360267162322998046875	0.0	7535.5762044588600474526174366474151611328125	20.869916638	1	1	1	1
1746	S6	2020	3	14	18	63.31282592349580085056004463694989681243896484375	285.80796962314099118884769268333911895751953125	31.87389118936319931663092575035989284515380859375	4.9422222243414903886105093988589942455291748046875	51.99944428337939683615331887267529964447021484375	3.422222221891079829703130599227733910083770751953125	83.7333333678545983502772287465631961822509765625	0.0	2006.618013605469968752004206180572509765625	7.709166699	1	1	1	1
1747	S6	2020	3	14	19	11.5607372424640999497569282539188861846923828125	73.48419665313150517249596305191516876220703125	10.015829828918899835343836457468569278717041015625	4.14262289297384977970750696840696036815643310546875	56.8786887497197994889575056731700897216796875	3.021311476582380084465739855659194290637969970703125	0.83333335545224596074831424630247056484222412109375	0.0	53.12718655137960155343535006977617740631103515625	-2.412721157	1	1	1	0
1748	S6	2020	3	14	20	0	0	0	0	0	0	0	0.0	0	0.0	1	1	1	0
1749	S6	2020	3	14	21	0	0	0	0	0	0	0	0.0	0	0.0	1	1	1	0
1750	S6	2020	3	14	22	0	0	0	0	0	0	0	0.0	0	0.0	1	1	1	0
1751	S6	2020	3	14	23	0	0	0	0	0	0	0	0.0	0	0.0	1	1	1	0
1752	S6	2020	3	14	24	0	0	0	0	0	0	0	0.0	0	0.0	1	1	1	0
1753	S6	2020	3	15	1	0	0	0	0	0	0	0	0.0	0	0.0	1	1	1	0
1754	S6	2020	3	15	2	0	0	0	0	0	0	0	0.0	0	0.0	1	1	1	0
1755	S6	2020	3	15	3	0	0	0	0	0	0	0	0.0	0	0.0	1	1	1	0
1756	S6	2020	3	15	4	0	0	0	0	0	0	0	0.0	0	0.0	1	1	1	0
1757	S6	2020	3	15	5	0	0	0	0	0	0	0	0.0	0	0.0	1	1	1	0
1758	S6	2020	3	15	6	0	0	0	0	0	0	0	0.0	0	0.0	1	1	1	0
1759	S6	2020	3	15	7	11.8456603478300994680694202543236315250396728515625	13.2124033870006005741970511735416948795318603515625	11.4697925827719000579918429139070212841033935546875	3.91590907898816009691245199064724147319793701171875	70.0386353406039035007779602892696857452392578125	2.882386355237520181304944344446994364261627197265625	7.2333334110832101515597969410009682178497314453125	0.0	189.847266674042003842259873636066913604736328125	-0.688183334	1	1	1	1
1760	S6	2020	3	15	8	61.324615399042698982157162390649318695068359375	0.46963857064644398686681370236328803002834320068359375	61.43732674916579838964025839231908321380615234375	5.00611111852856982551429609884507954120635986328125	67.7833334181043056787530076690018177032470703125	3.215833327836460142634678049944341182708740234375	61.88333323225379700716075603850185871124267578125	0.0	1734.249414006859979053842835128307342529296875	6.8735250254	1	1	1	1
1761	S6	2020	3	15	9	100.4420182016159941440491820685565471649169921875	0.76036148659057001264471864487859420478343963623046875	100.2650475502010039008382591418921947479248046875	5.92555553648206956296462522004730999469757080078125	67.2127781762016951461191638372838497161865234375	3.091388889981640186732647634926252067089080810546875	103.60000052799699687966494821012020111083984375	0.0	2912.01221595208016879041679203510284423828125	10.470041656	1	1	1	1
1762	S6	2020	3	15	10	104.353350363836995029487297870218753814697265625	2.423573408544890117610748347942717373371124267578125	103.3537482155689986029756255447864532470703125	6.69055546919503996150524471886456012725830078125	67.390000194973396219211281277239322662353515625	4.1480555603901496652952118893153965473175048828125	98.083333360652204646612517535686492919921875	0.0	2830.7565296689599563251249492168426513671875	9.9360166768	1	1	1	1
1763	S6	2020	3	15	11	81.1501390669080961970394128002226352691650390625	0.296163971804909997853627601216430775821208953857421875	80.980956522623699811447295360267162322998046875	6.3644444783528602016531294793821871280670166015625	74.152222103542698050659964792430400848388671875	4.27027779022852005397226093919016420841217041015625	78.6000005900859974872219027020037174224853515625	0.0	2303.43548655509994205203838646411895751953125	7.0176333368	1	1	1	1
1764	S6	2020	3	15	12	159.30809396107900965944281779229640960693359375	0.5856805026531219926511084850062616169452667236328125	158.808736907111011760207475163042545318603515625	7.23444442484113015012781033874489367008209228515625	72.112221908569296147106797434389591217041015625	3.883055555158189786624234329792670905590057373046875	152.733333905537989494405337609350681304931640625	0.0	4387.680203715959578403271734714508056640625	17.629333337	1	1	1	1
1765	S6	2020	3	15	13	175.2413828743819976807571947574615478515625	0.51427425930483394722614320926368236541748046875	174.570326148139002953030285425484180450439453125	8.0266667233572999151647309190593659877777099609375	69.6294437832302008928309078328311443328857421875	4.088888890544570386964551289565861225128173828125	165.316665917634992410967242904007434844970703125	0.0	4839.735727508859781664796173572540283203125	19.273166585	1	1	1	1
1766	S6	2020	3	15	14	141.327557669745004886863171122968196868896484375	0.44128420438824400573452066964819096028804779052734375	140.788394122652988471600110642611980438232421875	8.4305555396609808127550422796048223972320556640625	70.63722284105080007066135294735431671142578125	4.488333336181110411189365549944341182708740234375	134.916666646798006468088715337216854095458984375	0.0	3967.94951061407982706441543996334075927734375	14.356383316	1	1	1	1
1767	S6	2020	3	15	15	115.799073770310997133492492139339447021484375	0.392393577988775998921511245498550124466419219970703125	115.5168595843839938197561423294246196746826171875	8.899444511201640040098936879076063632965087890625	69.024999915228903546449146233499050140380859375	4.77416667441527042825555326999165117740631103515625	107.9833332449189953194945701397955417633056640625	0.0	3152.49829441308020250289700925350189208984375	11.723033337	1	1	1	1
1768	S6	2020	3	15	16	67.1520472155676060310725006274878978729248046875	0.251848160175399016225128434598445892333984375	67.17182338502669836088898591697216033935546875	9.1144445101420092925081917201168835163116455078125	71.4694441477457047540156054310500621795654296875	4.2372222115596098745982089894823729991912841796875	60.4166669460634011556976474821567535400390625	0.0	1767.244808375829961732961237430572509765625	5.9469000004	1	1	1	1
1769	S6	2020	3	15	17	58.43470078574279824579207343049347400665283203125	0.29824592081001999321898665584740228950977325439453125	58.53498508135469791113791870884597301483154296875	9.6383333206176704521794817992486059665679931640625	67.9255554623074004894078825600445270538330078125	3.9069444351726101416488745599053800106048583984375	55.016666712860200050272396765649318695068359375	0.0	1539.996631691850097922724671661853790283203125	4.8982500101	1	1	1	1
1770	S6	2020	3	15	18	28.51961346671109964745483011938631534576416015625	0.401822753314279024206001622587791644036769866943359375	28.695438585729601044249648111872375011444091796875	10.424501405482200055985231301747262477874755859375	66.7082622343317979130006278865039348602294921875	3.637891732729389815403919783420860767364501953125	23.866667018349598805571076809428632259368896484375	0.0	664.0791758274050380350672639906406402587890625	1.4112416636	1	1	1	1
1771	S6	2020	3	15	19	1.6491939696398600911919629652402363717555999755859375	0.14954971420493901046455675896140746772289276123046875	1.7045374891974700570784762021503411233425140380859375	10.763636415654900702065788209438323974609375	65.5454538518732050533799338154494762420654296875	4.08181821216235984906006706296466290950775146484375	0.0166666674582915987079534403392244712449610233306884765625	0.0	0.8715400161842510318166432625730521976947784423828125	-1.984314811	1	1	1	0
1772	S6	2020	3	15	20	0	0	0	0	0	0	0	0.0	0	0.0	1	1	1	0
1773	S6	2020	3	15	21	0	0	0	0	0	0	0	0.0	0	0.0	1	1	1	0
1774	S6	2020	3	15	22	0	0	0	0	0	0	0	0.0	0	0.0	1	1	1	0
1775	S6	2020	3	15	23	0	0	0	0	0	0	0	0.0	0	0.0	1	1	1	0
1776	S6	2020	3	15	24	0	0	0	0	0	0	0	0.0	0	0.0	1	1	1	0
1777	S6	2020	3	16	1	0	0	0	0	0	0	0	0.0	0	0.0	1	1	1	0
1778	S6	2020	3	16	2	0	0	0	0	0	0	0	0.0	0	0.0	1	1	1	0
1779	S6	2020	3	16	3	0	0	0	0	0	0	0	0.0	0	0.0	1	1	1	0
1780	S6	2020	3	16	4	0	0	0	0	0	0	0	0.0	0	0.0	1	1	1	0
1781	S6	2020	3	16	5	0	0	0	0	0	0	0	0.0	0	0.0	1	1	1	0
1782	S6	2020	3	16	6	0	0	0	0	0	0	0	0.0	0	0.0	1	1	1	0
1783	S6	2020	3	16	7	5.8176564391668801334844829398207366466522216796875	0.18570434852494799304878370094229467213153839111328125	6.02932920864035981622919280198402702808380126953125	8.0117118294174591852652156376279890537261962890625	90.9414406853752979031924041919410228729248046875	2.591891890710530166330727297463454306125640869140625	2.13333339003535993327886899351142346858978271484375	0.0	57.93787836252389666924500488676130771636962890625	-1.925616662	1	1	1	1
1784	S6	2020	3	16	8	31.131540919301098568894303753040730953216552734375	0.2185863765471340036672387441285536624491214752197265625	31.428810661674500437356982729397714138031005859375	7.87549867385472968095427859225310385227203369140625	90.7170940301356978352487203665077686309814453125	2.313960112567639892944271196029148995876312255859375	29.15000012144439978101218002848327159881591796875	0.0	788.2097286793090233913972042500972747802734375	1.4289416695	1	1	1	1
1785	S6	2020	3	16	9	229.359997908724011494996375404298305511474609375	485.9826225431539796772995032370090484619140625	81.485349174261699545240844599902629852294921875	8.439943286582359149861076730303466320037841796875	87.180736120294199054114869795739650726318359375	2.388385267163129821454958801041357219219207763671875	353.75000070780498617750708945095539093017578125	0.0	8715.3562724590301513671875	23.268791631	1	1	1	1
1786	S6	2020	3	16	10	348.40091152079600078650400973856449127197265625	596.562752610180950796348042786121368408203125	112.147445187930998145020566880702972412109375	9.3997076324552093495867666206322610378265380859375	80.726607964052703891866258345544338226318359375	2.714327478530810022760988431400619447231292724609375	483.85000154376001546552288345992565155029296875	0.0	12424.08747176319957361556589603424072265625	35.285749984	1	1	1	1
1787	S6	2020	3	16	11	235.568087633232011057771160267293453216552734375	70.729951397074302121836808510124683380126953125	200.22015217539001241675578057765960693359375	9.1788990854852396950036563794128596782684326171875	78.8685017390352953725596307776868343353271484375	2.6085626860277297822676700889132916927337646484375	238.65000034371900028418167494237422943115234375	0.0	6568.5517082611695514060556888580322265625	21.861999885	1	1	1	1
1788	S6	2020	3	16	12	165.979747221204007701089722104370594024658203125	0.96191315710958502638305844811839051544666290283203125	165.0843336529200087170465849339962005615234375	8.5874999682108494880594662390649318695068359375	78.2750001271565025717791286297142505645751953125	2.274722223480539984308279599645175039768218994140625	165.866665666301997816844959743320941925048828125	0.0	4747.6917475461896174238063395023345947265625	17.595833389	1	1	1	1
1789	S6	2020	3	16	13	227.343673027886012505405233241617679595947265625	3.79424510579555995803957557654939591884613037109375	224.438481521606007618174771778285503387451171875	9.1966667334238696440706917201168835163116455078125	73.9558334986368066665818332694470882415771484375	2.6352777745988600344162477995269000530242919921875	216.433334350584999583588796667754650115966796875	0.0	6137.7679208914296395960263907909393310546875	24.753416697	1	1	1	1
1790	S6	2020	3	16	14	166.456583425732986825096304528415203094482421875	0.442529093619021984817862858108128421008586883544921875	165.800627030266014116932637989521026611328125	8.7924999316533405391282940399833023548126220703125	76.420000139872200861645978875458240509033203125	2.085555553932980199505209384369663894176483154296875	152.08333395421499290023348294198513031005859375	0.0	4427.3823787768697002320550382137298583984375	15.76499993	1	1	1	1
1791	S6	2020	3	16	15	126.9119488610160004782301257364451885223388671875	0.3011309515477880172085178855923004448413848876953125	126.92869622972199294963502325117588043212890625	8.61750012238820062293598311953246593475341796875	75.9533333460488933042142889462411403656005859375	2.04888888340857011627349493210203945636749267578125	117.2666668891900059179533855058252811431884765625	0.0	3429.9333999554301044554449617862701416015625	14.721833356	1	1	1	1
1792	S6	2020	3	16	16	134.94127004411399184391484595835208892822265625	0.34991375670975199962953183785430155694484710693359375	134.859705755444991837066481821238994598388671875	8.63750003973643032395557384006679058074951171875	75.337500000000005684341886080801486968994140625	2.41861110760105990635793205001391470432281494140625	126.1000001182149929945808253251016139984130859375	0.0	3585.45898199081011625821702182292938232421875	15.196166643	1	1	1	1
1793	S6	2020	3	16	17	121.43152247534800380890374071896076202392578125	9.8851408687316695278468614560551941394805908203125	119.5020885679449946792374248616397380828857421875	8.85583335558573025991790927946567535400390625	73.402499771118101534739253111183643341064453125	1.9041666645142700797777024490642361342906951904296875	121.6000005602829929785002605058252811431884765625	0.0	3367.75481253862017183564603328704833984375	12.780091695	1	1	1	1
1794	S6	2020	3	16	18	56.97050605841040038512801402248442173004150390625	57.5422998116114996491887723095715045928955078125	50.71591379215990258444435312412679195404052734375	8.7747800916520706238088678219355642795562744140625	73.2407621456381008329117321409285068511962890625	1.26011729965811003495446129818446934223175048828125	57.0166666526344982912632985971868038177490234375	0.0	1521.887219573060065158642828464508056640625	4.8882833534	1	1	1	1
1795	S6	2020	3	16	19	10.2985062069363006997946285991929471492767333984375	0.0286299773918775000980385669890893041156232357025146484375	10.6806806988186000495488769956864416599273681640625	8.0777779685126400721628669998608529567718505859375	75.955555386013401175659964792430400848388671875	0.9555555681387579713970126249478198587894439697265625	0.8833333423050759858341507424484007060527801513671875	0.0	64.667109780323897894049878232181072235107421875	-3.625062492	1	1	1	0
1796	S6	2020	3	16	20	0	0	0	0	0	0	0	0.0	0	0.0	1	1	1	0
1797	S6	2020	3	16	21	0	0	0	0	0	0	0	0.0	0	0.0	1	1	1	0
1798	S6	2020	3	16	22	0	0	0	0	0	0	0	0.0	0	0.0	1	1	1	0
1799	S6	2020	3	16	23	0	0	0	0	0	0	0	0.0	0	0.0	1	1	1	0
1800	S6	2020	3	16	24	0	0	0	0	0	0	0	0.0	0	0.0	1	1	1	0
1801	S6	2020	3	17	1	0	0	0	0	0	0	0	0.0	0	0.0	1	1	1	0
1802	S6	2020	3	17	2	0	0	0	0	0	0	0	0.0	0	0.0	1	1	1	0
1803	S6	2020	3	17	3	0	0	0	0	0	0	0	0.0	0	0.0	1	1	1	0
1804	S6	2020	3	17	4	0	0	0	0	0	0	0	0.0	0	0.0	1	1	1	0
1805	S6	2020	3	17	5	0	0	0	0	0	0	0	0.0	0	0.0	1	1	1	0
1806	S6	2020	3	17	6	0	0	0	0	0	0	0	0.0	0	0.0	1	1	1	0
1807	S6	2020	3	17	7	9.9974905504307205461600460694171488285064697265625	0.1764486084731529957903006788910715840756893157958984375	10.1022590102164002701101708225905895233154296875	6.19906099077681016495944277266971766948699951171875	77.0220659641033051912017981521785259246826171875	2.459154925435920180376569987856782972812652587890625	6.2166667174703196252494308282621204853057861328125	0.0	162.716382741926992139269714243710041046142578125	-0.961591668	1	1	1	1
1808	S6	2020	3	17	8	44.51687406433949689699147711507976055145263671875	0.254183830548490974354791660516639240086078643798828125	44.6262541082169974515636567957699298858642578125	6.441666662693020128926946199499070644378662109375	76.4691665649414034078290569595992565155029296875	2.35861111134290002411262321402318775653839111328125	45.3000000367562023484424571506679058074951171875	0.0	1257.076176007579988436191342771053314208984375	3.9945583269	1	1	1	1
1809	S6	2020	3	17	9	164.85737024943000506027601659297943115234375	110.1107113724469996896004886366426944732666015625	126.91114133198999525120598264038562774658203125	7.151666740576420266961576999165117740631103515625	74.4408329645792008477656054310500621795654296875	2.379722215483579983441586591652594506740570068359375	212.0000000422199946115142665803432464599609375	0.0	5653.1856924295498174615204334259033203125	18.054741625	1	1	1	1
1810	S6	2020	3	17	10	204.358328755695993095287121832370758056640625	36.86726949368080141766768065281212329864501953125	189.483428404065989525406621396541595458984375	8.3083333492278992338242460391484200954437255859375	70.8783333460489046728980611078441143035888671875	3.218333329757049998676166069344617426395416259765625	213.216666504740004484119708649814128875732421875	0.0	5756.1481803655597104807384312152862548828125	21.170358276	1	1	1	1
1811	S6	2020	3	17	11	262.84842872619600484540569595992565155029296875	9.048634719765839662386497366242110729217529296875	256.71171485053099559081601910293102264404296875	9.114166665077210183198985760100185871124267578125	70.974166170756006977171637117862701416015625	2.84777777343987992253460106439888477325439453125	292.183333386976983092608861625194549560546875	0.0	8022.519697745619851048104465007781982421875	27.217249886	1	1	1	1
1812	S6	2020	3	17	12	391.682070583766972049488686025142669677734375	81.187166965173304333802661858499050140380859375	342.96516596476197946685715578496456146240234375	10.4791666507719991585645402665250003337860107421875	67.4775001525878934671709430404007434844970703125	3.056111101640590188566193319275043904781341552734375	480.4000005125980123921181075274944305419921875	0.0	12850.403326749799816752783954143524169921875	39.139083449	1	1	1	1
1813	S6	2020	3	17	13	341.92754965439399938986753113567829132080078125	18.53986422273440126673449412919580936431884765625	328.225160476556993671692907810211181640625	10.7487465717666008657715792651288211345672607421875	62.981894107914200731102027930319309234619140625	3.613927573878779941907168904435820877552032470703125	360.20000055432302588087623007595539093017578125	0.0	9878.582261006029511918313801288604736328125	35.289333359	1	1	1	1
1814	S6	2020	3	17	14	287.1582048204210195763153024017810821533203125	4.56121724910205994518719307961873710155487060546875	283.113993453978991965414024889469146728515625	10.6891666968662999437356120324693620204925537109375	65.8141658782958955953290569595992565155029296875	3.33277778542703995157125973491929471492767333984375	297.01666658123298248028731904923915863037109375	0.0	8327.6763836542595527134835720062255859375	30.109000047	1	1	1	1
1815	S6	2020	3	17	15	183.136065631441994128181249834597110748291015625	4.509993349553809593999176286160945892333984375	180.23596498701300561151583679020404815673828125	10.5783334016799006604969690670259296894073486328125	68.229166285196896524212206713855266571044921875	3.3086111050513000719774936442263424396514892578125	177.56666640440499804753926582634449005126953125	0.0	5038.9130493005095559055916965007781982421875	18.401083318	1	1	1	1
1816	S6	2020	3	17	16	199.335062111747987501075840555131435394287109375	58.3440300210481979092946858145296573638916015625	178.0578438864810095765278674662113189697265625	10.5866666555403998728479564306326210498809814453125	69.5916667938231938705939683131873607635498046875	3.071666666865339845315929778735153377056121826171875	227.7500007301559890038333833217620849609375	0.0	6339.4760012626602474483661353588104248046875	22.354249946	1	1	1	1
1817	S6	2020	3	17	17	106.523385719999993170858942903578281402587890625	33.71746361034610117712873034179210662841796875	96.8931327649809048807583167217671871185302734375	10.0008356949744996455820000846870243549346923828125	74.3270193115913997417010250501334667205810546875	3.689693592717050218965368912904523313045501708984375	115.4500008250270042253760038875043392181396484375	0.0	3119.2516098419700938393361866474151611328125	9.6783750037	1	1	1	1
1818	S6	2020	3	17	18	21.678724495569799302074898150749504566192626953125	0.1439370336838889929964580005616880953311920166015625	21.70557528071930164514924399554729461669921875	9.480833379427590301702366559766232967376708984375	77.847500546773204632700071670114994049072265625	3.535277775923410192859819289878942072391510009765625	17.8166667038263994982116855680942535400390625	0.0	500.1266113482409991775057278573513031005859375	0.4228916648	1	1	1	1
1819	S6	2020	3	17	19	3.126456679649720182823102732072584331035614013671875	0.10399581336425299527004284527720301412045955657958984375	3.185288803091320009031051085912622511386871337890625	9.2388349551599002751345324213616549968719482421875	80.0708736678928971741697750985622406005859375	3.192233012717899942600752183352597057819366455078125	0.466666686891890003519023366607143543660640716552734375	0.0	12.71259660522139967042676289565861225128173828125	-1.925801726	1	1	1	0
1820	S6	2020	3	17	20	0	0	0	0	0	0	0	0.0	0	0.0	1	1	1	0
1821	S6	2020	3	17	21	0	0	0	0	0	0	0	0.0	0	0.0	1	1	1	0
1822	S6	2020	3	17	22	0	0	0	0	0	0	0	0.0	0	0.0	1	1	1	0
1823	S6	2020	3	17	23	0	0	0	0	0	0	0	0.0	0	0.0	1	1	1	0
1824	S6	2020	3	17	24	0	0	0	0	0	0	0	0.0	0	0.0	1	1	1	0
1825	S6	2020	3	18	1	0	0	0	0	0	0	0	0.0	0	0.0	1	1	1	0
1826	S6	2020	3	18	2	0	0	0	0	0	0	0	0.0	0	0.0	1	1	1	0
1827	S6	2020	3	18	3	0	0	0	0	0	0	0	0.0	0	0.0	1	1	1	0
1828	S6	2020	3	18	4	0	0	0	0	0	0	0	0.0	0	0.0	1	1	1	0
1829	S6	2020	3	18	5	0	0	0	0	0	0	0	0.0	0	0.0	1	1	1	0
1830	S6	2020	3	18	6	0	0	0	0	0	0	0	0.0	0	0.0	1	1	1	0
1831	S6	2020	3	18	7	10.2033741981424999067940007080323994159698486328125	0.1817035761602379950740981939816265366971492767333984375	10.259182785926899583728300058282911777496337890625	9.03276593634421942624612711369991302490234375	77.014467864340900860042893327772617340087890625	4.23234042512608965580511721782386302947998046875	7.20000008780819999998357161530293524265289306640625	0.0	190.863764449021999780597980134189128875732421875	-1.102474996	1	1	1	1
1832	S6	2020	3	18	8	29.7777418454488014276648755185306072235107421875	0.71201962872097801504622793800081126391887664794921875	29.7666187842686014164428343065083026885986328125	9.19416650931039924898868775926530361175537109375	77.2175000508625970496723311953246593475341796875	4.30388887590831981100336633971892297267913818359375	28.86666660197069944615577696822583675384521484375	0.0	794.0408299366639539584866724908351898193359375	1.8351250093	1	1	1	1
1833	S6	2020	3	18	9	78.271003818511900362864253111183643341064453125	0.281350412240457981027930145501159131526947021484375	78.24411632749769296424346975982189178466796875	9.2233333190282191793585298000834882259368896484375	80.46416664123529471908113919198513031005859375	4.39833333856528962968468476901762187480926513671875	74.283333557347503983692149631679058074951171875	0.0	2082.39226192235992130008526146411895751953125	7.7973166843	1	1	1	1
1834	S6	2020	3	18	10	101.817342472076006743009202182292938232421875	0.332165697134203019569298476199037395417690277099609375	101.6714991887409951232257299125194549560546875	9.6483334302902203916119105997495353221893310546875	81.757500076293894153423025272786617279052734375	4.33500000337758972790425104903988540172576904296875	94.20000041524559719618991948664188385009765625	0.0	2715.35128951072010750067420303821563720703125	10.833691669	1	1	1	1
1835	S6	2020	3	18	11	72.2443463537427987830596975982189178466796875	0.250641794212989987844508732450776733458042144775390625	72.1022977828979065861858543939888477325439453125	9.6900000333786007189473821199499070644378662109375	84.5866668065389006869736476801335811614990234375	3.919999997814489933745107919094152748584747314453125	65.4500002662339994685680721886456012725830078125	0.0	1907.604603469369976664893329143524169921875	6.655066665	1	1	1	1
1836	S6	2020	3	18	12	75.8409152242872011129293241538107395172119140625	0.2617560813203450020836271505686454474925994873046875	75.5872675365871060648714774288237094879150390625	9.4783332506815600737581917201168835163116455078125	87.593333244323702047040569595992565155029296875	3.898611111111109917004569069831632077693939208984375	69.883333457012895451043732464313507080078125	0.0	2029.2967587709399595041759312152862548828125	6.9268916508	1	1	1	1
1837	S6	2020	3	18	13	50.41606125831599882758382591418921947479248046875	0.236285937204956997259586159998434595763683319091796875	50.24588960011799798621723311953246593475341796875	9.60666674772897977163665927946567535400390625	88.8183339436848058312534703873097896575927734375	3.556111111243560163330812429194338619709014892578125	46.28333346918220314591962960548698902130126953125	0.0	1349.30552070338990233722142875194549560546875	3.9250416592	1	1	1	1
1838	S6	2020	3	18	14	44.79445418363769704228616319596767425537109375	0.1938223474659379885753907046819222159683704376220703125	44.6951232874614987622408079914748668670654296875	9.7534161147123494828292677993886172771453857421875	89.1211182730537956331318127922713756561279296875	3.03509316181543997714697979972697794437408447265625	41.90000003824619767556214355863630771636962890625	0.0	1247.84464513261991669423878192901611328125	3.0038499986	1	1	1	1
1839	S6	2020	3	18	15	101.5316225051870020479327649809420108795166015625	0.38149916700397901170305203777388669550418853759765625	101.4360110600780018330624443478882312774658203125	9.812500063578280418141730478964745998382568359375	89.1791667302449013732257299125194549560546875	2.934166668852169923553674379945732653141021728515625	93.583333492278796938990126363933086395263671875	0.0	2745.3640331824599343235604465007781982421875	10.396441706	1	1	1	1
1840	S6	2020	3	18	16	42.7159112877315010337042622268199920654296875	0.1599005832776629887348462943919003009796142578125	42.88976244926450220873448415659368038177490234375	10.084166717529200241187936626374721527099609375	85.6833339055379070714479894377291202545166015625	2.583611108031529823847449733875691890716552734375	36.58333343143250004914079909212887287139892578125	0.0	1085.452387978629985809675417840480804443359375	4.254691676	1	1	1	1
1841	S6	2020	3	18	17	45.5824322537012989187132916413247585296630859375	0.189388984167349005982572407447150908410549163818359375	45.74549655369349920874810777604579925537109375	9.5034285599844796621482601040042936801910400390625	86.8937144470213951308323885314166545867919921875	2.3142857113906298849315135157667100429534912109375	41.38333367494239922734777792356908321380615234375	0.0	1234.546254451069899005233310163021087646484375	3.5280916686	1	1	1	1
1842	S6	2020	3	18	18	32.4871981938679965651317615993320941925048828125	0.208122936698297011925973265533684752881526947021484375	32.8224221653407965959559078328311443328857421875	9.209166693687439675386485760100185871124267578125	83.6716663360595021003973670303821563720703125	2.13583333227369021045660701929591596126556396484375	27.716666351382901467559349839575588703155517578125	0.0	814.319525596996982130804099142551422119140625	2.0879999934	1	1	1	1
1843	S6	2020	3	18	19	6.66219535626863024191379736294038593769073486328125	0.0637541959356320020457786768020014278590679168701171875	6.79086564089122024512334974133409559726715087890625	8.9710528223138101822087264736182987689971923828125	83.0052640814530064972132095135748386383056640625	2.11315791230452010296403386746533215045928955078125	1.13333335805995005785007379017770290374755859375	0.0	51.2249317097788008368297596462070941925048828125	-1.698724996	1	1	1	0
1844	S6	2020	3	18	20	0	0	0	0	0	0	0	0.0	0	0.0	1	1	1	0
1845	S6	2020	3	18	21	0	0	0	0	0	0	0	0.0	0	0.0	1	1	1	0
1846	S6	2020	3	18	22	0	0	0	0	0	0	0	0.0	0	0.0	1	1	1	0
1847	S6	2020	3	18	23	0	0	0	0	0	0	0	0.0	0	0.0	1	1	1	0
1848	S6	2020	3	18	24	0	0	0	0	0	0	0	0.0	0	0.0	1	1	1	0
1849	S6	2020	3	19	1	0	0	0	0	0	0	0	0.0	0	0.0	1	1	1	0
1850	S6	2020	3	19	2	0	0	0	0	0	0	0	0.0	0	0.0	1	1	1	0
1851	S6	2020	3	19	3	0	0	0	0	0	0	0	0.0	0	0.0	1	1	1	0
1852	S6	2020	3	19	4	0	0	0	0	0	0	0	0.0	0	0.0	1	1	1	0
1853	S6	2020	3	19	5	0	0	0	0	0	0	0	0.0	0	0.0	1	1	1	0
1854	S6	2020	3	19	6	0	0	0	0	0	0	0	0.0	0	0.0	1	1	1	0
1855	S6	2020	3	19	7	14.191807731851799445621509221382439136505126953125	0.163284357519701994743144268795731477439403533935546875	14.41711167387060044120516977272927761077880859375	5.65765757174105043958434180240146815776824951171875	86.77702713012689628158113919198513031005859375	1.74144143940092011035858376999385654926300048828125	7.53333333996121989883931746589951217174530029296875	0.0	223.8608164402349984811735339462757110595703125	-0.770783333	1	1	1	1
1856	S6	2020	3	19	8	110.20323784086400564774521626532077789306640625	281.18517959904801273296470753848552703857421875	53.22969799041739946687812334857881069183349609375	6.03249999284744031768923377967439591884613037109375	85.4766665140787011978318332694470882415771484375	1.7341666665342099218349858347210101783275604248046875	159.21666696667699625322711654007434844970703125	0.0	2979.64484170079003888531588017940521240234375	9.190099982	1	1	1	1
1857	S6	2020	3	19	9	265.20012198554098858949146233499050140380859375	511.993588850232981712906621396541595458984375	103.1926182852849933624383993446826934814453125	7.35000002781549977015629337984137237071990966796875	79.707500012715598813883843831717967987060546875	1.65194444234171999852378576179035007953643798828125	387.9666666189820034560398198664188385009765625	0.0	9596.14835977553957491181790828704833984375	27.282416582	1	1	1	1
1858	S6	2020	3	19	10	415.3158729704509823932312428951263427734375	600.90106813495594906271435320377349853515625	157.01922075741600792753160931169986724853515625	8.458640252564510575439271633513271808624267578125	72.6048157991835978464223444461822509765625	1.611614728953270070377357114921323955059051513671875	594.0166714290779736984404735267162322998046875	0.0	15182.009849945699897943995893001556396484375	42.430916484	1	1	1	1
1859	S6	2020	3	19	11	504.63251842554001314056222327053546905517578125	678.5873417066489992066635750234127044677734375	155.768579676531004452044726349413394927978515625	9.2142028587451800802909929188899695873260498046875	66.422608483355901398681453429162502288818359375	1.4933333304481199999003138145781122148036956787109375	731.983331839242964633740484714508056640625	0.0	18573.1530348458982189185917377471923828125	47.55308334	1	1	1	1
1860	S6	2020	3	19	12	568.283933541433952996158041059970855712890625	801.368991342272011024761013686656951904296875	116.3595610264359976326886680908501148223876953125	9.426000003814689165437812334857881069183349609375	63.5608572714669008973942254669964313507080078125	2.4131428546564901438387096277438104152679443359375	890.8833374579750170596526004374027252197265625	0.0	22422.817500432298402301967144012451171875	56.611166382	1	1	1	1
1861	S6	2020	3	19	13	586.4258939954969491736846975982189178466796875	854.9506066216359840836958028376102447509765625	93.9982444975110951190799823962152004241943359375	9.959166693687439675386485760100185871124267578125	60.34083344141640026236927951686084270477294921875	2.143888884286079932195434594177640974521636962890625	907.40000009536697689327411353588104248046875	0.0	23058.9633464813014143146574497222900390625	57.701083406	1	1	1	1
1862	S6	2020	3	19	14	557.017559729682034230791032314300537109375	845.5142457750099538316135294735431671142578125	93.9789351357353979210529359988868236541748046875	10.2083333333333001746723311953246593475341796875	58.6983334859211964840142172761261463165283203125	2.154444439046910186874583814642392098903656005859375	860.383331775665055829449556767940521240234375	0.0	21999.58626429240030120126903057098388671875	55.394583384	1	1	1	1
1863	S6	2020	3	19	15	467.91997858683197364371153526008129119873046875	782.1776578267409831823897548019886016845703125	90.914989895290801769078825600445270538330078125	10.2458333174387004049776805914007127285003662109375	59.85000019073479649023283855058252811431884765625	1.8099999948508200819929925273754633963108062744140625	710.63332855701401058468036353588104248046875	0.0	18627.2913773854015744291245937347412109375	46.563500007	1	1	1	1
1864	S6	2020	3	19	16	374.924642323783018582616932690143585205078125	679.760599502945979111245833337306976318359375	115.404278768469993110556970350444316864013671875	10.1668523878771992485781083814799785614013671875	59.838718977479203431357746012508869171142578125	1.718662950487849894187775134923867881298065185546875	540.1999995112420265286345966160297393798828125	0.0	14552.6666998863001936115324497222900390625	40.011166652	1	1	1	1
1865	S6	2020	3	19	17	183.57605859968299455431406386196613311767578125	338.63640774157300938895787112414836883544921875	100.5096973843040046858732239343225955963134765625	9.53583332697549934664493775926530361175537109375	60.58833325703930228200988494791090488433837890625	1.52694444540474005833630144479684531688690185546875	250.283334900934988809240167029201984405517578125	0.0	6697.6152469714497783570550382137298583984375	19.898591717	1	1	1	1
1866	S6	2020	3	19	18	77.3226753552753933718122425489127635955810546875	170.761076400015014087330200709402561187744140625	53.23737663692890009770053438842296600341796875	8.8799999554951991598272798000834882259368896484375	62.637500127156499729608185589313507080078125	1.29833333392936989270083358860574662685394287109375	84.2500004296500009104420314542949199676513671875	0.0	2204.2724707474199021817184984683990478515625	8.4545750173	1	1	1	1
1867	S6	2020	3	19	19	15.225374091298899514868026017211377620697021484375	10.81951565491520028672312037087976932525634765625	15.2055128699853998597291138139553368091583251953125	8.0726317355507202222497653565369546413421630859375	65.52842126143599443821585737168788909912109375	1.2694736828929500394025353671167977154254913330078125	2.616666709460929940433970841695554554462432861328125	0.0	115.1182750317569940534667694009840488433837890625	-2.021458339	1	1	1	0
1868	S6	2020	3	19	20	0	0	0	0	0	0	0	0.0	0	0.0	1	1	1	0
1869	S6	2020	3	19	21	0	0	0	0	0	0	0	0.0	0	0.0	1	1	1	0
1870	S6	2020	3	19	22	0	0	0	0	0	0	0	0.0	0	0.0	1	1	1	0
1871	S6	2020	3	19	23	0	0	0	0	0	0	0	0.0	0	0.0	1	1	1	0
1872	S6	2020	3	19	24	0	0	0	0	0	0	0	0.0	0	0.0	1	1	1	0
1873	S6	2020	3	20	1	0	0	0	0	0	0	0	0.0	0	0.0	1	1	1	0
1874	S6	2020	3	20	2	0	0	0	0	0	0	0	0.0	0	0.0	1	1	1	0
1875	S6	2020	3	20	3	0	0	0	0	0	0	0	0.0	0	0.0	1	1	1	0
1876	S6	2020	3	20	4	0	0	0	0	0	0	0	0.0	0	0.0	1	1	1	0
1877	S6	2020	3	20	5	0	0	0	0	0	0	0	0.0	0	0.0	1	1	1	0
1878	S6	2020	3	20	6	0	0	0	0	0	0	0	0.0	0	0.0	1	1	1	0
1879	S6	2020	3	20	7	18.48467615956349874295483459718525409698486328125	0.217751445307854007982228949913405813276767730712890625	18.7041546579390995930225471965968608856201171875	4.75714283519320968451893349993042647838592529296875	85.28333291553309436494600959122180938720703125	1.8670634952565900999132963988813571631908416748046875	12.4666667213507995626287083723582327365875244140625	0.0	378.6016501020629902996006421744823455810546875	-0.044024999	1	1	1	1
1880	S6	2020	3	20	8	87.0802802721658935070081497542560100555419921875	82.6361113289992061936573009006679058074951171875	68.3923205375671017236527404747903347015380859375	4.97166672547658006209303493960760533809661865234375	84.55999997456859773592441342771053314208984375	1.845833324061489921774636968621052801609039306640625	106.1166663964580010315330582670867443084716796875	0.0	2525.17815778651993241510353982448577880859375	9.0532250086	1	1	1	1
1881	S6	2020	3	20	9	218.85788569980098827727488242089748382568359375	185.92786577012799398289644159376621246337890625	163.210157246058997770887799561023712158203125	6.2450000047683698056744105997495353221893310546875	79.7424995422363025454615126363933086395263671875	1.2355555582377599765919740093522705137729644775390625	270.1000009973839723897981457412242889404296875	0.0	6946.97488149007040192373096942901611328125	24.035333371	1	1	1	1
1882	S6	2020	3	20	10	226.412117995784001323045231401920318603515625	23.77948499903460088944484596140682697296142578125	215.151441584872003431883058510720729827880859375	7.07146890554049978305783952237106859683990478515625	77.798022210934703934981371276080608367919921875	0.5446327707525020489498501774505712091922760009765625	242.38333453734600198004045523703098297119140625	0.0	6627.0140230655597406439483165740966796875	24.434750001	1	1	1	1
1883	S6	2020	3	20	11	253.314036296378986889976658858358860015869140625	43.14254388255370287197365541942417621612548828125	229.065379329172998268404626287519931793212890625	7.66572238365584013308762223459780216217041015625	77.732294466272605859558098018169403076171875	1.046458924964869918738941123592667281627655029296875	266.71666825811001899637631140649318695068359375	0.0	7161.01610859235006500966846942901611328125	26.491583331	1	1	1	1
1884	S6	2020	3	20	12	285.59308263356098223084700293838977813720703125	42.970568619445401736811618320643901824951171875	259.40710321300701934887911193072795867919921875	7.95688621441046972648791779647581279277801513671875	77.4194609590633007201176951639354228973388671875	1.015568865273519971736959632835350930690765380859375	298.4000002344449740121490322053432464599609375	0.0	8148.667816321039936156012117862701416015625	30.251416667	1	1	1	1
1885	S6	2020	3	20	13	548.3629179431540023870184086263179779052734375	566.8781168843460136486100964248180389404296875	218.37959530737998647964559495449066162109375	8.1058064583809095182687087799422442913055419921875	77.109355138963195486212498508393764495849609375	2.086451612653270171193753412808291614055633544921875	796.1666668454789714814978651702404022216796875	0.0	19455.50997853270018822513520717620849609375	56.931333502	1	1	1	1
1886	S6	2020	3	20	14	367.39642666730497921889764256775379180908203125	250.191768503606994045185274444520473480224609375	231.108952174676005597575567662715911865234375	7.64080995934031026450838908203877508640289306640625	76.2352022070007961929150042124092578887939453125	2.895638629097800009759566819411702454090118408203125	495.866667479275974983465857803821563720703125	0.0	12928.86753678320019389502704143524169921875	38.849166624	1	1	1	1
1887	S6	2020	3	20	15	475.81193440459497878691763617098331451416015625	822.1470962158119846208137460052967071533203125	82.0764781818833029092274955473840236663818359375	7.830523334270299784520830144174396991729736328125	67.789243875547896323041641153395175933837890625	3.07151163248127989646718560834415256977081298828125	724.23333302140099476673640310764312744140625	0.0	19505.54246107730068615637719631195068359375	52.920416816	1	1	1	1
1888	S6	2020	3	20	16	374.84549187554199534133658744394779205322265625	817.639576890732996616861782968044281005859375	59.985661220550497318981797434389591217041015625	7.718333339691159977746792719699442386627197265625	56.61083329518630335996931535191833972930908203125	3.216666658057099947853885169024579226970672607421875	563.0833327770229743691743351519107818603515625	0.0	15433.80509217580038239248096942901611328125	43.541249927	1	1	1	1
1889	S6	2020	3	20	17	237.668238110011998287518508732318878173828125	711.1864790174689687773934565484523773193359375	49.77692018085050307263372815214097499847412109375	6.87416667938231995549358543939888477325439453125	61.64166647593179959585540927946567535400390625	3.46555554601880988485618217964656651020050048828125	347.51666660110100792735465802252292633056640625	0.0	9373.280932505929740727879106998443603515625	29.253916836	1	1	1	1
1890	S6	2020	3	20	18	95.1921634038288999590804451145231723785400390625	475.14410451253201017607352696359157562255859375	31.702788114547701070478069595992565155029296875	5.87166665792465014561685165972448885440826416015625	61.7541664759317967536844662390649318695068359375	3.501111109720330016870093459147028625011444091796875	126.81666780263100235970341600477695465087890625	0.0	2980.45200780033019327674992382526397705078125	14.10730832	1	1	1	1
1891	S6	2020	3	20	19	17.83272897031969961290087667293846607208251953125	147.6528712390060036341310478746891021728515625	11.918330335975500844369889819063246250152587890625	5.43308277058422017802286063670180737972259521484375	60.27293166540609803405459388159215450286865234375	3.221804511278190119583086925558745861053466796875	5.28333335726831965217797915101982653141021728515625	0.0	156.54990720407300841543474234640598297119140625	-0.663425003	1	1	1	0
1892	S6	2020	3	20	20	0	0	0	0	0	0	0	0.0	0	0.0	1	1	1	0
1893	S6	2020	3	20	21	0	0	0	0	0	0	0	0.0	0	0.0	1	1	1	0
1894	S6	2020	3	20	22	0	0	0	0	0	0	0	0.0	0	0.0	1	1	1	0
1895	S6	2020	3	20	23	0	0	0	0	0	0	0	0.0	0	0.0	1	1	1	0
1896	S6	2020	3	20	24	0	0	0	0	0	0	0	0.0	0	0.0	1	1	1	0
1897	S6	2020	3	21	1	0	0	0	0	0	0	0	0.0	0	0.0	1	1	1	0
1898	S6	2020	3	21	2	0	0	0	0	0	0	0	0.0	0	0.0	1	1	1	0
1899	S6	2020	3	21	3	0	0	0	0	0	0	0	0.0	0	0.0	1	1	1	0
1900	S6	2020	3	21	4	0	0	0	0	0	0	0	0.0	0	0.0	1	1	1	0
1901	S6	2020	3	21	5	0	0	0	0	0	0	0	0.0	-0.00040499999158780000500790219319924290175549685955047607421875	0.0	1	1	1	0
1902	S6	2020	3	21	6	0	0	0	0	0	0	0	0.0	-0.2132016634883860117799514455327880568802356719970703125	0.0	1	1	1	0
1903	S6	2020	3	21	7	40.2645670068797016938333399593830108642578125	290.34152337374899843780440278351306915283203125	16.382407378794500374397102859802544116973876953125	-0.1835820895633590021933656544206314720213413238525390625	74.3869404294596989757337723858654499053955078125	0.649253735457782976681073705549351871013641357421875	30.900000022181000502996539580635726451873779296875	0.0	545.516337399991016354761086404323577880859375	1.8114666604	1	1	1	0
1904	S6	2020	3	21	8	157.67970396677600319890188984572887420654296875	628.3933976067429512113449163734912872314453125	35.8058588663736969692763523198664188385009765625	1.4777777721484499640069998349645175039768218994140625	70.5938886854383014224367798306047916412353515625	1.117777775393590022900980329723097383975982666015625	294.1833319763339886776520870625972747802734375	0.0	3877.17540562152998973033390939235687255859375	16.364216606	1	1	1	1
1905	S6	2020	3	21	9	301.8862049102780247267219237983226776123046875	781.793671841091054375283420085906982421875	49.76353350745299763957518734969198703765869140625	3.574444438351520147989504039287567138671875	67.0733329772948962954615126363933086395263671875	2.0836111079487498187745586619712412357330322265625	480.2166620890290005263523198664188385009765625	0.0	11314.682732025699806399643421173095703125	35.094416555	1	1	1	1
1906	S6	2020	3	21	10	432.37362942165799495342071168124675750732421875	860.77698211669894590158946812152862548828125	57.95660651524860185190846095792949199676513671875	5.25499999523162042436297269887290894985198974609375	51.510555627610898454804555512964725494384765625	2.027222220847999967219266181928105652332305908203125	648.4333356221510484829195775091648101806640625	0.0	16954.0311574935985845513641834259033203125	46.72974987	1	1	1	1
1907	S6	2020	3	21	11	532.8114395141600425631622783839702606201171875	902.019990200466054375283420085906982421875	62.1280434926350011437534703873097896575927734375	6.35888890690273012040734101901762187480926513671875	42.07111104329420214753554319031536579132080078125	2.006388885362280216639874197426252067089080810546875	809.6166670322410254811984486877918243408203125	0.0	20824.41969712570062256418168544769287109375	53.3371665	1	1	1	1
1908	S6	2020	3	21	12	593.5709764268659682784345932304859161376953125	928.2567452324759642579010687768459320068359375	63.2299889988369017146396799944341182708740234375	7.22388887140485991267269128002226352691650390625	35.83166681925450092194296303205192089080810546875	2.358055550108350217897168477065861225128173828125	909.916668136914040587726049125194549560546875	0.0	23234.79542732230038382112979888916015625	57.934916496	1	1	1	1
1909	S6	2020	3	21	13	606.92384881198495349963195621967315673828125	927.3915090694480340971495024859905242919921875	66.025822102522596424023504368960857391357421875	7.58571433887428003828290457022376358509063720703125	35.52941166853700138972271815873682498931884765625	2.298879544274139874460161081515252590179443359375	928.45000227292302952264435589313507080078125	0.0	23820.32700379679954494349658489227294921875	58.927666728	1	1	1	1
1910	S6	2020	3	21	14	574.4187737358939784826361574232578277587890625	918.42325083414698383421637117862701416015625	64.84874887466429527194122783839702606201171875	7.7661110745535903987502024392597377300262451171875	40.84888882107200203108732239343225955963134765625	2.125833329641150015731909661553800106048583984375	875.7833341757459493237547576427459716796875	0.0	22927.7920087177990353666245937347412109375	58.051083501	1	1	1	1
1911	S6	2020	3	21	15	496.839137691920996076078154146671295166015625	893.7075281778969610968488268554210662841796875	60.9206393241882011579946265555918216705322265625	7.53222219149270966198628229903988540172576904296875	44.88944449954559701154721551574766635894775390625	2.247777771370270016859649331308901309967041015625	753.3166656891499997072969563305377960205078125	0.0	20211.29577954599881195463240146636962890625	52.866000048	1	1	1	1
1912	S6	2020	3	21	16	384.52811169094502474763430655002593994140625	843.5317333645290318600018508732318878173828125	55.23212268617410103388465358875691890716552734375	7.19388884968226971494686949881725013256072998046875	42.5727776209512995819750358350574970245361328125	2.58194443682829000152878506924025714397430419921875	572.7333351969709838158451020717620849609375	0.0	15705.20793994260020554065704345703125	43.420999861	1	1	1	1
1913	S6	2020	3	21	17	245.271039496527009760029613971710205078125	740.3966401841900051294942386448383331298828125	45.9674146546256991996415308676660060882568359375	6.87777782546149030196147577953524887561798095703125	44.211111153496602810264448635280132293701171875	2.667499994900489834748213979764841496944427490234375	354.0499982734510240334202535450458526611328125	0.0	9596.00160519279961590655148029327392578125	29.964999914	1	1	1	1
1914	S6	2020	3	21	18	101.1347424825030003603387740440666675567626953125	517.796653578016048413701355457305908203125	29.576684236526400439970529987476766109466552734375	6.23611108991833962278406033874489367008209228515625	50.38666648864739983082472463138401508331298828125	2.69777777327430978715483433916233479976654052734375	131.283333338797007172615849412977695465087890625	0.0	3120.89054162303000339306890964508056640625	13.869933303	1	1	1	1
1915	S6	2020	3	21	19	19.89520740184649838511177222244441509246826171875	197.212914171672991869854740798473358154296875	11.5838005364345999481656690477393567562103271484375	5.40136059611833019289406365714967250823974609375	56.90612229846770020458279759623110294342041015625	3.5319727902509701067401692853309214115142822265625	6.0666667219872199012797864270396530628204345703125	0.0	175.19913644064200752836768515408039093017578125	-0.773041686	1	1	1	0
1916	S6	2020	3	21	20	0	0	0	0	0	0	0	0.0	0	0.0	1	1	1	0
1917	S6	2020	3	21	21	0	0	0	0	0	0	0	0.0	0	0.0	1	1	1	0
1918	S6	2020	3	21	22	0	0	0	0	0	0	0	0.0	0	0.0	1	1	1	0
1919	S6	2020	3	21	23	0	0	0	0	0	0	0	0.0	0	0.0	1	1	1	0
1920	S6	2020	3	21	24	0	0	0	0	0	0	0	0.0	0	0.0	1	1	1	0
1921	S6	2020	3	22	1	0	0	0	0	0	0	0	0.0	0	0.0	1	1	1	0
1922	S6	2020	3	22	2	0	0	0	0	0	0	0	0.0	0	0.0	1	1	1	0
1923	S6	2020	3	22	3	0	0	0	0	0	0	0	0.0	0	0.0	1	1	1	0
1924	S6	2020	3	22	4	0	0	0	0	0	0	0	0.0	0	0.0	1	1	1	0
1925	S6	2020	3	22	5	0	0	0	0	0	0	0	0.0	-0.000738333350606499975478380637383679641061462461948394775390625	0.0	1	1	1	0
1926	S6	2020	3	22	6	0	0	0	0	0	0	0	0.0	-0.81533167152276597722249107391689904034137725830078125	0.0	1	1	1	0
1927	S6	2020	3	22	7	41.7882837211875965977014857344329357147216796875	291.09506506125097757831099443137645721435546875	17.054258738066000233857266721315681934356689453125	-0.52491228800070899307428362590144388377666473388671875	71.904210033751297714843531139194965362548828125	1.428421051878669967294399612001143395900726318359375	26.499999921846498551758486428298056125640869140625	0.0	603.470519122977975712274201214313507080078125	3.2206250113	1	1	1	0
1928	S6	2020	3	22	8	165.01110744476301306349341757595539093017578125	637.6129488627110504239681176841259002685546875	37.496367131339098932585329748690128326416015625	1.12944445113341007669305326999165117740631103515625	64.298889075385204705526120960712432861328125	1.85333332584963006439693344873376190662384033203125	248.216669013102006147164502181112766265869140625	0.0	4060.1339548826099417055957019329071044921875	16.441800002	1	1	1	1
1929	S6	2020	3	22	9	310.68896560668900974633288569748401641845703125	789.10634596082900316105224192142486572265625	51.2587991184658022802977939136326313018798828125	2.70388888981606978489935499965213239192962646484375	61.18888880411780206713956431485712528228759765625	2.0447222225367998049705420271493494510650634765625	455.5000017086659909182344563305377960205078125	0.0	11596.593443552599637769162654876708984375	35.89016668	1	1	1	1
1930	S6	2020	3	22	10	439.77237553957098725732066668570041656494140625	853.503853079316968432976864278316497802734375	63.32149288701069878015914582647383213043212890625	3.51540614443332000149666782817803323268890380859375	58.25546213358389735503806150518357753753662109375	2.562184869575229839711028034798800945281982421875	655.9999992450069612459628842771053314208984375	0.0	17187.253665923999506048858165740966796875	47.820500024	1	1	1	1
1931	S6	2020	3	22	11	526.1489792095170514585333876311779022216796875	803.411428988242960258503444492816925048828125	103.9722905341850065497055766172707080841064453125	4.35014745971094018983649220899678766727447509765625	53.9427727443277973407020908780395984649658203125	2.56843657250951995507648462080396711826324462890625	726.61666224400096325553022325038909912109375	0.0	18704.820066690401290543377399444580078125	47.179674816	1	1	1	1
1932	S6	2020	3	22	12	530.761964043100988419610075652599334716796875	500.32039359072297202146728523075580596923828125	243.664236016864009570781490765511989593505859375	4.9039275033956499783016624860465526580810546875	54.8903326628070971082706819288432598114013671875	3.067371602144839837222889400436542928218841552734375	777.250005304809974404633976519107818603515625	0.0	19296.0262735684009385295212268829345703125	60.367166773	1	1	1	1
1933	S6	2020	3	22	13	533.6963859120750157671864144504070281982421875	486.769528720077005345956422388553619384765625	246.19388279034001243417151272296905517578125	5.22388536155602967170352712855674326419830322265625	49.0585987917176993278189911507070064544677734375	3.501910812535860006988741588429547846317291259765625	702.683333307503971809637732803821563720703125	0.0	17611.36563817660135100595653057098388671875	56.021083419	1	1	1	1
1934	S6	2020	3	22	14	387.43928430246700145289651118218898773193359375	281.90342089575500494902371428906917572021484375	225.822950540585992484921007417142391204833984375	5.1651162768519203183359422837384045124053955078125	49.9997093400289003284342470578849315643310546875	2.921511623748509922648963765823282301425933837890625	499.28333535790397945675067603588104248046875	0.0	12871.893715858399446005932986736297607421875	39.5491666	1	1	1	1
1935	S6	2020	3	22	15	344.83785490148198960014269687235355377197265625	243.416601621512000974689726717770099639892578125	227.43396040972498894916498102247714996337890625	5.294705880389489749404674512334167957305908203125	48.32088241577140053095718030817806720733642578125	2.752941178223660134705141899758018553256988525390625	468.84999995430297303755651228129863739013671875	0.0	12763.77401351919979788362979888916015625	38.794083405	1	1	1	1
1936	S6	2020	3	22	16	390.17136709374102565561770461499691009521484375	749.2807523406789869113708846271038055419921875	89.751852977706704450611141510307788848876953125	5.515662662954209594090571044944226741790771484375	45.48674677653480102890171110630035400390625	2.868674696748509944654870196245610713958740234375	553.8500009725479458211339078843593597412109375	0.0	15026.983717083900046418420970439910888671875	42.850133168	1	1	1	1
1937	S6	2020	3	22	17	231.55641127431800896374625153839588165283203125	610.344482688263951786211691796779632568359375	63.23295317282219940580034744925796985626220703125	4.97150839906830999126441383850760757923126220703125	45.04022338270470271481826785020530223846435546875	2.845530724392249855014824788668192923069000244140625	326.499999562897983196307905018329620361328125	0.0	8880.99715113638012553565204143524169921875	25.801666601	1	1	1	1
1938	S6	2020	3	22	18	112.2060921986890065227271406911313533782958984375	460.295468733045026965555734932422637939453125	45.601289706759899900134769268333911895751953125	4.54611114395989002190390237956307828426361083984375	52.79499997033010316727086319588124752044677734375	2.322222222718920203732295703957788646221160888671875	138.4166666927440019208006560802459716796875	0.0	3401.6743582983699525357224047183990478515625	13.718991705	1	1	1	1
1939	S6	2020	3	22	19	20.343230101969300704922716249711811542510986328125	102.39910279640099588505108840763568878173828125	15.4526714752245997175350566976703703403472900390625	3.42467533148727998337790268124081194400787353515625	61.96233769206249775152173242531716823577880859375	1.7850649302656000916300627068267203867435455322265625	6.20000011015990981633194678579457104206085205078125	0.0	195.35936137350898889053496532142162322998046875	-1.780975008	1	1	1	0
1940	S6	2020	3	22	20	0	0	0	0	0	0	0	0.0	0	0.0	1	1	1	0
1941	S6	2020	3	22	21	0	0	0	0	0	0	0	0.0	0	0.0	1	1	1	0
1942	S6	2020	3	22	22	0	0	0	0	0	0	0	0.0	0	0.0	1	1	1	0
1943	S6	2020	3	22	23	0	0	0	0	0	0	0	0.0	0	0.0	1	1	1	0
1944	S6	2020	3	22	24	0	0	0	0	0	0	0	0.0	0	0.0	1	1	1	0
1945	S6	2020	3	23	1	0	0	0	0	0	0	0	0.0	0	0.0	1	1	1	0
1946	S6	2020	3	23	2	0	0	0	0	0	0	0	0.0	0	0.0	1	1	1	0
1947	S6	2020	3	23	3	0	0	0	0	0	0	0	0.0	0	0.0	1	1	1	0
1948	S6	2020	3	23	4	0	0	0	0	0	0	0	0.0	0	0.0	1	1	1	0
1949	S6	2020	3	23	5	0	0	0	0	0	0	0	0.0	-0.0000483333337797382976632094842006637236409005708992481231689453125	0.0	1	1	1	0
1950	S6	2020	3	23	6	0	0	0	0	0	0	0	0.0	6.2645916645124000154964960529468953609466552734375	0.0	1	1	1	0
1951	S6	2020	3	23	7	41.20618769382600277140227262862026691436767578125	173.0905833907160058515728451311588287353515625	25.323553251397999730443189037032425403594970703125	0.65034483213876803642250479242647998034954071044921875	64.898275835760699692400521598756313323974609375	2.034827585055909882072455729939974844455718994140625	26.900000123229400372792952111922204494476318359375	0.0	718.66551532875701013836078345775604248046875	1.7871083359	1	1	1	0
1952	S6	2020	3	23	8	160.930398941040010640790569595992565155029296875	495.7869519551589974071248434484004974365234375	57.53946803410840260539771406911313533782958984375	2.054444444179530204763750589336268603801727294921875	58.23999994066019780802889727056026458740234375	2.258333330849799924777698834077455103397369384765625	222.23333306610498993904911912977695465087890625	0.0	4105.0109068552601456758566200733184814453125	16.340274994	1	1	1	1
1953	S6	2020	3	23	9	306.84761072794498204530100338160991668701171875	678.2644120958110534047591499984264373779296875	79.3720114601982942303948220796883106231689453125	3.4094444288147798260979470796883106231689453125	53.82611126369899778865146799944341182708740234375	2.583055547045329802813284914009273052215576171875	442.39999999602599700665450654923915863037109375	0.0	11197.221738099999129190109670162200927734375	34.659083366	1	1	1	1
1954	S6	2020	3	23	10	435.3379906548390181342256255447864532470703125	736.9857874552400289758224971592426300048828125	104.698988321092002706791390664875507354736328125	4.659444390402899927039470640011131763458251953125	48.5655554453530982073061750270426273345947265625	2.085555553270709960855811004876159131526947021484375	635.6499999761580284030060283839702606201171875	0.0	16466.38877789170146570540964603424072265625	46.00716664	1	1	1	1
1955	S6	2020	3	23	11	536.366354793972050174488686025142669677734375	763.640169694687983792391605675220489501953125	126.898219532436002054964774288237094879150390625	5.68277778095669017233149133971892297267913818359375	42.60888885921900026687580975703895092010498046875	2.09083333123060999270137472194619476795196533203125	782.6000014940890423531527630984783172607421875	0.0	19944.616846243501640856266021728515625	52.34533329	1	1	1	1
1956	S6	2020	3	23	12	577.584318712021968167391605675220489501953125	740.107907613117959044757299125194549560546875	143.370216412014002571595483459532260894775390625	5.93833338419595957446972533944062888622283935546875	42.42111127641459944470625487156212329864501953125	2.32805555214484005688291290425695478916168212890625	868.55000058809901020140387117862701416015625	0.0	22029.7481775283013121224939823150634765625	52.984249926	1	1	1	1
1957	S6	2020	3	23	13	604.9881540934239865237032063305377960205078125	832.783785502115051713190041482448577880859375	107.738207350836006526151322759687900543212890625	5.95444445610046013683813725947402417659759521484375	45.87277783287890287056143279187381267547607421875	2.747499993443479837651466368697583675384521484375	913.516672452288958083954639732837677001953125	0.0	23307.273825009600841440260410308837890625	55.101000214	1	1	1	1
1958	S6	2020	3	23	14	571.5554985894090123110800050199031829833984375	835.036813524033959765802137553691864013671875	97.686100578308099784408113919198513031005859375	5.9755555788675902562090413994155824184417724609375	44.72388867272270118746746447868645191192626953125	2.759444437755469881068393078749068081378936767578125	857.249999046325001472723670303821563720703125	0.0	22387.6358111699009896256029605865478515625	54.337000148	1	1	1	1
1959	S6	2020	3	23	15	497.10502056545601590187288820743560791015625	822.043209669325051436317153275012969970703125	86.236601490444598994145053438842296600341796875	5.661111142900249859621908399276435375213623046875	46.73666665818949894628531183116137981414794921875	3.069444448086950050225141239934600889682769775390625	738.5833362738279674886143766343593597412109375	0.0	19788.418563206898397766053676605224609375	49.295083253	1	1	1	1
1960	S6	2020	3	23	16	386.6444092644579768602852709591388702392578125	779.58744303385401508421637117862701416015625	73.829592683580102630003239028155803680419921875	5.4127777920828901159211454796604812145233154296875	46.84500005510110298700965358875691890716552734375	2.980555548104970142730962834320962429046630859375	563.88333191474202976678498089313507080078125	0.0	15448.257180054899436072446405887603759765625	40.35449996	1	1	1	1
1961	S6	2020	3	23	17	250.325611156886992603176622651517391204833984375	671.9880333794479838616098277270793914794921875	62.39928840001419985128450207412242889404296875	4.8216666963365302223110120394267141819000244140625	48.23888880411779922496862127445638179779052734375	2.82999999324480011608784479903988540172576904296875	349.20000210404299423316842876374721527099609375	0.0	9498.9469369252401520498096942901611328125	28.384166718	1	1	1	1
1962	S6	2020	3	23	18	109.8062230957870042402646504342555999755859375	414.4671162923169731584494002163410186767578125	47.0514868206447971488159964792430400848388671875	4.0883333590295496406952224788255989551544189453125	50.38888905843089816016799886710941791534423828125	2.4913888805442301332959686988033354282379150390625	131.983334136505987999044009484350681304931640625	0.0	3266.3620101908900323905982077121734619140625	13.366783343	1	1	1	1
1963	S6	2020	3	23	19	17.527658767700099673447766690514981746673583984375	28.9402905714511007317923940718173980712890625	16.2162904294331013943519792519509792327880859375	2.8586666774749698305413403431884944438934326171875	54.7239998881021989518558257259428501129150390625	1.705333333015440100410842205747030675411224365234375	4.63333337684161961078643798828125	0.0	169.15372182459799432763247750699520111083984375	-2.321933329	1	1	1	0
1964	S6	2020	3	23	20	0	0	0	0	0	0	0	0.0	0	0.0	1	1	1	0
1965	S6	2020	3	23	21	0	0	0	0	0	0	0	0.0	0	0.0	1	1	1	0
1966	S6	2020	3	23	22	0	0	0	0	0	0	0	0.0	0	0.0	1	1	1	0
1967	S6	2020	3	23	23	0	0	0	0	0	0	0	0.0	0	0.0	1	1	1	0
1968	S6	2020	3	23	24	0	0	0	0	0	0	0	0.0	0	0.0	1	1	1	0
1969	S6	2020	3	24	1	0	0	0	0	0	0	0	0.0	0	0.0	1	1	1	0
1970	S6	2020	3	24	2	0	0	0	0	0	0	0	0.0	0	0.0	1	1	1	0
1971	S6	2020	3	24	3	0	0	0	0	0	0	0	0.0	0	0.0	1	1	1	0
1972	S6	2020	3	24	4	0	0	0	0	0	0	0	0.0	0	0.0	1	1	1	0
1973	S6	2020	3	24	5	0	0	0	0	0	0	0	0.0	-0.0001433333333504000091894459156804941812879405915737152099609375	0.0	1	1	1	0
1974	S6	2020	3	24	6	0	0	0	0	0	0	0.03333333491658330149931543928687460720539093017578125	0.0	3.27766992231769993537682239548303186893463134765625	0.0	1	1	1	0
1975	S6	2020	3	24	7	44.50861470066769953746188548393547534942626953125	151.270723177055998576179263181984424591064453125	28.841810401605098235222612856887280941009521484375	1.0680272096679299664856443996541202068328857421875	71.1897957211449039505168912000954151153564453125	2.571768704725769794094958342611789703369140625	32.39999987805880010682813008315861225128173828125	0.0	835.6802195621020246107946150004863739013671875	2.860525013	1	1	1	0
1976	S6	2020	3	24	8	171.2632210837469983744085766375064849853515625	484.66006868150498121394775807857513427734375	68.0164841016133010498379007913172245025634765625	2.622777777247950137251564228790812194347381591796875	65.279444503784105791055480949580669403076171875	3.07277777393658002580423271865583956241607666015625	225.183333953221989531812141649425029754638671875	0.0	4214.203127721930286497808992862701416015625	17.806499958	1	1	1	1
1977	S6	2020	3	24	9	312.83591601053802833121153526008129119873046875	624.952278900145984152914024889469146728515625	98.690673700968403636579751037061214447021484375	4.44055553939606983959720309940166771411895751953125	56.16611131032299653043082798831164836883544921875	2.690555553303819902311033729347400367259979248046875	443.166667222976002449286170303821563720703125	0.0	11207.210636138899644720368087291717529296875	35.816500012	1	1	1	1
1978	S6	2020	3	24	10	430.1581298828119770405464805662631988525390625	709.6042746649840182726620696485042572021484375	106.103094906276993469873559661209583282470703125	5.72277774810790962334294817992486059665679931640625	46.94611125522180117286552558653056621551513671875	3.182499998062839896562081776210106909275054931640625	626.9333332777019904824555851519107818603515625	0.0	16234.236121177600580267608165740966796875	44.979833428	1	1	1	1
1979	S6	2020	3	24	11	547.0942313300230352979269810020923614501953125	839.26442515055305193527601659297943115234375	91.9526909086439019347380963154137134552001953125	6.75888887511359026660784365958534181118011474609375	39.65777774386930332184419967234134674072265625	3.6074999994701801853125289198942482471466064453125	826.38333241144800922484137117862701416015625	0.0	21062.99498875929930363781750202178955078125	54.73591706	1	1	1	1
1980	S6	2020	3	24	12	612.636704847546980090555734932422637939453125	883.212355550130041592638008296489715576171875	91.0451693428886983383563347160816192626953125	7.64777782493167013200263681937940418720245361328125	37.753333536783799218028434552252292633056640625	3.209444442556959931067694924422539770603179931640625	926.6999959945679847805877216160297393798828125	0.0	23347.92056878400035202503204345703125	59.203999933	1	1	1	1
1981	S6	2020	3	24	13	627.574084811740021905279718339443206787109375	863.676467556422949201078154146671295166015625	107.158209546406993695200071670114994049072265625	8.25000007152556946721233543939888477325439453125	36.931111229790502648029359988868236541748046875	3.2947222159968401200558218988589942455291748046875	934.31666692097996929078362882137298583984375	0.0	23654.8908233641996048390865325927734375	61.060750103	1	1	1	1
1982	S6	2020	3	24	14	580.3777486165359960068599320948123931884765625	757.6279890272350030500092543661594390869140625	146.057136450873002786465804092586040496826171875	8.602777777777770751299613039009273052215576171875	35.74166677263040270418059662915766239166259765625	3.3930555461181501897272028145380318164825439453125	848.4166691700610272164340130984783172607421875	0.0	21859.08505121860071085393428802490234375	57.768583425	1	1	1	1
1983	S6	2020	3	24	15	418.71675779554499285950441844761371612548828125	360.95817669762499235730501823127269744873046875	229.752664566040010640790569595992565155029296875	8.5311110920376194144409964792430400848388671875	32.829999796549401480660890229046344757080078125	3.089166656633210106264186833868734538555145263671875	547.6499999562889797743991948664188385009765625	0.0	14587.8981828688993118703365325927734375	41.606500149	1	1	1	1
1984	S6	2020	3	24	16	317.67846344841797190383658744394779205322265625	382.69935141669299127897829748690128326416015625	158.89083968268499802434234879910945892333984375	7.71527781354055974816219531930983066558837890625	41.436111026340000762502313591539859771728515625	2.943333335220810198507024324499070644378662109375	441.29999975363301700781448744237422943115234375	0.0	11957.255595922399152186699211597442626953125	31.533500051	1	1	1	1
1985	S6	2020	3	24	17	176.603060616387011805272777564823627471923828125	288.74136182996898014607722871005535125732421875	88.85602989196769385671359486877918243408203125	6.62472220129436006885725873871706426143646240234375	43.42111103269780159052970702759921550750732421875	3.299444440338339834539738149032928049564361572265625	227.750000233451004305607057176530361175537109375	0.0	6189.54376777013021637685596942901611328125	18.289758372	1	1	1	1
1986	S6	2020	3	24	18	92.9240276972451937353980611078441143035888671875	206.5788929674359906130121089518070220947265625	66.7417625109354020196406054310500621795654296875	5.69305549992454995589241661946289241313934326171875	45.84000017378060221062696655280888080596923828125	3.1699999911917497996682868688367307186126708984375	103.183333699900998681187047623097896575927734375	0.0	2613.907965521009828080423176288604736328125	12.100066642	1	1	1	1
1987	S6	2020	3	24	19	26.166235387325201600106083787977695465087890625	40.4333380561322002222368610091507434844970703125	23.710308712720799206863375729881227016448974609375	5.18437498807907015674345529987476766109466552734375	47.19687511920920286456748726777732372283935546875	2.852499990910290161849616197287105023860931396484375	8.3000000934892508297480162582360208034515380859375	0.0	268.016532994806993883685208857059478759765625	-1.55280001	1	1	1	0
1988	S6	2020	3	24	20	0	0	0	0	0	0	0	0.0	0	0.0	1	1	1	0
1989	S6	2020	3	24	21	0	0	0	0	0	0	0	0.0	0	0.0	1	1	1	0
1990	S6	2020	3	24	22	0	0	0	0	0	0	0	0.0	0	0.0	1	1	1	0
1991	S6	2020	3	24	23	0	0	0	0	0	0	0	0.0	0	0.0	1	1	1	0
1992	S6	2020	3	24	24	0	0	0	0	0	0	0	0.0	0	0.0	1	1	1	0
1993	S6	2020	3	25	1	0	0	0	0	0	0	0	0.0	0	0.0	1	1	1	0
1994	S6	2020	3	25	2	0	0	0	0	0	0	0	0.0	0	0.0	1	1	1	0
1995	S6	2020	3	25	3	0	0	0	0	0	0	0	0.0	0	0.0	1	1	1	0
1996	S6	2020	3	25	4	0	0	0	0	0	0	0	0.0	0	0.0	1	1	1	0
1997	S6	2020	3	25	5	0	0	0	0	0	0	0	0.0	0	0.0	1	1	1	0
1998	S6	2020	3	25	6	0	0	0	0	0	0	0.066666669833164993175245172096765600144863128662109375	0.0	11.70331319638840028574122698046267032623291015625	0.0	1	1	1	0
1999	S6	2020	3	25	7	43.9725680934543987632423522882163524627685546875	220.976505638262011643746518529951572418212890625	21.9250423230161999299525632523000240325927734375	1.8314984683232200524116706219501793384552001953125	62.4788992295571006252430379390716552734375	1.911620792172370020267635482014156877994537353515625	30.083333371051498517090294626541435718536376953125	0.0	707.7968398729959744741790927946567535400390625	2.5804500036	1	1	1	0
2000	S6	2020	3	25	8	179.7623405668470013551996089518070220947265625	574.15343950059605049318633973598480224609375	53.34300172593849964641776750795543193817138671875	3.984444457954829932333495889906771481037139892578125	55.316666793823202397106797434389591217041015625	2.286388886968290012902116359327919781208038330078125	242.699999113876998535488382913172245025634765625	0.0	4343.068038423860343755222856998443603515625	19.055499975	1	1	1	1
2001	S6	2020	3	25	9	325.89778315226197946685715578496456146240234375	745.7883388943140516857965849339962005615234375	66.438768853081597853815765120089054107666015625	5.53499997986687031215069509926252067089080810546875	49.904444482591401310855871997773647308349609375	2.629999995728330208777379084494896233081817626953125	464.58333432674402274642488919198513031005859375	0.0	11714.64285651839963975362479686737060546875	37.154166603	1	1	1	1
2002	S6	2020	3	25	10	457.1156168619789923468488268554210662841796875	833.496589152018032109481282532215118408203125	73.256913820902497036513523198664188385009765625	7.05611111720403005875823509995825588703155517578125	40.19611101150510279467198415659368038177490234375	3.191388880378669856696660644956864416599273681640625	668.016669154166947919293306767940521240234375	0.0	17241.37275616320039262063801288604736328125	48.732333469	1	1	1	1
2003	S6	2020	3	25	11	555.824837070040985054220072925090789794921875	876.52024451361694445949979126453399658203125	76.217136298285595330526120960712432861328125	7.95444450113507972588422489934600889682769775390625	35.79027785195240340954114799387753009796142578125	3.4702777751617901458303094841539859771728515625	828.916667898495006738812662661075592041015625	0.0	21013.32426071160080027766525745391845703125	54.369250266	1	1	1	1
2004	S6	2020	3	25	12	613.402506001790015943697653710842132568359375	899.3218882242830432005575858056545257568359375	77.08119053310809931645053438842296600341796875	8.9419444666968406210116881993599236011505126953125	32.95416676733219674133579246699810028076171875	3.26083332863117991706758402870036661624908447265625	923.4333296616870256912079639732837677001953125	0.0	23154.824964205399737693369388580322265625	57.742666658	1	1	1	1
2005	S6	2020	3	25	13	625.5303885565859900452778674662113189697265625	899.1521896362299912652815692126750946044921875	78.774051136440704112828825600445270538330078125	9.5991666714350305511516125989146530628204345703125	31.1438889344533009762017172761261463165283203125	3.06472221679157019735839639906771481037139892578125	940.4499997695289721377776004374027252197265625	0.0	23600.2476294834996224381029605865478515625	57.512999884	1	1	1	1
2006	S6	2020	3	25	14	588.5440534803600485247443430125713348388671875	876.503684828016048413701355457305908203125	80.8738915337456063525678473524749279022216796875	9.6561110840903392471545885200612246990203857421875	37.38722214168969770753392367623746395111083984375	3.03638888580930998983831159421242773532867431640625	875.5333344141639599911286495625972747802734375	0.0	22432.01182683300066855736076831817626953125	54.145416864	1	1	1	1
2007	S6	2020	3	25	15	505.998526509602015721611678600311279296875	832.7822457207570323589607141911983489990234375	80.2045690960353994114484521560370922088623046875	9.404999883969619389745275839231908321380615234375	39.27444473902379940000173519365489482879638671875	2.895833327786789812563483792473562061786651611328125	743.33333273728703716187737882137298583984375	0.0	19581.68965975440005422569811344146728515625	48.310833518	1	1	1	1
2008	S6	2020	3	25	16	395.0168934292260018992237746715545654296875	782.3309697469070442821248434484004974365234375	72.3684384028116056697399471886456012725830078125	8.9388888385560694160858474788255989551544189453125	41.34944462246360075141637935303151607513427734375	2.54833332664435996406382400891743600368499755859375	566.183330615361001036944799125194549560546875	0.0	15302.954876422800225554965436458587646484375	39.031916746	1	1	1	1
2009	S6	2020	3	25	17	259.59779366387198251686641015112400054931640625	692.2541156344940418421174399554729461669921875	58.7002496507432027783579542301595211029052734375	7.61416668097178028773441837984137237071990966796875	47.3097223493787026882273494265973567962646484375	2.38583333326710000932280308916233479976654052734375	354.6166645983850003176485188305377960205078125	0.0	9575.719948609670609585009515285491943359375	27.212833261	1	1	1	1
2010	S6	2020	3	25	18	111.5109193642930023315784637816250324249267578125	450.52875881989797335336334072053432464599609375	37.457622363832200562683283351361751556396484375	6.339444458484649658203125	50.50999995337590320332310511730611324310302734375	2.193333334806890189128125712159089744091033935546875	133.033333610122014079024665988981723785400390625	0.0	3241.1741072932900351588614284992218017578125	12.114308335	1	1	1	1
2011	S6	2020	3	25	19	14.1064082284212997109307252685539424419403076171875	45.7356808718355978271574713289737701416015625	12.562836468552699642486913944594562053680419921875	4.82234635433005021099006626172922551631927490234375	55.04301665748290162127887015230953693389892578125	1.8798882581668099334137878031469881534576416015625	4.0833333507179698784739230177365243434906005859375	0.0	179.83274639118400273218867368996143341064453125	-2.346175	1	1	1	1
2012	S6	2020	3	25	20	0	0	0	0	0	0	0	0.0	0	0.0	1	1	1	0
2013	S6	2020	3	25	21	0	0	0	0	0	0	0	0.0	0	0.0	1	1	1	0
2014	S6	2020	3	25	22	0	0	0	0	0	0	0	0.0	0	0.0	1	1	1	0
2015	S6	2020	3	25	23	0	0	0	0	0	0	0	0.0	0	0.0	1	1	1	0
2016	S6	2020	3	25	24	0	0	0	0	0	0	0	0.0	0	0.0	1	1	1	0
2017	S6	2020	3	26	1	0	0	0	0	0	0	0	0.0	0	0.0	1	1	1	0
2018	S6	2020	3	26	2	0	0	0	0	0	0	0	0.0	0	0.0	1	1	1	0
2019	S6	2020	3	26	3	0	0	0	0	0	0	0	0.0	0	0.0	1	1	1	0
2020	S6	2020	3	26	4	0	0	0	0	0	0	0	0.0	-0.0000233333328954665993938168144783418256338336504995822906494140625	0.0	1	1	1	0
2021	S6	2020	3	26	5	0	0	0	0	0	0	0	0.0	-0.0001916666709197000092144980154529321225709281861782073974609375	0.0	1	1	1	0
2022	S6	2020	3	26	6	0	0	0	0	0	0	0.383333339899158020980252103981911204755306243896484375	0.0	18.183115171753598815485020168125629425048828125	0.0	1	1	1	0
2023	S6	2020	3	26	7	51.1866931834234009102146956138312816619873046875	213.944413470477996952467947266995906829833984375	24.950645826355899004056482226587831974029541015625	0.1677053846819880067453567562552052550017833709716796875	91.3447590036364971410876023583114147186279296875	1.041926348428880100271953779156319797039031982421875	46.600000311931097485285135917365550994873046875	0.0	731.1579872854050563546479679644107818603515625	4.4531666662	1	1	1	0
2024	S6	2020	3	26	8	182.706764136419991473303525708615779876708984375	558.5681169297960195763153024017810821533203125	52.5879422717624009919745731167495250701904296875	2.0852777820494399207973401644267141819000244140625	88.7022223366630981900016195140779018402099609375	1.363333330882920080284748109988868236541748046875	262.4499996503190004659700207412242889404296875	0.0	4210.853775839010268100537359714508056640625	21.208666627	1	1	1	1
2025	S6	2020	3	26	9	326.00179655287001878605224192142486572265625	725.54550950792099683894775807857513427734375	67.0127786318461033943094662390649318695068359375	5.40194443398050960780665263882838189601898193359375	80.1836107465955052475692355073988437652587890625	1.3849999993211599136344602811732329428195953369140625	459.45000052452002137215458787977695465087890625	0.0	11655.932605266500104335136711597442626953125	38.044583289	1	1	1	1
2026	S6	2020	3	26	10	457.58099695841400489371153526008129119873046875	811.8314395480680332184419967234134674072265625	76.60250886281329485427704639732837677001953125	7.77416674296060961069088079966604709625244140625	61.70250053405759871338887023739516735076904296875	1.770833335237369965398102067410945892333984375	657.9000016053520312198088504374027252197265625	0.0	16999.1981387138002901338040828704833984375	46.74424998	1	1	1	1
2027	S6	2020	3	26	11	555.783113182915030847652815282344818115234375	847.6738416883680429236846975982189178466796875	84.2951964272393041710529359988868236541748046875	8.3244444926579799215460298000834882259368896484375	53.13749998940360086407963535748422145843505859375	2.184999996837639901769989592139609158039093017578125	814.9333318074540102315950207412242889404296875	0.0	20845.9545056025017402134835720062255859375	52.661416499	1	1	1	1
2028	S6	2020	3	26	12	616.454347059461042590555734932422637939453125	873.644190131293044032645411789417266845703125	87.3124229643079985407894128002226352691650390625	8.5908333169089399206086454796604812145233154296875	43.74805546866519989634980447590351104736328125	2.76861111521720015815617443877272307872772216796875	910.6500019629789903774508275091648101806640625	0.0	23114.43413098650125903077423572540283203125	57.913833523	1	1	1	1
2029	S6	2020	3	26	13	631.3773284912109602373675443232059478759765625	883.72519700792099683894775807857513427734375	85.570634799533394243553630076348781585693359375	8.6022222783830404324589835596270859241485595703125	38.21527766121749891681247390806674957275390625	3.09638888372314990959921487956307828426361083984375	932.183335224787015249603427946567535400390625	0.0	23776.041714350300026126205921173095703125	59.130833403	1	1	1	1
2030	S6	2020	3	26	14	597.0834808349600280052982270717620849609375	875.7272449069549793421174399554729461669921875	81.46621653238929638973786495625972747802734375	8.5969444301393291851809408399276435375213623046875	37.842777834998202024507918395102024078369140625	2.849999999254940075132935817237012088298797607421875	876.2833307186759839169098995625972747802734375	0.0	22758.001160621599410660564899444580078125	56.973999755	1	1	1	1
2031	S6	2020	3	26	15	516.8528171115450504657928831875324249267578125	842.685358005099033107399009168148040771484375	78.5157092836168004623687011189758777618408203125	8.4669444296095104363075733999721705913543701171875	37.4605554474724016245090751908719539642333984375	2.729166672295990192509407279430888593196868896484375	749.750002225239995823358185589313507080078125	0.0	19903.37106386819868930615484714508056640625	50.507000065	1	1	1	1
2032	S6	2020	3	26	16	400.5083841959630035489681176841259002685546875	783.198410034179005378973670303821563720703125	71.9605461120604985580939683131873607635498046875	8.2841666407055303267270573996938765048980712890625	36.00666649076669756368573871441185474395751953125	2.5788888849317999074628460220992565155029296875	570.0333317120870333383209072053432464599609375	0.0	15444.52290137599993613548576831817626953125	40.729083331	1	1	1	1
2033	S6	2020	3	26	17	263.81227082146500606540939770638942718505859375	695.0022540622279620947665534913539886474609375	57.9325730853609996984232566319406032562255859375	8.0983334077729107747245507198385894298553466796875	32.50722221798360322964072111062705516815185546875	2.12166666512688006918097016750834882259368896484375	357.48333285252198265879997052252292633056640625	0.0	9643.01598072052001953125	27.709416628	1	1	1	1
2034	S6	2020	3	26	18	119.554742399850994161170092411339282989501953125	498.96988398233997941133566200733184814453125	38.65153072145250234825653024017810821533203125	7.2369444290796902663487344398163259029388427734375	37.04638879564070208516568527556955814361572265625	1.666666665342110054126578688737936317920684814453125	141.700000005463010666062473319470882415771484375	0.0	3435.61127682527012439095415174961090087890625	12.447166689	1	1	1	1
2035	S6	2020	3	26	19	26.553935357168601427702014916576445102691650390625	172.274507848125011832962627522647380828857421875	15.810983900930299483889029943384230136871337890625	5.8186274346183299854828874231316149234771728515625	43.70392161724610247119926498271524906158447265625	0.99803921916321203244848447866388596594333648681640625	9.5333333651069498415608904906548559665679931640625	0.0	318.27125458124299939299817197024822235107421875	-0.753683344	1	1	1	0
2036	S6	2020	3	26	20	0	0	0	0	0	0	0	0.0	0	0.0	1	1	1	0
2037	S6	2020	3	26	21	0	0	0	0	0	0	0	0.0	0	0.0	1	1	1	0
2038	S6	2020	3	26	22	0	0	0	0	0	0	0	0.0	0	0.0	1	1	1	0
2039	S6	2020	3	26	23	0	0	0	0	0	0	0	0.0	0	0.0	1	1	1	0
2040	S6	2020	3	26	24	0	0	0	0	0	0	0	0.0	0	0.0	1	1	1	0
2041	S6	2020	3	27	1	0	0	0	0	0	0	0	0.0	0	0.0	1	1	1	0
2042	S6	2020	3	27	2	0	0	0	0	0	0	0	0.0	0	0.0	1	1	1	0
2043	S6	2020	3	27	3	0	0	0	0	0	0	0	0.0	0	0.0	1	1	1	0
2044	S6	2020	3	27	4	0	0	0	0	0	0	0	0.0	0	0.0	1	1	1	0
2045	S6	2020	3	27	5	0	0	0	0	0	0	0	0.0	-0.0026649999654182001708468963130371776060201227664947509765625	0.0	1	1	1	0
2046	S6	2020	3	27	6	5.84988861083984001965063725947402417659759521484375	0.1414600603282450130837588631038670428097248077392578125	5.96055865287779962358172269887290894985198974609375	-0.650000005960464033449852649937383830547332763671875	78.3000030517577982891452847979962825775146484375	0.44000000357627799818516223240294493734836578369140625	0.43333335003505302207571503458893857896327972412109375	0.0	24.736678166179199678254008176736533641815185546875	-1.145607147	1	1	1	0
2047	S6	2020	3	27	7	46.853230800893499008452636189758777618408203125	196.066362491043008731139707379043102264404296875	24.871250141991499305049728718586266040802001953125	-0.01111111475361709934051024362133830436505377292633056640625	78.0133333206176047269764239899814128875732421875	0.68055555961198199721451373989111743867397308349609375	48.1833337650945026098270318470895290374755859375	0.0	952.1915307268490096248569898307323455810546875	4.8230166658	1	1	1	0
2048	S6	2020	3	27	8	172.705350685118986575616872869431972503662109375	486.90350943671302275106427259743213653564453125	58.80104646682730162865482270717620849609375	1.9505555470784499139114132049144245684146881103515625	76.174722184075193354146904312074184417724609375	0.9591666675276220299650731249130330979824066162109375	291.2833325564860160739044658839702606201171875	0.0	4500.14295478661006200127303600311279296875	18.285749952	1	1	1	1
2049	S6	2020	3	27	9	314.469353654649012241861782968044281005859375	647.1282340155700012473971582949161529541015625	80.620613458421502173223416320979595184326171875	4.4005555517143601917950945789925754070281982421875	75.6188891728719028151317615993320941925048828125	1.51499999604290991328525706194341182708740234375	441.0333320498469902304350398480892181396484375	0.0	11178.713345527599813067354261875152587890625	36.633916632	1	1	1	1
2050	S6	2020	3	27	10	442.90973612467399789238697849214076995849609375	732.03496025933100099791772663593292236328125	94.345263756646005504080676473677158355712890625	7.32277777194976042807184057892300188541412353515625	68.4041662851968936820412636734545230865478515625	1.6994444461332400830855249296291731297969818115234375	630.99999924500798442750237882137298583984375	0.0	16336.517771085100321215577423572540283203125	46.821749878	1	1	1	1
2051	S6	2020	3	27	11	541.029498799641032746876589953899383544921875	774.1707599216030075695016421377658843994140625	104.640288988749006193756940774619579315185546875	9.572500085830679239506935118697583675384521484375	57.9316665543450000086522777564823627471923828125	1.922777777082389949470098144956864416599273681640625	785.200000802675958766485564410686492919921875	0.0	19887.80460357659831061027944087982177734375	50.915583261	1	1	1	1
2052	S6	2020	3	27	12	593.6304421318900494952686131000518798828125	783.9157240125859971158206462860107421875	113.4112067328550068623371771536767482757568359375	10.871388859218999556333073996938765048980712890625	51.90805548561939986029756255447864532470703125	1.2658333373566399426835005215252749621868133544921875	873.233334223428983023040927946567535400390625	0.0	21805.802003542499733157455921173095703125	51.982999992	1	1	1	1
2053	S6	2020	3	27	13	608.058596971299948563682846724987030029296875	785.697687954371986052137799561023712158203125	117.971096738178999885349185205996036529541015625	11.71944448682990014276583679020404815673828125	48.831388897365997081578825600445270538330078125	1.1155555583536600483540723871556110680103302001953125	884.6833378076549934121430851519107818603515625	0.0	22167.25831826520152390003204345703125	52.863666662	1	1	1	1
2054	S6	2020	3	27	14	570.874505615234056676854379475116729736328125	763.650012546115021905279718339443206787109375	117.41886639065199915421544574201107025146484375	12.337777725855499255658287438564002513885498046875	46.63361095852319948562580975703895092010498046875	1.082777775492929972500633084564469754695892333984375	828.816668192544966586865484714508056640625	0.0	21070.50285339350011781789362430572509765625	52.280249977	1	1	1	1
2055	S6	2020	3	27	15	494.99438612196098574713687412440776824951171875	736.2114201863599873831844888627529144287109375	108.8547495100229980380390770733356475830078125	12.1922222587796991177810923545621335506439208984375	44.01444446775639818270065006799995899200439453125	1.4130555569297700291286901119747199118137359619140625	708.1333319346109647085540927946567535400390625	0.0	18430.15725612640017061494290828704833984375	45.405500015	1	1	1	1
2056	S6	2020	3	27	16	385.73534613715202112871338613331317901611328125	678.7192815144850328579195775091648101806640625	97.9632241355048023478957475163042545318603515625	11.8433334112166992468928583548404276371002197265625	50.06694452497689695746885263361036777496337890625	1.8213888852132600337796475287177599966526031494140625	536.9166687130920081472140736877918243408203125	0.0	14336.429484685200804960913956165313720703125	35.668666538	1	1	1	1
2057	S6	2020	3	27	17	252.46315820481999026014818809926509857177734375	574.9656769646529710371396504342555999755859375	79.272795550028405386910890229046344757080078125	10.425555539131099891392295830883085727691650390625	60.2261109564039003316793241538107395172119140625	1.7836111086110200130150360564584843814373016357421875	333.13333392143198352641775272786617279052734375	0.0	8948.883571227399443159811198711395263671875	27.178500001	1	1	1	1
2058	S6	2020	3	27	18	113.35038492414599886615178547799587249755859375	364.956892903644984471611678600311279296875	51.97806996239550159089048975147306919097900390625	9.5586111148198398268505115993320941925048828125	63.16083344353570083740123664028942584991455078125	1.668333329591479952114241314120590686798095703125	129.049999887744007764922571368515491485595703125	0.0	3187.347261110930048744194209575653076171875	12.767108353	1	1	1	1
2059	S6	2020	3	27	19	25.971265082265798440630533150397241115570068359375	98.0519032118950946141922031529247760772705078125	19.635551913111800814704110962338745594024658203125	8.513235251108799417352201999165117740631103515625	64.37009815141260560267255641520023345947265625	1.876960782297679930508138568256981670856475830078125	10.2166666901515004184375356999225914478302001953125	0.0	339.7487930875889787785126827657222747802734375	-0.423324986	1	1	1	0
2060	S6	2020	3	27	20	0	0	0	0	0	0	0	0.0	0	0.0	1	1	1	0
2061	S6	2020	3	27	21	0	0	0	0	0	0	0	0.0	0	0.0	1	1	1	0
2062	S6	2020	3	27	22	0	0	0	0	0	0	0	0.0	0	0.0	1	1	1	0
2063	S6	2020	3	27	23	0	0	0	0	0	0	0	0.0	0	0.0	1	1	1	0
2064	S6	2020	3	27	24	0	0	0	0	0	0	0	0.0	0	0.0	1	1	1	0
2065	S6	2020	3	28	1	0	0	0	0	0	0	0	0.0	0	0.0	1	1	1	0
2066	S6	2020	3	28	2	0	0	0	0	0	0	0	0.0	0	0.0	1	1	1	0
2067	S6	2020	3	28	3	0	0	0	0	0	0	0	0.0	0	0.0	1	1	1	0
2068	S6	2020	3	28	4	0	0	0	0	0	0	0	0.0	0	0.0	1	1	1	0
2069	S6	2020	3	28	5	0	0	0	0	0	0	0	0.0	0	0.0	1	1	1	0
2070	S6	2020	3	28	6	6.425483918190000309778042719699442386627197265625	2.31601491272448978264719698927365243434906005859375	6.62089745998382017688754785922355949878692626953125	3.099999904632559921680012848810292780399322509765625	89.9400009155273068017777404747903347015380859375	0.58000001013278901229597295241546817123889923095703125	0.21666667501752601143749643597402609884738922119140625	0.0	26.036953437141999501136524486355483531951904296875	-2.856844458	1	1	1	0
2071	S6	2020	3	28	7	56.77650580936000324072665534913539886474609375	268.09403790334800987693597562611103057861328125	24.86850504742719891737579018808901309967041015625	3.63472222487131002566229653893969953060150146484375	86.8447220272488067394078825600445270538330078125	0.53805555982722097496662172488868236541748046875	42.93333383587489748833831981755793094635009765625	0.0	870.90695810814804644905962049961090087890625	5.1668249959	1	1	1	0
2072	S6	2020	3	28	8	191.175649007161013059885590337216854095458984375	550.0413324144150237771100364625453948974609375	56.89034928215870223766614799387753009796142578125	5.1352778130107399334747242392040789127349853515625	81.4691672431097941853295196779072284698486328125	0.936111115747026989453161149867810308933258056640625	234.366667767364987184919300489127635955810546875	0.0	4686.6529251138299514423124492168426513671875	19.384833304	1	1	1	1
2073	S6	2020	3	28	9	331.17949701944900198213872499763965606689453125	680.547043185762959183193743228912353515625	77.59460313585060475816135294735431671142578125	6.7922222163942098660527335596270859241485595703125	73.7088890287611064877637545578181743621826171875	0.89694444669617501286751348743564449250698089599609375	458.4999993443479979760013520717620849609375	0.0	11664.560906092299774172715842723846435546875	36.355916707	1	1	1	1
2074	S6	2020	3	28	10	461.381128438312998696346767246723175048828125	731.492779201930943600018508732318878173828125	105.27008353339300583684234879910945892333984375	8.468888860278649843849052558653056621551513671875	71.4049997965494043228318332694470882415771484375	0.47611111443903697537649577498086728155612945556640625	651.916668812433044877252541482448577880859375	0.0	16831.03613853449860471300780773162841796875	46.828083483	1	1	1	1
2075	S6	2020	3	28	11	491.96669673653997278961469419300556182861328125	444.3478190800930178738781251013278961181640625	238.846024324633987134802737273275852203369140625	7.976323129074810225347391678951680660247802734375	72.88746566559939310536719858646392822265625	0.7883008373979070171344574191607534885406494140625	702.9166663686429501467500813305377960205078125	0.0	17969.95856761929826461710035800933837890625	48.721416791	1	1	1	1
2076	S6	2020	3	28	12	458.28259500963901018621982075273990631103515625	196.338563584989998389573884196579456329345703125	332.74095166962700886870152316987514495849609375	6.971839074430789651160011999309062957763671875	74.434770123711899714180617593228816986083984375	0.8790229920340679736767697249888442456722259521484375	597.83333266774798175902105867862701416015625	0.0	15234.091488520300117670558393001556396484375	48.737250042	1	1	1	1
2077	S6	2020	3	28	13	179.309007188139986510577728040516376495361328125	0.43524466493742097750185848781256936490535736083984375	178.570469890656994493838283233344554901123046875	5.721311469156230344879077165387570858001708984375	81.1419673481924945690479944460093975067138671875	0.80852459366204298962799157379777170717716217041015625	175.05000022550399307874613441526889801025390625	0.0	5124.686089158059985493309795856475830078125	20.954666638	1	1	1	1
2078	S6	2020	3	28	14	250.672702499173993828662787564098834991455078125	0.9250953126751200183974788160412572324275970458984375	249.42869610853500716984854079782962799072265625	6.40732388697878985084344094502739608287811279296875	79.0895776453152024032533518038690090179443359375	1.442535209739709944898322646622546017169952392578125	241.24999890724899387350887991487979888916015625	0.0	6841.9674426317096731509082019329071044921875	29.66883328	1	1	1	1
2079	S6	2020	3	28	15	148.74476621415800536851747892796993255615234375	0.3765176603395949950225940483505837619304656982421875	148.364053599039010578053421340882778167724609375	6.83666671117145963165739885880611836910247802734375	78.7716659545898068017777404747903347015380859375	1.522222218248570069221159428707323968410491943359375	137.5333334008849988094880245625972747802734375	0.0	3969.90598142147018734249286353588104248046875	16.145866744	1	1	1	1
2080	S6	2020	3	28	16	70.2678717068674956180984736420214176177978515625	0.226679555236100005455313066704547964036464691162109375	70.12150910253609481515013612806797027587890625	6.35649552013938023975470059667713940143585205078125	82.34652525564689540260587818920612335205078125	1.1812688812748499689320169636630453169345855712890625	63.34999992201719720696928561665117740631103515625	0.0	1889.21696941057007279596291482448577880859375	5.9774083336	1	1	1	1
2081	S6	2020	3	28	17	37.43108494476700087716380949132144451141357421875	0.1355721446006029895503530724454321898519992828369140625	37.4423780561242978137670434080064296722412109375	6.017924506709260157322205486707389354705810546875	82.579245321405693402994074858725070953369140625	0.8748427721314460114854227867908775806427001953125	31.650000065565098594788651098497211933135986328125	0.0	927.7729846537109779092133976519107818603515625	2.3952000027	1	1	1	1
2082	S6	2020	3	28	18	38.09181585766020106120777199976146221160888671875	8.1346055220450406153531730524264276027679443359375	37.32223418847510032492209575138986110687255859375	5.46974789728971000357660159352235496044158935546875	83.1448181537019053166659432463347911834716796875	1.633053214693600097007220028899610042572021484375	35.383333389957698500438709743320941925048828125	0.0	964.361472427842954857624135911464691162109375	3.6056500062	1	1	1	1
2083	S6	2020	3	28	19	18.407388699737399662126335897482931613922119140625	5.62046872637345007461817658622749149799346923828125	18.522182439392299357905358192510902881622314453125	5.58061676193437961046583950519561767578125	85.3660794900902004656018107198178768157958984375	0.531718064903687004374432945041917264461517333984375	10.3166666231117005736450664699077606201171875	0.0	307.09086674420899498727521859109401702880859375	0.8634499943	1	1	1	1
2084	S6	2020	3	28	20	0	0	0	0	0	0	0	0.0	0	0.0	1	1	1	0
2085	S6	2020	3	28	21	0	0	0	0	0	0	0	0.0	0	0.0	1	1	1	0
2086	S6	2020	3	28	22	0	0	0	0	0	0	0	0.0	0	0.0	1	1	1	0
2087	S6	2020	3	28	23	0	0	0	0	0	0	0	0.0	0	0.0	1	1	1	0
2088	S6	2020	3	28	24	0	0	0	0	0	0	0	0.0	0	0.0	1	1	1	0
2089	S6	2020	3	29	1	0	0	0	0	0	0	0	0.0	0	0.0	1	1	1	0
2090	S6	2020	3	29	2	0	0	0	0	0	0	0	0.0	0	0.0				
2091	S6	2020	3	29	3	0	0	0	0	0	0	0	0.0	0	0.0	1	1	1	0
2092	S6	2020	3	29	4	0	0	0	0	0	0	0	0.0	0	0.0	1	1	1	0
2093	S6	2020	3	29	5	0	0	0	0	0	0	0	0.0	0	0.0	1	1	1	0
2094	S6	2020	3	29	6	0	0	0	0	0	0	0.250000009934109979070626650354824960231781005859375	0.0	10.7447100880866006633596043684519827365875244140625	0.0	1	1	1	0
2095	S6	2020	3	29	7	55.90707250322609667136930511333048343658447265625	129.335760659328997235206770710647106170654296875	35.9657346452984967299926211126148700714111328125	1.3983673285464799374011590771260671317577362060546875	66.77102085035670597790158353745937347412109375	3.980816330715100104242765155504457652568817138671875	43.4833335612589024776752921752631664276123046875	0.0	776.8170671227079537857207469642162322998046875	20.392749937	1	1	1	0
2096	S6	2020	3	29	8	192.694979710049011600858648307621479034423828125	510.19622879028298712000832892954349517822265625	65.1383708530001968028955161571502685546875	1.869722193810670063385259709320962429046630859375	65.200277646382602370067615993320941925048828125	3.71138887786201987495360299362801015377044677734375	247.71666775147099315290688537061214447021484375	0.0	4820.8127637704301378107629716396331787109375	39.14058315	1	1	1	1
2097	S6	2020	3	29	9	358.63649071587400385396904312074184417724609375	736.748051537407036448712460696697235107421875	78.94971175723600254059419967234134674072265625	2.09583331081601986767282141954638063907623291015625	56.68444445927929820072677102871239185333251953125	4.83583332962459966353208073996938765048980712890625	502.433333297570015929522924125194549560546875	0.0	12823.3577171961005660705268383026123046875	52.133083407	1	1	1	1
2098	S6	2020	3	29	10	497.2353772481279747808002866804599761962890625	874.6352084689669936778955161571502685546875	67.5263958189221966676996089518070220947265625	2.60666667819022990215671597979962825775146484375	50.13416669633650002424474223516881465911865234375	4.78527778188387031832462525926530361175537109375	709.2000027497609835336334072053432464599609375	0.0	18731.737701098099933005869388580322265625	60.47524999	1	1	1	1
2099	S6	2020	3	29	11	598.8208501180009761810651980340480804443359375	914.7873121473520541258039884269237518310546875	71.4477633158364966448061750270426273345947265625	3.19499999549652979879965641885064542293548583984375	42.51527780956690349967175279743969440460205078125	4.94527777963214010270576181937940418720245361328125	840.499999125798012755694799125194549560546875	0.0	22738.508685429798788391053676605224609375	64.704416656	1	1	1	1
2100	S6	2020	3	29	12	653.8294520060220520463190041482448577880859375	928.3721045600040042700129561126232147216796875	75.2061890284220027069750358350574970245361328125	3.431666668256120100721773269469849765300750732421875	41.18722237481009784687557839788496494293212890625	4.78138888080914004063970423885621130466461181640625	953.4833351771039815503172576427459716796875	0.0	24990.4192924499002401717007160186767578125	65.120833381	1	1	1	1
2101	S6	2020	3	29	13	663.062619139245043697883374989032745361328125	930.7241354042520242728642188012599945068359375	75.3363040773208041400721413083374500274658203125	3.742372874486239897606765225646086037158966064453125	37.7796608768613992879181751050055027008056640625	4.35028247627834030453186642262153327465057373046875	972.816665967304970763507299125194549560546875	0.0	25394.75337664279868477024137973785400390625	62.191750113	1	1	1	1
2102	S6	2020	3	29	14	626.1430436876080420915968716144561767578125	912.978810289170951364212669432163238525390625	76.3040735668605947239484521560370922088623046875	4.0944444298744198107442571199499070644378662109375	36.07499985165060252256807871162891387939453125	4.31749999771515025059898107429035007953643798828125	918.5833364725109504433930851519107818603515625	0.0	24269.5109287896993919275701045989990234375	55.183166758	1	1	1	1
2103	S6	2020	3	29	15	539.0779693603509485910763032734394073486328125	865.9763399258459912744001485407352447509765625	77.2032005417514000100709381513297557830810546875	4.2033802771232497974551733932457864284515380859375	42.8205631954568985975129180587828159332275390625	3.8259154949389699851280965958721935749053955078125	779.0666644771889650655793957412242889404296875	0.0	21060.36341985060062143020331859588623046875	46.39066658	1	1	1	1
2104	S6	2020	3	29	16	424.98290549384199721316690556704998016357421875	824.79801618787905681529082357883453369140625	68.4933247248331014134237193502485752105712890625	4.2405555711852098710323843988589942455291748046875	46.57583334181040157773168175481259822845458984375	3.524722216361090065817052163765765726566314697265625	605.20000159740402523311786353588104248046875	0.0	16673.45558802279992960393428802490234375	33.319916614	1	1	1	1
2105	S6	2020	3	29	17	286.11036491393997494014911353588104248046875	746.8062888251409958684234879910945892333984375	54.89319388071690042352201999165117740631103515625	4.3488889945877904352755649597384035587310791015625	49.4605552355448025991790927946567535400390625	3.684166662726129803928643013932742178440093994140625	389.0666663646690039968234486877918243408203125	0.0	10578.225551048899433226324617862701416015625	18.330166562	1	1	1	1
2106	S6	2020	3	29	18	136.2005915323890121726435609161853790283203125	551.3564506530759672386921010911464691162109375	40.027852863735603250461281277239322662353515625	4.11888881524402972189591309870593249797821044921875	54.7900000784132004127968684770166873931884765625	3.468611118362999956588055283646099269390106201171875	162.533333773414000233970000408589839935302734375	0.0	3916.7335485418598182150162756443023681640625	4.5264416725	1	1	1	1
2107	S6	2020	3	29	19	31.82663000758289939540190971456468105316162109375	213.1410130507659914655960164964199066162109375	16.8804240736941011391536449082195758819580078125	3.590946515401200134220971449394710361957550048828125	57.72057601551949801432783715426921844482421875	2.2312757191344001483912506955675780773162841796875	15.5000000784639002660014739376492798328399658203125	0.0	424.62436318552801139958319254219532012939453125	-2.258695646	1	1	1	0
2108	S6	2020	3	29	20	0	0	0	0	0	0	0	0.0	0	0.0	1	1	1	0
2109	S6	2020	3	29	21	0	0	0	0	0	0	0	0.0	0	0.0	1	1	1	0
2110	S6	2020	3	29	22	0	0	0	0	0	0	0	0.0	0	0.0	1	1	1	0
2111	S6	2020	3	29	23	0	0	0	0	0	0	0	0.0	0	0.0	1	1	1	0
2112	S6	2020	3	29	24	0	0	0	0	0	0	0	0.0	0	0.0	1	1	1	0
2113	S6	2020	3	30	1	0	0	0	0	0	0	0	0.0	0	0.0	1	1	1	0
2114	S6	2020	3	30	2	0	0	0	0	0	0	0	0.0	0	0.0	1	1	1	0
2115	S6	2020	3	30	3	0	0	0	0	0	0	0	0.0	0	0.0	1	1	1	0
2116	S6	2020	3	30	4	0	0	0	0	0	0	0	0.0	0	0.0	1	1	1	0
2117	S6	2020	3	30	5	0	0	0	0	0	0	0	0.0	0	0.0	1	1	1	0
2118	S6	2020	3	30	6	6.6117052137851697324322230997495353221893310546875	0.12434128409950000182515594815413351170718669891357421875	6.8940628767013496513982317992486059665679931640625	3.2781250402331298943181536742486059665679931640625	83.746873140334997742684208787977695465087890625	1.5906249992549399419061728622182272374629974365234375	0.716666679363699987703739680000580847263336181640625	0.0	41.08266316664710160466711386106908321380615234375	2.7309666733	1	1	1	0
2119	S6	2020	3	30	7	37.47643167793250285058093140833079814910888671875	40.15281304393300132460353779606521129608154296875	32.66557828164690135963610373437404632568359375	3.478830078518150070721048905397765338420867919921875	84.2877436773357970878350897692143917083740234375	1.543732587341470008368560229428112506866455078125	38.15000007549920013616429059766232967376708984375	0.0	966.81352518498897552490234375	22.42353336	1	1	1	1
2120	S6	2020	3	30	8	208.0324567085079934258828870952129364013671875	374.47929482796598676941357553005218505859375	118.556656704391997436687233857810497283935546875	5.1334302272907503805754458880983293056488037109375	80.24476721120430511291488073766231536865234375	1.354941864952790009368754908791743218898773193359375	232.833333189288993025911622680723667144775390625	0.0	4967.3439135153903407626785337924957275390625	20.778408456	1	1	1	1
2121	S6	2020	3	30	9	190.103671245084996144214528612792491912841796875	209.885229165216998126197722740471363067626953125	102.1138598613249968138916301541030406951904296875	5.4467948568172896983696773531846702098846435546875	76.4403844980092941341354162432253360748291015625	1.1897435900874600012144810534664429724216461181640625	229.266667490202991075420868583023548126220703125	0.0	5983.8731497526096063666045665740966796875	37.339149898	1	1	1	1
2122	S6	2020	3	30	10	398.16572336403697818241198547184467315673828125	605.42624615170598190161399543285369873046875	89.1565763404569935346444253809750080108642578125	6.67259034047642973774827623856253921985626220703125	59.7337348432426011868301429785788059234619140625	2.0972891534308200078839945490472018718719482421875	515.3666653980809542190399952232837677001953125	0.0	13640.54102301589955459348857402801513671875	48.459858155	1	1	1	1
2123	S6	2020	3	30	11	516.286003703454980495735071599483489990234375	654.671154232069966383278369903564453125	138.614417389900012267389683984220027923583984375	6.956774177858900287674259743653237819671630859375	52.92290347929920102387768565677106380462646484375	2.729999986483199858611214949632994830608367919921875	653.9833287398020047476165927946567535400390625	0.0	17521.08296751969828619621694087982177734375	52.466791548	1	1	1	1
2124	S6	2020	3	30	12	570.366178236590030792285688221454620361328125	699.869625354310983311734162271022796630859375	130.2758532459710067996638827025890350341796875	6.6128617344945102018982652225531637668609619140625	51.8067523919500985130071057938039302825927734375	2.801929260181839964616301585920155048370361328125	746.6666676104040334394085220992565155029296875	0.0	19323.63743484019869356416165828704833984375	60.876666713	1	1	1	1
2125	S6	2020	3	30	13	666.38696587991898923064582049846649169921875	900.916348390411030777613632380962371826171875	93.0033516911735063104060827754437923431396484375	6.792982546209589855834565241821110248565673828125	53.02865500199160209149340516887605190277099609375	2.762280697188180145218439065502025187015533447265625	908.95000919699805308482609689235687255859375	0.0	23366.98061525819866801612079143524169921875	63.05199976	1	1	1	1
2126	S6	2020	3	30	14	626.7370652940529680563486181199550628662109375	908.689926656086981893167831003665924072265625	74.7302184846665937811849289573729038238525390625	6.38305554919771989119681165902875363826751708984375	52.4391665352714966275016195140779018402099609375	3.1338888867033798391048549092374742031097412109375	912.8333290417989474008209072053432464599609375	0.0	23997.0358292261007591150701045989990234375	57.126499621	1	1	1	1
2127	S6	2020	3	30	15	546.1602670457619979060837067663669586181640625	884.9449600219719513916061259806156158447265625	70.537951193915404246581601910293102264404296875	6.15361107720269018273029359988868236541748046875	46.99833340115009860937789198942482471466064453125	3.237499993046120128070697319344617426395416259765625	785.78333357969904682249762117862701416015625	0.0	21089.71076011650075088255107402801513671875	46.313500277	1	1	1	1
2128	S6	2020	3	30	16	431.3115487840440209765802137553691864013671875	839.1599784003359445705427788197994232177734375	64.00794336530890404901583679020404815673828125	6.215277794996890037282355478964745998382568359375	41.44194428126009910329230478964745998382568359375	3.499999991887139838553366644191555678844451904296875	604.6833316485079876656527630984783172607421875	0.0	16562.73249387739997473545372486114501953125	32.999749867	1	1	1	1
2129	S6	2020	3	30	17	291.308140182494980763294734060764312744140625	753.3886701795789804236846975982189178466796875	54.4443815443249974350692355073988437652587890625	6.16333328088123977295254007913172245025634765625	36.9319443490769998561518150381743907928466796875	3.687777773042519857682464134995825588703155517578125	387.733334302901994306012056767940521240234375	0.0	10551.10587477680019219405949115753173828125	18.220583375	1	1	1	1
2130	S6	2020	3	30	18	142.86283855438199452692060731351375579833984375	581.459846411810985955526120960712432861328125	38.5466479672326016725492081604897975921630859375	6.01555554866790043178070845897309482097625732421875	34.81805564032659816575687727890908718109130859375	3.457777775989629986952422768808901309967041015625	164.83333408832498889751150272786617279052734375	0.0	4017.12878495454015137511305510997772216796875	3.8482249786	1	1	1	1
2131	S6	2020	3	30	19	34.52029498857940126299581606872379779815673828125	238.40962706488500089108129031956195831298828125	17.019283728165998326176122645847499370574951171875	5.50395257859362008190373671823181211948394775390625	35.82371554167369964716272079385817050933837890625	2.819367588744329911065733540453948080539703369140625	15.7166667631826992845844870316796004772186279296875	0.0	455.2196683983009961593779735267162322998046875	-5.432360001	1	1	1	0
2132	S6	2020	3	30	20	0	0	0	0	0	0	0	0.0	0	0.0	1	1	1	0
2133	S6	2020	3	30	21	0	0	0	0	0	0	0	0.0	-0.0001433333333504000091894459156804941812879405915737152099609375	0.0	1	1	1	0
2134	S6	2020	3	30	22	0	0	0	0	0	0	0	0.0	0	0.0	1	1	1	0
2135	S6	2020	3	30	23	0	0	0	0	0	0	0	0.0	-0.00014500000133919999198602035495042628099326975643634796142578125	0.0	1	1	1	0
2136	S6	2020	3	30	24	0	0	0	0	0	0	0	0.0	-0.0004816666698085000117117437934410872912849299609661102294921875	0.0	1	1	1	0
2137	S6	2020	3	31	1	0	0	0	0	0	0	0	0.0	-0.00006999999868639999469309420643270414075232110917568206787109375	0.0	1	1	1	0
2138	S6	2020	3	31	2	0	0	0	0	0	0	0	0.0	-0.00024000000090979999207985162712475357693620026111602783203125	0.0	1	1	1	0
2139	S6	2020	3	31	3	0	0	0	0	0	0	0	0.0	-0.0003866666702378999845128582091291491451556794345378875732421875	0.0	1	1	1	0
2140	S6	2020	3	31	4	0	0	0	0	0	0	0	0.0	-0.0000233333328954665993938168144783418256338336504995822906494140625	0.0	1	1	1	0
2141	S6	2020	3	31	5	0	0	0	0	0	0	0	0.0	-0.062201666666314402165394170651779859326779842376708984375	0.0	1	1	1	0
2142	S6	2020	3	31	6	11.761287979781599233319866470992565155029296875	86.88955369032919406890869140625	8.9164952337741798515935442992486059665679931640625	-0.375000007450579986301164581163902767002582550048828125	73.856250286102294921875	0.537500006146728992462158203125	2.716666714210690170006046173512004315853118896484375	0.0	78.0721613399993970006107701919972896575927734375	7.3511333476	1	1	1	0
2143	S6	2020	3	31	7	76.5387498219808009025655337609350681304931640625	413.95051948759197557592415250837802886962890625	25.10114934179510015610503614880144596099853515625	0.427777777612208975899221741201472468674182891845703125	70.2955560366311971165487193502485752105712890625	0.68583333707518001620684344743494875729084014892578125	67.3666668124495942038265638984739780426025390625	0.0	1335.7833207895300802192650735378265380859375	22.621083299	1	1	1	0
2144	S6	2020	3	31	8	221.344453599717013503322959877550601959228515625	689.273556179470006100018508732318878173828125	44.14974732928799738829184207133948802947998046875	2.752222206195189979638371369219385087490081787109375	60.1905555301242003451989148743450641632080078125	0.9055555577079450468858112799352966248989105224609375	289.83333284656197292861179448664188385009765625	0.0	5610.297084351370358490385115146636962890625	39.766166528	1	1	1	1
2145	S6	2020	3	31	9	368.8813601175939993481733836233615875244140625	808.7751890394420115626417100429534912109375	54.36484102672999796368458191864192485809326171875	4.23999996781348986729653915972448885440826416015625	51.50000013775289886552855023182928562164306640625	1.541111108163990106589835704653523862361907958984375	510.700002312659989911480806767940521240234375	0.0	12970.180225372299901209771633148193359375	50.382750034	1	1	1	1
2146	S6	2020	3	31	10	498.66798468695702695185900665819644927978515625	869.1652359008779740179306827485561370849609375	61.67624134487569875773260719142854213714599609375	6.3127777311536998894325733999721705913543701171875	43.2552778244018014675020822323858737945556640625	1.7080555525918799109064138974645175039768218994140625	699.0000009536739753457368351519107818603515625	0.0	18239.8309628167990013025701045989990234375	58.048500156	1	1	1	1
2147	S6	2020	3	31	11	596.5549238416880371005390770733356475830078125	902.789113023545951364212669432163238525390625	65.698077127668597086085355840623378753662109375	6.66583330763709991373389129876159131526947021484375	40.799166785346102415132918395102024078369140625	2.2275000000993401272353366948664188385009765625	823.9666670560840202597319148480892181396484375	0.0	22088.717754681900260038673877716064453125	62.828666496	1	1	1	1
2148	S6	2020	3	31	12	651.19836883544894590158946812152862548828125	919.706825934516018605791032314300537109375	68.0570127381217986339834169484674930572509765625	7.66527780161962990490565061918459832668304443359375	37.4563888337876988998687011189758777618408203125	2.21722222326530005176437043701298534870147705078125	936.2999985615409741512848995625972747802734375	0.0	24123.5085884729996905662119388580322265625	62.312416426	1	1	1	1
2149	S6	2020	3	31	13	659.674756876627043311600573360919952392578125	916.8129831949860317763523198664188385009765625	71.1661364873250050777642172761261463165283203125	8.2219444791475897460486521595157682895660400390625	36.93333330154410276691123726777732372283935546875	2.13194444138142014111281241639517247676849365234375	960.000001390774968967889435589313507080078125	0.0	24485.027074813799117691814899444580078125	58.441666667	1	1	1	1
2150	S6	2020	3	31	14	623.85829620361300840158946812152862548828125	904.19196641710004769265651702880859375	69.9937609142726984146065660752356052398681640625	8.28111115031772015981914591975510120391845703125	40.53750003178910077394903055392205715179443359375	2.2730555505388299053493028623051941394805908203125	903.0000011126199979116790927946567535400390625	0.0	23269.13332144410014734603464603424072265625	53.870249875	1	1	1	1
2151	S6	2020	3	31	15	545.0806760152180459044757299125194549560546875	876.1456948174369472326361574232578277587890625	69.33342583974200579177704639732837677001953125	8.4522222624884708608306027599610388278961181640625	38.60777794520060268723682384006679058074951171875	2.71611111081308020942515213391743600368499755859375	777.466664711633029583026655018329620361328125	0.0	20553.7738323211015085689723491668701171875	43.294833326	1	1	1	1
2152	S6	2020	3	31	16	425.84618211458501946253818459808826446533203125	805.0827579604839456806075759232044219970703125	69.6741854491846055452697328291833400726318359375	8.3608937956101403443653907743282616138458251953125	42.612011211544398747719242237508296966552734375	2.9494413449610998867456146399490535259246826171875	593.6166663964589815805084072053432464599609375	0.0	16158.0270210900998790748417377471923828125	26.033083487	1	1	1	1
2153	S6	2020	3	31	17	249.79077469218799478767323307693004608154296875	422.17017496444901780705549754202365875244140625	105.067921638488002145095379091799259185791015625	8.1548296267335995679559346172027289867401123046875	44.9684659892862015340142534114420413970947265625	3.21846590572121016293749562464654445648193359375	287.39999917646201765819569118320941925048828125	0.0	7863.9396617809898089035414159297943115234375	5.7138166631	1	1	1	1
2154	S6	2020	3	31	18	60.31927709127860026683265459723770618438720703125	2.20008587894291007813762917066924273967742919921875	59.8012149938301007523477892391383647918701171875	7.271866236556530083134930464439094066619873046875	52.237883203872996773498016409575939178466796875	3.3961002723752198306783611769787967205047607421875	53.6666669572394994247588329017162322998046875	0.0	1481.86143214502999398973770439624786376953125	-1.111050001	1	1	1	1
2155	S6	2020	3	31	19	9.0118336902474407423824231955222785472869873046875	0.1134348563779629948111704607072169892489910125732421875	9.108020920573540735176720772869884967803955078125	6.841886824481889561866410076618194580078125	57.43018854968949682415768620558083057403564453125	3.206415085860010005802678278996609151363372802734375	4.7500000839742799740861300961114466190338134765625	0.0	140.891426157516008288439479656517505645751953125	-1.851851865	1	1	1	1
2156	S6	2020	3	31	20	0	0	0	0	0	0	0	0.0	0	0.0	1	1	1	0
2157	S6	2020	3	31	21	0	0	0	0	0	0	0	0.0	0	0.0	1	1	1	0
2158	S6	2020	3	31	22	0	0	0	0	0	0	0	0.0	0	0.0	1	1	1	0
2159	S6	2020	3	31	23	0	0	0	0	0	0	0	0.0	0	0.0	1	1	1	0
2160	S6	2020	3	31	24	0	0	0	0	0	0	0	0.0	0	0.0	1	1	1	0
2161	S6	2019	4	1	1	0	0	0	0	0	0	0	0.0	0	0.0	1	1	1	0
2162	S6	2019	4	1	2	0	0	0	0	0	0	0	0.0	0	0.0	1	1	1	0
2163	S6	2019	4	1	3	0	0	0	0	0	0	0	0.0	0	0.0	1	1	1	0
2164	S6	2019	4	1	4	0	0	0	0	0	0	0	0.0	0	0.0	1	1	1	0
2165	S6	2019	4	1	5	0	0	0	0	0	0	0	0.0	0	0.0	1	1	1	0
2166	S6	2019	4	1	6	13.508889569176499634295396390371024608612060546875	85.8663520481851065824230317957699298858642578125	10.4471638013445993209415973979048430919647216796875	0.68888888945655202267204231247887946665287017822265625	82.53968217637799398289644159376621246337890625	0.0412698425943889002365239093705895356833934783935546875	1.916666650989399922622169469832442700862884521484375	0.0	82.1122413035480036569424555636942386627197265625	0.0	1	1	1	0
2167	S6	2019	4	1	7	78.502790970272400272733648307621479034423828125	422.69657247331400640177889727056026458740234375	27.2699308368894008935967576690018177032470703125	1.9044444319274600463387514537316747009754180908203125	80.3733329349093992277630604803562164306640625	0.24972222563293200447986919243703596293926239013671875	59.583333786576503143805894069373607635498046875	0.0	1248.09767616290992009453475475311279296875	0.0	1	1	1	0
2168	S6	2019	4	1	8	222.8382007175019907663227058947086334228515625	702.7348188612189687773934565484523773193359375	48.33081831402240169381911982782185077667236328125	4.136388908492190097376806079410016536712646484375	76.706111250983298077699146233499050140380859375	0.371666670921776021163651648748782463371753692626953125	267.00000092387000449889455921947956085205078125	0.0	5646.659332017079577781260013580322265625	0.0	1	1	1	1
2169	S6	2019	4	1	9	369.64722841050797796924598515033721923828125	822.6332611083979600152815692126750946044921875	60.47028779983519797269764239899814128875732421875	6.851666687594519800086345640011131763458251953125	68.148333125644199981252313591539859771728515625	0.30138889228304199807695340496138669550418853759765625	443.9166635274870031935279257595539093017578125	0.0	12877.09289789190006558783352375030517578125	0.0	1	1	1	1
2170	S6	2019	4	1	10	501.95651923285498696714057587087154388427734375	890.5901272243919493121211417019367218017578125	68.1872305870056010235202847979962825775146484375	7.48111112780040965475336633971892297267913818359375	49.1674998389350008665132918395102024078369140625	0.9305555576251609561921895874547772109508514404296875	647.083332141241044155322015285491943359375	0.0	17972.33011325190091156400740146636962890625	0.0	1	1	1	1
2171	S6	2019	4	1	11	597.9779440985779501716024242341518402099609375	924.558173963758008540025912225246429443359375	72.5007128609551045883563347160816192626953125	8.2091667162047396999469128786586225032806396484375	42.9674998283386031516783987171947956085205078125	0.9202777796321439662818875149241648614406585693359375	815.0833348433189939896692521870136260986328125	0.0	21502.69265969589832820929586887359619140625	0.0	1	1	1	1
2172	S6	2019	4	1	12	660.6670837402340339394868351519107818603515625	953.63673841688296306529082357883453369140625	72.4257446289062016830939683131873607635498046875	8.2113888528611891359787477995269000530242919921875	33.75611113442310085019926191307604312896728515625	1.9991666586034799735216438421048223972320556640625	929.6666681766510009765625	0.0	23790.3519471485997200943529605865478515625	0.0	1	1	1	1
2173	S6	2019	4	1	13	672.584474012586042590555734932422637939453125	957.0006227281349993063486181199550628662109375	73.0678787867228010100006940774619579315185546875	8.2427777369817096797532940399833023548126220703125	34.90472210778130346398029359988868236541748046875	2.5305555567145301409937019343487918376922607421875	961.1666699250539522836334072053432464599609375	0.0	24433.78520011900036479346454143524169921875	0.0	1	1	1	1
2174	S6	2019	4	1	14	639.7254998101119554121396504342555999755859375	950.382702128091978011070750653743743896484375	71.5729548348320037121084169484674930572509765625	8.2369444582197406390378091600723564624786376953125	34.1088888698154022449671174399554729461669921875	2.5316666579908702061629810486920177936553955078125	942.6666696866360553030972369015216827392578125	0.0	23536.50331497189836227335035800933837890625	0.0	1	1	1	1
2175	S6	2019	4	1	15	560.4718577067050091500277630984783172607421875	926.1966993543829858026583679020404815673828125	68.9153747346665994655268150381743907928466796875	8.206944547759160712985249119810760021209716796875	32.52361093097260180684315855614840984344482421875	2.72555555494295020935169304721057415008544921875	819.6666638056440206128172576427459716796875	0.0	20926.33163928980138734914362430572509765625	0.0	1	1	1	1
2176	S6	2019	4	1	16	444.019498952229014321346767246723175048828125	877.991755506727031388436444103717803955078125	63.65544719696040232292943983338773250579833984375	8.1138889630635500083144506788812577724456787109375	32.92555548350009786418013391084969043731689453125	2.71444443927869993871127007878385484218597412109375	652.666663130125016323290765285491943359375	0.0	16611.36428515109946602024137973785400390625	0.0	1	1	1	1
2177	S6	2019	4	1	17	303.44909265306199586120783351361751556396484375	791.53300628662100280052982270717620849609375	55.303779888153002275430480949580669403076171875	7.53888891273073991072806165902875363826751708984375	38.31833325492009834078999119810760021209716796875	2.601666658454469871486480769817717373371124267578125	437.5833322604499926455901004374027252197265625	0.0	10784.077197313299620873294770717620849609375	0.0	1	1	1	1
2178	S6	2019	4	1	18	151.122739240858010134616051800549030303955078125	614.0853718227809849850018508732318878173828125	40.33036002582969814511670847423374652862548828125	6.55305557250976011829379785922355949878692626953125	50.68222253587509840144775807857513427734375	2.149722215284899817788755171932280063629150390625	192.666665030020993754078517667949199676513671875	0.0	4234.3796590964002461987547576427459716796875	0.0	1	1	1	1
2179	S6	2019	4	1	19	34.6868868304374018407543189823627471923828125	231.8630114964070116911898367106914520263671875	17.525091916994899321480261278338730335235595703125	4.92518798569987037438977495185099542140960693359375	67.245488604208503602421842515468597412109375	2.044736835517380058035996626131236553192138671875	8.500000112689999554049791186116635799407958984375	0.0	460.9506162038679804027196951210498809814453125	0.0	1	1	1	0
2180	S6	2019	4	1	20	0	0	0	0	0	0	0	0.0	0	0.0	1	1	1	0
2181	S6	2019	4	1	21	0	0	0	0	0	0	0	0.0	0	0.0	1	1	1	0
2182	S6	2019	4	1	22	0	0	0	0	0	0	0	0.0	0	0.0	1	1	1	0
2183	S6	2019	4	1	23	0	0	0	0	0	0	0	0.0	0	0.0	1	1	1	0
2184	S6	2019	4	1	24	0	0	0	0	0	0	0	0.0	0	0.0	1	1	1	0
2185	S6	2019	4	2	1	0	0	0	0	0	0	0	0.0	0	0.0	1	1	1	0
2186	S6	2019	4	2	2	0	0	0	0	0	0	0	0.0	0	0.0	1	1	1	0
2187	S6	2019	4	2	3	0	0	0	0	0	0	0	0.0	0	0.0	1	1	1	0
2188	S6	2019	4	2	4	0	0	0	0	0	0	0	0.0	0	0.0	1	1	1	0
2189	S6	2019	4	2	5	0	0	0	0	0	0	0	0.0	0	0.0	1	1	1	0
2190	S6	2019	4	2	6	13.463707884152700700042259995825588703155517578125	80.971564981199406929590622894465923309326171875	10.62296295166009940658113919198513031005859375	4.4821428741727498135105633991770446300506591796875	71.5952364603678006460540927946567535400390625	2.26904761649312991522720039938576519489288330078125	2.250000009856500060578810007427819073200225830078125	0.0	98.1561165923875051930735935457050800323486328125	0.0	1	1	1	0
2191	S6	2019	4	2	7	77.6779459370506941695566638372838497161865234375	378.05399797227602221028064377605915069580078125	30.5959773434532991132073220796883106231689453125	5.14472222990459027158749449881725013256072998046875	69.5458333545260956043421174399554729461669921875	2.722222215765050190583451694692485034465789794921875	27.583333197981101392315395059995353221893310546875	0.0	1191.107313459109946052194572985172271728515625	0.0	1	1	1	1
2192	S6	2019	4	2	8	219.1043510860860124012106098234653472900390625	645.929202609592039152630604803562164306640625	54.36709839502969998648040927946567535400390625	6.15888894663916008909154697903431951999664306640625	65.485000175899898522402509115636348724365234375	3.56611110717058021890579766477458178997039794921875	178.333334003884004914652905426919460296630859375	0.0	4172.5565145413102072780020534992218017578125	0.0	1	1	1	1
2193	S6	2019	4	2	9	366.50925199720501268529915250837802886962890625	775.118033006456016664742492139339447021484375	69.8114766120909990831933100707828998565673828125	6.65277778440051026365154029917903244495391845703125	62.4763886981539968701326870359480381011962890625	4.2613888780275903656047375989146530628204345703125	402.24999686082099970008130185306072235107421875	0.0	11439.676950375200249254703521728515625	0.0	1	1	1	1
2194	S6	2019	4	2	10	498.289514753553021364496089518070220947265625	847.08512641058996450738050043582916259765625	79.8097330941094043055272777564823627471923828125	7.06944445901446005819934725877828896045684814453125	60.31444455252749747842244687490165233612060546875	4.397222211294700144890157389454543590545654296875	641.91666742165898540406487882137298583984375	0.0	18176.8368085225010872818529605865478515625	0.0	1	1	1	1
2195	S6	2019	4	2	11	601.796654934353000498958863317966461181640625	900.82228902180895602214150130748748779296875	82.1097156100803005074340035207569599151611328125	7.54111109839544990762760789948515594005584716796875	58.67916663487749673322468879632651805877685546875	4.41305555370117996716317065875045955181121826171875	815.666665633518050526618026196956634521484375	0.0	22180.8422009150017402134835720062255859375	0.0	1	1	1	1
2196	S6	2019	4	2	12	662.43341386583097119000740349292755126953125	923.5194344414600209347554482519626617431640625	84.7941730287339936467105871997773647308349609375	7.79138894213569965785382009926252067089080810546875	57.59222236209439671483778511174023151397705078125	4.262777790675560396493892767466604709625244140625	927.0833333333340533499722369015216827392578125	0.0	24517.62541135149876936338841915130615234375	0.0	1	1	1	1
2197	S6	2019	4	2	13	672.4429761626259960394236259162425994873046875	923.6185909685649448874755762517452239990234375	87.4529483231992941227872506715357303619384765625	7.5805013638020799504602109664119780063629150390625	55.71866306953109670985213597305119037628173828125	4.90250697291993020598965813405811786651611328125	953.9166589577999957327847369015216827392578125	0.0	25075.363715489700553007423877716064453125	0.0	1	1	1	1
2198	S6	2019	4	2	14	635.79977722167905085370875895023345947265625	919.4836620754659861631807871162891387939453125	84.9118301391601022487520822323858737945556640625	7.9655555976761700520683007198385894298553466796875	50.8466666645472997743127052672207355499267578125	4.94305556184715033651855264906771481037139892578125	893.833339214324951171875	0.0	22949.2490688959005638025701045989990234375	0.0	1	1	1	1
2199	S6	2019	4	2	15	556.995409138997047193697653710842132568359375	898.606884765624954525264911353588104248046875	77.9908919864229943641475983895361423492431640625	8.9058332681655798523934208787977695465087890625	42.6497224595810990876998403109610080718994140625	5.16249999884102006575403720489703118801116943359375	615.333328644434004672802984714508056640625	0.0	15888.613720734900198294781148433685302734375	0.0	1	1	1	1
2200	S6	2019	4	2	16	438.336485799153024345287121832370758056640625	839.7713480631509810336865484714508056640625	71.868100865681896038950071670114994049072265625	9.4955555200576693408720529987476766109466552734375	37.87250006993610185190846095792949199676513671875	5.49333333207500995598593362956307828426361083984375	559.0833375851290156788309104740619659423828125	0.0	14184.692998727099620737135410308837890625	0.0	1	1	1	1
2201	S6	2019	4	2	17	258.13519191741897884639911353588104248046875	547.615763685437968888436444103717803955078125	79.402227168612995455987402237951755523681640625	9.4844444036483697146877602790482342243194580078125	40.07555549409649842118597007356584072113037109375	5.34055555231041001462699568946845829486846923828125	361.916662504276018808013759553432464599609375	0.0	9007.444540659560516360215842723846435546875	0.0	1	1	1	1
2202	S6	2019	4	2	18	98.334192837609094794970587827265262603759765625	171.619982024695985955986543558537960052490234375	63.76069074736700059702343423850834369659423828125	9.2177779277165701188323509995825588703155517578125	40.844444391462502608192153275012969970703125	5.26194444696108032388792707934044301509857177734375	113.2499997814490058090086677111685276031494140625	0.0	2714.826981847480055876076221466064453125	0.0	1	1	1	1
2203	S6	2019	4	2	19	13.4791311717214998822100824327208101749420166015625	0.409520550069349009714159137729438953101634979248046875	13.8134816630195995657004459644667804241180419921875	8.6866411835182706369096194976009428501129150390625	43.85190831249899900967648136429488658905029296875	4.42251908779144020655849089962430298328399658203125	7.5000001525040698169277675333432853221893310546875	0.0	245.70348265115200092623126693069934844970703125	0.0	1	1	1	1
2204	S6	2019	4	2	20	0	0	0	0	0	0	0	0.0	0	0.0	1	1	1	0
2205	S6	2019	4	2	21	0	0	0	0	0	0	0	0.0	0	0.0	1	1	1	0
2206	S6	2019	4	2	22	0	0	0	0	0	0	0	0.0	0	0.0	1	1	1	0
2207	S6	2019	4	2	23	0	0	0	0	0	0	0	0.0	0	0.0	1	1	1	0
2208	S6	2019	4	2	24	0	0	0	0	0	0	0	0.0	0	0.0	1	1	1	0
2209	S6	2019	4	3	1	0	0	0	0	0	0	0	0.0	0	0.0	1	1	1	0
2210	S6	2019	4	3	2	0	0	0	0	0	0	0	0.0	0	0.0	1	1	1	0
2211	S6	2019	4	3	3	0	0	0	0	0	0	0	0.0	0	0.0	1	1	1	0
2212	S6	2019	4	3	4	0	0	0	0	0	0	0	0.0	0	0.0	1	1	1	0
2213	S6	2019	4	3	5	0	0	0	0	0	0	0	0.0	0	0.0	1	1	1	0
2214	S6	2019	4	3	6	4.0681781847398301721341340453363955020904541015625	0.25690417941455001571426919326768256723880767822265625	4.17211952052273016278149952995590865612030029296875	7.11648340539616963695834783720783889293670654296875	76.542856488908995515885180793702602386474609375	2.663736264784250185044811587431468069553375244140625	1.0833333653863499446146079208119772374629974365234375	0.0	34.22908329715330211229229462333023548126220703125	0.0	1	1	1	0
2215	S6	2019	4	3	7	46.92650338278870236763395951129496097564697265625	0.35982736113170699088215087613207288086414337158203125	47.24259015321730004188793827779591083526611328125	7.20749992264641026196159145911224186420440673828125	77.25110999213319473710726015269756317138671875	2.670555550191129778880849698907695710659027099609375	46.58333390640709836816313327290117740631103515625	0.0	1356.540427853660048640449531376361846923828125	0.0	1	1	1	1
2216	S6	2019	4	3	8	98.99178962707509299434605054557323455810546875	1.2190579295986199159784746370860375463962554931640625	99.0829970889621023388826870359480381011962890625	7.9894444968965299125329693197272717952728271484375	75.3325003517997942026340751908719539642333984375	3.02166666305727016350601843441836535930633544921875	99.916666746139298993512056767940521240234375	0.0	2992.79694755871014422154985368251800537109375	0.0	1	1	1	1
2217	S6	2019	4	3	9	200.234628253511999673719401471316814422607421875	20.566152981254699483315562247298657894134521484375	191.688528866237987813292420469224452972412109375	8.8036111010445399216450823587365448474884033203125	72.9305554072061994475006940774619579315185546875	2.9016666673951601040926107089035212993621826171875	198.333332935969991694946656934916973114013671875	0.0	5920.99627852440971764735877513885498046875	0.0	1	1	1	1
2218	S6	2019	4	3	10	344.29791874355697700593736954033374786376953125	173.027859006489990179034066386520862579345703125	253.589402516681985844115843065083026885986328125	9.961388818422950208741895039565861225128173828125	68.8886111577350988000034703873097896575927734375	2.906388894054619864704136489308439195156097412109375	390.75000335772898552022525109350681304931640625	0.0	11250.034759441999995033256709575653076171875	0.0	1	1	1	1
2219	S6	2019	4	3	11	508.73487450219698757791775278747081756591796875	413.5039767368920138324028812348842620849609375	269.80392651571202122795511968433856964111328125	10.38774377456280006981614860706031322479248046875	67.4587745772762019669244182296097278594970703125	3.65236768790606003420862180064432322978973388671875	625.5000059803320482387789525091648101806640625	0.0	17224.8411575952995917759835720062255859375	0.0	1	1	1	1
2220	S6	2019	4	3	12	417.7411879645450198950129561126232147216796875	90.902670172933000003467896021902561187744140625	356.799697706434017163701355457305908203125	10.8555555608537002143521021935157477855682373046875	66.197222190432995603259769268333911895751953125	3.274166667461389845783514829236082732677459716796875	462.58333822091299225576221942901611328125	0.0	12893.273552258799099945463240146636962890625	0.0	1	1	1	1
2221	S6	2019	4	3	13	465.67972065279997195830219425261020660400390625	180.319900784817008343452471308410167694091796875	346.97071069063900949913659133017063140869140625	11.94011140201740062138924258761107921600341796875	62.26740953450740079233582946471869945526123046875	2.792757658573239876176330653834156692028045654296875	546.500004827975999432965181767940521240234375	0.0	14843.547979990600651944987475872039794921875	0.0	1	1	1	1
2222	S6	2019	4	3	14	380.39933013915998571974341757595539093017578125	72.603493738174393001827411353588104248046875	334.5992395189069839034345932304859161376953125	13.70999994542859923285504919476807117462158203125	56.520277955796899505003239028155803680419921875	3.34194443706009014505298182484693825244903564453125	423.33333194255902753866394050419330596923828125	0.0	11675.82060893369998666457831859588623046875	0.0	1	1	1	1
2223	S6	2019	4	3	15	397.50493325127399657503701746463775634765625	218.604128561417013543177745305001735687255859375	281.007641601561999777914024889469146728515625	13.8941665490467993748779917950741946697235107421875	53.503611024220703029641299508512020111083984375	2.828055555125069897570710963918827474117279052734375	484.99999692042598553598509170114994049072265625	0.0	12895.945231119700110866688191890716552734375	0.0	1	1	1	1
2224	S6	2019	4	3	16	324.33865220811600238448590971529483795166015625	283.67410744560999091845587827265262603759765625	197.61725120544400624567060731351375579833984375	13.172777758704199868589057587087154388427734375	56.28277797698969919792943983338773250579833984375	2.839444441099959970387089924770407378673553466796875	402.5833358367279970480012707412242889404296875	0.0	10530.91450532270027906633913516998291015625	0.0	1	1	1	1
2225	S6	2019	4	3	17	162.317661179435987151009612716734409332275390625	53.225680084360902810658444650471210479736328125	144.4657771216490118604269810020923614501953125	11.6300001621246007488252871553413569927215576171875	59.30666658613409936151583679020404815673828125	1.7769444393614899357913827770971693098545074462890625	168.25000072519100058343610726296901702880859375	0.0	4648.9635308583501682733185589313507080078125	0.0	1	1	1	1
2226	S6	2019	4	3	18	73.2494486490885066132250358350574970245361328125	4.37553335502742957174859839142300188541412353515625	72.8517280896503933718122425489127635955810546875	11.4855555322435005649595041177235543727874755859375	60.9844444274902031111196265555918216705322265625	2.4313888876802298710799732361920177936553955078125	66.8333340436220026958835660479962825775146484375	0.0	1919.46747650702991450089029967784881591796875	0.0	1	1	1	1
2227	S6	2019	4	3	19	20.8085464298955002959701232612133026123046875	0.119914358589639002961035885164164938032627105712890625	21.05617836911699924939966876991093158721923828125	10.25559843645130086997596663422882556915283203125	62.86525072370250200037844479084014892578125	2.506563703525940045580000514746643602848052978515625	10.916666777726799608672081376425921916961669921875	0.0	363.62986367506499618684756569564342498779296875	0.0	1	1	1	1
2228	S6	2019	4	3	20	0	0	0	0	0	0	0	0.0	0	0.0	1	1	1	0
2229	S6	2019	4	3	21	0	0	0	0	0	0	0	0.0	0	0.0	1	1	1	0
2230	S6	2019	4	3	22	0	0	0	0	0	0	0	0.0	0	0.0	1	1	1	0
2231	S6	2019	4	3	23	0	0	0	0	0	0	0	0.0	0	0.0	1	1	1	0
2232	S6	2019	4	3	24	0	0	0	0	0	0	0	0.0	0	0.0	1	1	1	0
2233	S6	2019	4	4	1	0	0	0	0	0	0	0	0.0	0	0.0	1	1	1	0
2234	S6	2019	4	4	2	0	0	0	0	0	0	0	0.0	0	0.0	1	1	1	0
2235	S6	2019	4	4	3	0	0	0	0	0	0	0	0.0	0	0.0	1	1	1	0
2236	S6	2019	4	4	4	0	0	0	0	0	0	0	0.0	0	0.0	1	1	1	0
2237	S6	2019	4	4	5	0	0	0	0	0	0	0	0.0	0	0.0	1	1	1	0
2238	S6	2019	4	4	6	10.0386410360412998699075615149922668933868408203125	3.722912746231730185542119215824641287326812744140625	10.0979036606423999700155036407522857189178466796875	8.1658537252162499697760722483508288860321044921875	61.13170716820690131498849950730800628662109375	3.252032509179609842675517938914708793163299560546875	3.416666712534329963801837948267348110675811767578125	0.0	116.827900521456996330016409046947956085205078125	0.0	1	1	1	0
2239	S6	2019	4	4	7	63.75284705691859699072665534913539886474609375	61.67338292068900074127668631263077259063720703125	55.11874560779990162018293631263077259063720703125	8.0772223605049902062091859988868236541748046875	62.68499967787000315411205519922077655792236328125	2.973333330121299855619554364238865673542022705078125	50.9166666306553992171757272444665431976318359375	0.0	1575.7693002621299456222914159297943115234375	0.0	1	1	1	1
2240	S6	2019	4	4	8	171.229740587869997625602991320192813873291015625	235.570193449655988615631940774619579315185546875	105.8004197650480051606791676022112369537353515625	8.696666627460050591480467119254171848297119140625	62.91833347744410076529675279743969440460205078125	3.28555554913149006068806556868366897106170654296875	151.99999821682598621919169090688228607177734375	0.0	4100.9385138750103578786365687847137451171875	0.0	1	1	1	1
2241	S6	2019	4	4	9	297.8557008107500223559327423572540283203125	358.8452743106410025575314648449420928955078125	159.250246895684000492110499180853366851806640625	10.183333301544099214197558467276394367218017578125	59.4033334520128022404605871997773647308349609375	4.1230555537674096200362328090704977512359619140625	312.8333315253270257016993127763271331787109375	0.0	8902.7433494726792559958994388580322265625	0.0	1	1	1	1
2242	S6	2019	4	4	10	429.51815609402098061764263547956943511962890625	474.9054500155970117702963761985301971435546875	190.0703017340759970466024242341518402099609375	11.7183333079020002287506940774619579315185546875	54.01222231123180250733639695681631565093994140625	3.94333332926033985899039180367253720760345458984375	518.0833339691149603822850622236728668212890625	0.0	14569.004158178899160702712833881378173828125	0.0	1	1	1	1
2243	S6	2019	4	4	11	545.081597646076943419757299125194549560546875	621.6797582838270272986846975982189178466796875	181.41405919392900614184327423572540283203125	12.62444432046670073077621054835617542266845703125	51.47277768452960344802704639732837677001953125	4.22333332432639974030053053866140544414520263671875	702.75000731150203137076459825038909912109375	0.0	19028.2893578211005660705268383026123046875	0.0	1	1	1	1
2244	S6	2019	4	4	12	563.1676842583550524068414233624935150146484375	602.123045942518047013436444103717803955078125	181.450060865614005933821317739784717559814453125	13.333333365122399527535890229046344757080078125	50.50277798970540032996723311953246593475341796875	3.976944447639910062974877291708253324031829833984375	750.6666729847589749624603427946567535400390625	0.0	19871.60034974410154973156750202178955078125	0.0	1	1	1	1
2245	S6	2019	4	4	13	504.5733170403369740597554482519626617431640625	435.09676263597202705568633973598480224609375	222.429641850789010959488223306834697723388671875	13.97944446139860019684419967234134674072265625	49.44611125522180117286552558653056621551513671875	3.6302777800295000787400567787699401378631591796875	674.8333324988680033129639923572540283203125	0.0	17768.20707321160080027766525745391845703125	0.0	1	1	1	1
2246	S6	2019	4	4	14	606.738806830511975931585766375064849853515625	745.3682722303600485247443430125713348388671875	150.099911159939011895403382368385791778564453125	15.6883333047231001700083652394823729991912841796875	46.1727773454453966905930428765714168548583984375	3.76055555120109996636301730177365243434906005859375	854.2499989271160529824555851519107818603515625	0.0	21327.503561973499017767608165740966796875	0.0	1	1	1	1
2247	S6	2019	4	4	15	508.97197087605701426582527346909046173095703125	681.7286165025490163316135294735431671142578125	136.429129282632999320412636734545230865478515625	15.9433333979711999717210346716456115245819091796875	47.812777709960897709606797434389591217041015625	3.087777776685019848201818604138679802417755126953125	712.166666984556968600372783839702606201171875	0.0	17952.4094859758988604880869388580322265625	0.0	1	1	1	1
2248	S6	2019	4	4	16	381.3113197326659928876324556767940521240234375	560.6001952277280224734568037092685699462890625	131.010764376321986901530181057751178741455078125	15.2122221999697995187261767568998038768768310546875	49.6288889778983985934246447868645191192626953125	3.7713888890213400628681483794935047626495361328125	528.833342095216039524530060589313507080078125	0.0	13333.112657070099885459057986736297607421875	0.0	1	1	1	1
2249	S6	2019	4	4	17	269.97206141153901626239530742168426513671875	509.8856752183700109526398591697216033935546875	105.3245024998980028385631158016622066497802734375	14.5816666020286991312104873941279947757720947265625	49.6461110432941978842791286297142505645751953125	3.500555551052090041963538169511593878269195556640625	363.00000300009997999950428493320941925048828125	0.0	8895.0001498062993050552904605865478515625	0.0	1	1	1	1
2250	S6	2019	4	4	18	121.37374924553699884199886582791805267333984375	295.30364778306699236054555512964725494384765625	61.54323681725389860730501823127269744873046875	13.4005556159549001904451870359480381011962890625	52.615555402967601139607722871005535125732421875	3.5044444385502000471888095489703118801116943359375	142.66666801025399990976438857614994049072265625	0.0	3255.78326980273004664923064410686492919921875	0.0	1	1	1	1
2251	S6	2019	4	4	19	26.483776264859901772297234856523573398590087890625	70.6372290652049059644923545420169830322265625	20.118462918934000072113121859729290008544921875	11.880000014054100887506137951277196407318115234375	57.0207014385022006308645359240472316741943359375	3.645614039688770180447363600251264870166778564453125	11.58333322382529928518124506808817386627197265625	0.0	430.43995951302298408336355350911617279052734375	0.0	1	1	1	1
2252	S6	2019	4	4	20	0	0	0	0	0	0	0	0.0	0	0.0	1	1	1	0
2253	S6	2019	4	4	21	0	0	0	0	0	0	0	0.0	0	0.0	1	1	1	0
2254	S6	2019	4	4	22	0	0	0	0	0	0	0	0.0	0	0.0	1	1	1	0
2255	S6	2019	4	4	23	0	0	0	0	0	0	0	0.0	0	0.0	1	1	1	0
2256	S6	2019	4	4	24	0	0	0	0	0	0	0	0.0	0	0.0	1	1	1	0
2257	S6	2019	4	5	1	0	0	0	0	0	0	0	0.0	0	0.0	1	1	1	0
2258	S6	2019	4	5	2	0	0	0	0	0	0	0	0.0	0	0.0	1	1	1	0
2259	S6	2019	4	5	3	0	0	0	0	0	0	0	0.0	0	0.0	1	1	1	0
2260	S6	2019	4	5	4	0	0	0	0	0	0	0	0.0	0	0.0	1	1	1	0
2261	S6	2019	4	5	5	0	0	0	0	0	0	0	0.0	0	0.0	1	1	1	0
2262	S6	2019	4	5	6	11.9496131854898006707799140713177621364593505859375	14.691865228554700451013559359125792980194091796875	11.509432655923500732342290575616061687469482421875	7.08235286263858032640428064041770994663238525390625	77.3985309600829936016452847979962825775146484375	3.181617656174819952497045960626564919948577880859375	4.08333340116463006097546895034611225128173828125	0.0	142.49432335297200324930599890649318695068359375	0.0	1	1	1	0
2263	S6	2019	4	5	7	72.055241113238793104756041429936885833740234375	191.72471060223000449695973657071590423583984375	44.305519983503501180166495032608509063720703125	7.45166664653353993941209409967996180057525634765625	75.8850005679660029045408009551465511322021484375	2.91249999751646981849262374453246593475341796875	44.416666341324599898143787868320941925048828125	0.0	1482.95022298891990431002341210842132568359375	0.0	1	1	1	1
2264	S6	2019	4	5	8	196.333522499932001892375410534441471099853515625	414.3462910122340190355316735804080963134765625	84.280326822068900582962669432163238525390625	8.627777788374149992023376398719847202301025390625	71.7633330874972017454638262279331684112548828125	3.3897222234970900700545826111920177936553955078125	166.5833350270989967611967585980892181396484375	0.0	4242.151205738409771583974361419677734375	0.0	1	1	1	1
2265	S6	2019	4	5	9	313.2705480787479928039829246699810028076171875	495.8448211669920056010596454143524169921875	114.29721287621299552483833394944667816162109375	10.6122222264607000141722892294637858867645263671875	64.27111106448700184046174399554729461669921875	3.45750000493393994105417732498608529567718505859375	344.3333357572549857650301419198513031005859375	0.0	9756.6251953442697413265705108642578125	0.0	1	1	1	1
2266	S6	2019	4	5	10	460.03902511596601243581972084939479827880859375	636.0238950941289886031881906092166900634765625	136.366215048894986239247373305261135101318359375	12.7155554930369003585610698792152106761932373046875	57.3111110899182989442124380730092525482177734375	3.057777776155199855878663584007881581783294677734375	566.49999817212301422841846942901611328125	0.0	15762.672921021699949051253497600555419921875	0.0	1	1	1	1
2267	S6	2019	4	5	11	555.566017235649951544473879039287567138671875	686.8365551418720542642404325306415557861328125	149.455674362182008962918189354240894317626953125	14.020555607477799497928572236560285091400146484375	52.92444432576490243036460014991462230682373046875	3.631666663123500171650448464788496494293212890625	722.8333254655179871406289748847484588623046875	0.0	19361.685792604999733157455921173095703125	0.0	1	1	1	1
2268	S6	2019	4	5	12	603.7537794325080540147610008716583251953125	688.0657399495439676684327423572540283203125	163.5918100568979980380390770733356475830078125	15.2344444221920003457171333138830959796905517578125	50.2861110687255035145426518283784389495849609375	3.77749999066192998498081578873097896575927734375	804.6666681766499777950230054557323455810546875	0.0	21035.9566609063986106775701045989990234375	0.0	1	1	1	1
2269	S6	2019	4	5	13	615.407024468315967169473879039287567138671875	692.0584567599820502437069080770015716552734375	165.905557590059999029108439572155475616455078125	16.29555571873979857855374575592577457427978515625	47.32388896942129719036529422737658023834228515625	3.868333331743869951679926089127548038959503173828125	833.583335081734958293964155018329620361328125	0.0	21449.01875654860123177058994770050048828125	0.0	1	1	1	1
2270	S6	2019	4	5	14	589.3333436754010108415968716144561767578125	710.1729826185429601537180133163928985595703125	150.059717941283992104217759333550930023193359375	16.835555532243500209688136237673461437225341796875	45.61944455040819690339048975147306919097900390625	3.97361111309793013646185499965213239192962646484375	824.583336710928051616065204143524169921875	0.0	20752.17076142620135215111076831817626953125	0.0	1	1	1	1
2271	S6	2019	4	5	15	443.557266320595999786746688187122344970703125	422.55803591445800293513457290828227996826171875	205.237423305404007578545133583247661590576171875	16.56201119129880083846728666685521602630615234375	45.87960894280970336467362358234822750091552734375	3.928212291535050137980533691006712615489959716796875	582.5833330551789686069241724908351898193359375	0.0	15080.661336580900751869194209575653076171875	0.0	1	1	1	1
2272	S6	2019	4	5	16	397.6278326943059937548241578042507171630859375	571.7304843488169581178226508200168609619140625	140.807802290636999487105640582740306854248046875	15.7674094866908998113785855821333825588226318359375	45.386629333070999336996464990079402923583984375	4.64011142247233987490062645520083606243133544921875	546.6666668653480201101046986877918243408203125	0.0	13948.921700318600414902903139591217041015625	0.0	1	1	1	1
2273	S6	2019	4	5	17	267.03554208543499726147274486720561981201171875	502.39142625596701918766484595835208892822265625	101.2529131359519993793583125807344913482666015625	14.9005555364820008179549404303543269634246826171875	46.1877774132621965463840751908719539642333984375	4.30027778049309983288139846990816295146942138671875	353.66666316986101037400658242404460906982421875	0.0	8729.3375432491302490234375	0.0	1	1	1	1
2274	S6	2019	4	5	18	120.395758745405004219719558022916316986083984375	275.06721386379598470739438198506832122802734375	63.394957860310796604608185589313507080078125	13.2077777544657006814077249146066606044769287109375	49.4255553775362983515151427127420902252197265625	3.50861110703811984734556972398422658443450927734375	144.166668566564993625433999113738536834716796875	0.0	3211.80159350235999227152206003665924072265625	0.0	1	1	1	1
2275	S6	2019	4	5	19	29.28321986213610017557584797032177448272705078125	43.39982060273320030319155193865299224853515625	24.9634378168992014934701728634536266326904296875	11.313375770665999198172357864677906036376953125	53.8636941241610003316964139230549335479736328125	3.9305732417258401056869843159802258014678955078125	22.750000042530398758344745147041976451873779296875	0.0	588.4731605571359978057444095611572265625	0.0	1	1	1	1
2276	S6	2019	4	5	20	0	0	0	0	0	0	0	0.0	0.891083308185133038392677917727269232273101806640625	0.0	1	1	1	0
2277	S6	2019	4	5	21	0	0	0	0	0	0	0	0.0	0	0.0	1	1	1	0
2278	S6	2019	4	5	22	0	0	0	0	0	0	0	0.0	0	0.0	1	1	1	0
2279	S6	2019	4	5	23	0	0	0	0	0	0	0	0.0	0	0.0	1	1	1	0
2280	S6	2019	4	5	24	0	0	0	0	0	0	0	0.0	0	0.0	1	1	1	0
2281	S6	2019	4	6	1	0	0	0	0	0	0	0	0.0	0	0.0	1	1	1	0
2282	S6	2019	4	6	2	0	0	0	0	0	0	0	0.0	0	0.0	1	1	1	0
2283	S6	2019	4	6	3	0	0	0	0	0	0	0	0.0	0	0.0	1	1	1	0
2284	S6	2019	4	6	4	0	0	0	0	0	0	0	0.0	0	0.0	1	1	1	0
2285	S6	2019	4	6	5	0	0	0	0	0	0	0	0.0	0	0.0	1	1	1	0
2286	S6	2019	4	6	6	11.7093220379040996448338773916475474834442138671875	0.1483473045670460066514095842649112455546855926513671875	12.003488859922899933962980867363512516021728515625	7.81913049946659999278608665918000042438507080078125	78.988695625636893282717210240662097930908203125	1.6191304341606400640785068389959633350372314453125	3.3333333655416002017091159359551966190338134765625	0.0	120.42909006898599955093231983482837677001953125	0.0	1	1	1	0
2287	S6	2019	4	6	7	52.553709808985303197914618067443370819091796875	45.025108252175897405322757549583911895751953125	45.39694560368850062559431535191833972930908203125	7.839444377687240006480351439677178859710693359375	79.532221772935599801712669432163238525390625	1.5655555530554698950851388872251845896244049072265625	41.41666662568849943681925651617348194122314453125	0.0	1274.842575813330086020869202911853790283203125	0.0	1	1	1	1
2288	S6	2019	4	6	8	185.58454627990698782014078460633754730224609375	279.28418176438998443700256757438182830810546875	108.4727766460840001627730089239776134490966796875	9.504444429609510081036205519922077655792236328125	74.269444402058894638685160316526889801025390625	1.926388885329159972314982951502315700054168701171875	183.083333075045999294161447323858737945556640625	0.0	5000.900541742639688891358673572540283203125	0.0	1	1	1	1
2289	S6	2019	4	6	9	323.38738314310700161513523198664188385009765625	270.05915550258401935934671200811862945556640625	214.58959651523099410042050294578075408935546875	11.3483333057827007195328405941836535930633544921875	68.049999957614403456318541429936885833740234375	2.260833327968910122507395499269478023052215576171875	335.166670382023994534392841160297393798828125	0.0	9623.396287361769282142631709575653076171875	0.0	1	1	1	1
2290	S6	2019	4	6	10	418.64748077392499681081972084939479827880859375	366.89059571160197492645238526165485382080078125	228.26463801066000769424135796725749969482421875	12.8311112138959995121467727585695683956146240234375	61.8377776887680994377660681493580341339111328125	2.5688888878457998288240560214035212993621826171875	469.16666626930100392200984060764312744140625	0.0	13128.58933210370014421641826629638671875	0.0	1	1	1	1
2291	S6	2019	4	6	11	377.5591242896180119714699685573577880859375	230.89747537614499606206663884222507476806640625	240.262852181327986045289435423910617828369140625	13.3155555460187997596221975982189178466796875	60.216666815015997826776583679020404815673828125	2.371111103892320048913688879110850393772125244140625	422.83333837985998115982511080801486968994140625	0.0	11513.773669799100389354862272739410400390625	0.0	1	1	1	1
2292	S6	2019	4	6	12	415.025752003987008720287121832370758056640625	201.237072263989006160045391879975795745849609375	281.377753618028009441331960260868072509765625	13.7194444974263003445003050728701055049896240234375	59.9194443384806021413169219158589839935302734375	2.404722214241819866487048784620128571987152099609375	518.1666711966199727612547576427459716796875	0.0	14025.5851546923004207201302051544189453125	0.0	1	1	1	1
2293	S6	2019	4	6	13	497.04551374647297734554740600287914276123046875	382.73308361901098351154359988868236541748046875	244.147113884818992346481536515057086944580078125	15.5088889069026993894340193946845829486846923828125	55.2572223027546982621061033569276332855224609375	2.528055547012220127811588099575601518154144287109375	654.58333492279098209110088646411895751953125	0.0	17041.28432273860016721300780773162841796875	0.0	1	1	1	1
2294	S6	2019	4	6	14	552.676824442545012061600573360919952392578125	524.276885011460990426712669432163238525390625	223.4149005466030075695016421377658843994140625	17.113333458370600936859773355536162853240966796875	51.90444437662760179819088079966604709625244140625	2.069444440222440118049007651279680430889129638671875	737.0000084241220292824436910450458526611328125	0.0	18639.5869851112001924775540828704833984375	0.0	1	1	1	1
2295	S6	2019	4	6	15	419.984008280436000859481282532215118408203125	378.46996392144097853815765120089054107666015625	204.76432978312101340634399093687534332275390625	17.76888886557679825273226015269756317138671875	48.513333151075499927173950709402561187744140625	2.193333330088190091800015579792670905590057373046875	539.250008761880962993018329143524169921875	0.0	13762.666672468099932302720844745635986328125	0.0	1	1	1	1
2296	S6	2019	4	6	16	397.53812599182100484540569595992565155029296875	556.8586562686490424312069080770015716552734375	145.271685451931006127779255621135234832763671875	17.77444441053599888391545391641557216644287109375	46.78944464789490353950895951129496097564697265625	2.4419444379707098136123022413812577724456787109375	552.000006039937943569384515285491943359375	0.0	13876.633445421799478936009109020233154296875	0.0	1	1	1	1
2297	S6	2019	4	6	17	270.49883999294701197868562303483486175537109375	503.3913675944010037710540927946567535400390625	102.3466686460700003635793109424412250518798828125	17.404999902513200282783145667053759098052978515625	46.91777773963080022667782031930983066558837890625	2.21277777444985002119892669725231826305389404296875	350.16666601101400146944797597825527191162109375	0.0	8601.092040538789660786278545856475830078125	0.0	1	1	1	1
2298	S6	2019	4	6	18	133.469462924532990655279718339443206787109375	331.515948274399988804361782968044281005859375	65.81112564934619513223879039287567138671875	16.6249999523162017567301518283784389495849609375	48.96944482591410263694342575035989284515380859375	1.7111111091242801052203503786586225032806396484375	154.83333170413999368975055404007434844970703125	0.0	3455.895451207959922612644731998443603515625	0.0	1	1	1	1
2299	S6	2019	4	6	19	33.135240262097596541934763081371784210205078125	97.2311092744959069023025222122669219970703125	24.153014102784698735604251851327717304229736328125	14.823102296382199227764431270770728588104248046875	50.96072626900750179856913746334612369537353515625	2.254785471918550054937213644734583795070648193359375	22.666667073887399652676322148181498050689697265625	0.0	594.1423863793439750224933959543704986572265625	0.0	1	1	1	1
2300	S6	2019	4	6	20	0	0	0	0	0	0	0	0.0	4.2212667564550496734909756924025714397430419921875	0.0	1	1	1	0
2301	S6	2019	4	6	21	0	0	0	0	0	0	0	0.0	0	0.0	1	1	1	0
2302	S6	2019	4	6	22	0	0	0	0	0	0	0	0.0	0	0.0	1	1	1	0
2303	S6	2019	4	6	23	0	0	0	0	0	0	0	0.0	0	0.0	1	1	1	0
2304	S6	2019	4	6	24	0	0	0	0	0	0	0	0.0	0	0.0	1	1	1	0
2305	S6	2019	4	7	1	0	0	0	0	0	0	0	0.0	0	0.0	1	1	1	0
2306	S6	2019	4	7	2	0	0	0	0	0	0	0	0.0	0	0.0	1	1	1	0
2307	S6	2019	4	7	3	0	0	0	0	0	0	0	0.0	0	0.0	1	1	1	0
2308	S6	2019	4	7	4	0	0	0	0	0	0	0	0.0	0	0.0	1	1	1	0
2309	S6	2019	4	7	5	0	0	0	0	0	0	0	0.0	0	0.0	1	1	1	0
2310	S6	2019	4	7	6	15.56156475634509916972092469222843647003173828125	19.03359651829619991758590913377702236175537109375	14.7594556657573008351391763426363468170166015625	3.779746831217889901921580531052313745021820068359375	84.609493255615205953290569595992565155029296875	0.87721518945844800807520869057043455541133880615234375	5.58333340450190984682876660372130572795867919921875	0.0	205.182300026838987605515285395085811614990234375	0.0	1	1	1	0
2311	S6	2019	4	7	7	73.8631737867990949553131940774619579315185546875	81.2188750558429006787264370359480381011962890625	60.13964716063600235429476015269756317138671875	4.63666665289137025496302157989703118801116943359375	82.5294442918565067657254985533654689788818359375	0.70500000243385596565559580994886346161365509033203125	59.66666666790769824046947178430855274200439453125	0.0	1898.353413989140108242281712591648101806640625	0.0	1	1	1	1
2312	S6	2019	4	7	8	208.1909625159360075485892593860626220703125	301.663367801241975030279718339443206787109375	122.2508925331959943605397711507976055145263671875	7.32222222487131002566229653893969953060150146484375	75.186111407809704587634769268333911895751953125	0.60694444750746001648877836487372405827045440673828125	202.2500007102900099198450334370136260986328125	0.0	5766.718700528130284510552883148193359375	0.0	1	1	1	1
2313	S6	2019	4	7	9	366.802991527981021135929040610790252685546875	451.68994691636800098422099836170673370361328125	179.2986622280540132123860530555248260498046875	10.3972221692402992943016215576790273189544677734375	69.048333146836995410922099836170673370361328125	0.74666667083899096457599853238207288086414337158203125	393.99999876816900723497383296489715576171875	0.0	11393.175621827400391339324414730072021484375	0.0	1	1	1	1
2314	S6	2019	4	7	10	500.2005495707189766108058393001556396484375	521.9397266811789677376509644091129302978515625	227.05092832777199873817153275012969970703125	12.789444467756400314328857348300516605377197265625	62.6305555979409973588190041482448577880859375	0.527222224076588030783341309870593249797821044921875	582.66665786504700008663348853588104248046875	0.0	16208.780149618700306746177375316619873046875	0.0	1	1	1	1
2315	S6	2019	4	7	11	542.3856788635249586150166578590869903564453125	573.2008626302080074310651980340480804443359375	195.13890775044700376383843831717967987060546875	14.6524999671512006216289591975510120391845703125	54.91027779049340296069203759543597698211669921875	0.476944446729288984432315601225127466022968292236328125	679.6666731437049975284026004374027252197265625	0.0	18357.5127124786013155244290828704833984375	0.0	1	1	1	1
2316	S6	2019	4	7	12	571.92404768202004561317153275012969970703125	364.72586938275202328441082499921321868896484375	332.95130725436700913633103482425212860107421875	16.112500095367398245116419275291264057159423828125	49.422499910990296712043345905840396881103515625	0.4944444482525189865640413700020872056484222412109375	656.0000007351239901254302822053432464599609375	0.0	17509.46174065269951825030148029327392578125	0.0	1	1	1	1
2317	S6	2019	4	7	13	508.8740526300849751351051963865756988525390625	207.318081032995991108691669069230556488037109375	367.667867238448025091201998293399810791015625	17.117927182622299397962706279940903186798095703125	42.56470578190990039502139552496373653411865234375	0.83641456697835303568666631690575741231441497802734375	591.2499974171320218374603427946567535400390625	0.0	15171.6673076152001158334314823150634765625	0.0	1	1	1	1
2318	S6	2019	4	7	14	582.04239744047799831605516374111175537109375	417.868997212560998377739451825618743896484375	316.8586111654780097524053417146205902099609375	17.7078212599514017711044289171695709228515625	37.21899432176979871655930764973163604736328125	0.99525139618186297951751839718781411647796630859375	717.416663964587996815680526196956634521484375	0.0	17976.60578290620105690322816371917724609375	0.0	1	1	1	1
2319	S6	2019	4	7	15	407.58423710135002693277783691883087158203125	246.06911367979000715422444045543670654296875	264.79863362856798403299762867391109466552734375	18.0136489655645988250398659147322177886962890625	39.05236774965239732182453735731542110443115234375	0.6122562697670910214498007917427457869052886962890625	489.2499943574269991586334072053432464599609375	0.0	12458.669811487199694965966045856475830078125	0.0	1	1	1	1
2320	S6	2019	4	7	16	300.468994140625	183.963455479371987166814506053924560546875	218.576232822208993411550181917846202850341796875	16.09365993411800133117139921523630619049072265625	49.33890505963849903992013423703610897064208984375	1.0783861695174099537553047412075102329254150390625	330.6666674713300153598538599908351898193359375	0.0	8768.933335940020697307772934436798095703125	0.0	1	1	1	1
2321	S6	2019	4	7	17	267.5663319481740245464607141911983489990234375	317.87989126178899823571555316448211669921875	154.949559317693996263187727890908718109130859375	14.398333326975500057187673519365489482879638671875	56.81749989191690275447399471886456012725830078125	1.6080555485354499634098601745790801942348480224609375	317.49999771515598467885865829885005950927734375	0.0	8021.3810702165201291791163384914398193359375	0.0	1	1	1	1
2322	S6	2019	4	7	18	124.0730256504480024659642367623746395111083984375	194.05251639104500327448477037250995635986328125	81.485183546278193489342811517417430877685546875	13.4866665919621002700523604289628565311431884765625	59.25666666030880236348821199499070644378662109375	1.529722222106320028700565671897493302822113037109375	138.250000153977993022635928355157375335693359375	0.0	3315.8164918422698974609375	0.0	1	1	1	1
2323	S6	2019	4	7	19	19.5310391501376017231450532563030719757080078125	1.4545567793024500868881432324997149407863616943359375	19.526132378362998309739850810728967189788818359375	11.59736840169230021047042100690305233001708984375	64.3834585605707019340115948580205440521240234375	1.2048872218544299794729113273206166923046112060546875	11.8333333327125007627955710631795227527618408203125	0.0	394.8724340492229885057895444333553314208984375	0.0	1	1	1	1
2324	S6	2019	4	7	20	0	0	0	0	0	0	0	0.0	3.882500110194059939061617114930413663387298583984375	0.0	1	1	1	0
2325	S6	2019	4	7	21	0	0	0	0	0	0	0	0.0	0	0.0	1	1	1	0
2326	S6	2019	4	7	22	0	0	0	0	0	0	0	0.0	0	0.0	1	1	1	0
2327	S6	2019	4	7	23	0	0	0	0	0	0	0	0.0	0	0.0	1	1	1	0
2328	S6	2019	4	7	24	0	0	0	0	0	0	0	0.0	0	0.0	1	1	1	0
2329	S6	2019	4	8	1	0	0	0	0	0	0	0	0.0	0	0.0	1	1	1	0
2330	S6	2019	4	8	2	0	0	0	0	0	0	0	0.0	0	0.0	1	1	1	0
2331	S6	2019	4	8	3	0	0	0	0	0	0	0	0.0	0	0.0	1	1	1	0
2332	S6	2019	4	8	4	0	0	0	0	0	0	0	0.0	0	0.0	1	1	1	0
2333	S6	2019	4	8	5	0	0	0	0	0	0	0	0.0	0	0.0	1	1	1	0
2334	S6	2019	4	8	6	21.20174820192389830708634690381586551666259765625	100.0544415227819996516700484789907932281494140625	15.3271875935216002062588813714683055877685546875	4.31483878474081006260121284867636859416961669921875	75.616773642263098054172587580978870391845703125	1.8038709640502899045344520345679484307765960693359375	5.58333322017767041955949025577865540981292724609375	0.0	232.48221585526999888315913267433643341064453125	0.0	1	1	1	0
2335	S6	2019	4	8	7	102.915582880626999440210056491196155548095703125	407.409615031833027387619949877262115478515625	38.45748397358300252335538971237838268280029296875	5.01703912985391031753579227370209991931915283203125	72.605865627693702890610438771545886993408203125	2.327374296481380167023189642350189387798309326171875	54.999999701977202448688331060111522674560546875	0.0	1933.323265363769905889057554304599761962890625	0.0	1	1	1	1
2336	S6	2019	4	8	8	249.8259357452390077014570124447345733642578125	659.5132595486110176352667622268199920654296875	60.67418510648929697026687790639698505401611328125	6.77999999125797980781271689920686185359954833984375	65.259999656677194934673025272786617279052734375	2.896388887365649811300727378693409264087677001953125	250.499997287986985838870168663561344146728515625	0.0	6669.4896221160697677987627685070037841796875	0.0	1	1	1	1
2337	S6	2019	4	8	9	403.63184238009898763266392052173614501953125	716.210686365762967398040927946567535400390625	99.8870444191826010182921891100704669952392578125	8.3225000063578296050081917201168835163116455078125	55.2299999872843017101331497542560100555419921875	3.561944444311989865781242770026437938213348388671875	460.7500036557499925038428045809268951416015625	0.0	13162.013729413300097803585231304168701171875	0.0	1	1	1	1
2338	S6	2019	4	8	10	528.42185211181595150264911353588104248046875	842.2557184855139666979084722697734832763671875	83.6176787694295029496061033569276332855224609375	9.365000025431310604062673519365489482879638671875	50.5808332125345003760230611078441143035888671875	3.112777786039639948967305826954543590545654296875	655.4166624943410397463594563305377960205078125	0.0	18223.34714730569976381957530975341796875	0.0	1	1	1	1
2339	S6	2019	4	8	11	694.847195571727979768184013664722442626953125	841.8271217453340113934245891869068145751953125	182.47032932752898659600759856402873992919921875	10.3587077869457999668156844563782215118408203125	45.88707887456649814339471049606800079345703125	2.827247196368949833100714386091567575931549072265625	891.4166688919040097971446812152862548828125	0.0	23313.4347995122006977908313274383544921875	0.0	1	1	1	1
2340	S6	2019	4	8	12	610.8821644756079649596358649432659149169921875	512.7944960894719770294614136219024658203125	275.1377513476010108206537552177906036376953125	10.7124292944783991998747296747751533985137939453125	43.40819206884349767960884491913020610809326171875	2.31045197640770982872027161647565662860870361328125	728.416658937934016648796387016773223876953125	0.0	18747.52930800109970732592046260833740234375	0.0	1	1	1	1
2341	S6	2019	4	8	13	534.829252739172943620360456407070159912109375	352.838577976461010621278546750545501708984375	297.24902017405901233360054902732372283935546875	10.90115606715909990498403203673660755157470703125	44.46936430958650277034394093789160251617431640625	2.17687861044282016109718824736773967742919921875	672.4166621764489946144749410450458526611328125	0.0	16690.796862045899615623056888580322265625	0.0	1	1	1	1
2342	S6	2019	4	8	14	476.25474031959998910679132677614688873291015625	342.393570265970993204973638057708740234375	253.111664702251999869986320845782756805419921875	10.632621922144000592425072682090103626251220703125	49.63567049910380291066758218221366405487060546875	2.472560971248439987135725459665991365909576416015625	621.7500008642699640404316596686840057373046875	0.0	16077.93440421420018537901341915130615234375	0.0	1	1	1	1
2343	S6	2019	4	8	15	547.6543104038679530276567675173282623291015625	580.63350127632702424307353794574737548828125	220.73335678632798817488946951925754547119140625	10.6197674191275002186785059166140854358673095703125	55.4877906732780985521458205766975879669189453125	2.69883720334185994715880951844155788421630859375	676.166669776039952921564690768718719482421875	0.0	17341.34863813710035174153745174407958984375	0.0	1	1	1	1
2344	S6	2019	4	8	16	391.7136653968669861569651402533054351806640625	551.8528630255219695754931308329105377197265625	135.365686062566993541622650809586048126220703125	10.26437117239670016033414867706596851348876953125	56.8335329843852008480098447762429714202880859375	2.914071850434030164223031533765606582164764404296875	540.0000065565100157982669770717620849609375	0.0	13823.158840338399386382661759853363037109375	0.0	1	1	1	1
2345	S6	2019	4	8	17	320.02912775675400780528434552252292633056640625	713.76324869791596938739530742168426513671875	73.8370468987358066215165308676660060882568359375	10.158333341280599171341236797161400318145751953125	53.8983335177102986790487193502485752105712890625	2.895833327869569817636374864378012716770172119140625	431.75000200668802108339150436222553253173828125	0.0	10672.8308002154008136130869388580322265625	0.0	1	1	1	1
2346	S6	2019	4	8	18	169.013241534761988305035629309713840484619140625	542.6135142008459979479084722697734832763671875	53.114905802408799218028434552252292633056640625	9.540833330154409708256935118697583675384521484375	54.635833390553699473457527346909046173095703125	2.565555552144839879247228964231908321380615234375	207.583333676059993422313709743320941925048828125	0.0	4485.4993075132397279958240687847137451171875	0.0	1	1	1	1
2347	S6	2019	4	8	19	45.59794171293010123235944774933159351348876953125	227.24344867921200830096495337784290313720703125	24.029351825445399271075075375847518444061279296875	8.556338106074800720080020255409181118011474609375	57.5056340607118983143664081580936908721923828125	2.040563381389830066581225764821283519268035888671875	39.00000076585740060863827238790690898895263671875	0.0	868.0100208148320461987168528139591217041015625	0.0	1	1	1	0
2348	S6	2019	4	8	20	0	0	0	0	0	0	0	0.0	18.795666246054199888249058858491480350494384765625	0.0	1	1	1	0
2349	S6	2019	4	8	21	0	0	0	0	0	0	0	0.0	0	0.0	1	1	1	0
2350	S6	2019	4	8	22	0	0	0	0	0	0	0	0.0	0	0.0	1	1	1	0
2351	S6	2019	4	8	23	0	0	0	0	0	0	0	0.0	0	0.0	1	1	1	0
2352	S6	2019	4	8	24	0	0	0	0	0	0	0	0.0	0	0.0	1	1	1	0
2353	S6	2019	4	9	1	0	0	0	0	0	0	0	0.0	0	0.0	1	1	1	0
2354	S6	2019	4	9	2	0	0	0	0	0	0	0	0.0	0	0.0	1	1	1	0
2355	S6	2019	4	9	3	0	0	0	0	0	0	0	0.0	0	0.0	1	1	1	0
2356	S6	2019	4	9	4	0	0	0	0	0	0	0	0.0	0	0.0	1	1	1	0
2357	S6	2019	4	9	5	0	0	0	0	0	0	0	0.0	0	0.0	1	1	1	0
2358	S6	2019	4	9	6	28.108530441503798869007368921302258968353271484375	226.717724579166997500578872859477996826171875	13.766785726497300146320412750355899333953857421875	2.293717283228919878723672809428535401821136474609375	69.2539270211264010868035256862640380859375	1.2429319340833100415721901299548335373401641845703125	5.41666672991895037370113641372881829738616943359375	0.0	261.82285009417699939149315468966960906982421875	0.0	1	1	1	0
2359	S6	2019	4	9	7	125.2556195365049944712154683656990528106689453125	587.4146191067160316379158757627010345458984375	30.821580849753399178325707907788455486297607421875	2.95333334604899011566203625989146530628204345703125	64.240833091735794369014911353588104248046875	1.5994444405866901082191589011927135288715362548828125	65.7500002222762987003079615533351898193359375	0.0	2251.26055131354996774462051689624786376953125	0.0	1	1	1	1
2360	S6	2019	4	9	8	274.89584380255797668723971582949161529541015625	778.820011054144970330526120960712432861328125	47.159797022077697192798950709402561187744140625	4.13916662335395013627703519887290894985198974609375	62.61666641235350283523075631819665431976318359375	2.504166663106940138305844811839051544666290283203125	279.833334187668015147210098803043365478515625	0.0	7386.6779059171603876166045665740966796875	0.0	1	1	1	1
2361	S6	2019	4	9	9	451.7480651310510211260407231748104095458984375	819.6283367418100169743411242961883544921875	101.0039312839499956453437334857881069183349609375	4.9794642471131798089345465996302664279937744140625	59.76845268976119740500507759861648082733154296875	3.13154762025390009938519142451696097850799560546875	491.83332671721797169084311462938785552978515625	0.0	13938.71627251300014904700219631195068359375	0.0	1	1	1	1
2362	S6	2019	4	9	10	559.957531197125945254811085760593414306640625	895.92119747816104791127145290374755859375	78.68486002988589689266518689692020416259765625	5.45058137594266955971988863893784582614898681640625	47.95290666402770085596785065717995166778564453125	3.2677325589885501955222935066558420658111572265625	679.499998688698951809783466160297393798828125	0.0	18939.24059470490101375617086887359619140625	0.0	1	1	1	1
2363	S6	2019	4	9	11	657.9520175509979935668525286018848419189453125	962.424936591253981532645411789417266845703125	65.2556146197847937173719401471316814422607421875	5.9225000063578203679526268388144671916961669921875	38.80416660308829790437812334857881069183349609375	2.631944437159429828199108669650740921497344970703125	859.416663646697998046875	0.0	23167.75476932520177797414362430572509765625	0.0	1	1	1	1
2364	S6	2019	4	9	12	714.1716688368049972268636338412761688232421875	978.6722468058260346879251301288604736328125	66.934019067552299020462669432163238525390625	6.2324999849001496698974733590148389339447021484375	38.8099998474121008484871708787977695465087890625	2.476944439692629895688469332526437938213348388671875	963.333333532016013123211450874805450439453125	0.0	25233.75439643850040738470852375030517578125	0.0	1	1	1	1
2365	S6	2019	4	9	13	726.8495088365340279779047705233097076416015625	982.677618408202988575794734060764312744140625	66.7417510880363948899685055948793888092041015625	6.17833333412805973949843973969109356403350830078125	41.4633335113525021142777404747903347015380859375	2.503611105349320187229977818788029253482818603515625	999.91668264069494398427195847034454345703125	0.0	25815.84334373470119317062199115753173828125	0.0	1	1	1	1
2366	S6	2019	4	9	14	691.433788045246956244227476418018341064453125	975.391193135578987494227476418018341064453125	65.474992222256105378619395196437835693359375	6.22333331505457021393112881924025714397430419921875	40.95333331425980105677808751352131366729736328125	2.066666663106940138305844811839051544666290283203125	962.1666669845579917819122783839702606201171875	0.0	24572.96601931249824701808393001556396484375	0.0	1	1	1	1
2367	S6	2019	4	9	15	608.0976715087889488131622783839702606201171875	950.918072170680943600018508732318878173828125	63.5073630226982999147367081604897975921630859375	6.20416668256122960656284703873097896575927734375	44.15166670481360000621862127445638179779052734375	1.9744444474577900194844914949499070644378662109375	851.3333400090540408200467936694622039794921875	0.0	21832.1063915888007613830268383026123046875	0.0	1	1	1	1
2368	S6	2019	4	9	16	487.44012552897100931659224443137645721435546875	905.2672083536780291979084722697734832763671875	59.7349527464971998824694310314953327178955078125	5.9166666388511597318711210391484200954437255859375	47.5550000508626027340142172761261463165283203125	1.9897222177022000355606223820359446108341217041015625	681.166668732960033594281412661075592041015625	0.0	17416.06348752970006898976862430572509765625	0.0	1	1	1	1
2369	S6	2019	4	9	17	342.47519556681299945921637117862701416015625	827.1062298244900148347369395196437835693359375	53.09162777794730203595463535748422145843505859375	5.5599999666213903992684208787977695465087890625	50.11166671117140225533148623071610927581787109375	2.0494444452226101560654569766484200954437255859375	467.5833334525419786587008275091648101806640625	0.0	11512.219826380400263587944209575653076171875	0.0	1	1	1	1
2370	S6	2019	4	9	18	189.09058907826698714416124857962131500244140625	676.6525527954099743510596454143524169921875	41.96019608179719995177947566844522953033447265625	5.144166707992550158223821199499070644378662109375	49.79750013351439719144764239899814128875732421875	2.195277773588890202205448076711036264896392822265625	236.083333690962007267444278113543987274169921875	0.0	4980.88862498598973616026341915130615234375	0.0	1	1	1	1
2371	S6	2019	4	9	19	52.6047415349217999391839839518070220947265625	335.6857828219730208729743026196956634521484375	20.3374609351157999981296597979962825775146484375	4.48333333333332983983154917950741946697235107421875	52.98583342234289972338956431485712528228759765625	2.59944444182846012836307636462152004241943359375	45.16666627023359836812232970260083675384521484375	0.0	878.4136042619719546564738266170024871826171875	0.0	1	1	1	0
2372	S6	2019	4	9	20	5.815822805677139939461994799785315990447998046875	12.92546422140929962552036158740520477294921875	5.81200259072439973095924869994632899761199951171875	4.11428560529436015968940409948118031024932861328125	54.114287240164600234493263997137546539306640625	2.200000013623910177784637198783457279205322265625	0	0.0	24.562166460479200935651533654890954494476318359375	0.0	1	1	1	0
2373	S6	2019	4	9	21	0	0	0	0	0	0	0	0.0	0	0.0	1	1	1	0
2374	S6	2019	4	9	22	0	0	0	0	0	0	0	0.0	0	0.0	1	1	1	0
2375	S6	2019	4	9	23	0	0	0	0	0	0	0	0.0	0	0.0	1	1	1	0
2376	S6	2019	4	9	24	0	0	0	0	0	0	0	0.0	0	0.0	1	1	1	0
2377	S6	2019	4	10	1	0	0	0	0	0	0	0	0.0	0	0.0	1	1	1	0
2378	S6	2019	4	10	2	0	0	0	0	0	0	0	0.0	0	0.0	1	1	1	0
2379	S6	2019	4	10	3	0	0	0	0	0	0	0	0.0	0	0.0	1	1	1	0
2380	S6	2019	4	10	4	0	0	0	0	0	0	0	0.0	0	0.0	1	1	1	0
2381	S6	2019	4	10	5	0	0	0	0	0	0	0	0.0	0	0.0	1	1	1	0
2382	S6	2019	4	10	6	28.462099112215401675030079786665737628936767578125	162.773156719015986482190783135592937469482421875	16.84907535144260037895946879871189594268798828125	-0.37202381635350800781480984369409270584583282470703125	70.941070965358193234351347200572490692138671875	2.100595234405420175249901149072684347629547119140625	7.25000004361690031373655074276030063629150390625	0.0	292.82714170403602338410564698278903961181640625	0.0	1	1	1	0
2383	S6	2019	4	10	7	118.81090788311399819576763547956943511962890625	466.4783223470050188552704639732837677001953125	41.2329915364583001746723311953246593475341796875	0.55583333907027998588290529369260184466838836669921875	74.0383334477742067747385590337216854095458984375	1.6405555523104100590359166744747199118137359619140625	62.75000050664009876300042378716170787811279296875	0.0	2313.69842713077014195732772350311279296875	0.0	1	1	1	1
2384	S6	2019	4	10	8	269.35758908589599514016299508512020111083984375	688.709344991048055817373096942901611328125	63.658515834808298450298025272786617279052734375	2.439166653156279895853231209912337362766265869140625	69.408333651224694449410890229046344757080078125	2.92055555606880989927276459638960659503936767578125	267.33333120743299105015466921031475067138671875	0.0	7248.5968222220699317404069006443023681640625	0.0	1	1	1	1
2385	S6	2019	4	10	9	422.266537051729983431869186460971832275390625	790.531021457248016304220072925090789794921875	80.5037006802028969332241103984415531158447265625	3.889166657129920157132119129528291523456573486328125	61.7574998855589996082926518283784389495849609375	2.94416666494474998927444175933487713336944580078125	479.4166684150690116439363919198513031005859375	0.0	13826.758285363399409106932580471038818359375	0.0	1	1	1	1
2386	S6	2019	4	10	10	554.9139307657869721879251301288604736328125	851.9743615044479838616098277270793914794921875	93.7524925867715950289493775926530361175537109375	4.74166668256123013946989885880611836910247802734375	58.756666469573900712930480949580669403076171875	3.0549999920858201818418820039369165897369384765625	682.9999983310699462890625	0.0	19222.58392969760097912512719631195068359375	0.0	1	1	1	1
2387	S6	2019	4	10	11	701.008670885192032073973678052425384521484375	825.6409292294480337659479118883609771728515625	187.948867081895997444007662124931812286376953125	5.87829913561644001873673914815299212932586669921875	51.641935801575897357906796969473361968994140625	2.648973595886280119060529614216648042201995849609375	847.74999320507095035281963646411895751953125	0.0	22921.7874606449986458756029605865478515625	0.0	1	1	1	1
2388	S6	2019	4	10	12	570.9399011471849689769442193210124969482421875	333.2560231006240201168111525475978851318359375	343.62631958352602623563143424689769744873046875	6.28276835996552041052609638427384197711944580078125	44.55790993857510073894445667974650859832763671875	2.151129943923760112767240570974536240100860595703125	712.916667262710006980341859161853790283203125	0.0	17664.256711800800985656678676605224609375	0.0	1	1	1	1
2389	S6	2019	4	10	13	356.24960214951397574623115360736846923828125	100.68690811039999744025408290326595306396484375	286.2280027501719814608804881572723388671875	6.29294118179994033113189288997091352939605712890625	45.75794130213120070038712583482265472412109375	2.309411766073279803634932250133715569972991943359375	374.24999723831700748633011244237422943115234375	0.0	10346.78697586059934110380709171295166015625	0.0	1	1	1	1
2390	S6	2019	4	10	14	376.136078479242996763787232339382171630859375	110.4902597378609954148487304337322711944580078125	306.049406249316007233574055135250091552734375	6.42408961475061968116051502875052392482757568359375	44.2296920690883013094207854010164737701416015625	1.8719887953011500325573024383629672229290008544921875	400.4999945561070262556313537061214447021484375	0.0	10850.26667515430017374455928802490234375	0.0	1	1	1	1
2391	S6	2019	4	10	15	411.29881256533298028443823568522930145263671875	220.4848340809539877227507531642913818359375	281.95448371994598346645943820476531982421875	7.03802817573010042195846835966221988201141357421875	43.57999986460509944663499481976032257080078125	1.8261971774235499221816780845983885228633880615234375	519.66666554410994649515487253665924072265625	0.0	13459.056705236400375724770128726959228515625	0.0	1	1	1	1
2392	S6	2019	4	10	16	219.99158327880098795503727160394191741943359375	21.305589187177400134487470495514571666717529296875	210.742519926814992459185305051505565643310546875	6.425219928763819865480400039814412593841552734375	48.61818189425199676634292700327932834625244140625	2.0410557161153501937178589287213981151580810546875	223.666667938231995549358543939888477325439453125	0.0	6300.937523444459657184779644012451171875	0.0	1	1	1	1
2393	S6	2019	4	10	17	160.91174667872701320447959005832672119140625	73.5254304061389944990878575481474399566650390625	132.01682262206298901219270192086696624755859375	6.2382022571027899715545572689734399318695068359375	52.1651683443048028721023001708090305328369140625	2.33230336956428008221564596169628202915191650390625	155.3333339591810045021702535450458526611328125	0.0	4328.7398666143299124087207019329071044921875	0.0	1	1	1	1
2394	S6	2019	4	10	18	73.2336930698817951679302495904266834259033203125	0.29501455655942299127758587928838096559047698974609375	74.1580514536963022464988171122968196868896484375	5.676666708787280413162079639732837677001953125	54.761666647593102652535890229046344757080078125	2.9475000013907699525361749692820012569427490234375	62.9166667349636981043659034185111522674560546875	0.0	1833.936688800640013141673989593982696533203125	0.0	1	1	1	1
2395	S6	2019	4	10	19	17.43508616420950119163535418920218944549560546875	17.349304550720500373017785022966563701629638671875	17.093229534890898690946414717473089694976806640625	5.16416671673456040281280365888960659503936767578125	55.75583343505849853727340814657509326934814453125	2.87861110568046019153598535922355949878692626953125	12.749999955606899249005437013693153858184814453125	0.0	402.05305737132499643848859705030918121337890625	0.0	1	1	1	1
2396	S6	2019	4	10	20	3.944478422403329798129334449185989797115325927734375	0.1016542658520240005604051702903234399855136871337890625	4.06125701467195998617398799979127943515777587890625	4.81250011920927978081863329862244427204132080078125	57.05000019073479933240378159098327159881591796875	3.11250000695387019078452794929035007953643798828125	0.08333333729145829538165202166055678389966487884521484375	0.0	12.39904982503500008306218660436570644378662109375	0.0	1	1	1	0
2397	S6	2019	4	10	21	0	0	0	0	0	0	0	0.0	0	0.0	1	1	1	0
2398	S6	2019	4	10	22	0	0	0	0	0	0	0	0.0	0	0.0	1	1	1	0
2399	S6	2019	4	10	23	0	0	0	0	0	0	0	0.0	0	0.0	1	1	1	0
2400	S6	2019	4	10	24	0	0	0	0	0	0	0	0.0	0	0.0	1	1	1	0
2401	S6	2019	4	11	1	0	0	0	0	0	0	0	0.0	0	0.0	1	1	1	0
2402	S6	2019	4	11	2	0	0	0	0	0	0	0	0.0	0	0.0	1	1	1	0
2403	S6	2019	4	11	3	0	0	0	0	0	0	0	0.0	0	0.0	1	1	1	0
2404	S6	2019	4	11	4	0	0	0	0	0	0	0	0.0	0	0.0	1	1	1	0
2405	S6	2019	4	11	5	0	0	0	0	0	0	0	0.0	0	0.0	1	1	1	0
2406	S6	2019	4	11	6	8.1810070800058696249834611080586910247802734375	0.1561910709121610008054403806454502046108245849609375	8.293603811601190756164214690215885639190673828125	2.287373730630580137557217312860302627086639404296875	77.151009684861293180802022106945514678955078125	1.309090910836899990243864522199146449565887451171875	3.999999966860440014926325602573342621326446533203125	0.0	122.9217582149429972560028545558452606201171875	0.0	1	1	1	1
2407	S6	2019	4	11	7	76.74058139059269478821079246699810028076171875	28.966836809284099985006832866929471492767333984375	71.3973291979895066106109879910945892333984375	2.4722222420904298445520907989703118801116943359375	75.12833349439830499250092543661594390869140625	1.8955555512673301077342102871625684201717376708984375	65.33333317687089447645121254026889801025390625	0.0	1946.69102132319994780118577182292938232421875	0.0	1	1	1	1
2408	S6	2019	4	11	8	221.39303737216499712303630076348781585693359375	221.411017669571009491846780292689800262451171875	155.25187161763500398592441342771053314208984375	3.0038889076974601977099155192263424396514892578125	71.1161108652750044711865484714508056640625	2.405555550091790006916880884091369807720184326171875	208.916669090589010693292948417365550994873046875	0.0	6014.0461772680400827084667980670928955078125	0.0	1	1	1	1
2409	S6	2019	4	11	9	267.56521790234597801827476359903812408447265625	165.120982042130009403990698046982288360595703125	199.335002567921009131168830208480358123779296875	3.3053221448796801240632703411392867565155029296875	67.2190476532409064702733303420245647430419921875	2.124089635887730143082308131852187216281890869140625	282.999999821184019310749135911464691162109375	0.0	8293.269634246820714906789362430572509765625	0.0	1	1	1	1
2410	S6	2019	4	11	10	475.436569256607981515116989612579345703125	487.83725439867697559748194180428981781005859375	209.195875023593004016220220364630222320556640625	4.27647059571509036146608195849694311618804931640625	61.29803942298349994644013349898159503936767578125	1.496078431355849946982061737799085676670074462890625	581.50000125169799503055401146411895751953125	0.0	16234.113842248900255071930587291717529296875	0.0	1	1	1	1
2411	S6	2019	4	11	11	416.60102848686898369123809970915317535400390625	264.9198144229000035920762456953525543212890625	248.6153776652610076780547387897968292236328125	5.09883379866707997507546679116785526275634765625	55.1349853537868028752200189046561717987060546875	1.0046647235360099958967339262017048895359039306640625	519.0833260615660265102633275091648101806640625	0.0	13848.9706913629997870884835720062255859375	0.0	1	1	1	1
2412	S6	2019	4	11	12	655.69661999820300479768775403499603271484375	706.230437495735031916410662233829498291015625	184.5882183460699934585136361420154571533203125	6.48202245021133993674311568611301481723785400390625	46.69410104430119901053330977447330951690673828125	0.97162921442074701161573102581314742565155029296875	845.9166636069600144764990545809268951416015625	0.0	22043.582260608600336126983165740966796875	0.0	1	1	1	1
2413	S6	2019	4	11	13	718.889310201009038792108185589313507080078125	885.78061116536400732002221047878265380859375	123.5090011596669938853665371425449848175048828125	7.075555573569399570033056079410016536712646484375	44.9216666751436974891475983895361423492431640625	1.194722221957309926665402599610388278961181640625	974.58333273728703716187737882137298583984375	0.0	24925.57024955749875516630709171295166015625	0.0	1	1	1	1
2414	S6	2019	4	11	14	684.932479519314028948429040610790252685546875	881.5778489854600366015802137553691864013671875	119.5385376612340024848890607245266437530517578125	7.003888895776530176817686879076063632965087890625	44.58833344777419682714025839231908321380615234375	1.5013888853291599279060619664960540831089019775390625	936.8333369493490181412198580801486968994140625	0.0	23601.00710392000110005028545856475830078125	0.0	1	1	1	1
2415	S6	2019	4	11	15	604.0564576890729995284345932304859161376953125	874.4787612915030194926657713949680328369140625	101.27588132222399508464150130748748779296875	6.77166667249467035816223869915120303630828857421875	37.5222222434149017544768867082893848419189453125	1.8994444390137898981407715837121941149234771728515625	822.833334406215044509735889732837677001953125	0.0	20923.20259412120140041224658489227294921875	0.0	1	1	1	1
2416	S6	2019	4	11	16	423.304329377531985301175154745578765869140625	627.1378673666860095181618817150592803955078125	122.02762452920700297909206710755825042724609375	6.76618907649741974097423735656775534152984619140625	41.30659036718329701898255734704434871673583984375	1.656160453585290071032432024367153644561767578125	555.0833344459530280801118351519107818603515625	0.0	14224.95914498959973570890724658966064453125	0.0	1	1	1	1
2417	S6	2019	4	11	17	296.07718895001102055175579153001308441162109375	522.4485678113370568098616786301136016845703125	112.6293967049879967134984326548874378204345703125	6.896368710022390047242879518307745456695556640625	44.34441334175659932270718854852020740509033203125	1.65027932589612991165495259338058531284332275390625	382.58333380023401559810736216604709625244140625	0.0	9387.788971265139480237849056720733642578125	0.0	1	1	1	1
2418	S6	2019	4	11	18	151.097402954100999750153278000652790069580078125	288.92798244186798228838597424328327178955078125	85.4590636889139005916149471886456012725830078125	6.4511111259460403033472175593487918376922607421875	47.49555536905919694845579215325415134429931640625	1.5366666648122999649928033250034786760807037353515625	156.666665958860988894230104051530361175537109375	0.0	3748.63214914995978688239119946956634521484375	0.0	1	1	1	1
2419	S6	2019	4	11	19	24.858397430843698572289213188923895359039306640625	4.4803902486209796762750556808896362781524658203125	25.233341439564998864852896076627075672149658203125	4.78944442272185977316212301957421004772186279296875	55.4061111026340000762502313591539859771728515625	1.6255555508865200398105343992938287556171417236328125	18.58333339138579987093180534429848194122314453125	0.0	622.54766064385694335214793682098388671875	0.0	1	1	1	1
2420	S6	2019	4	11	20	6.05304054591965989828850069898180663585662841796875	17.3712145349253006543221999891102313995361328125	6.18674317650172955751486369990743696689605712890625	4.02608693164327036129179759882390499114990234375	59.83043504797890221880152239464223384857177734375	0.88260868839595596480052108745439909398555755615234375	0.08333333729145829538165202166055678389966487884521484375	0.0	28.517517144791799665881626424379646778106689453125	0.0	1	1	1	0
2421	S6	2019	4	11	21	0	0	0	0	0	0	0	0.0	0	0.0	1	1	1	0
2422	S6	2019	4	11	22	0	0	0	0	0	0	0	0.0	0	0.0	1	1	1	0
2423	S6	2019	4	11	23	0	0	0	0	0	0	0	0.0	0	0.0	1	1	1	0
2424	S6	2019	4	11	24	0	0	0	0	0	0	0	0.0	0	0.0	1	1	1	0
2425	S6	2019	4	12	1	0	0	0	0	0	0	0	0.0	0	0.0	1	1	1	0
2426	S6	2019	4	12	2	0	0	0	0	0	0	0	0.0	0	0.0	1	1	1	0
2427	S6	2019	4	12	3	0	0	0	0	0	0	0	0.0	0	0.0	1	1	1	0
2428	S6	2019	4	12	4	0	0	0	0	0	0	0	0.0	0	0.0	1	1	1	0
2429	S6	2019	4	12	5	0	0	0	0	0	0	0	0.0	0	0.0	1	1	1	0
2430	S6	2019	4	12	6	22.062280673472599801243632100522518157958984375	40.5187986179438013323306222446262836456298828125	19.309829235076900744161321199499070644378662109375	1.1725409954297700831915562957874499261379241943359375	76.862705230712805359871708787977695465087890625	0.9196721316605309670677570466068573296070098876953125	11.0833334426085006185758174979127943515777587890625	0.0	398.44309942175999594837776385247707366943359375	0.0	1	1	1	1
2431	S6	2019	4	12	7	143.5010330200190082905464805662631988525390625	425.7403064303920245947665534913539886474609375	69.140447489420495230660890229046344757080078125	2.3505555550257302144245841191150248050689697265625	73.4933333079020059130925801582634449005126953125	1.1316666655242400008063441418926231563091278076171875	88.5833337282135033774466137401759624481201171875	0.0	2953.93549650907016257406212389469146728515625	0.0	1	1	1	1
2432	S6	2019	4	12	8	233.918410454129997333438950590789318084716796875	389.76637718116700170867261476814746856689453125	122.2896125949149990219666506163775920867919921875	3.377259477581989965955244770157150924205780029296875	70.628863298510594859180855564773082733154296875	2.128862970163800216738536619232036173343658447265625	212.74999963740600605888175778090953826904296875	0.0	5902.429123719570270623080432415008544921875	0.0	1	1	1	1
2433	S6	2019	4	12	9	251.94302842881899096028064377605915069580078125	52.57540514493980055021893349476158618927001953125	227.592992909749000318697653710842132568359375	2.768888898690539779323671609745360910892486572265625	65.9111106660630952092105871997773647308349609375	3.138055547409579926210199118941091001033782958984375	259.08333435654498089206754229962825775146484375	0.0	7700.9788552919999347068369388580322265625	0.0	1	1	1	1
2434	S6	2019	4	12	10	421.9887319019049982671276666224002838134765625	288.929875652873988656210713088512420654296875	261.20796937295398265632684342563152313232421875	2.91415928176721994447007091366685926914215087890625	65.737757972559705876847147010266780853271484375	2.9082595858953599332608064287342131137847900390625	440.2499993642160234230686910450458526611328125	0.0	12473.458011945100224693305790424346923828125	0.0	1	1	1	1
2435	S6	2019	4	12	11	320.58395188577998169421334750950336456298828125	25.009450160113399164174552424810826778411865234375	303.10146794694099980915780179202556610107421875	3.3525281066305101518310038954950869083404541015625	58.6084268655668978453832096420228481292724609375	2.0747190956654097959699356579221785068511962890625	333.4166643520189836635836400091648101806640625	0.0	9438.572903474150734837166965007781982421875	0.0	1	1	1	1
2436	S6	2019	4	12	12	459.04334765485799607631633989512920379638671875	144.455501189682991025620140135288238525390625	359.09094316531400181702338159084320068359375	4.52962964892047015297293910407461225986480712890625	50.02905963560790070232542348094284534454345703125	1.6700854680137400265493852202780544757843017578125	534.7499971588430298652383498847484588623046875	0.0	13437.202890713999295257963240146636962890625	0.0	1	1	1	1
2437	S6	2019	4	12	13	444.6958741188039994085556827485561370849609375	123.8248399004790059052538708783686161041259765625	358.027077388763018461759202182292938232421875	5.2325000181794099063381509040482342243194580078125	44.034374952316198914559208787977695465087890625	1.891874995175740092889782317797653377056121826171875	458.50000033776001373553299345076084136962890625	0.0	12056.398570537499836063943803310394287109375	0.0	1	1	1	1
2438	S6	2019	4	12	14	484.25295653753499891536193899810314178466796875	298.72492770107800197365577332675457000732421875	288.7561922158259903881116770207881927490234375	5.63204749472417010025537820183672010898590087890625	39.856379704234797145545599050819873809814453125	2.510682487788459926747464123764075338840484619140625	586.166666199758992661372758448123931884765625	0.0	15086.92501982050089281983673572540283203125	0.0	1	1	1	1
2439	S6	2019	4	12	15	510.4665313808390010308357886970043182373046875	492.3736983468940024977200664579868316650390625	229.67654945110399467012030072510242462158203125	5.6416666877680796687855035997927188873291015625	38.67701146794460242972490959800779819488525390625	2.800287354180860166508182373945601284503936767578125	639.499995857476960736676119267940521240234375	0.0	16814.58502014469922869466245174407958984375	0.0	1	1	1	1
2440	S6	2019	4	12	16	350.96472094558697563115856610238552093505859375	325.65894070419398076410288922488689422607421875	191.724724733541989962759544141590595245361328125	5.59450174115367016014488399378024041652679443359375	37.6570446368344988741228007711470127105712890625	2.062199307983270113453500016476027667522430419921875	354.41666468977899739911663345992565155029296875	0.0	9823.375016450869225081987679004669189453125	0.0	1	1	1	1
2441	S6	2019	4	12	17	172.966419318909998992239707149565219879150390625	146.45209140601900799083523452281951904296875	122.6369729605460037191733135841786861419677734375	5.25014411612958031838616079767234623432159423828125	41.68328536415649665514138177968561649322509765625	2.2426512949061301327446926734410226345062255859375	162.916664034127990134948049671947956085205078125	0.0	4377.7783811092203904991038143634796142578125	0.0	1	1	1	1
2442	S6	2019	4	12	18	136.22473587459899135865271091461181640625	256.78928722395602335382136516273021697998046875	83.9032400025261040354962460696697235107421875	5.059999990463250441052878159098327159881591796875	43.1583331637911982170408009551465511322021484375	2.22888889056113015385562903247773647308349609375	154.916668310761991733670583926141262054443359375	0.0	3602.857391039529829868115484714508056640625	0.0	1	1	1	1
2443	S6	2019	4	12	19	31.112717689408100341097451746463775634765625	77.3644732425610044401764753274619579315185546875	24.26815827422669968882473767735064029693603515625	3.9416666309038799198560809600166976451873779296875	49.27611120012070244911228655837476253509521484375	1.365555557029110023137263851822353899478912353515625	21.166666837719400717787721077911555767059326171875	0.0	646.3594855740640241492656059563159942626953125	0.0	1	1	1	1
2444	S6	2019	4	12	20	7.89322324593860980002091309870593249797821044921875	7.428698052962619868822002899833023548126220703125	8.19683933258055930082264239899814128875732421875	3.599999904632559921680012848810292780399322509765625	50.1500002543130989351993775926530361175537109375	1.1916666825612300950609778737998567521572113037109375	0.1666666745829079865348631983579252846539020538330078125	0.0	40.77542569333049726765239029191434383392333984375	0.0	1	1	1	0
2445	S6	2019	4	12	21	0	0	0	0	0	0	0	0.0	0	0.0	1	1	1	0
2446	S6	2019	4	12	22	0	0	0	0	0	0	0	0.0	0	0.0	1	1	1	0
2447	S6	2019	4	12	23	0	0	0	0	0	0	0	0.0	0	0.0	1	1	1	0
2448	S6	2019	4	12	24	0	0	0	0	0	0	0	0.0	0	0.0	1	1	1	0
2449	S6	2019	4	13	1	0	0	0	0	0	0	0	0.0	0	0.0	1	1	1	0
2450	S6	2019	4	13	2	0	0	0	0	0	0	0	0.0	0	0.0	1	1	1	0
2451	S6	2019	4	13	3	0	0	0	0	0	0	0	0.0	0	0.0	1	1	1	0
2452	S6	2019	4	13	4	0	0	0	0	0	0	0	0.0	0	0.0	1	1	1	0
2453	S6	2019	4	13	5	0	0	0	0	0	0	0	0.0	0	0.0	1	1	1	0
2454	S6	2019	4	13	6	33.9174008239399000785851967521011829376220703125	204.007522064988989995981683023273944854736328125	19.41512396118849892445723526179790496826171875	-0.08636363724415950515744810900287120603024959564208984375	78.9081813465464989576503285206854343414306640625	2.098181812329719786447412843699567019939422607421875	10.41666668606909951222405652515590190887451171875	0.0	420.7002404145899845389067195355892181396484375	0.0	1	1	1	0
2455	S6	2019	4	13	7	131.63365609910698594831046648323535919189453125	471.4875982496470214755390770733356475830078125	47.3131232579548992589479894377291202545166015625	0.5877777853773700211803543425048701465129852294921875	78.2261107974582046153955161571502685546875	1.81083332531980989443809448857791721820831298828125	99.41666728506470462889410555362701416015625	0.0	2706.16934448481015351717360317707061767578125	0.0	1	1	1	1
2456	S6	2019	4	13	8	279.57239108615402756186085753142833709716796875	656.8180840386279442100203596055507659912109375	73.6194180064730971935205161571502685546875	2.322777756717469888059213189990259706974029541015625	71.1994445800780937361196265555918216705322265625	2.072777772612039992594645809731446206569671630859375	318.08333347241199362542829476296901702880859375	0.0	7574.68402882418013177812099456787109375	0.0	1	1	1	1
2457	S6	2019	4	13	9	429.104023287887002879870124161243438720703125	761.3288932949050149545655585825443267822265625	93.0168475732829023172598681412637233734130859375	4.040947086631749840535121620632708072662353515625	61.73593311787970350223986315540969371795654296875	2.83871865587977989520140909007750451564788818359375	483.50000133116901679386501200497150421142578125	0.0	13793.5291528702000505290925502777099609375	0.0	1	1	1	1
2458	S6	2019	4	13	10	487.6226034584279886985314078629016876220703125	574.8214896482489848494878970086574554443359375	172.28902843163399438708438538014888763427734375	4.54842770474510960099223666475154459476470947265625	60.70786157044219777390026138164103031158447265625	3.50597484156770011765047456719912588596343994140625	548.999999960263949105865322053432464599609375	0.0	15438.0039374033003696240484714508056640625	0.0	1	1	1	1
2459	S6	2019	4	13	11	525.4155871563920072730979882180690765380859375	452.5704537332940162741579115390777587890625	241.807535188488003541351645253598690032958984375	5.31988130620395960335144991404376924037933349609375	57.27863517783860203280710265971720218658447265625	3.5364985120225700399032575660385191440582275390625	662.4166692296649898707983084022998809814453125	0.0	18019.33449506749821011908352375030517578125	0.0	1	1	1	1
2460	S6	2019	4	13	12	354.2968760961770158246508799493312835693359375	54.35914940046590260180892073549330234527587890625	315.7685699024419818670139648020267486572265625	5.724712648610950083138959598727524280548095703125	54.8114942901435000521814799867570400238037109375	3.60603448603001996985994992428459227085113525390625	352.41665939490002301681670360267162322998046875	0.0	10003.59098116550012491643428802490234375	0.0	1	1	1	1
2461	S6	2019	4	13	13	259.02160508519699533280800096690654754638671875	4.48783873519690956754857324995100498199462890625	255.71461525069599929338437505066394805908203125	5.627576543760159921703234431333839893341064453125	55.50111421037839676273506483994424343109130859375	3.4562674021986499184322383371181786060333251953125	240.33333609501499950056313537061214447021484375	0.0	7103.521714607870308100245893001556396484375	0.0	1	1	1	1
2462	S6	2019	4	13	14	171.73127269744799150430480949580669403076171875	0.87861074900461499925796715615433640778064727783203125	171.37323767344099678666680119931697845458984375	5.66499996185302023832264239899814128875732421875	55.37777790493429819207449327223002910614013671875	3.802777774797540200069079219247214496135711669921875	154.24999967217399898800067603588104248046875	0.0	4678.327759106939993216656148433685302734375	0.0	1	1	1	1
2463	S6	2019	4	13	15	254.3370460361489904244081117212772369384765625	13.9744356968607998936704461812041699886322021484375	246.716948442804010710460715927183628082275390625	5.90250693988002961276606583851389586925506591796875	54.23676899349450053477994515560567378997802734375	3.7044568211255199940978855011053383350372314453125	267.2500014305099966804846189916133880615234375	0.0	7652.7218520641299619455821812152862548828125	0.0	1	1	1	1
2464	S6	2019	4	13	16	228.7228516054819920100271701812744140625	16.00849137037570102393146953545510768890380859375	219.92453845386700095332344062626361846923828125	6.55774644797955996722294003120623528957366943359375	52.14394359319980054578991257585585117340087890625	3.37887324145142020626053636078722774982452392578125	222.33333438634900858232867904007434844970703125	0.0	6316.325257221849824418313801288604736328125	0.0	1	1	1	1
2465	S6	2019	4	13	17	159.250161050748005209243274293839931488037109375	8.5337740259677996590426118928007781505584716796875	156.1287799909999876035726629197597503662109375	6.57955176088989990290656351135112345218658447265625	52.9414562898522973455328610725700855255126953125	3.33193276893524004123037229874171316623687744140625	153.58333413799499567176098935306072235107421875	0.0	4283.4916263818804509355686604976654052734375	0.0	1	1	1	1
2466	S6	2019	4	13	18	83.9208457542992931621483876369893550872802734375	3.9534962993779299011976036126725375652313232421875	83.420405576488093402076628990471363067626953125	6.24011140015795984226087966817431151866912841796875	55.12590523084890037353034131228923797607421875	2.681894146632350039993752943701110780239105224609375	74.1666673372192946089853649027645587921142578125	0.0	2110.35849402348003422957845032215118408203125	0.0	1	1	1	1
2467	S6	2019	4	13	19	23.250154530360401139432724448852241039276123046875	3.770488712973569800368522919598035514354705810546875	23.157205002165998308782945969142019748687744140625	5.44419263780284978793133632279932498931884765625	58.75637405654860145887141698040068149566650390625	1.831161469812089936937127276905812323093414306640625	19.1666665098940001144001143984496593475341796875	0.0	596.02101923276995876221917569637298583984375	0.0	1	1	1	1
2468	S6	2019	4	13	20	6.2894567941364396546077841776423156261444091796875	10.6614581681134001911459563416428864002227783203125	6.2896415308902096086285382625646889209747314453125	4.52807014866878976278030677349306643009185791015625	62.14386026482829805672736256383359432220458984375	0.74561404083904403439220232030493207275867462158203125	0.333333339464541023033916644635610282421112060546875	0.0	39.413233404047701924355351366102695465087890625	0.0	1	1	1	0
2469	S6	2019	4	13	21	0	0	0	0	0	0	0	0.0	0	0.0	1	1	1	0
2470	S6	2019	4	13	22	0	0	0	0	0	0	0	0.0	0	0.0	1	1	1	0
2471	S6	2019	4	13	23	0	0	0	0	0	0	0	0.0	0	0.0	1	1	1	0
2472	S6	2019	4	13	24	0	0	0	0	0	0	0	0.0	0	0.0	1	1	1	0
2473	S6	2019	4	14	1	0	0	0	0	0	0	0	0.0	0	0.0	1	1	1	0
2474	S6	2019	4	14	2	0	0	0	0	0	0	0	0.0	0	0.0	1	1	1	0
2475	S6	2019	4	14	3	0	0	0	0	0	0	0	0.0	0	0.0	1	1	1	0
2476	S6	2019	4	14	4	0	0	0	0	0	0	0	0.0	0	0.0	1	1	1	0
2477	S6	2019	4	14	5	0	0	0	0	0	0	0	0.0	0	0.0	1	1	1	0
2478	S6	2019	4	14	6	25.26321347088990165730137960053980350494384765625	96.6682072114744954660636722110211849212646484375	18.353656637119900807419980992563068866729736328125	-0.1631799204329560104564933453730191104114055633544921875	75.0690371142271004600843298248946666717529296875	1.266945610984099968021610038704238831996917724609375	9.1666666752037091470128871151246130466461181640625	0.0	391.52824125873399907504790462553501129150390625	0.0	1	1	1	0
2479	S6	2019	4	14	7	128.137563896178988898100215010344982147216796875	349.651103125677991556585766375064849853515625	62.1812053309545973434069310314953327178955078125	1.13222222522727999916014596237801015377044677734375	74.306111484103695374869857914745807647705078125	1.951111107567939928486566714127548038959503173828125	81.916667520999595808461890555918216705322265625	0.0	2724.76482143003022429184056818485260009765625	0.0	1	1	1	1
2480	S6	2019	4	14	8	293.0349784851069898650166578590869903564453125	560.6130240546330014694831334054470062255859375	111.7937515046859999756634351797401905059814453125	3.452222237322060127695522169233299791812896728515625	70.90166664123529471908113919198513031005859375	3.106388887597450132460608074325136840343475341796875	285.91666867335601409649825654923915863037109375	0.0	8022.362271944670283119194209575653076171875	0.0	1	1	1	1
2481	S6	2019	4	14	9	437.471797519260007902630604803562164306640625	707.0354610866969551352667622268199920654296875	120.78197920057499459289829246699810028076171875	5.088888915379840227615204639732837677001953125	65.3183334562512953880286659114062786102294921875	3.708055553502500156781707119080238044261932373046875	485.66666245460402251410414464771747589111328125	0.0	14007.47517744690048857592046260833740234375	0.0	1	1	1	1
2482	S6	2019	4	14	10	538.669921959771045294473879039287567138671875	745.622365824380949561600573360919952392578125	122.979005114236997542320750653743743896484375	6.5277777777777696854855093988589942455291748046875	56.913888867696101669935160316526889801025390625	4.03166666593816014341200570925138890743255615234375	649.2500007152540320021216757595539093017578125	0.0	18277.47162183119871770031750202178955078125	0.0	1	1	1	1
2483	S6	2019	4	14	11	647.1067659166119483415968716144561767578125	820.6486268785259881042293272912502288818359375	125.201874012416993764418293721973896026611328125	7.86111111640930015909134453977458178997039794921875	49.28944456312390087759922607801854610443115234375	4.4144444386164298776975556393153965473175048828125	823.4166751305250500081456266343593597412109375	0.0	22441.30309422810023534111678600311279296875	0.0	1	1	1	1
2484	S6	2019	4	14	12	707.5867847018770362410577945411205291748046875	822.35661366780595926684327423572540283203125	147.175515492757000401979894377291202545166015625	9.1044444296095097257648376398719847202301025390625	44.569444592793701076516299508512020111083984375	4.23888888541195019143970057484693825244903564453125	928.999990224838029462262056767940521240234375	0.0	24525.346080462099052965641021728515625	0.0	1	1	1	1
2485	S6	2019	4	14	13	730.00785319010401508421637117862701416015625	811.18108503553594346158206462860107421875	171.0946141560870046305353753268718719482421875	9.701666667726300374852144159376621246337890625	41.81888910929360037016522255726158618927001953125	4.0508333386646295792843375238589942455291748046875	976.66665911674999733804725110530853271484375	0.0	25267.20066865280023193918168544769287109375	0.0	1	1	1	1
2486	S6	2019	4	14	14	598.2082422044539953276398591697216033935546875	465.19802770614597875464824028313159942626953125	283.4340958065449740388430655002593994140625	9.99166670375399945669414591975510120391845703125	39.89611117045080135312673519365489482879638671875	3.832222223447419917619072293746285140514373779296875	779.166668653482020090450532734394073486328125	0.0	20228.88873020800019730813801288604736328125	0.0	1	1	1	1
2487	S6	2019	4	14	15	575.6746949089889540118747390806674957275390625	480.2673028098209897507331334054470062255859375	286.1870031144879931161995045840740203857421875	10.1988888634574994540571424295194447040557861328125	37.93166669209789887418082798831164836883544921875	4.01611110733615017664988044998608529567718505859375	748.9166706800459678561310283839702606201171875	0.0	19434.476534525500028394162654876708984375	0.0	1	1	1	1
2488	S6	2019	4	14	16	326.73951882256397993842256255447864532470703125	68.4463637259270996082705096341669559478759765625	290.15704515245198535922099836170673370361328125	9.9622221522861007514393349993042647838592529296875	38.41944450802269983569203759543597698211669921875	3.540000008046619850432534803985618054866790771484375	378.5000046094249910311191342771053314208984375	0.0	10154.12690242129974649287760257720947265625	0.0	1	1	1	1
2489	S6	2019	4	14	17	316.40950944688501067503239028155803680419921875	591.1324625227180149522610008716583251953125	102.3378728230789960207403055392205715179443359375	10.02166665924909949580978718586266040802001953125	39.53611085679789738378531183116137981414794921875	3.43888889286253007782079293974675238132476806640625	406.99999406933801537888939492404460906982421875	0.0	10097.559660673099642735905945301055908203125	0.0	1	1	1	1
2490	S6	2019	4	14	18	193.15100239647699709166772663593292236328125	561.886420440672964105033315718173980712890625	60.065867879655598926547099836170673370361328125	9.5538889302147698145972753991372883319854736328125	41.81777769724519799865447566844522953033447265625	3.28249999334413988805181361385621130466461181640625	222.91666517654999779551872052252292633056640625	0.0	4890.462016065919669927097856998443603515625	0.0	1	1	1	1
2491	S6	2019	4	14	19	53.29837962256529948490424430929124355316162109375	214.473824983834987278896733187139034271240234375	29.04927680757310071157917263917624950408935546875	8.0905555460188107730346018797717988491058349609375	45.47944435543480068417920847423374652862548828125	2.42694444018933008777594295679591596126556396484375	43.8333333004267018395694321952760219573974609375	0.0	982.2413055226179494638927280902862548828125	0.0	1	1	1	1
2492	S6	2019	4	14	20	9.0454793199896794675396449747495353221893310546875	23.31552725657819991056385333649814128875732421875	8.8119891509413701413677699747495353221893310546875	6.8687500655651003711454904987476766109466552734375	50.1156255006790019024265347979962825775146484375	1.5937499939463999343303157729678787291049957275390625	0.6666666886303580508155164352501742541790008544921875	0.0	56.0634503684317024863048573024570941925048828125	0.0	1	1	1	0
2493	S6	2019	4	14	21	0	0	0	0	0	0	0	0.0	0	0.0	1	1	1	0
2494	S6	2019	4	14	22	0	0	0	0	0	0	0	0.0	0	0.0	1	1	1	0
2495	S6	2019	4	14	23	0	0	0	0	0	0	0	0.0	0	0.0	1	1	1	0
2496	S6	2019	4	14	24	0	0	0	0	0	0	0	0.0	0	0.0	1	1	1	0
2497	S6	2019	4	15	1	0	0	0	0	0	0	0	0.0	0	0.0	1	1	1	0
2498	S6	2019	4	15	2	0	0	0	0	0	0	0	0.0	0	0.0	1	1	1	0
2499	S6	2019	4	15	3	0	0	0	0	0	0	0	0.0	0	0.0	1	1	1	0
2500	S6	2019	4	15	4	0	0	0	0	0	0	0	0.0	0	0.0	1	1	1	0
2501	S6	2019	4	15	5	0	0	0	0	0	0	0	0.0	0	0.0	1	1	1	0
2502	S6	2019	4	15	6	42.6888023836338987848648685030639171600341796875	310.09386765721200163170578889548778533935546875	18.210894113472800626141179236583411693572998046875	0.070750988637034606387743451705318875610828399658203125	76.1039521590522980432069743983447551727294921875	1.74743082471514998843531429884023964405059814453125	11.4166667626704008142723978380672633647918701171875	0.0	510.0424919122229994172812439501285552978515625	0.0	1	1	1	0
2503	S6	2019	4	15	7	154.8823828379310043601435609161853790283203125	615.308981323242051075794734060764312744140625	38.33865827984279661677646799944341182708740234375	1.2588888807429199356846538648824207484722137451171875	73.453333324856203034869395196437835693359375	2.02805554825398015594828393659554421901702880859375	79.5833338052039067633813829161226749420166015625	0.0	2973.17003458736007814877666532993316650390625	0.0	1	1	1	1
2504	S6	2019	4	15	8	307.9454912397590078398934565484523773193359375	781.27662438286597534897737205028533935546875	53.9245953030056028865146799944341182708740234375	3.60444443358314980940804161946289241313934326171875	66.08777807023790273888153024017810821533203125	2.550555556515849975340870514628477394580841064453125	298.41666668653300575897446833550930023193359375	0.0	8222.932527462640791782177984714508056640625	0.0	1	1	1	1
2505	S6	2019	4	15	9	457.4979500664600209347554482519626617431640625	864.0762276543509869952686131000518798828125	65.7061795128715999680935055948793888092041015625	5.337777789433790331941054319031536579132080078125	61.037777688768102279937011189758777618408203125	2.49916665852069019848613606882281601428985595703125	512.3333310087499512519570998847484588623046875	0.0	14567.682464917399556725285947322845458984375	0.0	1	1	1	1
2506	S6	2019	4	15	10	584.9526687622070539873675443232059478759765625	909.89376559787297082948498427867889404296875	74.241760741339703599805943667888641357421875	6.63777777353922004976993775926530361175537109375	56.838333066304500107435160316526889801025390625	2.342499990595710013252528369775973260402679443359375	708.08333158492996517452411353588104248046875	0.0	19508.4861516952005331404507160186767578125	0.0	1	1	1	1
2507	S6	2019	4	15	11	680.180847507052021683193743228912353515625	940.8200859917529896847554482519626617431640625	77.8817068311903000221718684770166873931884765625	7.7488889243867600242765547591261565685272216796875	51.35111094580749835358801647089421749114990234375	2.937777776933370166290160341304726898670196533203125	865.9166693687440101712127216160297393798828125	0.0	23118.43224366499998723156750202178955078125	0.0	1	1	1	1
2508	S6	2019	4	15	12	732.8984775649760194937698543071746826171875	944.443734280888975263223983347415924072265625	85.991271397254905650697764940559864044189453125	8.702793281171569361731599201448261737823486328125	46.42234621101250269248339463956654071807861328125	3.08212290296340984951939390157349407672882080078125	964.9166663487750383865204639732837677001953125	0.0	24995.1967398324995883740484714508056640625	0.0	1	1	1	1
2509	S6	2019	4	15	13	615.878750834601987662608735263347625732421875	630.8221077517190451544593088328838348388671875	176.334604037835987355720135383307933807373046875	9.1223642544243599417086443281732499599456787109375	46.473801999808102891620364971458911895751953125	3.184025553373480033059195193345658481121063232421875	794.4166635473590076799155212938785552978515625	0.0	20301.11955602960006217472255229949951171875	0.0	1	1	1	1
2510	S6	2019	4	15	14	453.73793607769499658388667739927768707275390625	285.775171898915004931041039526462554931640625	259.28163965398601931156008504331111907958984375	9.4800000017339502988988897413946688175201416015625	45.91454578746439807446222403086721897125244140625	3.3124242438511402042422560043632984161376953125	566.8333296974500399301177822053432464599609375	0.0	14396.386802196500866557471454143524169921875	0.0	1	1	1	1
2511	S6	2019	4	15	15	531.456969364646965914289467036724090576171875	578.2183916259369880208396352827548980712890625	190.63291857319399014158989302814006805419921875	10.0554251293283005708190103177912533283233642578125	46.13460406529929969110526144504547119140625	2.707331377477590006463969984906725585460662841796875	683.8333358367279970480012707412242889404296875	0.0	17316.69660409290008828975260257720947265625	0.0	1	1	1	1
2512	S6	2019	4	15	16	510.88081570477498871696298010647296905517578125	772.49524366351897697313688695430755615234375	130.2536656984140108761494047939777374267578125	9.7842253752157706259140468318946659564971923828125	47.75662021905600340687669813632965087890625	2.861690139770499907712064668885432183742523193359375	649.7499992450060517512611113488674163818359375	0.0	16538.14446926110031199641525745391845703125	0.0	1	1	1	1
2513	S6	2019	4	15	17	361.59240966283897478206199593842029571533203125	642.1990113164860076722106896340847015380859375	120.702967005282999934934196062386035919189453125	9.4941177127741891439427490695379674434661865234375	49.975910272250899879509233869612216949462890625	2.547338933503919822243233284098096191883087158203125	433.91666188836001083473092876374721527099609375	0.0	10714.661777019400688004679977893829345703125	0.0	1	1	1	1
2514	S6	2019	4	15	18	207.278510072496004568165517412126064300537109375	635.010417005750014141085557639598846435546875	54.3087543911403969332241103984415531158447265625	8.8716666910383406019491303595714271068572998046875	55.24611110687249748707472463138401508331298828125	2.157499995910450163449922911240719258785247802734375	240.16666784882499996456317603588104248046875	0.0	5207.29580024879032862372696399688720703125	0.0	1	1	1	1
2515	S6	2019	4	15	19	68.891320355733199676251388154923915863037109375	366.18937043083997195935808122158050537109375	28.17051088015229964867103262804448604583740234375	7.59333338737487029135309057892300188541412353515625	60.3666667090520974170431145466864109039306640625	1.9033333325551600179181832572794519364833831787109375	56.7500005320951999010503641329705715179443359375	0.0	1144.11006557443988640443421900272369384765625	0.0	1	1	1	1
2516	S6	2019	4	15	20	10.6885991913931004404503255500458180904388427734375	49.34286512647349809412844479084014892578125	9.535219492231089333245108718983829021453857421875	6.26857143129620997257234193966723978519439697265625	63.14857166835229662638084846548736095428466796875	1.78857142840112004478214657865464687347412109375	0.6666666886303580508155164352501742541790008544921875	0.0	71.2130749598143069079014821909368038177490234375	0.0	1	1	1	0
2517	S6	2019	4	15	21	0	0	0	0	0	0	0	0.0	0	0.0	1	1	1	0
2518	S6	2019	4	15	22	0	0	0	0	0	0	0	0.0	0	0.0	1	1	1	0
2519	S6	2019	4	15	23	0	0	0	0	0	0	0	0.0	0	0.0	1	1	1	0
2520	S6	2019	4	15	24	0	0	0	0	0	0	0	0.0	0	0.0	1	1	1	0
2521	S6	2019	4	16	1	0	0	0	0	0	0	0	0.0	0	0.0	1	1	1	0
2522	S6	2019	4	16	2	0	0	0	0	0	0	0	0.0	0	0.0	1	1	1	0
2523	S6	2019	4	16	3	0	0	0	0	0	0	0	0.0	0	0.0	1	1	1	0
2524	S6	2019	4	16	4	0	0	0	0	0	0	0	0.0	0	0.0	1	1	1	0
2525	S6	2019	4	16	5	0	0	0	0	0	0	0	0.0	0	0.0	1	1	1	0
2526	S6	2019	4	16	6	17.324285846678801448206286295317113399505615234375	4.9250235452696102811387390829622745513916015625	17.391682518852999095315681188367307186126708984375	0.386008236511253988165748296523815952241420745849609375	74.3938272107285030187995289452373981475830078125	1.803703695413009899795042656478472054004669189453125	10.2500000599925993327588003012351691722869873046875	0.0	352.53188479691897327938931994140148162841796875	0.0	1	1	1	1
2527	S6	2019	4	16	7	95.1286765151553055375188705511391162872314453125	139.1955845014080068722250871360301971435546875	71.67229808701409865534515120089054107666015625	1.141388896521589924049067121814005076885223388671875	72.964166047838006079473416320979595184326171875	1.8027777743836199686455756818759255111217498779296875	60.08333371331340089227524003945291042327880859375	0.0	2094.2772589623900785227306187152862548828125	0.0	1	1	1	1
2528	S6	2019	4	16	8	129.410262446932989632841781713068485260009765625	0.98325778519113804509998999492381699383258819580078125	129.661374367607010071878903545439243316650390625	2.639722213480200085911064888932742178440093994140625	71.1375003814697066673033987171947956085205078125	2.023888882001239952757032369845546782016754150390625	121.7500008642669939717961824499070644378662109375	0.0	3605.0324787696199564379639923572540283203125	0.0	1	1	1	1
2529	S6	2019	4	16	9	333.878291363186008311458863317966461181640625	153.510998751554012642372981645166873931884765625	257.19649213155099687355686910450458526611328125	5.0716666579246503232525355997495353221893310546875	67.1552777184380005337516195140779018402099609375	2.654999992416959830876521664322353899478912353515625	346.5833341081939806826994754374027252197265625	0.0	10079.69897985450006672181189060211181640625	0.0	1	1	1	1
2530	S6	2019	4	16	10	568.6699736570129743995494209229946136474609375	762.5141608523030072319670580327510833740234375	139.26102856783398920015315525233745574951171875	7.2880466547373696784006824600510299205780029296875	62.0892127790533976394726778380572795867919921875	3.420116617797760216745928119053132832050323486328125	647.83333738644796540029346942901611328125	0.0	17786.3992849985006614588201045989990234375	0.0	1	1	1	1
2531	S6	2019	4	16	11	569.6782822518970306191476993262767791748046875	532.842057083267036432516761124134063720703125	223.959071705176000932624447159469127655029296875	8.12452836756435914367102668620645999908447265625	61.31761006289300297567024244926869869232177734375	3.06886792576537015264648289303295314311981201171875	636.999994516371998543036170303821563720703125	0.0	17041.07723633449859335087239742279052734375	0.0	1	1	1	1
2532	S6	2019	4	16	12	369.0368847674629932953394018113613128662109375	169.133665399443003707347088493406772613525390625	252.49779657570701374424970708787441253662109375	8.851204837661189372965964139439165592193603515625	58.2518069715384996243301429785788059234619140625	2.83222891112048014150559538393281400203704833984375	385.9999974568660263685160316526889801025390625	0.0	10379.48218981419995543546974658966064453125	0.0	1	1	1	1
2533	S6	2019	4	16	13	796.4596618475940204007201828062534332275390625	789.6780786045710556209087371826171875	247.23602259641398859457694925367832183837890625	10.24075144839419948539216420613229274749755859375	54.62543364067290241337104816921055316925048828125	3.25780346291946987236087807104922831058502197265625	995.833352208135011096601374447345733642578125	0.0	25058.8021874426995054818689823150634765625	0.0	1	1	1	1
2534	S6	2019	4	16	14	706.432301291662952280603349208831787109375	890.111251701375977063435129821300506591796875	114.376336851470995270574348978698253631591796875	9.6866855081012506190063504618592560291290283203125	59.33965992049520110640514758415520191192626953125	3.2920679836705399878837852156721055507659912109375	935.3333314259849657901213504374027252197265625	0.0	23841.36537710819902713410556316375732421875	0.0	1	1	1	1
2535	S6	2019	4	16	15	625.646738886500997978146187961101531982421875	901.3469239981390046523301862180233001708984375	86.363405317981204234456527046859264373779296875	9.5729804902355599693919430137611925601959228515625	52.47994458509349868791105109266936779022216796875	3.706406681318460183405250063515268266201019287109375	819.7499960660940132584073580801486968994140625	0.0	21077.4443149565995554439723491668701171875	0.0	1	1	1	1
2536	S6	2019	4	16	16	504.1445663452140024674008600413799285888671875	853.600607130262005739496089518070220947265625	76.7152606328327948403966729529201984405517578125	9.7936110920376204802551001193933188915252685546875	46.6411110030280013916126335971057415008544921875	3.396666660573739893180800208938308060169219970703125	664.333323637644980408367700874805450439453125	0.0	16953.57205470400003832764923572540283203125	0.0	1	1	1	1
2537	S6	2019	4	16	17	358.048696051703018383705057203769683837890625	749.3821051703549755984568037092685699462890625	73.5400451024373040809223311953246593475341796875	9.8538888904783394906417015590704977512359619140625	51.13472219043300270868712686933577060699462890625	3.30472221026816992406338613363914191722869873046875	451.749995350837025398504920303821563720703125	0.0	11199.957787990499127772636711597442626953125	0.0	1	1	1	1
2538	S6	2019	4	16	18	205.030157767400993407136411406099796295166015625	592.7468043009439497836865484714508056640625	59.2029062800936998200995731167495250701904296875	10.0858333720101001063085277564823627471923828125	50.9133332570392980187534703873097896575927734375	2.5513888847496701828276854939758777618408203125	234.166666865346996928565204143524169921875	0.0	5147.1060564120898561668582260608673095703125	0.0	1	1	1	1
2539	S6	2019	4	16	19	66.98535886340670231220428831875324249267578125	297.76160638597201568700256757438182830810546875	32.24367577499810266772328759543597698211669921875	9.7486111137601998422042015590704977512359619140625	51.11444433000350073825757135637104511260986328125	2.285555553436270148637277088710106909275054931640625	56.00000040916059873552512726746499538421630859375	0.0	1189.97157861787991350865922868251800537109375	0.0	1	1	1	1
2540	S6	2019	4	16	20	11.1510893630980998381119206896983087062835693359375	33.47196212450659658088625292293727397918701171875	10.486859887440999727914459072053432464599609375	8.9106666819254503053571170312352478504180908203125	50.64133316040030052818110561929643154144287109375	2.082666664520889998613029092666693031787872314453125	1.250000001164150109644879194092936813831329345703125	0.0	79.8553332375984012969638570211827754974365234375	0.0	1	1	1	0
2541	S6	2019	4	16	21	0	0	0	0	0	0	0	0.0	0	0.0	1	1	1	0
2542	S6	2019	4	16	22	0	0	0	0	0	0	0	0.0	0	0.0	1	1	1	0
2543	S6	2019	4	16	23	0	0	0	0	0	0	0	0.0	0	0.0	1	1	1	0
2544	S6	2019	4	16	24	0	0	0	0	0	0	0	0.0	0	0.0	1	1	1	0
2545	S6	2019	4	17	1	0	0	0	0	0	0	0	0.0	0	0.0	1	1	1	0
2546	S6	2019	4	17	2	0	0	0	0	0	0	0	0.0	0	0.0	1	1	1	0
2547	S6	2019	4	17	3	0	0	0	0	0	0	0	0.0	0	0.0	1	1	1	0
2548	S6	2019	4	17	4	0	0	0	0	0	0	0	0.0	0	0.0	1	1	1	0
2549	S6	2019	4	17	5	0	0	0	0	0	0	0	0.0	1.7904749838635201086844972451217472553253173828125	0.0	1	1	1	0
2550	S6	2019	4	17	6	39.88221936907080333867270383052527904510498046875	209.786166865485000698754447512328624725341796875	21.432293866361799672404231387190520763397216796875	1.75785715878008996782000394887290894985198974609375	77.72035710471010361288790591061115264892578125	1.10999999865888998584750879672355949878692626953125	13.5833334934432006235738299437798559665679931640625	0.0	574.4641174872680267071700654923915863037109375	0.0	1	1	1	0
2551	S6	2019	4	17	7	156.441812176174011028706445358693599700927734375	544.9262286716029848321340978145599365234375	46.98205855687449883362205582670867443084716796875	3.721111100249820058394334409967996180057525634765625	72.548611450195295446974341757595539093017578125	1.6799999997019698927402941990294493734836578369140625	87.166666518897301330071059055626392364501953125	0.0	2880.36043941975003690458834171295166015625	0.0	1	1	1	1
2552	S6	2019	4	17	8	310.52101088629797231988050043582916259765625	735.6127210828990428126417100429534912109375	63.582570012410400295266299508512020111083984375	6.354166703754000167236881679855287075042724609375	62.082777860429501970429555512964725494384765625	1.6886111074851599678225966272293590009212493896484375	298.3333369096100113893044181168079376220703125	0.0	8204.921344916010639281012117862701416015625	0.0	1	1	1	1
2553	S6	2019	4	17	9	462.32685784233899539685808122158050537109375	846.2477440728080182452686131000518798828125	69.7250016954209996811187011189758777618408203125	9.1377777655919398824835298000834882259368896484375	49.6852776421441006959867081604897975921630859375	1.6369444411661799865242983287316747009754180908203125	512.9166692495340384994051419198513031005859375	0.0	14297.654032707199803553521633148193359375	0.0	1	1	1	1
2554	S6	2019	4	17	10	594.4751108805329522510874085128307342529296875	916.801074049207954885787330567836761474609375	70.620025083753802164210355840623378753662109375	11.3633333709504000808010459877550601959228515625	43.8552777290343982485865126363933086395263671875	1.4158333322240199692032547318376600742340087890625	712.3333265384050037027918733656406402587890625	0.0	19181.79214000700085307471454143524169921875	0.0	1	1	1	1
2555	S6	2019	4	17	11	684.57366706000402700738050043582916259765625	937.6912402682829679179121740162372589111328125	74.7664930131700060655930428765714168548583984375	12.49777774810790020865169935859739780426025390625	41.3127778795030025094092707149684429168701171875	1.8699999953309600631001785586704500019550323486328125	859.7500026226040290566743351519107818603515625	0.0	22345.72613239290149067528545856475830078125	0.0	1	1	1	1
2556	S6	2019	4	17	12	721.1392990112300367400166578590869903564453125	911.221637471516032746876589953899383544921875	87.5170571433173023478957475163042545318603515625	13.5330555518468003128873533569276332855224609375	36.6569445504081983244759612716734409332275390625	2.181388894054620219975504369358532130718231201171875	934.8333378632860330981202423572540283203125	0.0	23601.9907395043992437422275543212890625	0.0	1	1	1	1
2557	S6	2019	4	17	13	727.4613852606879618178936652839183807373046875	901.5932888454859721605316735804080963134765625	94.4925988939072993844092707149684429168701171875	14.6844444884194000877641883562318980693817138671875	35.92277801301739970085691311396658420562744140625	2.0652777701616198413603342487476766109466552734375	959.9166661500939881079830229282379150390625	0.0	23898.23547999059883295558393001556396484375	0.0	1	1	1	1
2558	S6	2019	4	17	14	688.197366163464948840555734932422637939453125	878.530110168456985775264911353588104248046875	99.3206986109415055352656054310500621795654296875	15.3338888380261995081355053116567432880401611328125	36.2627778053282980863514239899814128875732421875	2.41361110748515983459583367221057415008544921875	912.000000476836021334747783839702606201171875	0.0	22714.2418622969998978078365325927734375	0.0	1	1	1	1
2559	S6	2019	4	17	15	610.69366590711797471158206462860107421875	848.9217352973090555678936652839183807373046875	99.0842379252114966448061750270426273345947265625	16.20416657659740167218842543661594390869140625	35.82083343929709684516637935303151607513427734375	2.470277771105359843062387881218455731868743896484375	800.583332777023997550713829696178436279296875	0.0	20095.42306264239960000850260257720947265625	0.0	1	1	1	1
2560	S6	2019	4	17	16	499.64990912543402146184234879910945892333984375	798.7049079047300210731918923556804656982421875	96.916253450181699236054555512964725494384765625	16.004166629579298586349977995269000530242919921875	36.8766667048136014273040927946567535400390625	2.563333326164209946540495366207323968410491943359375	645.083333055177945425384677946567535400390625	0.0	16188.13387552889980725012719631195068359375	0.0	1	1	1	1
2561	S6	2019	4	17	17	355.15206120808898049290291965007781982421875	718.4568903605139666979084722697734832763671875	79.2506067911782992041480611078441143035888671875	15.8333332697550002166053673136048018932342529296875	36.9136110517712978662530076690018177032470703125	2.061666663239389851725036351126618683338165283203125	440.500003596145006667939014732837677001953125	0.0	10772.9335526625000056810677051544189453125	0.0	1	1	1	1
2562	S6	2019	4	17	18	205.174076885646996970535838045179843902587890625	568.7593309190530135310837067663669586181640625	63.409350204467699541055480949580669403076171875	15.877222148577299520866290549747645854949951171875	38.396666420830598553948220796883106231689453125	1.11416666780908002465366735123097896575927734375	228.83333265781499221702688373625278472900390625	0.0	5036.56651576361036859452724456787109375	0.0	1	1	1	1
2563	S6	2019	4	17	19	74.340974277920196300328825600445270538330078125	334.5505598704020258082891814410686492919921875	34.86919355922270113978811423294246196746826171875	15.3336111466089004551349717075936496257781982421875	40.75611098607380000657940399833023548126220703125	0.6111111140085589976678193124826066195964813232421875	57.41666707520670343001256696879863739013671875	0.0	1275.446028138190058598411269485950469970703125	0.0	1	1	1	1
2564	S6	2019	4	17	20	14.4429842299156998564058085321448743343353271484375	50.6877219067824995590854086913168430328369140625	13.0224075002983994409078150056302547454833984375	14.010989094828499190725779044441878795623779296875	45.079120510226999840597272850573062896728515625	0.72857143426989401380211575087741948664188385009765625	0.9166666811021659810876371921040117740631103515625	0.0	91.5049421600997021641887840814888477325439453125	0.0	1	1	1	0
2565	S6	2019	4	17	21	0	0	0	0	0	0	0	0.0	0	0.0	1	1	1	0
2566	S6	2019	4	17	22	0	0	0	0	0	0	0	0.0	0	0.0	1	1	1	0
2567	S6	2019	4	17	23	0	0	0	0	0	0	0	0.0	0	0.0	1	1	1	0
2568	S6	2019	4	17	24	0	0	0	0	0	0	0	0.0	0	0.0	1	1	1	0
2569	S6	2019	4	18	1	0	0	0	0	0	0	0	0.0	0	0.0	1	1	1	0
2570	S6	2019	4	18	2	0	0	0	0	0	0	0	0.0	0	0.0	1	1	1	0
2571	S6	2019	4	18	3	0	0	0	0	0	0	0	0.0	0	0.0	1	1	1	0
2572	S6	2019	4	18	4	0	0	0	0	0	0	0	0.0	0	0.0	1	1	1	0
2573	S6	2019	4	18	5	0	0	0	0	0	0	0.1666666745829079865348631983579252846539020538330078125	0.0	20.565108784163900423891391255892813205718994140625	0.0	1	1	1	0
2574	S6	2019	4	18	6	51.1581084704478001867755665443837642669677734375	352.529705613950000042677856981754302978515625	19.883811155426901251530580339021980762481689453125	4.48671093335579040939364858786575496196746826171875	76.0069762828737935933531844057142734527587890625	1.7677740769528800246490618519601412117481231689453125	15.0833334385726995918730608536861836910247802734375	0.0	640.483250220617946979473344981670379638671875	0.0	1	1	1	0
2575	S6	2019	4	18	7	173.421462122598995847511105239391326904296875	660.3315104166659921247628517448902130126953125	37.53666846487249841857192222960293292999267578125	6.527500013510380227899076999165117740631103515625	70.8680555343627958109209430404007434844970703125	1.8336111032300499434910534546361304819583892822265625	91.4166667498642055988966603763401508331298828125	0.0	2991.67566994825983783812262117862701416015625	0.0	1	1	1	1
2576	S6	2019	4	18	8	325.8424660576710039094905368983745574951171875	813.335591464571962205809541046619415283203125	48.29292346106630162694273167289793491363525390625	9.8044444309340494925208986387588083744049072265625	60.25499959521820159125127247534692287445068359375	2.283888884716560152554620799492113292217254638671875	313.41666728258297780485008843243122100830078125	0.0	8567.228068908070781617425382137298583984375	0.0	1	1	1	1
2577	S6	2019	4	18	9	477.160142347546980090555734932422637939453125	891.0745969984260455021285451948642730712890625	58.932663419511499114378239028155803680419921875	12.3986111402511003376503140316344797611236572265625	48.3611112064784975927977939136326313018798828125	2.372222211791399804070579193648882210254669189453125	528.66667012373500256217084825038909912109375	0.0	14676.709572474099331884644925594329833984375	0.0	1	1	1	1
2578	S6	2019	4	18	10	605.1891652425130132542108185589313507080078125	932.9486587524410197147517465054988861083984375	66.8496145248413000672371708787977695465087890625	13.966111058658999155568380956538021564483642578125	41.80416689978699906760084559209644794464111328125	2.704444439378039799493080863612703979015350341796875	723.4999934832250119143282063305377960205078125	0.0	19468.4646526971991988830268383026123046875	0.0	1	1	1	1
2579	S6	2019	4	18	11	695.2899407280809782605501823127269744873046875	946.4169260660800091500277630984783172607421875	74.70474675496410554842441342771053314208984375	14.92638883855600084871184662915766239166259765625	36.03611120647850185605420847423374652862548828125	2.729166662693020217744788169511593878269195556640625	872.583339611687961223651655018329620361328125	0.0	22619.1713015237983199767768383026123046875	0.0	1	1	1	1
2580	S6	2019	4	18	12	748.8251259697799468995071947574615478515625	959.6785129123260276173823513090610504150390625	77.2965337965222971661205519922077655792236328125	15.753055524825999356153261032886803150177001953125	32.43083333969109816052878159098327159881591796875	2.217777773655119855078510227031074464321136474609375	970.5833295981100263816188089549541473388671875	0.0	24285.12593110400121076963841915130615234375	0.0	1	1	1	1
2581	S6	2019	4	18	13	751.9157819959849575752741657197475433349609375	947.7515530056419947868562303483486175537109375	82.224704254998101760065765120089054107666015625	16.246388912200899312665569595992565155029296875	32.4833332803514025499680428765714168548583984375	2.283333331925999853950770557275973260402679443359375	990.5833303928360464851721189916133880615234375	0.0	24414.520899454699247144162654876708984375	0.0	1	1	1	1
2582	S6	2019	4	18	14	710.82102881537502980791032314300537109375	927.0821563720700169142219237983226776123046875	85.4015203264024052032254985533654689788818359375	16.945833290947799554260200238786637783050537109375	32.10499994489880037917828303761780261993408203125	2.384166661898289962806529729277826845645904541015625	939.583331346510021830908954143524169921875	0.0	23132.5358947118002106435596942901611328125	0.0	1	1	1	1
2583	S6	2019	4	18	15	627.08933088514504561317153275012969970703125	894.2160773383239984468673355877399444580078125	84.467694197760692986776120960712432861328125	17.5686111238266988721079542301595211029052734375	32.570833333333297332501388154923915863037109375	2.49638888777958012354929451248608529567718505859375	819.7500010331469866287079639732837677001953125	0.0	20494.95848019910044968128204345703125	0.0	1	1	1	1
2584	S6	2019	4	18	16	510.37239651150099462029174901545047760009765625	843.71578335232197787263430655002593994140625	81.467531098259797772698220796883106231689453125	17.700833304723101235822468879632651805877685546875	34.56583333545260217078975983895361423492431640625	2.347222215185559957006944387103430926799774169921875	656.749998529752019749139435589313507080078125	0.0	16362.628320852900287718512117862701416015625	0.0	1	1	1	1
2585	S6	2019	4	18	17	367.04584316677500055448035709559917449951171875	756.1716556125210217942367307841777801513671875	73.4706154081555951051996089518070220947265625	17.06999991205000100080724223516881465911865234375	39.473055669996398364673950709402561187744140625	2.420555554744269866063177687465213239192962646484375	453.58332991599900196888484060764312744140625	0.0	10986.63393656409971299581229686737060546875	0.0	1	1	1	1
2586	S6	2019	4	18	18	216.051919555663999972239253111183643341064453125	617.6329508463539923468488268554210662841796875	59.09420653449159743786367471329867839813232421875	15.8030557367536008683828185894526541233062744140625	45.99666652679439948769868351519107818603515625	1.8591666672792699355198919874965213239192962646484375	239.91666485865999902671319432556629180908203125	0.0	5217.3246194919001936796121299266815185546875	0.0	1	1	1	1
2587	S6	2019	4	18	19	76.9656244807772935700995731167495250701904296875	345.12560615539501895909779705107212066650390625	33.932928509182403331578825600445270538330078125	13.944999988873799878774661920033395290374755859375	52.60472238328720351319134351797401905059814453125	1.1061111117402699921541397998225875198841094970703125	60.08333317004149876083829440176486968994140625	0.0	1288.52969780563989843358285725116729736328125	0.0	1	1	1	1
2588	S6	2019	4	18	20	13.024074779106999955047285766340792179107666015625	48.1386988598566034625036991201341152191162109375	11.3094298518621005911199972615577280521392822265625	12.4798076794696992664057688671164214611053466796875	57.621153794802097536376095376908779144287109375	0.92403846320051397089656575190019793808460235595703125	0.74999999681798301676138862603693269193172454833984375	0.0	98.6050825643663984010345302522182464599609375	0.0	1	1	1	0
2589	S6	2019	4	18	21	0	0	0	0	0	0	0	0.0	0	0.0	1	1	1	0
2590	S6	2019	4	18	22	0	0	0	0	0	0	0	0.0	0	0.0	1	1	1	0
2591	S6	2019	4	18	23	0	0	0	0	0	0	0	0.0	0	0.0	1	1	1	0
2592	S6	2019	4	18	24	0	0	0	0	0	0	0	0.0	0	0.0	1	1	1	0
2593	S6	2019	4	19	1	0	0	0	0	0	0	0	0.0	0	0.0	1	1	1	0
2594	S6	2019	4	19	2	0	0	0	0	0	0	0	0.0	0	0.0	1	1	1	0
2595	S6	2019	4	19	3	0	0	0	0	0	0	0	0.0	0	0.0	1	1	1	0
2596	S6	2019	4	19	4	0	0	0	0	0	0	0	0.0	0	0.0	1	1	1	0
2597	S6	2019	4	19	5	0	0	0	0	0	0	0.333333339464541023033916644635610282421112060546875	0.0	22.5216501081983011545162298716604709625244140625	0.0	1	1	1	0
2598	S6	2019	4	19	6	50.4667145894920992077459231950342655181884765625	311.68946444766100967171951197087764739990234375	22.290598941885900075021709199063479900360107421875	4.13385092027438982853482229984365403652191162109375	74.2661483480323028061320655979216098785400390625	1.089751555682699990512674048659391701221466064453125	16.666666720993699613018179661594331264495849609375	0.0	720.3667378053060019738040864467620849609375	0.0	1	1	1	0
2599	S6	2019	4	19	7	172.818886481390990184081601910293102264404296875	601.325030008950989213190041482448577880859375	46.0927740732827970759899471886456012725830078125	5.8277777764532299187294483999721705913543701171875	71.282777871025899685264448635280132293701171875	1.2916666664183100721174923819489777088165283203125	95.1666667436557958126286393962800502777099609375	0.0	3098.48994264999009828898124396800994873046875	0.0	1	1	1	1
2600	S6	2019	4	19	8	324.41316452026302386002498678863048553466796875	753.7116377088749459289829246699810028076171875	63.433727826012500372598879039287567138671875	8.8050000283453204730221841600723564624786376953125	62.50555532243510015177889727056026458740234375	1.784166661401580089574281373643316328525543212890625	309.3333318829539848593412898480892181396484375	0.0	8561.11042698224991909228265285491943359375	0.0	1	1	1	1
2601	S6	2019	4	19	9	470.5296059502489924852852709591388702392578125	830.64021131727395186317153275012969970703125	76.389266861809602460198220796883106231689453125	11.842222166061400656644764239899814128875732421875	48.29666674931839764894903055392205715179443359375	2.059166661732720005062446944066323339939117431640625	515.6666636466969748653355054557323455810546875	0.0	14276.98055903110071085393428802490234375	0.0	1	1	1	1
2602	S6	2019	4	19	10	593.8092219034830350210540927946567535400390625	871.8097573174369472326361574232578277587890625	86.4607048882377995369097334332764148712158203125	13.6505555603238999395898645161651074886322021484375	40.55222220950650324766684207133948802947998046875	1.6280555524759801055978414296987466514110565185546875	701.7500003178910219503450207412242889404296875	0.0	18755.29285271960179670713841915130615234375	0.0	1	1	1	1
2603	S6	2019	4	19	11	684.3244937472869651173823513090610504150390625	896.74241553412502980791032314300537109375	92.239285299512999927173950709402561187744140625	14.9619445244470998801489258767105638980865478515625	38.02027760611640161414470640011131763458251953125	1.4741666665507600075812888462678529322147369384765625	849.4166682163860286891576834022998809814453125	0.0	21753.9397478102982859127223491668701171875	0.0	1	1	1	1
2604	S6	2019	4	19	12	737.41249542236300840158946812152862548828125	912.8611333211259761810651980340480804443359375	94.388745986090697215331601910293102264404296875	16.13166678746539872690846095792949199676513671875	34.22249977853559954610318527556955814361572265625	1.6252777736220000992517498161760158836841583251953125	947.91667163371994320186786353588104248046875	0.0	23677.29771137229909072630107402801513671875	0.0	1	1	1	1
2605	S6	2019	4	19	13	745.5446860419369841110892593860626220703125	916.6966534084740487742237746715545654296875	93.9489714940389006869736476801335811614990234375	16.723055611716301172009480069391429424285888671875	31.691388877232800069805307430215179920196533203125	1.443888890329330099149274246883578598499298095703125	975.6666670242949521707487292587757110595703125	0.0	23871.41795953109976835548877716064453125	0.0	1	1	1	1
2606	S6	2019	4	19	14	709.1450948079419731584494002163410186767578125	912.059962463378951724735088646411895751953125	90.2352811601426054721741820685565471649169921875	17.301666545867899316135662957094609737396240234375	30.65166670481360000621862127445638179779052734375	1.3791666666666599905255452540586702525615692138671875	930.0000071525570319863618351519107818603515625	0.0	22629.0885210037013166584074497222900390625	0.0	1	1	1	1
2607	S6	2019	4	19	15	631.705738152397998419473879039287567138671875	896.9955340915249735189718194305896759033203125	83.565579350789306545266299508512020111083984375	17.14166669845580059927669935859739780426025390625	30.795000076293899127222175593487918376922607421875	1.8313888848655699437273369767353869974613189697265625	819.8333382606509758261381648480892181396484375	0.0	20283.1441561380997882224619388580322265625	0.0	1	1	1	1
2608	S6	2019	4	19	16	516.875202094184032830526120960712432861328125	856.092178514267970967921428382396697998046875	76.97065781487350477618747390806674957275390625	17.1283334732055010363183100707828998565673828125	29.913333352406798582023839117027819156646728515625	1.6344444330367700057848878714139573276042938232421875	661.6666664679829636952490545809268951416015625	0.0	16384.7598433493985794484615325927734375	0.0	1	1	1	1
2609	S6	2019	4	19	17	376.6086046006939795915968716144561767578125	783.341104465059970607399009168148040771484375	68.3505573166740987289813347160816192626953125	16.959999974568599867552620708011090755462646484375	28.788333320617599753177273669280111789703369140625	1.7161111099852399686227499842061661183834075927734375	465.16666561365099141767132095992565155029296875	0.0	11168.01144679380013258196413516998291015625	0.0	1	1	1	1
2610	S6	2019	4	19	18	222.555127631293004242252209223806858062744140625	649.4592654758019989458261989057064056396484375	54.8996517287360035197707475163042545318603515625	16.456666755676199187519159750081598758697509765625	28.785000101725199073143812711350619792938232421875	1.4027777744664000625363087237928993999958038330078125	247.583334644634987853351049125194549560546875	0.0	5327.54614949226015596650540828704833984375	0.0	1	1	1	1
2611	S6	2019	4	19	19	84.1894656128353062740643508732318878173828125	405.8244720882839828846044838428497314453125	32.80079746246330074654906638897955417633056640625	14.7483333428699996403565819491632282733917236328125	37.63499965667720204010038287378847599029541015625	1.144444446100119971987396638724021613597869873046875	63.16666700877190265828176052309572696685791015625	0.0	1343.5737993568100137053988873958587646484375	0.0	1	1	1	1
2612	S6	2019	4	19	20	15.37710929107660007275626412592828273773193359375	74.9489286766052060784204513765871524810791015625	12.2162741394042004827724667848087847232818603515625	11.4151999740600000876611375133506953716278076171875	49.5456001586913998835370875895023345947265625	1.176000000238409892716617832775227725505828857421875	1.0000000280948999620278527800110168755054473876953125	0.0	111.6901338100429939004243351519107818603515625	0.0	1	1	1	0
2613	S6	2019	4	19	21	0	0	0	0	0	0	0	0.0	0	0.0	1	1	1	0
2614	S6	2019	4	19	22	0	0	0	0	0	0	0	0.0	0	0.0	1	1	1	0
2615	S6	2019	4	19	23	0	0	0	0	0	0	0	0.0	0	0.0	1	1	1	0
2616	S6	2019	4	19	24	0	0	0	0	0	0	0	0.0	0	0.0	1	1	1	0
2617	S6	2019	4	20	1	0	0	0	0	0	0	0	0.0	0	0.0	1	1	1	0
2618	S6	2019	4	20	2	0	0	0	0	0	0	0	0.0	0	0.0	1	1	1	0
2619	S6	2019	4	20	3	0	0	0	0	0	0	0	0.0	0	0.0	1	1	1	0
2620	S6	2019	4	20	4	0	0	0	0	0	0	0	0.0	0	0.0	1	1	1	0
2621	S6	2019	4	20	5	0	0	0	0	0	0	0.1666666745829079865348631983579252846539020538330078125	0.0	16.6801834323755002742473152466118335723876953125	0.0	1	1	1	0
2622	S6	2019	4	20	6	42.56559994873720143004902638494968414306640625	138.103375305604998857234022580087184906005859375	28.283562720960798486657949979417026042938232421875	5.39968153929253968925650042365305125713348388671875	84.9585990905761008207264239899814128875732421875	0.4789808966741440077186098278616555035114288330078125	18.499999695147099743053331621922552585601806640625	0.0	687.7810141692590377715532667934894561767578125	0.0	1	1	1	1
2623	S6	2019	4	20	7	128.747865210638991584346513263881206512451171875	218.098528491125989603460766375064849853515625	79.951410335964595788027509115636348724365234375	6.4983333508173597437007629196159541606903076171875	81.3333333333333001746723311953246593475341796875	0.57222222545080703159925405998365022242069244384765625	90.58333312471739873217302374541759490966796875	0.0	2826.38771583635980277904309332370758056640625	0.0	1	1	1	1
2624	S6	2019	4	20	8	322.6535664876299733805353753268718719482421875	654.190101199679020282928831875324249267578125	92.573249986436593417238327674567699432373046875	9.9633333365122407343505983590148389339447021484375	65.58333314259840562954195775091648101806640625	0.81694444740811900107502196988207288086414337158203125	299.08333346247701456377399154007434844970703125	0.0	8511.8899643421100336126983165740966796875	0.0	1	1	1	1
2625	S6	2019	4	20	9	407.25310406155000464423210360109806060791015625	609.1745562235510078608058393001556396484375	114.7621343612670017364507657475769519805908203125	12.4166667143502991166315041482448577880859375	56.15500011444090233680981327779591083526611328125	0.51611111404167198113412950988276861608028411865234375	439.25000727176501413850928656756877899169921875	0.0	12267.23774274179959320463240146636962890625	0.0	1	1	1	1
2626	S6	2019	4	20	10	608.4787994384760168031789362430572509765625	868.3707102457680093721137382090091705322265625	98.3314076105752974399365484714508056640625	15.051666641235300403423025272786617279052734375	50.74333330790199880766522255726158618927001953125	0.59833333657847498354698245748295448720455169677734375	717.6666508118299816487706266343593597412109375	0.0	19171.2365945179990376345813274383544921875	0.0	1	1	1	1
2627	S6	2019	4	20	11	686.8563346015080242068506777286529541015625	889.8031475490989805621211417019367218017578125	95.48739075130879427888430655002593994140625	16.706666660308801652945476234890520572662353515625	40.14499975840249845759899471886456012725830078125	0.567777781850760998594296324881725013256072998046875	851.333335042000044268206693232059478759765625	0.0	21812.7626180648003355599939823150634765625	0.0	1	1	1	1
2628	S6	2019	4	20	12	732.6738078647180145708261989057064056396484375	878.1603027343750227373675443232059478759765625	110.759453773497995143770822323858737945556640625	18.269999917348201279310160316526889801025390625	37.808333142598399945200071670114994049072265625	0.59944444845120103959601465248852036893367767333984375	933.0000082651839647951419465243816375732421875	0.0	23132.10374116889943252317607402801513671875	0.0	1	1	1	1
2629	S6	2019	4	20	13	752.7948471069330480531789362430572509765625	915.7013371785479876052704639732837677001953125	98.6951070785521977768439683131873607635498046875	19.013333384195899355972869670949876308441162109375	36.41333338419590148760107695125043392181396484375	0.68111111397544499279632645993842743337154388427734375	989.33333158492996517452411353588104248046875	0.0	24039.57609335580127662979066371917724609375	0.0	1	1	1	1
2630	S6	2019	4	20	14	694.7866376241039461092441342771053314208984375	877.1076246473520541258039884269237518310546875	96.5326228883531030078302137553691864013671875	19.3350000381469016019764239899814128875732421875	33.06333319346109789194088079966604709625244140625	0.67083333515458598572678283744608052074909210205078125	912.083342671395030265557579696178436279296875	0.0	22136.0210577647012542001903057098388671875	0.0	1	1	1	1
2631	S6	2019	4	20	15	627.478565300835043672122992575168609619140625	868.4252376980249437110614962875843048095703125	94.1789934158324939517115126363933086395263671875	19.176666768391900319556953036226332187652587890625	34.59666665395099727220440399833023548126220703125	0.93222222361299700299497317246277816593647003173828125	814.9166703224169623354100622236728668212890625	0.0	20179.13544178010124596767127513885498046875	0.0	1	1	1	1
2632	S6	2019	4	20	16	512.8713166978619710789644159376621246337890625	820.643986511229968527914024889469146728515625	88.4018998887803064690160681493580341339111328125	18.001666927337598878011704073287546634674072265625	34.8450000127156016560547868721187114715576171875	2.10666666759385012852590080001391470432281494140625	650.4166722297669593899627216160297393798828125	0.0	16273.70770772290052263997495174407958984375	0.0	1	1	1	1
2633	S6	2019	4	20	17	377.88256022135402645290014334022998809814453125	768.0447397867829977258224971592426300048828125	73.03594601949049547329195775091648101806640625	17.809999974568601288638092228211462497711181640625	36.5333333969116011985533987171947956085205078125	1.4575000006291600751495707299909554421901702880859375	461.58333371082898111126269213855266571044921875	0.0	11199.135104815099111874587833881378173828125	0.0	1	1	1	1
2634	S6	2019	4	20	18	223.8283324347600000692182220518589019775390625	635.461368306476970246876589953899383544921875	56.9976289325289968701326870359480381011962890625	16.563333320617598332091802149079740047454833984375	42.66999982198070284766799886710941791534423828125	1.335833332687609953381979721598327159881591796875	244.74999556938701061881147325038909912109375	0.0	5362.3416672150297017651610076427459716796875	0.0	1	1	1	1
2635	S6	2019	4	20	19	87.6216567251417046691130963154137134552001953125	406.24473275078599954213132150471210479736328125	34.54153086344400236384899471886456012725830078125	15.1733333746591991797458831570111215114593505859375	43.7416667938231995549358543939888477325439453125	1.2105555559198000192822064491338096559047698974609375	68.8333343714478047559168771840631961822509765625	0.0	1423.722310612590035816538147628307342529296875	0.0	1	1	1	1
2636	S6	2019	4	20	20	16.537718847393900745146311237476766109466552734375	95.6497130990027955022014793939888477325439453125	12.4401726648210999570665080682374536991119384765625	14.22109374403949999532414949499070644378662109375	42.87187528610220255131935118697583675384521484375	0.76328125176951200359098947956226766109466552734375	1.5833333794337900446436151469242759048938751220703125	0.0	127.605442112931001474862569011747837066650390625	0.0	1	1	1	0
2637	S6	2019	4	20	21	0	0	0	0	0	0	0	0.0	0	0.0	1	1	1	0
2638	S6	2019	4	20	22	0	0	0	0	0	0	0	0.0	0	0.0	1	1	1	0
2639	S6	2019	4	20	23	0	0	0	0	0	0	0	0.0	0	0.0	1	1	1	0
2640	S6	2019	4	20	24	0	0	0	0	0	0	0	0.0	0	0.0	1	1	1	0
2641	S6	2019	4	21	1	0	0	0	0	0	0	0	0.0	0	0.0	1	1	1	0
2642	S6	2019	4	21	2	0	0	0	0	0	0	0	0.0	0	0.0	1	1	1	0
2643	S6	2019	4	21	3	0	0	0	0	0	0	0	0.0	0	0.0	1	1	1	0
2644	S6	2019	4	21	4	0	0	0	0	0	0	0	0.0	0	0.0	1	1	1	0
2645	S6	2019	4	21	5	0	0	0	0	0	0	0.833333343810715998500882051303051412105560302734375	0.0	54.3116255042453985879546962678432464599609375	0.0	1	1	1	0
2646	S6	2019	4	21	6	50.173859168182701750993146561086177825927734375	252.21409094977099130119313485920429229736328125	24.418797834353000553164747543632984161376953125	6.851988631215959912879043258726596832275390625	68.4363636103543058197828941047191619873046875	0.703125001269985006047136266715824604034423828125	19.750000055258301046023916569538414478302001953125	0.0	783.5766356438399498074431903660297393798828125	0.0	1	1	1	0
2647	S6	2019	4	21	7	182.607018555535006498757866211235523223876953125	606.2531156751839489515987224876880645751953125	48.85624344083989711862159310840070247650146484375	10.170000060399299712798892869614064693450927734375	61.1316665649413977234871708787977695465087890625	0.309722225533591022372803536200080998241901397705078125	102.5000006581339988542822538875043392181396484375	0.0	3327.7160252133899120963178575038909912109375	0.0	1	1	1	1
2648	S6	2019	4	21	8	336.6920163472490230560651980340480804443359375	772.7004645453549755984568037092685699462890625	61.06571540832519673358547152020037174224853515625	11.92166665395100011437534703873097896575927734375	57.07000007629390125885038287378847599029541015625	0.7811111139754449705918659674352966248989105224609375	315.83333636323499149511917494237422943115234375	0.0	8791.7274634043496917001903057098388671875	0.0	1	1	1	1
2649	S6	2019	4	21	9	486.2685394287100280052982270717620849609375	863.5648035685220520463190041482448577880859375	68.347372362348693286548950709402561187744140625	14.35000006357820012681258958764374256134033203125	45.28666623433429805345440399833023548126220703125	0.608333336313565009589865439920686185359954833984375	528.8333371281629524673917330801486968994140625	0.0	14541.871627171800355426967144012451171875	0.0	1	1	1	1
2650	S6	2019	4	21	10	610.408070543076973990537226200103759765625	902.0951165093309782605501823127269744873046875	77.864649857415002998095587827265262603759765625	17.153333282470700993371792719699442386627197265625	37.875000063578198705727118067443370819091796875	0.512222226543558978306691642501391470432281494140625	719.916671514509971530060283839702606201171875	0.0	18968.7656561533003696240484714508056640625	0.0	1	1	1	1
2651	S6	2019	4	21	11	702.6884667290579500331659801304340362548828125	928.96958075629299855791032314300537109375	81.425165579054095132960355840623378753662109375	18.69833332697550076773040927946567535400390625	35.7300001144408980735533987171947956085205078125	0.6063888919022339951681033198838122189044952392578125	871.333340803784039962920360267162322998046875	0.0	22188.8837814330981927923858165740966796875	0.0	1	1	1	1
2652	S6	2019	4	21	12	756.0276718139640479421359486877918243408203125	945.4756191677510059889755211770534515380859375	83.2573087268405060967779718339443206787109375	19.676666736602701490710387588478624820709228515625	30.663333225250198665889911353588104248046875	0.75166667029261502452897047987789846956729888916015625	969.8333293199530089623294770717620849609375	0.0	23829.111337661699508316814899444580078125	0.0	1	1	1	1
2653	S6	2019	4	21	13	761.3977315266920413705520331859588623046875	938.049862840440027866861782968044281005859375	87.609949027167402846316690556704998016357421875	19.51666669845580059927669935859739780426025390625	31.843333180745400312616766314022243022918701171875	1.1047222225202399936705432992312125861644744873046875	993.75000099340695669525302946567535400390625	0.0	24056.6524664559983648359775543212890625	0.0	1	1	1	1
2654	S6	2019	4	21	14	721.3628341674799457905464805662631988525390625	922.4025677151149693600018508732318878173828125	88.4036602867974039554610499180853366851806640625	18.878333314259801767320823273621499538421630859375	34.84500023523960265947607695125043392181396484375	1.3336111101011400847937693470157682895660400390625	943.333337704340010532177984714508056640625	0.0	23025.14970302579968119971454143524169921875	0.0	1	1	1	1
2655	S6	2019	4	21	15	644.565625169542045114212669432163238525390625	915.114774237737947260029613971710205078125	78.647686576843199190989253111183643341064453125	18.61833324432370062595509807579219341278076171875	35.3816664377848013600669219158589839935302734375	1.359444446116679916514158321660943329334259033203125	831.833332777023997550713829696178436279296875	0.0	20672.6499398548985482193529605865478515625	0.0	1	1	1	1
2656	S6	2019	4	21	16	530.4281645880799942460726015269756317138671875	878.398865593803975571063347160816192626953125	72.7075797186956975792782031930983066558837890625	18.3766667048136014273040927946567535400390625	34.609999910990296712043345905840396881103515625	1.359444443136450075826360261999070644378662109375	672.166665395099016677704639732837677001953125	0.0	16715.1762247084989212453365325927734375	0.0	1	1	1	1
2657	S6	2019	4	21	17	392.5061056349010186750092543661594390869140625	821.437337578666983972652815282344818115234375	62.5961947653027976912198937498033046722412109375	17.7616666793823014813824556767940521240234375	33.33666671117139657098960014991462230682373046875	1.8561111082633299229627255044761113822460174560546875	478.24999690055898327045724727213382720947265625	0.0	11533.554693063100785366259515285491943359375	0.0	1	1	1	1
2658	S6	2019	4	21	18	240.13656039767698757714242674410343170166015625	715.82128329806801048107445240020751953125	49.575890064239501953125	17.441666730244900662682994152419269084930419921875	32.65666650136309812069157487712800502777099609375	1.67388888605765995265528545132838189601898193359375	261.83332999547502595305559225380420684814453125	0.0	5688.0146513382796911173500120639801025390625	0.0	1	1	1	1
2659	S6	2019	4	21	19	97.6682862069871049470748403109610080718994140625	494.23834406534797381027601659297943115234375	31.8750960244071990246084169484674930572509765625	16.838333257039298729296206147409975528717041015625	36.9433330535888018175683100707828998565673828125	0.890000000761614007416255844873376190662384033203125	71.833333233370893822211655788123607635498046875	0.0	1495.97907376784996813512407243251800537109375	0.0	1	1	1	1
2660	S6	2019	4	21	20	20.369774306777600259010796435177326202392578125	160.56801353753900230003637261688709259033203125	13.153819661940900687113753519952297210693359375	15.55109498796669953435412026010453701019287109375	36.87299243899150269498932175338268280029296875	0.6927007338861479457392533731763251125812530517578125	1.0833333653863499446146079208119772374629974365234375	0.0	147.333009013283998456245171837508678436279296875	0.0	1	1	1	0
2661	S6	2019	4	21	21	0	0	0	0	0	0	0	0.0	0	0.0	1	1	1	0
2662	S6	2019	4	21	22	0	0	0	0	0	0	0	0.0	0	0.0	1	1	1	0
2663	S6	2019	4	21	23	0	0	0	0	0	0	0	0.0	0	0.0	1	1	1	0
2664	S6	2019	4	21	24	0	0	0	0	0	0	0	0.0	0	0.0	1	1	1	0
2665	S6	2019	4	22	1	0	0	0	0	0	0	0	0.0	0	0.0	1	1	1	0
2666	S6	2019	4	22	2	0	0	0	0	0	0	0	0.0	0	0.0	1	1	1	0
2667	S6	2019	4	22	3	0	0	0	0	0	0	0	0.0	0	0.0	1	1	1	0
2668	S6	2019	4	22	4	0	0	0	0	0	0	0	0.0	0	0.0	1	1	1	0
2669	S6	2019	4	22	5	6.62569750056546968863813162897713482379913330078125	1.3175782736609900069879586226306855678558349609375	6.892339902765609593870976823382079601287841796875	4.717647019554579657096837763674557209014892578125	78.017646789550695984871708787977695465087890625	1.394117632332970035946573261753655970096588134765625	0.74999999681798301676138862603693269193172454833984375	0.0	38.33312510202309653095653629861772060394287109375	0.0	1	1	1	0
2670	S6	2019	4	22	6	50.2556815079858978378979372791945934295654296875	218.719140946696001037707901559770107269287109375	27.1159197804609988224910921417176723480224609375	5.70566572210943956378059738199226558208465576171875	75.7124642434267940416248166002333164215087890625	1.1178470272517999628547613610862754285335540771484375	20.583333214744900629966650740243494510650634765625	0.0	821.218228588501006015576422214508056640625	0.0	1	1	1	1
2671	S6	2019	4	22	7	176.373439428540990547844558022916316986083984375	532.80700539482904787291772663593292236328125	55.4832115809121972915818332694470882415771484375	8.1416666905085204319902913994155824184417724609375	73.2649997711180986925683100707828998565673828125	2.338888887398769877989934684592299163341522216796875	103.1666652609900012294019688852131366729736328125	0.0	3276.15955223639002724667079746723175048828125	0.0	1	1	1	1
2672	S6	2019	4	22	8	326.96953353881798420843551866710186004638671875	706.0854427761499891857965849339962005615234375	70.7792758517795022044083452783524990081787109375	10.8333333810170007183160123531706631183624267578125	64.5133333841959029086865484714508056640625	2.887499999006580164717661318718455731868743896484375	307.083333532016013123211450874805450439453125	0.0	8492.291271686539403162896633148193359375	0.0	1	1	1	1
2673	S6	2019	4	22	9	475.87959221733899539685808122158050537109375	812.807270304361964008421637117862701416015625	77.0559382968477990516475983895361423492431640625	12.3750000317890993528635590337216854095458984375	56.3650001525877968333588796667754650115966796875	3.15777778161896005570952183916233479976654052734375	515.250002344449967495165765285491943359375	0.0	14332.08747704820052604191005229949951171875	0.0	1	1	1	1
2674	S6	2019	4	22	10	606.179165649414017025264911353588104248046875	885.5493767632369781495071947574615478515625	77.3156617058647981366448220796883106231689453125	13.19333337148029983154629007913172245025634765625	52.524999809265096928356797434389591217041015625	3.650277779002979894329428134369663894176483154296875	712.4166637659060370424413122236728668212890625	0.0	19247.9428052902003400959074497222900390625	0.0	1	1	1	1
2675	S6	2019	4	22	11	707.7464992947039945647702552378177642822265625	941.581295267739960763719864189624786376953125	72.9573758655124038341455161571502685546875	13.6833333333332998194009633152745664119720458984375	50.928333346048901830727118067443370819091796875	4.32888888683584038830076679005287587642669677734375	875.4166712363570468369289301335811614990234375	0.0	22951.21109485620036139152944087982177734375	0.0	1	1	1	1
2676	S6	2019	4	22	12	760.3167995876730174131807871162891387939453125	955.2087456597220125331659801304340362548828125	75.58794593811029471908113919198513031005859375	14.15333342552180084794599679298698902130126953125	48.4616668065389006869736476801335811614990234375	4.1727777658237297231380580342374742031097412109375	974.83333448568600942962802946567535400390625	0.0	24901.92552407570110517553985118865966796875	0.0	1	1	1	1
2677	S6	2019	4	22	13	769.5351838853620165536995045840740203857421875	963.38049774169894590158946812152862548828125	73.4319647471109959724344662390649318695068359375	14.3533333619435001793362971511669456958770751953125	41.3550001144408980735533987171947956085205078125	4.1113888930943200961110051139257848262786865234375	1007.3333332936100532606360502541065216064453125	0.0	25328.14578215279834694229066371917724609375	0.0	1	1	1	1
2678	S6	2019	4	22	14	729.8708833482529598768451251089572906494140625	953.1210313585060021068784408271312713623046875	71.7472327338324049605944310314953327178955078125	14.5816666444142004621653541107662022113800048828125	39.2883332570392980187534703873097896575927734375	3.6913888919684598732828817446716129779815673828125	956.58334096272801616578362882137298583984375	0.0	23934.16889508560052490793168544769287109375	0.0	1	1	1	1
2679	S6	2019	4	22	15	645.905541144476956105791032314300537109375	921.162402004664954802137799561023712158203125	72.2945278167724012519101961515843868255615234375	14.98333330154409992474029422737658023834228515625	40.94666646321609704273214447312057018280029296875	2.94111111081307985415378425386734306812286376953125	834.4166626532879718070034869015216827392578125	0.0	21025.3308216730001731775701045989990234375	0.0	1	1	1	1
2680	S6	2019	4	22	16	530.51101320054794996394775807857513427734375	880.2533669365769810610800050199031829833984375	68.41655036078549301237217150628566741943359375	15.0100000222524005977220440399833023548126220703125	43.94499994913729779000277630984783172607421875	3.2116666646467297852041156147606670856475830078125	673.1666624546049888522247783839702606201171875	0.0	16934.95883544280150090344250202178955078125	0.0	1	1	1	1
2681	S6	2019	4	22	17	393.02259487575901175659964792430400848388671875	820.572563171386036628973670303821563720703125	59.96019641028509994384876335971057415008544921875	15.1199999332427008624790687463246285915374755859375	44.928333282470703125	3.314166670540959813706649583764374256134033203125	481.41666501760397522957646287977695465087890625	0.0	11643.638412157699349336326122283935546875	0.0	1	1	1	1
2682	S6	2019	4	22	18	240.728203413220995798837975598871707916259765625	707.4998550415029967552982270717620849609375	49.39431494606859729401548975147306919097900390625	14.9049999872843006443190461141057312488555908203125	47.28499984741210226957264239899814128875732421875	3.178611108329560064333918489865027368068695068359375	265.583332628011021370184607803821563720703125	0.0	5716.7232036590503412298858165740966796875	0.0	1	1	1	1
2683	S6	2019	4	22	19	97.501271590548896028849412687122821807861328125	468.19557270698197726233047433197498321533203125	32.61512826478580251432504155673086643218994140625	14.29247910863499981815039063803851604461669921875	47.109192277063499432188109494745731353759765625	3.264902498977760192389041549176909029483795166015625	76.4166667746998058419194421730935573577880859375	0.0	1500.91598617533009019098244607448577880859375	0.0	1	1	1	1
2684	S6	2019	4	22	20	19.2293397821025990879206801764667034149169921875	129.540711531667994904637453146278858184814453125	13.0412559479841991816329027642495930194854736328125	12.7555555414270003211640869267284870147705078125	54.42962957311559790696264826692640781402587890625	2.4401234539202700801752143888734281063079833984375	3.33333334613899001652725928579457104206085205078125	0.0	161.614990366312014202776481397449970245361328125	0.0	1	1	1	0
2685	S6	2019	4	22	21	0	0	0	0	0	0	0	0.0	0	0.0	1	1	1	0
2686	S6	2019	4	22	22	0	0	0	0	0	0	0	0.0	0	0.0	1	1	1	0
2687	S6	2019	4	22	23	0	0	0	0	0	0	0	0.0	0	0.0	1	1	1	0
2688	S6	2019	4	22	24	0	0	0	0	0	0	0	0.0	0	0.0	1	1	1	0
2689	S6	2019	4	23	1	0	0	0	0	0	0	0	0.0	0	0.0	1	1	1	0
2690	S6	2019	4	23	2	0	0	0	0	0	0	0	0.0	0	0.0	1	1	1	0
2691	S6	2019	4	23	3	0	0	0	0	0	0	0	0.0	0	0.0	1	1	1	0
2692	S6	2019	4	23	4	0	0	0	0	0	0	0	0.0	0	0.0	1	1	1	0
2693	S6	2019	4	23	5	6.989435672760009765625	0.96811861522269904156701159081421792507171630859375	7.1659311959237701472602566354908049106597900390625	10.372727134011000771351973526179790496826171875	68.8727292147548979528437484987080097198486328125	2.93939392855673009563588493620045483112335205078125	0.833333343810715998500882051303051412105560302734375	0.0	50.365999729061996958989766426384449005126953125	0.0	1	1	1	0
2694	S6	2019	4	23	6	49.73737711906429836972165503539144992828369140625	206.57796512295800539504853077232837677001953125	26.95875678857159840617896406911313533782958984375	10.68833335240680071365204639732837677001953125	66.7999999999999971578290569595992565155029296875	2.588888881107170192308331024833023548126220703125	21.750000150253299580072052776813507080078125	0.0	837.123682101567055724444799125194549560546875	0.0	1	1	1	1
2695	S6	2019	4	23	7	176.65766006045799940693541429936885833740234375	510.2401256985129975873860530555248260498046875	59.13011995951330135312673519365489482879638671875	11.9616666316986002271960387588478624820709228515625	60.94999993642169755503346095792949199676513671875	3.89222222169239984168598311953246593475341796875	105.166665899256003058326314203441143035888671875	0.0	3242.61890103419000297435559332370758056640625	0.0	1	1	1	1
2696	S6	2019	4	23	8	333.37338214450397799737402237951755523681640625	706.6100257025819928458076901733875274658203125	75.0414222717285070984871708787977695465087890625	13.0783334096272003677086104289628565311431884765625	54.1083334604899022224344662390649318695068359375	4.55999999311235004739728537970222532749176025390625	312.58333226044800312592997215688228607177734375	0.0	8625.94179312388951075263321399688720703125	0.0	1	1	1	1
2697	S6	2019	4	23	9	486.443829176160988936317153275012969970703125	835.9945297241209800631622783839702606201171875	77.9777555041843015715130604803562164306640625	14.6116665840148005628407190670259296894073486328125	43.5416667302448985310547868721187114715576171875	4.84694444255695966461416901438497006893157958984375	529.833336671194047085009515285491943359375	0.0	14643.61218611389995203353464603424072265625	0.0	1	1	1	1
2698	S6	2019	4	23	10	613.9953691270610534047591499984264373779296875	882.2351236979160375994979403913021087646484375	87.0814975738525021142777404747903347015380859375	15.800000047683699477829577517695724964141845703125	36.1799997329710976146088796667754650115966796875	6.09277778334087027900523025891743600368499755859375	609.0833346048999601407558657228946685791015625	0.0	16687.8727873165989876724779605865478515625	0.0	1	1	1	1
2699	S6	2019	4	23	11	711.9953575981979838616098277270793914794921875	919.45045827229796486790291965007781982421875	90.2709041171602990516475983895361423492431640625	16.49500007629389841667943983338773250579833984375	32.1649998664855019114838796667754650115966796875	6.34111112058161996429817008902318775653839111328125	692.416662971176037899567745625972747802734375	0.0	18615.63054720560103305615484714508056640625	0.0	1	1	1	1
2700	S6	2019	4	23	12	766.389210679795951364212669432163238525390625	931.587259419758993317373096942901611328125	94.56578195359969640776398591697216033935546875	17	29.261666615803999746958652394823729991912841796875	6.7838888830608699009871997986920177936553955078125	760.08333265781402587890625	0.0	20029.3672084807985811494290828704833984375	0.0	1	1	1	1
2701	S6	2019	4	23	13	766.0696209377709919863264076411724090576171875	914.2283535427510514637106098234653472900390625	102.3583948771150033962840097956359386444091796875	17.22666676839190103009968879632651805877685546875	28.79833342234289972338956431485712528228759765625	7.04833332300186032881583741982467472553253173828125	778.6666651566820291918702423572540283203125	0.0	20257.47581322980113327503204345703125	0.0	1	1	1	1
2702	S6	2019	4	23	14	712.08679368760795114212669432163238525390625	858.021848212348004381055943667888641357421875	117.9778342564899986655291286297142505645751953125	17.655000273386601605807300074957311153411865234375	27.29666668574009946723890607245266437530517578125	7.17555555800595978865885626873932778835296630859375	737.416669726371992510394193232059478759765625	0.0	19000.53540865570175810717046260833740234375	0.0	1	1	1	1
2703	S6	2019	4	23	15	624.565430874293952001607976853847503662109375	799.5006520589189449310651980340480804443359375	124.8801593144730048834389890544116497039794921875	18.011666615803999746958652394823729991912841796875	26.78666664759310123145041870884597301483154296875	6.3819444368282898238931011292152106761932373046875	660.16667087872701813466846942901611328125	0.0	16858.03671677899910719133913516998291015625	0.0	1	1	1	1
2704	S6	2019	4	23	16	499.8492812262639972686883993446826934814453125	700.6997416178379580742330290377140045166015625	128.918552377487998228389187715947628021240234375	17.903333123524898695677620708011090755462646484375	28.371666622161800574986045830883085727691650390625	5.9747222239772401763957532239146530628204345703125	544.50000077485901783802546560764312744140625	0.0	13561.803579330400680191814899444580078125	0.0	1	1	1	1
2705	S6	2019	4	23	17	342.50285547044501299751573242247104644775390625	490.491817474365007001324556767940521240234375	138.633268313937008997527300380170345306396484375	17.60416659249190018954323022626340389251708984375	29.990555546018800470164933358319103717803955078125	5.32944444633192038196511930436827242374420166015625	380.000002682209014892578125	0.0	9113.976856072740702074952423572540283203125	0.0	1	1	1	1
2706	S6	2019	4	23	18	170.91261569129000008615548722445964813232421875	169.69872508578799852330121211707592010498046875	121.34917210472900706008658744394779205322265625	16.78722231123180108625092543661594390869140625	32.05138885709970253401479567401111125946044921875	5.606388887431879908262999379076063632965087890625	182.249998673796000048241694457828998565673828125	0.0	4299.51917628442970453761518001556396484375	0.0	1	1	1	1
2707	S6	2019	4	23	19	53.2563197877671967717105871997773647308349609375	10.932010032567699653327508713118731975555419921875	51.89746403164330246227109455503523349761962890625	15.6986111640930001698279738775454461574554443359375	35.11416665183170238151433295570313930511474609375	5.27694444225893999345089468988589942455291748046875	45.41666712611910128316594636999070644378662109375	0.0	1198.4987438966700210585258901119232177734375	0.0	1	1	1	1
2708	S6	2019	4	23	20	11.8550711539483000223071940126828849315643310546875	0.2129907514779789956538280648601357825100421905517578125	12.14156128360369990559775033034384250640869140625	14.8374193560691995941169807338155806064605712890625	38.5122577544181012854096479713916778564453125	4.6393548465544096615076341549865901470184326171875	3.333333365541580217694672683137468993663787841796875	0.0	128.561775665730010587139986455440521240234375	0.0	1	1	1	1
2709	S6	2019	4	23	21	0	0	0	0	0	0	0	0.0	0	0.0	1	1	1	0
2710	S6	2019	4	23	22	0	0	0	0	0	0	0	0.0	0	0.0	1	1	1	0
2711	S6	2019	4	23	23	0	0	0	0	0	0	0	0.0	0	0.0	1	1	1	0
2712	S6	2019	4	23	24	0	0	0	0	0	0	0	0.0	0	0.0	1	1	1	0
2713	S6	2019	4	24	1	0	0	0	0	0	0	0	0.0	0	0.0	1	1	1	0
2714	S6	2019	4	24	2	0	0	0	0	0	0	0	0.0	0	0.0	1	1	1	0
2715	S6	2019	4	24	3	0	0	0	0	0	0	0	0.0	0	0.0	1	1	1	0
2716	S6	2019	4	24	4	0	0	0	0	0	0	0	0.0	0	0.0	1	1	1	0
2717	S6	2019	4	24	5	5.3407524277766498244091053493320941925048828125	0.726376179605721983278954212437383830547332763671875	5.45554116368292962846453519887290894985198974609375	13.0625002384184991655047269887290894985198974609375	48.885416189829498989638523198664188385009765625	4.643750001986820308275127899833023548126220703125	0.8333333632132660095948040179791860282421112060546875	0.0	37.4924998419979971231441595591604709625244140625	0.0	1	1	1	0
2718	S6	2019	4	24	6	36.4149526556332006066440953873097896575927734375	29.20555398191009999209200032055377960205078125	33.70521802504850228388022514991462230682373046875	13.110277893808099491934626712463796138763427734375	48.9730557017855971935205161571502685546875	4.66694444451067003143407418974675238132476806640625	27.833333161349099071912860381416976451873779296875	0.0	846.508871143061014663544483482837677001953125	0.0	1	1	1	1
2719	S6	2019	4	24	7	77.1024900224472986565160681493580341339111328125	2.7461668778624801490195750375278294086456298828125	76.693973000844295029310160316526889801025390625	13.2002778265211002661771999555639922618865966796875	49.311388768090097300955676473677158355712890625	4.69083333644601996326173320994712412357330322265625	68.5000003625940934171012486331164836883544921875	0.0	1897.936825950939919493976049125194549560546875	0.0	1	1	1	1
2720	S6	2019	4	24	8	170.535901302761004671992850489914417266845703125	35.89621696803300210376619361340999603271484375	155.05702675713399685264448635280132293701171875	13.386111116409299626184292719699442386627197265625	49.60194447835279873970648623071610927581787109375	4.85805554687976037797625394887290894985198974609375	164.166666567324995185117586515843868255615234375	0.0	4699.1704404354095458984375	0.0	1	1	1	1
2721	S6	2019	4	24	9	417.423944521621024250634945929050445556640625	417.31126138391601898547378368675708770751953125	210.038917992819989422059734351933002471923828125	13.9352112837239996423477350617758929729461669921875	51.0763380023795008355591562576591968536376953125	4.689295765547679906148914596997201442718505859375	445.9166613717869722677278332412242889404296875	0.0	12502.320875724099096260033547878265380859375	0.0	1	1	1	1
2722	S6	2019	4	24	10	377.72617263793898700896534137427806854248046875	117.0629898083700055622102809138596057891845703125	307.364830271402979633421637117862701416015625	14.4152777883740998987605053116567432880401611328125	50.23027782440180288858755375258624553680419921875	4.40194444606701029698569982429035007953643798828125	375.1666657626630012600799091160297393798828125	0.0	10527.674009402600859175436198711395263671875	0.0	1	1	1	1
2723	S6	2019	4	24	11	570.0907571580670492039644159376621246337890625	235.7447144604390132371918298304080963134765625	402.4942690531410107723786495625972747802734375	14.89416665501060066389982239343225955963134765625	48.8330556869506011707926518283784389495849609375	5.0163888874981097387717454694211483001708984375	624.8333404461519648975809104740619659423828125	0.0	16935.19717454909914522431790828704833984375	0.0	1	1	1	1
2724	S6	2019	4	24	12	445.06652484469901764896349050104618072509765625	33.25968056975130338059898349456489086151123046875	414.74890306260800798554555512964725494384765625	14.6527777910231993274692285922355949878692626953125	50.0380553987290994655268150381743907928466796875	4.7883333345254204260754704591818153858184814453125	452.91666189829498989638523198664188385009765625	0.0	12429.201026757500585517846047878265380859375	0.0	1	1	1	1
2725	S6	2019	4	24	13	450.91054094102599947291309945285320281982421875	44.0956274081434997924588969908654689788818359375	414.130184173583984375	14.9397222095065007607672669109888374805450439453125	50.7619444105360031471718684770166873931884765625	4.69805555078718040107332853949628770351409912109375	466.6666636864330257594701834022998809814453125	0.0	12795.102238655099426978267729282379150390625	0.0	1	1	1	1
2726	S6	2019	4	24	14	450.0664907076110239358968101441860198974609375	109.6164643610890010450020781718194484710693359375	368.47150154006902766923303715884685516357421875	15.48179265297419959779290365986526012420654296875	51.88935569955520321627773228101432323455810546875	4.68907561956666985025776739348657429218292236328125	494.83333403865498212326201610267162322998046875	0.0	13184.116780757800370338372886180877685546875	0.0	1	1	1	1
2727	S6	2019	4	24	15	219.122969563802001857766299508512020111083984375	0.7396557509899139848386084850062616169452667236328125	218.497638914319992409218684770166873931884765625	15.3383330980935994602987193502485752105712890625	51.96527784135599858927889727056026458740234375	4.16333332889608964677563562872819602489471435546875	199.9999980131769916624762117862701416015625	0.0	5720.48922379810028360225260257720947265625	0.0	1	1	1	1
2728	S6	2019	4	24	16	293.1004547542989939756807871162891387939453125	40.26682469041809753207417088560760021209716796875	273.1485098520910241859382949769496917724609375	15.890555506282300513021255028434097766876220703125	53.70972226460769860523214447312057018280029296875	4.0127777803275304080443675047717988491058349609375	301.416664073864012607373297214508056640625	0.0	8175.131986538590354030020534992218017578125	0.0	1	1	1	1
2729	S6	2019	4	24	17	349.29239039950897449671174399554729461669921875	421.77974027792600963948643766343593597412109375	181.683033667670002841987297870218753814697265625	16.900833235846601354523954796604812145233154296875	51.75527803632940049283206462860107421875	4.95722222146059987579747030395083129405975341796875	396.416664123534019381622783839702606201171875	0.0	9728.07659705480909906327724456787109375	0.0	1	1	1	1
2730	S6	2019	4	24	18	212.066810735066013648975058458745479583740234375	406.004614427353999417391605675220489501953125	100.9721932729080009494282421655952930450439453125	17.036944585376300409507166477851569652557373046875	52.95472228791970081829276750795543193817138671875	4.2730555603901496652952118893153965473175048828125	224.000000705321014038418070413172245025634765625	0.0	5032.0473810036701252101920545101165771484375	0.0	1	1	1	1
2731	S6	2019	4	24	19	82.9454499668544968926653382368385791778564453125	198.712591383192005878299823962152004241943359375	54.16193225648660103388465358875691890716552734375	16.764999998940300685035253991372883319854736328125	54.639722326066703317337669432163238525390625	3.87194444206024979138192065875045955181121826171875	67.999999970198103937946143560111522674560546875	0.0	1532.0519519348899848409928381443023681640625	0.0	1	1	1	1
2732	S6	2019	4	24	20	20.652193552110201579807835514657199382781982421875	34.75537243376410145856425515376031398773193359375	19.502664481721200928632242721505463123321533203125	16.10548773044489934136436204425990581512451171875	56.00304871070670031940608168952167034149169921875	3.8701219489661600192675905418582260608673095703125	6.583333422895510267380814184434711933135986328125	0.0	215.754167448418996855252771638333797454833984375	0.0	1	1	1	0
2733	S6	2019	4	24	21	0	0	0	0	0	0	0	0.0	0	0.0	1	1	1	0
2734	S6	2019	4	24	22	0	0	0	0	0	0	0	0.0	0	0.0	1	1	1	0
2735	S6	2019	4	24	23	0	0	0	0	0	0	0	0.0	0	0.0	1	1	1	0
2736	S6	2019	4	24	24	0	0	0	0	0	0	0	0.0	0	0.0	1	1	1	0
2737	S6	2019	4	25	1	0	0	0	0	0	0	0	0.0	0	0.0	1	1	1	0
2738	S6	2019	4	25	2	0	0	0	0	0	0	0	0.0	0	0.0	1	1	1	0
2739	S6	2019	4	25	3	0	0	0	0	0	0	0	0.0	0	0.0	1	1	1	0
2740	S6	2019	4	25	4	0	0	0	0	0	0	0	0.0	0	0.0	1	1	1	0
2741	S6	2019	4	25	5	7.4814160476296596158363172435201704502105712890625	0.251033790535846013103338236760464496910572052001953125	7.79313106860143989251810126006603240966796875	11.393220238766399887708757887594401836395263671875	78.835594306557794652690063230693340301513671875	2.742372883578469977550184921710751950740814208984375	1.2500000399692499097881182024138979613780975341796875	0.0	44.57157446692399815901808324269950389862060546875	0.0	1	1	1	0
2742	S6	2019	4	25	6	48.407708674006897808794747106730937957763671875	85.5460701862557044705681619234383106231689453125	38.4256563451555024357730871997773647308349609375	11.39750009377790007647490710951387882232666015625	79.296111361185694477171637117862701416015625	2.235277774184940113855191157199442386627197265625	27.250000042840699876478538499213755130767822265625	0.0	911.163842926421011725324206054210662841796875	0.0	1	1	1	1
2743	S6	2019	4	25	7	168.317204793293996090142172761261463165283203125	323.22726431952497705424320884048938751220703125	90.316271326276904574115178547799587249755859375	12.9391666571299008836604116368107497692108154296875	75.447500122918000897698220796883106231689453125	2.878055554959499939826628178707323968410491943359375	114.0833341826990050549284205771982669830322265625	0.0	3428.3664623896102057187817990779876708984375	0.0	1	1	1	1
2744	S6	2019	4	25	8	234.765343137438009080142364837229251861572265625	242.817532703175999131417484022676944732666015625	149.2314510504839972782065160572528839111328125	13.1415041442700992746495103347115218639373779296875	75.20306396484369315658113919198513031005859375	2.631476313788910115221142405061982572078704833984375	204.08333217104001278130454011261463165283203125	0.0	5873.520220319400323205627501010894775390625	0.0	1	1	1	1
2745	S6	2019	4	25	9	174.29754305945499481822480447590351104736328125	31.47412065222030008726505911909043788909912109375	157.1092183007129960969905368983745574951171875	12.2972221374511008207264239899814128875732421875	78.379444461398605881186085753142833709716796875	1.820555549528859895502819199464283883571624755859375	170.08333342770600893345545046031475067138671875	0.0	4982.52937694389038369990885257720947265625	0.0	1	1	1	1
2746	S6	2019	4	25	10	579.226462046304959585540927946567535400390625	654.5866081237790012892219237983226776123046875	182.66166661580399477315950207412242889404296875	15.93722227944260083631888846866786479949951171875	68.46055530971949565355316735804080963134765625	1.35888889018031999711411117459647357463836669921875	646.5000038345659731930936686694622039794921875	0.0	17223.6851652463010395877063274383544921875	0.0	1	1	1	1
2747	S6	2019	4	25	11	631.48154322306299945921637117862701416015625	569.91219319237598028848879039287567138671875	237.6619522518579969982965849339962005615234375	18.272222137451098689098216709680855274200439453125	63.53111120859779958891522255726158618927001953125	1.284722219904260054335054519469849765300750732421875	757.5000052650749466920387931168079376220703125	0.0	19304.89768584569901577197015285491943359375	0.0	1	1	1	1
2748	S6	2019	4	25	12	661.1608779543920491050812415778636932373046875	490.23011889486002701232791878283023834228515625	301.21573761531197988006169907748699188232421875	19.860118956792899069796476396732032299041748046875	59.46636902718309869442236959002912044525146484375	0.81190476690729396214152302491129375994205474853515625	802.74999638398594470345415174961090087890625	0.0	19515.436907609298941679298877716064453125	0.0	1	1	1	1
2749	S6	2019	4	25	13	693.63648648747403058223426342010498046875	502.73383586831397451533121056854724884033203125	322.3364681312419861569651402533054351806640625	20.56676634485850030387155129574239253997802734375	58.25598796684580094051852938719093799591064453125	0.8416167693045319975198026440921239554882049560546875	828.4166728456840473882039077579975128173828125	0.0	20213.81266911820057430304586887359619140625	0.0	1	1	1	1
2750	S6	2019	4	25	14	564.5949531074039668965269811451435089111328125	437.45151633920301037505851127207279205322265625	258.48910206287797564073116518557071685791015625	20.97387381430500141732409247197210788726806640625	56.208708617064303325605578720569610595703125	1.0576576590538000477437208246556110680103302001953125	720.833336313565951058990322053432464599609375	0.0	16941.3285056749009527266025543212890625	0.0	1	1	1	1
2751	S6	2019	4	25	15	673.0148698594830420915968716144561767578125	891.0357937282980174131807871162891387939453125	107.72656614515500450579565949738025665283203125	21.34444430669140047029941342771053314208984375	49.799999851650596838226192630827426910400390625	2.322777777082389860652256174944341182708740234375	862.4999970197660559279029257595539093017578125	0.0	20661.1498594283984857611358165740966796875	0.0	1	1	1	1
2752	S6	2019	4	25	16	534.1209131876620404000277630984783172607421875	884.5703153822149715779232792556285858154296875	62.71704629262279695467441342771053314208984375	21.30666680865810036493712686933577060699462890625	42.52111117045080135312673519365489482879638671875	2.200277774863769852942141369567252695560455322265625	684.7500006357839765769313089549541473388671875	0.0	16351.521432399700643145479261875152587890625	0.0	1	1	1	1
2753	S6	2019	4	25	17	395.85699039035301893818541429936885833740234375	821.1837571885849911268451251089572906494140625	55.6880517005919983830608543939888477325439453125	21.171111149257999528572327108122408390045166015625	39.541111161973702792238327674567699432373046875	1.54777777757908996392188782920129597187042236328125	481.25000049670501311993575654923915863037109375	0.0	11254.401783148399772471748292446136474609375	0.0	1	1	1	1
2754	S6	2019	4	25	18	223.426198026869002433159039355814456939697265625	578.662606048583029405563138425350189208984375	56.31344298256760083631888846866786479949951171875	20.6177777608235004436210147105157375335693359375	40.508889219495898714740178547799587249755859375	1.075277778009569917827548124478198587894439697265625	241.41666789849699625847279094159603118896484375	0.0	5172.690525650979907368309795856475830078125	0.0	1	1	1	1
2755	S6	2019	4	25	19	86.8404692755805029946714057587087154388427734375	255.470402865939007597262389026582241058349609375	47.30885356267290120513280271552503108978271484375	17.74722222222219869536274927668273448944091796875	62.63388904995380102036506286822259426116943359375	1.478055556118480051708274913835339248180389404296875	64.499999706944294075583457015454769134521484375	0.0	1408.20033848284992927801795303821563720703125	0.0	1	1	1	1
2756	S6	2019	4	25	20	22.62018841383400058475672267377376556396484375	116.9388035231699944915817468427121639251708984375	17.188045684172099214492845931090414524078369140625	14.7020408377355007445430601364932954311370849609375	76.254081025415501926545402966439723968505859375	1.451530611940790027603043199633248150348663330078125	4.75000009949630008776466638664714992046356201171875	0.0	217.919056032160000313524506054818630218505859375	0.0	1	1	1	0
2757	S6	2019	4	25	21	0	0	0	0	0	0	0	0.0	0	0.0	1	1	1	0
2758	S6	2019	4	25	22	0	0	0	0	0	0	0	0.0	0	0.0	1	1	1	0
2759	S6	2019	4	25	23	0	0	0	0	0	0	0	0.0	0	0.0	1	1	1	0
2760	S6	2019	4	25	24	0	0	0	0	0	0	0	0.0	0	0.0	1	1	1	0
2761	S6	2019	4	26	1	0	0	0	0	0	0	0	0.0	0	0.0	1	1	1	0
2762	S6	2019	4	26	2	0	0	0	0	0	0	0	0.0	0	0.0	1	1	1	0
2763	S6	2019	4	26	3	0	0	0	0	0	0	0	0.0	0	0.0	1	1	1	0
2764	S6	2019	4	26	4	0	0	0	0	0	0	0	0.0	0	0.0	1	1	1	0
2765	S6	2019	4	26	5	11.4637886867965992365725469426251947879791259765625	5.8001128053942299089840162196196615695953369140625	11.499741010887600367595950956456363201141357421875	8.5906979649565897716456674970686435699462890625	93.7290695545284933132279547862708568572998046875	1.1674418601878799872650915858685038983821868896484375	2.41666671354323003839681405224837362766265869140625	0.0	102.15941700152899329623323865234851837158203125	0.0	1	1	1	0
2766	S6	2019	4	26	6	49.4814685185749993934223311953246593475341796875	15.7168929073545005081768977106548845767974853515625	47.84678210152519994835529359988868236541748046875	8.808333381017039442895111278630793094635009765625	93.57444500393330599763430655002593994140625	1.355277774565740056544882463640533387660980224609375	39.083333763604201749330968596041202545166015625	0.0	1198.67797754703997270553372800350189208984375	0.0	1	1	1	1
2767	S6	2019	4	26	7	131.49221967061299665147089399397373199462890625	37.8679121123418980232600006274878978729248046875	123.405516497294001965201459825038909912109375	9.9499999841054194149592149187810719013214111328125	91.4894437154134010370398755185306072235107421875	1.831944442954319907101989883813075721263885498046875	112.1666667362039930821993038989603519439697265625	0.0	3389.4715557495701432344503700733184814453125	0.0	1	1	1	1
2768	S6	2019	4	26	8	202.54291347927500055448035709559917449951171875	52.85779966380859917762791155837476253509521484375	183.00832879808200459592626430094242095947265625	11.5794445514677999398145402665250003337860107421875	87.1716663784450958019078825600445270538330078125	2.16472221646044005183284753002226352691650390625	187.33333299557199325136025436222553253173828125	0.0	5401.3898273308996067498810589313507080078125	0.0	1	1	1	1
2769	S6	2019	4	26	9	316.9467238532170085818506777286529541015625	119.393125355243000740301795303821563720703125	252.61170522901699087015003897249698638916015625	13.7322222391763997251246109954081475734710693359375	79.2233334859212021683561033569276332855224609375	1.898888882001239952757032369845546782016754150390625	319.416670749584000077447853982448577880859375	0.0	9090.775559345880537875927984714508056640625	0.0	1	1	1	1
2770	S6	2019	4	26	10	546.54227557712101770448498427867889404296875	562.4323341581549584589083679020404815673828125	194.8470286051430093721137382090091705322265625	16.928333383136301648619337356649339199066162109375	66.097222222222200116448220796883106231689453125	2.606111107269919902051924509578384459018707275390625	622.166665891804996135761030018329620361328125	0.0	16629.780491193101624958217144012451171875	0.0	1	1	1	1
2771	S6	2019	4	26	11	718.8428605821389965058187954127788543701171875	899.090890163844960625283420085906982421875	94.9379799736870069182259612716734409332275390625	20.337777667575398510280137998051941394805908203125	46.604999817742196910330676473677158355712890625	3.065277774797539933615553309209644794464111328125	873.833338419595975210540927946567535400390625	0.0	22114.67794577280074008740484714508056640625	0.0	1	1	1	1
2772	S6	2019	4	26	12	725.528604041204971508705057203769683837890625	803.3230150010849683894775807857513427734375	133.09187234242699560127221047878265380859375	21.9733332528007991868435055948793888092041015625	44.2011109458074997746734879910945892333984375	2.663611105415550017738723909133113920688629150390625	912.7500007549930387540371157228946685791015625	0.0	22461.2348874410017742775380611419677734375	0.0	1	1	1	1
2773	S6	2019	4	26	13	743.5343205769850101205520331859588623046875	807.3020224677189844442182220518589019775390625	144.195771662394008671981282532215118408203125	23.362222162882400056105325347743928432464599609375	39.42055553860129890608732239343225955963134765625	2.718055554810490104244991016457788646221160888671875	945.4166640837989916690276004374027252197265625	0.0	22842.95558929440085194073617458343505859375	0.0	1	1	1	1
2774	S6	2019	4	26	14	742.8295459323450131705612875521183013916015625	755.023870934380056496593169867992401123046875	206.91946962144601229738327674567699432373046875	23.583888795640699953537477995269000530242919921875	43.5955557293361977144741103984415531158447265625	2.48027777655256986832910115481354296207427978515625	928.5000016291979818561230786144733428955078125	0.0	22305.20705382019878015853464603424072265625	0.0	1	1	1	1
2775	S6	2019	4	26	15	619.14359910753000804106704890727996826171875	712.827308824327019465272314846515655517578125	161.25745502047999480055295862257480621337890625	23.88444431093000019927785615436732769012451171875	46.432222048441502693094662390649318695068359375	2.144166667924980007597923759021796286106109619140625	772.4166661500929649264435283839702606201171875	0.0	18796.67417208350161672569811344146728515625	0.0	1	1	1	1
2776	S6	2019	4	26	16	468.9460665808779822327778674662113189697265625	507.95202249420998441564734093844890594482421875	189.12868826124400811750092543661594390869140625	23.02722211413910002875127247534692287445068359375	50.20888881683340088102340814657509326934814453125	1.7330555535852900650439778473810292780399322509765625	551.750008016824040169012732803821563720703125	0.0	13714.363068342199767357669770717620849609375	0.0	1	1	1	1
2777	S6	2019	4	26	17	211.70552154803300481944461353123188018798828125	76.9752831206227057236901600845158100128173828125	178.5764034238439990076585672795772552490234375	19.50916917686129892217650194652378559112548828125	59.4776504647765023037209175527095794677734375	1.020343840976150051602644452941603958606719970703125	205.916668598850009175293962471187114715576171875	0.0	5482.678646842659873072989284992218017578125	0.0	1	1	1	1
2778	S6	2019	4	26	18	232.799307314553999503914383240044116973876953125	160.953207801447007341266726143658161163330078125	187.502517064411989622385590337216854095458984375	19.1516666624280986752637545578181743621826171875	56.6199999067518007223043241538107395172119140625	1.2350000000662200161372084039612673223018646240234375	227.16666633884000248144729994237422943115234375	0.0	5821.6431786616403769585303962230682373046875	0.0	1	1	1	1
2779	S6	2019	4	26	19	51.44043524926450317025228287093341350555419921875	4.98615307656196993235653280862607061862945556640625	50.81010790165060342360447975806891918182373046875	17.58711471878169874116792925633490085601806640625	64.5725490986799997017442365176975727081298828125	0.7756302547054130247516923191142268478870391845703125	41.666666977107496450116741470992565155029296875	0.0	1208.424150943749964426388032734394073486328125	0.0	1	1	1	1
2780	S6	2019	4	26	20	12.018165136425199790437545743770897388458251953125	0.1388447404255890027524600327524240128695964813232421875	12.1415886219265001244593804585747420787811279296875	16.7053398021215997459876234643161296844482421875	70.73300933837890625	0.87087378701538697978179470737813971936702728271484375	4.00000005417189985479353708797134459018707275390625	0.0	155.6882582372060142006375826895236968994140625	0.0	1	1	1	1
2781	S6	2019	4	26	21	0	0	0	0	0	0	0	0.0	0	0.0	1	1	1	0
2782	S6	2019	4	26	22	0	0	0	0	0	0	0	0.0	0	0.0	1	1	1	0
2783	S6	2019	4	26	23	0	0	0	0	0	0	0	0.0	0	0.0	1	1	1	0
2784	S6	2019	4	26	24	0	0	0	0	0	0	0	0.0	0	0.0	1	1	1	0
2785	S6	2019	4	27	1	0	0	0	0	0	0	0	0.0	0	0.0	1	1	1	0
2786	S6	2019	4	27	2	0	0	0	0	0	0	0	0.0	0	0.0	1	1	1	0
2787	S6	2019	4	27	3	0	0	0	0	0	0	0	0.0	0	0.0	1	1	1	0
2788	S6	2019	4	27	4	0	0	0	0	0	0	0	0.0	0	0.0	1	1	1	0
2789	S6	2019	4	27	5	0	0	0	0	0	0	0	0.0	0	0.0	1	1	1	0
2790	S6	2019	4	27	6	4.97672395367879971672664396464824676513671875	0.2315575590332009936478385725422413088381290435791015625	4.9307709972600601844305856502614915370941162109375	10.5662164043735007368240985670126974582672119140625	90.827026985787000512573285959661006927490234375	3.0628378431539200477118356502614915370941162109375	2.16666671137017008419434205279685556888580322265625	0.0	78.5980416694655019682613783515989780426025390625	0.0	1	1	1	1
2791	S6	2019	4	27	7	3.723615049490870188009239427628926932811737060546875	0.1849128721107859973926679231226444244384765625	3.774253577509549817392553450190462172031402587890625	10.1448763048689993837570000323466956615447998046875	92.8747402309958971500236657448112964630126953125	2.485211258203209983008719063946045935153961181640625	2.25000004866160008276665394078008830547332763671875	0.0	72.5299085024741003735471167601644992828369140625	0.0	1	1	1	1
2792	S6	2019	4	27	8	22.2165425413110000363303697668015956878662109375	0.2498842558576299943684517756992136128246784210205078125	22.34928953513669824815224274061620235443115234375	9.457522071568309485201098141260445117950439453125	95.0367969341491942714128526858985424041748046875	2.368047333327969905525378635502420365810394287109375	20.41666675359009985868397052399814128875732421875	0.0	613.0014620721350411258754320442676544189453125	0.0	1	1	1	1
2793	S6	2019	4	27	9	32.82889882193669706111904815770685672760009765625	0.290318456830248983191467004871810786426067352294921875	32.936251099904296779641299508512020111083984375	9.6775000651677398622041437192820012569427490234375	94.7724996566771977768439683131873607635498046875	2.442222218381029819056493579410016536712646484375	29.333333329608098694052387145347893238067626953125	0.0	890.0765236467110526064061559736728668212890625	0.0	1	1	1	1
2794	S6	2019	4	27	10	62.73292969597709856088840751908719539642333984375	0.35875353504800100434835030682734213769435882568359375	62.76017371283629842082518734969198703765869140625	9.68416672547657952918598311953246593475341796875	93.6866663614907935198061750270426273345947265625	2.33111111149190985969426037627272307872772216796875	57.7499996870756007183445035479962825775146484375	0.0	1755.9199978907900003832764923572540283203125	0.0	1	1	1	1
2795	S6	2019	4	27	11	101.1984476089470064152919803746044635772705078125	0.53913019903832004597887816998991183936595916748046875	101.042919879489005552386515773832798004150390625	9.9016666571299207788570129196159541606903076171875	91.2366667429605939787506940774619579315185546875	1.9797222212784799655338474622112698853015899658203125	95.2500011771916064162724069319665431976318359375	0.0	2903.5472298661798049579374492168426513671875	0.0	1	1	1	1
2796	S6	2019	4	27	12	216.067110449490002110906061716377735137939453125	0.8781380745527800346650337814935483038425445556640625	215.327666896299007248671841807663440704345703125	10.688022238962400223272197763435542583465576171875	87.106407229282694970606826245784759521484375	1.8760445674979899788326065390720032155513763427734375	206.66666577259701398361357860267162322998046875	0.0	6122.25614984833009657450020313262939453125	0.0	1	1	1	1
2797	S6	2019	4	27	13	682.035061815048948119510896503925323486328125	532.7095375445150011728401295840740203857421875	285.697314792208999278955161571502685546875	12.9966666857401005330530097126029431819915771484375	76.440000089009600969802704639732837677001953125	1.4586111099355700826407655767980031669139862060546875	827.16667155425102464505471289157867431640625	0.0	21308.76433849329987424425780773162841796875	0.0	1	1	1	1
2798	S6	2019	4	27	14	597.47367588096904000849463045597076416015625	478.51783244307597442457336001098155975341796875	251.393456601423991969568305648863315582275390625	14.5656337764901007147955169784836471080780029296875	66.2566197355027952653472311794757843017578125	0.78422535347266897343132541209342889487743377685546875	733.7500005960449698250158689916133880615234375	0.0	18553.46024036399830947630107402801513671875	0.0	1	1	1	1
2799	S6	2019	4	27	15	488.27279941687402242678217589855194091796875	292.99917150347397409859695471823215484619140625	291.0556183289940008762641809880733489990234375	15.1286517234330002423803307465277612209320068359375	60.26966307136449785275544854812324047088623046875	0.92191011282835100271171313579543493688106536865234375	555.083331962425972960772924125194549560546875	0.0	14404.1368265946002793498337268829345703125	0.0	1	1	1	1
2800	S6	2019	4	27	16	199.333526568942005496865021996200084686279296875	4.24487460810277017486669137724675238132476806640625	196.580862850612987813292420469224452972412109375	14.175000015894500648983012069948017597198486328125	62.802500025431299945921637117862701416015625	0.75277777893675701381681619750452227890491485595703125	183.25000007947301128297112882137298583984375	0.0	5572.5589096546100336126983165740966796875	0.0	1	1	1	1
2801	S6	2019	4	27	17	127.121813286675006793302600271999835968017578125	0.6270816157261529522060072849853895604610443115234375	127.0283726374299959616109845228493213653564453125	14.1316667079924993544182143523357808589935302734375	64.511667188008601669935160316526889801025390625	0.79166666799121399034078194745234213769435882568359375	113.0833346396670009426088654436171054840087890625	0.0	3465.0567124287199476384557783603668212890625	0.0	1	1	1	1
2802	S6	2019	4	27	18	133.770584742228010100006940774619579315185546875	25.223630287912101266556419432163238525390625	127.961537827385001264701713807880878448486328125	13.9166664600372005367034944356419146060943603515625	66.4708328882853010100006940774619579315185546875	1.187222221493720031304519579862244427204132080078125	128.250000377495013026418746449053287506103515625	0.0	3688.7879470983998544397763907909393310546875	0.0	1	1	1	1
2803	S6	2019	4	27	19	104.4007587750750047916881158016622066497802734375	93.841459785567394646932370960712432861328125	89.6759393480088959904605871997773647308349609375	13.179166626930200578726726234890520572662353515625	75.866666221618601184673025272786617279052734375	1.300833333863149920972546169650740921497344970703125	86.58333402127090039357426576316356658935546875	0.0	2428.73549213011983738397248089313507080078125	0.0	1	1	1	1
2804	S6	2019	4	27	20	26.832170503868898236987661221064627170562744140625	24.282955325493499998401603079400956630706787109375	25.738449582226198941725670010782778263092041015625	11.9657534638495999246288192807696759700775146484375	82.9438364734387931775927427224814891815185546875	0.72831050432435995301005959845497272908687591552734375	10.6666669986830005001365861971862614154815673828125	0.0	396.89115962634497236649622209370136260986328125	0.0	1	1	1	1
2805	S6	2019	4	27	21	0	0	0	0	0	0	0	0.0	0	0.0	1	1	1	0
2806	S6	2019	4	27	22	0	0	0	0	0	0	0	0.0	0	0.0	1	1	1	0
2807	S6	2019	4	27	23	0	0	0	0	0	0	0	0.0	0	0.0	1	1	1	0
2808	S6	2019	4	27	24	0	0	0	0	0	0	0	0.0	0	0.0	1	1	1	0
2809	S6	2019	4	28	1	0	0	0	0	0	0	0	0.0	0	0.0	1	1	1	0
2810	S6	2019	4	28	2	0	0	0	0	0	0	0	0.0	0	0.0	1	1	1	0
2811	S6	2019	4	28	3	0	0	0	0	0	0	0	0.0	0	0.0	1	1	1	0
2812	S6	2019	4	28	4	0	0	0	0	0	0	0	0.0	0	0.0	1	1	1	0
2813	S6	2019	4	28	5	3.2475131476247600659235104103572666645050048828125	0.272176844848168009161071267953957431018352508544921875	3.319080765182900183418723827344365417957305908203125	10.21216215958460082902092835865914821624755859375	90.051350361592000126620405353605747222900390625	0.640540544245693954650278101325966417789459228515625	0.58333335133890795720645883193355984985828399658203125	0.0	14.6283497257778005717909763916395604610443115234375	0.0	1	1	1	0
2814	S6	2019	4	28	6	31.38155338287349849224483477883040904998779296875	0.445914580949714978164166723217931576073169708251953125	31.6572415419987009954638779163360595703125	10.5588570976256992395292400033213198184967041015625	86.393142874581400292299804277718067169189453125	0.66828571532453795445150035448023118078708648681640625	29.083333754291000872171935043297708034515380859375	0.0	869.1920150692279776194482110440731048583984375	0.0	1	1	1	1
2815	S6	2019	4	28	7	87.58282511421799654272035695612430572509765625	0.71774065724751900940958648789091967046260833740234375	87.6447192202792990656234906055033206939697265625	10.967696583672800869635466369800269603729248046875	80.791292169120794142145314253866672515869140625	2.08230336780628011439375768532045185565948486328125	82.5833339865007047819744911976158618927001953125	0.0	2468.30360839763989133643917739391326904296875	0.0	1	1	1	1
2816	S6	2019	4	28	8	174.033622487385997601450071670114994049072265625	12.1689488758643005184012508834712207317352294921875	169.276218202378998967105871997773647308349609375	11.5833333333333001746723311953246593475341796875	80.76083316802970557546359486877918243408203125	2.032222218894289778035044946591369807720184326171875	159.16666636864300699016894213855266571044921875	0.0	4795.5640852451097089215181767940521240234375	0.0	1	1	1	1
2817	S6	2019	4	28	9	227.36404884315999197497148998081684112548828125	11.6824519173227994173203114769421517848968505859375	219.91386395675300491348025389015674591064453125	11.9296187907019994867141576833091676235198974609375	78.3539588905849058164676534943282604217529296875	2.451319647936519796616039457148872315883636474609375	216.08333413799499567176098935306072235107421875	0.0	6480.813264846799938823096454143524169921875	0.0	1	1	1	1
2818	S6	2019	4	28	10	483.88007036310597186457016505300998687744140625	239.96886486265799476313986815512180328369140625	329.882337725128991223755292594432830810546875	12.950420168601400661145817139185965061187744140625	74.953221040613499326354940421879291534423828125	2.18935573835666019704149221070110797882080078125	508.83333633343198698639753274619579315185546875	0.0	14476.4390786488002049736678600311279296875	0.0	1	1	1	1
2819	S6	2019	4	28	11	594.3190881959800435652141459286212921142578125	393.928024713047989280312322080135345458984375	318.4735955882559892415883950889110565185546875	13.8439528259906996510153476265259087085723876953125	71.9843656151694943901020451448857784271240234375	2.023893799402010085231040648068301379680633544921875	708.1666663289089456156943924725055694580078125	0.0	18797.6188460986013524234294891357421875	0.0	1	1	1	1
2820	S6	2019	4	28	12	404.48619233030098030212684534490108489990234375	34.1190730986813974823235184885561466217041015625	375.0429613337170167142176069319248199462890625	13.5854749306620004034584781038574874401092529296875	72.794413689128504074687953107059001922607421875	1.870111728430460029670712174265645444393157958984375	404.666664699713010122650302946567535400390625	0.0	11779.629091421700650244019925594329833984375	0.0	1	1	1	1
2821	S6	2019	4	28	13	684.4559651863670524107874371111392974853515625	377.3913426519440008632955141365528106689453125	402.03199832178898986967396922409534454345703125	15.5492997503413992177456748322583734989166259765625	68.230252113662800184101797640323638916015625	0.97254902141100796342243484104983508586883544921875	728.6666656533890318314661271870136260986328125	0.0	18717.08548068999880342744290828704833984375	0.0	1	1	1	1
2822	S6	2019	4	28	14	699.525025522242003717110492289066314697265625	449.14548897343598810039111413061618804931640625	376.7594595115269839880056679248809814453125	15.8773743666749993508346960879862308502197265625	67.44916236067609816018375568091869354248046875	0.84581005723116697847530076614930294454097747802734375	768.999998768171053598052822053432464599609375	0.0	19846.518913904801593162119388580322265625	0.0	1	1	1	1
2823	S6	2019	4	28	15	479.6393867853950041535426862537860870361328125	212.331041576636010859147063456475734710693359375	335.5590134304540015364182181656360626220703125	14.230083566522200300141776097007095813751220703125	73.321727104505697525382856838405132293701171875	1.7378830023130600324066108441911637783050537109375	505.8333327372860139803378842771053314208984375	0.0	13748.434295256900441017933189868927001953125	0.0	1	1	1	1
2824	S6	2019	4	28	16	444.03405030656898588858894072473049163818359375	249.115331293147988844793871976435184478759765625	314.03916684631502675983938388526439666748046875	13.9247910943202999334289415855892002582550048828125	74.3902510534089032034898991696536540985107421875	1.262674093827560017899713784572668373584747314453125	473.08333218097601502449833787977695465087890625	0.0	12728.264272212900323211215436458587646484375	0.0	1	1	1	1
2825	S6	2019	4	28	17	359.70033415880999427827191539108753204345703125	270.722220038190016566659323871135711669921875	237.403653621672987128476961515843868255615234375	14.889488583261300647109237615950405597686767578125	70.2553976665843009641321259550750255584716796875	0.84943182156844498909009644194156862795352935791015625	381.91666950782001777042751200497150421142578125	0.0	10125.0178615252007148228585720062255859375	0.0	1	1	1	1
2826	S6	2019	4	28	18	206.802933017078004240829613991081714630126953125	130.012402993655001637307577766478061676025390625	167.987958400523012869598460383713245391845703125	14.2789916351061005883593679754994809627532958984375	73.3403360703411948406937881372869014739990234375	0.85518207403124202325983560513122938573360443115234375	190.58333709836000480208895169198513031005859375	0.0	5132.2362919648803654126822948455810546875	0.0	1	1	1	1
2827	S6	2019	4	28	19	70.545568826463494360723416320979595184326171875	17.108844824362900993719449616037309169769287109375	67.934202946556894175955676473677158355712890625	12.82833336194349982406492927111685276031494140625	79.913333002726204767895978875458240509033203125	1.8925000011920900533368694595992565155029296875	58.7499998509886012243441655300557613372802734375	0.0	1696.341627587870107163325883448123931884765625	0.0	1	1	1	1
2828	S6	2019	4	28	20	14.572199490985699554812526912428438663482666015625	13.012090345046299688647195580415427684783935546875	13.9122113005391003781596737098880112171173095703125	12.237053492239500229743498493917286396026611328125	82.5531245640346043046520208008587360382080078125	1.2424107118110498948482245396007783710956573486328125	6.00000006185536971514693505014292895793914794921875	0.0	191.51348213199298697873018682003021240234375	0.0	1	1	1	1
2829	S6	2019	4	28	21	0	0	0	0	0	0	0	0.0	0	0.0	1	1	1	0
2830	S6	2019	4	28	22	0	0	0	0	0	0	0	0.0	0	0.0	1	1	1	0
2831	S6	2019	4	28	23	0	0	0	0	0	0	0	0.0	0	0.0	1	1	1	0
2832	S6	2019	4	28	24	0	0	0	0	0	0	0	0.0	0	0.0	1	1	1	0
2833	S6	2019	4	29	1	0	0	0	0	0	0	0	0.0	0	0.0	1	1	1	0
2834	S6	2019	4	29	2	0	0	0	0	0	0	0	0.0	0	0.0	1	1	1	0
2835	S6	2019	4	29	3	0	0	0	0	0	0	0	0.0	0	0.0	1	1	1	0
2836	S6	2019	4	29	4	0	0	0	0	0	0	0	0.0	0	0.0	1	1	1	0
2837	S6	2019	4	29	5	6.5456257733431701950621572905220091342926025390625	10.874232194414599206311322632245719432830810546875	6.24600449294754955786856953636743128299713134765625	10.692424311782300350159857771359384059906005859375	84.6136355544580993637282517738640308380126953125	1.7303030256069000802909840786014683544635772705078125	1.66666671672525001923759191413410007953643798828125	0.0	54.57649251911789889391002361662685871124267578125	0.0	1	1	1	0
2838	S6	2019	4	29	6	78.8353188912072937455377541482448577880859375	167.569221498236998968422994948923587799072265625	56.25291039148959981730513391084969043731689453125	10.4572222338782001571644286741502583026885986328125	79.7722221798367030487497686408460140228271484375	1.97527777469819998401590055436827242374420166015625	44.2500002682208020132748060859739780426025390625	0.0	1384.515373657139889473910443484783172607421875	0.0	1	1	1	1
2839	S6	2019	4	29	7	205.564793989392995854359469376504421234130859375	434.54835340711798608026583679020404815673828125	93.323594220479293426251388154923915863037109375	10.512777741749999904641299508512020111083984375	72.217777930365599559081601910293102264404296875	2.2791666615340400170452994643710553646087646484375	135.666667173306990434866747818887233734130859375	0.0	3047.62925704320014119730331003665924072265625	0.0	1	1	1	1
2840	S6	2019	4	29	8	350.9430719163680123529047705233097076416015625	628.094115193684046971611678600311279296875	103.13088974422799992680666036903858184814453125	11.7655555778079001782998602720908820629119873046875	63.4061110178628979383574915118515491485595703125	2.38250000079472012970427385880611836910247802734375	326.25000302990201817010529339313507080078125	0.0	7561.6718729337399054202251136302947998046875	0.0	1	1	1	1
2841	S6	2019	4	29	9	508.139148288302976652630604803562164306640625	785.26648237440304001211188733577728271484375	98.3780286153156993123047868721187114715576171875	13.461666695276800709279996226541697978973388671875	52.45333321889240352220440399833023548126220703125	2.47444444042112987602877183235250413417816162109375	542.91667540868002106435596942901611328125	0.0	13954.00222142530037672258913516998291015625	0.0	1	1	1	1
2842	S6	2019	4	29	10	647.27011600070500207948498427867889404296875	899.2760014851879759589792229235172271728515625	83.962166213989206653423025272786617279052734375	14.916666666666600349344662390649318695068359375	45.31055566999639694358847918920218944549560546875	2.573888881752880219977441811352036893367767333984375	749.08333023389104710076935589313507080078125	0.0	19412.833054860398988239467144012451171875	0.0	1	1	1	1
2843	S6	2019	4	29	11	746.6611840142139726594905368983745574951171875	952.7521004570850209347554482519626617431640625	76.5451080322264942878973670303821563720703125	15.77222223281859925236858543939888477325439453125	39.7483333163791030528955161571502685546875	2.456666664448039938406509463675320148468017578125	903.0833443005859635377419181168079376220703125	0.0	23166.254123051898204721510410308837890625	0.0	1	1	1	1
2844	S6	2019	4	29	12	794.933998277452019465272314846515655517578125	952.311849297416983972652815282344818115234375	87.4545114305283988187511567957699298858642578125	16.251666741900901769213305669836699962615966796875	38.08888876173229931509922607801854610443115234375	2.493333330170969919237222711672075092792510986328125	992.8333411614149781598825938999652862548828125	0.0	24767.2479550042990013025701045989990234375	0.0	1	1	1	1
2845	S6	2019	4	29	13	798.1295099894199438494979403913021087646484375	945.0316621568459822810837067663669586181640625	91.586265881856206760858185589313507080078125	16.911666658189499656828047591261565685272216796875	36.014999919467499012171174399554729461669921875	2.32694444060325000833699959912337362766265869140625	1015.5000140269700068529346026480197906494140625	0.0	24926.748991012500482611358165740966796875	0.0	1	1	1	1
2846	S6	2019	4	29	14	748.316968790689998058951459825038909912109375	896.8574590047199990294757299125194549560546875	103.8092405743060027134561096318066120147705078125	17.199444548288898459986739908345043659210205078125	39.70499996609149917503600590862333774566650390625	1.986944440172770054431339303846471011638641357421875	950.5000015099840311449952423572540283203125	0.0	22994.17217572529989411123096942901611328125	0.0	1	1	1	1
2847	S6	2019	4	29	15	665.6786671956380132542108185589313507080078125	865.141672939724003299488686025142669677734375	102.093920495774995060855871997773647308349609375	17.112222311231800375708189676515758037567138671875	47.04722228580050114032928831875324249267578125	2.20305555206206005181002183235250413417816162109375	838.2500062386189938479219563305377960205078125	0.0	20116.68980121610002242960035800933837890625	0.0	1	1	1	1
2848	S6	2019	4	29	16	553.45033365299104843870736658573150634765625	839.302519608643024184857495129108428955078125	89.065959369758303409980726428329944610595703125	16.90518717807029958066777908243238925933837890625	48.056772292519099210039712488651275634765625	2.12795388294914999960383283905684947967529296875	684.4166666269289862611913122236728668212890625	0.0	15906.95689121880059246905148029327392578125	0.0	1	1	1	1
2849	S6	2019	4	29	17	415.6659756130640062110614962875843048095703125	787.0822570800779658384271897375583648681640625	75.5289153628879006419083452783524990081787109375	16.611666509840201655379132716916501522064208984375	49.77611105177130212950942222960293292999267578125	2.0983333287967500524473507539369165897369384765625	485.1666589577989725512452423572540283203125	0.0	10088.93642822900073952041566371917724609375	0.0	1	1	1	1
2850	S6	2019	4	29	18	265.6063527001269903848879039287567138671875	682.023215569390004020533524453639984130859375	62.0070892122055994377660681493580341339111328125	15.9277780003016999899045913480222225189208984375	50.9050000084771028241448220796883106231689453125	1.8413888858424201089292182587087154388427734375	273.24999993045997825902304612100124359130859375	0.0	4153.001089890780349378474056720733642578125	0.0	1	1	1	1
2851	S6	2019	4	29	19	120.7178953700589971731460536830127239227294921875	478.6308249579529956463375128805637359619140625	42.55778026580809836332264239899814128875732421875	15.3311112191942005011924266000278294086456298828125	56.48999989827469647707403055392205715179443359375	1.2911111105647299357457313817576505243778228759765625	85.416666387269998494957690127193927764892578125	0.0	1665.371416757499900995753705501556396484375	0.0	1	1	1	1
2852	S6	2019	4	29	20	26.9326182420033006792436935938894748687744140625	143.432745257138009264963329769670963287353515625	18.975032440891300922203299705870449542999267578125	13.1647577495826997306949124322272837162017822265625	71.37136481196870363419293425977230072021484375	1.44977973263693993288825367926619946956634521484375	6.08333341854935039094698367989622056484222412109375	0.0	304.90546619209197842792491428554058074951171875	0.0	1	1	1	0
2853	S6	2019	4	29	21	0	0	0	0	0	0	0	0.0	0	0.0	1	1	1	0
2854	S6	2019	4	29	22	0	0	0	0	0	0	0	0.0	0	0.0	1	1	1	0
2855	S6	2019	4	29	23	0	0	0	0	0	0	0	0.0	0	0.0	1	1	1	0
2856	S6	2019	4	29	24	0	0	0	0	0	0	0	0.0	0	0.0	1	1	1	0
2857	S6	2019	4	30	1	0	0	0	0	0	0	0	0.0	0	0.0	1	1	1	0
2858	S6	2019	4	30	2	0	0	0	0	0	0	0	0.0	0	0.0	1	1	1	0
2859	S6	2019	4	30	3	0	0	0	0	0	0	0	0.0	0	0.0	1	1	1	0
2860	S6	2019	4	30	4	0	0	0	0	0	0	0	0.0	0	0.0	1	1	1	0
2861	S6	2019	4	30	5	15.7778401980965004014478836324997246265411376953125	29.21186171143740040179181960411369800567626953125	14.959185123443599962911321199499070644378662109375	7.45000004768370960306356209912337362766265869140625	90.4449153188930949909263290464878082275390625	0.09661017206765830367398706357562332414090633392333984375	4.250000027241160438506994978524744510650634765625	0.0	157.28985134046598659551818855106830596923828125	0.0	1	1	1	0
2862	S6	2019	4	30	6	66.782698652479297152240178547799587249755859375	165.20156114366301380869117565453052520751953125	44.9266133679283967694573220796883106231689453125	8.238333396116889417726270039565861225128173828125	89.9908335367837963758574915118515491485595703125	0.298888892349269019721447193660424090921878814697265625	33.66666675234839800623376504518091678619384765625	0.0	1185.877221946909912730916403234004974365234375	0.0	1	1	1	1
2863	S6	2019	4	30	7	194.1004089567389883086434565484523773193359375	409.07546488444000942763523198664188385009765625	87.4833197487725016117110499180853366851806640625	11.284999934832200096934684552252292633056640625	84.07749996185299323769868351519107818603515625	0.2441666703257290016448877167931641452014446258544921875	127.4166669075680005107642500661313533782958984375	0.0	2919.6443185210200681467540562152862548828125	0.0	1	1	1	1
2864	S6	2019	4	30	8	316.577396221375011009513400495052337646484375	443.35810265748597203128156252205371856689453125	142.7397784758150010020472109317779541015625	13.33455056019040085857341182418167591094970703125	76.198595947094105440555722452700138092041015625	0.407022474438285986053642773185856640338897705078125	291.16666441162300316136679612100124359130859375	0.0	6746.9094743331297650001943111419677734375	0.0	1	1	1	1
2865	S6	2019	4	30	9	384.9417129123099812204600311815738677978515625	214.782881723262988771239179186522960662841796875	275.7969557972550092017627321183681488037109375	14.7991404273789992629417611169628798961639404296875	69.0555875280866047205563518218696117401123046875	0.41977077671313300921696054501808248460292816162109375	370.41666607062001048689126037061214447021484375	0.0	9315.444002548849312006495893001556396484375	0.0	1	1	1	1
2866	S6	2019	4	30	10	250.645717267636001679420587606728076934814453125	5.379293799009399634769579279236495494842529296875	246.413139767116007305958191864192485809326171875	14.1774691740671006101592865888960659503936767578125	73.66512322131490009269327856600284576416015625	0.92561728498082096461274659304763190448284149169921875	230.66666970650300072520622052252292633056640625	0.0	5647.0452497402802691794931888580322265625	0.0	1	1	1	1
2867	S6	2019	4	30	11	472.09467866095297949868836440145969390869140625	164.02986313033198939592693932354450225830078125	351.15976326179998068255372345447540283203125	15.5590529269162001213544499478302896022796630859375	67.87855126001039707261952571570873260498046875	0.81810585029609994567323383307666517794132232666015625	502.08333258827502731946879066526889801025390625	0.0	12271.980027357700237189419567584991455078125	0.0	1	1	1	1
2868	S6	2019	4	30	12	508.57378486303701947690569795668125152587890625	204.2683644447710094027570448815822601318359375	353.249304635183989375946111977100372314453125	16.641860420125599517859882325865328311920166015625	63.3332225761540001940375077538192272186279296875	1.39435216041893994542988366447389125823974609375	498.4999982019249955556006170809268951416015625	0.0	12278.0866374571996857412159442901611328125	0.0	1	1	1	1
2869	S6	2019	4	30	13	706.668254697942984421388246119022369384765625	445.4945317940899940367671661078929901123046875	366.27078242660201112812501378357410430908203125	18.0375722708729000487437588162720203399658203125	56.93988456064560210734271095134317874908447265625	2.002890172893600162495886252145282924175262451171875	860.833331942548966253525577485561370849609375	0.0	20384.3785127004011883400380611419677734375	0.0	1	1	1	1
2870	S6	2019	4	30	14	299.5010245853000014903955161571502685546875	8.0540710999319902185789032955653965473175048828125	291.5886725955530209830612875521183013916015625	18.184166622161800574986045830883085727691650390625	55.83000001907340248408218030817806720733642578125	1.6991666637361000358197316018049605190753936767578125	280.416668703159984943340532481670379638671875	0.0	6801.03851358093015733174979686737060546875	0.0	1	1	1	1
2871	S6	2019	4	30	15	215.456559838189008360131992958486080169677734375	1.0008821928666600253876595161273144185543060302734375	214.854588529798007812132709659636020660400390625	18.40499973297109903569435118697583675384521484375	57.6050000826516992447068332694470882415771484375	0.91555555769138796673445312990224920213222503662109375	194.416663299004000009517767466604709625244140625	0.0	4663.8789375622900479356758296489715576171875	0.0	1	1	1	1
2872	S6	2019	4	30	16	349.1529240954520219020196236670017242431640625	114.814858893441993359374464489519596099853515625	288.39605896166500542676658369600772857666015625	19.119832502396999274196787155233323574066162109375	57.9041896798756994257928454317152500152587890625	0.4597765385438610241664036948350258171558380126953125	384.833333392936992822797037661075592041015625	0.0	10053.7022948265002924017608165740966796875	0.0	1	1	1	1
2873	S6	2019	4	30	17	385.150158352322023347369395196437835693359375	586.5573396470809939273749478161334991455078125	130.4512101491289968180353753268718719482421875	19.412499968210799039525227271951735019683837890625	58.72416661580400187858685967512428760528564453125	0.70333333520425600493553019987302832305431365966796875	441.416668395200986196869052946567535400390625	0.0	11111.775616804699893691577017307281494140625	0.0	1	1	1	1
2874	S6	2019	4	30	18	247.839534484014990312061854638159275054931640625	465.11281824376800386744434945285320281982421875	105.3710769653319943017777404747903347015380859375	18.006666660308798810774533194489777088165283203125	60.29000008900960239088817615993320941925048828125	0.96138888912068398706622929239529184997081756591796875	247.333334137995990431591053493320941925048828125	0.0	5908.828144272139979875646531581878662109375	0.0	1	1	1	1
2875	S6	2019	4	30	19	72.55590369966290609227144159376621246337890625	78.3061141159798950184267596341669559478759765625	61.39661657545300244009922607801854610443115234375	15.6899999221165007412537306663580238819122314453125	67.793333435058599434341886080801486968994140625	1.161944445553749982735780577058903872966766357421875	56.50000025828639849123646854422986507415771484375	0.0	1513.56862609585004975087940692901611328125	0.0	1	1	1	1
2876	S6	2019	4	30	20	20.890747714417098990224985755048692226409912109375	9.2082814621051500836301784147508442401885986328125	20.6577551402345989117748104035854339599609375	14.6837696804425998919896301231347024440765380859375	73.69267029287919967828202061355113983154296875	0.79685864024137298411432084321859292685985565185546875	7.0000000220412896823063420015387237071990966796875	0.0	258.252984650122016319073736667633056640625	0.0	1	1	1	1
2877	S6	2019	4	30	21	0	0	0	0	0	0	0	0.0	0	0.0	1	1	1	0
2878	S6	2019	4	30	22	0	0	0	0	0	0	0	0.0	0	0.0	1	1	1	0
2879	S6	2019	4	30	23	0	0	0	0	0	0	0	0.0	0	0.0	1	1	1	0
2880	S6	2019	4	30	24	0	0	0	0	0	0	0	0.0	0	0.0	1	1	1	0
2881	S6	2019	5	1	1	0	0	0	0	0	0	0	0.0	0	0.0	1	1	1	0
2882	S6	2019	5	1	2	0	0	0	0	0	0	0	0.0	0	0.0	1	1	1	0
2883	S6	2019	5	1	3	0	0	0	0	0	0	0	0.0	0	0.0	1	1	1	0
2884	S6	2019	5	1	4	0	0	0	0	0	0	0	0.0	0	0.0	1	1	1	0
2885	S6	2019	5	1	5	9.8788538813591006970682428800500929355621337890625	0.3336834734039639815961209023953415453433990478515625	10.0817592144012007082665149937383830547332763671875	9.7885715075901504889088755589909851551055908203125	89.445714242117702497125719673931598663330078125	3.22285714234623998919460063916631042957305908203125	3.416666770741910053033052463433705270290374755859375	0.0	106.2597242804859973830389208160340785980224609375	0.0	1	1	1	0
2886	S6	2019	5	1	6	17.933275220129200278051939676515758037567138671875	0.30407488019102102416724164868355728685855865478515625	18.07259118821880150562719791196286678314208984375	9.510833239555349649663185118697583675384521484375	89.0783341725666986121723311953246593475341796875	3.17277777824136020257128620869480073451995849609375	15.8333337555328004242483075358904898166656494140625	0.0	453.34723219275400651895324699580669403076171875	0.0	1	1	1	1
2887	S6	2019	5	1	7	39.43860290315409855566031183116137981414794921875	0.421495024487376024335816282473388127982616424560546875	39.59525511529709973501667263917624950408935546875	9.4949998776117894294657162390649318695068359375	87.69416650136309954177704639732837677001953125	2.8019444440801901663462558644823729991912841796875	38.25000006084619741386632085777819156646728515625	0.0	1139.056432371329947272897697985172271728515625	0.0	1	1	1	1
2888	S6	2019	5	1	8	89.4653361320495008612851961515843868255615234375	0.5416726591686400471559181823977269232273101806640625	89.6048283894856041342791286297142505645751953125	10.2133333841959004217869733111001551151275634765625	85.2399996439614966448061750270426273345947265625	2.743055554313790000975359362200833857059478759765625	81.999999781450100044821738265454769134521484375	0.0	2372.24835654098978920956142246723175048828125	0.0	1	1	1	1
2889	S6	2019	5	1	9	74.945946651034802243884769268333911895751953125	0.464080905707346003108426657490781508386135101318359375	74.955935457017602630003239028155803680419921875	10.7666666428248003484213768388144671916961669921875	83.7799997965494043228318332694470882415771484375	3.046944436596489946822430283646099269390106201171875	66.833332801858404081940534524619579315185546875	0.0	1998.969686528040028861141763627529144287109375	0.0	1	1	1	1
2890	S6	2019	5	1	10	83.3688996209038037932259612716734409332275390625	0.552215336718492988410389443743042647838592529296875	83.280006832546604300659964792430400848388671875	10.748333398500999891211904468946158885955810546875	84.385833613077693371451459825038909912109375	3.20583332992262004523809082456864416599273681640625	77.583334098259200573011185042560100555419921875	0.0	2338.98873130479978499352000653743743896484375	0.0	1	1	1	1
2891	S6	2019	5	1	11	149.541653823851987681337050162255764007568359375	0.7655616652634400498556033198838122189044952392578125	149.135616217718990128560108132660388946533203125	11.6008333444595006511690371553413569927215576171875	81.1591667811075012650690041482448577880859375	2.976666660027369903929184147273190319538116455078125	140.91666601598200259104487486183643341064453125	0.0	4157.2617838780197416781447827816009521484375	0.0	1	1	1	1
2892	S6	2019	5	1	12	243.375029373167990343063138425350189208984375	1.0757782984110999535687369643710553646087646484375	242.109111743503007119215908460319042205810546875	12.647499982515899574764262069948017597198486328125	78.1483332951863047810547868721187114715576171875	3.142499990761280059814453125	235.249998668828993686474859714508056640625	0.0	6771.1082498232399302651174366474151611328125	0.0	1	1	1	1
2893	S6	2019	5	1	13	405.816775333179975859820842742919921875	57.0740779855672002440769574604928493499755859375	360.416225837258025421760976314544677734375	13.9152941339155997724219560041092336177825927734375	75.0970592049990983696261537261307239532470703125	3.51352939938796993146752356551587581634521484375	455.99999775489101239145384170114994049072265625	0.0	12237.546384334500544355250895023345947265625	0.0	1	1	1	1
2894	S6	2019	5	1	14	533.7667114638089742584270425140857696533203125	287.14327659344098719884641468524932861328125	327.38544304868497647476033307611942291259765625	14.82274136587830071221105754375457763671875	72.3271032790899965903008705936372280120849609375	3.60249220359361999044267577119171619415283203125	625.7500027616810029940097592771053314208984375	0.0	16061.574866374299745075404644012451171875	0.0	1	1	1	1
2895	S6	2019	5	1	15	583.24756158846503240056335926055908203125	380.2367846546600276269600726664066314697265625	332.76865712578700140511500649154186248779296875	15.2993768561294007923834215034730732440948486328125	70.0595016479492045391452847979962825775146484375	3.81028037836246991076905032969079911708831787109375	593.249996503195006880559958517551422119140625	0.0	15916.449795166599869844503700733184814453125	0.0	1	1	1	1
2896	S6	2019	5	1	16	452.8946913196190280359587632119655609130859375	311.304339175070026612957008183002471923828125	282.801729460685010053566657006740570068359375	14.2377419471739994349945845897309482097625732421875	72.44354841170769532254780642688274383544921875	4.26709677250153962546619368367828428745269775390625	532.1666647990549563473905436694622039794921875	0.0	13972.813775141999940387904644012451171875	0.0	1	1	1	1
2897	S6	2019	5	1	17	264.1177039078489769963198341429233551025390625	111.1411233404249969680677168071269989013671875	211.47806407787101079520653001964092254638671875	13.0695156439756008381891660974361002445220947265625	74.5421655769022066806428483687341213226318359375	4.38119658751365026461144225322641432285308837890625	233.416665345430004663285217247903347015380859375	0.0	6384.8650306462996013578958809375762939453125	0.0	1	1	1	1
2898	S6	2019	5	1	18	132.92652571267899475060403347015380859375	62.13431791867539999429936870001256465911865234375	117.749642611881000675566610880196094512939453125	12.22178768978429985736511298455297946929931640625	76.5960896667821060646019759587943553924560546875	4.3094972060712297690088234958238899707794189453125	124.416666726269994569520349614322185516357421875	0.0	3290.90727368989018941647373139858245849609375	0.0	1	1	1	1
2899	S6	2019	5	1	19	62.423344596226996827681432478129863739013671875	24.4298337560559986059161019511520862579345703125	57.544384060965597882386646233499050140380859375	11.6666666189828998057009812328033149242401123046875	79.09750029246009717098786495625972747802734375	4.2308333345585396045862580649554729461669921875	53.1666666890184984595180139876902103424072265625	0.0	1425.20203565557994807022623717784881591796875	0.0	1	1	1	1
2900	S6	2019	5	1	20	18.6268755534729990586129133589565753936767578125	0.303007363145094021916747806244529783725738525390625	18.8530227150099989330556127242743968963623046875	10.9872509131868003606768979807384312152862548828125	80.625099030148902556902612559497356414794921875	3.962948209261030196870478903292678296566009521484375	10.166666732402600104023804306052625179290771484375	0.0	302.2666418692080014807288534939289093017578125	0.0	1	1	1	1
2901	S6	2019	5	1	21	0	0	0	0	0	0	0	0.0	0	0.0	1	1	1	0
2902	S6	2019	5	1	22	0	0	0	0	0	0	0	0.0	0	0.0	1	1	1	0
2903	S6	2019	5	1	23	0	0	0	0	0	0	0	0.0	0	0.0	1	1	1	0
2904	S6	2019	5	1	24	0	0	0	0	0	0	0	0.0	0	0.0	1	1	1	0
2905	S6	2019	5	2	1	0	0	0	0	0	0	0	0.0	0	0.0	1	1	1	0
2906	S6	2019	5	2	2	0	0	0	0	0	0	0	0.0	0	0.0	1	1	1	0
2907	S6	2019	5	2	3	0	0	0	0	0	0	0	0.0	0	0.0	1	1	1	0
2908	S6	2019	5	2	4	0	0	0	0	0	0	0	0.0	0	0.0	1	1	1	0
2909	S6	2019	5	2	5	4.94763629605071031392071745358407497406005859375	0.33947362080968901398847492600907571613788604736328125	5.0819339234419498296801975811831653118133544921875	9.5343435653532395690490375272929668426513671875	79.1424243040759023415375850163400173187255859375	4.7939394303042401901393532170914113521575927734375	1.4166666757470600668256111021037213504314422607421875	0.0	36.14411720385130166732778889127075672149658203125	0.0	1	1	1	1
2910	S6	2019	5	2	6	11.6348210559949993836426074267365038394927978515625	0.318658864622314019765525472394074313342571258544921875	11.7932137370109000329421178321354091167449951171875	9.51083337465922085129932384006679058074951171875	79.28750006357819302138523198664188385009765625	5.30333333578373977701403418905101716518402099609375	10.3333332808687003989689401350915431976318359375	0.0	306.155360459039002307690680027008056640625	0.0	1	1	1	1
2911	S6	2019	5	2	7	57.3923189859203972673640237189829349517822265625	0.8491001537790869857502684681094251573085784912109375	57.57059203549010106826244737021625041961669921875	9.3718662261962801807158029987476766109466552734375	76.893872104315306614807923324406147003173828125	5.5194985991068801212122707511298358440399169921875	57.91666731238380094737294712103903293609619140625	0.0	1670.800728102519997264607809484004974365234375	0.0	1	1	1	1
2912	S6	2019	5	2	8	233.0113501792189936168142594397068023681640625	140.516262694879998207397875376045703887939453125	174.203444059904001051108934916555881500244140625	9.81741727937806984982671565376222133636474609375	73.80570564613680062393541447818279266357421875	5.246246240518470216329660615883767604827880859375	217.49999870856498773719067685306072235107421875	0.0	6115.4348502556103994720615446567535400390625	0.0	1	1	1	1
2913	S6	2019	5	2	9	226.91980026908498757620691321790218353271484375	71.8267140330610942555722431279718875885009765625	191.237544980255989912620862014591693878173828125	10.149855118903499118232502951286733150482177734375	71.2101449496503988711992860771715641021728515625	5.31217391249062043101503149955533444881439208984375	221.50000060598000573008903302252292633056640625	0.0	6308.5637489954897318966686725616455078125	0.0	1	1	1	1
2914	S6	2019	5	2	10	201.097236567717999378146487288177013397216796875	61.45199492317549783138019847683608531951904296875	160.071670903858006340669817291200160980224609375	9.9805156494621503071584811550565063953399658203125	73.2060167154130994049410219304263591766357421875	5.2664756395755301099370626616291701793670654296875	241.166667391856009317052667029201984405517578125	0.0	6697.3340312639802505145780742168426513671875	0.0	1	1	1	1
2915	S6	2019	5	2	11	220.64524487481600090177380479872226715087890625	8.024765957900029889060533605515956878662109375	213.7088086114409861693275161087512969970703125	10.6884058330370006473231114796362817287445068359375	70.2318845444830941460168105550110340118408203125	5.16521739648735955796610141987912356853485107421875	225.50000064074998817886807955801486968994140625	0.0	6412.800053755419867229647934436798095703125	0.0	1	1	1	1
2916	S6	2019	5	2	12	236.449907030378000172277097590267658233642578125	10.7435878778355000662259044474922120571136474609375	227.7803298950190082905464805662631988525390625	10.9974286460876005122599963215179741382598876953125	67.801714390345892979894415475428104400634765625	5.2222857223238197121872872230596840381622314453125	235.41666815678200919137452729046344757080078125	0.0	6892.473856608079586294479668140411376953125	0.0	1	1	1	1
2917	S6	2019	5	2	13	395.5766689142529912714962847530841827392578125	126.75853932719900285519543103873729705810546875	298.524725242479007647489197552204132080078125	11.86775144881750065906089730560779571533203125	62.76124260129299869959140778519213199615478515625	5.33017749758160963580166935571469366550445556640625	442.66666596134501787673798389732837677001953125	0.0	11081.21164639790004002861678600311279296875	0.0	1	1	1	1
2918	S6	2019	5	2	14	329.09356859505800230181193910539150238037109375	63.3647146918979018437312333844602108001708984375	282.58209095231001128922798670828342437744140625	12.0162649987691008135470838169567286968231201171875	60.47319305373959963390007033012807369232177734375	4.96295181634913973311995505355298519134521484375	328.583335503933994914405047893524169921875	0.0	9461.57833437125009368173778057098388671875	0.0	1	1	1	1
2919	S6	2019	5	2	15	183.768778949702010550026898272335529327392578125	25.17572811488849993111216463148593902587890625	166.84111904879199528295430354773998260498046875	12.044036748576900208718143403530120849609375	53.29052020431650049658856005407869815826416015625	4.721712546246489949908209382556378841400146484375	173.083331435916988993994891643524169921875	0.0	5064.3724650144604311208240687847137451171875	0.0	1	1	1	1
2920	S6	2019	5	2	16	307.98487746924598695841268636286258697509765625	71.0596183550745053025821107439696788787841796875	268.49635359557697711352375335991382598876953125	12.040935644629399803307023830711841583251953125	47.304386027375102230507764033973217010498046875	4.64912280701754010436843600473366677761077880859375	336.74999947349198237134260125458240509033203125	0.0	8986.0682388146597077138721942901611328125	0.0	1	1	1	1
2921	S6	2019	5	2	17	290.818295788533987433766014873981475830078125	219.762856279777992085655569098889827728271484375	194.766904211503998567422968335449695587158203125	11.6710611079665991240972289233468472957611083984375	48.2533762646640980165102519094944000244140625	4.18102893539945963397030936903320252895355224609375	318.33333397904897310581873171031475067138671875	0.0	7987.00856169063990819267928600311279296875	0.0	1	1	1	1
2922	S6	2019	5	2	18	282.649269146864980939426459372043609619140625	586.9933198328759544892818666994571685791015625	98.45043510265560371408355422317981719970703125	11.4393257692958005833361312397755682468414306640625	47.1646068658721020483426400460302829742431640625	4.2044943807165200411191108287312090396881103515625	266.66666629413697364725521765649318695068359375	0.0	6953.476970394420277443714439868927001953125	0.0	1	1	1	1
2923	S6	2019	5	2	19	109.1115885522630009063504985533654689788818359375	215.87128836235200424198410473763942718505859375	71.93476967281759471006807871162891387939453125	10.5416666030883003912776985089294612407684326171875	48.87833315531410249832333647646009922027587890625	4.39777778502967020557434807415120303630828857421875	84.5833333830031932620840962044894695281982421875	0.0	2801.45110934971989991026930510997772216796875	0.0	1	1	1	1
2924	S6	2019	5	2	20	24.273529563207301151805950212292373180389404296875	20.844403728904499217833290458656847476959228515625	23.448618663297100539466555346734821796417236328125	9.360166055038259713683146401308476924896240234375	55.02116175608019688070271513424813747406005859375	4.3468879708610597134565978194586932659149169921875	11.000000047109299572412055567838251590728759765625	0.0	421.0337684489790035513578914105892181396484375	0.0	1	1	1	1
2925	S6	2019	5	2	21	0	0	0	0	0	0	0	0.0	2.3521667268747901147207812755368649959564208984375	0.0	1	1	1	0
2926	S6	2019	5	2	22	0	0	0	0	0	0	0	0.0	0	0.0	1	1	1	0
2927	S6	2019	5	2	23	0	0	0	0	0	0	0	0.0	0	0.0	1	1	1	0
2928	S6	2019	5	2	24	0	0	0	0	0	0	0	0.0	0	0.0	1	1	1	0
2929	S6	2019	5	3	1	0	0	0	0	0	0	0	0.0	0	0.0	1	1	1	0
2930	S6	2019	5	3	2	0	0	0	0	0	0	0	0.0	0	0.0	1	1	1	0
2931	S6	2019	5	3	3	0	0	0	0	0	0	0	0.0	0	0.0	1	1	1	0
2932	S6	2019	5	3	4	0	0	0	0	0	0	0	0.0	0	0.0	1	1	1	0
2933	S6	2019	5	3	5	19.586694053345599542126365122385323047637939453125	164.135610662354991973188589327037334442138671875	12.3705890632113995053487087716348469257354736328125	6.6840490270977301889843147364445030689239501953125	79.8687116470805023027423885650932788848876953125	2.361349695299300055495450578746385872364044189453125	4.00000001536680027669490300468169152736663818359375	0.0	199.624349595979992955108173191547393798828125	0.0	1	1	1	0
2934	S6	2019	5	3	6	80.7408004018995058004293241538107395172119140625	384.7308438855740178041742183268070220947265625	30.363190280066501003375378786586225032806396484375	7.13555556005900992744273025891743600368499755859375	78.0563888337876932155268150381743907928466796875	2.027499999768199945293645214405842125415802001953125	24.00000005339580155805379035882651805877685546875	0.0	1372.917518019670069406856782734394073486328125	0.0	1	1	1	1
2935	S6	2019	5	3	7	150.8122576856740124640055000782012939453125	134.211726634005998448628815822303295135498046875	114.731614229022994777551502920687198638916015625	7.5172804759514502137562885764054954051971435546875	77.362039906445005499335820786654949188232421875	1.806515575299509901441297188284806907176971435546875	149.0000002086150061586522497236728668212890625	0.0	4684.0176768600604191306047141551971435546875	0.0	1	1	1	1
2936	S6	2019	5	3	8	334.23127784067497714204364456236362457275390625	556.9496565948239776844275183975696563720703125	96.9926224636893010710991802625358104705810546875	8.504335300081720561138354241847991943359375	73.348554688381994992596446536481380462646484375	2.036705196678980200886144302785396575927734375	274.66666698455702544379164464771747589111328125	0.0	7502.109147608280181884765625	0.0	1	1	1	1
2937	S6	2019	5	3	9	410.71048421983499565612873993813991546630859375	452.39266020341398188975290395319461822509765625	167.701627657009993299652705900371074676513671875	9.40129870253723964879100094549357891082763671875	62.937337417107102055524592287838459014892578125	2.42532467338944979218240405316464602947235107421875	395.9166606267290262621827423572540283203125	0.0	10434.293180704100450384430587291717529296875	0.0	1	1	1	1
2938	S6	2019	5	3	10	434.358455992093013264820910990238189697265625	357.50719768157802036512293852865695953369140625	208.54505243788599955223617143929004669189453125	9.074452570755109803712912253104150295257568359375	65.5306569677199064472006284631788730621337890625	2.611678835031760126383915121550671756267547607421875	387.25000123183002642690553329885005950927734375	0.0	10045.9787100553003256209194660186767578125	0.0	1	1	1	1
2939	S6	2019	5	3	11	426.71573318973599953096709214150905609130859375	178.193104281692995982666616328060626983642578125	295.48370468721299175740568898618221282958984375	8.9853372434017497738523161388002336025238037109375	63.5542525462040970296584418974816799163818359375	3.586803518607120100369911597226746380329132080078125	480.08333270748499899127637036144733428955078125	0.0	11962.187767028799498802982270717620849609375	0.0	1	1	1	1
2940	S6	2019	5	3	12	520.9246451916179694308084435760974884033203125	179.4761053860009951677056960761547088623046875	379.7613966977349946319009177386760711669921875	9.4478510006792504327677306719124317169189453125	53.2633234259049999081980786286294460296630859375	3.75530085300646998547335897455923259258270263671875	604.3333411216730155501863919198513031005859375	0.0	14756.70097271600025123916566371917724609375	0.0	1	1	1	1
2941	S6	2019	5	3	13	690.273720433345033598016016185283660888671875	483.39784377945301230283803306519985198974609375	316.12645135478902602699236012995243072509765625	9.8338557694772905648505911813117563724517822265625	52.456739730595700166304595768451690673828125	3.64420061724313004702935359091497957706451416015625	797.5833378732180563019937835633754730224609375	0.0	18179.905394713001442141830921173095703125	0.0	1	1	1	1
2942	S6	2019	5	3	14	432.8324014454279904384748078882694244384765625	170.546652766877997464689542539417743682861328125	304.97733377066100501906475983560085296630859375	8.9578635246888094201267449534498155117034912109375	59.845994241867202845241990871727466583251953125	4.07922848395848003377750501385889947414398193359375	509.0833306312570130103267729282379150390625	0.0	12115.5257721740999841131269931793212890625	0.0	1	1	1	1
2943	S6	2019	5	3	15	627.754889108389988905400969088077545166015625	606.0864867541539524609106592833995819091796875	218.665946894867005312335095368325710296630859375	9.7495702207942400718820863403379917144775390625	53.62893971877650045598784345202147960662841796875	3.970487105299879804221063750446774065494537353515625	780.2500079075449548327014781534671783447265625	0.0	17427.13718612990123801864683628082275390625	0.0	1	1	1	1
2944	S6	2019	5	3	16	331.3466017731519741573720239102840423583984375	240.452386879330987312641809694468975067138671875	187.91585158176400227603153325617313385009765625	9.481415928640899437596090137958526611328125	55.4389378595491990608934429474174976348876953125	3.220353984375610156831726271775551140308380126953125	382.16666504740697973829810507595539093017578125	0.0	8999.14418657616988639347255229949951171875	0.0	1	1	1	1
2945	S6	2019	5	3	17	165.818427975258003925773664377629756927490234375	40.485858773922501541164820082485675811767578125	146.10311791066300202146521769464015960693359375	8.566092003350970429664812400005757808685302734375	58.34016863147859766058900277130305767059326171875	3.515472781179960204411827362491749227046966552734375	149.083333710827986351432627998292446136474609375	0.0	4601.169976095319725573062896728515625	0.0	1	1	1	1
2946	S6	2019	5	3	18	172.869127790806004441037657670676708221435546875	205.33426255153500505912234075367450714111328125	113.146253305638992969761602580547332763671875	7.80649717648824026383636009995825588703155517578125	64.861864661092795358854345977306365966796875	3.05197740358820990280719342990778386592864990234375	163.500001343588991176147828809916973114013671875	0.0	4831.4377218484996774350292980670928955078125	0.0	1	1	1	1
2947	S6	2019	5	3	19	75.405732891294604769427678547799587249755859375	40.68396568155529990917784743942320346832275390625	67.692247231801303541942615993320941925048828125	7.428333287768889903190938639454543590545654296875	66.92722237904860094204195775091648101806640625	2.8266666666500999127720206161029636859893798828125	65.4166666790849973267540917731821537017822265625	0.0	2036.7568780978499489719979465007781982421875	0.0	1	1	1	1
2948	S6	2019	5	3	20	21.309878922277800228357591549865901470184326171875	3.44172613872772981125081059872172772884368896484375	21.294553991286900185286867781542241573333740234375	6.404032261140880422090049250982701778411865234375	68.6991938006492972590422141365706920623779296875	3.179838700640579940426277971710078418254852294921875	11.416666927592100222454973845742642879486083984375	0.0	407.7808600074309879346401430666446685791015625	0.0	1	1	1	1
2949	S6	2019	5	3	21	0	0	0	0	0	0	0	0.0	0	0.0	1	1	1	0
2950	S6	2019	5	3	22	0	0	0	0	0	0	0	0.0	0	0.0	1	1	1	0
2951	S6	2019	5	3	23	0	0	0	0	0	0	0	0.0	0	0.0	1	1	1	0
2952	S6	2019	5	3	24	0	0	0	0	0	0	0	0.0	0	0.0	1	1	1	0
2953	S6	2019	5	4	1	0	0	0	0	0	0	0	0.0	0	0.0	1	1	1	0
2954	S6	2019	5	4	2	0	0	0	0	0	0	0	0.0	0	0.0	1	1	1	0
2955	S6	2019	5	4	3	0	0	0	0	0	0	0	0.0	0	0.0	1	1	1	0
2956	S6	2019	5	4	4	0	0	0	0	0	0	0	0.0	0	0.0	1	1	1	0
2957	S6	2019	5	4	5	15.3290169183597999591484040138311684131622314453125	0.2908503205854759965376388208824209868907928466796875	15.76662433239840055421154829673469066619873046875	3.637209273123919839321160907275043427944183349609375	87.7100775666938972108255256898701190948486328125	1.9922480583190900205181605997495353221893310546875	5.416666768724070379903423599898815155029296875	0.0	200.62014499368700626291683875024318695068359375	0.0	1	1	1	1
2958	S6	2019	5	4	6	25.496340169744900805426368606276810169219970703125	0.330079658123358987698026112411753274500370025634765625	25.92027780565160099968124995939433574676513671875	3.980225964454600084962976325186900794506072998046875	85.5381353992525959029080695472657680511474609375	2.374858755007970056993826801772229373455047607421875	22.0833332277833989110149559564888477325439453125	0.0	767.25625308851294903433881700038909912109375	0.0	1	1	1	1
2959	S6	2019	5	4	7	60.690785232099500490221544168889522552490234375	10.3794302695806006653356234892271459102630615234375	57.9593970968498979345895349979400634765625	3.20647251490249995953263351111672818660736083984375	87.092233034399299640426761470735073089599609375	1.5161812275551600492917714291252195835113525390625	50.58333432922780303897525300271809101104736328125	0.0	1772.321992864209960316657088696956634521484375	0.0	1	1	1	1
2960	S6	2019	5	4	8	141.375358496771013960824348032474517822265625	36.30179317676350336796531337313354015350341796875	127.1404749128549980241587036289274692535400390625	3.927222233348420132870160159654915332794189453125	87.7933331383598982711191638372838497161865234375	1.7472222204837499770491149320150725543498992919921875	130.333332344888987108788569457828998565673828125	0.0	4004.01163597902996116317808628082275390625	0.0	1	1	1	1
2961	S6	2019	5	4	9	521.561470310183040055562742054462432861328125	475.17442263097899513013544492423534393310546875	260.413747522952007784624584019184112548828125	6.11569341603856031497343792580068111419677734375	80.028832178046201306642615236341953277587890625	1.1905109490791299098333411166095174849033355712890625	468.0833326031760179830598644912242889404296875	0.0	12660.21657486749973031692206859588623046875	0.0	1	1	1	1
2962	S6	2019	5	4	10	323.5224618882029972155578434467315673828125	134.540596983038000189480953849852085113525390625	241.031290167217008502120734192430973052978515625	6.9467290257367704242597028496675193309783935546875	70.9417448905397947100937017239630222320556640625	2.24174455058907984295046844636090099811553955078125	334.83333140611699718647287227213382720947265625	0.0	9443.7097609043194097466766834259033203125	0.0	1	1	1	1
2963	S6	2019	5	4	11	529.284298909504968833061866462230682373046875	399.28232677190800359312561340630054473876953125	241.9754023742669915009173564612865447998046875	7.74766667842864986681661321199499070644378662109375	65.9590000534057026015943847596645355224609375	2.386666661401589895064034863025881350040435791015625	618.49999551971495748148299753665924072265625	0.0	14418.14037164050023420713841915130615234375	0.0	1	1	1	1
2964	S6	2019	5	4	12	560.2172806172429773141629993915557861328125	364.3163153109600216339458711445331573486328125	278.2135990480829832449671812355518341064453125	8.2601266058185398577506930450908839702606201171875	62.98765805401369988203441607765853404998779296875	2.55379746335592994199714667047373950481414794921875	624.5000027120139520775410346686840057373046875	0.0	14190.753887097000188077799975872039794921875	0.0	1	1	1	1
2965	S6	2019	5	4	13	567.96943056130703553208149969577789306640625	506.4328795105240033080917783081531524658203125	176.6704849774320109645486809313297271728515625	7.42120254945151014425164248677901923656463623046875	67.4107593584663931096656597219407558441162109375	2.936075945632360184589515483821742236614227294921875	650.0000016142939784913323819637298583984375	0.0	14939.482768376599779003299772739410400390625	0.0	1	1	1	1
2966	S6	2019	5	4	14	794.2402583695610474023851566016674041748046875	901.3436273380519878628547303378582000732421875	123.6687827902610052888121572323143482208251953125	8.732024178404099501449309173040091991424560546875	57.57522671748500187050012755207717418670654296875	2.975528699393709786136241746135056018829345703125	954.66666420299998208065517246723175048828125	0.0	20442.02433029809981235302984714508056640625	0.0	1	1	1	1
2967	S6	2019	5	4	15	583.60279034380300799966789782047271728515625	605.78365338922094451845623552799224853515625	177.365066636922989573577069677412509918212890625	8.7192171120558707997361125308088958263397216796875	58.43416380967109802213599323295056819915771484375	2.692170817126580129041713007609359920024871826171875	523.1666645656049468016135506331920623779296875	0.0	12157.57006406780055840499699115753173828125	0.0	1	1	1	1
2968	S6	2019	5	4	16	322.633617031958010556991212069988250732421875	259.9879962868189977598376572132110595703125	171.40960498932798827809165231883525848388671875	8.3248387459785693209823875804431736469268798828125	57.44516127801710325684325653128325939178466796875	2.786129027701190086219185104710049927234649658203125	336.41666856904902260794187895953655242919921875	0.0	7637.520983815180443343706429004669189453125	0.0	1	1	1	1
2969	S6	2019	5	4	17	467.1166675056820167810656130313873291015625	752.699027008967959773144684731960296630859375	129.9653150770390084289829246699810028076171875	8.5393161760096507606476734508760273456573486328125	56.31709404752459846577039570547640323638916015625	2.69886039464901017481679446063935756683349609375	533.4166685740150342098786495625972747802734375	0.0	12771.120965480700760963372886180877685546875	0.0	1	1	1	1
2970	S6	2019	5	4	18	301.48514895968901328160427510738372802734375	743.2117731730139666979084722697734832763671875	64.65755233764639342552982270717620849609375	8.18777778678470014028789591975510120391845703125	50.3655555301241975030279718339443206787109375	1.9769444489644600881916858270415104925632476806640625	308.166662851969022085540927946567535400390625	0.0	8155.6485394636501951026730239391326904296875	0.0	1	1	1	1
2971	S6	2019	5	4	19	141.19527299668999376081046648323535919189453125	552.95947596232099385815672576427459716796875	40.2033785555097011865655076690018177032470703125	7.7250000503328095646793371997773647308349609375	48.73611108991830320746885263361036777496337890625	1.421388888193499955292509184801019728183746337890625	99.8333335543675985945810680277645587921142578125	0.0	3577.02420403559017358929850161075592041015625	0.0	1	1	1	1
2972	S6	2019	5	4	20	29.096178690592399362913056393153965473175048828125	118.8256189472769932535811676643788814544677734375	20.03147565137150110103902989067137241363525390625	6.74594595196009993998131903936155140399932861328125	55.17117091342129953090989147312939167022705078125	1.3400900883449000655645022561657242476940155029296875	8.5833332850598491603477668832056224346160888671875	0.0	457.6336395305889936935272999107837677001953125	0.0	1	1	1	0
2973	S6	2019	5	4	21	0	0	0	0	0	0	0	0.0	2.490150043740869900688039706437848508358001708984375	0.0	1	1	1	0
2974	S6	2019	5	4	22	0	0	0	0	0	0	0	0.0	0	0.0	1	1	1	0
2975	S6	2019	5	4	23	0	0	0	0	0	0	0	0.0	0	0.0	1	1	1	0
2976	S6	2019	5	4	24	0	0	0	0	0	0	0	0.0	0	0.0	1	1	1	0
2977	S6	2019	5	5	1	0	0	0	0	0	0	0	0.0	0	0.0	1	1	1	0
2978	S6	2019	5	5	2	0	0	0	0	0	0	0	0.0	0	0.0	1	1	1	0
2979	S6	2019	5	5	3	0	0	0	0	0	0	0	0.0	0	0.0	1	1	1	0
2980	S6	2019	5	5	4	0	0	0	0	0	0	0	0.0	0	0.0	1	1	1	0
2981	S6	2019	5	5	5	23.274269185282900451738896663300693035125732421875	189.7406113581220097330515272915363311767578125	14.34286772392010078647217596881091594696044921875	4.26818181167949006749040563590824604034423828125	76.2159094376996932851398014463484287261962890625	1.1227272735400599668054155699792318046092987060546875	5.58333342390443032599023354123346507549285888671875	0.0	283.851124385060984423034824430942535400390625	0.0	1	1	1	0
2982	S6	2019	5	5	6	105.2779367234970067102040047757327556610107421875	446.38214365641198355660890229046344757080078125	39.33544988102379846850453759543597698211669921875	5.2461110883288899486842637998051941394805908203125	73.7605551825628964479619753547012805938720703125	1.0636111134456200932874025966157205402851104736328125	30.66666703671199911696021445095539093017578125	0.0	1997.24933008351990793016739189624786376953125	0.0	1	1	1	1
2983	S6	2019	5	5	7	247.464107279004991823967429809272289276123046875	620.3486474745759551296941936016082763671875	67.5771004554278960085866856388747692108154296875	6.862290475621559693308881833218038082122802734375	75.1955305131453997091739438474178314208984375	1.162011176763960040858592037693597376346588134765625	155.499999100964004128400119952857494354248046875	0.0	5585.1922780275499462732113897800445556640625	0.0	1	1	1	1
2984	S6	2019	5	5	8	396.8768292744949803818599320948123931884765625	662.879728020561969970003701746463775634765625	116.5713677300339981002252898178994655609130859375	8.8477777851952392751400111592374742031097412109375	66.839444181654101839740178547799587249755859375	1.6380555530389100393762191743007861077785491943359375	355.24999847014697706981678493320941925048828125	0.0	9898.3916441599503741599619388580322265625	0.0	1	1	1	1
2985	S6	2019	5	5	9	553.9970447116420473321340978145599365234375	800.4454238891599970884271897375583648681640625	110.0984371397230034972380963154137134552001953125	10.271666622161799153900574310682713985443115234375	56.49499984317350254059419967234134674072265625	2.20777777673469000063732892158441245555877685546875	580.5833339691149603822850622236728668212890625	0.0	14546.54095570239951484836637973785400390625	0.0	1	1	1	1
2986	S6	2019	5	5	10	613.963051859537017662660218775272369384765625	649.1446733262799853036995045840740203857421875	186.310586081610011888187727890908718109130859375	11.09166660308829932546359486877918243408203125	53.8033334096272000124372425489127635955810546875	2.762222217106149901866274376516230404376983642578125	683.9999904235199892355012707412242889404296875	0.0	16259.525974591599151608534157276153564453125	0.0	1	1	1	1
2987	S6	2019	5	5	11	765.2382761637360317763523198664188385009765625	881.0566738552510059889755211770534515380859375	116.93941031561899990265374071896076202392578125	12.026111136542400714688483276404440402984619140625	48.0466666327582032636200892738997936248779296875	2.97250000180468987309723161160945892333984375	916.25000039736505641485564410686492919921875	0.0	20278.6460717517984448932111263275146484375	0.0	1	1	1	1
2988	S6	2019	5	5	12	806.293136321746032990631647408008575439453125	891.634183417120993908611126244068145751953125	113.7796064955330024304203107021749019622802734375	12.7294294196922006534578031278215348720550537109375	43.4699698783255001899306080304086208343505859375	3.006906905779250127608293041703291237354278564453125	964.8333291212890117094502784311771392822265625	0.0	20645.18288771310108131729066371917724609375	0.0	1	1	1	1
2989	S6	2019	5	5	13	718.43105562721802925807423889636993408203125	629.2142098330340331813204102218151092529296875	225.060894105491996697310241870582103729248046875	12.8896341759984007779848980135284364223480224609375	43.14634139363349873974584625102579593658447265625	3.295731704772970172001578248455189168453216552734375	804.3333378930919934646226465702056884765625	0.0	17746.706018845201469957828521728515625	0.0	1	1	1	1
2990	S6	2019	5	5	14	460.15429280598897321397089399397373199462890625	204.051221269541002811820362694561481475830078125	302.20727096778699660717393271625041961669921875	12.7069564957549001604775185114704072475433349609375	42.45478243620490133025668910704553127288818359375	3.189855071686309884171350859105587005615234375	504.83332946896501880473806522786617279052734375	0.0	12593.70074669509995146654546260833740234375	0.0	1	1	1	1
2991	S6	2019	5	5	15	389.170649542011005905806086957454681396484375	129.452776535100014143608859740197658538818359375	301.31382976240200832762639038264751434326171875	12.25552404636020042971722432412207126617431640625	47.6249291957606004643821506761014461517333984375	3.0821529706206600707218967727385461330413818359375	432.49999607602700280040153302252292633056640625	0.0	11164.142698049499813350848853588104248046875	0.0	1	1	1	1
2992	S6	2019	5	5	16	426.29819027106901785373338498175144195556640625	282.97077332936697757759247906506061553955078125	257.28842852929301443509757518768310546875	12.732934058069400151680383714847266674041748046875	46.63952086214529657581806532107293605804443359375	2.864071849666660174449361875304020941257476806640625	448.08333615461998533646692521870136260986328125	0.0	11018.497526645600373740307986736297607421875	0.0	1	1	1	1
2993	S6	2019	5	5	17	394.9911132812500227373675443232059478759765625	510.71648674591000371947302483022212982177734375	169.4852098769030135372304357588291168212890625	12.120289879950899347704762476496398448944091796875	47.38289841361660137408762238919734954833984375	3.18898551455442014201935307937674224376678466796875	474.33333843946502383914776146411895751953125	0.0	11621.55133485790065606124699115753173828125	0.0	1	1	1	1
2994	S6	2019	5	5	18	168.738421955695997667135088704526424407958984375	127.0259279643779990465191076509654521942138671875	124.09398398946899533257237635552883148193359375	10.6282912476056008443947575869970023632049560546875	51.46694669536510247098703985102474689483642578125	2.821848734086299881340664796880446374416351318359375	167.2499999403950141640962101519107818603515625	0.0	4724.265684684100051526911556720733642578125	0.0	1	1	1	1
2995	S6	2019	5	5	19	110.75004054175400369786075316369533538818359375	73.2219039354059049173883977346122264862060546875	98.1619367387558980908579542301595211029052734375	10.0872222794425994152334169484674930572509765625	51.48388885921900026687580975703895092010498046875	2.448055544247230042032015262520872056484222412109375	93.0833338449389060542671359144151210784912109375	0.0	3031.73577040436020979541353881359100341796875	0.0	1	1	1	1
2996	S6	2019	5	5	20	22.089356811284101667069990071468055248260498046875	5.86741123433701972089693299494683742523193359375	22.337901666155598690011174767278134822845458984375	9.5756457353430004530991936917416751384735107421875	55.60479699729550162601299234665930271148681640625	2.492250919561980193606132161221466958522796630859375	11.5000000514554994168747725780121982097625732421875	0.0	461.71066832418097192203276790678501129150390625	0.0	1	1	1	1
2997	S6	2019	5	5	21	0	0	0	0	0	0	0	0.0	5.59864996466787001594411776750348508358001708984375	0.0	1	1	1	0
2998	S6	2019	5	5	22	0	0	0	0	0	0	0	0.0	0	0.0	1	1	1	0
2999	S6	2019	5	5	23	0	0	0	0	0	0	0	0.0	0	0.0	1	1	1	0
3000	S6	2019	5	5	24	0	0	0	0	0	0	0	0.0	0	0.0	1	1	1	0
3001	S6	2019	5	6	1	0	0	0	0	0	0	0	0.0	0	0.0	1	1	1	0
3002	S6	2019	5	6	2	0	0	0	0	0	0	0	0.0	0	0.0	1	1	1	0
3003	S6	2019	5	6	3	0	0	0	0	0	0	0	0.0	0	0.0	1	1	1	0
3004	S6	2019	5	6	4	0	0	0	0	0	0	0	0.0	0	0.0	1	1	1	0
3005	S6	2019	5	6	5	32.2153119217577028621235513128340244293212890625	90.3544866676381985826083109714090824127197265625	26.507469005721901567085296846926212310791015625	6.44316550467511017785682270186953246593475341796875	83.4820152666928976259441697038710117340087890625	2.263309349687829818975615125964395701885223388671875	9.166666714008979255368103622458875179290771484375	0.0	375.963601244922983823926188051700592041015625	0.0	1	1	1	0
3006	S6	2019	5	6	6	48.21486472553669955232180655002593994140625	37.0504699639975996205976116470992565155029296875	44.93102715280320325064167263917624950408935546875	7.0644443829854299821136009995825588703155517578125	80.7577779557968966628322959877550601959228515625	2.779999997880719941889537949464283883571624755859375	38.7499999875821998784886091016232967376708984375	0.0	1293.303797642380004617734812200069427490234375	0.0	1	1	1	1
3007	S6	2019	5	6	7	77.31690830802250502529204823076725006103515625	20.665541015513401390535364043898880481719970703125	72.7517982310119037947515607811510562896728515625	6.10492957142036996032175011350773274898529052734375	85.6090591111665020207510679028928279876708984375	2.8712280787919599589486097102053463459014892578125	53.66666739185649959154034149833023548126220703125	0.0	1810.058114429310080595314502716064453125	0.0	1	1	1	1
3008	S6	2019	5	6	8	217.418011043381994795709033496677875518798828125	240.199894276575008689178503118455410003662109375	113.2741759564959949102558312006294727325439453125	5.12312925591759960042281818459741771221160888671875	90.263545722068300847240607254207134246826171875	2.5081632646168099398664708132855594158172607421875	207.916668926674987005753791891038417816162109375	0.0	5884.270151456190433236770331859588623046875	0.0	1	1	1	1
3009	S6	2019	5	6	9	358.61207982888100787022267468273639678955078125	376.76414549878199977683834731578826904296875	168.785764148380991400699713267385959625244140625	6.90192926964958974878072694991715252399444580078125	81.7977494856169045078786439262330532073974609375	2.65080385461113987588532836525700986385345458984375	348.1666594743729774563689716160297393798828125	0.0	9474.261760711669921875	0.0	1	1	1	1
3010	S6	2019	5	6	10	433.3856767447459787945263087749481201171875	424.8630033378780126440688036382198333740234375	147.646571162159006007641437463462352752685546875	7.04721408435676011094983550719916820526123046875	76.2727274293423960216387058608233928680419921875	3.185043983707669834615217041573487222194671630859375	502.2500002135830072802491486072540283203125	0.0	12236.715853214200251386500895023345947265625	0.0	1	1	1	1
3011	S6	2019	5	6	11	607.1201836884910107983159832656383514404296875	524.540695923599969319184310734272003173828125	223.995240920337010948060196824371814727783203125	8.968059704908679208301691687665879726409912109375	61.76955256675599770233020535670220851898193359375	3.69850745983977002850906501407735049724578857421875	711.6666771471490164913120679557323455810546875	0.0	17032.994995514498441480100154876708984375	0.0	1	1	1	1
3012	S6	2019	5	6	12	646.9152493496170563958003185689449310302734375	439.55480221446197219847817905247211456298828125	306.477881798376984079368412494659423828125	9.753036429524900796650399570353329181671142578125	58.64574878708069860522300587035715579986572265625	3.441295547161990153739452580339275300502777099609375	575.3333295385040173641755245625972747802734375	0.0	13622.816915313300341949798166751861572265625	0.0	1	1	1	1
3013	S6	2019	5	6	13	692.9372875107329718957771547138690948486328125	584.0872825683769633542397059500217437744140625	234.585056482084013396161026321351528167724609375	9.6095975338489996175894702901132404804229736328125	62.905262831932901690379367209970951080322265625	3.42538699683020997355242798221297562122344970703125	835.3333274523489535567932762205600738525390625	0.0	18311.51163578030173084698617458343505859375	0.0	1	1	1	1
3014	S6	2019	5	6	14	711.2880414020579564748913981020450592041015625	649.40642295301995545742101967334747314453125	225.619911561528994070613407529890537261962890625	10.58704824619979945055092684924602508544921875	52.7406625058277001016904250718653202056884765625	3.846987946923949852617852229741401970386505126953125	815.416663885114985532709397375583648681640625	0.0	18036.761820316300145350396633148193359375	0.0	1	1	1	1
3015	S6	2019	5	6	15	486.03827234724798245224519632756710052490234375	284.29855897641601814029854722321033477783203125	288.149956125608014190220274031162261962890625	10.3862675512340008054934514802880585193634033203125	48.41830978930830298168075387366116046905517578125	4.03063379333052029807049621012993156909942626953125	498.66666644811499509160057641565799713134765625	0.0	11850.141649444800350465811789035797119140625	0.0	1	1	1	1
3016	S6	2019	5	6	16	424.2676411062039960597758181393146514892578125	368.0000947234419754749978892505168914794921875	218.13002593551800600835122168064117431640625	10.2489854978477996638730473932810127735137939453125	51.79739139943880132932463311590254306793212890625	4.24608696655950001996870923903770744800567626953125	452.91666686534898644822533242404460906982421875	0.0	11529.82950210560011328198015689849853515625	0.0	1	1	1	1
3017	S6	2019	5	6	17	439.9934263737239916736143641173839569091796875	702.4584418596290333880460821092128753662109375	113.7062108417929948700475506484508514404296875	10.437869856343400698506229673512279987335205078125	50.2813608293702003493308438919484615325927734375	4.006804736055560312024681479670107364654541015625	503.00000359614597300605964846909046173095703125	0.0	12389.478504657699886593036353588104248046875	0.0	1	1	1	1
3018	S6	2019	5	6	18	266.9060421770769835347891785204410552978515625	454.56437181833797467334079556167125701904296875	124.16550168935299325312371365725994110107421875	9.8912280986183507280884441570378839969635009765625	50.54385982758810058612652937881648540496826171875	4.312573094117009731007783557288348674774169921875	264.16666805744097246133605949580669403076171875	0.0	7251.998980840069634723477065563201904296875	0.0	1	1	1	1
3019	S6	2019	5	6	19	127.5309798240659944212893606163561344146728515625	350.92227824313698647529236041009426116943359375	61.45037217140190222153250942938029766082763671875	9.410555521647129495477201999165117740631103515625	48.30388880835629805687858606688678264617919921875	4.71944444990819977903129256446845829486846923828125	89.166667467604298735750489868223667144775390625	0.0	3011.05191682775011940975673496723175048828125	0.0	1	1	1	1
3020	S6	2019	5	6	20	22.74543235989219880366363213397562503814697265625	61.9733710362180971742418478243052959442138671875	21.910132112876301135884204995818436145782470703125	8.3562278085756105383552494458854198455810546875	53.19715324754810126250959001481533050537109375	4.174733097018719973902989295311272144317626953125	12.5833333877379995868750484078191220760345458984375	0.0	481.78269745160997672428493387997150421142578125	0.0	1	1	1	1
3021	S6	2019	5	6	21	0	0	0	0	0	0	0	0.0	9.6790919002764308487485322984866797924041748046875	0.0	1	1	1	0
3022	S6	2019	5	6	22	0	0	0	0	0	0	0	0.0	0	0.0	1	1	1	0
3023	S6	2019	5	6	23	0	0	0	0	0	0	0	0.0	0	0.0	1	1	1	0
3024	S6	2019	5	6	24	0	0	0	0	0	0	0	0.0	0	0.0	1	1	1	0
3025	S6	2019	5	7	1	0	0	0	0	0	0	0	0.0	0	0.0	1	1	1	0
3026	S6	2019	5	7	2	0	0	0	0	0	0	0	0.0	0	0.0	1	1	1	0
3027	S6	2019	5	7	3	0	0	0	0	0	0	0	0.0	0	0.0	1	1	1	0
3028	S6	2019	5	7	4	0	0	0	0	0	0	0	0.0	0	0.0	1	1	1	0
3029	S6	2019	5	7	5	15.7995293206637992255991775891743600368499755859375	1.32170711519817007939536779304035007953643798828125	16.276603711975898391983719193376600742340087890625	4.87222234408060028698628229903988540172576904296875	82.9652779897053989088817615993320941925048828125	2.629166656898120013607922373921610414981842041015625	6.083333311835350087903862004168331623077392578125	0.0	249.393135930101010444559506140649318695068359375	0.0	1	1	1	1
3030	S6	2019	5	7	6	101.26206336551200593021349050104618072509765625	222.668525557385009960853494703769683837890625	64.391053602430503133291495032608509063720703125	5.06166666878594018186277025961317121982574462890625	81.783333757188501067503239028155803680419921875	2.036666665060649972218698167125694453716278076171875	46.16666693861269976650874014012515544891357421875	0.0	2258.22810828684987427550368010997772216796875	0.0	1	1	1	1
3031	S6	2019	5	7	7	193.5995470206399886592407710850238800048828125	249.6812782088339872643700800836086273193359375	120.3905057879619988625563564710319042205810546875	6.49682994122462975639109572512097656726837158203125	74.8077806808075962408111081458628177642822265625	3.217002879989249830572362043312750756740570068359375	141.16666528085801246561459265649318695068359375	0.0	4914.0629967053801010479219257831573486328125	0.0	1	1	1	1
3032	S6	2019	5	7	8	288.999337567393013159744441509246826171875	270.7032986945999937233864329755306243896484375	177.857272353586012059167842380702495574951171875	7.59324759149091033094691738369874656200408935546875	67.51446952697159531453507952392101287841796875	3.687138266310430179117929583298973739147186279296875	265.4999991257969895741553045809268951416015625	0.0	7700.1236478487599015352316200733184814453125	0.0	1	1	1	1
3033	S6	2019	5	7	9	495.627428667680987928179092705249786376953125	529.699356420396043176879175007343292236328125	205.5863725816880105412565171718597412109375	8.4024024668398507031952249235473573207855224609375	62.219519686770496491590165533125400543212890625	4.0264264292366096498199112829752266407012939453125	470.74999784430002591761876828968524932861328125	0.0	12463.527272144900052808225154876708984375	0.0	1	1	1	1
3034	S6	2019	5	7	10	482.88033113479599478523596189916133880615234375	366.86280494162298282390111126005649566650390625	243.7614601135250040897517465054988861083984375	9.0715625107288300199570585391484200954437255859375	57.8081249594687989201702293939888477325439453125	3.404687494691459814788458970724605023860931396484375	529.0833351512750368783599697053432464599609375	0.0	13706.354409456200301065109670162200927734375	0.0	1	1	1	1
3035	S6	2019	5	7	11	508.28152451470299411084852181375026702880859375	380.94548405931101342503097839653491973876953125	232.30094775735000212080194614827632904052734375	9.307210031347960210723613272421061992645263671875	56.45736670419339731097352341748774051666259765625	3.350470218258589927273760622483678162097930908203125	603.83333638310296009876765310764312744140625	0.0	15730.144709348600372322835028171539306640625	0.0	1	1	1	1
3036	S6	2019	5	7	12	407.6784915983120072269230149686336517333984375	169.90231064048299458590918220579624176025390625	274.81302994766400615844759158790111541748046875	9.7424148878445908650292039965279400348663330078125	54.90990705460580301178197260014712810516357421875	3.340557270282559887419893129845149815082550048828125	494.8333315551279838473419658839702606201171875	0.0	12297.02359437939958297647535800933837890625	0.0	1	1	1	1
3037	S6	2019	5	7	13	585.154468994139961068867705762386322021484375	500.2760072497629835197585634887218475341796875	196.517280095417987695327610708773136138916015625	10.0120000871021996857734848163090646266937255859375	54.50933325449619815117330290377140045166015625	3.567666667898489851751264723134227097034454345703125	677.083332091566035160212777554988861083984375	0.0	17239.0492260456012445501983165740966796875	0.0	1	1	1	1
3038	S6	2019	5	7	14	737.9007106421560138187487609684467315673828125	658.5769628039510052985860966145992279052734375	253.526514766426004143795580603182315826416015625	10.8455926495119996388893923722207546234130859375	48.1489360658593028574614436365664005279541015625	3.965349542696059881308201511274091899394989013671875	944.916655619940001997747458517551422119140625	0.0	23342.079639434799901209771633148193359375	0.0	1	1	1	1
3039	S6	2019	5	7	15	354.2212103632570006084279157221317291259765625	147.481257374177999963649199344217777252197265625	250.876661227858988922889693640172481536865234375	9.2816793645611195273659177473746240139007568359375	62.96603022276899963571850094012916088104248046875	2.796946563679750141773183713667094707489013671875	341.166665156684985049651004374027252197265625	0.0	9586.313034097349373041652143001556396484375	0.0	1	1	1	1
3040	S6	2019	5	7	16	370.80984057999700098662287928164005279541015625	156.99800018995898653884069062769412994384765625	282.800672656110009484109468758106231689453125	9.54900287291263083488956908695399761199951171875	59.03390342082050068484022631309926509857177734375	2.878062677858900020311239131842739880084991455078125	415.50000011920900533368694595992565155029296875	0.0	11448.604673147199719096533954143524169921875	0.0	1	1	1	1
3041	S6	2019	5	7	17	388.48626867638398607596172951161861419677734375	531.2421641881550158359459601342678070068359375	135.0959313768850051928893662989139556884765625	10.590825637910700862676094402559101581573486328125	50.79051988934150330123884486965835094451904296875	3.18134556633251985857668842072598636150360107421875	407.00000151991702068698941729962825775146484375	0.0	10793.539995948400246561504900455474853515625	0.0	1	1	1	1
3042	S6	2019	5	7	18	284.7399260577029735941323451697826385498046875	451.24298037434101615872350521385669708251953125	144.22438485281799103177036158740520477294921875	10.0537814159019003312778295367024838924407958984375	50.54789912333340140548898489214479923248291015625	3.52436975153888010225955440546385943889617919921875	275.83333104848799166575190611183643341064453125	0.0	6968.0469334125400564516894519329071044921875	0.0	1	1	1	1
3043	S6	2019	5	7	19	87.3427059385511057598705519922077655792236328125	112.8463201373809994265684508718550205230712890625	64.98510227203360045677982270717620849609375	9.392777803209089171332379919476807117462158203125	54.74611121283629699973971582949161529541015625	3.26277778496343984215855016373097896575927734375	72.74999935179920385053264908492565155029296875	0.0	1895.80124740799010396585799753665924072265625	0.0	1	1	1	1
3044	S6	2019	5	7	20	41.8312006528797013515941216610372066497802734375	110.65286418603699303275789134204387664794921875	34.56456433652289916835798067040741443634033203125	8.8201717163871791171914082951843738555908203125	57.2759657110779016875312663614749908447265625	2.4060085816188898633072312804870307445526123046875	19.41666689041679916272187256254255771636962890625	0.0	670.7190472322190544218756258487701416015625	0.0	1	1	1	1
3045	S6	2019	5	7	21	0	0	0	0	0	0	0	0.0	12.6128417517368003331057479954324662685394287109375	0.0	1	1	1	0
3046	S6	2019	5	7	22	0	0	0	0	0	0	0	0.0	0	0.0	1	1	1	0
3047	S6	2019	5	7	23	0	0	0	0	0	0	0	0.0	0	0.0	1	1	1	0
3048	S6	2019	5	7	24	0	0	0	0	0	0	0	0.0	0	0.0	1	1	1	0
3049	S6	2019	5	8	1	0	0	0	0	0	0	0	0.0	0	0.0	1	1	1	0
3050	S6	2019	5	8	2	0	0	0	0	0	0	0	0.0	0	0.0	1	1	1	0
3051	S6	2019	5	8	3	0	0	0	0	0	0	0	0.0	0	0.0	1	1	1	0
3052	S6	2019	5	8	4	0	0	0	0	0	0	0	0.0	0	0.0	1	1	1	0
3053	S6	2019	5	8	5	9.322675684266830131718961638398468494415283203125	0.2122994461212270034256022199770086444914340972900390625	9.620677986420869132189181982539594173431396484375	4.985124000833049962011500610969960689544677734375	83.438842836490294985196669586002826690673828125	0.898347109063597049072313893702812492847442626953125	3.58333335801335994830196796101517975330352783203125	0.0	116.26696695263200354020227678120136260986328125	0.0	1	1	1	1
3054	S6	2019	5	8	6	33.688328284687401037444942630827426910400390625	0.26901244140333602228309928250382654368877410888671875	33.99495637151930083064144128002226352691650390625	4.81416678031285005801009901915676891803741455078125	85.3916667938232052392777404747903347015380859375	1.360833332522040084455738906399346888065338134765625	30.916666612029001015571338939480483531951904296875	0.0	921.293816218774963999749161303043365478515625	0.0	1	1	1	1
3055	S6	2019	5	8	7	76.6371214124890940411205519922077655792236328125	0.3722630713135000046776212911936454474925994873046875	76.8836199230618007049997686408460140228271484375	5.11833334366480041666136457934044301509857177734375	85.241666603088305009805480949580669403076171875	1.6674999957283300755506161294761113822460174560546875	72.4166662742699003274537972174584865570068359375	0.0	2187.57868309815012253238819539546966552734375	0.0	1	1	1	1
3056	S6	2019	5	8	8	231.743973837958009198700892738997936248779296875	42.83253240386640214865110465325415134429931640625	213.436142052543999625413562171161174774169921875	6.99250005086263026754522798000834882259368896484375	83.9925003687539941665818332694470882415771484375	2.437222220831440022692504498991183936595916748046875	210.166665414969003222722676582634449005126953125	0.0	6220.7938283682096880511380732059478759765625	0.0	1	1	1	1
3057	S6	2019	5	8	9	100.0713194211320029580747359432280063629150390625	0.454209526090158022260112602452863939106464385986328125	100.0325650850929974922109977342188358306884765625	8.412500047683710846513349679298698902130126953125	79.3683332443236935205277404747903347015380859375	1.5255555512176599552986999697168357670307159423828125	90.41666767249489566893316805362701416015625	0.0	2821.10091050465007356251589953899383544921875	0.0	1	1	1	1
3058	S6	2019	5	8	10	395.42233346321501130660180933773517608642578125	73.90923775762399827726767398416996002197265625	343.8356380080080043626367114484310150146484375	10.28825215282270022498778416775166988372802734375	69.625501419548299963935278356075286865234375	1.4191977054649200784552931509097106754779815673828125	411.83333595593700238168821670114994049072265625	0.0	11414.124011993399108177982270717620849609375	0.0	1	1	1	1
3059	S6	2019	5	8	11	290.1393884680729797764797694981098175048828125	50.9350754817807995777911855839192867279052734375	250.8624463574629999129683710634708404541015625	12.1919540619028001771084745996631681919097900390625	61.7439658175939030115841887891292572021484375	0.75201149473245099130735979997552931308746337890625	311.1666639645890199972200207412242889404296875	0.0	8795.684933662420007749460637569427490234375	0.0	1	1	1	1
3060	S6	2019	5	8	12	436.79073526889402501183212734758853912353515625	149.641301715250989445848972536623477935791015625	319.24991767014097376886638812720775604248046875	12.7303797232953002094291150569915771484375	56.1066455841064026799358543939888477325439453125	2.246835437473610141978497267700731754302978515625	477.83333559831197590028750710189342498779296875	0.0	12806.4891894657994271256029605865478515625	0.0	1	1	1	1
3061	S6	2019	5	8	13	352.10380390540200323812314309179782867431640625	125.949546589617995095977676101028919219970703125	252.5871036902580044625210575759410858154296875	11.929022187314199499041933449916541576385498046875	65.2750784696464023681983235292136669158935546875	2.70694005959416994500088549102656543254852294921875	364.00000254312902825404307805001735687255859375	0.0	9628.30650309723932878114283084869384765625	0.0	1	1	1	1
3062	S6	2019	5	8	14	575.639399937221014624810777604579925537109375	387.4278796396159805226488970220088958740234375	287.8694693087189762081834487617015838623046875	12.8296918815590998974585090763866901397705078125	55.72633056213199864714624709449708461761474609375	3.4941176441537198371634076465852558612823486328125	719.999997566141018978669308125972747802734375	0.0	18968.38988860440076678059995174407958984375	0.0	1	1	1	1
3063	S6	2019	5	8	15	393.6099759419749943845090456306934356689453125	99.3655122346348065320853493176400661468505859375	322.70860968695700421449146233499050140380859375	12.6074999411899995038766064681112766265869140625	53.65250012079869890158079215325415134429931640625	3.718055553899870080414302719873376190662384033203125	433.9166606465950053461710922420024871826171875	0.0	12069.283823172199845430441200733184814453125	0.0	1	1	1	1
3064	S6	2019	5	8	16	323.74852879842097763685160316526889801025390625	27.375276566876298289798796758987009525299072265625	307.005990261500983251607976853847503662109375	12.18250002861019964939259807579219341278076171875	55.94999987284339937332333647646009922027587890625	2.972499994768030173730721799074672162532806396484375	315.6666681170460151406587101519107818603515625	0.0	9275.01974503197925514541566371917724609375	0.0	1	1	1	1
3065	S6	2019	5	8	17	205.748093414305998294366872869431972503662109375	5.24098246975076964560003034421242773532867431640625	203.599292500812993012004881165921688079833984375	12.0783333539962001168532879091799259185791015625	53.2483333905536966312865843065083026885986328125	3.35361110617717006476823371485807001590728759765625	186.833333224056985955030540935695171356201171875	0.0	5584.7457150618201922043226659297943115234375	0.0	1	1	1	1
3066	S6	2019	5	8	18	86.4328166325886968479608185589313507080078125	0.53518647933378804548709695154684595763683319091796875	86.6027273284064023073369753547012805938720703125	11.894166477521199709599386551417410373687744140625	50.5875001271565025717791286297142505645751953125	3.394999987880380043492323238751851022243499755859375	74.8333338027194940877961926162242889404296875	0.0	2326.52589554586984377237968146800994873046875	0.0	1	1	1	1
3067	S6	2019	5	8	19	32.567098445202901757511426694691181182861328125	0.24318335950475400419890092962305061519145965576171875	32.9517863974513005587141378782689571380615234375	11.354819254702800179757105070166289806365966796875	55.19608430977319812882342375814914703369140625	3.47319276846315982965052171493880450725555419921875	27.1666666182376985716473427601158618927001953125	0.0	920.330855995415959114325232803821563720703125	0.0	1	1	1	1
3068	S6	2019	5	8	20	10.7556465981162006073645898140966892242431640625	0.2216179510317390077833721306888037361204624176025390625	10.9376339828856004032786586321890354156494140625	11.159813092133699541363967000506818294525146484375	58.26028028826839744169774348847568035125732421875	3.2705607447668700871190594625659286975860595703125	5.4166668463342997341669615707360208034515380859375	0.0	214.119799047087013832424418069422245025634765625	0.0	1	1	1	1
3069	S6	2019	5	8	21	0	0	0	0	0	0	0	0.0	0	0.0	1	1	1	0
3070	S6	2019	5	8	22	0	0	0	0	0	0	0	0.0	0	0.0	1	1	1	0
3071	S6	2019	5	8	23	0	0	0	0	0	0	0	0.0	0	0.0	1	1	1	0
3072	S6	2019	5	8	24	0	0	0	0	0	0	0	0.0	0	0.0	1	1	1	0
3073	S6	2019	5	9	1	0	0	0	0	0	0	0	0.0	0	0.0	1	1	1	0
3074	S6	2019	5	9	2	0	0	0	0	0	0	0	0.0	0	0.0	1	1	1	0
3075	S6	2019	5	9	3	0	0	0	0	0	0	0	0.0	0	0.0	1	1	1	0
3076	S6	2019	5	9	4	0	0	0	0	0	0	0	0.0	0	0.0	1	1	1	0
3077	S6	2019	5	9	5	3.25171526236746988303139005438424646854400634765625	0.204428364712048005191746824493748135864734649658203125	3.317744223204079911937469660188071429729461669921875	8.7983738658874006688392910291440784931182861328125	89.1853659404971068624945473857223987579345703125	2.809756090485949986401692513027228415012359619140625	0.75000001622053302785531059271306730806827545166015625	0.0	27.1431415652235017432758468203246593475341796875	0.0	1	1	1	1
3078	S6	2019	5	9	6	8.5938402242130695896094039198942482471466064453125	0.22582008869697600683679183930507861077785491943359375	8.622750734620620249870626139454543590545654296875	8.70700279738053950495668686926364898681640625	91.17527811262340264875092543661594390869140625	2.8714285744171501590926709468476474285125732421875	7.4999999875823704087451915256679058074951171875	0.0	243.31709975376799093282897956669330596923828125	0.0	1	1	1	1
3079	S6	2019	5	9	7	30.350723754035101364934234879910945892333984375	0.264668842425775985294222891752724535763263702392578125	30.3824895355435984356518019922077655792236328125	8.795277773009399169268363039009273052215576171875	93.1297222349378017725030076690018177032470703125	2.49972221727171994842819913174025714397430419921875	28.0000002433855996741840499453246593475341796875	0.0	856.4169543484839550728793255984783172607421875	0.0	1	1	1	1
3080	S6	2019	5	9	8	62.14922551049119903154860367067158222198486328125	0.33842193144890997391627252000034786760807037353515625	62.24310437308410115520018734969198703765869140625	9.1261111921734201501976713188923895359039306640625	94.0161112467446997698061750270426273345947265625	2.414444440272109915213150088675320148468017578125	55.166667016844002091602305881679058074951171875	0.0	1686.8974591294900164939463138580322265625	0.0	1	1	1	1
3081	S6	2019	5	9	9	99.19303205278180257664644159376621246337890625	0.448811832525662979254121864869375713169574737548828125	99.2353990872700961745067615993320941925048828125	9.550555486149249873051303438842296600341796875	94.2530563990274998786844662390649318695068359375	1.88138888759745004364276610431261360645294189453125	88.916666495302905559583450667560100555419921875	0.0	2678.85998388131019964930601418018341064453125	0.0	1	1	1	1
3082	S6	2019	5	9	10	357.70975662273900752552435733377933502197265625	55.42654021743229719731971272267401218414306640625	319.75182117260197856012382544577121734619140625	11.08022288426050039333858876489102840423583984375	90.4064072632856010613977559842169284820556640625	1.5264623942979500537120429726201109588146209716796875	356.4999978989350211122655309736728668212890625	0.0	10139.834781487699729041196405887603759765625	0.0	1	1	1	1
3083	S6	2019	5	9	11	323.3974888059819932095706462860107421875	7.74506236002263026563241510302759706974029541015625	316.35175988938999580568633973598480224609375	12.4869444608688002773533298750407993793487548828125	82.832777659098297817763523198664188385009765625	1.203333330651120025578393324394710361957550048828125	318.75000273188101118648773990571498870849609375	0.0	9152.402679125449139974080026149749755859375	0.0	1	1	1	1
3084	S6	2019	5	9	12	357.37359866702098543100873939692974090576171875	7.75101832742476037907408681348897516727447509765625	349.43686574750199724803678691387176513671875	13.6191740542386003909314240445382893085479736328125	77.40530973901439892870257608592510223388671875	1.456932151915399931141337219742126762866973876953125	335.1666666567319907699129544198513031005859375	0.0	9571.44484917322915862314403057098388671875	0.0	1	1	1	1
3085	S6	2019	5	9	13	402.371772615673990003415383398532867431640625	58.582453628912702470188378356397151947021484375	353.2861289440739938072510994970798492431640625	14.9653520772153996176712098531424999237060546875	69.5923939449686059788291458971798419952392578125	1.5670422519596500787741888416348956525325775146484375	427.50000208616302188602276146411895751953125	0.0	11627.316574255599334719590842723846435546875	0.0	1	1	1	1
3086	S6	2019	5	9	14	513.8395984255030271015129983425140380859375	264.601064711509025073610246181488037109375	313.62249545393302696538739837706089019775390625	16.20603446850829953973516239784657955169677734375	60.00890816217179946079340879805386066436767578125	1.5658045984033799324919300488545559346675872802734375	613.41667175293105174205265939235687255859375	0.0	15584.328114986399668850935995578765869140625	0.0	1	1	1	1
3087	S6	2019	5	9	15	351.0331464887730135160381905734539031982421875	156.54071432234098892877227626740932464599609375	240.594830807980002873591729439795017242431640625	16.534534654817701238016525167040526866912841796875	56.62222215578000117375268018804490566253662109375	1.486786788111329915551550584495998919010162353515625	377.58333360155501168264891020953655242919921875	0.0	9799.996862808869991567917168140411376953125	0.0	1	1	1	1
3088	S6	2019	5	9	16	390.0345203801770139762083999812602996826171875	254.78126641559998688535415567457675933837890625	246.908961021662008761268225498497486114501953125	16.304558392603500038831043639220297336578369140625	58.1601138753429012240303563885390758514404296875	1.8088319040091900280486925112199969589710235595703125	441.8333272139240079923183657228946685791015625	0.0	11529.89835540450076223351061344146728515625	0.0	1	1	1	1
3089	S6	2019	5	9	17	320.30510179133801784701063297688961029052734375	247.840988794802996153521235100924968719482421875	207.376641341424004849613993428647518157958984375	16.917663748108001442460590624250471591949462890625	55.6091169373600990866179927252233028411865234375	1.5555555531781599665208659644122235476970672607421875	311.3333334525419786587008275091648101806640625	0.0	8309.68200167020040680654346942901611328125	0.0	1	1	1	1
3090	S6	2019	5	9	18	259.469492923007010176661424338817596435546875	405.525983045610018962179310619831085205078125	131.84256266476000973852933384478092193603515625	16.728932611058201729292704840190708637237548828125	55.50477541162720029888077988289296627044677734375	1.537078649140469988054746863781474530696868896484375	252.83333783348399492751923389732837677001953125	0.0	6221.0801939169396064244210720062255859375	0.0	1	1	1	1
3091	S6	2019	5	9	19	165.047084045410002772769075818359851837158203125	399.49572050306500159422284923493862152099609375	86.194440333048504498947295360267162322998046875	16.420000018013798381844026152975857257843017578125	57.85611112382670029319342575035989284515380859375	1.06000000048013998110718603129498660564422607421875	125.0833319500080023090049508027732372283935546875	0.0	3096.97378675142999782110564410686492919921875	0.0	1	1	1	1
3092	S6	2019	5	9	20	36.55994055957609845108891022391617298126220703125	70.290355526621596027325722388923168182373046875	30.6688333989664982937028980813920497894287109375	13.9594427085144001665639734710566699504852294921875	71.9547985537501944008909049443900585174560546875	1.39628483239710998731197832967154681682586669921875	19.500000285915998432528795092366635799407958984375	0.0	705.7275020827850084970123134553432464599609375	0.0	1	1	1	1
3093	S6	2019	5	9	21	0	0	0	0	0	0	0.250000011874365990482971255914890207350254058837890625	0.0	34.1009666056686029378397506661713123321533203125	0.0	1	1	1	0
3094	S6	2019	5	9	22	0	0	0	0	0	0	0	0.0	0	0.0	1	1	1	0
3095	S6	2019	5	9	23	0	0	0	0	0	0	0	0.0	0	0.0	1	1	1	0
3096	S6	2019	5	9	24	0	0	0	0	0	0	0	0.0	0	0.0	1	1	1	0
3097	S6	2019	5	10	1	0	0	0	0	0	0	0	0.0	0	0.0	1	1	1	0
3098	S6	2019	5	10	2	0	0	0	0	0	0	0	0.0	0	0.0	1	1	1	0
3099	S6	2019	5	10	3	0	0	0	0	0	0	0	0.0	0	0.0	1	1	1	0
3100	S6	2019	5	10	4	0	0	0	0	0	0	0	0.0	0	0.0	1	1	1	0
3101	S6	2019	5	10	5	17.043893932825000092634581960737705230712890625	7.00054508138433018160640131100080907344818115234375	17.02464738853360159964722697623074054718017578125	6.5988142970993504121679507079534232616424560546875	97.432806685979102212513680569827556610107421875	1.4039525684160600871308588466490618884563446044921875	9.916666633216589588073475169949233531951904296875	0.0	319.72529774065998253718134947121143341064453125	0.0	1	1	1	1
3102	S6	2019	5	10	6	121.9464114037420046088300296105444431304931640625	141.13091057538900940926396287977695465087890625	98.27474079348820623636129312217235565185546875	7.9698863246224096457126506720669567584991455078125	97.5366474281656934408601955510675907135009765625	1.2684659085829099733899738566833548247814178466796875	72.4166672055921054607097175903618335723876953125	0.0	2311.2514701982299811788834631443023681640625	0.0	1	1	1	1
3103	S6	2019	5	10	7	173.2848714411940136415068991482257843017578125	39.2156225228896033740966231562197208404541015625	162.766406640239011949233827181160449981689453125	8.772701107222449223854709998704493045806884765625	97.63907982837190502323210239410400390625	2.18218389812899005164581467397511005401611328125	148.33333467443799236207269132137298583984375	0.0	4404.4098059336201913538388907909393310546875	0.0	1	1	1	1
3104	S6	2019	5	10	8	262.72568636888598803125205449759960174560546875	18.462774627128499815853501786477863788604736328125	254.810216379444000267540104687213897705078125	8.67602334942733932621194981038570404052734375	97.5695903398837032227675081230700016021728515625	2.30701754194253982888085374725051224231719970703125	223.5833307107290011117584072053432464599609375	0.0	6594.4821139176701763062737882137298583984375	0.0	1	1	1	1
3105	S6	2019	5	10	9	282.5975383769469999606371857225894927978515625	9.188146942908890224543938529677689075469970703125	277.343376837349978814017958939075469970703125	9.46275077098420069887652061879634857177734375	92.2893981496379041118416353128850460052490234375	2.113180509952549801511167970602400600910186767578125	249.50000147024599073120043613016605377197265625	0.0	7369.9265221754803860676474869251251220703125	0.0	1	1	1	1
3106	S6	2019	5	10	10	218.639468256632000020545092411339282989501953125	0.83327033751540702244398062248365022242069244384765625	217.969505733912995992795913480222225189208984375	9.7222221480475496946382918395102024078369140625	91.168888939751496991448220796883106231689453125	1.911111108130870039900628398754633963108062744140625	198.4166664381820055496064014732837677001953125	0.0	5862.5878592332401240128092467784881591796875	0.0	1	1	1	1
3107	S6	2019	5	10	11	296.17164751688602564172470010817050933837890625	1.18640533776745993321810601628385484218597412109375	294.96704762776602137819281779229640960693359375	10.650555504692899688734541996382176876068115234375	89.013889227973095330526120960712432861328125	2.093333327273520172440157693927176296710968017578125	266.66666815678200919137452729046344757080078125	0.0	7735.3409677743902648217044770717620849609375	0.0	1	1	1	1
3108	S6	2019	5	10	12	66.124397121978603308889432810246944427490234375	0.251418771615417979692352901111007668077945709228515625	65.5465938627487929579729097895324230194091796875	11.33151753125019922663341276347637176513671875	88.21984441734929305312107317149639129638671875	1.0147859955112199514815074508078396320343017578125	38.58333414730890353894210420548915863037109375	0.0	1269.70192976294993059127591550350189208984375	0.0	1	1	1	1
3109	S6	2019	5	10	13	100.2303990258109962496746447868645191192626953125	0.774235130432578966264145492459647357463836669921875	100.171135881211995410922099836170673370361328125	10.105555558204599719829275272786617279052734375	94.11166600121390501954010687768459320068359375	0.7211111151509810301973857349366880953311920166015625	100.8333337182800022446826915256679058074951171875	0.0	2969.8881184061401654616929590702056884765625	0.0	1	1	1	1
3110	S6	2019	5	10	14	300.64427672492098508882918395102024078369140625	30.107171144046699140517375781200826168060302734375	279.3403959486209942042478360235691070556640625	12.278333383136299516991130076348781585693359375	88.1030553817748938172371708787977695465087890625	1.581944442871539902029098811908625066280364990234375	305.1666667064019975441624410450458526611328125	0.0	8667.7422175804895232431590557098388671875	0.0	1	1	1	1
3111	S6	2019	5	10	15	333.4384171726600243346183560788631439208984375	143.121099490180995417176745831966400146484375	230.407842910326991159308818168938159942626953125	13.1031949223040005136908803251571953296661376953125	79.537379718816993090513278730213642120361328125	1.727476033349379935799561280873604118824005126953125	306.41666923960002577587147243320941925048828125	0.0	8340.6434406836997368372976779937744140625	0.0	1	1	1	1
3112	S6	2019	5	10	16	169.514182864388004645661567337810993194580078125	4.64151002577667970427910404396243393421173095703125	166.78154993197898647849797271192073822021484375	12.15516222050749917116263532079756259918212890625	80.8690266341938013283652253448963165283203125	1.9436578136981399467231312883086502552032470703125	151.750001125036988014471717178821563720703125	0.0	4449.53825076420980622060596942901611328125	0.0	1	1	1	1
3113	S6	2019	5	10	17	99.8912204425451051292839110828936100006103515625	0.366410635071166002063591804471798241138458251953125	100.2259972252609969700642977841198444366455078125	11.666762245418599519553026766516268253326416015625	76.619484275664802908067940734326839447021484375	2.242979938628680169898643725900910794734954833984375	88.33333353201550153244170360267162322998046875	0.0	2660.20172834395998506806790828704833984375	0.0	1	1	1	1
3114	S6	2019	5	10	18	85.4320797178479978128962102346122264862060546875	0.31951127366887199787726103750173933804035186767578125	85.57177687750919403697480447590351104736328125	11.608055618074200054934408399276435375213623046875	73.9369444741142984867110499180853366851806640625	2.39083332228991007895047005149535834789276123046875	76.9166670118766973018864518962800502777099609375	0.0	2304.221332073209850932471454143524169921875	0.0	1	1	1	1
3115	S6	2019	5	10	19	31.053667709562500220954461838118731975555419921875	0.185388906641551998166761450193007476627826690673828125	31.2965628279579988202385720796883106231689453125	11.01472219096280014127842150628566741943359375	74.1163887235853025003962102346122264862060546875	2.2497222243083800918839187943376600742340087890625	25.916666879008200652378945960663259029388427734375	0.0	802.401006221771012860699556767940521240234375	0.0	1	1	1	1
3116	S6	2019	5	10	20	22.1793045385337990182961220853030681610107421875	2.9376335922911298581539085716940462589263916015625	22.42595046967380056912588770501315593719482421875	10.6544747111397999361770416726358234882354736328125	75.5463036860008969597402028739452362060546875	1.712062256577409957714053234667517244815826416015625	13.9999999664723002723576428252272307872772216796875	0.0	441.61073925594399725014227442443370819091796875	0.0	1	1	1	1
3117	S6	2019	5	10	21	0	0	0	0	0	0	0.08333333729145829538165202166055678389966487884521484375	0.0	28.951499727554701024700989364646375179290771484375	0.0	1	1	1	0
3118	S6	2019	5	10	22	0	0	0	0	0	0	0	0.0	0	0.0	1	1	1	0
3119	S6	2019	5	10	23	0	0	0	0	0	0	0	0.0	0	0.0	1	1	1	0
3120	S6	2019	5	10	24	0	0	0	0	0	0	0	0.0	0	0.0	1	1	1	0
3121	S6	2019	5	11	1	0	0	0	0	0	0	0	0.0	0	0.0	1	1	1	0
3122	S6	2019	5	11	2	0	0	0	0	0	0	0	0.0	0	0.0	1	1	1	0
3123	S6	2019	5	11	3	0	0	0	0	0	0	0	0.0	0	0.0	1	1	1	0
3124	S6	2019	5	11	4	0	0	0	0	0	0	0	0.0	1.518424949608740082140911908936686813831329345703125	0.0	1	1	1	0
3125	S6	2019	5	11	5	28.747455433545301417552764178253710269927978515625	145.9619152923499996177270077168941497802734375	20.09362454813309994960945914499461650848388671875	4.63824702069103977919439785182476043701171875	87.1848607766199990010136389173567295074462890625	1.10478087666025004409675602801144123077392578125	9.5000000922785705625983609934337437152862548828125	0.0	431.96667288429699738117051310837268829345703125	0.0	1	1	1	0
3126	S6	2019	5	11	6	126.957128429411994829933973960578441619873046875	467.41189498901297838528989814221858978271484375	47.60917342503859828184431535191833972930908203125	6.00861114528443973625826401985250413417816162109375	82.63666657341849486329010687768459320068359375	1.7386111097203300612790144441532902419567108154296875	35.33333291610080095779267139732837677001953125	0.0	1595.702922592550066838157363235950469970703125	0.0	1	1	1	1
3127	S6	2019	5	11	7	262.65817839449101711579714901745319366455078125	585.6708380336109485142515040934085845947265625	85.344117598100098120994516648352146148681640625	7.76761370897293002002470529987476766109466552734375	77.8107952638105047071803710423409938812255859375	1.533522724089289912541289595537818968296051025390625	165.750000936289012543056742288172245025634765625	0.0	4890.793348352110115229152143001556396484375	0.0	1	1	1	1
3128	S6	2019	5	11	8	331.0320666669359752631862647831439971923828125	332.740769655589019748731516301631927490234375	181.459728516728006297853426076471805572509765625	9.06686749515763068529849988408386707305908203125	73.55331326680010306517942808568477630615234375	1.597891564918560103336631073034368455410003662109375	333.083334068455997112323530018329620361328125	0.0	9599.431931972509119077585637569427490234375	0.0	1	1	1	1
3129	S6	2019	5	11	9	520.9091800518880290837842039763927459716796875	592.1272855251360169859253801405429840087890625	195.80612237275499865063466131687164306640625	10.865970110537400472594526945613324642181396484375	64.400298491520601373849785886704921722412109375	1.0994029835978500475590635687694884836673736572265625	501.58332784970497186805005185306072235107421875	0.0	14411.25211119649975444190204143524169921875	0.0	1	1	1	1
3130	S6	2019	5	11	10	659.6221771691670028303633444011211395263671875	700.5064407114440427903900854289531707763671875	192.69977716299200665162061341106891632080078125	11.7600591591828997906077347579412162303924560546875	61.48165683633470024460621061734855175018310546875	0.97751479335790503188974298609537072479724884033203125	739.9999971191090253341826610267162322998046875	0.0	20083.9226841925992630422115325927734375	0.0	1	1	1	1
3131	S6	2019	5	11	11	720.1513042214470488033839501440525054931640625	717.297724063749001288670115172863006591796875	188.017080495386011307346052490174770355224609375	12.40246919349380050334730185568332672119140625	60.24567909005239840780632221139967441558837890625	1.1148148170775800114284947994747199118137359619140625	830.8333332339940398014732636511325836181640625	0.0	21506.55535856879942002706229686737060546875	0.0	1	1	1	1
3132	S6	2019	5	11	12	839.3179996246079781485605053603649139404296875	946.6726120972699618505430407822132110595703125	100.3775925065140057768076076172292232513427734375	13.392757670792999391551347798667848110198974609375	57.65069628957250102985199191607534885406494140625	1.13091921831238995110879841377027332782745361328125	1019.9166635672199845430441200733184814453125	0.0	25773.040572802201495505869388580322265625	0.0	1	1	1	1
3133	S6	2019	5	11	13	844.1615180121519870226620696485042572021484375	965.8754401312929758205427788197994232177734375	85.471643257141096228224341757595539093017578125	13.5333333492279006549097175593487918376922607421875	53.23777762518979983497047214768826961517333984375	1.5574999978144898893361869340878911316394805908203125	1042.333344618459932462428696453571319580078125	0.0	26026.61633491509928717277944087982177734375	0.0	1	1	1	1
3134	S6	2019	5	11	14	804.025454372829017302137799561023712158203125	960.1664369371200109526398591697216033935546875	81.9411686791313940148029359988868236541748046875	13.9538889461093003063751893932931125164031982421875	52.2500001271564968874372425489127635955810546875	1.2736111126012199523671597489737905561923980712890625	997.5000023841829488446819595992565155029296875	0.0	24804.11442120869833161123096942901611328125	0.0	1	1	1	1
3135	S6	2019	5	11	15	719.16278873019700768054462969303131103515625	929.190313720702988575794734060764312744140625	82.29388131035699416315765120089054107666015625	14.62000002861019964939259807579219341278076171875	52.11277792188850099819319439120590686798095703125	1.081111111574700078818977999617345631122589111328125	884.416669607159974475507624447345733642578125	0.0	22242.4725691476996871642768383026123046875	0.0	1	1	1	1
3136	S6	2019	5	11	16	602.6678156534829895463190041482448577880859375	886.675585598414954802137799561023712158203125	80.1899347729152935926322243176400661468505859375	14.8499999894035994429941638372838497161865234375	49.7605554156832994294745731167495250701904296875	1.108333335734069891032049781642854213714599609375	717.000002662339966263971291482448577880859375	0.0	18365.2091423669990035705268383026123046875	0.0	1	1	1	1
3137	S6	2019	5	11	17	468.32233895195798822896904312074184417724609375	821.288345675998016304220072925090789794921875	81.50561580657949889427982270717620849609375	14.2805555396609005214259013882838189601898193359375	49.29666661156539930743747390806674957275390625	1.4219444481862899554158730097697116434574127197265625	525.749998788038965358282439410686492919921875	0.0	13439.335723718000735971145331859588623046875	0.0	1	1	1	1
3138	S6	2019	5	11	18	311.89380635006301645262283273041248321533203125	729.154465882206977767054922878742218017578125	66.09120122345399295227252878248691558837890625	13.6960563283571001846894432674162089824676513671875	50.80591532747509830869603320024907588958740234375	1.226197182964269938310053476016037166118621826171875	310.33333142598297627046122215688228607177734375	0.0	7470.171193281779778772033751010894775390625	0.0	1	1	1	1
3139	S6	2019	5	11	19	164.27922776540100358033669181168079376220703125	567.099759080673948119510896503925323486328125	48.67012887530849951644995599053800106048583984375	12.622777801089799964984194957651197910308837890625	54.0044442918565010813836124725639820098876953125	2.056944444444440023289644159376621246337890625	114.8333325982089974104383145458996295928955078125	0.0	2570.77551384767002673470415174961090087890625	0.0	1	1	1	1
3140	S6	2019	5	11	20	32.3055416014750989006643067114055156707763671875	101.684242020618995638869819231331348419189453125	23.95330319845719913018911029212176799774169921875	11.5881057268722003072980442084372043609619140625	60.8418501967374965033741318620741367340087890625	0.74889868025212502633536360008292831480503082275390625	14.1666667380680006971260809223167598247528076171875	0.0	580.1131417974810347004677169024944305419921875	0.0	1	1	1	1
3141	S6	2019	5	11	21	0	0	0	0	0	0	0.250000011874365990482971255914890207350254058837890625	0.0	37.43616631254540294548860401846468448638916015625	0.0	1	1	1	0
3142	S6	2019	5	11	22	0	0	0	0	0	0	0	0.0	0	0.0	1	1	1	0
3143	S6	2019	5	11	23	0	0	0	0	0	0	0	0.0	0	0.0	1	1	1	0
3144	S6	2019	5	11	24	0	0	0	0	0	0	0	0.0	0	0.0	1	1	1	0
3145	S6	2019	5	12	1	0	0	0	0	0	0	0	0.0	0	0.0	1	1	1	0
3146	S6	2019	5	12	2	0	0	0	0	0	0	0	0.0	0	0.0	1	1	1	0
3147	S6	2019	5	12	3	0	0	0	0	0	0	0	0.0	0	0.0	1	1	1	0
3148	S6	2019	5	12	4	0	0	0	0	0	0	0	0.0	2.567250048741729795409582948195748031139373779296875	0.0	1	1	1	0
3149	S6	2019	5	12	5	30.535257056290401322939942474476993083953857421875	127.99593932139299568007118068635463714599609375	22.21796789127660076701431535184383392333984375	7.19301308294571040136133888154290616512298583984375	86.19607057529759686076431535184383392333984375	2.165065497029809993279059199267067015171051025390625	10.083333414513599990414149942807853221893310546875	0.0	430.58548572783598729074583388864994049072265625	0.0	1	1	1	0
3150	S6	2019	5	12	6	129.564213795131990991649217903614044189453125	457.63318083021300708423950709402561187744140625	49.55139249165849690825780271552503108978271484375	7.87944445345136035285804609884507954120635986328125	82.9683330959743017274377052672207355499267578125	2.084166669017729844881614553742110729217529296875	36.08333381513750026670095394365489482879638671875	0.0	1648.63621940214989081141538918018341064453125	0.0	1	1	1	1
3151	S6	2019	5	12	7	283.74543959518899782779044471681118011474609375	651.630184590130966171273030340671539306640625	85.7483014950806960996487759985029697418212890625	8.9793103289330105098997591994702816009521484375	76.6663793366529944250942207872867584228515625	2.500000001541490046719218298676423728466033935546875	179.00000202159100126664270646870136260986328125	0.0	5320.0324475765000897808931767940521240234375	0.0	1	1	1	1
3152	S6	2019	5	12	8	410.20258473414997979489271529018878936767578125	648.8671367180110109984525479376316070556640625	121.76992887609100080226198770105838775634765625	9.7705882265676802234111164580099284648895263671875	72.593137254901904498183284886181354522705078125	2.608496724000939792631470481865108013153076171875	359.9166659017399751974153332412242889404296875	0.0	10440.307607253400419722311198711395263671875	0.0	1	1	1	1
3153	S6	2019	5	12	9	425.089445410307007477967999875545501708984375	374.99578942038300510830595158040523529052734375	220.79256038784200200097984634339809417724609375	10.65403735415529951069402159191668033599853515625	70.1267078944614041802196879871189594268798828125	2.11149067917595001375730134896002709865570068359375	329.66667041182500952345435507595539093017578125	0.0	9758.80004962285966030322015285491943359375	0.0	1	1	1	1
3154	S6	2019	5	12	10	346.97225568473601242658332921564579010009765625	55.55887048540770223326035193167626857757568359375	306.89832764553801780493813566863536834716796875	10.7471098376146994013424773584119975566864013671875	71.5846817369405954423200455494225025177001953125	2.129190748051410064789479292812757194042205810546875	361.91666622956500987129402346909046173095703125	0.0	10420.406649510099668987095355987548828125	0.0	1	1	1	1
3155	S6	2019	5	12	11	561.5585800924410477819037623703479766845703125	366.41202872014099511943641118705272674560546875	287.2889361440389848212362267076969146728515625	12.0194444155987003597374496166594326496124267578125	66.8620371288723021052646799944341182708740234375	1.9256172824053099379426612358656711876392364501953125	570.2499945958479656837880611419677734375	0.0	15130.487004915799843729473650455474853515625	0.0	1	1	1	1
3156	S6	2019	5	12	12	694.508478536233951672329567372798919677734375	565.1321122671489547428791411221027374267578125	249.01185266073599677838501520454883575439453125	13.1142857786896005478638471686281263828277587890625	61.2555191857474028438446111977100372314453125	1.1834415591188800487287835494498722255229949951171875	733.2499970992430462501943111419677734375	0.0	17882.593562205598573200404644012451171875	0.0	1	1	1	1
3157	S6	2019	5	12	13	831.01280606783302573603577911853790283203125	837.1050617510990150549332611262798309326171875	170.4913008000299896593787707388401031494140625	13.9304615226158006180412485264241695404052734375	54.9855387291541006788975209929049015045166015625	0.98338461591647197135301894377334974706172943115234375	934.1666648785179631886421702802181243896484375	0.0	23034.64633226389923947863280773162841796875	0.0	1	1	1	1
3158	S6	2019	5	12	14	439.17369030048297418034053407609462738037109375	280.2833459247809742009849287569522857666015625	225.850608429351012773622642271220684051513671875	13.436363563909100804494300973601639270782470703125	58.74025998796729908235647599212825298309326171875	0.97500000178039802900542554198182187974452972412109375	525.333330035208973640692420303821563720703125	0.0	13495.530118544900687993504106998443603515625	0.0	1	1	1	1
3159	S6	2019	5	12	15	702.5750969617789678522967733442783355712890625	683.9403039834049877754296176135540008544921875	230.2836577097569943362032063305377960205078125	14.3217948705721997981754611828364431858062744140625	50.02243603192840026849808054976165294647216796875	2.197756405633219944917300381348468363285064697265625	854.9999992052679544940474443137645721435546875	0.0	21876.82173649470132659189403057098388671875	0.0	1	1	1	1
3160	S6	2019	5	12	16	614.1177049219249965972267091274261474609375	834.2930172142190485828905366361141204833984375	122.1717068373090029353988938964903354644775390625	14.384911291697999757843717816285789012908935546875	48.52573960208319903131268802098929882049560546875	1.916568047372539940198521435377188026905059814453125	757.583335042000953762908466160297393798828125	0.0	19257.33101367939889314584434032440185546875	0.0	1	1	1	1
3161	S6	2019	5	12	17	468.5794688754609751413227058947086334228515625	808.3357059054900446426472626626491546630859375	84.4475267834132949928971356712281703948974609375	13.1066666232214998899507918395102024078369140625	58.19222212897400225983801647089421749114990234375	2.41694444550407983030027025961317121982574462890625	524.08332874377401822130195796489715576171875	0.0	13419.509768485999302356503903865814208984375	0.0	1	1	1	1
3162	S6	2019	5	12	18	313.9414981418179877437069080770015716552734375	714.28788706461500623845495283603668212890625	69.1261844846936952535543241538107395172119140625	12.05888886451720054537872783839702606201171875	59.03555550045430067029883502982556819915771484375	2.50194444358348011547832356882281601428985595703125	306.5000002582850129329017363488674163818359375	0.0	7494.7578907013003117754124104976654052734375	0.0	1	1	1	1
3163	S6	2019	5	12	19	162.7203766081059939097031019628047943115234375	535.6906937016379970373236574232578277587890625	51.5998863855997029759237193502485752105712890625	11.2155555831061004568027783534489572048187255859375	58.281666776869002433159039355814456939697265625	2.27749999927149016087923882878385484218597412109375	112.083334165314994379514246247708797454833984375	0.0	2609.5393796761900375713594257831573486328125	0.0	1	1	1	1
3164	S6	2019	5	12	20	33.30657267570489921126863919198513031005859375	105.0775116470720007555428310297429561614990234375	22.89877129034559999354314641095697879791259765625	10.4113636493681998018701051478274166584014892578125	58.9890910235317988963288371451199054718017578125	1.442272722856559941106979749747551977634429931640625	14.25000004625550076298168278299272060394287109375	0.0	603.220992411175984670990146696567535400390625	0.0	1	1	1	1
3165	S6	2019	5	12	21	0	0	0	0	0	0	0.333333339464541023033916644635610282421112060546875	0.0	46.017366073404701865001698024570941925048828125	0.0	1	1	1	0
3166	S6	2019	5	12	22	0	0	0	0	0	0	0	0.0	0	0.0	1	1	1	0
3167	S6	2019	5	12	23	0	0	0	0	0	0	0	0.0	0	0.0	1	1	1	0
3168	S6	2019	5	12	24	0	0	0	0	0	0	0	0.0	0	0.0	1	1	1	0
3169	S6	2019	5	13	1	0	0	0	0	0	0	0	0.0	0	0.0	1	1	1	0
3170	S6	2019	5	13	2	0	0	0	0	0	0	0	0.0	0	0.0	1	1	1	0
3171	S6	2019	5	13	3	0	0	0	0	0	0	0	0.0	0	0.0	1	1	1	0
3172	S6	2019	5	13	4	0	0	0	0	0	0	0	0.0	5.87592514542248967046589314122684299945831298828125	0.0	1	1	1	0
3173	S6	2019	5	13	5	29.134995258372700988047654391266405582427978515625	147.7363072406980109008145518600940704345703125	19.0542743983476015046107931993901729583740234375	7.09202899794647034781291949911974370479583740234375	88.1217391249061989810797967948019504547119140625	1.167753626794910015718187423772178590297698974609375	10.916666651610199778588139452040195465087890625	0.0	462.096075527369976043701171875	0.0	1	1	1	0
3174	S6	2019	5	13	6	131.997983953686997438126127235591411590576171875	506.71139856974201620687381364405155181884765625	42.17313746876180147182822111062705516815185546875	8.5883333550559104452304381993599236011505126953125	83.19277793036559387473971582949161529541015625	1.34333333166109003542487698723562061786651611328125	33.99999982987829838521065539680421352386474609375	0.0	1598.8849711914799627265892922878265380859375	0.0	1	1	1	1
3175	S6	2019	5	13	7	266.57473798231598038910306058824062347412109375	624.8962368098169690711074508726596832275390625	77.9696947552940997638870612718164920806884765625	10.0039772391319008448817839962430298328399658203125	77.864488558335693824119516648352146148681640625	1.5940340908074899228807908002636395394802093505859375	166.99999912331401219489634968340396881103515625	0.0	4962.6707583665602214750833809375762939453125	0.0	1	1	1	1
3176	S6	2019	5	13	8	411.78577301922899778219289146363735198974609375	668.637145610766992831486277282238006591796875	106.2359965380500028686583391390740871429443359375	11.8747058840357997411274482146836817264556884765625	70.6773534213794931702068424783647060394287109375	0.85911764861906203538666204622131772339344024658203125	361.333332955837022382183931767940521240234375	0.0	10429.253538449600455351173877716064453125	0.0	1	1	1	1
3177	S6	2019	5	13	9	577.5664652506510492457891814410686492919921875	862.6903284708649835010874085128307342529296875	87.5401293648613005871084169484674930572509765625	12.847777864668099567779790959320962429046630859375	66.6283333672416944182259612716734409332275390625	1.0547222243414899889302205338026396930217742919921875	586.333339413007024631951935589313507080078125	0.0	16511.40870650609940639697015285491943359375	0.0	1	1	1	1
3178	S6	2019	5	13	10	700.60169277350496486178599298000335693359375	914.799559484285055077634751796722412109375	87.4603091056631996025316766463220119476318359375	13.472980440825100600932273664511740207672119140625	59.68328670406069846876562223769724369049072265625	0.9504178270988139498598457066691480576992034912109375	780.6666692097979876052704639732837677001953125	0.0	21192.19879309329917305149137973785400390625	0.0	1	1	1	1
3179	S6	2019	5	13	11	791.2494605170350041589699685573577880859375	949.9286078559019870226620696485042572021484375	83.532399431864405414671637117862701416015625	13.111666631698600582467406638897955417633056640625	55.79222229851610137529860367067158222198486328125	1.5655555586020100111710462442715652287006378173828125	924.7500052054730304007534869015216827392578125	0.0	24280.50855795530151226557791233062744140625	0.0	1	1	1	1
3180	S6	2019	5	13	12	841.361801656086981893167831003665924072265625	964.8647204928920473321340978145599365234375	81.6938348982069015846718684770166873931884765625	14.06722222434149927039470640011131763458251953125	53.40555561913379989391614799387753009796142578125	0.89694444586833299570827193747390992939472198486328125	1013.0000015099700476639554835855960845947265625	0.0	25877.09709008529898710548877716064453125	0.0	1	1	1	1
3181	S6	2019	5	13	13	844.8314266628680115900351665914058685302734375	972.965739440918014224735088646411895751953125	74.9531868616738989885561750270426273345947265625	13.9061111662122005583341888268478214740753173828125	50.76666666666660177043013391084969043731689453125	1.0116666665507600963991308162803761661052703857421875	1040.250013271959915073239244520664215087890625	0.0	26220.71897983549933996982872486114501953125	0.0	1	1	1	1
3182	S6	2019	5	13	14	771.02939930791399092413485050201416015625	850.8659338716139473035582341253757476806640625	122.578896497643000884636421687901020050048828125	13.8298550481380999599423375912010669708251953125	49.93884061730420143021547119133174419403076171875	1.100000000345529915790621089399792253971099853515625	972.7499932050659481319598853588104248046875	0.0	24282.53092368440047721378505229949951171875	0.0	1	1	1	1
3183	S6	2019	5	13	15	470.1000568096450251687201671302318572998046875	428.87375578595998604214400984346866607666015625	176.61857032188999028221587650477886199951171875	12.6686154233492000997784998617134988307952880859375	49.86307688786430247773751034401357173919677734375	1.35969230917782990530895403935573995113372802734375	613.1666625539450024007237516343593597412109375	0.0	15333.820343017499908455647528171539306640625	0.0	1	1	1	1
3184	S6	2019	5	13	16	556.5622663553050415430334396660327911376953125	556.0944287455660060004447586834430694580078125	216.20281221687400829978287220001220703125	13.1901734137121007250925686093978583812713623046875	51.28208109684759818946986342780292034149169921875	1.5445086726046699521219807138550095260143280029296875	619.2500007649249482710729353129863739013671875	0.0	16345.317721366800469695590436458587646484375	0.0	1	1	1	1
3185	S6	2019	5	13	17	352.34296251379902287226286716759204864501953125	359.04791655835697383736260235309600830078125	186.42860701661601297018933109939098358154296875	11.800931723221399494150318787433207035064697265625	56.43198765582919662620042799971997737884521484375	3.095962721368540115918221999891102313995361328125	350.25000261763801745473756454885005950927734375	0.0	9186.27191086610037018544971942901611328125	0.0	1	1	1	1
3186	S6	2019	5	13	18	323.157337826304001282551325857639312744140625	724.9625098441880481914267875254154205322265625	71.3057303388124950060955598019063472747802734375	11.742492918927599276912587811239063739776611328125	56.40849848847209813129666144959628582000732421875	2.531728047993630159595568329677917063236236572265625	313.666665926574978584540076553821563720703125	0.0	7679.360980788869710522703826427459716796875	0.0	1	1	1	1
3187	S6	2019	5	13	19	171.15951637969300236363778822124004364013671875	605.02848877548103700974024832248687744140625	44.7942297040253976092571974731981754302978515625	11.180501425166600171223763027228415012359619140625	60.16016708841559790243991301394999027252197265625	2.3155988858270699637387224356643855571746826171875	120.4166679332650033984464243985712528228759765625	0.0	2683.56199065844020879012532532215118408203125	0.0	1	1	1	1
3188	S6	2019	5	13	20	37.1448840949370975295096286572515964508056640625	152.812869181613990576806827448308467864990234375	20.47899936355700134527069167234003543853759765625	10.30572516317580067379822139628231525421142578125	62.51335872038630014912996557541191577911376953125	2.24656488877216009569792731781490147113800048828125	13.7499999642993007142877104342915117740631103515625	0.0	588.2553725192930187404272146522998809814453125	0.0	1	1	1	1
3189	S6	2019	5	13	21	0	0	0	0	0	0	0.333333339464541023033916644635610282421112060546875	0.0	51.218858531986597881768830120563507080078125	0.0	1	1	1	0
3190	S6	2019	5	13	22	0	0	0	0	0	0	0	0.0	0	0.0	1	1	1	0
3191	S6	2019	5	13	23	0	0	0	0	0	0	0	0.0	0	0.0	1	1	1	0
3192	S6	2019	5	13	24	0	0	0	0	0	0	0	0.0	0	0.0	1	1	1	0
3193	S6	2019	5	14	1	0	0	0	0	0	0	0	0.0	0	0.0	1	1	1	0
3194	S6	2019	5	14	2	0	0	0	0	0	0	0	0.0	0	0.0	1	1	1	0
3195	S6	2019	5	14	3	0	0	0	0	0	0	0	0.0	0	0.0	1	1	1	0
3196	S6	2019	5	14	4	0	0	0	0	0	0	0.08333333729145829538165202166055678389966487884521484375	0.0	10.5225002237904003976609601522795855998992919921875	0.0	1	1	1	0
3197	S6	2019	5	14	5	29.9850598976260016570449806749820709228515625	192.871860431452006423569400794804096221923828125	16.506582477444499801322308485396206378936767578125	4.31344261482113022765361165511421859264373779296875	88.928524580158097023740992881357669830322265625	0.2462295112062669877328602296984172426164150238037109375	11.6666666969346000115592687507160007953643798828125	0.0	491.9420170287299924893886782228946685791015625	0.0	1	1	1	0
3198	S6	2019	5	14	6	138.20733500586601394388708285987377166748046875	545.9204303317600306399981491267681121826171875	38.419459507200400594228995032608509063720703125	5.97944442431132028303863990004174411296844482421875	84.050554911295506599344662390649318695068359375	0.54694444826907495649237489487859420478343963623046875	33.8333334463336967701252433471381664276123046875	0.0	1599.733762443059958968660794198513031005859375	0.0	1	1	1	1
3199	S6	2019	5	14	7	278.04445071750200213500647805631160736083984375	719.5017205132370463616098277270793914794921875	54.87232526143390032302704639732837677001953125	8.987777733802790436357099679298698902130126953125	76.79000019497340190355316735804080963134765625	0.4761111150185259877076759948977269232273101806640625	176.249998621640997953363694250583648681640625	0.0	5267.4726247787302781944163143634796142578125	0.0	1	1	1	1
3200	S6	2019	5	14	8	406.5542781054140277774422429502010345458984375	764.5565653086370048185926862061023712158203125	75.4188249635829066619407967664301395416259765625	10.72116994724959937457242631353437900543212890625	71.8908075529219985355666722171008586883544921875	0.7779944310779349780915481460397131741046905517578125	371.33333335320099877208122052252292633056640625	0.0	10595.441480477600634912960231304168701171875	0.0	1	1	1	1
3201	S6	2019	5	14	9	572.4299688551160443239496089518070220947265625	890.0909901936839787595090456306934356689453125	74.141637908087801633882918395102024078369140625	12.279999992582499857007860555313527584075927734375	59.0127778371174969151979894377291202545166015625	0.76222222331497402336708546499721705913543701171875	595.1666633288050434202887117862701416015625	0.0	16685.03365914020105265080928802490234375	0.0	1	1	1	1
3202	S6	2019	5	14	10	699.746973673501997836865484714508056640625	932.5746066623260048800148069858551025390625	81.10925396813280485730501823127269744873046875	14.1649999936421000512609680299647152423858642578125	49.460555564032603115265374071896076202392578125	0.76722222376200799320855594487511552870273590087890625	787.416661779084961381158791482448577880859375	0.0	21086.19995911910154973156750202178955078125	0.0	1	1	1	1
3203	S6	2019	5	14	11	829.326431747221022305893711745738983154296875	904.537896707023946873960085213184356689453125	156.511824014153006601191009394824504852294921875	14.6932393571019996869608803535811603069305419921875	43.62957733584119779379761894233524799346923828125	0.97436619938259394491097964419168420135974884033203125	914.4166658322050125207169912755489349365234375	0.0	23831.8201899527994100935757160186767578125	0.0	1	1	1	1
3204	S6	2019	5	14	12	775.951371459960000720457173883914947509765625	714.4089858872549712032196111977100372314453125	206.126724068777008369579561986029148101806640625	15.033142839159200576659713988192379474639892578125	36.5237143162318034228519536554813385009765625	0.72800000344003901187051042143139056861400604248046875	860.83333194256601927918381989002227783203125	0.0	21315.26460250209856894798576831817626953125	0.0	1	1	1	1
3205	S6	2019	5	14	13	848.0649215483330181086785160005092620849609375	640.6148436956000296049751341342926025390625	333.64095910300602554343640804290771484375	15.54225365276059989128043525852262973785400390625	39.13661964309039831277914345264434814453125	0.8549295795635429850989339684019796550273895263671875	952.0000095168760481101344339549541473388671875	0.0	22933.39421351749842870049178600311279296875	0.0	1	1	1	1
3206	S6	2019	5	14	14	595.24300794008695447701029479503631591796875	162.346821056583991094157681800425052642822265625	463.3922030346540168466162867844104766845703125	15.5892655782106004380693775601685047149658203125	38.62796589479599873584447777830064296722412109375	0.7259887051110880396009861215134151279926300048828125	706.083332498875051896902732551097869873046875	0.0	17928.70857318240086897276341915130615234375	0.0	1	1	1	1
3207	S6	2019	5	14	15	466.47856199476399297054740600287914276123046875	110.1057265909179960772235062904655933380126953125	384.6710032145180093721137382090091705322265625	14.94388892915510069769879919476807117462158203125	40.5372222476535029045408009551465511322021484375	0.90972222553359094465719181243912316858768463134765625	486.08333369095998932607471942901611328125	0.0	13146.039346853800452663563191890716552734375	0.0	1	1	1	1
3208	S6	2019	5	14	16	266.7435570187029725275351665914058685302734375	0.72091181058850495322332108116825111210346221923828125	268.96831542120997937672655098140239715576171875	13.7450000551010997895673426683060824871063232421875	42.1916664759317967536844662390649318695068359375	1.4394444405204700476730295122251845896244049072265625	247.833332667748010180730489082634449005126953125	0.0	7269.5644199848002244834788143634796142578125	0.0	1	1	1	1
3209	S6	2019	5	14	17	268.16188117133202695185900665819644927978515625	6.8509045036613098744737726519815623760223388671875	267.24860644870301484843366779386997222900390625	13.7738889217375994888925561099313199520111083984375	40.9599998897976007583565660752356052398681640625	1.1747222219904200901652302491129375994205474853515625	253.250000377496007786248810589313507080078125	0.0	7223.444551229449643869884312152862548828125	0.0	1	1	1	1
3210	S6	2019	5	14	18	198.134611680771996589101036079227924346923828125	115.0532497142749974727848893962800502777099609375	165.7627609676779911751509644091129302978515625	13.3122222105661993651892771595157682895660400390625	41.82666649288599813871769583784043788909912109375	1.529166663438080053794010382262058556079864501953125	182.66666680574400061232154257595539093017578125	0.0	4948.947201172510176547802984714508056640625	0.0	1	1	1	1
3211	S6	2019	5	14	19	163.123077689275987722794525325298309326171875	468.8530181460910171153955161571502685546875	63.2634728219774018498355871997773647308349609375	12.7961110856796995705053632264025509357452392578125	43.3055555555555002911205519922077655792236328125	1.930833330088189914164331639767624437808990478515625	110.999999257425002952004433609545230865478515625	0.0	2666.88969482977017833036370575428009033203125	0.0	1	1	1	1
3212	S6	2019	5	14	20	36.31296959208010122210907866246998310089111328125	119.4147428392160037446956266649067401885986328125	22.150602977667201542999464436434209346771240234375	11.2033582303060992302334852865897119045257568359375	50.04813437675360177081529400311410427093505859375	1.2167910444202700848137510547530837357044219970703125	12.8333333608073001386173928040079772472381591796875	0.0	624.1593882441529785864986479282379150390625	0.0	1	1	1	1
3213	S6	2019	5	14	21	6.87791388375417955813873049919493496417999267578125	0.09826238985572539885726683905886602587997913360595703125	7.17704364231653979544489629915915429592132568359375	10.4285714285714004034844037960283458232879638671875	54.5857140677315015864223823882639408111572265625	0.64285715137209198388745789998210966587066650390625	0.08333333729145829538165202166055678389966487884521484375	0.0	49.960616898412098407789017073810100555419921875	0.0	1	1	1	0
3214	S6	2019	5	14	22	0	0	0	0	0	0	0	0.0	0	0.0	1	1	1	0
3215	S6	2019	5	14	23	0	0	0	0	0	0	0	0.0	0	0.0	1	1	1	0
3216	S6	2019	5	14	24	0	0	0	0	0	0	0	0.0	0	0.0	1	1	1	0
3217	S6	2019	5	15	1	0	0	0	0	0	0	0	0.0	0	0.0	1	1	1	0
3218	S6	2019	5	15	2	0	0	0	0	0	0	0	0.0	0	0.0	1	1	1	0
3219	S6	2019	5	15	3	0	0	0	0	0	0	0	0.0	0	0.0	1	1	1	0
3220	S6	2019	5	15	4	0	0	0	0	0	0	0	0.0	7.72487496336299983568096649833023548126220703125	0.0	1	1	1	0
3221	S6	2019	5	15	5	30.41228651922759951276020728982985019683837890625	152.369763391412988084994140081107616424560546875	18.809234859888999125132613698951900005340576171875	9.324104302869169913492441992275416851043701171875	70.0547236340052990044569014571607112884521484375	1.2032573303686999732775575466803275048732757568359375	11.583333330539300476402786443941295146942138671875	0.0	516.02519086252095803502015769481658935546875	0.0	1	1	1	0
3222	S6	2019	5	15	6	144.68848658667599238469847477972507476806640625	553.2490164862730352979269810020923614501953125	41.27187825838719703597234911285340785980224609375	10.538333357704999571069492958486080169677734375	67.4405554029676039817786659114062786102294921875	1.0219444451232699844211992967757396399974822998046875	34.3333335282899980711590615101158618927001953125	0.0	1716.20777497689005031134001910686492919921875	0.0	1	1	1	1
3223	S6	2019	5	15	7	284.3734611511230241376324556767940521240234375	727.015310668944948702119290828704833984375	56.741666497124498391713132150471210479736328125	11.7899999459583995076172868721187114715576171875	66.4055555661519036902973311953246593475341796875	1.3547222213612599706067385341157205402851104736328125	180.499999163051001005442230962216854095458984375	0.0	5282.0802778005700020003132522106170654296875	0.0	1	1	1	1
3224	S6	2019	5	15	8	424.5061736212829828218673355877399444580078125	821.1222871568460277558187954127788543701171875	64.036289829677997431645053438842296600341796875	13.012500015894499227897540549747645854949951171875	58.50416663487749957539563183672726154327392578125	1.9224999960925799324940044243703596293926239013671875	384.2499976356820070577668957412242889404296875	0.0	10943.58958800629989127628505229949951171875	0.0	1	1	1	1
3225	S6	2019	5	15	9	571.4633695293399568981840275228023529052734375	880.7129528535809868117212317883968353271484375	72.2231281536250975250368355773389339447021484375	14.2092178227514995825231380877085030078887939453125	54.49441342913230101885346812196075916290283203125	1.74497206367593005182925480767153203487396240234375	585.333334902921023967792280018329620361328125	0.0	16300.43842395140018197707831859588623046875	0.0	1	1	1	1
3226	S6	2019	5	15	10	700.025658331976956105791032314300537109375	927.0350302802189617068506777286529541015625	75.514234458075605971316690556704998016357421875	15.2258333444595006511690371553413569927215576171875	47.2649997711180986925683100707828998565673828125	1.5366666614181399008742801015614531934261322021484375	768.916676441828030874603427946567535400390625	0.0	20600.49533843990138848312199115753173828125	0.0	1	1	1	1
3227	S6	2019	5	15	11	797.83994001500695958384312689304351806640625	906.947894034665978324483148753643035888671875	121.48521385192799471042235381901264190673828125	15.7832353760214001425765673047862946987152099609375	38.451176452636701696974341757595539093017578125	1.802647054195400055931486349436454474925994873046875	900.5000044902200215801713056862354278564453125	0.0	23398.51935704550123773515224456787109375	0.0	1	1	1	1
3228	S6	2019	5	15	12	862.3659918030690505474922247231006622314453125	898.646442700144007176277227699756622314453125	150.891599854426004867491428740322589874267578125	16.113432810199700639941511326469480991363525390625	34.5238804603689999339621863327920436859130859375	2.024477611459900128210165348718874156475067138671875	967.499991257973988467711023986339569091796875	0.0	24430.54382006320156506262719631195068359375	0.0	1	1	1	1
3229	S6	2019	5	15	13	821.199629188650987998698838055133819580078125	865.6822707062329982363735325634479522705078125	135.773302607749002390846726484596729278564453125	16.11582091317239928685012273490428924560546875	34.2674625909150023517213412560522556304931640625	1.94865671013717989268343444564379751682281494140625	947.8333368897459649815573357045650482177734375	0.0	15071.728219588499996461905539035797119140625	0.0	1	1	1	1
3230	S6	2019	5	15	14	757.516109466552052253973670303821563720703125	778.112628063008969547809101641178131103515625	170.893458979470011627199710346758365631103515625	16.144642744745500095859824796207249164581298828125	38.6369046370188016226165927946567535400390625	2.110119052142609863409461468108929693698883056640625	906.6666513681290098247700370848178863525390625	0.0	19662.8743906814997899346053600311279296875	0.0	1	1	1	1
3231	S6	2019	5	15	15	745.777551132757025698083452880382537841796875	899.901695929989045907859690487384796142578125	120.059868670979000171428197063505649566650390625	17.22240900525849838231806643307209014892578125	35.3761904313115991271843085996806621551513671875	1.0630252120875500754237918954459019005298614501953125	878.083333373067944194190204143524169921875	0.0	11874.186565478599732159636914730072021484375	0.0	1	1	1	1
3232	S6	2019	5	15	16	480.2958926590230248621082864701747894287109375	475.75098237553999069859855808317661285400390625	197.13649063561700813806965015828609466552734375	16.90295858213880109133242513053119182586669921875	38.110946666559499362847418524324893951416015625	0.99763313702930300763682680553756654262542724609375	551.000006496906053143902681767940521240234375	0.0	9933.24777483939033118076622486114501953125	0.0	1	1	1	1
3233	S6	2019	5	15	17	384.28807063632501694883103482425212860107421875	483.70881644354898298843181692063808441162109375	150.452767562866000616850215010344982147216796875	15.809999990463200703061374952085316181182861328125	42.282499949137303474344662390649318695068359375	1.8247222199208199544528952174005098640918731689453125	414.66666633884000248144729994237422943115234375	0.0	6486.7993295192500227130949497222900390625	0.0	1	1	1	1
3234	S6	2019	5	15	18	217.26225431230301410323590971529483795166015625	339.44623970455501194010139442980289459228515625	97.484599982367598158816690556704998016357421875	14.038333288828500400313714635558426380157470703125	45.606666787465400147993932478129863739013671875	1.566666664100349937172040881705470383167266845703125	206.083333740629996100324206054210662841796875	0.0	3473.0721463759700782247819006443023681640625	0.0	1	1	1	1
3235	S6	2019	5	15	19	119.925720066493994409029255621135234832763671875	289.2853039092480003091623075306415557861328125	53.90038038889559857125277630984783172607421875	12.9383332888285007555850825156085193157196044921875	48.3333333333333001746723311953246593475341796875	1.288055553204479952711380974506027996540069580078125	88.0833336462583957882088725455105304718017578125	0.0	1794.62791855135992591385729610919952392578125	0.0	1	1	1	1
3236	S6	2019	5	15	20	24.399599707050601438140802201814949512481689453125	36.77264346569109676465814118273556232452392578125	21.227854342976900881012625177390873432159423828125	11.057324819504000146253019920550286769866943359375	52.529299353338302580596064217388629913330078125	0.90477707374627402980848955849069170653820037841796875	13.7500002359349995373349884175695478916168212890625	0.0	571.7101935297220052234479226171970367431640625	0.0	1	1	1	1
3237	S6	2019	5	15	21	7.9432062688081099821602037991397082805633544921875	0.185017925846572006687296152449562214314937591552734375	8.261933575505789661974631599150598049163818359375	10.11739137898319995656493119895458221435546875	54.5869564388109012043059919960796833038330078125	0.60217391537583397909116911250748671591281890869140625	0.416666676755991005620671785436570644378662109375	0.0	55.1309503304461969719341141171753406524658203125	0.0	1	1	1	0
3238	S6	2019	5	15	22	0	0	0	0	0	0	0	0.0	0	0.0	1	1	1	0
3239	S6	2019	5	15	23	0	0	0	0	0	0	0	0.0	0	0.0	1	1	1	0
3240	S6	2019	5	15	24	0	0	0	0	0	0	0	0.0	0	0.0	1	1	1	0
3241	S6	2019	5	16	1	0	0	0	0	0	0	0	0.0	0	0.0	1	1	1	0
3242	S6	2019	5	16	2	0	0	0	0	0	0	0	0.0	0	0.0	1	1	1	0
3243	S6	2019	5	16	3	0	0	0	0	0	0	0	0.0	0	0.0	1	1	1	0
3244	S6	2019	5	16	4	0	0	0	0	0	0	0.250000011874365990482971255914890207350254058837890625	0.0	22.178816803109899780110936262644827365875244140625	0.0	1	1	1	0
3245	S6	2019	5	16	5	44.20427089335449721829718328081071376800537109375	108.16889975557700154240592382848262786865234375	34.36349256705619836793630383908748626708984375	6.37556275064155020260159290046431124210357666015625	73.2810289192812973624313599430024623870849609375	1.2604501634548699318116860013105906546115875244140625	26.24999964609730085385308484546840190887451171875	0.0	1147.77789233872999830055050551891326904296875	0.0	1	1	1	0
3246	S6	2019	5	16	6	101.2354718208309947158340946771204471588134765625	231.90033727181599942923639900982379913330078125	65.9712929619683023929610499180853366851806640625	7.7400000174840197786352291586808860301971435546875	66.4908329010008998238845379091799259185791015625	1.6999999940395300601636563442298211157321929931640625	50.6666659687954989976788056083023548126220703125	0.0	1682.734653353679959764122031629085540771484375	0.0	1	1	1	1
3247	S6	2019	5	16	7	129.69303529527400087317801080644130706787109375	44.7154588448504028974639368243515491485595703125	113.410261344909002900749328546226024627685546875	8.0433333476384394344904649187810719013214111328125	63.16833318074539960207403055392205715179443359375	1.9430555543965699616393294490990228950977325439453125	120.9166658421359983321963227353990077972412109375	0.0	2896.39450609683990478515625	0.0	1	1	1	1
3248	S6	2019	5	16	8	209.179611629909004477667622268199920654296875	57.87634808354899718096930882893502712249755859375	185.07165853712200487279915250837802886962890625	9.83583335081736009897213079966604709625244140625	57.104166571299202814770978875458240509033203125	2.0280555541316598322509889840148389339447021484375	179.416665186485005278882454149425029754638671875	0.0	4529.58826224010044825263321399688720703125	0.0	1	1	1	1
3249	S6	2019	5	16	9	423.12825003729898298843181692063808441162109375	188.47830741537899257309618405997753143310546875	310.941279771592007818981073796749114990234375	12.7391666889189991707098670303821563720703125	49.363333288828499689770978875458240509033203125	1.96916666279236007852659895434044301509857177734375	411.58333048224500316791818477213382720947265625	0.0	9719.08738215762059553526341915130615234375	0.0	1	1	1	1
3250	S6	2019	5	16	10	734.3641586303709800631622783839702606201171875	786.1860938178159585731918923556804656982421875	199.2688770718040132123860530555248260498046875	14.7508333047231001700083652394823729991912841796875	43.3166669527688981133906054310500621795654296875	2.782222216990250185375543878762982785701751708984375	774.499997496606056301970966160297393798828125	0.0	21136.8796825409008306451141834259033203125	0.0	1	1	1	1
3251	S6	2019	5	16	11	722.026779346251032620784826576709747314453125	711.3846608708410030885715968906879425048828125	185.328267086756994785901042632758617401123046875	16.110955010639099072022872860543429851531982421875	42.0367977913845010107252164743840694427490234375	3.033988762437620056999776352313347160816192626953125	833.1666539112729878979735076427459716796875	0.0	22111.1589272817000164650380611419677734375	0.0	1	1	1	1
3252	S6	2019	5	16	12	782.48528238932294698315672576427459716796875	760.7049224853509485910763032734394073486328125	177.17857102288098758435808122158050537109375	17.5116666793823014813824556767940521240234375	40.6549999554951995150986476801335811614990234375	3.00555555091963011449252007878385484218597412109375	917.3333247502670246831257827579975128173828125	0.0	23731.4597368239992647431790828704833984375	0.0	1	1	1	1
3253	S6	2019	5	16	13	775.4813552008730539455427788197994232177734375	712.0138779958080021970090456306934356689453125	208.26646872626400863737217150628566741943359375	18.803333250681500743439755751751363277435302734375	37.21166661580399903641591663472354412078857421875	3.285555553436270148637277088710106909275054931640625	919.8333173990339446390862576663494110107421875	0.0	23539.3740733464001095853745937347412109375	0.0	1	1	1	1
3254	S6	2019	5	16	14	770.92397605048199693555943667888641357421875	790.896313476561999777914024889469146728515625	169.94140803019200802737032063305377960205078125	19.77416659990939962199263391084969043731689453125	34.709999974568603420266299508512020111083984375	3.452777768174799977174416198977269232273101806640625	922.16665049393895969842560589313507080078125	0.0	23369.28594112390055670402944087982177734375	0.0	1	1	1	1
3255	S6	2019	5	16	15	626.088965861001952362130396068096160888671875	596.1449289533819637654232792556285858154296875	206.942290708753006356346304528415203094482421875	20.27166647911069929932637023739516735076904296875	32.4375	3.2905555533038199911288756993599236011505126953125	751.4166633288050434202887117862701416015625	0.0	19244.799236456499784253537654876708984375	0.0	1	1	1	1
3256	S6	2019	5	16	16	563.30177866617805193527601659297943115234375	655.4929139879010335789644159376621246337890625	168.255476633706990696737193502485752105712890625	20.539166625340701699542478309012949466705322265625	29.430833371480300542089025839231908321380615234375	3.277499991820910008044620553846471011638641357421875	655.5000046888980023140902630984783172607421875	0.0	16745.48822641370134078897535800933837890625	0.0	1	1	1	1
3257	S6	2019	5	16	17	400.51583955552797533528064377605915069580078125	525.46077024671694744029082357883453369140625	145.00817462073399610744672827422618865966796875	20.0208333015441013458257657475769519805908203125	34.17416693369540325875277630984783172607421875	2.88749999544686009045335595146752893924713134765625	437.41667022307700563032994978129863739013671875	0.0	11091.224471727999116410501301288604736328125	0.0	1	1	1	1
3258	S6	2019	5	16	18	287.70635880364301328881992958486080169677734375	548.99357884724895484396256506443023681640625	95.758089192708297332501388154923915863037109375	19.534166733423798945068483590148389339447021484375	36.53916648228960184496827423572540283203125	2.978333334376409791133255566819570958614349365234375	277.33333408832498889751150272786617279052734375	0.0	6647.6292709509298219927586615085601806640625	0.0	1	1	1	1
3259	S6	2019	5	16	19	165.195291858248992866720072925090789794921875	465.95935914781301789844292216002941131591796875	63.41542891396409942217360367067158222198486328125	18.074166647593099099822211428545415401458740234375	38.11166667938230290246792719699442386627197265625	3.005277774234610177472859504632651805877685546875	116.4999998485040038076476776041090488433837890625	0.0	2712.3239984114798062364570796489715576171875	0.0	1	1	1	1
3260	S6	2019	5	16	20	48.2777390412881004522205330431461334228515625	69.79579686042910680043860338628292083740234375	40.168573587713098049789550714194774627685546875	16.313028218041001338178830337710678577423095703125	41.2552815826845034052894334308803081512451171875	2.594718310614700040872548925108276307582855224609375	33.2500006382662007808903581462800502777099609375	0.0	1091.277270267399899239535443484783172607421875	0.0	1	1	1	1
3261	S6	2019	5	16	21	22.82939691543570148724029422737658023834228515625	0.1528017162345340074214306014255271293222904205322265625	23.412975120544398777155947755090892314910888671875	15.420000076293899127222175593487918376922607421875	43.05999975204459673250312334857881069183349609375	1.8574999839067400930758822141797281801700592041015625	8.2500000232054002680115445400588214397430419921875	0.0	288.05020637809997197109623812139034271240234375	0.0	1	1	1	0
3262	S6	2019	5	16	22	0	0	0	0	0	0	0	0.0	0	0.0	1	1	1	0
3263	S6	2019	5	16	23	0	0	0	0	0	0	0	0.0	0	0.0	1	1	1	0
3264	S6	2019	5	16	24	0	0	0	0	0	0	0	0.0	0	0.0	1	1	1	0
3265	S6	2019	5	17	1	0	0	0	0	0	0	0	0.0	0	0.0	1	1	1	0
3266	S6	2019	5	17	2	0	0	0	0	0	0	0	0.0	0	0.0	1	1	1	0
3267	S6	2019	5	17	3	0	0	0	0	0	0	0	0.0	0	0.0	1	1	1	0
3268	S6	2019	5	17	4	0	0	0	0	0	0	0	0.0	0	0.0	1	1	1	0
3269	S6	2019	5	17	5	3.1283665058484899645918630994856357574462890625	0.153794767349330008254781887444551102817058563232421875	3.088612722711079783266541198827326297760009765625	12.511111135227000801251051598228514194488525390625	62.637931049098398261776310391724109649658203125	3.7398467405317301626155312987975776195526123046875	2.500000041133419781402835724293254315853118896484375	0.0	58.8095664667585964480167604051530361175537109375	0.0	1	1	1	1
3270	S6	2019	5	17	6	29.7506335183474988070884137414395809173583984375	0.30971830002684497262777085779816843569278717041015625	30.070267473713698791470960713922977447509765625	11.22247189439629977414369932375848293304443359375	78.959176167120205036553670652210712432861328125	3.067415721854020116410310947685502469539642333984375	26.583333422119299171981765539385378360748291015625	0.0	850.9651285906610382880899123847484588623046875	0.0	1	1	1	1
3271	S6	2019	5	17	7	37.99743845197880176556282094679772853851318359375	0.31908600959512900541170665746903978288173675537109375	38.24934275415200346515121054835617542266845703125	11.6175000667572003720806605997495353221893310546875	77.6408333460488933042142889462411403656005859375	2.246944438997239945621231527184136211872100830078125	34.41666672006250138338145916350185871124267578125	0.0	1070.340625941749976846040226519107818603515625	0.0	1	1	1	1
3272	S6	2019	5	17	8	82.389983204607005973230116069316864013671875	0.1991453660044300022491370327770709991455078125	82.35270434979810261211241595447063446044921875	11.6479233933713004489618469960987567901611328125	76.83801908157880689032026566565036773681640625	2.55399360691014987168045990983955562114715576171875	75.91666715840500501144560985267162322998046875	0.0	2437.34244753916982517694123089313507080078125	0.0	1	1	1	1
3273	S6	2019	5	17	9	84.2428541942075952420054818503558635711669921875	0.2853002422595050102671621061745099723339080810546875	84.1090714714743938884566887281835079193115234375	10.463532787442499483177016372792422771453857421875	87.25710216435510346855153329670429229736328125	2.492877488377419847864757684874348342418670654296875	76.500000432133305139359435997903347015380859375	0.0	2435.107260942450011498294770717620849609375	0.0	1	1	1	1
3274	S6	2019	5	17	10	102.4972028944220028279232792556285858154296875	0.41300906104346102321045464123017154633998870849609375	102.2011144849980013304957537911832332611083984375	10.675555441114600085938945994712412357330322265625	88.97944391038680578276398591697216033935546875	1.7677777760558599506879318141727708280086517333984375	93.6666664977858971496971207670867443084716796875	0.0	2962.77106304962990179774351418018341064453125	0.0	1	1	1	1
3275	S6	2019	5	17	11	133.433853382534010734161711297929286956787109375	0.487704535531034988338205948821268975734710693359375	132.8352859073210083806770853698253631591796875	10.89831924972740040402641170658171176910400390625	90.0905556572808023929610499180853366851806640625	2.3915966304243401197027196758426725864410400390625	122.0000007500240002400460070930421352386474609375	0.0	3823.4728276729501885711215436458587646484375	0.0	1	1	1	1
3276	S6	2019	5	17	12	72.3934038903978063217437011189758777618408203125	0.305069006958768984549834613062557764351367950439453125	71.91926298141470397240482270717620849609375	10.975000042385499199326659436337649822235107421875	91.0683329688177991556585766375064849853515625	2.343888889998190006025424736435525119304656982421875	65.4166666790842015188900404609739780426025390625	0.0	2049.40362771352010895498096942901611328125	0.0	1	1	1	1
3277	S6	2019	5	17	13	78.38244511286410443062777630984783172607421875	0.393474241180552020136218516199733130633831024169921875	77.9166210068596001292462460696697235107421875	11.2977778063879998882157451589591801166534423828125	92.899444410536005989342811517417430877685546875	1.918333331164379984556944691576063632965087890625	71.7500004296500009104420314542949199676513671875	0.0	2220.19988298416001271107234060764312744140625	0.0	1	1	1	1
3278	S6	2019	5	17	14	100.9695601781200053892462165094912052154541015625	0.398916882990549004350810946561978198587894439697265625	100.463580883872992899341625161468982696533203125	12.00277782546140059594108606688678264617919921875	92.8405554877386975931585766375064849853515625	2.666666662113529984168280861922539770603179931640625	92.8333348905038064913242124021053314208984375	0.0	2869.6064973870898029417730867862701416015625	0.0	1	1	1	1
3279	S6	2019	5	17	15	139.982054314572991415843716822564601898193359375	0.439116223826795992746241381610161624848842620849609375	139.398440985294001848160405643284320831298828125	11.856545931781500513579885591752827167510986328125	93.488299972831697459696442820131778717041015625	3.136211699596020086033831830718554556369781494140625	130.166666582225985848708660341799259185791015625	0.0	4027.049163977309945039451122283935546875	0.0	1	1	1	1
3280	S6	2019	5	17	16	69.4651702625836975357742630876600742340087890625	0.307945734761592981865163665133877657353878021240234375	69.25399627260509305415325798094272613525390625	11.42284118099789935740773216821253299713134765625	92.682451317237195098641677759587764739990234375	3.3568245086995300852095169830136001110076904296875	58.75000016142939784913323819637298583984375	0.0	1827.554479241370017916779033839702606201171875	0.0	1	1	1	1
3281	S6	2019	5	17	17	59.0983758290607994467791286297142505645751953125	0.265249312924606017727313655996113084256649017333984375	59.1288905885484012969754985533654689788818359375	11.244166639115999117848332389257848262786865234375	91.3561110814411989622385590337216854095458984375	3.184722221973860012411705611157231032848358154296875	54.416667049129699762488598935306072235107421875	0.0	1672.861297925310054779401980340480804443359375	0.0	1	1	1	1
3282	S6	2019	5	17	18	39.89673881956979784035866032354533672332763671875	0.2050678634849590065147850737048429436981678009033203125	39.91790340998979758069253875873982906341552734375	10.930726307064400515400848235003650188446044921875	92.255586059399803389169392175972461700439453125	2.949162006378169831322111349436454474925994873046875	34.5833334140479990992389502935111522674560546875	0.0	1034.7417419155399329611100256443023681640625	0.0	1	1	1	1
3283	S6	2019	5	17	19	23.842605672942198680175351910293102264404296875	0.2061838333701919989682238565364968962967395782470703125	23.8981655942069011189232696779072284698486328125	10.701944515440199978684177040122449398040771484375	93.2341663784450958019078825600445270538330078125	2.664722216212080052599731061491183936595916748046875	20.41666675359000038270096410997211933135986328125	0.0	612.57113764683299450553022325038909912109375	0.0	1	1	1	1
3284	S6	2019	5	17	20	9.245861068913630020915661589242517948150634765625	0.1669056998382149881177127781484159640967845916748046875	9.3250593534657593153269772301428020000457763671875	10.5611267143570994875290125492028892040252685546875	94.0292957144722976181583362631499767303466796875	2.2949295708830899087615762255154550075531005859375	7.333333419713429890407496714033186435699462890625	0.0	235.21115405795399055932648479938507080078125	0.0	1	1	1	1
3285	S6	2019	5	17	21	2.098703767942339926122485849191434681415557861328125	0.1749981376140009869946112530669779516756534576416015625	2.186577553334439816268286449485458433628082275390625	10.4173912380051998383123645908199250698089599609375	94.595653368079098299858742393553256988525390625	1.6565217531245599591471773237572051584720611572265625	0.166666674582916007896216115113929845392704010009765625	0.0	4.1469499701633498744968164828605949878692626953125	0.0	1	1	1	0
3286	S6	2019	5	17	22	0	0	0	0	0	0	0	0.0	0	0.0	1	1	1	0
3287	S6	2019	5	17	23	0	0	0	0	0	0	0	0.0	0	0.0	1	1	1	0
3288	S6	2019	5	17	24	0	0	0	0	0	0	0	0.0	0	0.0	1	1	1	0
3289	S6	2019	5	18	1	0	0	0	0	0	0	0	0.0	0	0.0	1	1	1	0
3290	S6	2019	5	18	2	0	0	0	0	0	0	0	0.0	0	0.0	1	1	1	0
3291	S6	2019	5	18	3	0	0	0	0	0	0	0	0.0	0	0.0	1	1	1	0
3292	S6	2019	5	18	4	0	0	0	0	0	0	0.08333333729145829538165202166055678389966487884521484375	0.0	0	0.0	1	1	1	0
3293	S6	2019	5	18	5	10.7750555152478000309201888740062713623046875	0.181091942827121987757976739885634742677211761474609375	10.8413153617277995266476864344440400600433349609375	10.3962317701698996330605950788594782352447509765625	97.9492754950039028472019708715379238128662109375	1.4782608693060599325264092840370722115039825439453125	9.49999997586323985387934953905642032623291015625	0.0	267.81362547383997707584057934582233428955078125	0.0	1	1	1	1
3294	S6	2019	5	18	6	46.99937090873709877314468030817806720733642578125	0.28041043786538899507121413989807479083538055419921875	47.10522955788500354401548975147306919097900390625	10.6152778095668995916867061168886721134185791015625	98.201388359069795797040569595992565155029296875	1.62194443941115995500013013952411711215972900390625	44.33333377043390299832026357762515544891357421875	0.0	1267.526611685749912794562987983226776123046875	0.0	1	1	1	1
3295	S6	2019	5	18	7	69.8987152311537016657894128002226352691650390625	0.32445455203867601401412912309751845896244049072265625	69.9637820561726044843453564681112766265869140625	10.9558333423402007866798157920129597187042236328125	98.1880539576211930352656054310500621795654296875	1.676111108230220025916423765011131763458251953125	64.1666675607363998778964742086827754974365234375	0.0	1885.244096318880110629834234714508056640625	0.0	1	1	1	1
3296	S6	2019	5	18	8	113.3905712763459945335853262804448604583740234375	0.44988849167194600031649542870582081377506256103515625	113.422677252027000349698937498033046722412109375	11.5233333322735997938934815465472638607025146484375	98.152221171061199811447295360267162322998046875	1.710277779565910094561331789009273052215576171875	106.5000003824629999371609301306307315826416015625	0.0	3177.6342590649701378424651920795440673828125	0.0	1	1	1	1
3297	S6	2019	5	18	9	213.71593174404500814489438198506832122802734375	0.78579935717086002444631276375730521976947784423828125	213.344754240246999188457266427576541900634765625	12.2780555327732994186362702748738229274749755859375	96.461667039659204192503239028155803680419921875	1.8897222144736101068218658838304691016674041748046875	198.3333329359689969351165927946567535400390625	0.0	5836.863229672109810053370893001556396484375	0.0	1	1	1	1
3298	S6	2019	5	18	10	224.01967595418199152845772914588451385498046875	0.79730309993028602999487475244677625596523284912109375	223.220821338229001185027300380170345306396484375	13.5338889016045005320165728335268795490264892578125	92.02694458431659541020053438842296600341796875	1.41194444199402990847147520980797708034515380859375	202.33333234985599347055540420114994049072265625	0.0	6009.108920892080277553759515285491943359375	0.0	1	1	1	1
3299	S6	2019	5	18	11	473.7484795216760176117531955242156982421875	83.8227089151236981479087262414395809173583984375	406.229937264087993753491900861263275146484375	15.093539390671100619556455058045685291290283203125	86.4966290291774981824346468783915042877197265625	1.7792134778050801013904447245295159518718719482421875	578.00000657638202028465457260608673095703125	0.0	14901.500701904200468561612069606781005859375	0.0	1	1	1	1
3300	S6	2019	5	18	12	588.5551823070210275545832701027393341064453125	284.6974404248049950183485634624958038330078125	358.57846769896599425919703207910060882568359375	16.653773676674301640332487295381724834442138671875	80.857861860743099668979994021356105804443359375	1.755345905351930024806961228023283183574676513671875	663.249996801215047526056878268718719482421875	0.0	16888.87182871500044711865484714508056640625	0.0	1	1	1	1
3301	S6	2019	5	18	13	594.7199139691030040921759791672229766845703125	341.6901046800729773167404346168041229248046875	319.0959142390510123732383362948894500732421875	18.30939602691849898974396637640893459320068359375	74.1771812694984049585400498472154140472412109375	2.046308724172159809739923730376176536083221435546875	808.4166496992180555025697685778141021728515625	0.0	18355.76065381359876482747495174407958984375	0.0	1	1	1	1
3302	S6	2019	5	18	14	647.6262634574590038027963601052761077880859375	506.22780421173001741408370435237884521484375	259.9648178397829951791209168732166290283203125	19.26850655171769943763138144277036190032958984375	69.953895742242906408137059770524501800537109375	2.341883106568409811387709851260297000408172607421875	795.0833365321110477452748455107212066650390625	0.0	19378.39684883749941946007311344146728515625	0.0	1	1	1	1
3303	S6	2019	5	18	15	639.986038528762946953065693378448486328125	623.251509471999952438636682927608489990234375	208.821318022122994761957670561969280242919921875	19.928828723437700176646103500388562679290771484375	69.4552551132064053263093228451907634735107421875	2.283783779577449823960932917543686926364898681640625	735.33333341280604145140387117862701416015625	0.0	18583.790073792100884020328521728515625	0.0	1	1	1	1
3304	S6	2019	5	18	16	608.80690815090702017187140882015228271484375	781.031854537661047288565896451473236083984375	135.26004581613500477033085189759731292724609375	19.917280418676899245156164397485554218292236328125	68.1801699673487036079677636735141277313232421875	2.4543909327504298545363781158812344074249267578125	694.583336512245978155988268554210662841796875	0.0	17502.57116556170149124227464199066162109375	0.0	1	1	1	1
3305	S6	2019	5	18	17	461.9704426235620076113264076411724090576171875	747.066657850476985913701355457305908203125	96.5623544692992936688824556767940521240234375	20.470555448532099518388349679298698902130126953125	60.776389227972998696714057587087154388427734375	1.7449999952481800580272874867659993469715118408203125	499.3333319822939984078402630984783172607421875	0.0	12647.0171014467996428720653057098388671875	0.0	1	1	1	1
3306	S6	2019	5	18	18	308.6892714686899807929876260459423065185546875	622.9618344972919885549345053732395172119140625	85.3773377914001940780508448369801044464111328125	20.455028065090001376802320010028779506683349609375	60.44748627007339791816775687038898468017578125	1.898882677601700041947196950786747038364410400390625	295.91666658719299221047549508512020111083984375	0.0	7239.669372638059940072707831859588623046875	0.0	1	1	1	1
3307	S6	2019	5	18	19	169.917184681361987941272673197090625762939453125	493.92454859415602186345495283603668212890625	60.035242366790697587930480949580669403076171875	19.34777778519519841893270495347678661346435546875	63.571388742658797355034039355814456939697265625	2.481944444610010069851568914600647985935211181640625	115.99999914566700454088277183473110198974609375	0.0	2768.746989468740139272995293140411376953125	0.0	1	1	1	1
3308	S6	2019	5	18	20	32.150312184420499761472456157207489013671875	42.52497888489200050798899610526859760284423828125	27.018660254044899460268425173126161098480224609375	16.73236366271969899344185250811278820037841796875	77.471272888183506211134954355657100677490234375	2.587636358737940067697991253226064145565032958984375	20.333333484207599894943996332585811614990234375	0.0	750.405947988230991541058756411075592041015625	0.0	1	1	1	1
3309	S6	2019	5	18	21	10.3624598096917992506860173307359218597412109375	0.1570182338494940099682395384661504067480564117431640625	10.819374720255499511267771595157682895660400390625	15.6851849732575008289359175250865519046783447265625	82.0240737067328069542782031930983066558837890625	1.783333327483239916233515032217837870121002197265625	1.00000001839361996047728098346851766109466552734375	0.0	85.0083169061690995249591651372611522674560546875	0.0	1	1	1	0
3310	S6	2019	5	18	22	0	0	0	0	0	0	0	0.0	0	0.0	1	1	1	0
3311	S6	2019	5	18	23	0	0	0	0	0	0	0	0.0	0	0.0	1	1	1	0
3312	S6	2019	5	18	24	0	0	0	0	0	0	0	0.0	0	0.0	1	1	1	0
3313	S6	2019	5	19	1	0	0	0	0	0	0	0	0.0	0	0.0	1	1	1	0
3314	S6	2019	5	19	2	0	0	0	0	0	0	0	0.0	0	0.0	1	1	1	0
3315	S6	2019	5	19	3	0	0	0	0	0	0	0	0.0	0	0.0	1	1	1	0
3316	S6	2019	5	19	4	2.506880430074830190534385110368020832538604736328125	0.23081283500561300403575160089530982077121734619140625	2.58063310843246984660481757600791752338409423828125	13.730769157409600467190102790482342243194580078125	93.069229712853001501571270637214183807373046875	2.692307673967799797054567534360103309154510498046875	0.250000011874365990482971255914890207350254058837890625	0.0	5.56132496179395019453295390121638774871826171875	0.0	1	1	1	0
3317	S6	2019	5	19	5	14.0631375624073005070613362477160990238189697265625	0.276842430109778991909053047493216581642627716064453125	14.13101806441940055947270593605935573577880859375	13.61194451914889924637463991530239582061767578125	92.6613887363009069986219401471316814422607421875	2.602499997615809856910118469386361539363861083984375	12.4166666646487993119762904825620353221893310546875	0.0	355.522865274301011595525778830051422119140625	0.0	1	1	1	1
3318	S6	2019	5	19	6	46.53715528912010057638326543383300304412841796875	0.3539503527598240051332822986296378076076507568359375	46.641820918189097255890374071896076202392578125	13.658333460489899380263523198664188385009765625	92.5124998092650940861858543939888477325439453125	2.31416666085520983386913940194062888622283935546875	41.916667328526500568841584026813507080078125	0.0	1185.131909946599989780224859714508056640625	0.0	1	1	1	1
3319	S6	2019	5	19	7	79.791392919752297530067153275012969970703125	0.41549017069240401500707093873643316328525543212890625	79.328866603639397681035916320979595184326171875	13.9222222169240001932166705955751240253448486328125	91.6475000805324953034869395196437835693359375	2.388333337174520121237719649798236787319183349609375	70.91666727016360027846531011164188385009765625	0.0	2045.773662626739906045258976519107818603515625	0.0	1	1	1	1
3320	S6	2019	5	19	8	172.38723032209600205533206462860107421875	0.77089772481057294850614880488137714564800262451171875	172.276100985209012605992029421031475067138671875	14.1983333163791005659959409967996180057525634765625	90.43083332909469618243747390806674957275390625	2.012777772380240026706132994149811565876007080078125	158.500000834464998433759319595992565155029296875	0.0	4587.371478478109565912745893001556396484375	0.0	1	1	1	1
3321	S6	2019	5	19	9	269.6361833636680103154503740370273590087890625	34.58233670348280242023975006304681301116943359375	247.73953444234399512424715794622898101806640625	15.046910160043200477275604498572647571563720703125	87.4488760916033953662918065674602985382080078125	2.17471909389066997420059124124236404895782470703125	260.9999986986309750136570073664188385009765625	0.0	7481.470420956609814311377704143524169921875	0.0	1	1	1	1
3322	S6	2019	5	19	10	620.4672174790320013926248066127300262451171875	494.82968461022602468801778741180896759033203125	277.97031739178800080480868928134441375732421875	17.20470591713399954869601060636341571807861328125	79.44235321493709989226772449910640716552734375	1.76352940701386007305018210900016129016876220703125	667.75000095367295216419734060764312744140625	0.0	18148.89508485790065606124699115753173828125	0.0	1	1	1	1
3323	S6	2019	5	19	11	693.77827154506303486414253711700439453125	524.2538707616989768212079070508480072021484375	296.6200428442519978489144705235958099365234375	19.114488536661301765207099379040300846099853515625	73.1821018565783987241957220248878002166748046875	1.7397727258503399294653490869677625596523284912109375	738.8333305716520271744229830801486968994140625	0.0	18831.02313677470010588876903057098388671875	0.0	1	1	1	1
3324	S6	2019	5	19	12	626.4572483116470493769156746566295623779296875	312.94565226108198885413003154098987579345703125	371.56393243494102307522553019225597381591796875	19.8859156219051982361634145490825176239013671875	71.6019716934418966047815047204494476318359375	1.620281690275160002556731342338025569915771484375	601.3333325584750355119467712938785552978515625	0.0	15746.371646722100194892846047878265380859375	0.0	1	1	1	1
3325	S6	2019	5	19	13	498.43803777279998712401720695197582244873046875	164.90623014881299468470388092100620269775390625	363.87048556562700696304091252386569976806640625	20.35391301694119903231694479472935199737548828125	70.926956375785493946750648319721221923828125	1.6008695631787299706871863236301578581333160400390625	505.2500019470890038064680993556976318359375	0.0	13693.7466859816995565779507160186767578125	0.0	1	1	1	1
3326	S6	2019	5	19	14	692.062726316197995402035303413867950439453125	506.81455302124101081062690354883670806884765625	297.27809642690402824882767163217067718505859375	21.323893853696699096644806559197604656219482421875	67.641887968620295623622951097786426544189453125	1.725368727888680009385780067532323300838470458984375	790.9166589379279912463971413671970367431640625	0.0	19393.1292394796982989646494388580322265625	0.0	1	1	1	1
3327	S6	2019	5	19	15	685.1217283769079813282587565481662750244140625	592.8835685129530475023784674704074859619140625	265.25492291017002344233333133161067962646484375	22.021022655747099605605399119667708873748779296875	65.5127841559322945386156789027154445648193359375	2.0997159063646702037431168719194829463958740234375	770.2500025431299945921637117862701416015625	0.0	19502.3541053135995753109455108642578125	0.0	1	1	1	1
3328	S6	2019	5	19	16	483.53695883946102185291238129138946533203125	454.30460000295198597086709924042224884033203125	203.557419760185013046793756075203418731689453125	22.058771819399101588032863219268620014190673828125	65.35380124766919607282034121453762054443359375	1.8295321574336600445320755170541815459728240966796875	552.749998867511976641253568232059478759765625	0.0	14160.71717937779976637102663516998291015625	0.0	1	1	1	1
3329	S6	2019	5	19	17	449.3015868797730263395351357758045196533203125	606.3294958117299984223791398108005523681640625	152.832717788352994148226571269333362579345703125	22.091853961515898419065706548281013965606689453125	64.8466287034280952639164752326905727386474609375	2.00926966153167985140726159443147480487823486328125	472.0000028610210165425087325274944305419921875	0.0	11894.24516757329911342822015285491943359375	0.0	1	1	1	1
3330	S6	2019	5	19	18	304.19727018558700137873529456555843353271484375	553.8762960780260300452937372028827667236328125	104.159348855470994976712972857058048248291015625	21.937150720777399470762247801758348941802978515625	64.453910998125905962297110818326473236083984375	1.5142458103722000739566055926843546330928802490234375	291.74999892711599613903672434389591217041015625	0.0	7185.0366294384302818798460066318511962890625	0.0	1	1	1	1
3331	S6	2019	5	19	19	157.753648206922008512265165336430072784423828125	256.842650000254025144386105239391326904296875	93.55890420277910379809327423572540283203125	21.2411110560098990163169219158589839935302734375	65.463611094156902936447295360267162322998046875	1.1786111113097899050217165495269000530242919921875	123.9166669547559962438754155300557613372802734375	0.0	3189.2197430133601301349699497222900390625	0.0	1	1	1	1
3332	S6	2019	5	19	20	35.761067459318297778736450709402561187744140625	2.901649255491789869410013125161640346050262451171875	36.41579092608549927945205126889050006866455078125	19.263055589463899508473332389257848262786865234375	75.7402780744763930442786659114062786102294921875	1.0908333348731200640457927875104360282421112060546875	23.75000016763799948193991440348327159881591796875	0.0	782.16198273003101348876953125	0.0	1	1	1	1
3333	S6	2019	5	19	21	8.27359197253272071748142479918897151947021484375	0.1780589374580550110493959437008015811443328857421875	8.5436248438698907392563342000357806682586669921875	18.420238267807700793809999595396220684051513671875	80.552381061372301473966217599809169769287109375	2.632142848911729782201973648625425994396209716796875	1.00000001839361996047728098346851766109466552734375	0.0	55.982274585403501987457275390625	0.0	1	1	1	0
3334	S6	2019	5	19	22	0	0	0	0	0	0	0	0.0	0	0.0	1	1	1	0
3335	S6	2019	5	19	23	0	0	0	0	0	0	0	0.0	0	0.0	1	1	1	0
3336	S6	2019	5	19	24	0	0	0	0	0	0	0	0.0	0	0.0	1	1	1	0
3337	S6	2019	5	20	1	0	0	0	0	0	0	0	0.0	0	0.0	1	1	1	0
3338	S6	2019	5	20	2	0	0	0	0	0	0	0	0.0	0	0.0	1	1	1	0
3339	S6	2019	5	20	3	0	0	0	0	0	0	0	0.0	0	0.0	1	1	1	0
3340	S6	2019	5	20	4	1.397303060249039940998727615806274116039276123046875	0.359023957340805000004735347829409874975681304931640625	1.2389116463837799297920128083205781877040863037109375	15.7407407054193999584867924568243324756622314453125	92.21111071551280247149406932294368743896484375	0.42222222244298002191698060414637438952922821044921875	0.250000011874374983289470719682867638766765594482421875	0.0	0	0.0	1	1	1	0
3341	S6	2019	5	20	5	3.94907806552186002591042779386043548583984375	0.2855973399111200183853043199633248150348663330078125	3.942939319415959875669841494527645409107208251953125	15.7404081811710003790949485846795141696929931640625	93.006938576211695135498302988708019256591796875	0.49632653423717998375508386743604205548763275146484375	2.8333334194030701524980031535960733890533447265625	0.0	69.3125328980388957234026747755706310272216796875	0.0	1	1	1	1
3342	S6	2019	5	20	6	36.1248184601464998877418111078441143035888671875	0.42433917642467500197511753867729566991329193115234375	36.22904363473249844673773623071610927581787109375	15.6111111243564995021415597875602543354034423828125	95.7538890626695007313173846341669559478759765625	0.286111115498675017132512721218517981469631195068359375	33.8333336015542016639301436953246593475341796875	0.0	974.6110644191500114175141789019107818603515625	0.0	1	1	1	1
3343	S6	2019	5	20	7	129.88108290983001325002987869083881378173828125	16.52574007020569979431456886231899261474609375	123.469616750651994152576662600040435791015625	15.972191047132600516533784684725105762481689453125	94.566853855433095077387406490743160247802734375	0.497752812889854012734502930470625869929790496826171875	118.7499997516469960601170896552503108978271484375	0.0	3398.7612749139598236070014536380767822265625	0.0	1	1	1	1
3344	S6	2019	5	20	8	127.1924051906400023881360539235174655914306640625	5.8501940313155902373409844585694372653961181640625	124.711733443490999206915148533880710601806640625	16.5832870664037983488015015609562397003173828125	90.9437324502674044879313441924750804901123046875	0.76016713317722295339962101934361271560192108154296875	109.2499991257979985448400839231908321380615234375	0.0	3047.8820030887900429661385715007781982421875	0.0	1	1	1	1
3345	S6	2019	5	20	9	100.1379380649990054052977939136326313018798828125	0.5778259260786899886852552299387753009796142578125	100.070237180920997843713848851621150970458984375	16.73416677051120160513164591975510120391845703125	90.108333206176695284739253111183643341064453125	0.95694444585177595996583477244712412357330322265625	88.9166668057435032324065105058252811431884765625	0.0	2666.68904572725978141534142196178436279296875	0.0	1	1	1	1
3346	S6	2019	5	20	10	178.58427403767899477315950207412242889404296875	0.933855771977039950115795363672077655792236328125	177.665465354919007268108543939888477325439453125	17.3349998897976007583565660752356052398681640625	86.7869448131985024019741103984415531158447265625	0.96138889052801601575737322491477243602275848388671875	162.916667138537007986087701283395290374755859375	0.0	4860.5056578914300189353525638580322265625	0.0	1	1	1	1
3347	S6	2019	5	20	11	381.13407838609401778739993460476398468017578125	3.04353911686273992387441467144526541233062744140625	375.80441012912302767290384508669376373291015625	18.433055665757901664392193197272717952728271484375	82.37277789645719394684419967234134674072265625	1.33333332894576006566467185621149837970733642578125	367.250002920626002378412522375583648681640625	0.0	10515.778342882700599147938191890716552734375	0.0	1	1	1	1
3348	S6	2019	5	20	12	518.700544436994050556677393615245819091796875	39.80832217463539990376375499181449413299560546875	480.91728248702401060654665343463420867919921875	19.513649018694099623871807125397026538848876953125	78.24317504967820013916934840381145477294921875	1.33760445745542000395289505831897258758544921875	546.7500016093230215119547210633754730224609375	0.0	14254.128396510999664315022528171539306640625	0.0	1	1	1	1
3349	S6	2019	5	20	13	815.70829781426300542079843580722808837890625	771.457994725305979955010116100311279296875	194.4827082739930119714699685573577880859375	21.20416657659740167218842543661594390869140625	71.029444397820299172963132150471210479736328125	1.2683333353863799342065021846792660653591156005859375	988.08334271114699731697328388690948486328125	0.0	24191.8297012645998620428144931793212890625	0.0	1	1	1	1
3350	S6	2019	5	20	14	746.6212335345379642603802494704723358154296875	560.0667827122509834225638769567012786865234375	312.1524733181649935431778430938720703125	21.99827589933889981921311118640005588531494140625	65.9525863165141998933904687874019145965576171875	1.3382183872591399964591118987300433218479156494140625	788.0833297967900534786167554557323455810546875	0.0	19103.17782560980049311183393001556396484375	0.0	1	1	1	1
3351	S6	2019	5	20	15	699.6681113349060296968673355877399444580078125	778.6963595920129819205612875521183013916015625	148.612600411308989123426727019250392913818359375	21.802777751286800622665396076627075672149658203125	66.922777281867098508882918395102024078369140625	1.5461111100183499988958146786899305880069732666015625	830.1666627327609830899746157228946685791015625	0.0	20430.39592107139833387918770313262939453125	0.0	1	1	1	1
3352	S6	2019	5	20	16	579.5182260301370433808187954127788543701171875	715.932939232719945721328258514404296875	139.876043446858005836475058458745479583740234375	21.36583345201280081937511567957699298858642578125	66.925555441114596533225267194211483001708984375	1.9211111110117700118138372999965213239192962646484375	669.666652878124978087726049125194549560546875	0.0	16763.32726081199871259741485118865966796875	0.0	1	1	1	1
3353	S6	2019	5	20	17	447.53001319037497296449146233499050140380859375	638.729245079887959946063347160816192626953125	131.1617277357310058505390770733356475830078125	20.79972218407520045957426191307604312896728515625	67.10472276475690023289644159376621246337890625	1.9036111107302999823076561369816772639751434326171875	484.41666861375102826059446670114994049072265625	0.0	12228.529155254300349042750895023345947265625	0.0	1	1	1	1
3354	S6	2019	5	20	18	289.728358078001974718063138425350189208984375	509.03621919419998675948590971529483795166015625	106.6405122968880050393636338412761688232421875	20.1730556699964012068448937498033046722412109375	69.8858334859211964840142172761261463165283203125	1.7208333314292900695363641716539859771728515625	274.16666721304198972575250081717967987060546875	0.0	6764.426598946260128286667168140411376953125	0.0	1	1	1	1
3355	S6	2019	5	20	19	189.263268915812005843690712936222553253173828125	401.25132624308201911844662390649318695068359375	96.7586651484170943149365484714508056640625	19.651111200120698896398607757873833179473876953125	69.0761116027832002828290569595992565155029296875	2.07388888547817007435014602378942072391510009765625	143.2500003526610043991240672767162322998046875	0.0	3617.0155853033002131269313395023345947265625	0.0	1	1	1	1
3356	S6	2019	5	20	20	62.18084010672060202296052011661231517791748046875	55.01283980271909967996180057525634765625	57.362552013802996953018009662628173828125	18.45744695731080042833127663470804691314697265625	75.977659238991094525772496126592159271240234375	1.504609928591869927316793109639547765254974365234375	47.916667070239697068245732225477695465087890625	0.0	1566.714034726220006632502190768718719482421875	0.0	1	1	1	1
3357	S6	2019	5	20	21	14.6558571931357004558549306239001452922821044921875	0.375525172347219993174149976766784675419330596923828125	15.232314644572799267052687355317175388336181640625	17.730841128625598912549321539700031280517578125	80.125233160001101850866689346730709075927734375	1.4691588756079900779383251574472524225711822509765625	3.000000016375750089281382315675728023052215576171875	0.0	160.210273228583986337980604730546474456787109375	0.0	1	1	1	0
3358	S6	2019	5	20	22	0	0	0	0	0	0	0	0.0	0	0.0	1	1	1	0
3359	S6	2019	5	20	23	0	0	0	0	0	0	0	0.0	0	0.0	1	1	1	0
3360	S6	2019	5	20	24	0	0	0	0	0	0	0	0.0	0	0.0	1	1	1	0
3361	S6	2019	5	21	1	0	0	0	0	0	0	0	0.0	0	0.0	1	1	1	0
3362	S6	2019	5	21	2	0	0	0	0	0	0	0	0.0	0	0.0	1	1	1	0
3363	S6	2019	5	21	3	0	0	0	0	0	0	0	0.0	0	0.0	1	1	1	0
3364	S6	2019	5	21	4	0.37000784254632801406614817096851766109466552734375	0.332270257174967997837455868648248724639415740966796875	0.3703569575445719852524462112342007458209991455078125	13.6375001668930000420232317992486059665679931640625	95.90000152587890625	1.762500002980230018323481999686919152736663818359375	0	0.0	0	0.0	1	1	1	0
3365	S6	2019	5	21	5	12.4726571604608995613716615480370819568634033203125	0.37407834894127300895405596747878007590770721435546875	12.50206160826810020125776645727455615997314453125	13.596111178398100349795640795491635799407958984375	96.4622214847139929361219401471316814422607421875	2.027777776867150105744030952337197959423065185546875	11.6666665999216991878029148210771381855010986328125	0.0	340.12614128490400844384566880762577056884765625	0.0	1	1	1	1
3366	S6	2019	5	21	6	45.898523977067696932863327674567699432373046875	0.46109581506914498749694075740990228950977325439453125	45.97717673513619729419588111340999603271484375	13.8808333900239002645093933097086846828460693359375	96.366110632154601489673950709402561187744140625	1.1875000037252900764173091374686919152736663818359375	42.00000036507849898725908133201301097869873046875	0.0	1186.443282912169934206758625805377960205078125	0.0	1	1	1	1
3367	S6	2019	5	21	7	78.6292356067232987015813705511391162872314453125	0.58799945397509401079361168740433640778064727783203125	78.675048669179204807733185589313507080078125	14.434444506963000520727291586808860301971435546875	96.0377781338161042867795913480222225189208984375	1.042500001274869969591918561491183936595916748046875	73.6666672552625954040195210836827754974365234375	0.0	2127.78304517268998097279109060764312744140625	0.0	1	1	1	1
3368	S6	2019	5	21	8	265.12823526932697859592735767364501953125	65.4279839247881938035789062269032001495361328125	232.7182038037379925299319438636302947998046875	16.055182235247599464855738915503025054931640625	91.6140053799839932935356046073138713836669921875	0.75042017133963800912255237562931142747402191162109375	231.916667272647003983365721069276332855224609375	0.0	6690.080935756350299925543367862701416015625	0.0	1	1	1	1
3369	S6	2019	5	21	9	207.497825537787008443046943284571170806884765625	3.89541658227228015931586924125440418720245361328125	204.7309373007880139994085766375064849853515625	16.441388951407500229606739594601094722747802734375	91.0019438213771962864484521560370922088623046875	0.98916666722959900592826443244121037423610687255859375	193.916664148368994347038096748292446136474609375	0.0	5572.8397220373199161258526146411895751953125	0.0	1	1	1	1
3370	S6	2019	5	21	10	156.25288874308199638107907958328723907470703125	1.20170874225182000571976459468714892864227294921875	155.06583309173498719246708787977695465087890625	16.380000146229999558045165031217038631439208984375	93.89333343505859375	0.9891666714515949809793937674839980900287628173828125	152.91666549940799768592114560306072235107421875	0.0	4629.3198913335700126481242477893829345703125	0.0	1	1	1	1
3371	S6	2019	5	21	11	263.24333862728502708705491386353969573974609375	1.2851613310476099893975288068759255111217498779296875	261.90985016292898990286630578339099884033203125	17.04666671752929829608547152020037174224853515625	90.7950000762939026799358543939888477325439453125	0.99083333230680803449530458237859420478343963623046875	235.25000115235599196239490993320941925048828125	0.0	6900.2257585525903778034262359142303466796875	0.0	1	1	1	1
3372	S6	2019	5	21	12	168.06804883744899825614993460476398468017578125	0.72246981039643198840849436237476766109466552734375	166.799687491522007576350006274878978729248046875	16.426666768391900319556953036226332187652587890625	92.531666946411093022106797434389591217041015625	1.140833333714140085390909007401205599308013916015625	148.33333405355500644873245619237422943115234375	0.0	4517.668296893460137653164565563201904296875	0.0	1	1	1	1
3373	S6	2019	5	21	13	258.3187030368379737410577945411205291748046875	1.246569210870390076451030836324207484722137451171875	256.01782548692398222556221298873424530029296875	17.655000082651699955249569029547274112701416015625	88.546666844685802288950071670114994049072265625	0.790833335038688023388431247440166771411895751953125	232.58333653211599312271573580801486968994140625	0.0	6865.1138842105801813886500895023345947265625	0.0	1	1	1	1
3374	S6	2019	5	21	14	239.086407164677012815445777960121631622314453125	1.1070217097069099398964908687048591673374176025390625	237.1084923279310032739886082708835601806640625	17.865459505893998226611074642278254032135009765625	86.9481891430187943115015514194965362548828125	1.0601671321478300935581273733987472951412200927734375	219.75000016391101098633953370153903961181640625	0.0	6411.7590636014801930286921560764312744140625	0.0	1	1	1	1
3375	S6	2019	5	21	15	218.1230363421969968840130604803562164306640625	2.02153389623595014512602574541233479976654052734375	216.375333404541009940658113919198513031005859375	17.77499990463250156835783855058252811431884765625	89.038333638509101319868932478129863739013671875	1.07305555674764008244892465882003307342529296875	202.41666523118800569136510603129863739013671875	0.0	5936.906948685629686224274337291717529296875	0.0	1	1	1	1
3376	S6	2019	5	21	16	329.9127030415060062296106480062007904052734375	40.49326885379399953990287031047046184539794921875	304.2255356333020017700619064271450042724609375	19.965875416198098690756523865275084972381591796875	80.5364986159327003178987069986760616302490234375	0.44480712548207801404487327090464532375335693359375	316.9999991854029985915985889732837677001953125	0.0	8667.99699763454918866045773029327392578125	0.0	1	1	1	1
3377	S6	2019	5	21	17	109.5104254134970034328944166190922260284423828125	0.301777795824592021123322638231911696493625640869140625	109.2706946042249995798556483350694179534912109375	18.04208757419770137175873969681560993194580078125	85.3760947025183014602589537389576435089111328125	0.93063973216496698181998681320692412555217742919921875	94.4166664655004979067598469555377960205078125	0.0	2795.001479486620155512355268001556396484375	0.0	1	1	1	1
3378	S6	2019	5	21	18	24.6286000246442000616298173554241657257080078125	0.310841560787157022982540865996270440518856048583984375	24.61280343252850144608601112850010395050048828125	16.172346413468499548571344348601996898651123046875	91.1377094204865016990879666991531848907470703125	1.5874301698787200987084133885218761861324310302734375	17.6666666908810015002018189989030361175537109375	0.0	570.07257392009205432259477674961090087890625	0.0	1	1	1	1
3379	S6	2019	5	21	19	7.09297860198550012000850983895361423492431640625	0.300210421180559017262368115552817471325397491455078125	7.10437351067859967912454521865583956241607666015625	15.163333304723099814736997359432280063629150390625	94.0100001017251969415156054310500621795654296875	1.5436111046208200736629123639431782066822052001953125	4.5000000391155499102069370565004646778106689453125	0.0	173.4963739290830062600434757769107818603515625	0.0	1	1	1	1
3380	S6	2019	5	21	20	5.7387744977612502594865873106755316257476806640625	0.3509049625120059801020033773966133594512939453125	5.87012512610634029641687448020093142986297607421875	14.5832763971322005858155534951947629451751708984375	96.174061459485898240018286742269992828369140625	1.56143344536982997539098505512811243534088134765625	3.416666693131749976686251102364622056484222412109375	0.0	122.8321751113970066171532380394637584686279296875	0.0	1	1	1	1
3381	S6	2019	5	21	21	0.870186865329741987551415149937383830547332763671875	0.390391844511031982367654791232780553400516510009765625	0.90473058223724300841439571740920655429363250732421875	14.5400001525877993202584548271261155605316162109375	96.9400009155273068017777404747903347015380859375	1.859999954700469970703125	0	0.0	0	0.0	1	1	1	0
3382	S6	2019	5	21	22	0	0	0	0	0	0	0	0.0	0	0.0	1	1	1	0
3383	S6	2019	5	21	23	0	0	0	0	0	0	0	0.0	0	0.0	1	1	1	0
3384	S6	2019	5	21	24	0	0	0	0	0	0	0	0.0	0	0.0	1	1	1	0
3385	S6	2019	5	22	1	0	0	0	0	0	0	0	0.0	0	0.0	1	1	1	0
3386	S6	2019	5	22	2	0	0	0	0	0	0	0	0.0	0	0.0	1	1	1	0
3387	S6	2019	5	22	3	0	0	0	0	0	0	0	0.0	0	0.0	1	1	1	0
3388	S6	2019	5	22	4	2.836576304652469904254985522129572927951812744140625	0.321498555554585008220414010793319903314113616943359375	2.829991963776670171881733040208928287029266357421875	12.1863637837496003868409388815052807331085205078125	97.6363615556196009492850862443447113037109375	1.868181812492279991744226208538748323917388916015625	0.41666667675599999842717124920454807579517364501953125	0.0	4.68165000590180024886421961127780377864837646484375	0.0	1	1	1	0
3389	S6	2019	5	22	5	17.882859894302100656204856932163238525390625	0.422866587258046988662130161173990927636623382568359375	17.969036397006700411793644889257848262786865234375	12.156666692097900295266299508512020111083984375	97.598333231607995230660890229046344757080078125	1.300833332124680108421443947008810937404632568359375	16.0833332920447986680301255546510219573974609375	0.0	455.446828311931994903716258704662322998046875	0.0	1	1	1	1
3390	S6	2019	5	22	6	41.3265069113837029135538614355027675628662109375	0.470763006144098994365521093641291372478008270263671875	41.41676811642110322964072111062705516815185546875	12.553333298365199510726597509346902370452880859375	96.38333320617670096908113919198513031005859375	1.233333332008780036659345569205470383167266845703125	36.416667203108403327860287390649318695068359375	0.0	1046.113037814689960214309394359588623046875	0.0	1	1	1	1
3391	S6	2019	5	22	7	69.70318181779640553941135294735431671142578125	0.5572420654197529632511987074394710361957550048828125	69.82858947118120340746827423572540283203125	12.993333387374800480529302149079740047454833984375	95.63000017801920193960540927946567535400390625	1.1036111109786499451246299940976314246654510498046875	63.7500006705520974037426640279591083526611328125	0.0	1890.53440093994004200794734060764312744140625	0.0	1	1	1	1
3392	S6	2019	5	22	8	63.4306899070738978707595379091799259185791015625	0.5480688869125309725660599724506027996540069580078125	63.51117722193399828256588079966604709625244140625	13.454999971389700164081659750081598758697509765625	94.5816663106281936279629007913172245025634765625	0.713611113611194003425453047384507954120635986328125	55.33333371082940033147679059766232967376708984375	0.0	1695.289832850289940324728377163410186767578125	0.0	1	1	1	1
3393	S6	2019	5	22	9	100.3878633287209964919384219683706760406494140625	0.66633787535958799441715427747112698853015899658203125	100.345526949564003871273598633706569671630859375	13.8283332824706999275576890795491635799407958984375	95.483333206176695284739253111183643341064453125	0.77583333734008996795949997249408625066280364990234375	94.0833330775304972348749288357794284820556640625	0.0	2828.490532934660222963429987430572509765625	0.0	1	1	1	1
3394	S6	2019	5	22	10	101.799271329242998262998298741877079010009765625	0.57234042045763799944069205594132654368877410888671875	101.5649940278789955527827260084450244903564453125	14.0083333174386996944349448313005268573760986328125	96.5249994913736060198061750270426273345947265625	1.609722224043470095722341284272260963916778564453125	95.00000129143410276810755021870136260986328125	0.0	2950.5145748456297951634041965007781982421875	0.0	1	1	1	1
3395	S6	2019	5	22	11	117.923455980087993566485238261520862579345703125	0.64136244220038196583999479116755537688732147216796875	117.502678553262995819750358350574970245361328125	13.501666641235299692880289512686431407928466796875	96.6650000254312971037506940774619579315185546875	2.239444443749050162040248324046842753887176513671875	107.9999990761269970107605331577360630035400390625	0.0	3327.54891614119014775496907532215118408203125	0.0	1	1	1	1
3396	S6	2019	5	22	12	116.2298460430559998712851665914058685302734375	0.6328050209416280491581119349575601518154144287109375	115.6321312586459981730513391084969043731689453125	13.15999995867409921856960863806307315826416015625	95.6316665649413977234871708787977695465087890625	2.062499994039530104572577329236082732677459716796875	106.916667272647003983365721069276332855224609375	0.0	3324.465408921239941264502704143524169921875	0.0	1	1	1	1
3397	S6	2019	5	22	13	123.045807011921993989744805730879306793212890625	0.6673119580580120224766460523824207484722137451171875	122.36085775163400057863327674567699432373046875	12.7333333651223998828072581090964376926422119140625	94.8183333079019945444088079966604709625244140625	1.953888892382380060297464297036640346050262451171875	112.2500002384179964565191767178475856781005859375	0.0	3500.54476658503017461043782532215118408203125	0.0	1	1	1	1
3398	S6	2019	5	22	14	151.655097897847014110084273852407932281494140625	0.74211956444713800262746872249408625066280364990234375	150.803532918293996090142172761261463165283203125	12.9600000063578004727560255560092628002166748046875	90.988333002726193399212206713855266571044921875	1.936944447457789930666649524937383830547332763671875	139.250000317889998768805526196956634521484375	0.0	4348.959505558030286920256912708282470703125	0.0	1	1	1	1
3399	S6	2019	5	22	15	139.639756351046997906450997106730937957763671875	0.64950450327661302107884466749965213239192962646484375	139.047243245441990211475058458745479583740234375	12.901666593551599504507976234890520572662353515625	89.3149995168050025995398755185306072235107421875	2.259999996920420084478564604069106280803680419921875	129.00000065564898932279902510344982147216796875	0.0	3983.7238788604799992754124104976654052734375	0.0	1	1	1	1
3400	S6	2019	5	22	16	76.9110884878370058004293241538107395172119140625	0.5018504656851290324226511074812151491641998291015625	76.6592147615219943190822959877550601959228515625	12.9866665681203006244004427571780979633331298828125	87.8949995676675968070412636734545230865478515625	2.469999994999830139619234614656306803226470947265625	68.3333336686091996625691535882651805877685546875	0.0	2104.3060645461000603972934186458587646484375	0.0	1	1	1	1
3401	S6	2019	5	22	17	51.75783928765189756404652143828570842742919921875	0.469390344123044978008607586161815561354160308837890625	51.7246157858105988225361215882003307342529296875	12.70333336194349982406492927111685276031494140625	87.3716668446858051311210147105157375335693359375	2.68805555618471014867054691421799361705780029296875	47.083333134651098816902958787977695465087890625	0.0	1413.935455183190015304717235267162322998046875	0.0	1	1	1	1
3402	S6	2019	5	22	18	68.8512958314683061189498403109610080718994140625	0.56363181347648294572394433998852036893367767333984375	68.9587973488701067026340751908719539642333984375	12.6233334382375002036269506788812577724456787109375	84.449999618530199541055480949580669403076171875	2.63611110746859989006907198927365243434906005859375	61.9166662606100004495601751841604709625244140625	0.0	1746.516056358809919402119703590869903564453125	0.0	1	1	1	1
3403	S6	2019	5	22	19	74.062609375847699766381992958486080169677734375	11.358162459151600387485814280807971954345703125	72.382489840189606411513523198664188385009765625	12.7999999205270995616956497542560100555419921875	82.1266667683918996090142172761261463165283203125	2.26249999644026988931955202133394777774810791015625	63.33333409080899656373730977065861225128173828125	0.0	1757.520350317159909536712802946567535400390625	0.0	1	1	1	1
3404	S6	2019	5	22	20	32.695259099536400526631041429936885833740234375	0.4271147619518960159012976873782463371753692626953125	33.2374759064779965456182253547012805938720703125	12.591666714350299827174239908345043659210205078125	82.875000508626300188552704639732837677001953125	1.7308333329028500191526518392493017017841339111328125	25.9166667237875998353047179989516735076904296875	0.0	740.9445742766059765926911495625972747802734375	0.0	1	1	1	1
3405	S6	2019	5	22	21	12.6510596157592001276270821108482778072357177734375	0.79682181462829404505754382626037113368511199951171875	13.079917984244200823695791768841445446014404296875	12.5950617731352991768289939500391483306884765625	82.1938277821481051432783715426921844482421875	1.735802454712950027015949672204442322254180908203125	2.583333378424840010012530910898931324481964111328125	0.0	122.3150585622839940924677648581564426422119140625	0.0	1	1	1	0
3406	S6	2019	5	22	22	0	0	0	0	0	0	0	0.0	0	0.0	1	1	1	0
3407	S6	2019	5	22	23	0	0	0	0	0	0	0	0.0	0	0.0	1	1	1	0
3408	S6	2019	5	22	24	0	0	0	0	0	0	0	0.0	0	0.0	1	1	1	0
3409	S6	2019	5	23	1	0	0	0	0	0	0	0	0.0	0	0.0	1	1	1	0
3410	S6	2019	5	23	2	0	0	0	0	0	0	0	0.0	0	0.0	1	1	1	0
3411	S6	2019	5	23	3	0	0	0	0	0	0	0	0.0	0	0.0	1	1	1	0
3412	S6	2019	5	23	4	0	0	0	0	0	0	1.4166666951496100779195330687798559665679931640625	0.0	74.1110493739445956862255115993320941925048828125	0.0	1	1	1	0
3413	S6	2019	5	23	5	43.3199668941118005704993265680968761444091796875	60.977034689673502043660846538841724395751953125	38.86793742274600305108833708800375461578369140625	9.748013294295759578744764439761638641357421875	88.43675535088340211586910299956798553466796875	1.759602644980339913871603130246512591838836669921875	26.16666676476599917577914311550557613372802734375	0.0	952.586796755593013585894368588924407958984375	0.0	1	1	1	1
3414	S6	2019	5	23	6	123.0571671803789968180353753268718719482421875	230.636012437608002301203669048845767974853515625	77.197681861453503415759769268333911895751953125	10.3016666730243997562865843065083026885986328125	87.0616671244303006460540927946567535400390625	2.46666666261022982098438660614192485809326171875	57.16666703422850304150415468029677867889404296875	0.0	2073.95842174688004888594150543212890625	0.0	1	1	1	1
3415	S6	2019	5	23	7	276.6922671361400034584221430122852325439453125	461.3800957080990201575332321226596832275390625	120.1179005015980010284692980349063873291015625	11.4678977186029005252976276096887886524200439453125	83.085227554494593960043857805430889129638671875	2.171874998730010108971555382595397531986236572265625	182.08333166936898805943201296031475067138671875	0.0	5206.5579940875395550392568111419677734375	0.0	1	1	1	1
3416	S6	2019	5	23	8	331.5206428827469835596275515854358673095703125	292.23519573777099367362097837030887603759765625	190.7625002212749905083910562098026275634765625	12.2806646744649992086806378210894763469696044921875	78.5794560873255960586902801878750324249267578125	1.7697885125605299361239985955762676894664764404296875	298.74999697009701549177407287061214447021484375	0.0	8362.533738215759512968361377716064453125	0.0	1	1	1	1
3417	S6	2019	5	23	9	603.7072116862919983759638853371143341064453125	830.886196860765949168126098811626434326171875	106.44708870312200588159612379968166351318359375	14.24373179343970008403630345128476619720458984375	67.9177841764844032468317891471087932586669921875	1.7583090386654800507670870501897297799587249755859375	600.1666709780689643594087101519107818603515625	0.0	16770.8215912183004547841846942901611328125	0.0	1	1	1	1
3418	S6	2019	5	23	10	718.2919426812060237352852709591388702392578125	932.4889567057290378215839155018329620361328125	70.28232896592879797026398591697216033935546875	15.935000022252399531907940399833023548126220703125	59.48333333333329875358685967512428760528564453125	1.308888887696789904424576889141462743282318115234375	780.333340167999040204449556767940521240234375	0.0	20891.274174054400646127760410308837890625	0.0	1	1	1	1
3419	S6	2019	5	23	11	800.83122592502104453160427510738372802734375	933.7457256740990487742237746715545654296875	83.4382538689506958462516195140779018402099609375	16.929999987284300999590413994155824184417724609375	56.82000001271560307714025839231908321380615234375	1.374999996523059930808585704653523862361907958984375	915.083328882850992158637382090091705322265625	0.0	23570.54320971170091070234775543212890625	0.0	1	1	1	1
3420	S6	2019	5	23	12	842.9867123074000119231641292572021484375	905.159044731987023624242283403873443603515625	110.2875531938340003534904099069535732269287109375	17.65999987920120162243620143271982669830322265625	54.45333321889240352220440399833023548126220703125	1.5511111093891900569730069037177599966526031494140625	992.750003933914968001772649586200714111328125	0.0	24662.28969891860106145031750202178955078125	0.0	1	1	1	1
3421	S6	2019	5	23	13	845.17304263644700768054462969303131103515625	884.4181972927509605142404325306415557861328125	124.47308601803200645008473657071590423583984375	18.1883333841959000665156054310500621795654296875	54.2983330408732030036844662390649318695068359375	2.393888888094160005692856429959647357463836669921875	1016.083354751249999026185832917690277099609375	0.0	25099.6427933375016436912119388580322265625	0.0	1	1	1	1
3422	S6	2019	5	23	14	799.1874012332240226896828971803188323974609375	787.06236107779704980202950537204742431640625	183.01086552573400467736064456403255462646484375	18.972779435209599085965237463824450969696044921875	54.021776379691800684668123722076416015625	2.18825213683710018131023389287292957305908203125	963.250001271567043659160844981670379638671875	0.0	23771.5920209883988718502223491668701171875	0.0	1	1	1	1
3423	S6	2019	5	23	15	711.8712919867469963719486258924007415771484375	717.348777728491995731019414961338043212890625	194.94987288025998850571340881288051605224609375	19.092757573034699447589446208439767360687255859375	53.96155989070449976452437113039195537567138671875	2.4983286900772601057951760594733059406280517578125	832.333336273826944307074882090091705322265625	0.0	21077.248334884599898941814899444580078125	0.0	1	1	1	1
3424	S6	2019	5	23	16	549.4090451952430385063053108751773834228515625	447.38497251364498197290231473743915557861328125	267.01541060326798060486908070743083953857421875	18.93070416517659992905464605428278446197509765625	54.48197178370509874412164208479225635528564453125	2.489014081384090193438396454439498484134674072265625	607.5833439826959647689363919198513031005859375	0.0	15773.852904637600659043528139591217041015625	0.0	1	1	1	1
3425	S6	2019	5	23	17	465.58218839798797716866829432547092437744140625	461.4988117553720030628028325736522674560546875	235.652343048445999329487676732242107391357421875	19.204597758150601549687053193338215351104736328125	53.6563216790384984733464079909026622772216796875	2.154885052521330113250996873830445110797882080078125	478.6666656533880086499266326427459716796875	0.0	12430.202662944799158140085637569427490234375	0.0	1	1	1	1
3426	S6	2019	5	23	18	274.9786376525700006823171861469745635986328125	304.952040113174007274210453033447265625	162.253488535305990581036894582211971282958984375	18.655742271273698662525930558331310749053955078125	55.041736720322802511873305775225162506103515625	2.18991596007546984736791273462586104869842529296875	261.91666349768502186634577810764312744140625	0.0	6683.5012435913204171811230480670928955078125	0.0	1	1	1	1
3427	S6	2019	5	23	19	185.543066406250005684341886080801486968994140625	308.022523472043985748314298689365386962890625	115.6661970562399943673881352879106998443603515625	18.328333218892399969490725197829306125640869140625	57.163333638509101319868932478129863739013671875	1.688333335601619911159332332317717373371124267578125	144.916666671633009855213458649814128875732421875	0.0	3777.50862141450988929136656224727630615234375	0.0	1	1	1	1
3428	S6	2019	5	23	20	56.38132949642359648123601800762116909027099609375	52.396635541340600639159674756228923797607421875	50.30749854507970297845531604252755641937255859375	17.332517530534598648728206171654164791107177734375	61.0479022873031027529577841050922870635986328125	1.251048951299039924123235323349945247173309326171875	42.9166670267780006042812601663172245025634765625	0.0	1397.70191038647999448585323989391326904296875	0.0	1	1	1	1
3429	S6	2019	5	23	21	15.9900800770725997068666401901282370090484619140625	0.6280565181340289626632511499337852001190185546875	16.675969606158300706510999589227139949798583984375	16.445977178113199812514721998013556003570556640625	63.73103420213720227138765039853751659393310546875	1.1931034467001000454189352240064181387424468994140625	2.9166666402791801004923399887047708034515380859375	0.0	144.868157299545003979801549576222896575927734375	0.0	1	1	1	0
3430	S6	2019	5	23	22	0	0	0	0	0	0	0	0.0	0	0.0	1	1	1	0
3431	S6	2019	5	23	23	0	0	0	0	0	0	0	0.0	0	0.0	1	1	1	0
3432	S6	2019	5	23	24	0	0	0	0	0	0	0	0.0	0	0.0	1	1	1	0
3433	S6	2019	5	24	1	0	0	0	0	0	0	0	0.0	0	0.0	1	1	1	0
3434	S6	2019	5	24	2	0	0	0	0	0	0	0	0.0	0	0.0	1	1	1	0
3435	S6	2019	5	24	3	0	0	0	0	0	0	0	0.0	0	0.0	1	1	1	0
3436	S6	2019	5	24	4	4.92735594511032015674345529987476766109466552734375	0.4019786026328799888318599187186919152736663818359375	5.1154892444610595703125	11.2875001430510994993028361932374536991119384765625	86.924998760223303406746708787977695465087890625	0.30625000409781899524119808120303787291049957275390625	0.5833333610401829627534198152716271579265594482421875	0.0	44.29279151372639944383990950882434844970703125	0.0	1	1	1	0
3437	S6	2019	5	24	5	31.2841323534646988946406054310500621795654296875	48.5148527718854012391602736897766590118408203125	26.17627404675329927385973860509693622589111328125	10.9933333136818003339385541039519011974334716796875	87.384848924116596435851533897221088409423828125	0.53424242924560194634153731385595165193080902099609375	17.7500001154838997763363295234739780426025390625	0.0	625.85828360169898587628267705440521240234375	0.0	1	1	1	1
3438	S6	2019	5	24	6	153.109365187750000814048689790070056915283203125	477.01647432115299807264818809926509857177734375	52.91312532424920078710783855058252811431884765625	11.95166660944619962947399471886456012725830078125	79.923333613077801373947295360267162322998046875	1.2694444453550699503097121123573742806911468505859375	41.49999997268120210947017767466604709625244140625	0.0	1926.197427014499908182187937200069427490234375	0.0	1	1	1	1
3439	S6	2019	5	24	7	306.0676147460929996668710373342037200927734375	719.900715467663985691615380346775054931640625	59.92086967892110038746977807022631168365478515625	13.486666631698600582467406638897955417633056640625	71.28833351135250495644868351519107818603515625	1.4833333318432100345063417989877052605152130126953125	194.999997193614007073847460560500621795654296875	0.0	5536.018768946340060210786759853363037109375	0.0	1	1	1	1
3440	S6	2019	5	24	8	459.1564002143010156942182220518589019775390625	830.197982279458983612130396068096160888671875	64.1565826733907016432567615993320941925048828125	14.9600001176197991981098311953246593475341796875	57.0816666920978974530953564681112766265869140625	2.18194444113307017829583855927921831607818603515625	399.6666669845579917819122783839702606201171875	0.0	11341.85369809469921165145933628082275390625	0.0	1	1	1	1
3441	S6	2019	5	24	9	584.11921641031904073315672576427459716796875	817.5016474405920234858058393001556396484375	98.1564811070760043776317615993320941925048828125	16.21333332061760046372000942938029766082763671875	55.01166655222569801253484911285340785980224609375	2.276944441762230209036488304263912141323089599609375	577.9166618982950467398040927946567535400390625	0.0	16077.89605855939953471533954143524169921875	0.0	1	1	1	1
3442	S6	2019	5	24	10	693.6174017197589591887663118541240692138671875	681.1569654581929853520705364644527435302734375	219.207184477225013097267947159707546234130859375	17.3793296547574982469086535274982452392578125	54.83547489869520319416551501490175724029541015625	2.59776535613575987326839822344481945037841796875	735.9999964634570233101840130984783172607421875	0.0	19582.72526661550000426359474658966064453125	0.0	1	1	1	1
3443	S6	2019	5	24	11	663.3122171862370350936544127762317657470703125	204.15920971137001060924376361072063446044921875	497.00876538506798851813073270022869110107421875	17.895114915124299415083441999740898609161376953125	54.876436781609100989953731186687946319580078125	3.120977011905309961292687148670665919780731201171875	687.5833223263419995419098995625972747802734375	0.0	17672.98416296640061773359775543212890625	0.0	1	1	1	1
3444	S6	2019	5	24	12	483.92337919085201747293467633426189422607421875	29.9138401278786005832444061525166034698486328125	454.46049156617499420462991110980510711669921875	17.913483169641299497243380756117403507232666015625	56.70477540305490293803813983686268329620361328125	3.15308988655216015928317574434913694858551025390625	489.083339770633983789593912661075592041015625	0.0	13430.258631706199594191275537014007568359375	0.0	1	1	1	1
3445	S6	2019	5	24	13	159.81429025861899617666495032608509063720703125	0.6907440245151510449517218148685060441493988037109375	157.2689273834220102799008600413799285888671875	17.2650001843770013465473311953246593475341796875	59.30333315531409965615239343605935573577880859375	3.31694444086816009331641907920129597187042236328125	150.58333364625599415376200340688228607177734375	0.0	4532.0100486278597600175999104976654052734375	0.0	1	1	1	1
3446	S6	2019	5	24	14	77.4352296622057991726251202635467052459716796875	0.5666635805106110534978824944118969142436981201171875	76.08794916703010358105530031025409698486328125	16.33895171804820023453430621884763240814208984375	67.030337044362198639646521769464015960693359375	3.243820219450670006011705481796525418758392333984375	61.0000006854533012301544658839702606201171875	0.0	1885.14962916572994799935258924961090087890625	0.0	1	1	1	1
3447	S6	2019	5	24	15	117.218110745995005572694935835897922515869140625	0.57959592515670099732716380458441562950611114501953125	116.9304104860769939477904699742794036865234375	14.1857938793044002778742651571519672870635986328125	79.2264625740582033586179022677242755889892578125	2.42089136281053018961983980261720716953277587890625	105.333333214122006893376237712800502777099609375	0.0	3305.055141448960057459771633148193359375	0.0	1	1	1	1
3448	S6	2019	5	24	16	127.831433380974004876406979747116565704345703125	0.55359842938681402824130373119260184466838836669921875	127.6604093551629972580485627986490726470947265625	13.10000003178910077394903055392205715179443359375	84.1033336639404041079615126363933086395263671875	3.220555557641710198168993883882649242877960205078125	111.4166658371670024507693597115576267242431640625	0.0	3461.95993324119990575127303600311279296875	0.0	1	1	1	1
3449	S6	2019	5	24	17	187.953553316068990852727438323199748992919921875	59.18301428261749919101930572651326656341552734375	158.670422902920989827180164866149425506591796875	12.8585365516383003381406524567864835262298583984375	82.7637194424140005821755039505660533905029296875	3.369512195085599959298860994749702513217926025390625	221.75000173350099430535919964313507080078125	0.0	6136.5253180265399350901134312152862548828125	0.0	1	1	1	1
3450	S6	2019	5	24	18	269.585074781334014915046282112598419189453125	364.757984834390981632168404757976531982421875	143.70058457747700231266207993030548095703125	13.6524637802786994456027969135902822017669677734375	78.193333346601804123565671034157276153564453125	3.3220289821210098324399950797669589519500732421875	257.41666555404600558176753111183643341064453125	0.0	6518.1720356146497579175047576427459716796875	0.0	1	1	1	1
3451	S6	2019	5	24	19	158.6473658265180119997239671647548675537109375	258.8858543212840004343888722360134124755859375	91.3140805882899968537458335049450397491455078125	13.874229789114099986591099877841770648956298828125	73.2120446811536993436675402335822582244873046875	2.84173669275782980747635519946925342082977294921875	119.66666889687400043840170837938785552978515625	0.0	2972.2163577874498514574952423572540283203125	0.0	1	1	1	1
3452	S6	2019	5	24	20	32.22168297105360323939748923294246196746826171875	0.397117413000928010102796861247043125331401824951171875	32.4709658437304966582814813591539859771728515625	13.2183332761127996235472892294637858867645263671875	72.3233337402343039457264239899814128875732421875	3.460833328879540093936384437256492674350738525390625	26.5833331116785984704620204865932464599609375	0.0	754.4323755428209778983728028833866119384765625	0.0	1	1	1	1
3453	S6	2019	5	24	21	4.00783269257507956950803418294526636600494384765625	0.40424568477527100807122906189761124551296234130859375	4.1158868434817197368147390079684555530548095703125	13.05891495342400077106503886170685291290283203125	68.1217065264088006415477138943970203399658203125	3.191472874593360042894119033007882535457611083984375	1.000000037796179963578424576553516089916229248046875	0.0	38.9537661491579996209111413918435573577880859375	0.0	1	1	1	1
3454	S6	2019	5	24	22	0	0	0	0	0	0	0	0.0	0	0.0	1	1	1	0
3455	S6	2019	5	24	23	0	0	0	0	0	0	0	0.0	0	0.0	1	1	1	0
3456	S6	2019	5	24	24	0	0	0	0	0	0	0	0.0	0	0.0	1	1	1	0
3457	S6	2019	5	25	1	0	0	0	0	0	0	0	0.0	0	0.0	1	1	1	0
3458	S6	2019	5	25	2	0	0	0	0	0	0	0	0.0	0	0.0	1	1	1	0
3459	S6	2019	5	25	3	0	0	0	0	0	0	0	0.0	0	0.0	1	1	1	0
3460	S6	2019	5	25	4	5.523172809527469695467516430653631687164306640625	0.486560427798673977850540950385038740932941436767578125	5.6915144599400999680938184610567986965179443359375	11.2365385202260998909196132444776594638824462890625	79.3576919849102040416255476884543895721435546875	2.590384618594089971566063468344509601593017578125	1.0833333556850799350712577506783418357372283935546875	0.0	37.98217547591769971404573880136013031005859375	0.0	1	1	1	0
3461	S6	2019	5	25	5	19.296800106101500205113552510738372802734375	0.485443938854667023097277933629811741411685943603515625	19.568748535050200842988488147966563701629638671875	11.2266666253406999231856389087624847888946533203125	80.6316664377848013600669219158589839935302734375	2.394444439477390051962402139906771481037139892578125	16.58333349041620152775067253969609737396240234375	0.0	491.80961710711699197418056428432464599609375	0.0	1	1	1	1
3462	S6	2019	5	25	6	91.4807797920803977831383235752582550048828125	52.07796509735049994560540653765201568603515625	78.522443723277802973825600929558277130126953125	11.6151260888877008170538829290308058261871337890625	80.6336130735252964996107039041817188262939453125	2.792156861609770057697232914506457746028900146484375	67.000000427166497729558614082634449005126953125	0.0	2072.60210067032994629698805510997772216796875	0.0	1	1	1	1
3463	S6	2019	5	25	7	184.649720043730013685490121133625507354736328125	182.604431905180007333910907618701457977294921875	124.533601934258996379867312498390674591064453125	12.283577647726499293412416591309010982513427734375	77.6378299791442003652264247648417949676513671875	2.291495598393800126046926379785872995853424072265625	124.416667968035000058080186136066913604736328125	0.0	3620.23412187893018199247308075428009033203125	0.0	1	1	1	1
3464	S6	2019	5	25	8	197.26424339953200615127570927143096923828125	26.115415309070698413052014075219631195068359375	186.105599023504993283495423384010791778564453125	12.6206127953063997892968473024666309356689453125	76.1456821622289936613015015609562397003173828125	2.205849579449810082820704337791539728641510009765625	178.916667898495006738812662661075592041015625	0.0	5197.855000694629779900424182415008544921875	0.0	1	1	1	1
3465	S6	2019	5	25	9	320.97396854884101458083023317158222198486328125	69.3510946948762949659794685430824756622314453125	278.91157686475298760342411696910858154296875	13.3687323986644006623691893764771521091461181640625	71.587886584644593312987126410007476806640625	2.464225345849989867730300829862244427204132080078125	318.750001490114982516388408839702606201171875	0.0	8900.73079864184910547919571399688720703125	0.0	1	1	1	1
3466	S6	2019	5	25	10	531.5710156989820234230137430131435394287109375	263.66273328047799395790207199752330780029296875	351.0343236287429817821248434484004974365234375	14.4975757367682991372248579864390194416046142578125	67.5478787046489941303661908023059368133544921875	2.0678787861809500014942386769689619541168212890625	533.666670322417985516949556767940521240234375	0.0	14400.8510510125997825525701045989990234375	0.0	1	1	1	1
3467	S6	2019	5	25	11	534.1217992497580553390434943139553070068359375	195.64437958289801144928787834942340850830078125	378.67047145448799483347102068364620208740234375	14.5474138314695995433112329919822514057159423828125	68.27270119765699973868322558701038360595703125	2.52471264049238985904821674921549856662750244140625	527.2500018278750530953402630984783172607421875	0.0	13609.754403432199978851713240146636962890625	0.0	1	1	1	1
3468	S6	2019	5	25	12	585.3824576983689667031285353004932403564453125	202.12089027405500019085593521595001220703125	417.4233094189299890786060132086277008056640625	15.1984802698290994982244228594936430454254150390625	66.927659426054304958597640506923198699951171875	2.4428571353023897927414509467780590057373046875	688.6666665474509727573604322969913482666015625	0.0	16092.975159486100892536342144012451171875	0.0	1	1	1	1
3469	S6	2019	5	25	13	659.66674082152894698083400726318359375	325.1295372706330226719728671014308929443359375	387.4394041162410076140076853334903717041015625	15.551713340378899630422893096692860126495361328125	66.93364539696040083072148263454437255859375	2.429595013645200030083515230217017233371734619140625	750.666668017707024773699231445789337158203125	0.0	17372.3325133323014597408473491668701171875	0.0	1	1	1	1
3470	S6	2019	5	25	14	453.5308397339609882692457176744937896728515625	180.15499692837198608685866929590702056884765625	309.283191541346013764268718659877777099609375	16.32439031252039995933955651707947254180908203125	64.9155484874074062418003450147807598114013671875	2.03170732245212004585255272104404866695404052734375	564.0833377838149544913903810083866119384765625	0.0	13750.16511480010012746788561344146728515625	0.0	1	1	1	1
3471	S6	2019	5	25	15	755.110771724155029005487449467182159423828125	784.1549372153180001987493596971035003662109375	192.846838474272999519598670303821563720703125	18.089285549663298269251754391007125377655029296875	59.45863098189939677240545279346406459808349609375	2.444047617859069987389375455677509307861328125	845.999990900357033751788549125194549560546875	0.0	21486.7007732390993623994290828704833984375	0.0	1	1	1	1
3472	S6	2019	5	25	16	650.5500392005550338581087999045848846435546875	827.93968150019600216182880103588104248046875	132.93001667658398901039618067443370819091796875	18.3273810375304009312458219937980175018310546875	58.884821528480102870162227191030979156494140625	2.566369042953560164477266880567185580730438232421875	658.5833281278599997676792554557323455810546875	0.0	16666.17196798319855588488280773162841796875	0.0	1	1	1	1
3473	S6	2019	5	25	17	516.84397568099802811047993600368499755859375	790.23931764734197713551111519336700439453125	111.8789483870580028224139823578298091888427734375	17.75258612906790034458026639185845851898193359375	61.18563206990560132680911920033395290374755859375	2.38764367723601989013104685000143945217132568359375	538.3333365122470013375277630984783172607421875	0.0	13709.05258258180037955753505229949951171875	0.0	1	1	1	1
3474	S6	2019	5	25	18	293.16604962704701620168634690344333648681640625	443.2307824920579832905787043273448944091796875	117.162163167925001516778138466179370880126953125	16.4773134231567013330277404747903347015380859375	63.8256714322672991102081141434609889984130859375	2.66865671917572999660706045688129961490631103515625	288.25000176827001041601761244237422943115234375	0.0	7205.5016706387095837271772325038909912109375	0.0	1	1	1	1
3475	S6	2019	5	25	19	150.32410495747200229743611998856067657470703125	292.66051895540698524200706742703914642333984375	75.3518311713977055887880851514637470245361328125	14.7016997566979004119502860703505575656890869140625	66.8212463551810031958666513673961162567138671875	3.186968838104780044062636079615913331508636474609375	109.6666663264220034079698962159454822540283203125	0.0	2577.98725863297977412003092467784881591796875	0.0	1	1	1	1
3476	S6	2019	5	25	20	31.0058488448459996789097203873097896575927734375	0.36438353001657397545187677678768523037433624267578125	31.287662945853298879228532314300537109375	12.8974999692704006548638062668032944202423095703125	67.605277866787304219542420469224452972412109375	3.499999997019759945260375388897955417633056640625	24.83333321288230166601351811550557613372802734375	0.0	708.6328541239059859435656107962131500244140625	0.0	1	1	1	1
3477	S6	2019	5	25	21	7.154136493641839678048199857585132122039794921875	0.392184898737937992496682682030950672924518585205078125	7.26880839306820991652102748048491775989532470703125	12.65591391696720080517479800619184970855712890625	66.512903603174294175914837978780269622802734375	3.19354839927405986799158199573867022991180419921875	1.4166667048508900794701048653223551809787750244140625	0.0	48.35400710968919923971043317578732967376708984375	0.0	1	1	1	1
3478	S6	2019	5	25	22	0	0	0	0	0	0	0	0.0	0	0.0	1	1	1	0
3479	S6	2019	5	25	23	0	0	0	0	0	0	0	0.0	0	0.0	1	1	1	0
3480	S6	2019	5	25	24	0	0	0	0	0	0	0	0.0	0	0.0	1	1	1	0
3481	S6	2019	5	26	1	0	0	0	0	0	0	0	0.0	0	0.0	1	1	1	0
3482	S6	2019	5	26	2	0	0	0	0	0	0	0	0.0	0	0.0	1	1	1	0
3483	S6	2019	5	26	3	0	0	0	0	0	0	0	0.0	0	0.0	1	1	1	0
3484	S6	2019	5	26	4	4.03406844139098996748771241982467472553253173828125	0.35061809420585599017528011245303787291049957275390625	4.22080230712890003275106209912337362766265869140625	11.17999992370599926516661071218550205230712890625	81.1600006103515028144101961515843868255615234375	2.159999942779540216264422269887290894985198974609375	0.41666667675599999842717124920454807579517364501953125	0.0	7.14862486347557979371458714012987911701202392578125	0.0	1	1	1	0
3485	S6	2019	5	26	5	10.8846099770702995357396503095515072345733642578125	0.3003155896831459781282092080800794064998626708984375	11.0491813571512995650891753030009567737579345703125	10.9386554605819998897686673444695770740509033203125	83.3137254901960062625221326015889644622802734375	2.495518202290810005905541402171365916728973388671875	9.16666677221648029671996482647955417633056640625	0.0	309.4530430001519789584563113749027252197265625	0.0	1	1	1	1
3486	S6	2019	5	26	6	42.8904512140484968085729633457958698272705078125	0.4348061354623899976701295599923469126224517822265625	43.169496536254797547371708787977695465087890625	10.6363889959123003592367240344174206256866455078125	88.189722209506498984410427510738372802734375	2.383055556813869824139828779152594506740570068359375	39.0833327546715025846424396149814128875732421875	0.0	1229.064381370940054694074206054210662841796875	0.0	1	1	1	1
3487	S6	2019	5	26	7	50.73766514990060016998540959320962429046630859375	0.47902659910420497535454842363833449780941009521484375	51.167571375105097786217811517417430877685546875	10.786388831668400456464951275847852230072021484375	88.4338886684841014584890217520296573638916015625	2.694444441960909930600109873921610414981842041015625	46.6666668653488017071140347979962825775146484375	0.0	1465.282373130319911069818772375583648681640625	0.0	1	1	1	1
3488	S6	2019	5	26	8	79.1944087240431002783225267194211483001708984375	0.57324574953979900993061846747878007590770721435546875	79.57024964226610563855501823127269744873046875	11.2730554792616004533556406386196613311767578125	86.6730557759602930900655337609350681304931640625	2.82916666443149011911373236216604709625244140625	72.499999466041600726384785957634449005126953125	0.0	2242.76338766017988746170885860919952392578125	0.0	1	1	1	1
3489	S6	2019	5	26	9	63.20025188657970005579045391641557216644287109375	0.49389859500030597327935311113833449780941009521484375	63.28170348273380341197480447590351104736328125	11.7336111280653003774432363570667803287506103515625	85.49638860490580327677889727056026458740234375	2.856944443119890042481756609049625694751739501953125	56.50000056872750064940191805362701416015625	0.0	1781.597333649790016352199018001556396484375	0.0	1	1	1	1
3490	S6	2019	5	26	10	117.570859983231997603070340119302272796630859375	0.75051586942540204905327527740155346691608428955078125	117.5801723798110032248587231151759624481201171875	11.9691666497124007406682721921242773532867431640625	88.145277298821298472830676473677158355712890625	3.097499999238380041788332164287567138671875	109.1666659340250049581300118006765842437744140625	0.0	3342.948036889220020384527742862701416015625	0.0	1	1	1	1
3491	S6	2019	5	26	11	136.734879313573998160791234113276004791259765625	0.73113786238763001090745774490642361342906951904296875	136.499309666951006647650501690804958343505859375	12.80111112594600086822538287378847599029541015625	85.403055742051805054870783351361751556396484375	3.168888887431879908262999379076063632965087890625	126.91666620473000648416928015649318695068359375	0.0	3866.1073048909302087849937379360198974609375	0.0	1	1	1	1
3492	S6	2019	5	26	12	179.02308903431099906811141408979892730712890625	1.6758571407422999666181340217008255422115325927734375	176.962026718266997704631648957729339599609375	13.355431758593699242965158191509544849395751953125	85.846797018662101663721841759979724884033203125	3.31364902463795996112594366422854363918304443359375	167.6666680723429863064666278660297393798828125	0.0	5077.1186153093904067645780742168426513671875	0.0	1	1	1	1
3493	S6	2019	5	26	13	216.6725637979340035599307157099246978759765625	1.1823927174067299095128191765979863703250885009765625	215.07957407349300638088607229292392730712890625	14.0385474865662001064947617123834788799285888671875	81.063687308540494314001989550888538360595703125	2.73072625213827979706593396258540451526641845703125	193.5000028461209922170382924377918243408203125	0.0	5835.0388308365900229546241462230682373046875	0.0	1	1	1	1
3494	S6	2019	5	26	14	326.15448663925900518734124489128589630126953125	34.68574125541250197102272068150341510772705078125	296.76675126115202374421642161905765533447265625	15.020118408654500541388188139535486698150634765625	73.58195287941470041914726607501506805419921875	2.620414199208359828929815193987451493740081787109375	360.58333516120700323881465010344982147216796875	0.0	9710.8047356207898701541125774383544921875	0.0	1	1	1	1
3495	S6	2019	5	26	15	403.98845520874300518698873929679393768310546875	26.138326581556999173017175053246319293975830078125	382.6415704465370026809978298842906951904296875	15.8285714237629004941254606819711625576019287109375	69.3344539140118030218218336813151836395263671875	2.524089627573129934745566060882993042469024658203125	417.24999497334300713191623799502849578857421875	0.0	11450.62925418220038409344851970672607421875	0.0	1	1	1	1
3496	S6	2019	5	26	16	260.54367741236700339868548326194286346435546875	2.8581184391944400857710206764750182628631591796875	257.9442647014819840478594414889812469482421875	15.617270233239299415117784519679844379425048828125	69.8668525504534017045443761162459850311279296875	2.172423392783299878061598064959980547428131103515625	240.91666378080799404415301978588104248046875	0.0	7076.2162208557101621408946812152862548828125	0.0	1	1	1	1
3497	S6	2019	5	26	17	110.4829295094800016840963508002460002899169921875	0.466769621279089996779276816596393473446369171142578125	110.1639451090489956186502240598201751708984375	13.4556666692097000037620091461576521396636962890625	82.7363330586751004602774628438055515289306640625	2.45800000011919994591380600468255579471588134765625	99.0000000844402023858492611907422542572021484375	0.0	3179.87359563509016879834234714508056640625	0.0	1	1	1	1
3498	S6	2019	5	26	18	58.805418316523201838208478875458240509033203125	0.4501354711337219871580828112200833857059478759765625	58.7862043486700969197045196779072284698486328125	12.9722222646076996710462481132708489894866943359375	89.5372225655448943371084169484674930572509765625	1.681666665938160054594163739238865673542022705078125	50.083333160727903532460913993418216705322265625	0.0	1569.698778291540065765730105340480804443359375	0.0	1	1	1	1
3499	S6	2019	5	26	19	27.189566244019399476883336319588124752044677734375	0.41366392643087401825852111869608052074909210205078125	27.205621303452300452363488147966563701629638671875	12.6180557039047993583835705067031085491180419921875	93.8649998346964054007912636734545230865478515625	0.99333333505524501472194742746069096028804779052734375	23.58333339604229905717147630639374256134033203125	0.0	727.996398384372014334076084196567535400390625	0.0	1	1	1	1
3500	S6	2019	5	26	20	13.5950733290778007500421153963543474674224853515625	0.38272614079693700883666451773024164140224456787109375	13.6641538709101002524448631447739899158477783203125	12.445454385545499320642193197272717952728271484375	93.847811355333902838538051582872867584228515625	0.60471380850682698859799302226747386157512664794921875	8.9166666730305905730347149074077606201171875	0.0	288.1706825767950022054719738662242889404296875	0.0	1	1	1	1
3501	S6	2019	5	26	21	1.2861400641914799702902882927446626126766204833984375	0.372450854215357007870323968745651654899120330810546875	1.308042723685499897356976362061686813831329345703125	12.419444216622199661514969193376600742340087890625	93.6180554495916936730282031930983066558837890625	0.4902777820825570120888414749060757458209991455078125	0.1666666745829079865348631983579252846539020538330078125	0.0	4.939533304423139981054191594012081623077392578125	0.0	1	1	1	1
3502	S6	2019	5	26	22	0	0	0	0	0	0	0	0.0	0	0.0	1	1	1	0
3503	S6	2019	5	26	23	0	0	0	0	0	0	0	0.0	0	0.0	1	1	1	0
3504	S6	2019	5	26	24	0	0	0	0	0	0	0	0.0	0	0.0	1	1	1	0
3505	S6	2019	5	27	1	0	0	0	0	0	0	0	0.0	0	0.0	1	1	1	0
3506	S6	2019	5	27	2	0	0	0	0	0	0	0	0.0	0	0.0	1	1	1	0
3507	S6	2019	5	27	3	0	0	0	0	0	0	0	0.0	0	0.0	1	1	1	0
3508	S6	2019	5	27	4	2.638348817825309833295932548935525119304656982421875	0.295675814151762972326054068616940639913082122802734375	2.753337383270260119161321199499070644378662109375	13.5	86.8000030517577982891452847979962825775146484375	4	0.250000011874374983289470719682867638766765594482421875	0.0	0	0.0	1	1	1	0
3509	S6	2019	5	27	5	6.59075244149164962692566405166871845722198486328125	0.32669725008864902715544076272635720670223236083984375	6.69241320410770956783608198747970163822174072265625	13.0561193466185994083161858725361526012420654296875	85.0044773614228006408666260540485382080078125	3.433134327717680012170831105322577059268951416015625	4.66666667489335029728181325481273233890533447265625	0.0	145.548934000543994216059218160808086395263671875	0.0	1	1	1	1
3510	S6	2019	5	27	6	35.252437102794601742061786353588104248046875	0.379262371009422005752043105530901812016963958740234375	35.06288407246270111272679059766232967376708984375	12.4550000561608005256175601971335709095001220703125	86.75555568271209949671174399554729461669921875	3.793333335551949847541663984884507954120635986328125	31.583333310360700352248386479914188385009765625	0.0	929.1606654102589573085424490272998809814453125	0.0	1	1	1	1
3511	S6	2019	5	27	7	57.92937645382350098088863887824118137359619140625	0.4662514902237380187699500311282463371753692626953125	57.88132051891749796368458191864192485809326171875	12.22277778784430068981237127445638179779052734375	86.9552775700886968479608185589313507080078125	3.672500004702139886347822539391927421092987060546875	52.416667342186002542803180404007434844970703125	0.0	1560.097818573309950807015411555767059326171875	0.0	1	1	1	1
3512	S6	2019	5	27	8	163.715315340612988848079112358391284942626953125	2.19656891632480011367078986950218677520751953125	162.952539075321993777833995409309864044189453125	12.4358543374624996857846781495027244091033935546875	80.7801121089303961753103067167103290557861328125	4.00616245844117013774621227639727294445037841796875	159.33333337306800103760906495153903961181640625	0.0	4527.91422357160990941338241100311279296875	0.0	1	1	1	1
3513	S6	2019	5	27	9	222.495247789838998642153455875813961029052734375	22.222523471587098953250460908748209476470947265625	209.67607602401500344058149494230747222900390625	13.1191548763866006055422985809855163097381591796875	74.278309480908802697740611620247364044189453125	3.39126759994196991243597949505783617496490478515625	198.333332935969991694946656934916973114013671875	0.0	5881.7844937245199616882018744945526123046875	0.0	1	1	1	1
3514	S6	2019	5	27	10	232.21918917121701042560744099318981170654296875	36.215980465067701743464567698538303375244140625	205.18761115199998812386183999478816986083984375	13.5052785929346992332966692629270255565643310546875	78.3278590227501041454161168076097965240478515625	2.2615835751431401234867735183797776699066162109375	227.8333349774289899869472719728946685791015625	0.0	6596.5174039205003282404504716396331787109375	0.0	1	1	1	1
3515	S6	2019	5	27	11	424.07789962903501645996584556996822357177734375	139.914775763112999129589297808706760406494140625	312.9935812485949782058014534413814544677734375	14.6637168225988006042825873009860515594482421875	70.23628300129479384850128553807735443115234375	3.615634216847320114851527250721119344234466552734375	473.58332946896501880473806522786617279052734375	0.0	12393.902719020799850113689899444580078125	0.0	1	1	1	1
3516	S6	2019	5	27	12	460.53517361506300176188233308494091033935546875	154.19466209302999004648881964385509490966796875	332.90367416662598998300381936132907867431640625	15.4803680730012001021123069222085177898406982421875	65.6766871118837940457524382509291172027587890625	3.187116569993679870975711310165934264659881591796875	484.16665817300400931344483979046344757080078125	0.0	12222.099870443300460465252399444580078125	0.0	1	1	1	1
3517	S6	2019	5	27	13	417.72775232006597434519790112972259521484375	83.08125298451290063894703052937984466552734375	345.86604587760501772208954207599163055419921875	15.6790419538577001645762720727361738681793212890625	63.13592833102099888265001936815679073333740234375	3.55269460549610993638225409085862338542938232421875	470.00000004967301947544910944998264312744140625	0.0	11548.6234029133993317373096942901611328125	0.0	1	1	1	1
3518	S6	2019	5	27	14	314.11393861397601767748710699379444122314453125	7.58460773890265027574741907301358878612518310546875	306.0897021586660002867574803531169891357421875	15.543575414732099915227081510238349437713623046875	60.59050294673640024711858131922781467437744140625	3.579050272370179808234524898580275475978851318359375	297.83333092927801999394432641565799713134765625	0.0	8561.656494935350565356202423572540283203125	0.0	1	1	1	1
3519	S6	2019	5	27	15	296.07735517496502097856136970221996307373046875	5.8171723607024699020939806359820067882537841796875	290.55975630821200184072949923574924468994140625	15.60417832239090074608611757867038249969482421875	59.210306523570096715047839097678661346435546875	3.398607241991169924943960722885094583034515380859375	283.1666643420840046019293367862701416015625	0.0	8160.1873139540302872774191200733184814453125	0.0	1	1	1	1
3520	S6	2019	5	27	16	323.6586636591219985348288901150226593017578125	74.6313556947813054875950911082327365875244140625	277.7446320176790095501928590238094329833984375	15.8544691980884007165286675444804131984710693359375	57.94273734492289662512121140025556087493896484375	3.231564247408389878302159559098072350025177001953125	317.83333172400699595527839846909046173095703125	0.0	8987.2104823589397710748016834259033203125	0.0	1	1	1	1
3521	S6	2019	5	27	17	280.19654935948898355491110123693943023681640625	22.487952927915298317884662537835538387298583984375	267.1896053709569969214498996734619140625	15.8885153335015001374586063320748507976531982421875	55.09467774078620294631036813370883464813232421875	3.700560226660809970411492031416855752468109130859375	282.1666672825809882851899601519107818603515625	0.0	7906.9137871265402282006107270717620849609375	0.0	1	1	1	1
3522	S6	2019	5	27	18	237.310643478477999224196537397801876068115234375	108.5527996883709960229680291377007961273193359375	197.64545768865599484342965297400951385498046875	15.6988827289815002785644537652842700481414794921875	56.94329596364959655829807161353528499603271484375	3.179608935084420107131109034526161849498748779296875	219.916664063929005124009563587605953216552734375	0.0	6028.7663539250797839486040174961090087890625	0.0	1	1	1	1
3523	S6	2019	5	27	19	159.506321516540992888621985912322998046875	141.767159061303999578740331344306468963623046875	120.5317237768989997448443318717181682586669921875	15.2774373296243002329219962120987474918365478515625	61.4543175126184024747999501414597034454345703125	3.088022282362639980846097387257032096385955810546875	135.500000168880006867766496725380420684814453125	0.0	3627.9809772968301331275142729282379150390625	0.0	1	1	1	1
3524	S6	2019	5	27	20	60.08603364924230305632590898312628269195556640625	37.98890700378179730023475713096559047698974609375	56.58630495105109758924299967475235462188720703125	14.2869258381872992202943351003341376781463623046875	68.1830388530824933468466042540967464447021484375	2.71872791163491012156327997217886149883270263671875	53.16666699945920271375143784098327159881591796875	0.0	1681.57909189660995252779684960842132568359375	0.0	1	1	1	1
3525	S6	2019	5	27	21	17.4297497989685012953486875630915164947509765625	0.365316374757425010866285219890414737164974212646484375	17.925690100444999330875361920334398746490478515625	13.68211388006439932496505207382142543792724609375	70.1008132686459930482669733464717864990234375	2.012195114682359786684173741377890110015869140625	4.66666664578956957853961284854449331760406494140625	0.0	177.98034963198000468764803372323513031005859375	0.0	1	1	1	1
3526	S6	2019	5	27	22	0	0	0	0	0	0	0	0.0	0	0.0	1	1	1	0
3527	S6	2019	5	27	23	0	0	0	0	0	0	0	0.0	0	0.0	1	1	1	0
3528	S6	2019	5	27	24	0	0	0	0	0	0	0	0.0	0	0.0	1	1	1	0
3529	S6	2019	5	28	1	0	0	0	0	0	0	0	0.0	0	0.0	1	1	1	0
3530	S6	2019	5	28	2	0	0	0	0	0	0	0	0.0	0	0.0	1	1	1	0
3531	S6	2019	5	28	3	0	0	0	0	0	0	0	0.0	0	0.0	1	1	1	0
3532	S6	2019	5	28	4	8.4499529202779104508636009995825588703155517578125	0.648593763510386001058805049979127943515777587890625	8.8551994959513304905840413994155824184417724609375	10.1333332061766991927242997917346656322479248046875	86.3999989827473058312534703873097896575927734375	1.73333336909611990250823509995825588703155517578125	0.66666665952652504056885618410888127982616424560546875	0.0	63.83273277121249833498950465582311153411865234375	0.0	1	1	1	0
3533	S6	2019	5	28	5	36.59354197594419844108415418304502964019775390625	22.12066465827719952130792080424726009368896484375	35.25882480990500056350356317125260829925537109375	10.2416129635226003102843606029637157917022705078125	84.834839187129801985065569169819355010986328125	1.5158064459600699702690462800092063844203948974609375	23.58333324082190074477693997323513031005859375	0.0	785.4466900850360389085835777223110198974609375	0.0	1	1	1	1
3534	S6	2019	5	28	6	37.34994779692750199728834559209644794464111328125	1.591288251347009907732399369706399738788604736328125	37.3812714099884004781415569595992565155029296875	10.4647222306992997431507319561205804347991943359375	84.856111484103706743553630076348781585693359375	1.9469444365964900800491932386648841202259063720703125	32.6666668988764996583995525725185871124267578125	0.0	957.520294934510957318707369267940521240234375	0.0	1	1	1	1
3535	S6	2019	5	28	7	62.782187647289703136266325600445270538330078125	0.4761261822862750126006403661449439823627471923828125	62.94487645890969673700965358875691890716552734375	10.0927778800328002972719332319684326648712158203125	81.528888511657697790724341757595539093017578125	1.65888888695172997955751270637847483158111572265625	56.083333368102699978408054448664188385009765625	0.0	1673.119656741610015160404145717620849609375	0.0	1	1	1	1
3536	S6	2019	5	28	8	140.782341787549995615336229093372821807861328125	0.78345775562855901608116937495651654899120330810546875	140.90033499399800120954751037061214447021484375	10.4888888067668997194914481951855123043060302734375	70.121944236755297197305480949580669403076171875	1.6688888904948999680755150620825588703155517578125	130.75000109771900724808801896870136260986328125	0.0	3931.3671092192098512896336615085601806640625	0.0	1	1	1	1
3537	S6	2019	5	28	9	390.75278261691101988617447204887866973876953125	138.535339879281991670723073184490203857421875	302.67532965018898494236054830253124237060546875	11.58220343131799978664275840856134891510009765625	62.386158000277902146990527398884296417236328125	1.5759887012552999951964238789514638483524322509765625	389.2499978343649900125456042587757110595703125	0.0	11077.59263118099988787434995174407958984375	0.0	1	1	1	1
3538	S6	2019	5	28	10	461.18698723572100561796105466783046722412109375	149.4089262769419974574702791869640350341796875	354.461991563355013568070717155933380126953125	12.2415253967888002506470002117566764354705810546875	59.794632679998500179863185621798038482666015625	1.6257062178883801006890053031384013593196868896484375	474.91666426261400602015783078968524932861328125	0.0	13013.669729232800818863324820995330810546875	0.0	1	1	1	1
3539	S6	2019	5	28	11	363.93700060590600742216338403522968292236328125	27.755569898859899780063642538152635097503662109375	339.84246257707098948230850510299205780029296875	12.282913218693199297604223829694092273712158203125	59.16106455399540209327824413776397705078125	1.4196078424193199207792304150643758475780487060546875	329.08332844575301123768440447747707366943359375	0.0	9565.086831649110536091029644012451171875	0.0	1	1	1	1
3540	S6	2019	5	28	12	474.80196655273397254859446547925472259521484375	93.7922377755811993438328499905765056610107421875	394.82002990722600088702165521681308746337890625	12.6414286150251005125255687744356691837310791015625	56.9239998844690973101023701019585132598876953125	1.892857139621459960920901721692644059658050537109375	500.24999926487799939422984607517719268798828125	0.0	12778.8935502370004542171955108642578125	0.0	1	1	1	1
3541	S6	2019	5	28	13	419.67359633051700029682251624763011932373046875	39.95504834376959735209311475045979022979736328125	383.77765883747298403250169940292835235595703125	12.9321937262161998916099037160165607929229736328125	56.1242161503543997014276101253926753997802734375	1.658689455259219958094263347447849810123443603515625	409.08333659172200214015902020037174224853515625	0.0	11387.2816562652005814015865325927734375	0.0	1	1	1	1
3542	S6	2019	5	28	14	663.630032763069038992398418486118316650390625	373.88358583696799541939981281757354736328125	364.96224184389399169958778657019138336181640625	13.9216049394488994295215888996608555316925048828125	53.63024675110239769537656684406101703643798828125	1.757098767032589936576414402225054800510406494140625	714.6666521827420410772901959717273712158203125	0.0	16869.8918422062997706234455108642578125	0.0	1	1	1	1
3543	S6	2019	5	28	15	530.9718603862189638675772584974765777587890625	283.70368316581499357198481447994709014892578125	318.3260724281279863134841434657573699951171875	14.03943216763079959719107137061655521392822265625	52.86056762839709932677578763104975223541259765625	1.78675078781621010648450464941561222076416015625	672.8333284457499985364847816526889801025390625	0.0	16563.477377096700365655124187469482421875	0.0	1	1	1	1
3544	S6	2019	5	28	16	548.3167507021800020083901472389698028564453125	507.8315361522110151781816966831684112548828125	231.360567813193000574756297282874584197998046875	14.070392732533800739247453748248517513275146484375	53.05861036871129954306525178253650665283203125	1.71299093601566010391934469225816428661346435546875	625.9999920924500429464387707412242889404296875	0.0	15664.606332778899741242639720439910888671875	0.0	1	1	1	1
3545	S6	2019	5	28	17	530.9525847434989600515109486877918243408203125	776.65407820723203258239664137363433837890625	130.07463140921100830382783897221088409423828125	14.6744317764584994989718325086869299411773681640625	52.21306816014369900358360609970986843109130859375	1.6485795446417499388047644970356486737728118896484375	550.75000226497604671749286353588104248046875	0.0	14268.830557664199659484438598155975341796875	0.0	1	1	1	1
3546	S6	2019	5	28	18	359.40786766938299479079432785511016845703125	608.618056926781036963802762329578399658203125	127.1187398332370008802172378636896610260009765625	14.1509915289729999443579799844883382320404052734375	51.90056645768890319914135034196078777313232421875	1.96260623376362008940532177803106606006622314453125	325.9166702628129996810457669198513031005859375	0.0	8048.5836466153496076003648340702056884765625	0.0	1	1	1	1
3547	S6	2019	5	28	19	171.483995907705008221455500461161136627197265625	370.8530362575990011464455164968967437744140625	80.6213646151187930399828474037349224090576171875	13.4141642783924002202411429607309401035308837890625	53.31813009332319808208922040648758411407470703125	2.138526911016219944627891891286708414554595947265625	130.499999659756014125377987511456012725830078125	0.0	3164.094073077039865893311798572540283203125	0.0	1	1	1	1
3548	S6	2019	5	28	20	49.78819668089570171787272556684911251068115234375	86.7870304993394938719575293362140655517578125	37.00439876256940152643437613733112812042236328125	12.4266211343706007852460970752872526645660400390625	56.035153672149903059107600711286067962646484375	2.023208183334949783471756745711900293827056884765625	28.916666749864699426098013645969331264495849609375	0.0	1016.6119585434599912332487292587757110595703125	0.0	1	1	1	1
3549	S6	2019	5	28	21	18.723115679146498990803593187592923641204833984375	1.2821427009243799854942835736437700688838958740234375	19.01017526267229840186701039783656597137451171875	12.0413044708362004797663757926784455776214599609375	57.66449259329530008244546479545533657073974609375	1.6978260857471501044102524247136898338794708251953125	5.4166668075291699580020576831884682178497314453125	0.0	210.07468419459900133006158284842967987060546875	0.0	1	1	1	1
3550	S6	2019	5	28	22	0	0	0	0	0	0	0	0.0	0	0.0	1	1	1	0
3551	S6	2019	5	28	23	0	0	0	0	0	0	0	0.0	0	0.0	1	1	1	0
3552	S6	2019	5	28	24	0	0	0	0	0	0	0	0.0	0	0.0	1	1	1	0
3553	S6	2019	5	29	1	0	0	0	0	0	0	0	0.0	0	0.0	1	1	1	0
3554	S6	2019	5	29	2	0	0	0	0	0	0	0	0.0	0	0.0	1	1	1	0
3555	S6	2019	5	29	3	0	0	0	0	0	0	0	0.0	0	0.0	1	1	1	0
3556	S6	2019	5	29	4	7.461281538009640001973821199499070644378662109375	0.5557481348514550223427477249060757458209991455078125	7.83314776420592995265224089962430298328399658203125	8.550000190734859728536321199499070644378662109375	63.6499996185302023832264239899814128875732421875	3.549999952316280182884611349436454474925994873046875	1.416666714552170081020676661864854395389556884765625	0.0	79.6651412189630008242602343671023845672607421875	0.0	1	1	1	0
3557	S6	2019	5	29	5	37.23482868671410273009314551018178462982177734375	97.6691690571606017101657926104962825775146484375	26.34740175902840064736665226519107818603515625	8.593125209212299608907414949499070644378662109375	65.79374966621389830834232270717620849609375	2.951874995697279846496030586422421038150787353515625	17.7500001154838997763363295234739780426025390625	0.0	736.7511733124620150192640721797943115234375	0.0	1	1	1	1
3558	S6	2019	5	29	6	180.031152873568998984410427510738372802734375	608.2042522006560147929121740162372589111328125	46.748568068610296677434234879910945892333984375	9.1502777391009804119903492392040789127349853515625	63.8016667048135985851331497542560100555419921875	2.6786111129654699425373109988868236541748046875	38.08333321164050033758030622266232967376708984375	0.0	1955.72226991255001848912797868251800537109375	0.0	1	1	1	1
3559	S6	2019	5	29	7	327.25809613524000951656489633023738861083984375	734.682694557385048028663732111454010009765625	70.892370935858394886963651515543460845947265625	10.03760683706340017806724063120782375335693359375	61.063532902644197974950657226145267486572265625	2.43333333119367001273758432944305241107940673828125	197.833333785334986032466986216604709625244140625	0.0	5664.31917250156038790009915828704833984375	0.0	1	1	1	1
3560	S6	2019	5	29	8	376.694491403965002973563969135284423828125	544.7020009768430099938996136188507080078125	118.300260368300001800889731384813785552978515625	10.4975459941324995583045165403746068477630615234375	57.78803686130260075515252538025379180908203125	2.240797545006670166145568146021105349063873291015625	309.7500006357810207191505469381809234619140625	0.0	9206.9874703884197515435516834259033203125	0.0	1	1	1	1
3561	S6	2019	5	29	9	644.6297143223770262920879758894443511962890625	783.2558582899609973537735641002655029296875	171.866250968841001167675131000578403472900390625	12.0662650401333007010862274910323321819305419921875	52.92771095827399818745107040740549564361572265625	1.5846385599439400948540423996746540069580078125	633.6666643619520300489966757595539093017578125	0.0	17587.97734975810089963488280773162841796875	0.0	1	1	1	1
3562	S6	2019	5	29	10	665.295183961781958714709617197513580322265625	655.3425258727310165340895764529705047607421875	199.5769579076049922150559723377227783203125	12.16328365838339919946520240046083927154541015625	53.06597008776299873034076881594955921173095703125	1.6319402946465000336928596880170516669750213623046875	630.666655798753026829217560589313507080078125	0.0	16873.030424117998336441814899444580078125	0.0	1	1	1	1
3563	S6	2019	5	29	11	724.0664149078080527033307589590549468994140625	641.2225791876400080582243390381336212158203125	225.2722799366910066964919678866863250732421875	12.8924764973990004790493912878446280956268310546875	50.54858926994300105661750421859323978424072265625	1.62037617631466002166007456253282725811004638671875	802.49999711910504629486240446567535400390625	0.0	20873.71947367980101262219250202178955078125	0.0	1	1	1	1
3564	S6	2019	5	29	12	871.7021288256020170592819340527057647705078125	804.8700957128679647212265990674495697021484375	213.85930919933599625437636859714984893798828125	13.6126126756181005106327575049363076686859130859375	48.03603611622479974130328628234565258026123046875	1.9012011972454498920370724590611644089221954345703125	978.9166698853159687132574617862701416015625	0.0	24246.711870034501771442592144012451171875	0.0	1	1	1	1
3565	S6	2019	5	29	13	713.190005603137024081661365926265716552734375	510.70267411772198329344973899424076080322265625	291.94601683287197602112428285181522369384765625	13.4777778591121002449426669045351445674896240234375	49.5855856084966006847025710158050060272216796875	1.4402402388798900556565740771475248038768768310546875	716.9166654348349538850015960633754730224609375	0.0	16871.30375703169920598156750202178955078125	0.0	1	1	1	1
3566	S6	2019	5	29	14	821.9998378047230289666913449764251708984375	791.046800843166010963614098727703094482421875	196.68765384858801326117827557027339935302734375	14.6948718046529993586091222823597490787506103515625	44.11139619180610083049032255075871944427490234375	1.4347578377975001018285183818079531192779541015625	938.9166658123259594503906555473804473876953125	0.0	23335.44281125059933401644229888916015625	0.0	1	1	1	1
3567	S6	2019	5	29	15	707.56105217905997051275335252285003662109375	666.701730278530021678307093679904937744140625	215.769021271280990958985057659447193145751953125	14.9797689101598994199093795032240450382232666015625	42.44248555574800008116653771139681339263916015625	1.357225433508780110258840068127028644084930419921875	850.0000064571739812890882603824138641357421875	0.0	20883.01626841220058850012719631195068359375	0.0	1	1	1	1
3568	S6	2019	5	29	16	395.81978286522002008496201597154140472412109375	259.86808272064598668293911032378673553466796875	224.5937892747959949701908044517040252685546875	14.3313043317932997666730443597771227359771728515625	42.89275368953089895285302191041409969329833984375	1.3979710165141199240679270587861537933349609375	454.5833282172679901123046875	0.0	11623.73470266659933258779346942901611328125	0.0	1	1	1	1
3569	S6	2019	5	29	17	444.07640254429401238667196594178676605224609375	499.701860631703993931296281516551971435546875	189.031425127300991562151466496288776397705078125	14.6819999640327996104360863682813942432403564453125	41.60400002615789816218239138834178447723388671875	1.16942856916358994823212924529798328876495361328125	500.58333948254602319138939492404460906982421875	0.0	12845.59913973010043264366686344146728515625	0.0	1	1	1	1
3570	S6	2019	5	29	18	182.506112107082998363694059662520885467529296875	78.7244073501774010992448893375694751739501953125	152.684402734303006354821263812482357025146484375	14.0322580393458000713735600584186613559722900390625	43.86832818397670052945613861083984375	0.96803519287067396614787639919086359441280364990234375	154.000000407296994353600894100964069366455078125	0.0	4257.7083458503102519898675382137298583984375	0.0	1	1	1	1
3571	S6	2019	5	29	19	222.640455796982990932519896887242794036865234375	485.27935667567697919366764836013317108154296875	100.1891082869630054119625128805637359619140625	14.2755555470783992433325693127699196338653564453125	42.93222253587509840144775807857513427734375	1.51055555426412002617553298478014767169952392578125	161.833334403733005046888138167560100555419921875	0.0	3991.630675892040017060935497283935546875	0.0	1	1	1	1
3572	S6	2019	5	29	20	50.44352987457170200968903372995555400848388671875	65.0165899399824951387927285395562648773193359375	41.87182651358239837691144202835857868194580078125	12.837784950430300767720837029628455638885498046875	47.05211723899220288558353786356747150421142578125	1.3765472304743300302476427532383240759372711181640625	30.833333342646600527814371162094175815582275390625	0.0	1042.017955953869886798202060163021087646484375	0.0	1	1	1	1
3573	S6	2019	5	29	21	16.346239619784800112256561988033354282379150390625	0.468365055346299019589650924899615347385406494140625	17.04567511119530109908737358637154102325439453125	11.8880950761218997513424255885183811187744140625	53.93095207214349784408113919198513031005859375	0.6626984164828340073682966249180026352405548095703125	4.41666669212276996603350198711268603801727294921875	0.0	192.38956008727399193958262912929058074951171875	0.0	1	1	1	1
3574	S6	2019	5	29	22	0	0	0	0	0	0	0	0.0	0	0.0	1	1	1	0
3575	S6	2019	5	29	23	0	0	0	0	0	0	0	0.0	0	0.0	1	1	1	0
3576	S6	2019	5	29	24	0	0	0	0	0	0	0	0.0	0	0.0	1	1	1	0
3577	S6	2019	5	30	1	0	0	0	0	0	0	0	0.0	0	0.0	1	1	1	0
3578	S6	2019	5	30	2	0	0	0	0	0	0	0	0.0	0	0.0	1	1	1	0
3579	S6	2019	5	30	3	0	0	0	0	0	0	0	0.0	0	0.0	1	1	1	0
3580	S6	2019	5	30	4	10.909125246320400037802755832672119140625	0.75454837765012394701358289239578880369663238525390625	11.413334764752999461734361830167472362518310546875	8.78857135772705078125	69.84857373918799794410006143152713775634765625	2.805714266640789933404676048667170107364654541015625	2.083333315871029878252329581300728023052215576171875	0.0	90.5561084315800002286778180859982967376708984375	0.0	1	1	1	0
3581	S6	2019	5	30	5	42.504393344972100976519868709146976470947265625	62.8902673748571032774634659290313720703125	35.7069053533599998218051041476428508758544921875	9.1579268153120807482991949655115604400634765625	72.1417681996415041112413746304810047149658203125	3.02621950899682001789869900676421821117401123046875	26.083333417773200579858894343487918376922607421875	0.0	918.3184920499739973820396699011325836181640625	0.0	1	1	1	1
3582	S6	2019	5	30	6	160.146244070264998526909039355814456939697265625	376.21225179036400732002221047878265380859375	76.2820097393458951273714774288237094879150390625	10.661666568120299558586339117027819156646728515625	71.2538887871636035242772777564823627471923828125	3.56694443358315016467940949951298534870147705078125	59.50000043958419837508699856698513031005859375	0.0	2342.80397991338986685150302946567535400390625	0.0	1	1	1	1
3583	S6	2019	5	30	7	224.650490125020013465473311953246593475341796875	242.492820520202002398946206085383892059326171875	148.450279638501996259947190992534160614013671875	12.7705555121103007110150429070927202701568603515625	65.0055555131699946969092707149684429168701171875	3.40361110766728014453974537900649011135101318359375	153.25000137090700036424095742404460906982421875	0.0	4618.6288595199503106414340436458587646484375	0.0	1	1	1	1
3584	S6	2019	5	30	8	87.83462549845370404000277630984783172607421875	0.5172973350518279556098377724993042647838592529296875	87.863732369740802141677704639732837677001953125	13.202222220102900251958999433554708957672119140625	62.883333354526001812700997106730937957763671875	2.84472221649355017092375419451855123043060302734375	80.5000001564623062222381122410297393798828125	0.0	2488.6713748176798617350868880748748779296875	0.0	1	1	1	1
3585	S6	2019	5	30	9	170.40432639651800172941875644028186798095703125	0.96971285839875498435702638744260184466838836669921875	169.88309868706500083135324530303478240966796875	13.9994443787467996997975205886177718639373779296875	61.22944446139860019684419967234134674072265625	3.250555557012550167428344138897955417633056640625	157.583332931000001053689629770815372467041015625	0.0	4783.67511431376988184638321399688720703125	0.0	1	1	1	1
3586	S6	2019	5	30	10	171.935024642944000561328721232712268829345703125	0.71437651895814402447371094240224920213222503662109375	171.320727327133994322139187715947628021240234375	14.201666720708200131184639758430421352386474609375	61.19666669633650002424474223516881465911865234375	3.4813888920678000005182184395380318164825439453125	160.833334550259991146958782337605953216552734375	0.0	4988.246609767260451917536556720733642578125	0.0	1	1	1	1
3587	S6	2019	5	30	11	291.18391922844699593042605556547641754150390625	1.3724199502004499340301890697446651756763458251953125	289.162026765611017253831960260868072509765625	15.1644444783528005160633256309665739536285400390625	59.5555555555555002911205519922077655792236328125	3.061944435371290129666022039600647985935211181640625	282.16666479905501319080940447747707366943359375	0.0	8445.69317499795943149365484714508056640625	0.0	1	1	1	1
3588	S6	2019	5	30	12	312.1382750193270112504251301288604736328125	1.1466355251717399443833755867672152817249298095703125	309.0217511918809805138153024017810821533203125	16.324999777475898810052967746742069721221923828125	59.73166686164000083181235822848975658416748046875	3.78305555880069022123279864899814128875732421875	289.58333283662699386695749126374721527099609375	0.0	8597.571641206750427954830229282379150390625	0.0	1	1	1	1
3589	S6	2019	5	30	13	201.6286506228969983567367307841777801513671875	0.6633068113691269473974898573942482471466064453125	199.888831965127991452391142956912517547607421875	15.32777777247950012906585470773279666900634765625	70.071111043294195042108185589313507080078125	4.5030555599265600363878547796048223972320556640625	188.08333327372798748911009170114994049072265625	0.0	5804.1485746701500829658471047878265380859375	0.0	1	1	1	1
3590	S6	2019	5	30	14	238.485525948660011863466934300959110260009765625	0.91497456765249596255529240806936286389827728271484375	236.1737979707260137729463167488574981689453125	14.5925594937233000791820813901722431182861328125	79.2419639087858058701385743916034698486328125	4.31011905592112043450470082461833953857421875	211.916668961444003116412204690277576446533203125	0.0	6361.6813917954796124831773340702056884765625	0.0	1	1	1	1
3591	S6	2019	5	30	15	126.139392051376006520513328723609447479248046875	0.5423946265934720400991864153183996677398681640625	125.5087816468140005099485279060900211334228515625	13.9677871148458994099428309709765017032623291015625	88.23529398942190482557634823024272918701171875	3.6966386632759000718806419172324240207672119140625	114.083333561816999690563534386456012725830078125	0.0	3539.845759669909966760315001010894775390625	0.0	1	1	1	1
3592	S6	2019	5	30	16	108.629191546968996817668084986507892608642578125	0.51409551244643003631296096500591374933719635009765625	108.098259003956997048589983023703098297119140625	14.0916667249467000289087081910111010074615478515625	92.0205559200710041523052495904266834259033203125	3.814722216460439963015005560009740293025970458984375	99.00000070532149720747838728129863739013671875	0.0	3029.0456612904699795763008296489715576171875	0.0	1	1	1	1
3593	S6	2019	5	30	17	68.613042905595506226745783351361751556396484375	0.462938568865259025830738437434774823486804962158203125	68.533075470394493322601192630827426910400390625	14.6227777745988003488264439511112868785858154296875	90.73388866848409861631807871162891387939453125	3.5405555542972297899950717692263424396514892578125	62.4166671186683998939770390279591083526611328125	0.0	1866.945590823879911113181151449680328369140625	0.0	1	1	1	1
3594	S6	2019	5	30	18	39.9777670489417005228460766375064849853515625	0.464789497521187977557843851172947324812412261962890625	40.0125056902567024508243775926530361175537109375	14.983333359824200670118443667888641357421875	90.600555716620505108949146233499050140380859375	2.90916665775908001023708493448793888092041015625	35.583333888401597278061672113835811614990234375	0.0	1095.3407312432900653220713138580322265625	0.0	1	1	1	1
3595	S6	2019	5	30	19	17.39719714058769994835529359988868236541748046875	0.370398193059696012596759828738868236541748046875	17.512216598457701621782689471729099750518798828125	15.3622221204969005015072980313561856746673583984375	89.0677782270642950379624380730092525482177734375	3.1572222229507200808029665495269000530242919921875	14.9166665505617999087917269207537174224853515625	0.0	458.171740639952986384741961956024169921875	0.0	1	1	1	1
3596	S6	2019	5	30	20	17.91299765904739871302808751352131366729736328125	0.315352624866904018841040624465676955878734588623046875	18.08298282623290020865169935859739780426025390625	15.1961111174689005309801359544508159160614013671875	90.3083331637912039013826870359480381011962890625	2.760277768472830128843042984954081475734710693359375	14.91666693861279924249174655415117740631103515625	0.0	474.72485682616701296865358017385005950927734375	0.0	1	1	1	1
3597	S6	2019	5	30	21	5.86470973613934010160164689295925199985504150390625	0.268358252675104991258336895043612457811832427978515625	5.9588370378200803401114171720109879970550537109375	15.1117950635078006627054492128081619739532470703125	90.143076226650094895376241765916347503662109375	2.89282051141444984665440642856992781162261962890625	2.083333364377419893997966937604360282421112060546875	0.0	80.9284256538376070011509000323712825775146484375	0.0	1	1	1	1
3598	S6	2019	5	30	22	0	0	0	0	0	0	0	0.0	0	0.0	1	1	1	0
3599	S6	2019	5	30	23	0	0	0	0	0	0	0	0.0	0	0.0	1	1	1	0
3600	S6	2019	5	30	24	0	0	0	0	0	0	0	0.0	0	0.0	1	1	1	0
3601	S6	2019	5	31	1	0	0	0	0	0	0	0	0.0	0	0.0	1	1	1	0
3602	S6	2019	5	31	2	0	0	0	0	0	0	0	0.0	0	0.0	1	1	1	0
3603	S6	2019	5	31	3	0	0	0	0	0	0	0	0.0	0	0.0	1	1	1	0
3604	S6	2019	5	31	4	2.080396305112270027848353493027389049530029296875	0.338061363381498003466418822426931001245975494384765625	2.132755402256460097731860514613799750804901123046875	13.8794115010429006673575713648460805416107177734375	95.1970591825596983426294173114001750946044921875	0.1676470602259909903342105508272652514278888702392578125	0.50000002374874996657894143936573527753353118896484375	0.0	16.74742496106789957366345333866775035858154296875	0.0	1	1	1	0
3605	S6	2019	5	31	5	8.157678437599759746490235556848347187042236328125	0.290421764575517993289821561120334081351757049560546875	8.2235395893683804757756661274470388889312744140625	13.93446132366469925045748823322355747222900390625	95.9763077016977064204183989204466342926025390625	0.62646154082738403356955814160755835473537445068359375	6.6666666437716397553003844222985208034515380859375	0.0	205.491175836263010978655074723064899444580078125	0.0	1	1	1	1
3606	S6	2019	5	31	6	53.4222686470051968399275210686028003692626953125	0.41605697310734501837004017943399958312511444091796875	53.3013762896438976213175919838249683380126953125	13.9534818123310007109694197424687445163726806640625	96.8988858491265006023240857757627964019775390625	1.158774372262870056005112928687594830989837646484375	48.49999972308660289854742586612701416015625	0.0	1407.551478594539958066889084875583648681640625	0.0	1	1	1	1
3607	S6	2019	5	31	7	47.4086317794266989267271128483116626739501953125	0.327384521123455007884928136263624764978885650634765625	46.84981100503780027111133676953613758087158203125	13.5970929861067997279633345897309482097625732421875	96.6726742234341003268127678893506526947021484375	1.2066860447615999074599812956876121461391448974609375	41.2500004749744988430393277667462825775146484375	0.0	1252.379697437090044331853277981281280517578125	0.0	1	1	1	1
3608	S6	2019	5	31	8	86.6915386729770034435205161571502685546875	0.37295132161428501404998314683325588703155517578125	86.2602480358547012428971356712281703948974609375	12.62777780956690065750080975703895092010498046875	96.1616663191052936099367798306047916412353515625	2.29361111231976000368604218238033354282379150390625	83.1666666393472979734724503941833972930908203125	0.0	2537.66212860742007251246832311153411865234375	0.0	1	1	1	1
3609	S6	2019	5	31	9	140.40436984168098888403619639575481414794921875	0.63151283802257596189377863993286155164241790771484375	140.14360285864898969521163962781429290771484375	12.14888895352680009409596095792949199676513671875	91.9316662682426937180935055948793888092041015625	2.219166663951340101590403719455935060977935791015625	128.9166677743199898031889460980892181396484375	0.0	3954.0233661730899257236160337924957275390625	0.0	1	1	1	1
3610	S6	2019	5	31	10	284.965743891398005871451459825038909912109375	1.69565997405184010204948208411224186420440673828125	282.9358096652559879657928831875324249267578125	12.4544443925221006708170534693636000156402587890625	85.037777667575397799737402237951755523681640625	1.1775000002649000929721978536690585315227508544921875	265.41666438182301135384477674961090087890625	0.0	7841.4419690767999782110564410686492919921875	0.0	1	1	1	1
3611	S6	2019	5	31	11	564.22973704198602717951871454715728759765625	201.2480917876220019024913199245929718017578125	398.27997789884801704829442314803600311279296875	14.597953185700500711163840605877339839935302734375	75.3880122000711025975761003792285919189453125	0.82456140821440104815565064200200140476226806640625	591.833330690860975664691068232059478759765625	0.0	15614.533523718500873656012117862701416015625	0.0	1	1	1	1
3612	S6	2019	5	31	12	765.9881042660509820052538998425006866455078125	517.367921516957949279458262026309967041015625	330.9133436715000016192789189517498016357421875	16.515044316429598580953097552992403507232666015625	66.4247792561848058312534703873097896575927734375	1.1094395295884400542973935444024391472339630126953125	866.25000089407103587291203439235687255859375	0.0	21003.184974193500238470733165740966796875	0.0	1	1	1	1
3613	S6	2019	5	31	13	840.8002850076419463221100158989429473876953125	762.665599004081968814716674387454986572265625	202.3078709477960046569933183491230010986328125	17.546583874625401477942432393319904804229736328125	63.75000041464100064558806479908525943756103515625	1.0360248438690000671869029247318394482135772705078125	963.5000129540850366538506932556629180908203125	0.0	23779.6851793923997320234775543212890625	0.0	1	1	1	1
3614	S6	2019	5	31	14	811.73400551316399287316016852855682373046875	870.7770756011619823766523040831089019775390625	113.206718315512006256540189497172832489013671875	18.161299554641601616822299547493457794189453125	60.6943501079149001498080906458199024200439453125	1.244915255887359961661786655895411968231201171875	990.0833268960269606395740993320941925048828125	0.0	24234.2317104339017532765865325927734375	0.0	1	1	1	1
3615	S6	2019	5	31	15	746.10120663113002592581324279308319091796875	896.8394529554569771789829246699810028076171875	85.03751659393310546875	18.548333295186299807255636551417410373687744140625	56.55611116621229683687488432042300701141357421875	1.258055556151600029579640249721705913543701171875	882.166678706804987086798064410686492919921875	0.0	21801.3079166411989717744290828704833984375	0.0	1	1	1	1
3616	S6	2019	5	31	16	625.5892191597339433428714983165264129638671875	800.813948703010964891291223466396331787109375	111.5632209671569938791435561142861843109130859375	18.847075300296300071067889803089201450347900390625	57.2977716026199033194643561728298664093017578125	0.91169916338243195408352903541526757180690765380859375	709.1666658719369706886936910450458526611328125	0.0	17768.51387818649891414679586887359619140625	0.0	1	1	1	1
3617	S6	2019	5	31	17	434.94285728191499629247118718922138214111328125	449.70552259067000022696447558701038360595703125	200.723370738412995706312358379364013671875	18.603735699050698570999884395860135555267333984375	62.168103305772802968931500799953937530517578125	0.8738505757231820325614535249769687652587890625	468.16666672627098932935041375458240509033203125	0.0	11990.472127993800313561223447322845458984375	0.0	1	1	1	1
3618	S6	2019	5	31	18	329.35027753144498774418025277554988861083984375	565.9730465259390257415361702442169189453125	110.884133107813994456591899506747722625732421875	18.442339745736699541112102451734244823455810546875	63.2398326948160018901035073213279247283935546875	0.88105849759824395039942146468092687427997589111328125	320.666663348675001543597318232059478759765625	0.0	7786.4306767781499729608185589313507080078125	0.0	1	1	1	1
3619	S6	2019	5	31	19	154.65288484361400378475082106888294219970703125	284.43374953137498550859163515269756317138671875	77.423885938856301436317153275012969970703125	17.88833337359950093059524078853428363800048828125	64.1833335876464019520426518283784389495849609375	0.498611114505264019225450056183035485446453094482421875	112.0000015944240061571690603159368038177490234375	0.0	2746.099799871450159116648137569427490234375	0.0	1	1	1	1
3620	S6	2019	5	31	20	44.6852441858766979976280708797276020050048828125	42.15779794238100208758623921312391757965087890625	38.11777895842710250917662051506340503692626953125	17.1369626337613993882769136689603328704833984375	66.92378226118989914539270102977752685546875	0.253008600036189024162780469850986264646053314208984375	28.416666667908298649081189068965613842010498046875	0.0	896.5178411453949820497655309736728668212890625	0.0	1	1	1	1
3621	S6	2019	5	31	21	15.32053483843800023578296531923115253448486328125	0.439561147093771975580267508121323771774768829345703125	15.5286225366591992269604816101491451263427734375	16.540000095367400234636079403571784496307373046875	74.84449954986570219261921010911464691162109375	0.59900000378489404173620869187288917601108551025390625	6.16666672673691973471932215034030377864837646484375	0.0	219.965925673023008357631624676287174224853515625	0.0	1	1	1	1
3622	S6	2019	5	31	22	0	0	0	0	0	0	0	0.0	0	0.0	1	1	1	0
3623	S6	2019	5	31	23	0	0	0	0	0	0	0	0.0	0	0.0	1	1	1	0
3624	S6	2019	5	31	24	0	0	0	0	0	0	0	0.0	0	0.0	1	1	1	0
3625	S6	2019	6	1	1	0	0	0	0	0	0	0	0.0	0	0.0	1	1	1	0
3626	S6	2019	6	1	2	0	0	0	0	0	0	0	0.0	0	0.0	1	1	1	0
3627	S6	2019	6	1	3	0	0	0	0	0	0	0	0.0	0	0.0	1	1	1	0
3628	S6	2019	6	1	4	8.0969236830006394711745087988674640655517578125	0.331316187329914024761734481216990388929843902587890625	8.435774398886639602324066800065338611602783203125	14.34347818208770064529744558967649936676025390625	90.2956533017364932902637519873678684234619140625	1.8630434715229500231004067245521582663059234619140625	0.74999999681798301676138862603693269193172454833984375	0.0	49.85149996355170287642977200448513031005859375	0.0	1	1	1	0
3629	S6	2019	6	1	5	43.6414103904136965184079599566757678985595703125	0.490211489292291024977288316222256980836391448974609375	44.11230031820439734246974694542586803436279296875	14.092615415132900835715190623886883258819580078125	89.9406150230993972627402399666607379913330078125	1.0766153835333300836651915233233012259006500244140625	33.83333398960539994959617615677416324615478515625	0.0	1005.9025014440200038734474219381809234619140625	0.0	1	1	1	1
3630	S6	2019	6	1	6	80.3669864654541044046709430404007434844970703125	10.4612678395376992313003938761539757251739501953125	78.6475305133395039547394844703376293182373046875	14.4216667281256007981937727890908718109130859375	87.89999995761439777197665534913539886474609375	1.9699999965727299500173330670804716646671295166015625	63.6666665474572965877086971886456012725830078125	0.0	1878.068124254539952744380570948123931884765625	0.0	1	1	1	1
3631	S6	2019	6	1	7	101.9578040927890043576553580351173877716064453125	7.94444310524005015139437091420404613018035888671875	99.8206013544023988970366190187633037567138671875	14.9621170065196995579981376067735254764556884765625	85.7019504982780944146725232712924480438232421875	2.174094701958889874759961458039470016956329345703125	88.5833343490948976750587462447583675384521484375	0.0	2607.6203609506201246404089033603668212890625	0.0	1	1	1	1
3632	S6	2019	6	1	8	119.4188341988450048347658594138920307159423828125	0.6656537926859320553063525949255563318729400634765625	119.461717902288995674098259769380092620849609375	15.50166667832260003478950238786637783050537109375	84.1972219255234932688836124725639820098876953125	2.31055555103553000861893451656214892864227294921875	108.3333324640990014131602947600185871124267578125	0.0	3205.5086890856400714255869388580322265625	0.0	1	1	1	1
3633	S6	2019	6	1	9	196.839524883693997026057331822812557220458984375	1.2403781652450500683215750541421584784984588623046875	196.175021171568999989176518283784389495849609375	16.42722209294630175691054319031536579132080078125	81.2522220187717039152630604803562164306640625	1.8697222203844099386316202071611769497394561767578125	183.99999973674499642584123648703098297119140625	0.0	5435.2624167998501434340141713619232177734375	0.0	1	1	1	1
3634	S6	2019	6	1	10	278.19362432691701769726932980120182037353515625	21.06757568890839849018448148854076862335205078125	262.16390474107498675948590971529483795166015625	17.440555625491601432486277190037071704864501953125	76.443888812594906312369857914745807647705078125	2.0733333299557301643289974890649318695068359375	251.08333056171699126934981904923915863037109375	0.0	7340.1115934054096214822493493556976318359375	0.0	1	1	1	1
3635	S6	2019	6	1	11	488.89532756247700717722182162106037139892578125	105.6880256182439978829279425553977489471435546875	401.50154854400801696101552806794643402099609375	18.8222222021448004625199246220290660858154296875	70.4713450426246055258161504752933979034423828125	2.45204677576557994456152300699613988399505615234375	495.00000228484299213960184715688228607177734375	0.0	12992.38558610270047211088240146636962890625	0.0	1	1	1	1
3636	S6	2019	6	1	12	425.98672810722797521520988084375858306884765625	173.849608255128003975187311880290508270263671875	280.08982568628601939053623937070369720458984375	19.50852932649500104389517218805849552154541015625	68.529999744190803312449133954942226409912109375	2.644411756361229937084544872050173580646514892578125	426.1666741222139762612641789019107818603515625	0.0	11317.778338988600808079354465007781982421875	0.0	1	1	1	1
3637	S6	2019	6	1	13	253.6954021618749948174809105694293975830078125	2.604239508411999803882963533396832644939422607421875	249.765467871850006531531107611954212188720703125	18.86541798066679831435976666398346424102783203125	71.970028858019901463194401003420352935791015625	2.814409218363520093220131457201205193996429443359375	235.916665444772007731444318778812885284423828125	0.0	6851.2166415651399802300147712230682373046875	0.0	1	1	1	1
3638	S6	2019	6	1	14	297.08815045545298971774172969162464141845703125	12.0716095652198998067206048290245234966278076171875	284.809844022415973086026497185230255126953125	19.003389719515798361726410803385078907012939453125	72.3954798811572999284180696122348308563232421875	3.077401127518899937030028013396076858043670654296875	294.08333202203101564009557478129863739013671875	0.0	8232.83341526986987446434795856475830078125	0.0	1	1	1	1
3639	S6	2019	6	1	15	400.49618351312301456346176564693450927734375	116.823738810777996377510135062038898468017578125	312.9983109368209852618747390806674957275390625	18.958950590204299402330434531904757022857666015625	70.1623454388276996951390174217522144317626953125	3.82993826785205015994506538845598697662353515625	408.83333608508002043890883214771747589111328125	0.0	11091.308563947599395760335028171539306640625	0.0	1	1	1	1
3640	S6	2019	6	1	16	461.72003609094798548539984039962291717529296875	369.2715384309680075602955184876918792724609375	222.070670445759986932898755185306072235107421875	19.103205051177500450876323156990110874176025390625	67.140384233914801370701752603054046630859375	3.999358965036190038944141633692197501659393310546875	531.7499960462249646298005245625972747802734375	0.0	13870.753099520899922936223447322845458984375	0.0	1	1	1	1
3641	S6	2019	6	1	17	300.5798004436210248968563973903656005859375	187.983372602520006466875202022492885589599609375	198.728267614710006228051497600972652435302734375	18.23227666915320099860764457844197750091552734375	67.3945244670943992559841717593371868133544921875	3.733717569528459900851657948805950582027435302734375	307.75000217060102158939116634428501129150390625	0.0	8129.7213261326096471748314797878265380859375	0.0	1	1	1	1
3642	S6	2019	6	1	18	225.15765380859301103555480949580669403076171875	124.613825060197001448614173568785190582275390625	175.328407779126990817530895583331584930419921875	16.70980397926989979850986856035888195037841796875	72.6753500502984053355248761363327503204345703125	3.04705882439759978552729080547578632831573486328125	206.083333740632014041693764738738536834716796875	0.0	5480.276082952839715289883315563201904296875	0.0	1	1	1	1
3643	S6	2019	6	1	19	167.698962195444011058498290367424488067626953125	242.082764486135005199685110710561275482177734375	109.8014568501269963007871410809457302093505859375	15.714689314028600364281373913399875164031982421875	74.2067797386039984530725632794201374053955078125	3.0491525361598501575599584612064063549041748046875	126.1666696518650070402145502157509326934814453125	0.0	3179.63407933712005615234375	0.0	1	1	1	1
3644	S6	2019	6	1	20	44.310705758934801679060910828411579132080078125	45.538996980481698528819833882153034210205078125	38.538451580418296771313180215656757354736328125	14.9601882318716992159579604049213230609893798828125	74.0128525641270016421913169324398040771484375	2.539811909852729865377796159009449183940887451171875	29.5833332153656982654865714721381664276123046875	0.0	941.051182026664037039154209196567535400390625	0.0	1	1	1	1
3645	S6	2019	6	1	21	11.8461914286893001957423621206544339656829833984375	0.3739920493434449877412362184259109199047088623046875	12.274499276105000689085500198416411876678466796875	14.374117593204200460377251147292554378509521484375	75.294117467543600241697276942431926727294921875	2.20352941260617996022119768895208835601806640625	2.50000000232830021928975838818587362766265869140625	0.0	124.483325208226005997858010232448577880859375	0.0	1	1	1	1
3646	S6	2019	6	1	22	0	0	0	0	0	0	0	0.0	0	0.0	1	1	1	0
3647	S6	2019	6	1	23	0	0	0	0	0	0	0	0.0	0	0.0	1	1	1	0
3648	S6	2019	6	1	24	0	0	0	0	0	0	0	0.0	0	0.0	1	1	1	0
3649	S6	2019	6	2	1	0	0	0	0	0	0	0	0.0	0	0.0	1	1	1	0
3650	S6	2019	6	2	2	0	0	0	0	0	0	0	0.0	0	0.0	1	1	1	0
3651	S6	2019	6	2	3	0	0	0	0	0	0	0	0.0	0	0.0	1	1	1	0
3652	S6	2019	6	2	4	8.90840612517462915320720640011131763458251953125	0.7758282447854669694464746498852036893367767333984375	9.257176730367870476356983999721705913543701171875	11.1972224182551993720835525891743600368499755859375	92.677776336669893453290569595992565155029296875	1.1222222165928898984788020243286155164241790771484375	1.1666666929765299176580128914793021976947784423828125	0.0	94.8026579959938970887378673069179058074951171875	0.0	1	1	1	0
3653	S6	2019	6	2	5	48.921866248162899637463851831853389739990234375	45.046144478106697306429850868880748748779296875	43.53308072786649773888711933977901935577392578125	11.297190984983100037197800702415406703948974609375	92.24550510792249724545399658381938934326171875	0.88707865347688097390488337623537518084049224853515625	30.50000010989599985578024643473327159881591796875	0.0	1061.256669461720093750045634806156158447265625	0.0	1	1	1	1
3654	S6	2019	6	2	6	108.3743515014640053095718030817806720733642578125	23.952528987586799047448948840610682964324951171875	105.4233583303589938395816716365516185760498046875	11.8816568498780004148329680901952087879180908203125	90.1899413611055962292084586806595325469970703125	0.95207100507070296924183594455826096236705780029296875	84.916667391856805124916718341410160064697265625	0.0	2590.0103623668301224824972450733184814453125	0.0	1	1	1	1
3655	S6	2019	6	2	7	194.481744808619993136744596995413303375244140625	12.3480409147837999483954263268969953060150146484375	191.727275848387989753973670303821563720703125	12.7488888528610999628654099069535732269287109375	86.476110924614800978815765120089054107666015625	0.7119444461332420370780482699046842753887176513671875	166.33333389957800818592659197747707366943359375	0.0	4959.1817210118197181145660579204559326171875	0.0	1	1	1	1
3656	S6	2019	6	2	8	304.1032204522019810610800050199031829833984375	17.292315705782801416034999419935047626495361328125	297.5070870717360094204195775091648101806640625	14.2377778159246997091713637928478419780731201171875	79.979444503784094422371708787977695465087890625	0.6566666714019240291833057199255563318729400634765625	268.83333424726998828191426582634449005126953125	0.0	7818.5955782731298313592560589313507080078125	0.0	1	1	1	1
3657	S6	2019	6	2	9	541.619918735799046771717257797718048095703125	620.9319092038709868575097061693668365478515625	157.380594663428013291195384226739406585693359375	16.462464174090200685895979404449462890625	70.0237824841693026201028260402381420135498046875	0.8753581680677680054714073776267468929290771484375	522.6666641732050493374117650091648101806640625	0.0	14620.5012599627007148228585720062255859375	0.0	1	1	1	1
3658	S6	2019	6	2	10	539.0652311920770216602250002324581146240234375	298.2490054741280118832946754992008209228515625	332.405122030088023166172206401824951171875	18.10057311071700070215229061432182788848876953125	57.5243553227202966127151739783585071563720703125	1.2091690558929399923471237343619577586650848388671875	553.58333140611603084835223853588104248046875	0.0	14894.006888071600769762881100177764892578125	0.0	1	1	1	1
3659	S6	2019	6	2	11	706.440098194593019798048771917819976806640625	362.22042046236100532041746191680431365966796875	414.34184822339602760621346533298492431640625	19.167134804671999148695249459706246852874755859375	52.14691024951719811042494256980717182159423828125	1.3615168538153799016043876690673641860485076904296875	779.7499895095839974601403810083866119384765625	0.0	19979.04646396639873273670673370361328125	0.0	1	1	1	1
3660	S6	2019	6	2	12	692.0641895162640366834239102900028228759765625	201.205386748943993779903394170105457305908203125	516.452920847925042835413478314876556396484375	20.510919675059700040264942799694836139678955078125	49.444827748441099402043619193136692047119140625	1.1339080450178500303337614241172559559345245361328125	736.833338936168956934125162661075592041015625	0.0	18851.99133555090156733058393001556396484375	0.0	1	1	1	1
3661	S6	2019	6	2	13	699.7312405075630294959410093724727630615234375	281.7630881959249791179900057613849639892578125	460.62432152421200726166716776788234710693359375	20.789235117752799197887725313194096088409423828125	51.3070821464906003939177026040852069854736328125	1.4371104784119899111516360790119506418704986572265625	777.166674534478033820050768554210662841796875	0.0	18679.5768141746011679060757160186767578125	0.0	1	1	1	1
3662	S6	2019	6	2	14	807.5239040450829861583770252764225006103515625	553.875667392698005642159841954708099365234375	356.78521689390498750071856193244457244873046875	20.5327635381974999972953810356557369232177734375	55.1717950435104995676738326437771320343017578125	2.463817658672299959476958974846638739109039306640625	938.4166747331670421772287227213382720947265625	0.0	22455.13649781540152616798877716064453125	0.0	1	1	1	1
3663	S6	2019	6	2	15	615.61951429388500400818884372711181640625	384.25376805294700943704810924828052520751953125	328.0155480202660100985667668282985687255859375	19.605898824970299898495795787312090396881103515625	54.2047753494776998195447959005832672119140625	2.5362359532312002130538530764169991016387939453125	674.7500027219449520998750813305377960205078125	0.0	17335.86736520129852578975260257720947265625	0.0	1	1	1	1
3664	S6	2019	6	2	16	537.0313179060730135461199097335338592529296875	414.9172162953869928969652391970157623291015625	263.4649213824350226786918938159942626953125	19.433040975827200469439048902131617069244384765625	47.2099415628533023436830262653529644012451171875	2.671637423554349854981637690798379480838775634765625	594.0833290417989474008209072053432464599609375	0.0	15419.859548409700437332503497600555419921875	0.0	1	1	1	1
3665	S6	2019	6	2	17	465.10620737739901642271433956921100616455078125	583.3382204953669543101568706333637237548828125	152.688097813002997327203047461807727813720703125	18.87075194674940092909309896640479564666748046875	50.42144828520110166891754488460719585418701171875	2.753760442428269783476935117505490779876708984375	501.83333456515998705071979202330112457275390625	0.0	12717.995961507100219023413956165313720703125	0.0	1	1	1	1
3666	S6	2019	6	2	18	326.63764490324098233031691052019596099853515625	484.13277509684002097856136970221996307373046875	130.890581200049012977615348063409328460693359375	18.49220051672460130021136137656867504119873046875	54.18746510455199683065075078047811985015869140625	2.326462389449880152625382834230549633502960205078125	301.99999734759302327802288345992565155029296875	0.0	7492.4428860346497458522208034992218017578125	0.0	1	1	1	1
3667	S6	2019	6	2	19	163.595387607150001940681249834597110748291015625	266.55496460596697261280496604740619659423828125	90.6027648925780937361196265555918216705322265625	17.516666645473900842944203759543597698211669921875	62.11944455040819690339048975147306919097900390625	2.21166666199763017885970839415676891803741455078125	124.166665598750995513910311274230480194091796875	0.0	3018.95284404357016683206893503665924072265625	0.0	1	1	1	1
3668	S6	2019	6	2	20	72.3181979179382068423365126363933086395263671875	65.186721804324093909599469043314456939697265625	63.0716873486835964968122425489127635955810546875	16.8177776760525006238822243176400661468505859375	68.2383329391478952175020822323858737945556640625	2.02749999711909989486002814373932778835296630859375	49.083333695307402422258746810257434844970703125	0.0	1521.588903541359968585311435163021087646484375	0.0	1	1	1	1
3669	S6	2019	6	2	21	13.4709542640951998038190140505321323871612548828125	0.32675964024129300344867488092859275639057159423828125	13.8253298034834006813298401539213955402374267578125	16.044541583831598785536698414944112300872802734375	73.92227072903159523775684647262096405029296875	2.054585149975320046422666564467363059520721435546875	5.74999999177322962395919603295624256134033203125	0.0	190.432218019850012069582589901983737945556640625	0.0	1	1	1	1
3670	S6	2019	6	2	22	0	0	0	0	0	0	0	0.0	0	0.0	1	1	1	0
3671	S6	2019	6	2	23	0	0	0	0	0	0	0	0.0	0	0.0	1	1	1	0
3672	S6	2019	6	2	24	0	0	0	0	0	0	0	0.0	0	0.0	1	1	1	0
3673	S6	2019	6	3	1	0	0	0	0	0	0	0	0.0	0	0.0	1	1	1	0
3674	S6	2019	6	3	2	0	0	0	0	0	0	0	0.0	0	0.0	1	1	1	0
3675	S6	2019	6	3	3	0	0	0	0	0	0	0	0.0	0	0.0	1	1	1	0
3676	S6	2019	6	3	4	9.9779821909390893353020146605558693408966064453125	0.662104763172485011324397419230081140995025634765625	10.269711578285299680146636092104017734527587890625	14.2384615678053005893843874218873679637908935546875	89.6109900002951036412923713214695453643798828125	1.270329669281669904279397087520919740200042724609375	2.083333335273589881353473174385726451873779296875	0.0	69.3448417975256035106212948448956012725830078125	0.0	1	1	1	0
3677	S6	2019	6	3	5	40.1356728315353024072464904747903347015380859375	0.83304588571190796297827318994677625596523284912109375	40.56946761078300056624357239343225955963134765625	14.693888902664099305184208787977695465087890625	89.11666662428109475513338111340999603271484375	0.9983333360817689960953202898963354527950286865234375	35.75000050477670043846956104971468448638916015625	0.0	1081.5791596347999075078405439853668212890625	0.0	1	1	1	1
3678	S6	2019	6	3	6	170.604269218443988620492746122181415557861328125	414.64146769675897985507617704570293426513671875	79.47116288079149626355501823127269744873046875	18.460555399788699304508554632775485515594482421875	75.83111084832080450723879039287567138671875	0.82277777923478001564916439747321419417858123779296875	64.9166669075687963186283013783395290374755859375	0.0	2512.6782183845798499532975256443023681640625	0.0	1	1	1	1
3679	S6	2019	6	3	7	239.924329676772003949736244976520538330078125	331.4697861369160136746359057724475860595703125	126.453239683671000648246263153851032257080078125	20.532727253075801598924954305402934551239013671875	69.6266670227050070707264239899814128875732421875	0.93878788234609500396032899516285397112369537353515625	164.416666763523011240977211855351924896240234375	0.0	4696.376204490659802104346454143524169921875	0.0	1	1	1	1
3680	S6	2019	6	3	8	442.35957908630297197305480949580669403076171875	646.6532204151150153847993351519107818603515625	125.0500269152900045810383744537830352783203125	22.32073871114030083617763011716306209564208984375	66.0261361815712035649994504638016223907470703125	1.134943185120139919064286004868336021900177001953125	380.99999974171299754743813537061214447021484375	0.0	10724.72320000330000766552984714508056640625	0.0	1	1	1	1
3681	S6	2019	6	3	9	589.94108200073196712764911353588104248046875	772.30746375189801256055943667888641357421875	114.4201697455509929568506777286529541015625	24.570833396911599066925191436894237995147705078125	59.9400000254313027880925801582634449005126953125	1.36416666780908002465366735123097896575927734375	573.916661242644977392046712338924407958984375	0.0	15471.988002459200288285501301288604736328125	0.0	1	1	1	1
3682	S6	2019	6	3	10	611.1788315626899930066429078578948974609375	447.7948838648350147195742465555667877197265625	293.88423377756902254986925981938838958740234375	25.894707358315098844059320981614291667938232421875	55.3484678241866987491448526270687580108642578125	1.3292479081738199919726639564032666385173797607421875	623.583331704139027351629920303821563720703125	0.0	16316.08742475510007352568209171295166015625	0.0	1	1	1	1
3683	S6	2019	6	3	11	377.44947169554501442689797841012477874755859375	146.55043793236501414867234416306018829345703125	262.2917934544490208281786181032657623291015625	25.390030195345598684752985718660056591033935546875	56.48187319245580084725588676519691944122314453125	2.223867061905270059440908880787901580333709716796875	348.66667290528499734136858023703098297119140625	0.0	9538.4308894475107081234455108642578125	0.0	1	1	1	1
3684	S6	2019	6	3	12	213.575765070344999685403308831155300140380859375	17.1250499743239998906574328429996967315673828125	198.741578438538994078044197522103786468505859375	22.56618078248489922543740249238908290863037109375	62.7790084038114031272925785742700099945068359375	1.250437317714740093066438930691219866275787353515625	228.833332657813997457196819595992565155029296875	0.0	6297.80379931131028570234775543212890625	0.0	1	1	1	1
3685	S6	2019	6	3	13	497.52091462351899053828674368560314178466796875	73.9168090806246027568704448640346527099609375	431.1989774900899874410242773592472076416015625	24.32713863631609996218685409985482692718505859375	59.0053095747235971657573827542364597320556640625	1.6955752237356500611298315561725758016109466552734375	531.833328306674957275390625	0.0	13472.867816686599326203577220439910888671875	0.0	1	1	1	1
3686	S6	2019	6	3	14	323.35310132908801961093558929860591888427734375	106.237928396753005699792993254959583282470703125	235.103650623508002581729670055210590362548828125	23.99538895444840136406128294765949249267578125	56.1489912907052968193966080434620380401611328125	2.723054750336689977530113537795841693878173828125	409.75000057369101114090881310403347015380859375	0.0	10013.24756443489968660287559032440185546875	0.0	1	1	1	1
3687	S6	2019	6	3	15	250.660757326612014139755046926438808441162109375	16.256200668733299607993103563785552978515625	237.50639465075499856538954190909862518310546875	22.745658254756900618076542741619050502777099609375	60.88543428693490255909637198783457279205322265625	1.14817927514804996036446027574129402637481689453125	250.500002255042005572249763645231723785400390625	0.0	7078.309759497669801930896937847137451171875	0.0	1	1	1	1
3688	S6	2019	6	3	16	371.2408107130939924900303594768047332763671875	109.3755261678840042804949916899204254150390625	300.627495229759006178937852382659912109375	23.86685890835359913353386218659579753875732421875	57.96138317097160097546293400228023529052734375	1.798559077792619920188599280663765966892242431640625	373.666669552522989761200733482837677001953125	0.0	10104.66608405109946033917367458343505859375	0.0	1	1	1	1
3689	S6	2019	6	3	17	304.98396250265199114437564276158809661865234375	92.0132846667905965887257480062544345855712890625	257.63692833520502745159319601953029632568359375	23.9688023059812991277794935740530490875244140625	61.07910886249170090422921930439770221710205078125	1.80083565152455005176079794182442128658294677734375	298.33333070079498838822473771870136260986328125	0.0	7980.0995389620502464822493493556976318359375	0.0	1	1	1	1
3690	S6	2019	6	3	18	165.629271929641987526338198222219944000244140625	15.6196207624540992497941260808147490024566650390625	159.03615485061101253450033254921436309814453125	22.797492996895801553591809351928532123565673828125	64.01476314406539813717245124280452728271484375	1.897214479516140084314201885717920958995819091796875	150.749999408918000654011848382651805877685546875	0.0	4192.352304855960028362460434436798095703125	0.0	1	1	1	1
3691	S6	2019	6	3	19	64.1463297768244018470795708708465099334716796875	6.40494900943188039121878318837843835353851318359375	62.41150936550560146542920847423374652862548828125	21.327619068206299601797581999562680721282958984375	68.651745750790496458648703992366790771484375	2.599999995080250148049572089803405106067657470703125	51.9166663289069987285984097979962825775146484375	0.0	1574.9875580271100261597894132137298583984375	0.0	1	1	1	1
3692	S6	2019	6	3	20	24.528232497639098852459937916137278079986572265625	0.25050659285237297790871480174246244132518768310546875	24.672591344515399924830489908345043659210205078125	18.667499891916900622845787438564002513885498046875	75.6741667429605939787506940774619579315185546875	1.948611110283259950648471203749068081378936767578125	19.2499998956918005887928302399814128875732421875	0.0	620.737581203384024775004945695400238037109375	0.0	1	1	1	1
3693	S6	2019	6	3	21	6.551505810059840229087058105506002902984619140625	0.23396154809684499564781390290590934455394744873046875	6.6484408813452500197627159650437533855438232421875	17.864779946189198511774520738981664180755615234375	75.9415090788834987733935122378170490264892578125	1.1264150950518700966540563968010246753692626953125	1.58333335032997002400634301011450588703155517578125	0.0	87.0511321118103040817004512064158916473388671875	0.0	1	1	1	1
3694	S6	2019	6	3	22	0	0	0	0	0	0	0	0.0	0	0.0	1	1	1	0
3695	S6	2019	6	3	23	0	0	0	0	0	0	0	0.0	0	0.0	1	1	1	0
3696	S6	2019	6	3	24	0	0	0	0	0	0	0	0.0	0	0.0	1	1	1	0
3697	S6	2019	6	4	1	0	0	0	0	0	0	0	0.0	0	0.0	1	1	1	0
3698	S6	2019	6	4	2	0	0	0	0	0	0	0	0.0	0	0.0	1	1	1	0
3699	S6	2019	6	4	3	0	0	0	0	0	0	0	0.0	0	0.0	1	1	1	0
3700	S6	2019	6	4	4	6.59414307664080023840824651415459811687469482421875	0.30972744524478901251285378748434595763683319091796875	6.76649022683864043159474022104404866695404052734375	14.1000002419075993742580976686440408229827880859375	84.163413815382000393583439290523529052734375	1.0317073122757201009136451830272562801837921142578125	0.833333343810715998500882051303051412105560302734375	0.0	23.48698334147540123240105458535254001617431640625	0.0	1	1	1	0
3701	S6	2019	6	4	5	28.180968183095298940088468953035771846771240234375	7.69380379153065963038216068525798618793487548828125	27.604017642365700879736323258839547634124755859375	13.8991595596825998626400178181938827037811279296875	85.602520918645694791848654858767986297607421875	0.80896358855632100048893562416196800768375396728515625	19.749999900038101685595393064431846141815185546875	0.0	625.7141769553239782908349297940731048583984375	0.0	1	1	1	1
3702	S6	2019	6	4	6	128.329581059349010274672764353454113006591796875	204.2523545622819938216707669198513031005859375	87.5656120300292997171709430404007434844970703125	14.4458333969116008432820308371447026729583740234375	84.4066662470498982884237193502485752105712890625	0.73055555903249302929225450498051941394805908203125	62.8333340088525034161648363806307315826416015625	0.0	2179.38704043626012207823805510997772216796875	0.0	1	1	1	1
3703	S6	2019	6	4	7	255.98478832080900247092358767986297607421875	358.11048629051600755701656453311443328857421875	124.8299624161590060111848288215696811676025390625	15.410888302975099151126414653845131397247314453125	80.2765047352088032539541018195450305938720703125	0.57449857160491701879578840816975571215152740478515625	181.833333646256988913592067547142505645751953125	0.0	5243.069797754260434885509312152862548828125	0.0	1	1	1	1
3704	S6	2019	6	4	8	432.3038113911940172329195775091648101806640625	579.44585842556398347369395196437835693359375	147.39344609578398603844107128679752349853515625	17.219166612625098622402219916693866252899169921875	71.5091660181681021413169219158589839935302734375	0.457222226096524020366729246234172023832798004150390625	365.41666338840997241277364082634449005126953125	0.0	10408.8479280471001402474939823150634765625	0.0	1	1	1	1
3705	S6	2019	6	4	9	569.535477956135991917108185589313507080078125	648.70627237955704913474619388580322265625	172.032110002304989393451251089572906494140625	18.194999965031900757139737834222614765167236328125	66.3633335431415929406284703873097896575927734375	0.73055555580390796333034586496069096028804779052734375	542.699998617172013837262056767940521240234375	0.0	15048.278689384400422568432986736297607421875	0.0	1	1	1	1
3706	S6	2019	6	4	10	687.490257093641048413701355457305908203125	695.458550516764034910011105239391326904296875	191.118488438924003958163666538894176483154296875	19.225833320617599753177273669280111789703369140625	60.07333358128860112401525839231908321380615234375	0.75972222429182700853544929486815817654132843017578125	716.4999991655330404682899825274944305419921875	0.0	19074.84054565419864957220852375030517578125	0.0	1	1	1	1
3707	S6	2019	6	4	11	776.6841527842940422488027252256870269775390625	707.5367703570999537987518124282360076904296875	221.700261718067991978386999107897281646728515625	20.056983207191098728117140126414597034454345703125	56.49748630630229939697528607212007045745849609375	0.69636871769774499885130580878467299044132232666015625	864.750002821285988829913549125194549560546875	0.0	22108.58039061219824361614882946014404296875	0.0	1	1	1	1
3708	S6	2019	6	4	12	614.6626617076780121351475827395915985107421875	196.06615298847799522263812832534313201904296875	447.39659380358301632440998218953609466552734375	19.9729650796844993010381585918366909027099609375	57.41656958779619657207149430178105831146240234375	0.82936046844304900371724897922831587493419647216796875	659.2500085632069612984196282923221588134765625	0.0	16591.85677766790104215033352375030517578125	0.0	1	1	1	1
3709	S6	2019	6	4	13	849.8007024129229876052704639732837677001953125	706.6697365654839586568414233624935150146484375	260.83529120551202140632085502147674560546875	20.3975000222524016635361476801335811614990234375	56.7383333524067978714811033569276332855224609375	1.3655555561184800072993539288290776312351226806640625	975.5000074704420285343076102435588836669921875	0.0	23874.0051587421985459513962268829345703125	0.0	1	1	1	1
3710	S6	2019	6	4	14	545.587994639078033287660218775272369384765625	133.495661582879989737193682231009006500244140625	434.09220123290998571974341757595539093017578125	20.044166723887098413570129196159541606903076171875	58.42750012079869748049532063305377960205078125	0.82638889286253103261259411738137714564800262451171875	591.333332161108046420849859714508056640625	0.0	15512.442509333299312856979668140411376953125	0.0	1	1	1	1
3711	S6	2019	6	4	15	544.8903057588539695643703453242778778076171875	145.0663675003210073555237613618373870849609375	442.72575190879700812729424796998500823974609375	20.745530714535799887698885868303477764129638671875	56.966480425616197180715971626341342926025390625	0.8058659230364100256593928861548192799091339111328125	597.083340088526028921478427946567535400390625	0.0	15804.539879163099612924270331859588623046875	0.0	1	1	1	1
3712	S6	2019	6	4	16	340.2535986513699981514946557581424713134765625	70.441029260779401965919532813131809234619140625	293.84016634966798164896317757666110992431640625	19.5081080746005994797087623737752437591552734375	60.70641887510139866890312987379729747772216796875	1.16959459465499993058301697601564228534698486328125	322.22221791744101437870995141565799713134765625	0.0	8692.21737649707938544452190399169921875	0.0	1	1	1	1
3713	S6	2019	6	4	17	238.506025479031990244038752280175685882568359375	12.1842430902638998446718687773682177066802978515625	232.78157987036701115357573144137859344482421875	18.688579309617498580564642907120287418365478515625	64.148189449044593857252039015293121337890625	1.0919220092236801011864599786349572241306304931640625	224.24999748666999721535830758512020111083984375	0.0	6299.7091114521099370904266834259033203125	0.0	1	1	1	1
3714	S6	2019	6	4	18	271.10483020191401237752870656549930572509765625	184.079897749272987539370660670101642608642578125	199.2110986843910040988703258335590362548828125	18.813802848063698291980472276918590068817138671875	64.410140475420803340966813266277313232421875	1.2529577465963999127751549167442135512828826904296875	249.500000228483003184010158292949199676513671875	0.0	6522.577260931329874438233673572540283203125	0.0	1	1	1	1
3715	S6	2019	6	4	19	156.350193680656985861787688918411731719970703125	104.843329583273998650838620960712432861328125	129.17174674139999979161075316369533538818359375	18.799166631698600582467406638897955417633056640625	66.505832990010503635858185589313507080078125	0.97888888832595599698294108748086728155612945556640625	124.9999993791160051159749855287373065948486328125	0.0	3409.87651050091017168597318232059478759765625	0.0	1	1	1	1
3716	S6	2019	6	4	20	61.1244719929164972427315660752356052398681640625	8.69906743086045963764263433404266834259033203125	60.8412422815957967259237193502485752105712890625	17.775000079472800251778608071617782115936279296875	70.3525000254312971037506940774619579315185546875	1.0605555555886601037940408787108026444911956787109375	43.9999999168019968465159763582050800323486328125	0.0	1365.48605561255999418790452182292938232421875	0.0	1	1	1	1
3717	S6	2019	6	4	21	19.00701032110220012327772565186023712158203125	0.37128122423736098500768321173381991684436798095703125	19.414913352106598409818616346456110477447509765625	16.706572617723299600811515119858086109161376953125	73.56807493827710686673526652157306671142578125	0.8830985926406480501782425562851130962371826171875	6.25000006402841989938679034821689128875732421875	0.0	265.2298421598979984992183744907379150390625	0.0	1	1	1	1
3718	S6	2019	6	4	22	0	0	0	0	0	0	0	0.0	0	0.0	1	1	1	0
3719	S6	2019	6	4	23	0	0	0	0	0	0	0	0.0	0	0.0	1	1	1	0
3720	S6	2019	6	4	24	0	0	0	0	0	0	0	0.0	0	0.0	1	1	1	0
3721	S6	2019	6	5	1	0	0	0	0	0	0	0	0.0	0	0.0	1	1	1	0
3722	S6	2019	6	5	2	0	0	0	0	0	0	0	0.0	0	0.0	1	1	1	0
3723	S6	2019	6	5	3	0	0	0	0	0	0	0	0.0	0	0.0	1	1	1	0
3724	S6	2019	6	5	4	9.4233234254937396912055191933177411556243896484375	0.59888378444470802275390042268554680049419403076171875	9.78653118233930996439084992744028568267822265625	16.173684330990401036842740722931921482086181640625	82.33894757722549684331170283257961273193359375	4.07263157618672977378082578070461750030517578125	2.9166666984868498957439442165195941925048828125	0.0	88.0151583890743012261737021617591381072998046875	0.0	1	1	1	0
3725	S6	2019	6	5	5	44.25609950754370203185317222960293292999267578125	37.53629636996320328989895642735064029693603515625	39.99827137258309761591590358875691890716552734375	16.734999847412101559029906638897955417633056640625	81.89333356221510484829195775091648101806640625	3.93555554681354013979444061988033354282379150390625	32.49999973922960094796508201397955417633056640625	0.0	1008.46568681299004310858435928821563720703125	0.0	1	1	1	1
3726	S6	2019	6	5	6	160.346563847858988083316944539546966552734375	198.900104421376994423553696833550930023193359375	120.31793588002500428046914748847484588623046875	17.61749993960059867958989343605935573577880859375	79.9783335367837935336865484714508056640625	3.52166666818988982612381732906214892864227294921875	94.2500016341594033519868389703333377838134765625	0.0	3076.83136562505978872650302946567535400390625	0.0	1	1	1	1
3727	S6	2019	6	5	7	123.356185425652000731133739463984966278076171875	2.248158129718559994358884068788029253482818603515625	123.031717745462998436778434552252292633056640625	17.49416666030879952131726895458996295928955078125	80.287500127156505413950071670114994049072265625	3.932222218977079908341920599923469126224517822265625	109.4166679928679997146900859661400318145751953125	0.0	3182.5114786624699263484217226505279541015625	0.0	1	1	1	1
3728	S6	2019	6	5	8	226.726017378672992208521463908255100250244140625	95.84088912551050043475697748363018035888671875	176.83322680437998997149406932294368743896484375	18.171509984551601490920802461914718151092529296875	79.38034194555029898765496909618377685546875	2.456410257564990207157507029478438198566436767578125	211.75000009437400194656220264732837677001953125	0.0	5963.5753333568500238470733165740966796875	0.0	1	1	1	1
3729	S6	2019	6	5	9	571.806292724608965727384202182292938232421875	624.08257130781794330687262117862701416015625	185.47113583882600096330861561000347137451171875	19.84749994277949980414632591418921947479248046875	76.0983333587646058049358543939888477325439453125	2.71472221505309985190024235635064542293548583984375	548.2500021656350099874543957412242889404296875	0.0	15176.075498263000554288737475872039794921875	0.0	1	1	1	1
3730	S6	2019	6	5	10	660.0691605461960307366098277270793914794921875	683.7533045450840063494979403913021087646484375	168.8437653435599941076361574232578277587890625	22.197500054041501726942442473955452442169189453125	70.171666844685802288950071670114994049072265625	2.282222222536800071424067937186919152736663818359375	684.33334430058903308236040174961090087890625	0.0	18152.9596447943986277095973491668701171875	0.0	1	1	1	1
3731	S6	2019	6	5	11	766.5178356594509523347369395196437835693359375	778.958366902669013143167831003665924072265625	154.332225163776996623710147105157375335693359375	23.22416674296059824200710863806307315826416015625	68.265833727518696605329751037061214447021484375	2.35194444557031001608038423000834882259368896484375	848.4166661898290158205782063305377960205078125	0.0	21463.81783485410051071085035800933837890625	0.0	1	1	1	1
3732	S6	2019	6	5	12	809.357851833766972049488686025142669677734375	773.4852523803709800631622783839702606201171875	165.53725683424198678039829246699810028076171875	23.65083336830129923100685118697583675384521484375	68.531667327880796847239253111183643341064453125	2.008333331677639943535496058757416903972625732421875	923.333336909611034570843912661075592041015625	0.0	22713.712612787800026126205921173095703125	0.0	1	1	1	1
3733	S6	2019	6	5	13	817.6121965196390419805538840591907501220703125	795.2856218126080420915968716144561767578125	155.912976074217993982529151253402233123779296875	24.530833482742298912171463598497211933135986328125	66.9474999745686005780953564681112766265869140625	2.31361110938919001256408591871149837970733642578125	953.83332669735000308719463646411895751953125	0.0	23068.48080952959935530088841915130615234375	0.0	1	1	1	1
3734	S6	2019	6	5	14	781.8166909111870381821063347160816192626953125	794.908602905273028227384202182292938232421875	147.803220833671986156332422979176044464111328125	25.984999926884899679180307430215179920196533203125	63.21249993642170039720440399833023548126220703125	1.8455555522607400842360902970540337264537811279296875	921.083336075146007715375162661075592041015625	0.0	21937.3022317885988741181790828704833984375	0.0	1	1	1	1
3735	S6	2019	6	5	15	688.81359863281204525264911353588104248046875	758.491676839191995895816944539546966552734375	148.574411604138987286205519922077655792236328125	26.7166666189828987398868775926530361175537109375	60.5200000762938969955939683131873607635498046875	1.524444439096579895220884282025508582592010498046875	801.9166688124349775534938089549541473388671875	0.0	19491.7943874994016368873417377471923828125	0.0	1	1	1	1
3736	S6	2019	6	5	16	580.8864308675130132542108185589313507080078125	716.697677612304005378973670303821563720703125	139.010971874659986724509508349001407623291015625	27.1341666380563992788665927946567535400390625	56.75416676203399646283287438564002513885498046875	1.644722227338279996189385201432742178440093994140625	664.416655898093949872418306767940521240234375	0.0	16291.20008150730063789524137973785400390625	0.0	1	1	1	1
3737	S6	2019	6	5	17	464.12292124430297235448961146175861358642578125	629.2889522976339549131807871162891387939453125	132.0021906534830122836865484714508056640625	26.65083327293390169643316767178475856781005859375	56.3866667111714008342460147105157375335693359375	1.9633333300550699362929663038812577724456787109375	486.91666374604000111503410153090953826904296875	0.0	12027.772963047000303049571812152862548828125	0.0	1	1	1	1
3738	S6	2019	6	5	18	330.25253278944200019395793788135051727294921875	551.9535246107310513252741657197475433349609375	107.902062649197006294343736954033374786376953125	26.4266667048135985851331497542560100555419921875	58.16083323160800233608824783004820346832275390625	1.5774999950494998923744560670456849038600921630859375	303.249999880790028328192420303821563720703125	0.0	7373.205810785249923355877399444580078125	0.0	1	1	1	1
3739	S6	2019	6	5	19	198.811376063028006910826661624014377593994140625	443.8096078660749981281696818768978118896484375	79.19697475433349609375	25.80916676521299990554325631819665431976318359375	61.09333299001050221477271406911313533782958984375	1.5583333328366200110082218088791705667972564697265625	143.5000002384180106673738919198513031005859375	0.0	3342.56070107220011777826584875583648681640625	0.0	1	1	1	1
3740	S6	2019	6	5	20	57.67755383479440212113331654109060764312744140625	78.367282602228698351609637029469013214111328125	45.553396019754501367060584016144275665283203125	24.13607598558250089126886450685560703277587890625	65.2287975745864940790852415375411510467529296875	1.08860759701155007661554918740876019001007080078125	31.999999967714000348451008903793990612030029296875	0.0	1151.528112590310001905891112983226776123046875	0.0	1	1	1	1
3741	S6	2019	6	5	21	18.166597486129500538254433195106685161590576171875	3.7448457639499199700594544992782175540924072265625	18.570918466070001073831008397974073886871337890625	22.933989914767199280731801991350948810577392578125	68.7211820856102946208920911885797977447509765625	0.4000000053732259974736962249153293669223785400390625	5.4166667784253803574756602756679058074951171875	0.0	278.82567296425298764006583951413631439208984375	0.0	1	1	1	1
3742	S6	2019	6	5	22	0	0	0	0	0	0	0	0.0	1.3020499609411000374592504158499650657176971435546875	0.0	1	1	1	0
3743	S6	2019	6	5	23	0	0	0	0	0	0	0	0.0	0	0.0	1	1	1	0
3744	S6	2019	6	5	24	0	0	0	0	0	0	0	0.0	0	0.0	1	1	1	0
3745	S6	2019	6	6	1	0	0	0	0	0	0	0	0.0	0	0.0	1	1	1	0
3746	S6	2019	6	6	2	0	0	0	0	0	0	0	0.0	0	0.0	1	1	1	0
3747	S6	2019	6	6	3	0	0	0	0	0	0	0	0.0	0	0.0	1	1	1	0
3748	S6	2019	6	6	4	12.2253795637600006784850847907364368438720703125	2.3542110963144100566069027991034090518951416015625	12.6340532510175993508028113865293562412261962890625	18.7869560407554985204114927910268306732177734375	77.85797130197710202992311678826808929443359375	1.5536231787308401042224659249768592417240142822265625	2.333333337446669819570388426654972136020660400390625	0.0	95.8768835989757945981182274408638477325439453125	0.0	1	1	1	0
3749	S6	2019	6	6	5	42.383936004638599115423858165740966796875	65.03633454493109411487239412963390350341796875	34.031485432216101116864592768251895904541015625	19.143142574855200876982053159736096858978271484375	77.8711427089146042135325842536985874176025390625	1.7871428562062099398843884046073071658611297607421875	24.0833333227783015217937645502388477325439453125	0.0	836.1806912968560254739713855087757110595703125	0.0	1	1	1	1
3750	S6	2019	6	6	6	156.95983797709101281725452281534671783447265625	386.93679131401898985131992958486080169677734375	69.3089344130622038164801779203116893768310546875	20.5183332125345003760230611078441143035888671875	75.5108328501382999320412636734545230865478515625	3.179722217553190066752222264767624437808990478515625	53.58333451052499896150038694031536579132080078125	0.0	2118.7096213301001625950448215007781982421875	0.0	1	1	1	1
3751	S6	2019	6	6	7	291.1050122578930086092441342771053314208984375	551.3556851704910286571248434484004974365234375	91.838804711235894728815765120089054107666015625	21.8958333015441013458257657475769519805908203125	69.6058329264321997698061750270426273345947265625	3.409722219159200040650148366694338619709014892578125	193.166666974624007480088039301335811614990234375	0.0	5348.15453986326974700205028057098388671875	0.0	1	1	1	1
3752	S6	2019	6	6	8	439.27202690972200116448220796883106231689453125	670.80256212022504769265651702880859375	105.7285445743130054552239016629755496978759765625	22.541666523615500494770458317361772060394287109375	66.0400002797444045654629007913172245025634765625	3.39638888198467991941242871689610183238983154296875	368.9166655143100115310517139732837677001953125	0.0	10355.6011716524008079431951045989990234375	0.0	1	1	1	1
3753	S6	2019	6	6	9	573.4289557562930212952778674662113189697265625	703.9317459106440537652815692126750946044921875	137.73879345787798911260324530303478240966796875	22.670000012715600945512051112018525600433349609375	65.114166641235300403423025272786617279052734375	3.12472222199042004575630926410667598247528076171875	550.166668991246979203424416482448577880859375	0.0	15129.3796896933999960310757160186767578125	0.0	1	1	1	1
3754	S6	2019	6	6	10	694.1373394173630231307470239698886871337890625	766.70228993590399113600142300128936767578125	142.745509961625003825247404165565967559814453125	23.266478761484901127687408006750047206878662109375	62.70450701646399949140686658211052417755126953125	3.425070416927329830514281638897955417633056640625	725.3333379824949815883883275091648101806640625	0.0	19216.303984324098564684391021728515625	0.0	1	1	1	1
3755	S6	2019	6	6	11	759.9820146348739626773749478161334991455078125	792.847152625188982710824348032474517822265625	138.60166994730599299145978875458240509033203125	24.681666564941398434029906638897955417633056640625	58.34166676203410162315776688046753406524658203125	3.050833332869740122106350099784322082996368408203125	837.4166637659069465371430851519107818603515625	0.0	21329.9314975738016073592007160186767578125	0.0	1	1	1	1
3756	S6	2019	6	6	12	819.831555684407021544757299125194549560546875	832.590732828776026508421637117862701416015625	131.88483751084999084923765622079372406005859375	25.522499958674099929112344398163259029388427734375	55.8883333841959029086865484714508056640625	3.72499999834430983725042096921242773532867431640625	936.6666624943400165648199617862701416015625	0.0	23246.2664842605008743703365325927734375	0.0	1	1	1	1
3757	S6	2019	6	6	13	840.8118961089829781485605053603649139404296875	869.26672703309895950951613485813140869140625	117.5676567693929968072552583180367946624755859375	24.8793869815497004083226784132421016693115234375	57.5114207041959986099755042232573032379150390625	3.92618384218480986902477525291033089160919189453125	984.9166621764489946144749410450458526611328125	0.0	24245.581030845598434098064899444580078125	0.0	1	1	1	1
3758	S6	2019	6	6	14	808.2716491699210337174008600413799285888671875	866.916176859537017662660218775272369384765625	113.0590232425259955562069080770015716552734375	25.034999783833800535148839117027819156646728515625	57.822499942779501225231797434389591217041015625	4.07361110895871991743888429482467472553253173828125	955.7500034570690559121430851519107818603515625	0.0	23275.20676453900159685872495174407958984375	0.0	1	1	1	1
3759	S6	2019	6	6	15	726.361776224772029308951459825038909912109375	815.9190246582030567878973670303821563720703125	124.3550313525719985818795976229012012481689453125	25.6475000222524016635361476801335811614990234375	54.71583337783810208065915503539144992828369140625	3.591666658719379956465900249895639717578887939453125	833.3333333333330301684327423572540283203125	0.0	20754.724939664200064726173877716064453125	0.0	1	1	1	1
3760	S6	2019	6	6	16	505.3369927300340123110800050199031829833984375	437.802052105796974501572549343109130859375	213.001188659667008096221252344548702239990234375	25.48666655222569943362032063305377960205078125	53.90499979654939721740447566844522953033447265625	3.087222212884160210677464419859461486339569091796875	563.49999705950403949827887117862701416015625	0.0	14304.61140473679915885441005229949951171875	0.0	1	1	1	1
3761	S6	2019	6	6	17	170.506917529634989705300540663301944732666015625	8.49359622529397029211395420134067535400390625	165.884415160284987678096513263881206512451171875	23.101666657129900528389043756760656833648681640625	60.97750008900960239088817615993320941925048828125	2.3811111104984998831923803663812577724456787109375	143.91666743904301029033376835286617279052734375	0.0	4172.391355037680114037357270717620849609375	0.0	1	1	1	1
3762	S6	2019	6	6	18	21.48839128955020072453407919965684413909912109375	0.2377431254331650034572476215544156730175018310546875	21.5304389750018998483938048593699932098388671875	21.69494380308000103241283795796334743499755859375	67.4005620292062985754455439746379852294921875	1.750561789013020064231795913656242191791534423828125	8.0000002441617592552347559831105172634124755859375	0.0	308.506333113956998204230330884456634521484375	0.0	1	1	1	1
3763	S6	2019	6	6	19	1.6511453737508599015626487016561441123485565185546875	0.200206827251106000975511278738849796354770660400390625	1.513559036060339924034678915631957352161407470703125	18.393827092990900240465634851716458797454833984375	92.1440326706372019316404475830495357513427734375	2.302469134576030196370766134350560605525970458984375	0.08333333729145829538165202166055678389966487884521484375	0.0	13.22953325385839917771590990014374256134033203125	0.0	1	1	1	1
3764	S6	2019	6	6	20	9.69332328394541065108569455333054065704345703125	0.27378462452596197262977284481166861951351165771484375	9.7788461036427403172410777187906205654144287109375	16.917804078461500694174901582300662994384765625	98.402967730332505880141980014741420745849609375	2.09317507101803013114249552018009126186370849609375	7.91666666433839960603791041648946702480316162109375	0.0	234.02213274190700076360371895134449005126953125	0.0	1	1	1	1
3765	S6	2019	6	6	21	9.1123196035623497124333880492486059665679931640625	0.232480670395307009723495639264001511037349700927734375	9.235863669216630711389370844699442386627197265625	16.66875017881390164120603003539144992828369140625	98.9475008010864058860533987171947956085205078125	1.8568749994039499551234939644928090274333953857421875	3.00000000667446986568620559410192072391510009765625	0.0	89.223967632278601058715139515697956085205078125	0.0	1	1	1	1
3766	S6	2019	6	6	22	0	0	0	0	0	0	0	0.0	0	0.0	1	1	1	0
3767	S6	2019	6	6	23	0	0	0	0	0	0	0	0.0	0	0.0	1	1	1	0
3768	S6	2019	6	6	24	0	0	0	0	0	0	0	0.0	0	0.0	1	1	1	0
3769	S6	2019	6	7	1	0	0	0	0	0	0	0	0.0	0	0.0	1	1	1	0
3770	S6	2019	6	7	2	0	0	0	0	0	0	0	0.0	0	0.0	1	1	1	0
3771	S6	2019	6	7	3	0	0	0	0	0	0	0	0.0	0	0.0	1	1	1	0
3772	S6	2019	6	7	4	0.4812905409413830160048064499278552830219268798828125	0.2205248828167500063646144781159819103777408599853515625	0.457222412137881006888306956170708872377872467041015625	14.089130671127900740202676388435065746307373046875	96.073912744936706076259724795818328857421875	0.834782610768856958571859649964608252048492431640625	0	0.0	0	0.0	1	1	1	0
3773	S6	2019	6	7	5	6.969380844844859979048123932443559169769287109375	0.247200052348080012709630182143882848322391510009765625	7.14617980464120972072805670904926955699920654296875	13.6668541297482999397061576019041240215301513671875	95.28595532192269956794916652143001556396484375	1.4516853966404799081146848038770258426666259765625	3.166666710361199843504209638922475278377532958984375	0.0	97.476140751192900779642513953149318695068359375	0.0	1	1	1	1
3774	S6	2019	6	7	6	13.540203683203099416232362273149192333221435546875	0.2695888774261370190998832185869105160236358642578125	13.7503220542182997832014734740369021892547607421875	13.55782128978700029620085842907428741455078125	94.67849173092969294884824194014072418212890625	0.9837988836472260079091256557148881256580352783203125	11.3333332507558992574558942578732967376708984375	0.0	354.87379878759298890145146287977695465087890625	0.0	1	1	1	1
3775	S6	2019	6	7	7	50.5201959662966970654451870359480381011962890625	0.35765166629571398804188220310606993734836578369140625	50.70062929789219907661390607245266437530517578125	13.68611114819839968959058751352131366729736328125	91.891111034817100744476192630827426910400390625	0.9383333350221310098504545749165117740631103515625	46.91666659588599941344000399112701416015625	0.0	1396.475452929729954121285118162631988525390625	0.0	1	1	1	1
3776	S6	2019	6	7	8	116.85217427147699709166772663593292236328125	0.542934556129492040810191610944457352161407470703125	116.2474134551149944627468357793986797332763671875	14.4000000900692004535130763542838394641876220703125	87.28888901604540251355501823127269744873046875	1.2730555563337200286611050614737905561923980712890625	106.166665752727993776716175489127635955810546875	0.0	3184.47764962910014219232834875583648681640625	0.0	1	1	1	1
3777	S6	2019	6	7	9	174.020775900946006231606588698923587799072265625	0.83289222038454402419205280239111743867397308349609375	173.2161737442010007725912146270275115966796875	14.8166666295793003627068173955194652080535888671875	83.2077777014838062541457475163042545318603515625	1.3602777797314800078964935892145149409770965576171875	159.666666140160003806158783845603466033935546875	0.0	4726.1652052402196204639039933681488037109375	0.0	1	1	1	1
3778	S6	2019	6	7	10	207.423850080702010245659039355814456939697265625	0.76588570918473897197742417120025493204593658447265625	207.094035169812997310145874507725238800048828125	15.2561110761430001048211124725639820098876953125	79.50555530124239567157928831875324249267578125	1.2219444441298599191014773168717510998249053955078125	186.833333224056985955030540935695171356201171875	0.0	5481.6739956537503530853427946567535400390625	0.0	1	1	1	1
3779	S6	2019	6	7	11	234.815443462795002460552495904266834259033203125	0.9453259242905509562859833749826066195964813232421875	233.34482510884600969802704639732837677001953125	15.594444481531699153720182948745787143707275390625	78.158888880411694799477118067443370819091796875	0.87416667002770598315919414744712412357330322265625	215.91666713357000162432086654007434844970703125	0.0	6423.004825909900318947620689868927001953125	0.0	1	1	1	1
3780	S6	2019	6	7	12	383.78455365498797391410334967076778411865234375	9.664424601611159459935151971876621246337890625	372.02295799255301744778989814221858978271484375	16.553889067967698878192095435224473476409912109375	74.412777964273999486977118067443370819091796875	1.099166668289230042176995993941091001033782958984375	383.50000108281500388329732231795787811279296875	0.0	10845.415840546300387359224259853363037109375	0.0	1	1	1	1
3781	S6	2019	6	7	13	472.60471428765100654345587827265262603759765625	46.87505780135590072177365073002874851226806640625	426.79729224310898416661075316369533538818359375	17.38000016742279996151410159654915332794189453125	67.17388879987919381164829246699810028076171875	1.20833333043588009303448416176252067089080810546875	502.33332812786102294921875	0.0	13284.37137603749943082220852375030517578125	0.0	1	1	1	1
3782	S6	2019	6	7	14	322.98830155266597330410149879753589630126953125	1.1876247061623399492447106240433640778064727783203125	320.59028951856799949382548220455646514892578125	17.693888759612999450610004714690148830413818359375	63.9277779473197966808584169484674930572509765625	0.8105555571615690180209412574185989797115325927734375	310.49999967217399898800067603588104248046875	0.0	8930.93411127727085840888321399688720703125	0.0	1	1	1	1
3783	S6	2019	6	7	15	398.27088021172397702684975229203701019287109375	17.466165621578600308794193551875650882720947265625	382.71224009195901771818171255290508270263671875	18.57222232818600105019868351519107818603515625	64.7955553054809030300020822323858737945556640625	0.86138889085915304466567476993077434599399566650390625	397.83333490292301348745240829885005950927734375	0.0	10896.569470564500079490244388580322265625	0.0	1	1	1	1
3784	S6	2019	6	7	16	285.58410589044700600425130687654018402099609375	0.974257236445378982381271271151490509510040283203125	283.7985019568239977161283604800701141357421875	18.74060605367019860523214447312057018280029296875	64.220302651145203753912937827408313751220703125	0.73363636479233196308058495560544542968273162841796875	259.916669378678989232867024838924407958984375	0.0	7380.193720261269845650531351566314697265625	0.0	1	1	1	1
3785	S6	2019	6	7	17	152.59770876566500419357907958328723907470703125	0.457626235422988025813850754275335930287837982177734375	152.013578711614997018841677345335483551025390625	17.795555665757898822221250156871974468231201171875	72.852222018771698230921174399554729461669921875	1.2597222223049999723087921665864996612071990966796875	136.166665082175995848956517875194549560546875	0.0	4013.177494208010102738626301288604736328125	0.0	1	1	1	1
3786	S6	2019	6	7	18	122.78243842654700301864068023860454559326171875	0.5339691723696879943616977470810525119304656982421875	122.4374858856200063428332214243710041046142578125	17.35722245110400052681143279187381267547607421875	76.7838885413274994107268867082893848419189453125	1.54805555078718004580196065944619476795196533203125	110.7499990612270011069995234720408916473388671875	0.0	3198.3192761739001070964150130748748779296875	0.0	1	1	1	1
3787	S6	2019	6	7	19	115.9402608207339966384097351692616939544677734375	46.90313517801399711970589123666286468505859375	102.1180872797630030390791944228112697601318359375	17.091086528427400281771042500622570514678955078125	76.9685237746383990042886580340564250946044921875	1.436768801265440043124499425175599753856658935546875	103.583333703378002610406838357448577880859375	0.0	2775.84144224722012950223870575428009033203125	0.0	1	1	1	1
3788	S6	2019	6	7	20	49.04188438575020114740254939533770084381103515625	9.1317498914456098901837322046048939228057861328125	49.55042159183509653530563809908926486968994140625	16.09860635551419960620478377677500247955322265625	83.898257557938705986089189536869525909423828125	1.027874565913700077857129144831560552120208740234375	36.0833335046964975845185108482837677001953125	0.0	1144.515534241990053487825207412242889404296875	0.0	1	1	1	1
3789	S6	2019	6	7	21	13.9517549650511991643497822224162518978118896484375	6.67907322656335988853015805943869054317474365234375	14.1817431676126002315641017048619687557220458984375	15.127007359135699715579903568141162395477294921875	87.4459856130780934790891478769481182098388671875	1.0401459880118799627979342403705231845378875732421875	5.7500000984873498310889772255904972553253173828125	0.0	262.28284024788598571831244044005870819091796875	0.0	1	1	1	1
3790	S6	2019	6	7	22	0	0	0	0	0	0	0	0.0	1.0668333464612500538493122803629375994205474853515625	0.0	1	1	1	0
3791	S6	2019	6	7	23	0	0	0	0	0	0	0	0.0	0	0.0	1	1	1	0
3792	S6	2019	6	7	24	0	0	0	0	0	0	0	0.0	0	0.0	1	1	1	0
3793	S6	2019	6	8	1	0	0	0	0	0	0	0	0.0	0	0.0	1	1	1	0
3794	S6	2019	6	8	2	0	0	0	0	0	0	0	0.0	0	0.0	1	1	1	0
3795	S6	2019	6	8	3	0	0	0	0	0	0	0	0.0	0	0.0	1	1	1	0
3796	S6	2019	6	8	4	6.83870505816058038561777721042744815349578857421875	0.4201144617246950208055977782350964844226837158203125	6.96124045001833025025916867889463901519775390625	14.849999904632500857815102790482342243194580078125	91.8578948974608948674358543939888477325439453125	1.84144736434283995407668044208548963069915771484375	2.666666686612459979954792288481257855892181396484375	0.0	82.541357958689303586652386002242565155029296875	0.0	1	1	1	0
3797	S6	2019	6	8	5	14.265258831176300446941240807063877582550048828125	0.285452648852698998016563791679800488054752349853515625	14.4215493331267001764217638992704451084136962890625	14.95042723196520029205203172750771045684814453125	93.23390321650049372692592442035675048828125	1.30683760391679992807212329353205859661102294921875	12.0000000849054995200049233972094953060150146484375	0.0	373.4391943241170110923121683299541473388671875	0.0	1	1	1	1
3798	S6	2019	6	8	6	16.04322024565470172774439561180770397186279296875	0.31610064985660402125944301587878726422786712646484375	16.253081108973500334968775860033929347991943359375	15.025846102787799196676132851280272006988525390625	94.501538954514700208164867945015430450439453125	1.6172307625183599544271828563068993389606475830078125	12.833333224989399212745411205105483531951904296875	0.0	382.53101349497802630139631219208240509033203125	0.0	1	1	1	1
3799	S6	2019	6	8	7	40.428001605139797902666032314300537109375	0.365196424929632001976642641238868236541748046875	40.41210504107999668121919967234134674072265625	15.13833347956330044326023198664188385009765625	95.8216673109265997254624380730092525482177734375	1.6016666628420299645085833617486059665679931640625	36.74999997019769892858676030300557613372802734375	0.0	1116.41345297295993077568709850311279296875	0.0	1	1	1	1
3800	S6	2019	6	8	8	34.72499016125990323189398623071610927581787109375	0.33109761029481798999540842487476766109466552734375	34.72280543380310291468049399554729461669921875	15.2155555778078994677571245119906961917877197265625	96.14777840508349981973879039287567138671875	2.00444444186156989218261514906771481037139892578125	30.833333109815999506508887861855328083038330078125	0.0	945.0908911724919789776322431862354278564453125	0.0	1	1	1	1
3801	S6	2019	6	8	9	152.602884621089998518073116429150104522705078125	1.6374769974292899821222135869902558624744415283203125	151.47536313798599394431221298873424530029296875	15.4555556138355996154132299125194549560546875	94.4900002797443931967791286297142505645751953125	2.111944440421130053664455772377550601959228515625	145.833333488553989809588529169559478759765625	0.0	4338.6181655029604371520690619945526123046875	0.0	1	1	1	1
3802	S6	2019	6	8	10	377.01754860444498262950219213962554931640625	25.383982046591899717213891563005745410919189453125	355.3603545969180004249210469424724578857421875	17.05539778145870144498985609970986843109130859375	84.562499739906996865101973526179790496826171875	2.485795453868119953000359600991941988468170166015625	373.5833366711930239034700207412242889404296875	0.0	10558.420737584399830666370689868927001953125	0.0	1	1	1	1
3803	S6	2019	6	8	11	519.65032168958305192063562572002410888671875	164.4829744583749970843200571835041046142578125	383.19395180425698299586656503379344940185546875	17.950591674217800886026452644728124141693115234375	73.2928995888614025489005143754184246063232421875	2.97662721794737006320019645499996840953826904296875	559.83333041270498142694123089313507080078125	0.0	14553.6431471506002708338201045989990234375	0.0	1	1	1	1
3804	S6	2019	6	8	12	472.0841544277690218223142437636852264404296875	114.461922189038006081318599171936511993408203125	375.19301972906197306656395085155963897705078125	18.8843375343873987048937124200165271759033203125	63.47650617576500309269249555654823780059814453125	2.59066264600637996551313335658051073551177978515625	466.0833266874150240255403332412242889404296875	0.0	12038.832426071099689579568803310394287109375	0.0	1	1	1	1
3805	S6	2019	6	8	13	634.0768463134760395405464805662631988525390625	216.746631227362996696683694608509540557861328125	446.5795958995810224223532713949680328369140625	19.16312493085860069186310283839702606201171875	59.70562512874600002987790503539144992828369140625	3.575937503948800166853061455185525119304656982421875	682.000001271569999516941606998443603515625	0.0	16445.34959395719852182082831859588623046875	0.0	1	1	1	1
3806	S6	2019	6	8	14	564.7765882766210552290431223809719085693359375	230.7359316803809861085028387606143951416015625	376.881049153271987961488775908946990966796875	19.41253826596319953523561707697808742523193359375	54.699999981334798349053016863763332366943359375	4.05626911344149032601080762105993926525115966796875	586.333326995372999590472318232059478759765625	0.0	14712.48732010519961477257311344146728515625	0.0	1	1	1	1
3807	S6	2019	6	8	15	567.83916194943594746291637420654296875	446.38282348222202244869549758732318878173828125	235.47620737117500766544253565371036529541015625	18.66861310666489970344628090970218181610107421875	59.30364976312120006696204654872417449951171875	3.94452553487171986290604763780720531940460205078125	538.4999954452140400462667457759380340576171875	0.0	14057.913745443000152590684592723846435546875	0.0	1	1	1	1
3808	S6	2019	6	8	16	236.483904262046991107126814313232898712158203125	32.09451392722849760730241541750729084014892578125	214.014442637814994441214366815984249114990234375	17.37288107036869888588626054115593433380126953125	61.48163847195900189035455696284770965576171875	3.782203390941779819200974088744260370731353759765625	220.666661858558001085839350707828998565673828125	0.0	6311.60024801887993817217648029327392578125	0.0	1	1	1	1
3809	S6	2019	6	8	17	174.0905428356589936811360530555248260498046875	21.268823820807799762633294449187815189361572265625	161.906204255420988147307070903480052947998046875	17.1138888147142012030599289573729038238525390625	59.4844442791408027915167622268199920654296875	3.7263888895511598775556194595992565155029296875	163.333334339162007609047577716410160064697265625	0.0	4612.152179082229849882423877716064453125	0.0	1	1	1	1
3810	S6	2019	6	8	18	69.0205146471658963491790927946567535400390625	1.139320442618589890315661250497214496135711669921875	68.661427614423899967732722871005535125732421875	16.64666667514369891023306990973651409149169921875	61.39944428337940252049520495347678661346435546875	3.15916666901773002251729849376715719699859619140625	63.83333417276539734075413434766232967376708984375	0.0	1878.60933194556992020807228982448577880859375	0.0	1	1	1	1
3811	S6	2019	6	8	19	117.6919934166800061348112649284303188323974609375	47.4419050506833031022324576042592525482177734375	105.6170456144539997467290959320962429046630859375	16.833333312140499771203394629992544651031494140625	62.46611128913030341891499119810760021209716796875	2.12305555418133007350434127147309482097625732421875	100.9166669100510063117326353676617145538330078125	0.0	2684.29846440750998226576484739780426025390625	0.0	1	1	1	1
3812	S6	2019	6	8	20	17.798721079423298618849003105424344539642333984375	0.300955407006638975264678492749226279556751251220703125	17.81386223846750027632879209704697132110595703125	16.7264788560463983912995900027453899383544921875	63.55014038085929684029906638897955417633056640625	2.143943658848880051692731285584159195423126220703125	15.00000012068390020658625871874392032623291015625	0.0	439.3636996004109960267669521272182464599609375	0.0	1	1	1	1
3813	S6	2019	6	8	21	6.12611866990724962533931829966604709625244140625	0.1402562461832219942170496551625546999275684356689453125	6.15261664986609968508446399937383830547332763671875	15.84166685740149915773145039565861225128173828125	70.6875	1.1375000129143300053868870236328803002834320068359375	0.83333336321327500240130348174716345965862274169921875	0.0	93.0509665437661936948643415234982967376708984375	0.0	1	1	1	1
3814	S6	2019	6	8	22	0	0	0	0	0	0	0	0.0	0.89326663874089995420746390664135105907917022705078125	0.0	1	1	1	0
3815	S6	2019	6	8	23	0	0	0	0	0	0	0	0.0	0	0.0	1	1	1	0
3816	S6	2019	6	8	24	0	0	0	0	0	0	0	0.0	0	0.0	1	1	1	0
3817	S6	2019	6	9	1	0	0	0	0	0	0	0	0.0	0	0.0	1	1	1	0
3818	S6	2019	6	9	2	0	0	0	0	0	0	0	0.0	0	0.0	1	1	1	0
3819	S6	2019	6	9	3	0	0	0	0	0	0	0	0.0	0	0.0	1	1	1	0
3820	S6	2019	6	9	4	14.2816086846427996448483099811710417270660400390625	0.65728132708652597937515338344383053481578826904296875	14.8633142290888002889914787374436855316162109375	13.66756745931260041970745078288018703460693359375	77.567566948967993312180624343454837799072265625	2.567567564345690112048714581760577857494354248046875	2.583333378424849779975147612276487052440643310546875	0.0	105.1245655398810043834600946865975856781005859375	0.0	1	1	1	0
3821	S6	2019	6	9	5	46.57596259089240220419014804065227508544921875	95.329143857223897384756128303706645965576171875	33.53332682380889906426091329194605350494384765625	14.2646197938081993328296448453329503536224365234375	73.8807018570035012317021028138697147369384765625	2.806140352759439959839937728247605264186859130859375	24.583333482344901455007857293821871280670166015625	0.0	881.385376056035966030322015285491943359375	0.0	1	1	1	1
3822	S6	2019	6	9	6	204.982561095510988025125698186457157135009765625	477.1064621226699955514050088822841644287109375	95.4006782786758975589691544882953166961669921875	15.336768811791699818058987148106098175048828125	71.255153390358401566118118353188037872314453125	3.16768801743604999643366681993938982486724853515625	72.66666709134989332596887834370136260986328125	0.0	2812.68262118100983570911921560764312744140625	0.0	1	1	1	1
3823	S6	2019	6	9	7	283.12643080311801213611033745110034942626953125	308.51937002399199627689085900783538818359375	169.57266844303200059584924019873142242431640625	15.8067277797500000957597876549698412418365478515625	71.1024465765062956279507488943636417388916015625	3.565749232193009987668119720183312892913818359375	203.166666751106987476305221207439899444580078125	0.0	5799.1210172573601084877736866474151611328125	0.0	1	1	1	1
3824	S6	2019	6	9	8	285.8062971428249738892191089689731597900390625	119.3617105405269995799244497902691364288330078125	225.344511618543009490167605690658092498779296875	15.9176119391597001850868764449842274188995361328125	69.97223868298880233851377852261066436767578125	3.378507453736970145286022670916281640529632568359375	256.1666692296649898707983084022998809814453125	0.0	7314.20812010763984289951622486114501953125	0.0	1	1	1	1
3825	S6	2019	6	9	9	207.462492591747007963931537233293056488037109375	29.701061428111501072635292075574398040771484375	187.896890966443010029252036474645137786865234375	15.9072463436403008785191559582017362117767333984375	69.4660864788553027437956188805401325225830078125	2.876811588587960155649625448859296739101409912109375	208.916664744418000054793083108961582183837890625	0.0	5703.749701380709666409529745578765869140625	0.0	1	1	1	1
3826	S6	2019	6	9	10	502.1431918566739796006004326045513153076171875	338.36121185081401563365943729877471923828125	255.913994849482008930863230489194393157958984375	16.752215083641299742112096282653510570526123046875	66.2939872983134961259565898217260837554931640625	3.00632910619053017597934740479104220867156982421875	492.2499967118100130392122082412242889404296875	0.0	13403.015265862099113292060792446136474609375	0.0	1	1	1	1
3827	S6	2019	6	9	11	356.90862112259901550714857876300811767578125	184.92216379284900540369562804698944091796875	211.494955032201005451497621834278106689453125	16.82057875605639907234944985248148441314697265625	65.1974278048302977595085394568741321563720703125	3.0327974257936798352375262766145169734954833984375	327.83333584666098658999544568359851837158203125	0.0	8947.871992985399629105813801288604736328125	0.0	1	1	1	1
3828	S6	2019	6	9	12	553.277591103000986549886874854564666748046875	297.92608901123702480617794208228588104248046875	304.10032246907502440080861561000347137451171875	17.29508766709709988163012894801795482635498046875	62.9287723206636968598104431293904781341552734375	2.924210520376230082462143400334753096103668212890625	560.1666594545049520093016326427459716796875	0.0	13692.11503863329926389269530773162841796875	0.0	1	1	1	1
3829	S6	2019	6	9	13	426.76553293553700996199040673673152923583984375	256.5230176270760011902893893420696258544921875	211.520786378440988073634798638522624969482421875	17.424085320495901640924785169772803783416748046875	60.7237803412646002243491238914430141448974609375	2.59024389424337986298496616655029356479644775390625	494.7499968111479802246321924030780792236328125	0.0	12535.74616710339978453703224658966064453125	0.0	1	1	1	1
3830	S6	2019	6	9	14	656.92616909365096944384276866912841796875	463.5851076286350007649161852896213531494140625	279.77249599408497715558041818439960479736328125	18.36075930052160032346364459954202175140380859375	56.40284801434859929258891497738659381866455078125	2.684810121885579992095927082118578255176544189453125	762.249990055958960510906763374805450439453125	0.0	17959.78067318600005819462239742279052734375	0.0	1	1	1	1
3831	S6	2019	6	9	15	305.81916937717102200622321106493473052978515625	40.377053083115498566257883794605731964111328125	272.81219602185598205323913134634494781494140625	18.073546592579301517389467335306107997894287109375	57.45813978550039990977893467061221599578857421875	2.258139537344140190811003776616416871547698974609375	291.91666468977899739911663345992565155029296875	0.0	8099.236816167829601909033954143524169921875	0.0	1	1	1	1
3832	S6	2019	6	9	16	349.51112520971901176380924880504608154296875	61.2171508403450985724703059531748294830322265625	307.31564535096600820907042361795902252197265625	18.52906980070950027084109024144709110260009765625	56.1145349879597006292897276580333709716796875	1.96017441586699003863714096951298415660858154296875	349.74999849994901524041779339313507080078125	0.0	9401.04128917056004866026341915130615234375	0.0	1	1	1	1
3833	S6	2019	6	9	17	463.48270530921098497856291942298412322998046875	512.0561309577409474513842724263668060302734375	195.257141818890005424691480584442615509033203125	19.23121379565640154396533034741878509521484375	52.83121389047249749637558124959468841552734375	1.877167624372960030854073920636437833309173583984375	485.58333391944501045145443640649318695068359375	0.0	12183.86639157930039800703525543212890625	0.0	1	1	1	1
3834	S6	2019	6	9	18	396.00959825112698808879940770566463470458984375	674.3685661933790242983377538621425628662109375	118.116363396443006195113412104547023773193359375	19.3752111891624991812932421453297138214111328125	53.7430983529963981482069357298314571380615234375	1.6016901394850699968941398765309713780879974365234375	381.4166660110159909891081042587757110595703125	0.0	9474.96732076008993317373096942901611328125	0.0	1	1	1	1
3835	S6	2019	6	9	19	236.448047510782004110296838916838169097900390625	389.7821648915600007967441342771053314208984375	120.8131277296269985299659310840070247650146484375	19.18611119588209845687742927111685276031494140625	52.54222202301019706283113919198513031005859375	1.2786111083295599311071555348462425172328948974609375	190.58333275218700464392895810306072235107421875	0.0	4745.8178351322903836262412369251251220703125	0.0	1	1	1	1
3836	S6	2019	6	9	20	68.5899048064080005815412732772529125213623046875	15.368006235668200787358728121034801006317138671875	67.6652433560087018804551917128264904022216796875	17.779108685039201276367748505435883998870849609375	57.8688023814250982468365691602230072021484375	0.78133705001023401326420980694820173084735870361328125	52.58333372573090258583761169575154781341552734375	0.0	1551.864068955180073317023925483226776123046875	0.0	1	1	1	1
3837	S6	2019	6	9	21	23.5921790854875013110358850099146366119384765625	0.2142239290787729955045648466693819500505924224853515625	24.128016205721099396441786666400730609893798828125	16.731162776503399669536520377732813358306884765625	62.4986043885696034294596756808459758758544921875	0.450697677218636016949204758930136449635028839111328125	9.8333335190545998472089195274747908115386962890625	0.0	353.650024626407002870109863579273223876953125	0.0	1	1	1	1
3838	S6	2019	6	9	22	0	0	0	0	0	0	0	0.0	1.5791249461472300907871613162569701671600341796875	0.0	1	1	1	0
3839	S6	2019	6	9	23	0	0	0	0	0	0	0	0.0	0	0.0	1	1	1	0
3840	S6	2019	6	9	24	0	0	0	0	0	0	0	0.0	0	0.0	1	1	1	0
3841	S6	2019	6	10	1	0	0	0	0	0	0	0	0.0	0	0.0	1	1	1	0
3842	S6	2019	6	10	2	0	0	0	0	0	0	0	0.0	0	0.0	1	1	1	0
3843	S6	2019	6	10	3	0	0	0	0	0	0	0	0.0	0	0.0	1	1	1	0
3844	S6	2019	6	10	4	9.337478495877359563337449799291789531707763671875	0.271506342394597977030201718662283383309841156005859375	9.4976162581608196688875977997668087482452392578125	12.2939653725458999389275049907155334949493408203125	88.214656237898196877722511999309062957763671875	0.856034484916718962921322599868290126323699951171875	2.5833333687235597864173541893251240253448486328125	0.0	87.7854001009836935054408968426287174224853515625	0.0	1	1	1	1
3845	S6	2019	6	10	5	25.4620371315213986918024602346122264862060546875	0.34870945645703199655685011748573742806911468505859375	25.80135326385489946687812334857881069183349609375	12.534999963972300207615262479521334171295166015625	89.181110975477395186317153275012969970703125	0.9561111148860710340358082248712889850139617919921875	19.91666690446449905493864207528531551361083984375	0.0	609.0007734795400438088108785450458526611328125	0.0	1	1	1	1
3846	S6	2019	6	10	6	27.401101578606500197565765120089054107666015625	0.40069603928261299241597725995234213769435882568359375	27.594794040256001466104862629435956478118896484375	13.019444428549800107930423109792172908782958984375	88.5972224765352933673057123087346553802490234375	1.2474999994039499551234939644928090274333953857421875	24.416666633138998321328472229652106761932373046875	0.0	755.4125643024790406343527138233184814453125	0.0	1	1	1	1
3847	S6	2019	6	10	7	56.91566816435919662353626335971057415008544921875	0.456085058053333991523459189920686185359954833984375	57.0397299607594021608747425489127635955810546875	13.73555544747240020342360367067158222198486328125	85.1827777014838005698038614355027675628662109375	0.92472222422560002019764624492381699383258819580078125	51.0000002880891969425647403113543987274169921875	0.0	1566.94333751996009596041403710842132568359375	0.0	1	1	1	1
3848	S6	2019	6	10	8	197.69399070739700619014911353588104248046875	13.812605815960299793232479714788496494293212890625	190.2888101153899924611323513090610504150390625	14.9133333418104001566462102346122264862060546875	82.1133331298828039734871708787977695465087890625	0.97472222356332605119888512490433640778064727783203125	183.166665645935012207701220177114009857177734375	0.0	5410.1104935010298504494130611419677734375	0.0	1	1	1	1
3849	S6	2019	6	10	9	255.406327650282008789872634224593639373779296875	2.944958719776729960670991204096935689449310302734375	253.0574256473109926446340978145599365234375	16.4733333852556000920230871997773647308349609375	71.5911107805039961249349289573729038238525390625	1.259722222801709978767803477239795029163360595703125	233.416669070719990486395545303821563720703125	0.0	6819.5409576098099933005869388580322265625	0.0	1	1	1	1
3850	S6	2019	6	10	10	313.6206988066350049848551861941814422607421875	1.801576778085109964422372286207973957061767578125	310.7646672665899814091972075402736663818359375	17.58495805256870170296679134480655193328857421875	60.4161558655975028386819758452475070953369140625	1.7844011144385600875494901629281230270862579345703125	286.91666945815001099617802537977695465087890625	0.0	8281.964232524240287602879106998443603515625	0.0	1	1	1	1
3851	S6	2019	6	10	11	305.98166931999998041646904312074184417724609375	1.4319170827666900525088067297474481165409088134765625	302.6892857869460158326546661555767059326171875	18.026111210717001398506909026764333248138427734375	57.51611114078090025714118382893502712249755859375	2.023055555919799797237601524102501571178436279296875	273.416664451360020393622107803821563720703125	0.0	8001.1635323365799195016734302043914794921875	0.0	1	1	1	1
3852	S6	2019	6	10	12	353.24932976087802671827375888824462890625	4.7150030356927796759691773331724107265472412109375	344.8247037584729923764825798571109771728515625	18.292479129886800137683167122304439544677734375	57.94568217498009943255965481512248516082763671875	2.268523669259459918379207010730169713497161865234375	338.8333370288199830611119978129863739013671875	0.0	9771.046161651609509135596454143524169921875	0.0	1	1	1	1
3853	S6	2019	6	10	13	644.2974739287809597954037599265575408935546875	287.80605691987699401579448021948337554931640625	399.497853625420020762248896062374114990234375	19.34078202700479920395082444883882999420166015625	55.20167596912909857564955018460750579833984375	2.751117318036170100725712472922168672084808349609375	700.2499972780580037579056806862354278564453125	0.0	18121.6702858606004156172275543212890625	0.0	1	1	1	1
3854	S6	2019	6	10	14	421.74165123833500956607167609035968780517578125	14.651002700792400190721309627406299114227294921875	403.78402693006700019395793788135051727294921875	19.3394444253708996939167263917624950408935546875	56.19777781168620123253276688046753406524658203125	2.62444444464312010012463360908441245555877685546875	405.75000271200997303822077810764312744140625	0.0	11341.60792827600016607902944087982177734375	0.0	1	1	1	1
3855	S6	2019	6	10	15	304.63186497158397969542420469224452972412109375	2.012525341038899906465076128370128571987152099609375	301.88950860765197603541309945285320281982421875	18.38777777353919873348786495625972747802734375	60.7561112085978010100006940774619579315185546875	3.049166665143430154927273179055191576480865478515625	283.25000281135299928791937418282032012939453125	0.0	8132.33638803165013086982071399688720703125	0.0	1	1	1	1
3856	S6	2019	6	10	16	342.49251242743599732420989312231540679931640625	19.290873236788598887869738973677158355712890625	326.1605599721269754809327423572540283203125	17.87222240236069836782917263917624950408935546875	63.988889079623703537436085753142833709716796875	3.36722221010260991391760398983024060726165771484375	340.9999981522549887813511304557323455810546875	0.0	9242.75912841162062250077724456787109375	0.0	1	1	1	1
3857	S6	2019	6	10	17	227.241750123765001490028225816786289215087890625	2.812986781655080203989882647874765098094940185546875	224.994249089557996512667159549891948699951171875	17.93388916651399966895041870884597301483154296875	62.5127779430813035332903382368385791778564453125	3.092777776883699925036808053846471011638641357421875	207.499998932082007740973494946956634521484375	0.0	5883.5101823012000750168226659297943115234375	0.0	1	1	1	1
3858	S6	2019	6	10	18	211.91971350775799010079936124384403228759765625	59.875867499411100425277254544198513031005859375	190.56352386474600280052982270717620849609375	17.464444308810701755874106311239302158355712890625	65.57166663275819473710726015269756317138671875	2.486111104653939918307514744810760021209716796875	194.333333522082995159507845528423786163330078125	0.0	5320.8997944990796895581297576427459716796875	0.0	1	1	1	1
3859	S6	2019	6	10	19	252.6030674828419932964607141911983489990234375	422.04035459094501447907532565295696258544921875	141.051751115586995410922099836170673370361328125	17.6738889694212986114507657475769519805908203125	65.948888927035795859410427510738372802734375	2.4049999952316198914559208787977695465087890625	193.25000047683698767286841757595539093017578125	0.0	4766.12314085167963639833033084869384765625	0.0	1	1	1	1
3860	S6	2019	6	10	20	62.44946970852929979400869342498481273651123046875	34.7981368935650010598692460916936397552490234375	57.45376450972120352389538311399519443511962890625	16.90690897161309891316705034114420413970947265625	69.3116366022283045822405256330966949462890625	2.11199999354102008197742179618217051029205322265625	45.74999973798789909551487653516232967376708984375	0.0	1415.4929462820300614112056791782379150390625	0.0	1	1	1	1
3861	S6	2019	6	10	21	10.7620399350168991503551296773366630077362060546875	0.30931357593993802357346112330560572445392608642578125	10.897728597985800291780833504162728786468505859375	16.62619961671720147933228872716426849365234375	70.5715864962756995737436227500438690185546875	1.6073800745485400387480012796004302799701690673828125	5.91666667605746976477121279458515346050262451171875	0.0	185.3701433865350054475129581987857818603515625	0.0	1	1	1	1
3862	S6	2019	6	10	22	0	0	0	0	0	0	0	0.0	0	0.0	1	1	1	0
3863	S6	2019	6	10	23	0	0	0	0	0	0	0	0.0	0	0.0	1	1	1	0
3864	S6	2019	6	10	24	0	0	0	0	0	0	0	0.0	0	0.0	1	1	1	0
3865	S6	2019	6	11	1	0	0	0	0	0	0	0	0.0	0	0.0	1	1	1	0
3866	S6	2019	6	11	2	0	0	0	0	0	0	0	0.0	0	0.0	1	1	1	0
3867	S6	2019	6	11	3	0	0	0	0	0	0	0	0.0	0	0.0	1	1	1	0
3868	S6	2019	6	11	4	7.01365326607928007973669082275591790676116943359375	0.32122553008444099109652825063676573336124420166015625	7.220097546630039886395024950616061687469482421875	15.0573531599605008324260779772885143756866455078125	81.789706174065003096984582953155040740966796875	1.3455882335410300765232705089147202670574188232421875	1.3333333481568800937822061314363963901996612548828125	0.0	51.0557920982439981116840499453246593475341796875	0.0	1	1	1	1
3869	S6	2019	6	11	5	11.854148128297499198424702626653015613555908203125	0.364656389173533990177844543723040260374546051025390625	12.00641323460470033523961319588124752044677734375	15.4808333343928996583827029098756611347198486328125	81.2449996312459035152642172761261463165283203125	2.35499999763236989025472212233580648899078369140625	10.33333339728410038560468819923698902130126953125	0.0	302.8494811927270120577304624021053314208984375	0.0	1	1	1	1
3870	S6	2019	6	11	6	28.64165641466770040324263391084969043731689453125	0.363431936626632978715178978745825588703155517578125	28.73063921928400077376863919198513031005859375	15.66833340326940060549532063305377960205078125	82.6641671074761035242772777564823627471923828125	2.09027777032718997674010097398422658443450927734375	25.999999915560000118830430437810719013214111328125	0.0	744.6802854537939992951578460633754730224609375	0.0	1	1	1	1
3871	S6	2019	6	11	7	115.0637026045049964295685640536248683929443359375	3.49395730768639989349821917130611836910247802734375	114.16679941813100640501943416893482208251953125	16.0527779340743990132978069595992565155029296875	83.35916659037269482723786495625972747802734375	2.88722222050030996598479759995825588703155517578125	101.7499988277750020415624021552503108978271484375	0.0	2882.0824027061398737714625895023345947265625	0.0	1	1	1	1
3872	S6	2019	6	11	8	100.178731044876002442833851091563701629638671875	0.332451613783121990852720273323939181864261627197265625	100.21210959841499743561143986880779266357421875	15.730841075148500607383539318107068538665771484375	87.1566977337513009160829824395477771759033203125	1.817445479263759988697302105720154941082000732421875	83.7499999130769055000200751237571239471435546875	0.0	2538.696554799869772978127002716064453125	0.0	1	1	1	1
3873	S6	2019	6	11	9	330.978762844549009969341568648815155029296875	38.60639562698779769789325655438005924224853515625	304.03115416846497964797890745103359222412109375	15.91691394658749914015061222016811370849609375	90.489021165434593285681330598890781402587890625	2.291988132438600000995165828499011695384979248046875	346.99999665220599354142905212938785552978515625	0.0	10079.6089470385995809920132160186767578125	0.0	1	1	1	1
3874	S6	2019	6	11	10	504.04807150575499008482438512146472930908203125	90.5016274004292000654459116049110889434814453125	435.5781429674490254910779185593128204345703125	18.01331355303700121339716133661568164825439453125	82.780473697820298184524290263652801513671875	2.562426027020749952356482026516459882259368896484375	497.33334034681200819250079803168773651123046875	0.0	13906.655132770500131300650537014007568359375	0.0	1	1	1	1
3875	S6	2019	6	11	11	732.060668348877015887410379946231842041015625	467.96697785799898383629624731838703155517578125	356.94907868723902311103302054107189178466796875	19.671986912283099258047514013014733791351318359375	78.597068513255095467684441246092319488525390625	2.82508143054544991201737502706237137317657470703125	685.24999916553497314453125	0.0	17914.4447843232992454431951045989990234375	0.0	1	1	1	1
3876	S6	2019	6	11	12	717.699451493627975651179440319538116455078125	371.137242734431993085308931767940521240234375	404.797326735508022466092370450496673583984375	21.059567792915999007163918577134609222412109375	75.6401237205221974591040634550154209136962890625	3.0549382709058701124149592942558228969573974609375	829.5833319425579475137055851519107818603515625	0.0	20518.1341767310004797764122486114501953125	0.0	1	1	1	1
3877	S6	2019	6	11	13	801.148163564105971090612001717090606689453125	627.14237465960695772082544863224029541015625	271.64886948625002105472958646714687347412109375	22.517751383358199035455982084386050701141357421875	73.0742604859481019730083062313497066497802734375	3.491715985025169999289573752321302890777587890625	888.8333290815349982949555851519107818603515625	0.0	21928.425749142901622690260410308837890625	0.0	1	1	1	1
3878	S6	2019	6	11	14	712.5068906437260238817543722689151763916015625	499.8135526996439921276760287582874298095703125	301.9047490900210277686710469424724578857421875	22.887783977118399292294270708225667476654052734375	73.056818290190193465605261735618114471435546875	3.54005681384693016156006706296466290950775146484375	813.6666690309820069160195998847484588623046875	0.0	20284.857988357500289566814899444580078125	0.0	1	1	1	1
3879	S6	2019	6	11	15	510.3191162477049829249153845012187957763671875	158.671360880853995922734611667692661285400390625	389.6540820569870220424490980803966522216796875	23.228614307311598707883604220114648342132568359375	73.0442769613610067835907102562487125396728515625	3.445783133607310144697066789376549422740936279296875	539.8333321015039700796478427946567535400390625	0.0	14090.398629506400538957677781581878662109375	0.0	1	1	1	1
3880	S6	2019	6	11	16	268.0904025492690152532304637134075164794921875	12.7533150652191000773427731473930180072784423828125	257.6155284730720040897722356021404266357421875	22.41045198063390131437699892558157444000244140625	75.6895477165609946723634493537247180938720703125	2.997740114476040051982863587909378111362457275390625	249.83333237469099685768014751374721527099609375	0.0	6947.106972336760009056888520717620849609375	0.0	1	1	1	1
3881	S6	2019	6	11	17	69.095274186061800492097972892224788665771484375	0.3813878900844229757893799614976160228252410888671875	68.8907016186004028668321552686393260955810546875	19.687538170162298456489224918186664581298828125	82.80729466586120679494342766702175140380859375	2.573252277443109914401020432705990970134735107421875	60.1666665946441980850067920982837677001953125	0.0	1814.656890928740040180855430662631988525390625	0.0	1	1	1	1
3882	S6	2019	6	11	18	217.462029140970997787007945589721202850341796875	12.9641716365278991673903874470852315425872802734375	212.691476274665006940267630852758884429931640625	20.684679849566098397417590604163706302642822265625	79.745682527759896629504510201513767242431640625	2.98384401492752981965850267442874610424041748046875	203.166667992870003445204929448664188385009765625	0.0	5573.463241259300048113800585269927978515625	0.0	1	1	1	1
3883	S6	2019	6	11	19	143.673710113101009255842654965817928314208984375	166.301911374098011719979695044457912445068359375	103.5836766137010016564090619795024394989013671875	20.931666845745500182829346158541738986968994140625	78.4449997372096987646727939136326313018798828125	2.491388884849010221245180218829773366451263427734375	113.2499997814490058090086677111685276031494140625	0.0	2819.5197184880498753045685589313507080078125	0.0	1	1	1	1
3884	S6	2019	6	11	20	55.4023645887186972913696081377565860748291015625	41.27130136933980253388654091395437717437744140625	50.13635466332519996512928628362715244293212890625	19.589803890153401511042829952202737331390380859375	82.320392025218296794264460913836956024169921875	2.2356862762395000032711323001421988010406494140625	38.000000175088501919162808917462825775146484375	0.0	1207.98274129627998263458721339702606201171875	0.0	1	1	1	1
3885	S6	2019	6	11	21	19.119849817811900294373117503710091114044189453125	1.45173580790600009748914089868776500225067138671875	19.7359390140564983084914274513721466064453125	19.0016530170913000574728357605636119842529296875	83.1384294052754029280549730174243450164794921875	2.167355365989620086253353292704559862613677978515625	8.7500000760579599301536291022785007953643798828125	0.0	300.611126391838979543535970151424407958984375	0.0	1	1	1	1
3886	S6	2019	6	11	22	0	0	0	0	0	0	0	0.0	2.37741662810249021475783592904917895793914794921875	0.0	1	1	1	0
3887	S6	2019	6	11	23	0	0	0	0	0	0	0	0.0	0	0.0	1	1	1	0
3888	S6	2019	6	11	24	0	0	0	0	0	0	0	0.0	0	0.0	1	1	1	0
3889	S6	2019	6	12	1	0	0	0	0	0	0	0	0.0	0	0.0	1	1	1	0
3890	S6	2019	6	12	2	0	0	0	0	0	0	0	0.0	0	0.0	1	1	1	0
3891	S6	2019	6	12	3	0	0	0	0	0	0	0	0.0	0	0.0	1	1	1	0
3892	S6	2019	6	12	4	0.35261814303409499959940376356826163828372955322265625	0.230564256306164006016246048602624796330928802490234375	0.2109714138182769982421405075001530349254608154296875	16.266345904423598511812087963335216045379638671875	92.699998782231205041171051561832427978515625	2.13173077255486997927391712437383830547332763671875	0	0.0	0	0.0	1	1	1	1
3893	S6	2019	6	12	5	2.718922659412749798235608977847732603549957275390625	0.270973987315521025465159254963509738445281982421875	2.686203640839840200982280293828807771205902099609375	15.771147471568600195723774959333240985870361328125	95.8573773243387989850816666148602962493896484375	1.401639345141699966035275792819447815418243408203125	1.500000022739790050962938039447180926799774169921875	0.0	45.48233320626110298690036870539188385009765625	0.0	1	1	1	1
3894	S6	2019	6	12	6	46.660982584953302421126863919198513031005859375	0.41893393206927498351177518998156301677227020263671875	46.78753367662429951678859652020037174224853515625	15.7450000762939001930362792336381971836090087890625	96.86333315107549424283206462860107421875	2.32416666299103980009022052399814128875732421875	43.83333345564690119999795570038259029388427734375	0.0	1209.552996791890109307132661342620849609375	0.0	1	1	1	1
3895	S6	2019	6	12	7	98.0178075684440983650347334332764148712158203125	1.313180498944380047987579018808901309967041015625	97.958751265207894221020978875458240509033203125	16.353055779139200609506588079966604709625244140625	95.17750032212990163316135294735431671142578125	1.8713888849649100709626736716018058359622955322265625	88.916666805744199564287555404007434844970703125	0.0	2549.64650173980999170453287661075592041015625	0.0	1	1	1	1
3896	S6	2019	6	12	8	254.368959787156001084440504200756549835205078125	65.159449892573803708728519268333911895751953125	219.277646552190986994901322759687900543212890625	17.600277805328300217979631270281970500946044921875	91.166666666666600349344662390649318695068359375	1.7691666627923599008909150143153965473175048828125	241.75000190734800753489253111183643341064453125	0.0	6766.2432640791002995683811604976654052734375	0.0	1	1	1	1
3897	S6	2019	6	12	9	538.57452057745695128687657415866851806640625	246.528506707621005489272647537291049957275390625	381.64862801961299965114449150860309600830078125	19.52351097178679850685512064956128597259521484375	83.0266454571092964442868833430111408233642578125	2.98056426065094992594595169066451489925384521484375	529.4999976952859697121311910450458526611328125	0.0	14533.1501364707000902853906154632568359375	0.0	1	1	1	1
3898	S6	2019	6	12	10	685.519857394913969983463175594806671142578125	543.3533737860569772237795405089855194091796875	289.21720699005999222208629362285137176513671875	21.05460121295200082158771692775189876556396484375	78.0377303281444056892723892815411090850830078125	3.117484664258780124868053462705574929714202880859375	692.8333317240100086564780212938785552978515625	0.0	18256.2225858370002242736518383026123046875	0.0	1	1	1	1
3899	S6	2019	6	12	11	435.21105430400399427526281215250492095947265625	71.096735003775194172703777439892292022705078125	375.09901936848899595133843831717967987060546875	21.445427683602300561460651806555688381195068359375	76.670796397161296908961958251893520355224609375	3.037463118808449991092857089824974536895751953125	447.4999991555999940828769467771053314208984375	0.0	12235.370347897200190345756709575653076171875	0.0	1	1	1	1
3900	S6	2019	6	12	12	466.65173674165498596266843378543853759765625	14.3517757229758000647734661470167338848114013671875	449.2770464607830263048526830971240997314453125	20.963763976364898411475223838351666927337646484375	78.2882025643680066195884137414395809173583984375	3.769101120698980178502779381233267486095428466796875	446.91666712363502256266656331717967987060546875	0.0	12319.94158029550089850090444087982177734375	0.0	1	1	1	1
3901	S6	2019	6	12	13	325.64644198947399900134769268333911895751953125	1.3630410908824799331995336615364067256450653076171875	322.13165351019898707818356342613697052001953125	19.8824999332426983755794935859739780426025390625	80.441111585828906527240178547799587249755859375	2.65777777276105009462980888201855123043060302734375	312.3333342373380219214595854282379150390625	0.0	8876.799017190949598443694412708282470703125	0.0	1	1	1	1
3902	S6	2019	6	12	14	443.8870849181950006823171861469745635986328125	125.1407467218670035435934551060199737548828125	341.55214188947002185159362852573394775390625	19.938095279768401013598122517578303813934326171875	80.3193274532712990776417427696287631988525390625	3.493557424271469979970561325899325311183929443359375	490.583339085181023619952611625194549560546875	0.0	12869.14384365079968119971454143524169921875	0.0	1	1	1	1
3903	S6	2019	6	12	15	634.1962829771490532948519103229045867919921875	317.8395861135350060067139565944671630859375	388.0129297347290275865816511213779449462890625	21.745535759698700672970517189241945743560791015625	75.7696429434275984249325119890272617340087890625	3.06220237875267997651462792418897151947021484375	632.74999707937195125850848853588104248046875	0.0	16354.759295781399487168528139591217041015625	0.0	1	1	1	1
3904	S6	2019	6	12	16	380.250065933573978327331133186817169189453125	72.01750034474849826438003219664096832275390625	332.214854760602975147776305675506591796875	22.136931825767799608684072154574096202850341796875	75.835795120759399878807016648352146148681640625	3.264204538342620143254180220537818968296051025390625	454.9166659514099819716648198664188385009765625	0.0	11683.212478955500046140514314174652099609375	0.0	1	1	1	1
3905	S6	2019	6	12	17	386.3431106522630216204561293125152587890625	232.892976202048004097377997823059558868408203125	261.74869897568299847989692352712154388427734375	22.651613090045199072619652724824845790863037109375	74.293841946509502349726972170174121856689453125	3.004692073529060092340614573913626372814178466796875	425.166664024194005833123810589313507080078125	0.0	10700.797011454900712124072015285491943359375	0.0	1	1	1	1
3906	S6	2019	6	12	18	314.291802952797979742172174155712127685546875	353.9968039617770045879296958446502685546875	171.92762053414600131873157806694507598876953125	22.416572715459199827137126703746616840362548828125	75.086517376846103388743358664214611053466796875	3.169382015473380054260132965282537043094635009765625	292.91666423280997832989669404923915863037109375	0.0	7289.684424797689644037745893001556396484375	0.0	1	1	1	1
3907	S6	2019	6	12	19	149.932833985909013563286862336099147796630859375	170.919293083521012022174545563757419586181640625	98.5297437593256972832023166120052337646484375	21.806145161889698869117637514136731624603271484375	76.991620729755396723703597672283649444580078125	2.4921787693347301484436684404499828815460205078125	120.4999991071710070400513359345495700836181640625	0.0	3018.65712677438978062127716839313507080078125	0.0	1	1	1	1
3908	S6	2019	6	12	20	53.6609922350287007475344580598175525665283203125	1.1407209377773599445760055459686554968357086181640625	54.016710575221196677375701256096363067626953125	19.72240902662939987521895091049373149871826171875	83.089075745654696447672904469072818756103515625	2.0770308052291301947889223811216652393341064453125	42.500000291814302499915356747806072235107421875	0.0	1243.50729150075994766666553914546966552734375	0.0	1	1	1	1
3909	S6	2019	6	12	21	8.8345882037306200373905085143633186817169189453125	0.2372942910022360074595582091205869801342487335205078125	8.910007772406910220297504565678536891937255859375	18.021138276510999531865309108980000019073486328125	87.9154471420660001967917196452617645263671875	1.7199186929842300575188573930063284933567047119140625	3.416666693131749976686251102364622056484222412109375	0.0	124.0667006156109977155210799537599086761474609375	0.0	1	1	1	1
3910	S6	2019	6	12	22	0	0	0	0	0	0	0	0.0	0	0.0	1	1	1	0
3911	S6	2019	6	12	23	0	0	0	0	0	0	0	0.0	0	0.0	1	1	1	0
3912	S6	2019	6	12	24	0	0	0	0	0	0	0	0.0	0	0.0	1	1	1	0
3913	S6	2019	6	13	1	0	0	0	0	0	0	0	0.0	0	0.0	1	1	1	0
3914	S6	2019	6	13	2	0	0	0	0	0	0	0	0.0	0	0.0	1	1	1	0
3915	S6	2019	6	13	3	0	0	0	0	0	0	0	0.0	0	0.0	1	1	1	0
3916	S6	2019	6	13	4	8.5652415752410799854033029987476766109466552734375	0.1792922876775260021542379718084703199565410614013671875	8.95663813182284940239696879871189594268798828125	15.964285509926899209176553995348513126373291015625	92.857142857142804359682486392557621002197265625	0.90000000383172695794797846247092820703983306884765625	1.333333357858160095332777927978895604610443115234375	0.0	41.46037514631940013032362912781536579132080078125	0.0	1	1	1	1
3917	S6	2019	6	13	5	36.99474751407449701900986838154494762420654296875	52.09181879001499737569247372448444366455078125	29.33085223219610071510032867081463336944580078125	15.5423294956032993496819472056813538074493408203125	92.5855114893478940985005465336143970489501953125	0.94431818344376294849240593975991941988468170166015625	20.166666867832301335283773369155824184417724609375	0.0	656.5977366020280214797821827232837677001953125	0.0	1	1	1	1
3918	S6	2019	6	13	6	141.431778028275999758989200927317142486572265625	171.117859421090003024801262654364109039306640625	100.6046077304410033548265346325933933258056640625	15.7891667127609007792443662765435874462127685546875	90.912499999999994315658113919198513031005859375	1.180277775062450018594972789287567138671875	80.8333329235517936695032403804361820220947265625	0.0	2639.56038778027004809700883924961090087890625	0.0	1	1	1	1
3919	S6	2019	6	13	7	182.36776186625098716831416822969913482666015625	49.52452973640620115247656940482556819915771484375	165.810469267103002266594558022916316986083984375	16.37027775976390131518201087601482868194580078125	86.6433326509262968784241820685565471649169921875	1.676388888474960037200389706413261592388153076171875	153.166667247812000596240977756679058074951171875	0.0	4365.1187966267098090611398220062255859375	0.0	1	1	1	1
3920	S6	2019	6	13	8	320.6676961176809754761052317917346954345703125	139.18658705931198937832959927618503570556640625	253.9510621324089925110456533730030059814453125	16.99661006496449999758624471724033355712890625	81.053389619299196056090295314788818359375	1.7607344602797601051946685402072034776210784912109375	274.66666325926797753709251992404460906982421875	0.0	7733.211716016159698483534157276153564453125	0.0	1	1	1	1
3921	S6	2019	6	13	9	532.1731177387399611689033918082714080810546875	436.607166000457027621450833976268768310546875	251.1077454356540101798600517213344573974609375	18.011461334447101734212992596440017223358154296875	72.31833806078890347635024227201938629150390625	2.18051575521343021790698912809602916240692138671875	507.1666687726980171646573580801486968994140625	0.0	13945.20417849220029893331229686737060546875	0.0	1	1	1	1
3922	S6	2019	6	13	10	575.6604478034420253607095219194889068603515625	328.01512610532199687440879642963409423828125	336.16342450570300570689141750335693359375	19.3121739263118996632329071871936321258544921875	63.95478252466170232537479023449122905731201171875	1.5373913016872100545384682845906354486942291259765625	587.8333350022629701925325207412242889404296875	0.0	15725.889086723300351877696812152862548828125	0.0	1	1	1	1
3923	S6	2019	6	13	11	592.5767230818750022081076167523860931396484375	330.3722077557109741974272765219211578369140625	320.10261571653398959824698977172374725341796875	20.47109152644780039054239750839769840240478515625	57.4168141570414007901490549556910991668701171875	1.109144540047569904572810628451406955718994140625	639.4166648387910072415252216160297393798828125	0.0	16124.403357505800158833153545856475830078125	0.0	1	1	1	1
3924	S6	2019	6	13	12	703.128577483327035224647261202335357666015625	557.0161044450170493291807360947132110595703125	232.79794125807899263236322440207004547119140625	21.794407831995098234756369492970407009124755859375	54.39276327584909864754081354476511478424072265625	1.7509868375368800030855709337629377841949462890625	746.916669110461953096091747283935546875	0.0	18461.923281351701007224619388580322265625	0.0	1	1	1	1
3925	S6	2019	6	13	13	773.96289690802996119600720703601837158203125	623.057774683946945515344850718975067138671875	241.7262110491980138249346055090427398681640625	21.092483657637398408724038745276629924774169921875	63.1424837299421000125221326015889644622802734375	2.671568627743159840548514694091863930225372314453125	835.416659712785985902883112430572509765625	0.0	20243.20989847179953358136117458343505859375	0.0	1	1	1	1
3926	S6	2019	6	13	14	578.6964727094090221726219169795513153076171875	371.34548409355198828052380122244358062744140625	270.765972112840017871349118649959564208984375	20.547741809967998705133140902034938335418701171875	67.5841944048481053641808102838695049285888671875	2.606451605212300126623858886887319386005401611328125	621.7499971389760275997105054557323455810546875	0.0	15328.69333028790060780011117458343505859375	0.0	1	1	1	1
3927	S6	2019	6	13	15	706.888614246239967542351223528385162353515625	704.9854909416729924487299285829067230224609375	165.162570988366013580161961726844310760498046875	21.278593325833600857777128112502396106719970703125	65.9155965915877999350414029322564601898193359375	2.726299687080790068449687169049866497516632080078125	759.833340843518953988677822053432464599609375	0.0	19110.82442601510047097690403461456298828125	0.0	1	1	1	1
3928	S6	2019	6	13	16	318.86842220245802081990404985845088958740234375	210.68175156617900256605935283005237579345703125	177.333775789774989561919937841594219207763671875	20.842857112581700818054741830565035343170166015625	67.4053969125898930769835715182125568389892578125	2.56952380679901981608281857916153967380523681640625	369.41666901111602783203125	0.0	9658.393929402000139816664159297943115234375	0.0	1	1	1	1
3929	S6	2019	6	13	17	374.88476249906699422353995032608509063720703125	419.4012380021409853725344873964786529541015625	139.1701360013749990685028024017810821533203125	20.805902712874900117867582594044506549835205078125	66.7600693172878010273052495904266834259033203125	2.466666663479470056330455918214283883571624755859375	376.0000045100849774826201610267162322998046875	0.0	9446.8875974416805547662079334259033203125	0.0	1	1	1	1
3930	S6	2019	6	13	18	201.097946656341008520030300132930278778076171875	149.555826981412991472097928635776042938232421875	142.249590770843013842750224284827709197998046875	19.416034859749000673900809488259255886077880859375	69.0320699263591990302302292548120021820068359375	2.333236148944739962729499893612228333950042724609375	185.499998430411011440810398198664188385009765625	0.0	4818.6407635609402859699912369251251220703125	0.0	1	1	1	1
3931	S6	2019	6	13	19	194.4090075138630027140607126057147979736328125	364.48530086006400097176083363592624664306640625	89.7106525530133041002045501954853534698486328125	18.9294286782400007496107718907296657562255859375	69.3222858319962966788807534612715244293212890625	2.5440000029972598127869787276722490787506103515625	149.83333119501600094736204482614994049072265625	0.0	3523.1647814313400886021554470062255859375	0.0	1	1	1	1
3932	S6	2019	6	13	20	34.02658774455380097379020298831164836883544921875	0.437284598044222982959894352461560629308223724365234375	34.172885743776902245372184552252292633056640625	17.621944480472098604195707594044506549835205078125	75.5480551613701010182921891100704669952392578125	1.73583332970738002387633969192393124103546142578125	26.1666668811812002104488783515989780426025390625	0.0	777.5852639849009619865682907402515411376953125	0.0	1	1	1	1
3933	S6	2019	6	13	21	3.92769998010493992524061468429863452911376953125	0.316188209730014990750390779794543050229549407958984375	3.86264380917010985427850755513645708560943603515625	16.34630358358300128429618780501186847686767578125	85.3540851875037986928873579017817974090576171875	1.3108949399179901096346156919025816023349761962890625	1.000000037796179963578424576553516089916229248046875	0.0	65.8383827734121069852335494942963123321533203125	0.0	1	1	1	1
3934	S6	2019	6	13	22	0	0	0	0	0	0	0	0.0	1.3597500510513700344716880863416008651256561279296875	0.0	1	1	1	0
3935	S6	2019	6	13	23	0	0	0	0	0	0	0	0.0	0	0.0	1	1	1	0
3936	S6	2019	6	13	24	0	0	0	0	0	0	0	0.0	0	0.0	1	1	1	0
3937	S6	2019	6	14	1	0	0	0	0	0	0	0	0.0	0	0.0	1	1	1	0
3938	S6	2019	6	14	2	0	0	0	0	0	0	0	0.0	0	0.0	1	1	1	0
3939	S6	2019	6	14	3	0	0	0	0	0	0	0	0.0	0	0.0	1	1	1	0
3940	S6	2019	6	14	4	8.1436059753616092393713188357651233673095703125	0.322920759583448013785300645395182073116302490234375	8.4387405383122402469098233268596231937408447265625	14.49740258749420007688968325965106487274169921875	90.0337666102818019453479791991412639617919921875	0.6077922110433700009224367022397927939891815185546875	1.5833333600312500255569148066570051014423370361328125	0.0	80.4195994666469005096587352454662322998046875	0.0	1	1	1	1
3941	S6	2019	6	14	5	42.29662075860159831108830985613167285919189453125	100.8904808959789960454145330004394054412841796875	28.511428456987598423211238696239888668060302734375	14.74114283697939953299282933585345745086669921875	89.7611433410643968500153278000652790069580078125	1.660857139910969948459751321934163570404052734375	22.08333330539360161992590292356908321380615234375	0.0	803.4765751411549672411638312041759490966796875	0.0	1	1	1	1
3942	S6	2019	6	14	6	179.768094401888987476922920905053615570068359375	545.052180141871986052137799561023712158203125	49.8301640828450018716466729529201984405517578125	16.0527777724795015501513262279331684112548828125	84.871666759914802469211281277239322662353515625	2.032222220963900038981364559731446206569671630859375	41.83333336065209806520215352065861225128173828125	0.0	1940.830349922169943965855054557323455810546875	0.0	1	1	1	1
3943	S6	2019	6	14	7	318.9923482259109732694923877716064453125	691.8700542873799577137106098234653472900390625	61.3349132749768983785543241538107395172119140625	17.3580555650923002986019128002226352691650390625	78.1599999957613960077651427127420902252197265625	2.5852777757578397910265266546048223972320556640625	200.416668628653013684015604667365550994873046875	0.0	5530.34355739754028036259114742279052734375	0.0	1	1	1	1
3944	S6	2019	6	14	8	461.75508861488600587108521722257137298583984375	769.58821076204503697226755321025848388671875	71.9826811681549969534898991696536540985107421875	18.606128272903898590584503835998475551605224609375	75.5295265219004932077950797975063323974609375	2.448467961924980063059820167836733162403106689453125	387.0000019669520270326756872236728668212890625	0.0	10844.791094461999819031916558742523193359375	0.0	1	1	1	1
3945	S6	2019	6	14	9	600.0566350301099873831844888627529144287109375	827.246397060818026147899217903614044189453125	79.680258496602306195200071670114994049072265625	19.911388911141198576615352067165076732635498046875	72.4166666878594043055272777564823627471923828125	2.2094444332851299606090833549387753009796142578125	580.8333357175170021946541965007781982421875	0.0	15780.130128065700773731805384159088134765625	0.0	1	1	1	1
3946	S6	2019	6	14	10	716.2875823974600280052982270717620849609375	843.881803033071946629206649959087371826171875	98.4084563868004948972156853415071964263916015625	21.075977618467799601376100326888263225555419921875	68.6963684039408946091498364694416522979736328125	2.12234636841539003881962344166822731494903564453125	743.4166669845579917819122783839702606201171875	0.0	19391.91778500869986601173877716064453125	0.0	1	1	1	1
3947	S6	2019	6	14	11	800.291919793022998419473879039287567138671875	878.7911705864800069321063347160816192626953125	90.4285969840154990606606588698923587799072265625	23.205000013775201495036526466719806194305419921875	58.59555582470360235447515151463449001312255859375	2.219444436579939949893969242111779749393463134765625	890.1666601498919817458954639732837677001953125	0.0	22252.62943903600171324796974658966064453125	0.0	1	1	1	1
3948	S6	2019	6	14	12	850.35961151123001400264911353588104248046875	872.6086665762339862340013496577739715576171875	105.603322562523999295081011950969696044921875	23.760734428793600869767033145762979984283447265625	57.50932181622339811610800097696483135223388671875	2.2539547994143500631025744951330125331878662109375	980.250000953664994085556827485561370849609375	0.0	23573.74441623680104385130107402801513671875	0.0	1	1	1	1
3949	S6	2019	6	14	13	859.54626837836303820949979126453399658203125	886.9932829115119830021285451948642730712890625	96.9457154803804996845428831875324249267578125	23.986388900544898916677993838675320148468017578125	58.029722192552299020462669432163238525390625	2.209999999652299873531546836602501571178436279296875	1005.4166565338799728124286048114299774169921875	0.0	24072.10652033480073441751301288604736328125	0.0	1	1	1	1
3950	S6	2019	6	14	14	828.6711822509760168031789362430572509765625	882.9494506835929996668710373342037200927734375	97.3538175582884974801345379091799259185791015625	24.084999990463199281975903431884944438934326171875	55.68222242991129888878276688046753406524658203125	2.48388888297809007354999266681261360645294189453125	972.4166641632699565889197401702404022216796875	0.0	23314.30447101590107195079326629638671875	0.0	1	1	1	1
3951	S6	2019	6	14	15	758.6592928425640138812013901770114898681640625	846.31525969773201723000966012477874755859375	111.1427574586329996009226306341588497161865234375	22.53061792823699960308658774010837078094482421875	63.66938236322290123325728927738964557647705078125	2.651123587251369873030171220307238399982452392578125	870.83333730697495411732234060764312744140625	0.0	21474.6963580449009896256029605865478515625	0.0	1	1	1	1
3952	S6	2019	6	14	16	488.84577742866798644172376953065395355224609375	236.25843873179400134176830761134624481201171875	327.16855225493901571098831482231616973876953125	21.997681056589300396808539517223834991455078125	63.4246374931887970660682185553014278411865234375	2.81594201931055021503880197997204959392547607421875	494.99999980131798338334192521870136260986328125	0.0	12926.44580205279999063350260257720947265625	0.0	1	1	1	1
3953	S6	2019	6	14	17	306.23847470040999496632139198482036590576171875	156.011732949122006175457499921321868896484375	217.819161582127009069154155440628528594970703125	21.182768309857198829604385537095367908477783203125	68.07514104465980153690907172858715057373046875	2.650564971869270092241777092567645013332366943359375	303.9166654149699979825527407228946685791015625	0.0	7974.9464044967799054575152695178985595703125	0.0	1	1	1	1
3954	S6	2019	6	14	18	92.097472408082694528275169432163238525390625	0.490675110783841017525475081129116006195545196533203125	91.980382564332700212617055512964725494384765625	20.2524998399945985738668241538107395172119140625	70.6505555470783974669757299125194549560546875	2.749444436033559924226210569031536579132080078125	78.166666906327094466178095899522304534912109375	0.0	2316.642319162679996225051581859588623046875	0.0	1	1	1	1
3955	S6	2019	6	14	19	46.13670163167879678667304688133299350738525390625	0.412122162307992978558246477405191399157047271728515625	46.17631118476879947820634697563946247100830078125	19.48105845013029835399720468558371067047119140625	72.9643456291687044767968473024666309356689453125	2.125626740017299898255487278220243752002716064453125	39.74999968583369991392828524112701416015625	0.0	1210.99348862966007800423540174961090087890625	0.0	1	1	1	1
3956	S6	2019	6	14	20	7.82608517844762019421978038735687732696533203125	0.296585825657738000327157124047516845166683197021484375	7.8283839641937102982183205313049256801605224609375	19.398285707746200756673715659417212009429931640625	70.5274285016740947185098775662481784820556640625	0.90628571357045795142681754441582597792148590087890625	2.000000017384670147890801672474481165409088134765625	0.0	94.6497588107987013472666149027645587921142578125	0.0	1	1	1	1
3957	S6	2019	6	14	21	3.67207016227064997337947716005146503448486328125	0.3247929402096290107948561853845603764057159423828125	3.570234169562649828577605148893781006336212158203125	16.819892483372800739971353323198854923248291015625	83.6623653288809947525805910117924213409423828125	1.3661290351101100792874376566032879054546356201171875	2.916666727590679908388437979738228023052215576171875	0.0	99.7665337442110029542163829319179058074951171875	0.0	1	1	1	1
3958	S6	2019	6	14	22	0	0	0	0	0	0	0.9166667005047159921815591587801463901996612548828125	0.0	35.1118414352336998263126588426530361175537109375	0.0	1	1	1	0
3959	S6	2019	6	14	23	0	0	0	0	0	0	0	0.0	0	0.0	1	1	1	0
3960	S6	2019	6	14	24	0	0	0	0	0	0	0	0.0	0	0.0	1	1	1	0
3961	S6	2019	6	15	1	0	0	0	0	0	0	0	0.0	0	0.0	1	1	1	0
3962	S6	2019	6	15	2	0	0	0	0	0	0	0	0.0	0	0.0	1	1	1	0
3963	S6	2019	6	15	3	0	0	0	0	0	0	0	0.0	0	0.0	1	1	1	0
3964	S6	2019	6	15	4	9.5944856457740197441808049916289746761322021484375	1.902494942617110051941153869847767055034637451171875	9.90961134808618027136617456562817096710205078125	16.3710690984186015839441097341477870941162109375	77.9358488838627039285711362026631832122802734375	2.8320754639007699182684518746100366115570068359375	4.8333333979826402782009608927182853221893310546875	0.0	152.730534862105997717662830837070941925048828125	0.0	1	1	1	1
3965	S6	2019	6	15	5	36.4316250420688021449677762575447559356689453125	20.74374627799129910954434308223426342010498046875	34.020384571525397632285603322088718414306640625	16.596909999847401451233963598497211933135986328125	79.311236563693199741464923135936260223388671875	2.64943820187883982697485407697968184947967529296875	25.250000258286700471899166586808860301971435546875	0.0	749.631868054472988660563714802265167236328125	0.0	1	1	1	1
3966	S6	2019	6	15	6	132.021445666418998143853968940675258636474609375	96.896689907875298786166240461170673370361328125	111.4457401911409988315426744520664215087890625	17.706666660308801652945476234890520572662353515625	79.928333791097003313552704639732837677001953125	2.58361111415756994347248109988868236541748046875	89.9166682114204007802982232533395290374755859375	0.0	2680.60305466254021666827611625194549560546875	0.0	1	1	1	1
3967	S6	2019	6	15	7	250.828494813707010280268150381743907928466796875	131.77097666230400818676571361720561981201171875	204.895183054606007999609573744237422943115234375	20.016666857401499868274186155758798122406005859375	76.813333129882806815658113919198513031005859375	2.566944435073259977997395253623835742473602294921875	192.250000933805011982258292846381664276123046875	0.0	5506.3726653655203335802070796489715576171875	0.0	1	1	1	1
3968	S6	2019	6	15	8	200.560927454629990052126231603324413299560546875	4.11314977506795997896915650926530361175537109375	198.20536935594299166041309945285320281982421875	20.77333326339719832276387023739516735076904296875	74.07666727701820263973786495625972747802734375	1.9374999991721499892349811489111743867397308349609375	178.58333264787898997383308596909046173095703125	0.0	5138.1773451964099876931868493556976318359375	0.0	1	1	1	1
3969	S6	2019	6	15	9	127.809782791136996138448012061417102813720703125	0.5279093516369659511155987274833023548126220703125	127.34058096143900229435530491173267364501953125	20.87166671752920166227340814657509326934814453125	71.990000025431299945921637117862701416015625	2.50166666764352019214356914744712412357330322265625	111.9166656086839992667592014186084270477294921875	0.0	3366.2869681914698958280496299266815185546875	0.0	1	1	1	1
3970	S6	2019	6	15	10	185.43095915052600730632548220455646514892578125	0.890033748745918007472255339962430298328399658203125	184.2447327084009884856641292572021484375	20.615000216166098567782682948745787143707275390625	67.2233328501383056163831497542560100555419921875	2.796666660739310028560566934174858033657073974609375	170.083334048588994846795685589313507080078125	0.0	5189.240922530460011330433189868927001953125	0.0	1	1	1	1
3971	S6	2019	6	15	11	170.894551801680989910892094485461711883544921875	1.7077378359105799265904579442576505243778228759765625	168.752493969598987177960225380957126617431640625	21.03499987920120162243620143271982669830322265625	61.7716665903727033537506940774619579315185546875	2.313611108230209989500281153596006333827972412109375	142.166666686534000518804532475769519805908203125	0.0	4309.947152932480094023048877716064453125	0.0	1	1	1	1
3972	S6	2019	6	15	12	20.182467507727299249609131948091089725494384765625	0.12391937621524200252576264347226242534816265106201171875	19.94715860154889952582379919476807117462158203125	19.470370363306098937528076930902898311614990234375	59.7290123598074984556660638190805912017822265625	1.662962965391300063089374816627241671085357666015625	10.0833334339162004056333898915909230709075927734375	0.0	421.052940189840001039556227624416351318359375	0.0	1	1	1	1
3973	S6	2019	6	15	13	8.4273188875382203377739642746746540069580078125	0.304081730369242020373121704324148595333099365234375	8.2095495850206798849058031919412314891815185546875	16.596385375562899611168177216313779354095458984375	81.0361446472534936447118525393307209014892578125	2.443975899503170179372091297409497201442718505859375	5.99999997454384992323639380629174411296844482421875	0.0	204.0962092578409965426544658839702606201171875	0.0	1	1	1	1
3974	S6	2019	6	15	14	15.8517152812744992473881211481057107448577880859375	0.319206187874078006760925063645117916166782379150390625	15.587765140003600805584937916137278079986572265625	16.478333218892398548405253677628934383392333984375	81.425000127156494045266299508512020111083984375	5.42527778496344037506560198380611836910247802734375	15.166666669150199453497407375834882259368896484375	0.0	435.97609922289797168559744022786617279052734375	0.0	1	1	1	1
3975	S6	2019	6	15	15	264.891672441694026929326355457305908203125	19.03516053110359962374786846339702606201171875	249.33439605500899460821528919041156768798828125	17.41166664759310123145041870884597301483154296875	78.03333333333330301684327423572540283203125	2.799166668785940004227086319588124752044677734375	278.41666868577402738083037547767162322998046875	0.0	7801.6850501298804374528117477893829345703125	0.0	1	1	1	1
3976	S6	2019	6	15	16	383.91220546298501403725822456181049346923828125	85.210488623380598482981440611183643341064453125	324.91370646158799218028434552252292633056640625	19.489999866485501200941143906675279140472412109375	68.755000050862605576185160316526889801025390625	3.943055552078610137556324843899346888065338134765625	382.500000298022996503277681767940521240234375	0.0	10340.667327245000706170685589313507080078125	0.0	1	1	1	1
3977	S6	2019	6	15	17	293.4275807555289929950959049165248870849609375	52.24774908314279997512130648829042911529541015625	262.01591281084898810149752534925937652587890625	20.05098620669939890603927779011428356170654296875	60.481408283072397580326651223003864288330078125	4.72225351702998974445790736353956162929534912109375	285.0833311676980201809783466160297393798828125	0.0	7644.14291580517965485341846942901611328125	0.0	1	1	1	1
3978	S6	2019	6	15	18	107.6356677422970022917070309631526470184326171875	8.1430709898763193876902732881717383861541748046875	104.0235717922609950392143218778073787689208984375	19.657542074192800640730638406239449977874755859375	60.42513965628000249807882937602698802947998046875	4.7885474928930396032455973909236490726470947265625	94.2500016341601991598508902825415134429931640625	0.0	2593.82326031724005588330328464508056640625	0.0	1	1	1	1
3979	S6	2019	6	15	19	43.08822827827270174338991637341678142547607421875	10.3742524159184004162170822382904589176177978515625	40.78780239585810107882934971712529659271240234375	16.655905513312799115510642877779901027679443359375	80.5637794855071973643134697340428829193115234375	2.099212599668910161909707312588579952716827392578125	34.49999936856310256416691117919981479644775390625	0.0	1038.375522320460049741086550056934356689453125	0.0	1	1	1	1
3980	S6	2019	6	15	20	23.98004931261279892851234762929379940032958984375	0.44948023375030299320087578962557017803192138671875	24.413400016455199192932923324406147003173828125	16.24623960638439967851809342391788959503173828125	84.99832892882790247313096188008785247802734375	1.2793871830930900745926237505045719444751739501953125	21.000000182539199755638037458993494510650634765625	0.0	591.0382072130870483306352980434894561767578125	0.0	1	1	1	1
3981	S6	2019	6	15	21	3.010891237690989985509304460720159113407135009765625	0.332670978454323973405593051211326383054256439208984375	2.877387271922760003661778682726435363292694091796875	16.52038842728990175601211376488208770751953125	84.0453076902715991991499322466552257537841796875	0.281229777147083026545004713625530712306499481201171875	1.9166667091970699399183786226785741746425628662109375	0.0	41.35153299042330132806455367244780063629150390625	0.0	1	1	1	1
3982	S6	2019	6	15	22	0	0	0	0	0	0	0.08333333729145829538165202166055678389966487884521484375	0.0	0	0.0	1	1	1	0
3983	S6	2019	6	15	23	0	0	0	0	0	0	0	0.0	0	0.0	1	1	1	0
3984	S6	2019	6	15	24	0	0	0	0	0	0	0	0.0	0	0.0	1	1	1	0
3985	S6	2019	6	16	1	0	0	0	0	0	0	0	0.0	0	0.0	1	1	1	0
3986	S6	2019	6	16	2	0	0	0	0	0	0	0	0.0	0	0.0	1	1	1	0
3987	S6	2019	6	16	3	0	0	0	0	0	0	0	0.0	0	0.0	1	1	1	0
3988	S6	2019	6	16	4	0	0	0	0	0	0	0.5000000237487329801666646744706667959690093994140625	0.0	6.776324822567350025792620726861059665679931640625	0.0	1	1	1	0
3989	S6	2019	6	16	5	17.597199776086398514962638728320598602294921875	0.31816761671419602208743526716716587543487548828125	17.6777211233792996836200472898781299591064453125	15.6593373970813001250235174666158854961395263671875	91.2783125682048961380132823251187801361083984375	2.85602409114320021643607105943374335765838623046875	14.000000063485099843774150940589606761932373046875	0.0	389.8842843094220143029815517365932464599609375	0.0	1	1	1	1
3990	S6	2019	6	16	6	28.709845407803801009549715672619640827178955078125	0.364789614826440011796648832387290894985198974609375	28.762100243568401225502384477294981479644775390625	15.60500005086259989184327423572540283203125	88.738333384195897224344662390649318695068359375	2.834166662726130159200010893982835114002227783203125	25.41666695227220174047033651731908321380615234375	0.0	732.022677858670022033038549125194549560546875	0.0	1	1	1	1
3991	S6	2019	6	16	7	98.0842021412318985085221356712281703948974609375	0.51860382631420998134075261987163685262203216552734375	98.0282024913364011808880604803562164306640625	15.3866665204366004360281294793821871280670166015625	85.79833348592120501052704639732837677001953125	2.953333335535389903014902301947586238384246826171875	89.333334316808901576223433949053287506103515625	0.0	2541.8720692396100275800563395023345947265625	0.0	1	1	1	1
3992	S6	2019	6	16	8	204.568852700126996069229790009558200836181640625	0.95221787773900501417045916241477243602275848388671875	204.11500676472900295266299508512020111083984375	16.05666664441420010689398623071610927581787109375	81.9200002034504990433561033569276332855224609375	2.769999997648919798365341193857602775096893310546875	188.583333045243989545269869267940521240234375	0.0	5352.333957950269905268214643001556396484375	0.0	1	1	1	1
3993	S6	2019	6	16	9	501.84664555939099273018655367195606231689453125	460.29351433045400199262076057493686676025390625	188.535773113411011081552715040743350982666015625	17.83126749925209963976158178411424160003662109375	69.669013998541998944347142241895198822021484375	2.31549295648721997764596380875445902347564697265625	477.4166656037169786941376514732837677001953125	0.0	13198.283950487699257791973650455474853515625	0.0	1	1	1	1
3994	S6	2019	6	16	10	724.9038323107530459310510195791721343994140625	821.06223137730603411910124123096466064453125	101.8776238954159936156429466791450977325439453125	19.3512535520249997489372617565095424652099609375	59.45376038617740022118596243672072887420654296875	2.453760439472940202421114008757285773754119873046875	767.4999982118589514357154257595539093017578125	0.0	20210.42923132569922017864882946014404296875	0.0	1	1	1	1
3995	S6	2019	6	16	11	806.47674034966303224791772663593292236328125	834.2952248467339586568414233624935150146484375	106.3305488374490010983208776451647281646728515625	20.056666564941398434029906638897955417633056640625	58.60500017801920336069088079966604709625244140625	2.25333333238959010458302145707421004772186279296875	893.0000066757210106516140513122081756591796875	0.0	22657.90216128030078834854066371917724609375	0.0	1	1	1	1
3996	S6	2019	6	16	12	859.800991821289017025264911353588104248046875	848.5979164971239470105501823127269744873046875	110.359827126396993435264448635280132293701171875	20.676666736602701490710387588478624820709228515625	58.178333282470703125	2.059166661484370219881157026975415647029876708984375	987.2500002384150548095931299030780792236328125	0.0	24368.9311742782010696828365325927734375	0.0	1	1	1	1
3997	S6	2019	6	16	13	870.7547893045999671812751330435276031494140625	862.2953804037359759604441933333873748779296875	101.9115975467600065940132481046020984649658203125	21.219220095026098960033777984790503978729248046875	55.9250695486254016941529698669910430908203125	1.5799442860077299588539290198241360485553741455078125	1020.1666603485799669215339235961437225341796875	0.0	24795.6503232319009839557111263275146484375	0.0	1	1	1	1
3998	S6	2019	6	16	14	833.5263600068930145425838418304920196533203125	827.722081117603011080063879489898681640625	119.773458913593998431679210625588893890380859375	21.652100875597998452803949476219713687896728515625	53.75462194918249991815173416398465633392333984375	1.9806722678056198905238716179155744612216949462890625	972.4166691303299785431590862572193145751953125	0.0	23495.029469331100699491798877716064453125	0.0	1	1	1	1
3999	S6	2019	6	16	15	779.6046209630829935122164897620677947998046875	816.9284279406909945464576594531536102294921875	130.24382637990999000976444222033023834228515625	21.70563386729060084689990617334842681884765625	52.81267574471480230613451567478477954864501953125	1.8095774645536699676284797533298842608928680419921875	897.166674335798006723052822053432464599609375	0.0	21812.65978018440000596456229686737060546875	0.0	1	1	1	1
4000	S6	2019	6	16	16	514.786375067207018219050951302051544189453125	419.6075627241240226794616319239139556884765625	210.87667580936698641380644403398036956787109375	21.29775292685859966468342463485896587371826171875	55.611517220400600081120501272380352020263671875	1.7016853901944799520862261488218791782855987548828125	549.3333314855890421313233673572540283203125	0.0	13985.529462496400810778141021728515625	0.0	1	1	1	1
4001	S6	2019	6	16	17	187.972037167019010439616977237164974212646484375	4.653278919640509769806158146820962429046630859375	184.79917208353600699410890229046344757080078125	19.986666647593100520907682948745787143707275390625	62.0450000762939026799358543939888477325439453125	1.733055556482729908651663208729587495326995849609375	166.83333305021000114720663987100124359130859375	0.0	4979.493116339030166273005306720733642578125	0.0	1	1	1	1
4002	S6	2019	6	16	18	144.93523055182498637805110774934291839599609375	7.554450341893559794925749883987009525299072265625	142.233446354335995920337154529988765716552734375	19.541666825612299618342149187810719013214111328125	64.7833333969116011985533987171947956085205078125	1.51083333318432000424991201725788414478302001953125	133.33333407839000983585719950497150421142578125	0.0	3901.13312502701000994420610368251800537109375	0.0	1	1	1	1
4003	S6	2019	6	16	19	205.5716982099739880140987224876880645751953125	210.5294502625860104672028683125972747802734375	151.884640524122005444951355457305908203125	19.915000025431300656464372877962887287139892578125	64.989999707539794826516299508512020111083984375	1.288055552459419939026474821730516850948333740234375	160.5833334227399973315186798572540283203125	0.0	4187.1938506762298857211135327816009521484375	0.0	1	1	1	1
4004	S6	2019	6	16	20	78.787166999558195357167278416454792022705078125	128.298372169546013310537091456353664398193359375	53.4133097761768027567086392082273960113525390625	19.4703390072968005597431329078972339630126953125	64.99406736988129296150873415172100067138671875	1.2080508500842699337596286568441428244113922119140625	42.16666705906410328452693647705018520355224609375	0.0	1465.883613874510047025978565216064453125	0.0	1	1	1	1
4005	S6	2019	6	16	21	20.051359231318901521490261075086891651153564453125	5.7755624113963204280253194156102836132049560546875	20.32241332202870154333140817470848560333251953125	18.779816548758599736856922390870749950408935546875	68.3527520205995955393518670462071895599365234375	0.878440370253465996341901700361631810665130615234375	8.2499999746991203863899499992839992046356201171875	0.0	342.24720019847001140078646130859851837158203125	0.0	1	1	1	1
4006	S6	2019	6	16	22	0	0	0	0	0	0	0	0.0	10.7141414579623006630981763009913265705108642578125	0.0	1	1	1	0
4007	S6	2019	6	16	23	0	0	0	0	0	0	0	0.0	0	0.0	1	1	1	0
4008	S6	2019	6	16	24	0	0	0	0	0	0	0	0.0	0	0.0	1	1	1	0
4009	S6	2019	6	17	1	0	0	0	0	0	0	0	0.0	0	0.0	1	1	1	0
4010	S6	2019	6	17	2	0	0	0	0	0	0	0	0.0	0	0.0	1	1	1	0
4011	S6	2019	6	17	3	0	0	0	0	0	0	0	0.0	0	0.0	1	1	1	0
4012	S6	2019	6	17	4	17.19760943937669850356542156077921390533447265625	3.5437974086565500186907229362986981868743896484375	17.70835988096479951536821317858994007110595703125	14.984496013138599579406218254007399082183837890625	86.9503872302150995210467954166233539581298828125	1.0224806257458600722287656026310287415981292724609375	5.4166666523088000673169517540372908115386962890625	0.0	193.401172563122003111857338808476924896240234375	0.0	1	1	1	0
4013	S6	2019	6	17	5	46.21325016294979803888054448179900646209716796875	85.9228195023313929823416401632130146026611328125	33.57076073239380065160730737261474132537841796875	15.20888259144430065816777641884982585906982421875	86.4492840479984039347982616163790225982666015625	1.378796559862550008546122626285068690776824951171875	22.91666685293120053756865672767162322998046875	0.0	848.0052432666210506795323453843593597412109375	0.0	1	1	1	1
4014	S6	2019	6	17	6	178.7327013439600023048114962875843048095703125	499.47371775309198937975452281534671783447265625	54.07105955547749687184477807022631168365478515625	16.231666739781598352010405506007373332977294921875	82.1099999745685948937534703873097896575927734375	0.87444444613324201487358777740155346691608428955078125	43.333333296080496666036196984350681304931640625	0.0	2038.72617582480006603873334825038909912109375	0.0	1	1	1	1
4015	S6	2019	6	17	7	328.2362965901689904058002866804599761962890625	701.04861026339995078160427510738372802734375	55.2099361207749979030268150381743907928466796875	16.921666812896699383372833835892379283905029296875	75.85000025431310177737032063305377960205078125	1.90805555350249989032818120904266834259033203125	203.916666408379995800714823417365550994873046875	0.0	5687.1568312247500216471962630748748779296875	0.0	1	1	1	1
4016	S6	2019	6	17	8	471.8098912556960158326546661555767059326171875	779.43418969048298095003701746463775634765625	60.46293273501920140233778511174023151397705078125	18.270000012715598813883843831717967987060546875	68.023333231608006599344662390649318695068359375	1.341388890975049985598843704792670905590057373046875	392.1666617194799755452550016343593597412109375	0.0	11046.0912187893991358578205108642578125	0.0	1	1	1	1
4017	S6	2019	6	17	9	604.207412041557972770533524453639984130859375	806.963855150009976568981073796749114990234375	77.01284481684359661812777630984783172607421875	20.358333365122401659164097509346902370452880859375	61.64333337148030267371723311953246593475341796875	0.82805555611848802310959172245929948985576629638671875	583.4166680773099642465240322053432464599609375	0.0	15840.48020839690070715732872486114501953125	0.0	1	1	1	1
4018	S6	2019	6	17	10	604.1287566836509768108953721821308135986328125	561.7604545770890354106086306273937225341796875	185.7582100846190087395370937883853912353515625	21.60264028417000048420959501527249813079833984375	57.8240925250667032742057926952838897705078125	0.63531353450057503895465060850256122648715972900390625	619.1666660209499468692229129374027252197265625	0.0	16026.274293660999319399707019329071044921875	0.0	1	1	1	1
4019	S6	2019	6	17	11	474.72618249928700606687925755977630615234375	217.1085949935689995982102118432521820068359375	292.22978835964698873794986866414546966552734375	21.181677066020998978501665988005697727203369140625	58.749689398344997925960342399775981903076171875	1.1031055925240400572562293746159411966800689697265625	502.3333293696219925550394691526889801025390625	0.0	12828.575640916800693958066403865814208984375	0.0	1	1	1	1
4020	S6	2019	6	17	12	603.349709960529025920550338923931121826171875	368.81792481074097622695262543857097625732421875	277.879238626230971931363455951213836669921875	21.399331076886699776196110178716480731964111328125	56.6414715565964996812908793799579143524169921875	2.21906354126323979158996735350228846073150634765625	723.66666297117399153648875653743743896484375	0.0	16949.001729488300043158233165740966796875	0.0	1	1	1	1
4021	S6	2019	6	17	13	599.830337864578041262575425207614898681640625	335.41056518083399851093417964875698089599609375	300.85813101993198870331980288028717041015625	21.89012733386579867556065437383949756622314453125	56.25859867994950036518275737762451171875	2.187898090595650213430189978680573403835296630859375	710.4999944567670127071323804557323455810546875	0.0	16493.93143256500115967355668544769287109375	0.0	1	1	1	1
4022	S6	2019	6	17	14	645.485692082120976920123212039470672607421875	490.526916064274018935975618660449981689453125	226.31495208252698603246244601905345916748046875	22.11341856082020029816703754477202892303466796875	58.11948877401619739657689933665096759796142578125	2.133226828738899794046801616786979138851165771484375	767.416659742591946269385516643524169921875	0.0	19132.01953967410008772276341915130615234375	0.0	1	1	1	1
4023	S6	2019	6	17	15	618.2427278212550163516425527632236480712890625	436.9731183551519961838494054973125457763671875	273.587365468343023167108185589313507080078125	22.600617314562299497993080876767635345458984375	57.7154321552794016270127031020820140838623046875	1.9481481419485200401453539598151110112667083740234375	696.6666604081780178603366948664188385009765625	0.0	17183.42724442480175639502704143524169921875	0.0	1	1	1	1
4024	S6	2019	6	17	16	601.99668809616605358314700424671173095703125	628.89437131654403856373392045497894287109375	167.935491439398987267850316129624843597412109375	23.47614677382529890792284277267754077911376953125	54.90183493704599726470405585132539272308349609375	1.3155963283248599537955669802613556385040283203125	639.750001331171006313525140285491943359375	0.0	15997.648497422500440734438598155975341796875	0.0	1	1	1	1
4025	S6	2019	6	17	17	400.25001111844602519340696744620800018310546875	382.2884491367100281422608532011508941650390625	178.099133514776013953451183624565601348876953125	23.403048672327098955747715081088244915008544921875	55.60640260649889654587241238914430141448974609375	0.979268292464861023205457968288101255893707275390625	392.49999572833502270441385917365550994873046875	0.0	9852.733532587690206128172576427459716796875	0.0	1	1	1	1
4026	S6	2019	6	17	18	247.124405035811008701784885488450527191162109375	244.325644259791005197257618419826030731201171875	146.026967016497991380674648098647594451904296875	22.803370963321601294637730461545288562774658203125	58.883707818020496915778494440019130706787109375	0.62893258721640898922800033687963150441646575927734375	264.2499990761280059814453125	0.0	6432.15386569495967705734074115753173828125	0.0	1	1	1	1
4027	S6	2019	6	17	19	233.701081169975992679610499180853366851806640625	548.39384986029699575738050043582916259765625	69.2301113446552989216797868721187114715576171875	23.08833328882850111085645039565861225128173828125	57.22500000000000142108547152020037174224853515625	0.65083333568440504546259717244538478553295135498046875	167.4999998261509972508065402507781982421875	0.0	3772.745326161390039487741887569427490234375	0.0	1	1	1	1
4028	S6	2019	6	17	20	61.401282863011402923802961595356464385986328125	110.136730659042996194330044090747833251953125	39.75580513666540127815096639096736907958984375	21.433730102720698340590388397686183452606201171875	62.695635265774200206578825600445270538330078125	0.390873020248752978123008006150485016405582427978515625	31.083333306014498731428830069489777088165283203125	0.0	1144.877602656669978387071751058101654052734375	0.0	1	1	1	1
4029	S6	2019	6	17	21	18.438816859241601520125186652876436710357666015625	5.1194501857737098049483392969705164432525634765625	18.825900538339300993584402021951973438262939453125	20.55589340848160162522617611102759838104248046875	69.116730229482897129855700768530368804931640625	0.190494299954787005280110179228358902037143707275390625	7.4166668734202598756155566661618649959564208984375	0.0	346.1450347676869796487153507769107818603515625	0.0	1	1	1	1
4030	S6	2019	6	17	22	0	0	0	0	0	0	0	0.0	10.9906085223580998189163437928073108196258544921875	0.0	1	1	1	0
4031	S6	2019	6	17	23	0	0	0	0	0	0	0	0.0	0	0.0	1	1	1	0
4032	S6	2019	6	17	24	0	0	0	0	0	0	0	0.0	0	0.0	1	1	1	0
4033	S6	2019	6	18	1	0	0	0	0	0	0	0	0.0	0	0.0	1	1	1	0
4034	S6	2019	6	18	2	0	0	0	0	0	0	0	0.0	0	0.0	1	1	1	0
4035	S6	2019	6	18	3	0	0	0	0	0	0	0	0.0	0	0.0	1	1	1	0
4036	S6	2019	6	18	4	14.583833188049499796079544466920197010040283203125	4.24560044763623967156718208570964634418487548828125	15.079631724098799594457886996679008007049560546875	15.956589159115299736413362552411854267120361328125	81.935658595358603406566544435918331146240234375	1.4860465069149799699488312398898415267467498779296875	4.0000000056655000690852830302901566028594970703125	0.0	172.492758681375988771833362989127635955810546875	0.0	1	1	1	1
4037	S6	2019	6	18	5	46.6837544119758973693024017848074436187744140625	92.6737676030129051696349051780998706817626953125	32.95422127541529988548063556663691997528076171875	16.27584259697560042923214496113359928131103515625	81.589887083246395604874123819172382354736328125	1.4505618002809799182983852006145752966403961181640625	23.1666668162990987411831156350672245025634765625	0.0	872.792915130655956090777181088924407958984375	0.0	1	1	1	1
4038	S6	2019	6	18	6	179.34353983137299337613512761890888214111328125	320.45284136997298674032208509743213653564453125	99.8083608097499990208234521560370922088623046875	18.099999904632500857815102790482342243194580078125	74.060000101725194099344662390649318695068359375	2.42111110091209003059020687942393124103546142578125	77.0000008245308009691143524833023548126220703125	0.0	2810.97359706958013703115284442901611328125	0.0	1	1	1	1
4039	S6	2019	6	18	7	312.6499696211379841770394705235958099365234375	407.0209681689730132347904145717620849609375	155.948727932843013377350871451199054718017578125	19.469602368094701461131990072317421436309814453125	69.49517020312219983679824508726596832275390625	3.198579543185500195789927602163515985012054443359375	215.66666786869200223009102046489715576171875	0.0	6108.6247414350300459773279726505279541015625	0.0	1	1	1	1
4040	S6	2019	6	18	8	391.58034728294097703837906010448932647705078125	413.663943834267001875559799373149871826171875	179.94780757815300376023515127599239349365234375	20.0671511306318990364161436446011066436767578125	69.058721453644494658874464221298694610595703125	3.310174417357110154824795245076529681682586669921875	328.99999742706501137945451773703098297119140625	0.0	9259.522676467930068611167371273040771484375	0.0	1	1	1	1
4041	S6	2019	6	18	9	476.43073132394300728265079669654369354248046875	306.7603510441359730975818820297718048095703125	275.84044748065099383893539197742938995361328125	20.3614942780856011950163519941270351409912109375	68.708907993360497812318499200046062469482421875	2.831034473989200161980761549784801900386810302734375	447.250001132488023358746431767940521240234375	0.0	12321.358929077699940535239875316619873046875	0.0	1	1	1	1
4042	S6	2019	6	18	10	552.4455122205939687773934565484523773193359375	280.4461902128319934490718878805637359619140625	335.76694844563797914815950207412242889404296875	20.4766665458679000266783987171947956085205078125	67.5333325703937958905953564681112766265869140625	3.212499993708390011448727818788029253482818603515625	557.4166774749750175033113919198513031005859375	0.0	15166.90293947849932010285556316375732421875	0.0	1	1	1	1
4043	S6	2019	6	18	11	721.5389046976209783679223619401454925537109375	385.34251999120397158549167215824127197265625	392.789595831008000459405593574047088623046875	21.341736817560200023535799118690192699432373046875	63.90027983849790160775228287093341350555419921875	2.998039218808420169892769990838132798671722412109375	756.0833195845290219949674792587757110595703125	0.0	19830.71331183109941775910556316375732421875	0.0	1	1	1	1
4044	S6	2019	6	18	12	666.156689827156014871434308588504791259765625	253.789489104223008553162799216806888580322265625	436.9479728847489923282410018146038055419921875	21.881894146167400805325087276287376880645751953125	63.3487468496337982060140348039567470550537109375	3.01949859927290997774207426118664443492889404296875	680.0000021855039449292235076427459716796875	0.0	17723.89394044869914068840444087982177734375	0.0	1	1	1	1
4045	S6	2019	6	18	13	770.052914357323970762081444263458251953125	334.89073900277099937738967128098011016845703125	464.02580163074497932029771618545055389404296875	22.155263142279000732060012524016201496124267578125	66.2029241595351010118974954821169376373291015625	3.048538011939899927682517954963259398937225341796875	819.6666588385860450216569006443023681640625	0.0	20236.77957057949970476329326629638671875	0.0	1	1	1	1
4046	S6	2019	6	18	14	865.78989794075096142478287220001220703125	618.3008900426019636142882518470287322998046875	328.2001468900999725519795902073383331298828125	23.08872817706510005564268794842064380645751953125	66.610694091444003106516902334988117218017578125	2.752312136092620153959842355106957256793975830078125	911.833321054780981285148300230503082275390625	0.0	22470.55999437960053910501301288604736328125	0.0	1	1	1	1
4047	S6	2019	6	18	15	772.0027433607309603758039884269237518310546875	762.1543340047199990294757299125194549560546875	162.11730266147100110174505971372127532958984375	23.21166664759309838927947566844522953033447265625	68.436666615804000457501388154923915863037109375	3.064999990165230059346868074499070644378662109375	882.1666737397509905349579639732837677001953125	0.0	21720.12404600769878015853464603424072265625	0.0	1	1	1	1
4048	S6	2019	6	18	16	606.4795940147770352268707938492298126220703125	643.34004739362399050150997936725616455078125	156.069563420249011187479482032358646392822265625	23.45386811723680153818349936045706272125244140625	68.35358197231340682264999486505985260009765625	2.81461317440157987590509947040118277072906494140625	687.4999950329460034481598995625972747802734375	0.0	16970.31660874680164852179586887359619140625	0.0	1	1	1	1
4049	S6	2019	6	18	17	430.23742171393502076170989312231540679931640625	440.08842603365502554879640229046344757080078125	166.9398982153990118604269810020923614501953125	23.028333377838098527945476234890520572662353515625	68.31666653951009493539459072053432464599609375	2.5102777746816400394891388714313507080078125	445.58332363764401407024706713855266571044921875	0.0	11245.4091409842003486119210720062255859375	0.0	1	1	1	1
4050	S6	2019	6	18	18	257.5289088355169724309234879910945892333984375	166.26969455612999126969953067600727081298828125	182.718299780951014099628082476556301116943359375	22.441666475931800306398145039565861225128173828125	67.9649996439615051713190041482448577880859375	2.44444444452722020599821917130611836910247802734375	235.0833291808750118434545584022998809814453125	0.0	6081.07444147271962719969451427459716796875	0.0	1	1	1	1
4051	S6	2019	6	18	19	138.378584533267002143475110642611980438232421875	103.4468614753740070000276318751275539398193359375	105.2452463150020065540957148186862468719482421875	21.6233332951862990967129007913172245025634765625	68.58666661580400614184327423572540283203125	2.331111107932189785429955009021796286106109619140625	113.500001529851004988813656382262706756591796875	0.0	2923.69556178648008426534943282604217529296875	0.0	1	1	1	1
4052	S6	2019	6	18	20	31.344887359937001036769288475625216960906982421875	0.258278518625430997257552689916337840259075164794921875	31.43684422704900072176315006799995899200439453125	20.148333326975500057187673519365489482879638671875	73.7566665649413977234871708787977695465087890625	2.330833331081600068301895589684136211872100830078125	25.166666600853101698476166347973048686981201171875	0.0	710.6092348694800193698029033839702606201171875	0.0	1	1	1	1
4053	S6	2019	6	18	21	7.29587310624990958984881217475049197673797607421875	0.371986391754284995148083226013113744556903839111328125	7.45965704165006027182016623555682599544525146484375	19.920647933898099068983356119133532047271728515625	74.4202424640114941212232224643230438232421875	1.0781376551278600839367527441936545073986053466796875	4.0833334496710396166463397094048559665679931640625	0.0	133.15042484706799541527288965880870819091796875	0.0	1	1	1	1
4054	S6	2019	6	18	22	0	0	0	0	0	0	0	0.0	0	0.0	1	1	1	0
4055	S6	2019	6	18	23	0	0	0	0	0	0	0	0.0	0	0.0	1	1	1	0
4056	S6	2019	6	18	24	0	0	0	0	0	0	0	0.0	0	0.0	1	1	1	0
4057	S6	2019	6	19	1	0	0	0	0	0	0	0	0.0	0	0.0	1	1	1	0
4058	S6	2019	6	19	2	0	0	0	0	0	0	0	0.0	0	0.0	1	1	1	0
4059	S6	2019	6	19	3	0	0	0	0	0	0	0	0.0	0	0.0	1	1	1	0
4060	S6	2019	6	19	4	2.710345292677640127720906093600206077098846435546875	0.2182522990099589887957876044310978613793849945068359375	2.676633219249910045078877374180592596530914306640625	17.1098360155449000785665703006088733673095703125	90.0819664626825016284783487208187580108642578125	0.7819672119422029776814042634214274585247039794921875	0.7500000356231080189672866254113614559173583984375	0.0	3.178799990564530109082852504798211157321929931640625	0.0	1	1	1	1
4061	S6	2019	6	19	5	18.446191382408098746736868633888661861419677734375	0.358620506359471014068418526221648789942264556884765625	18.5657854252390990268395398743450641632080078125	17.34916646745460155898399534635245800018310546875	89.86250008477099981973879039287567138671875	1.6158333285815100754945206062984652817249298095703125	15.8333333674816998382084420882165431976318359375	0.0	438.30768065527098542588646523654460906982421875	0.0	1	1	1	1
4062	S6	2019	6	19	6	98.54962546030679959585540927946567535400390625	102.6537333396569948718024534173309803009033203125	69.327490525775402829822269268333911895751953125	18.06277783711750117845440399833023548126220703125	87.590278053283697090591886080801486968994140625	0.350833337257304977985228333636769093573093414306640625	53.58333357920219697234642808325588703155517578125	0.0	1768.2155743241301024681888520717620849609375	0.0	1	1	1	1
4063	S6	2019	6	19	7	272.445605668516009245649911463260650634765625	423.6583713977109937331988476216793060302734375	107.499781064003997244071797467768192291259765625	19.64011146099119997643356327898800373077392578125	83.321448790993798638737644068896770477294921875	1.4353760427751200978718770784325897693634033203125	185.500000913938009716730448417365550994873046875	0.0	5062.4506572882301043136976659297943115234375	0.0	1	1	1	1
4064	S6	2019	6	19	8	372.24694908989800978815765120089054107666015625	410.1861592804390284072724170982837677001953125	160.98589091830700681384769268333911895751953125	20.7563886907365002798542263917624950408935546875	77.9736108144123960528304451145231723785400390625	1.6822222188942899112618079016101546585559844970703125	309.49999764561499659976107068359851837158203125	0.0	8655.780196189889466040767729282379150390625	0.0	1	1	1	1
4065	S6	2019	6	19	9	530.23414195667601234163157641887664794921875	501.3857138471839789417572319507598876953125	195.352819486096990431178710423409938812255859375	22.297727265141201513642954523675143718719482421875	71.2224432121623038938196259550750255584716796875	1.04886363632977008819580078125	519.416663795708018369623459875583648681640625	0.0	14005.73233763370080851018428802490234375	0.0	1	1	1	1
4066	S6	2019	6	19	10	636.9862425910099545944831334054470062255859375	510.8271583133270041798823513090610504150390625	246.70330641004699145923950709402561187744140625	23.341944355434801394721944234333932399749755859375	68.9308334986368009822399471886456012725830078125	2.03166666130224005115678664878942072391510009765625	652.41666138172195132938213646411895751953125	0.0	17070.6558823585000936873257160186767578125	0.0	1	1	1	1
4067	S6	2019	6	19	11	591.636623094060951189021579921245574951171875	218.245930637966012000106275081634521484375	402.416015625	24.15154061731499979259751853533089160919189453125	64.9067228301232006515419925563037395477294921875	1.3341736649932600666801363331614993512630462646484375	609.2499991257999454319360665977001190185546875	0.0	15782.594998677499461336992681026458740234375	0.0	1	1	1	1
4068	S6	2019	6	19	12	740.7047006617709712372743524610996246337890625	377.5868001330489960309932939708232879638671875	400.6058810782830050811753608286380767822265625	24.574581098290099845371514675207436084747314453125	64.4840781142591055186130688525736331939697265625	1.56424580622651010486379163921810686588287353515625	797.0833281675960506618139334022998809814453125	0.0	20026.36313438410070375539362430572509765625	0.0	1	1	1	1
4069	S6	2019	6	19	13	740.4187358432340033687069080770015716552734375	520.419837824503019874100573360919952392578125	269.715888086954009850160218775272369384765625	24.355277898576499495675307116471230983734130859375	66.069722345140206698488327674567699432373046875	2.297222219407550003467122223810292780399322509765625	832.250006496896958196884952485561370849609375	0.0	20419.79142030080038239248096942901611328125	0.0	1	1	1	1
4070	S6	2019	6	19	14	829.6354404025599933447665534913539886474609375	769.402103847927037350018508732318878173828125	163.35206375121998689792235381901264190673828125	24.96972209082699833970764302648603916168212890625	66.0669442706637966011840035207569599151611328125	2.7183333309160300217399708344601094722747802734375	963.9999965826649486189126037061214447021484375	0.0	23369.851072629200643859803676605224609375	0.0	1	1	1	1
4071	S6	2019	6	19	15	738.8389469630279791090288199484348297119140625	814.3988821110250455603818409144878387451171875	120.453920627646994034876115620136260986328125	25.410704072764200844858351047150790691375732421875	62.31746500579399850039408192969858646392822265625	2.937464788682019989352056654752232134342193603515625	846.7499961455660013598389923572540283203125	0.0	20781.02469444270172971300780773162841796875	0.0	1	1	1	1
4072	S6	2019	6	19	16	640.3901170518660137531696818768978118896484375	812.8932564629440093995071947574615478515625	105.4124665578199966375905205495655536651611328125	24.611666499243799677287825033999979496002197265625	60.5875002225239995823358185589313507080078125	3.1133333335320099166665386292152106761932373046875	714.500005046525984653271734714508056640625	0.0	17682.054479916798300109803676605224609375	0.0	1	1	1	1
4073	S6	2019	6	19	17	521.490357208250998155563138425350189208984375	763.104857381184046971611678600311279296875	104.4734573152330057155268150381743907928466796875	24.1605557865565998554302495904266834259033203125	60.69861116409300194618481327779591083526611328125	2.6977777731087400070464354939758777618408203125	552.9166633884100292561925016343593597412109375	0.0	13763.317306836399438907392323017120361328125	0.0	1	1	1	1
4074	S6	2019	6	19	18	266.84925888909202740251203067600727081298828125	308.414778794181984267197549343109130859375	130.158982149758998048127978108823299407958984375	23.503888728883499226185449515469372272491455078125	62.2505553457472018408225267194211483001708984375	2.49916666663354991584355957456864416599273681640625	250.083337227502994437600136734545230865478515625	0.0	6249.4486570358203607611358165740966796875	0.0	1	1	1	1
4075	S6	2019	6	19	19	109.698857498167996027405024506151676177978515625	67.3253446525996963600846356712281703948974609375	90.7801972071329004165818332694470882415771484375	22.05027782122289892186017823405563831329345703125	68.0994446012708039006611215882003307342529296875	2.501944438036939999392416211776435375213623046875	83.3333345750965008846833370625972747802734375	0.0	2114.2955397566101964912377297878265380859375	0.0	1	1	1	1
4076	S6	2019	6	19	20	35.35015343030290324577435967512428760528564453125	0.51398794555829596664153768870164640247821807861328125	35.97735691070550245740378159098327159881591796875	20.8588889333936009506942355073988437652587890625	75.63666695488819868842256255447864532470703125	2.43583333243925981292932192445732653141021728515625	24.58333332712449958989964216016232967376708984375	0.0	689.5293655494859876853297464549541473388671875	0.0	1	1	1	1
4077	S6	2019	6	19	21	13.473793402135999741631167125888168811798095703125	0.25283256624324301764517031188006512820720672607421875	13.7949173478966002903689513914287090301513671875	20.1820716857910014141452847979962825775146484375	78.3768916642998050292590050958096981048583984375	2.641035855291370193498323715175502002239227294921875	6.583333413194200289808577508665621280670166015625	0.0	212.96691890650600953449611552059650421142578125	0.0	1	1	1	1
4078	S6	2019	6	19	22	0	0	0	0	0	0	0	0.0	0	0.0	1	1	1	0
4079	S6	2019	6	19	23	0	0	0	0	0	0	0	0.0	0	0.0	1	1	1	0
4080	S6	2019	6	19	24	0	0	0	0	0	0	0	0.0	0	0.0	1	1	1	0
4081	S6	2019	6	20	1	0	0	0	0	0	0	0	0.0	0	0.0	1	1	1	0
4082	S6	2019	6	20	2	0	0	0	0	0	0	0	0.0	0	0.0	1	1	1	0
4083	S6	2019	6	20	3	0	0	0	0	0	0	0	0.0	0	0.0	1	1	1	0
4084	S6	2019	6	20	4	11.7770876793633991752585643553175032138824462890625	0.421654996559732986316504366186563856899738311767578125	12.240459769112700172399854636751115322113037109375	16.58190485636389865931050735525786876678466796875	94.9695236206054005378973670303821563720703125	1.273333334355120083358769988990388810634613037109375	3.333333297632650182862334986566565930843353271484375	0.0	104.3168170532830032470883452333509922027587890625	0.0	1	1	1	1
4085	S6	2019	6	20	5	42.43069785435989871302808751352131366729736328125	8.9889099111159591615205499692820012569427490234375	41.8508870999017972280853427946567535400390625	16.893333684073500222666552872397005558013916015625	91.852222209506493300068541429936885833740234375	0.81666667022638794737332545992103405296802520751953125	32.33333366612580306309610023163259029388427734375	0.0	996.2159780164560061166412197053432464599609375	0.0	1	1	1	1
4086	S6	2019	6	20	6	98.538768365647996461120783351361751556396484375	45.07451966388349973158256034366786479949951171875	89.99742130703390330381807871162891387939453125	17.89999992052710098278112127445638179779052734375	89.5141661961873040809223311953246593475341796875	0.56416667153437904946855496746138669550418853759765625	74.083334145446400498258299194276332855224609375	0.0	2150.50952136515979873365722596645355224609375	0.0	1	1	1	1
4087	S6	2019	6	20	7	110.482905960083002128158113919198513031005859375	0.757952773777974986302297111251391470432281494140625	110.2947621027619931055596680380403995513916015625	18.3519438796572984529120731167495250701904296875	89.8511107550726961790132918395102024078369140625	1.1555555566317499138762059374130330979824066162109375	101.0833332935969934851527796126902103424072265625	0.0	2854.0643329421700400416739284992218017578125	0.0	1	1	1	1
4088	S6	2019	6	20	8	279.40606298419999120596912689507007598876953125	186.21930731961600713475490920245647430419921875	179.908892915773009235635981895029544830322265625	19.350974967552698302597491419874131679534912109375	87.298329005334295516149722971022129058837890625	1.05069637946099003755762169021181762218475341796875	252.000000327825006252169259823858737945556640625	0.0	7061.3547066847304449765942990779876708984375	0.0	1	1	1	1
4089	S6	2019	6	20	9	536.950176496183985364041291177272796630859375	472.296330185082979369326494634151458740234375	241.181975075368001171227660961449146270751953125	21.7224719979789000490200123749673366546630859375	76.5258424951789066881246981211006641387939453125	1.2308988769569999544017946391250006854534149169921875	504.750003417331981836468912661075592041015625	0.0	13733.08219512299911002628505229949951171875	0.0	1	1	1	1
4090	S6	2019	6	20	10	548.6639147986089710684609599411487579345703125	439.2806012788020098014385439455509185791015625	232.568007224275987709916080348193645477294921875	22.208459295174801439998191199265420436859130859375	72.748036295265507078511291183531284332275390625	1.806646520547630085928858534316532313823699951171875	574.750001231828036907245405018329620361328125	0.0	15030.6388239066000096499919891357421875	0.0	1	1	1	1
4091	S6	2019	6	20	11	345.4303403226130058101261965930461883544921875	94.1888778159277961776751908473670482635498046875	267.36953323318897446370101533830165863037109375	22.19080136013310067255588364787399768829345703125	71.2267061680642967758103623054921627044677734375	1.7326409469195500623328598521766252815723419189453125	373.1666592260199877273407764732837677001953125	0.0	9744.029293457659150590188801288604736328125	0.0	1	1	1	1
4092	S6	2019	6	20	12	565.3093034886600207755691371858119964599609375	306.36197027818701599244377575814723968505859375	306.21290975542200385461910627782344818115234375	22.5973134396680990221284446306526660919189453125	69.5188059564845985960346297360956668853759765625	2.151940300838270037075972140883095562458038330078125	598.33333268761498402454890310764312744140625	0.0	15278.299212455700399004854261875152587890625	0.0	1	1	1	1
4093	S6	2019	6	20	13	683.1714714175360541048576124012470245361328125	359.32265675434899776519159786403179168701171875	376.61932793288900711559108458459377288818359375	23.413770406754199626675472245551645755767822265625	65.958360515657005862522055394947528839111328125	1.986229502470759911147979437373578548431396484375	765.3333321213759745660354383289813995361328125	0.0	17863.50227395689944387413561344146728515625	0.0	1	1	1	1
4094	S6	2019	6	20	14	435.78303822108597387341433204710483551025390625	190.46605795486999568311148323118686676025390625	279.6204727536149903244222514331340789794921875	20.758571388607901297973512555472552776336669921875	81.930952998570006684531108476221561431884765625	1.8409523785114199068146945137414149940013885498046875	327.25000350425801798337488435208797454833984375	0.0	8223.5135696828292566351592540740966796875	0.0	1	1	1	1
4095	S6	2019	6	20	15	499.2460662938980249236919917166233062744140625	318.185513544405011998605914413928985595703125	261.07255495885300433656084351241588592529296875	21.287898245890399806512505165301263332366943359375	79.092674935699193383698002435266971588134765625	2.482802547941540094456058795913122594356536865234375	513.7500042716650341390050016343593597412109375	0.0	13283.863494793500649393536150455474853515625	0.0	1	1	1	1
4096	S6	2019	6	20	16	598.318999296109041097224690020084381103515625	508.8958668711439941034768708050251007080078125	261.15439434164301246710238046944141387939453125	22.460650957547699135830043815076351165771484375	69.524555996324806983466260135173797607421875	2.9263313591656601175827745464630424976348876953125	646.0833251476279883718234486877918243408203125	0.0	16591.13619724900127039290964603424072265625	0.0	1	1	1	1
4097	S6	2019	6	20	17	535.430860395134004647843539714813232421875	589.845860016160031591425649821758270263671875	215.5520769502890061630751006305217742919921875	22.139093399047798271794817992486059665679931640625	68.861190212346997441272833384573459625244140625	3.203966011828800031224773192661814391613006591796875	566.6666626930240227011381648480892181396484375	0.0	14310.81074476230060099624097347259521484375	0.0	1	1	1	1
4098	S6	2019	6	20	18	370.4911162186759838732541538774967193603515625	552.243067214227039585239253938198089599609375	139.45596104602600462385453283786773681640625	21.619020104751800914755222038365900516510009765625	67.59999974935129785080789588391780853271484375	3.01469740632288019099860321148298680782318115234375	339.58333730697501096074120141565799713134765625	0.0	8436.99457248052931390702724456787109375	0.0	1	1	1	1
4099	S6	2019	6	20	19	198.89168501436000724424957297742366790771484375	268.99518225626599132738192565739154815673828125	120.1486343426650051924298168160021305084228515625	20.602247254232299411569329095073044300079345703125	72.0106737801198022452808800153434276580810546875	2.566573028567800118793229557923041284084320068359375	155.916666612027000837770174257457256317138671875	0.0	3934.55587327478997394791804254055023193359375	0.0	1	1	1	1
4100	S6	2019	6	20	20	57.30988241929269833008220302872359752655029296875	47.19666541281799965190657530911266803741455078125	48.95919397500839664871818968094885349273681640625	19.211999899057200735796868684701621532440185546875	76.2818454683743993882671929895877838134765625	1.7898461513335799377699686374398879706859588623046875	41.41666616002719791822528350166976451873779296875	0.0	1211.159914731980052238213829696178436279296875	0.0	1	1	1	1
4101	S6	2019	6	20	21	8.255528689964020117031395784579217433929443359375	0.341928116234551993102286360226571559906005859375	8.349260514188809878532993025146424770355224609375	18.69967834129209904858726076781749725341796875	76.142443494398094117059372365474700927734375	1.9623794196311299398161054341471754014492034912109375	5.25000017175141042713448769063688814640045166015625	0.0	172.41965016970999613477033562958240509033203125	0.0	1	1	1	1
4102	S6	2019	6	20	22	0	0	0	0	0	0	0	0.0	1.4022999675944800568316850331029854714870452880859375	0.0	1	1	1	0
4103	S6	2019	6	20	23	0	0	0	0	0	0	0	0.0	0	0.0	1	1	1	0
4104	S6	2019	6	20	24	0	0	0	0	0	0	0	0.0	0	0.0	1	1	1	0
4105	S6	2019	6	21	1	0	0	0	0	0	0	0	0.0	0	0.0	1	1	1	0
4106	S6	2019	6	21	2	0	0	0	0	0	0	0	0.0	0	0.0	1	1	1	0
4107	S6	2019	6	21	3	0	0	0	0	0	0	0	0.0	0	0.0	1	1	1	0
4108	S6	2019	6	21	4	0	0	0	0	0	0	0	0.0	0	0.0	1	1	1	0
4109	S6	2019	6	21	5	24.761426027587699394416631548665463924407958984375	0.397749093996341007706263326326734386384487152099609375	24.9338675825839999333766172640025615692138671875	16.222968320543198927907724282704293727874755859375	82.1201413427560993341103312559425830841064453125	1.4212014095943299452073915745131671428680419921875	17.6666672632564001332866610027849674224853515625	0.0	492.96089238487098782570683397352695465087890625	0.0	1	1	1	1
4110	S6	2019	6	21	6	120.7295729531179944160612649284303188323974609375	32.11989266044560054069734178483486175537109375	112.9493359035910060583773883990943431854248046875	16.189444526036499638621535268612205982208251953125	80.578333494398293623817153275012969970703125	1.906111110332930014266139551182277500629425048828125	86.833334217468205906698131002485752105712890625	0.0	2555.218932529280209564603865146636962890625	0.0	1	1	1	1
4111	S6	2019	6	21	7	236.714954763218003108704579062759876251220703125	286.6542788376340240574791096150875091552734375	133.907155664415995488525368273258209228515625	16.772173851123699961362945032306015491485595703125	77.6405805283697958429911523126065731048583984375	1.54666666509448003097304535913281142711639404296875	167.91666919986300854361616075038909912109375	0.0	4750.5595038334204218699596822261810302734375	0.0	1	1	1	1
4112	S6	2019	6	21	8	382.18159979193802655572653748095035552978515625	467.5647064691639798184041865170001983642578125	141.499291843211011610037530772387981414794921875	17.221597863372199554987673764117062091827392578125	73.6420116988864066343012382276356220245361328125	1.7538461512362399918885103033971972763538360595703125	279.24999780952902028730022720992565155029296875	0.0	8044.860273599630090757273137569427490234375	0.0	1	1	1	1
4113	S6	2019	6	21	9	549.362820057385988548048771917819976806640625	596.057402381233032429008744657039642333984375	190.2536786111550100031308829784393310546875	18.708988709396098926163176656700670719146728515625	64.7317412622858938675562967546284198760986328125	1.4828651721557799536554966834955848753452301025390625	524.1666585206979789290926419198513031005859375	0.0	14291.559875011400436051189899444580078125	0.0	1	1	1	1
4114	S6	2019	6	21	10	591.329270518908970188931562006473541259765625	280.25128291777497224757098592817783355712890625	385.0948075727980040028342045843601226806640625	19.38393951762800071492165443487465381622314453125	63.1600000208074021657012053765356540679931640625	1.178181817856700064339747768826782703399658203125	585.25000512599899593624286353588104248046875	0.0	15839.5680983860002015717327594757080078125	0.0	1	1	1	1
4115	S6	2019	6	21	11	812.3709970963440127889043651521205902099609375	800.3651237436259862079168669879436492919921875	178.346367322058000581819214858114719390869140625	19.91786741866840060311005800031125545501708984375	56.3533140946532995485540595836937427520751953125	1.8167146987117999135108448172104544937610626220703125	898.5833326975499630862032063305377960205078125	0.0	22751.71816349029904813505709171295166015625	0.0	1	1	1	1
4116	S6	2019	6	21	12	761.841606734325978322885930538177490234375	669.7845000478190513604204170405864715576171875	204.444657227703004309660173021256923675537109375	20.260436227388399998972090543247759342193603515625	52.13862948551349774106711265631020069122314453125	1.942990655653940024194525904022157192230224609375	785.4166726271249672208796255290508270263671875	0.0	19368.5218294461010373197495937347412109375	0.0	1	1	1	1
4117	S6	2019	6	21	13	282.4962411488739917331258766353130340576171875	3.1152824575476500967852189205586910247802734375	277.859081204089989114436320960521697998046875	19.240067234745698243614242528565227985382080078125	58.6521885804454967683341237716376781463623046875	2.30639730318628011218606843613088130950927734375	231.583334505555995974646066315472126007080078125	0.0	6645.378703872340338421054184436798095703125	0.0	1	1	1	1
4118	S6	2019	6	21	14	429.7906228770380039350129663944244384765625	28.739867003993200711420286097563803195953369140625	402.94546333455099329512449912726879119873046875	17.957764068745600383181226789020001888275146484375	71.0608697500288002402157871983945369720458984375	2.2173913015712098939502538996748626232147216796875	405.33333582182598320287070237100124359130859375	0.0	11228.4800956645995029248297214508056640625	0.0	1	1	1	1
4119	S6	2019	6	21	15	713.7460109095419511504587717354297637939453125	458.55565511110802390248863957822322845458984375	366.4839813724639725478482432663440704345703125	20.106451692888800408809402142651379108428955078125	58.0009679363619028436005464754998683929443359375	2.293548388731089904268856116686947643756866455078125	701.2499930957950482479645870625972747802734375	0.0	17616.47589504710049368441104888916015625	0.0	1	1	1	1
4120	S6	2019	6	21	16	639.5497182387499606193159706890583038330078125	791.5710868675140545747126452624797821044921875	125.2510154538030064941267482936382293701171875	18.159233345802601178320401231758296489715576171875	65.5790939463970943279491621069610118865966796875	1.74250870371943999970199001836590468883514404296875	600.916666289170962045318447053432464599609375	0.0	15482.695852716700755991041660308837890625	0.0	1	1	1	1
4121	S6	2019	6	21	17	389.3457273568679966047056950628757476806640625	284.8933177250979724703938700258731842041015625	231.603640655973009643275872804224491119384765625	19.192836112406698845234132022596895694732666015625	55.90537284737199996698109316639602184295654296875	2.523283578210799849017575979814864695072174072265625	413.1666707495850232589873485267162322998046875	0.0	10777.793894211399674532003700733184814453125	0.0	1	1	1	1
4122	S6	2019	6	21	18	244.2441221830860058616963215172290802001953125	281.10492026007199228843091987073421478271484375	120.48194214523999789889785461127758026123046875	18.966225181983698888643630198203027248382568359375	55.33278164642530327910208143293857574462890625	2.277152318532099872783192040515132248401641845703125	202.916667175789001476005068980157375335693359375	0.0	5264.6342962980297670583240687847137451171875	0.0	1	1	1	1
4123	S6	2019	6	21	19	215.320775602086001754287281073629856109619140625	401.252022158111003591329790651798248291015625	107.87402826800899902082164771854877471923828125	18.93484419803780127722347970120608806610107421875	56.347591940471801308376598171889781951904296875	2.226345607815650051719558177865110337734222412109375	167.49999920527199037678656168282032012939453125	0.0	4067.43233402567011580686084926128387451171875	0.0	1	1	1	1
4124	S6	2019	6	21	20	85.5338872321566014989002724178135395050048828125	229.28259743604400000549503602087497711181640625	39.73169523253469748169663944281637668609619140625	18.224811969843099035415434627793729305267333984375	52.12631569769140327252898714505136013031005859375	2.9541353395110601098849656409583985805511474609375	32.83333374808230331609593122266232967376708984375	0.0	1168.676325430469887578510679304599761962890625	0.0	1	1	1	1
4125	S6	2019	6	21	21	15.4224299217791998017901278217323124408721923828125	5.82344083099606013576021723565645515918731689453125	15.923480160692900398089477675966918468475341796875	17.071276451678901509012575843371450901031494140625	60.94627684735230133128425222821533679962158203125	2.768085099598189824376959222718141973018646240234375	8.250000275438640784386734594590961933135986328125	0.0	317.37758979822302762840990908443927764892578125	0.0	1	1	1	1
4126	S6	2019	6	21	22	0	0	0	0	0	0	0	0.0	15.0645082661259994694091801648028194904327392578125	0.0	1	1	1	0
4127	S6	2019	6	21	23	0	0	0	0	0	0	0	0.0	0	0.0	1	1	1	0
4128	S6	2019	6	21	24	0	0	0	0	0	0	0	0.0	0	0.0	1	1	1	0
4129	S6	2019	6	22	1	0	0	0	0	0	0	0	0.0	0	0.0	1	1	1	0
4130	S6	2019	6	22	2	0	0	0	0	0	0	0	0.0	0	0.0	1	1	1	0
4131	S6	2019	6	22	3	0	0	0	0	0	0	0	0.0	0	0.0	1	1	1	0
4132	S6	2019	6	22	4	12.579771844167499494915318791754543781280517578125	5.49100212114197017143624179880134761333465576171875	13.0571977827283998152552157989703118801116943359375	12.9126983218722006796497225877828896045684814453125	79.6111112322125933360439375974237918853759765625	1.65396824479102999561064279987476766109466552734375	2.5833333590223102049776571220718324184417724609375	0.0	135.82296669483099549324833787977695465087890625	0.0	1	1	1	1
4133	S6	2019	6	22	5	44.66911583933330120999016799032688140869140625	116.6130683867410056109292781911790370941162109375	27.640805038912500180003917193971574306488037109375	13.2224137947477000665230661979876458644866943359375	78.4678163638059942286417935974895954132080078125	1.899425286328650042122490049223415553569793701171875	20.250000059604499114129794179461896419525146484375	0.0	777.678151925402971755829639732837677001953125	0.0	1	1	1	1
4134	S6	2019	6	22	6	190.139553387959011843122425489127635955810546875	588.87704900105700289714150130748748779296875	51.013903776804596645888523198664188385009765625	14.16027783552799945709921303205192089080810546875	75.214444520738396704473416320979595184326171875	2.029722223762000066216160121257416903972625732421875	40.33333373566450319458454032428562641143798828125	0.0	1945.943675935259989273617975413799285888671875	0.0	1	1	1	1
4135	S6	2019	6	22	7	290.88748330508900608037947677075862884521484375	568.0974477224490328808315098285675048828125	87.90309247409589943345054052770137786865234375	15.061176437490100710192564292810857295989990234375	69.7135291828827945437296875752508640289306640625	1.967058825580509928698802468716166913509368896484375	209.58333400388301015482284128665924072265625	0.0	6022.2096592187999704037792980670928955078125	0.0	1	1	1	1
4136	S6	2019	6	22	8	331.0772783072890206312877126038074493408203125	379.99322155390501620786380954086780548095703125	141.937543954059009365664678625762462615966796875	15.4442675766670998172003237414173781871795654296875	66.5633759468224042166184517554938793182373046875	1.625159235327100049062210018746554851531982421875	216.1666676402099938059109263122081756591796875	0.0	5922.38724231719970703125	0.0	1	1	1	1
4137	S6	2019	6	22	9	647.239485430294053003308363258838653564453125	751.3955679834190277688321657478809356689453125	181.993454972666995672625489532947540283203125	17.468934866098198455119927530176937580108642578125	56.470709862793597721974947489798069000244140625	1.1541420121693699574194624801748432219028472900390625	563.333332538604054207098670303821563720703125	0.0	15629.262030124600642011500895023345947265625	0.0	1	1	1	1
4138	S6	2019	6	22	10	551.4624785042359462750027887523174285888671875	501.99222320059698176919482648372650146484375	196.302404931960012390845804475247859954833984375	17.19125356201519849719261401332914829254150390625	57.1419823649325024916834081523120403289794921875	1.0705539368679499734327009718981571495532989501953125	534.0833303829050464628380723297595977783203125	0.0	14771.947592496799188666045665740966796875	0.0	1	1	1	1
4139	S6	2019	6	22	11	824.550175984699990294757299125194549560546875	844.351726357351026308606378734111785888671875	187.761866452400994376148446463048458099365234375	18.53742697085549906432788702659308910369873046875	51.57690050448589857978731743060052394866943359375	1.0795321663220700525442907746764831244945526123046875	870.2499990661959827775717712938785552978515625	0.0	21962.21436063439978170208632946014404296875	0.0	1	1	1	1
4140	S6	2019	6	22	12	913.348087056476970246876589953899383544921875	953.253684319390004020533524453639984130859375	131.696848826938008869547047652304172515869140625	19.390277671813901605446517351083457469940185546875	50.754444355434799263093736954033374786376953125	0.94611111523376500986870496490155346691608428955078125	1047.833328445750112223322503268718719482421875	0.0	25757.1867307026986964046955108642578125	0.0	1	1	1	1
4141	S6	2019	6	22	13	924.3790373060429601537180133163928985595703125	960.413832939995018023182637989521026611328125	103.9380283567639935426996089518070220947265625	19.98861109415690151536182384006679058074951171875	46.9947222391763972382250358350574970245361328125	0.8986111099521310041637889298726804554462432861328125	1057.99998839694990238058380782604217529296875	0.0	25540.54546356200080481357872486114501953125	0.0	1	1	1	1
4142	S6	2019	6	22	14	878.075750596030047745443880558013916015625	929.7045444936060221152729354798793792724609375	113.3672010112740053955349139869213104248046875	20.065921719513699628123504226095974445343017578125	48.18128489915209655691796797327697277069091796875	0.88491620239931700897528799032443203032016754150390625	1017.0833369096100113893044181168079376220703125	0.0	24173.9860375721982563845813274383544921875	0.0	1	1	1	1
4143	S6	2019	6	22	15	798.8318700282840154613950289785861968994140625	934.8002839075079464237205684185028076171875	91.186540619665805706972605548799037933349609375	20.076750715239700895153873716481029987335205078125	49.0439777320840022412085090763866901397705078125	1.0680672264232600188194055590429343283176422119140625	911.0000034173330050180084072053432464599609375	0.0	22251.09461943299902486614882946014404296875	0.0	1	1	1	1
4144	S6	2019	6	22	16	683.5548528035479876052704639732837677001953125	914.4146197848849624278955161571502685546875	72.2644079314336948982600006274878978729248046875	19.673055548137998727042941027320921421051025390625	50.14222208658849666562673519365489482879638671875	1.218888889170349987267627511755563318729400634765625	759.8333259423569643331575207412242889404296875	0.0	18775.60377120969860698096454143524169921875	0.0	1	1	1	1
4145	S6	2019	6	22	17	550.325853898790001039742492139339447021484375	869.1026055230030351594905368983745574951171875	68.8568598535324980502991820685565471649169921875	19.663611035876801480526410159654915332794189453125	49.94055546654590216348879039287567138671875	0.99444444353381700185678937486954964697360992431640625	578.916668891906056160223670303821563720703125	0.0	14434.518794218600305612199008464813232421875	0.0	1	1	1	1
4146	S6	2019	6	22	18	376.47034335666199922343366779386997222900390625	707.4764331393770362410577945411205291748046875	76.8836858537462006779605871997773647308349609375	19.081666692097901005809035268612205982208251953125	51.0763888570997011129293241538107395172119140625	0.9725000015563429744958057199255563318729400634765625	345.833331346512977688689716160297393798828125	0.0	8524.996221065479403478093445301055908203125	0.0	1	1	1	1
4147	S6	2019	6	22	19	260.5932212829590071123675443232059478759765625	661.9760150485559506705612875521183013916015625	68.6409365865919056659549823962152004241943359375	19.313611168331501488637513830326497554779052734375	47.91583330366339765760130831040441989898681640625	0.7130555568469889582416953999199904501438140869140625	183.0000008145970014084014110267162322998046875	0.0	4183.402424057299867854453623294830322265625	0.0	1	1	1	1
4148	S6	2019	6	22	20	64.0137980851259982273404602892696857452392578125	129.452240290514993148462963290512561798095703125	38.83087165427929932093320530839264392852783203125	17.7026515873995009542340994812548160552978515625	49.24015146313289648105637752451002597808837890625	0.8545454555388649620084606794989667832851409912109375	26.5833333445091994917675037868320941925048828125	0.0	1057.09673961002999931224621832370758056640625	0.0	1	1	1	1
4149	S6	2019	6	22	21	20.519330803777098282125734840519726276397705078125	6.7833441450247402570994381676428020000457763671875	20.953098391143299750183359719812870025634765625	16.265727746094800210130415507592260837554931640625	60.4530517506486972933998913504183292388916015625	0.8765258250382019777902087298571132123470306396484375	6.33333340131985966792171893757767975330352783203125	0.0	330.73305990546697330501046963036060333251953125	0.0	1	1	1	1
4150	S6	2019	6	22	22	0	0	0	0	0	0	0	0.0	6.498691470672650183360019582323729991912841796875	0.0	1	1	1	0
4151	S6	2019	6	22	23	0	0	0	0	0	0	0	0.0	0	0.0	1	1	1	0
4152	S6	2019	6	22	24	0	0	0	0	0	0	0	0.0	0	0.0	1	1	1	0
4153	S6	2019	6	23	1	0	0	0	0	0	0	0	0.0	0	0.0	1	1	1	0
4154	S6	2019	6	23	2	0	0	0	0	0	0	0	0.0	0	0.0	1	1	1	0
4155	S6	2019	6	23	3	0	0	0	0	0	0	0	0.0	0	0.0	1	1	1	0
4156	S6	2019	6	23	4	9.14242144855293048522071330808103084564208984375	1.489085449358900081762158151832409203052520751953125	9.312098541775259974428990972228348255157470703125	10.1567568134616994512953169760294258594512939453125	85.8243246336241014660117798484861850738525390625	0.70540540725798195342832741516758687794208526611328125	2.333333385953050065353409081581048667430877685546875	0.0	100.12729174923100572414114139974117279052734375	0.0	1	1	1	1
4157	S6	2019	6	23	5	45.807267623288197455622139386832714080810546875	125.4181452182429978847721940837800502777099609375	27.12928672347749881055278819985687732696533203125	10.44821425846640039480917039327323436737060546875	84.923511686779193041729740798473358154296875	0.78541666783747199342968769997241906821727752685546875	21.333333260069299086580940638668835163116455078125	0.0	815.645824496946033832500688731670379638671875	0.0	1	1	1	1
4158	S6	2019	6	23	6	191.76502547793899111638893373310565948486328125	634.9642176310220520463190041482448577880859375	42.47465355131360098539516911841928958892822265625	14.11972228421100084005956887267529964447021484375	73.909722412956995185595587827265262603759765625	0.70388889478312599567999541250173933804035186767578125	40.083333229025100763465161435306072235107421875	0.0	1974.6740559736799696111120283603668212890625	0.0	1	1	1	1
4159	S6	2019	6	23	7	332.80507689581901331621338613331317901611328125	751.4684033711749862050055526196956634521484375	56.9769052399528987962185055948793888092041015625	16.7686112350886986632758635096251964569091796875	65.4841670354206968340804451145231723785400390625	0.65694444924592898527038187239668332040309906005859375	196.916667123634994140957132913172245025634765625	0.0	5707.50964681303958059288561344146728515625	0.0	1	1	1	1
4160	S6	2019	6	23	8	475.69087371826100252292235381901264190673828125	794.8447597079799606945016421377658843994140625	79.5881489329866980142469401471316814422607421875	17.693611012564698370397309190593659877777099609375	63.2933331913418015801653382368385791778564453125	1.0038888885743000312089634462608955800533294677734375	387.416663269201990260626189410686492919921875	0.0	11013.08129231130078551359474658966064453125	0.0	1	1	1	1
4161	S6	2019	6	23	9	625.5847360399029639665968716144561767578125	877.7395058525929698589607141911983489990234375	80.9264167997572059221056406386196613311767578125	18.41083335876459869950849679298698902130126953125	59.07666669421720229138372815214097499847412109375	1.2549999993708300660699705986189655959606170654296875	596.4166770378730006996192969381809234619140625	0.0	16341.077327728200543788261711597442626953125	0.0	1	1	1	1
4162	S6	2019	6	23	10	729.4254860772019810610800050199031829833984375	890.6968526204419731584494002163410186767578125	89.743965148925695984871708787977695465087890625	19.483611011505100663043776876293122768402099609375	50.33888918558749736575919087044894695281982421875	1.1638888912068399150712139089591801166534423828125	758.9999983708049740016576834022998809814453125	0.0	19870.72038650510148727335035800933837890625	0.0	1	1	1	1
4163	S6	2019	6	23	11	805.4099958631719573531881906092166900634765625	916.4046873304570226537180133163928985595703125	95.26206328074130169625277630984783172607421875	20.387222321828200932714025839231908321380615234375	44.58361113866170200026317615993320941925048828125	1.1350000007284999359313815148198045790195465087890625	911.583344141640964153339155018329620361328125	0.0	22964.1333818435014109127223491668701171875	0.0	1	1	1	1
4164	S6	2019	6	23	12	849.953168933310962529503740370273590087890625	870.89877467208998496062122285366058349609375	131.025837566075011864086263813078403472900390625	20.88426968220910140416890499182045459747314453125	43.7752806631365984912918065674602985382080078125	1.159550560156950016477139797643758356571197509765625	998.3333249886840121689601801335811614990234375	0.0	24369.80175971980133908800780773162841796875	0.0	1	1	1	1
4165	S6	2019	6	23	13	842.21588270399297471158206462860107421875	778.1072208828389875634456984698772430419921875	174.844611591762003399708191864192485809326171875	21.313333373599501641137976548634469509124755859375	41.50222213533189830059200176037847995758056640625	1.16888888817693992194790553185157477855682373046875	975.83332657813798505230806767940521240234375	0.0	23447.91964689889937289990484714508056640625	0.0	1	1	1	1
4166	S6	2019	6	23	14	859.5546856350359803400351665914058685302734375	934.7305207994239708568784408271312713623046875	90.42338231404619364184327423572540283203125	21.804999992582498435922389035113155841827392578125	41.80111130608450054069180623628199100494384765625	1.511388886637150097413950788904912769794464111328125	999.3333419163999451484414748847484588623046875	0.0	23848.1628100076995906420052051544189453125	0.0	1	1	1	1
4167	S6	2019	6	23	15	773.381057400172949201078154146671295166015625	913.1510281032980174131807871162891387939453125	82.38282498253710173230501823127269744873046875	22.060555532243501630773607757873833179473876953125	37.517777718437997691580676473677158355712890625	1.168055556962880103810675791464745998382568359375	883.66667429606104633421637117862701416015625	0.0	21356.26363754269914352335035800933837890625	0.0	1	1	1	1
4168	S6	2019	6	23	16	678.20827653672904489212669432163238525390625	908.128705003525965366861782968044281005859375	69.686697726779499362237402237951755523681640625	22.6380555046929003992772777564823627471923828125	35.0480554262797028286513523198664188385009765625	1.327777777777769951939035308896563947200775146484375	754.6666761239370089242584072053432464599609375	0.0	18455.78070481610120623372495174407958984375	0.0	1	1	1	1
4169	S6	2019	6	23	17	542.3879135131829798410763032734394073486328125	821.8405690511059447089792229235172271728515625	85.467814212375202487237402237951755523681640625	22.237777826521099910905832075513899326324462890625	34.6605557229783016737201251089572906494140625	1.5619444401727700100224183188402093946933746337890625	566.7500098546330491444678045809268951416015625	0.0	14057.40803480139948078431189060211181640625	0.0	1	1	1	1
4170	S6	2019	6	23	18	377.42270541390297466932679526507854461669921875	674.7138760282459770678542554378509521484375	86.16524322849789996325853280723094940185546875	21.910306447063600643332392792217433452606201171875	37.12116988986979748688099789433181285858154296875	1.3211699133961900542999501340091228485107421875	347.33333066105802799938828684389591217041015625	0.0	8495.362609624860851909033954143524169921875	0.0	1	1	1	1
4171	S6	2019	6	23	19	210.922854677835999837043345905840396881103515625	420.67389170328698355660890229046344757080078125	88.421780310736693309081601910293102264404296875	19.63055536482060148273376398719847202301025390625	52.66833320193819645282928831875324249267578125	2.21944444725910017268688534386456012725830078125	153.75000114241998971920111216604709625244140625	0.0	3664.8284246524299305747263133525848388671875	0.0	1	1	1	1
4172	S6	2019	6	23	20	75.35023358943709581581060774624347686767578125	76.6901222202890977541756001301109790802001953125	62.0421377837845966496388427913188934326171875	18.20536286146479909575646161101758480072021484375	52.64164027505859877464899909682571887969970703125	1.039116720107819968887952200020663440227508544921875	46.58333367357659682284065638668835163116455078125	0.0	1455.68258439501005341298878192901611328125	0.0	1	1	1	1
4173	S6	2019	6	23	21	24.979256215613400371466923388652503490447998046875	0.917078776626885971978708766982890665531158447265625	25.6671575803434990348250721581280231475830078125	17.0524345212214001321626710705459117889404296875	55.534457045994400914423749782145023345947265625	0.56554307685362703583820120911695994436740875244140625	10.7499999576247997623568153358064591884613037109375	0.0	421.0506825086960134285618551075458526611328125	0.0	1	1	1	1
4174	S6	2019	6	23	22	0	0	0	0	0	0	0	0.0	2.42287506504603999957225823891349136829376220703125	0.0	1	1	1	0
4175	S6	2019	6	23	23	0	0	0	0	0	0	0	0.0	0	0.0	1	1	1	0
4176	S6	2019	6	23	24	0	0	0	0	0	0	0	0.0	0	0.0	1	1	1	0
4177	S6	2019	6	24	1	0	0	0	0	0	0	0	0.0	0	0.0	1	1	1	0
4178	S6	2019	6	24	2	0	0	0	0	0	0	0	0.0	0	0.0	1	1	1	0
4179	S6	2019	6	24	3	0	0	0	0	0	0	0	0.0	0	0.0	1	1	1	0
4180	S6	2019	6	24	4	9.33304592925058074115440831519663333892822265625	0.97968760678465904856437873604591004550457000732421875	9.570818444372900302141715656034648418426513671875	11.7929576820051007501888307160697877407073974609375	78.8704224707374947911375784315168857574462890625	0.33239437198974697285080992514849640429019927978515625	1.7500000346141499907304250882589258253574371337890625	0.0	86.171449317286402447280124761164188385009765625	0.0	1	1	1	1
4181	S6	2019	6	24	5	60.9028867978100976188216009177267551422119140625	122.160762340090997213337686844170093536376953125	42.60907100097470134869581670500338077545166015625	12.3084795405292997116930564516223967075347900390625	78.2119882148607956651176209561526775360107421875	0.265789477448714006602159543035668320953845977783203125	33.8333333687235011666416539810597896575927734375	0.0	1168.9409123112700399360619485378265380859375	0.0	1	1	1	1
4182	S6	2019	6	24	6	103.4920329752350056651266640983521938323974609375	169.5285532856499912668368779122829437255859375	59.97404420929419899266576976515352725982666015625	14.116099100732899529475616873241961002349853515625	73.6622289887890957515992340631783008575439453125	0.289164091503657016968276138868532143533229827880859375	48.66666688273350160898189642466604709625244140625	0.0	1738.4346102674799112719483673572540283203125	0.0	1	1	1	1
4183	S6	2019	6	24	7	309.8207143147780016079195775091648101806640625	456.946516291299985823570750653743743896484375	146.92956754896300708423950709402561187744140625	16.132222260369101007881909026764333248138427734375	69.6855558607312985941462102346122264862060546875	0.72055555813842298018556675742729566991329193115234375	211.583332469064004044412286020815372467041015625	0.0	6087.4110758304295814014039933681488037109375	0.0	1	1	1	1
4184	S6	2019	6	24	8	399.2733339945469879239681176841259002685546875	343.03734904395201965598971582949161529541015625	229.20331832037999220119672827422618865966796875	18.521111181047199778504364076070487499237060546875	63.31833328670919769365355023182928562164306640625	0.65250000233451499465076039996347390115261077880859375	335.83333467443702602395205758512020111083984375	0.0	9563.74934315678910934366285800933837890625	0.0	1	1	1	1
4185	S6	2019	6	24	9	536.9380705939389599734568037092685699462890625	571.6329146703079686631099320948123931884765625	176.819613647459988214905024506151676177978515625	20.634444618225000311895200866274535655975341796875	51.49666680230029669473879039287567138671875	1.003333333714139907755225067376159131526947021484375	512.3333359758049709853366948664188385009765625	0.0	13990.281760692500029108487069606781005859375	0.0	1	1	1	1
4186	S6	2019	6	24	10	742.3157675849059842221322469413280487060546875	906.232283528644984471611678600311279296875	92.2179398006862953707241103984415531158447265625	22.001666673024399045743848546408116817474365234375	45.74722222222219869536274927668273448944091796875	1.4313888856106300462300850995234213769435882568359375	771.5833336114880012246430851519107818603515625	0.0	19984.095732370900805108249187469482421875	0.0	1	1	1	1
4187	S6	2019	6	24	11	802.675893317328018383705057203769683837890625	916.4286266750759750721044838428497314453125	91.6162492964001984319111215882003307342529296875	22.538333394792299912978705833666026592254638671875	41.35444477928999873483917326666414737701416015625	1.9497222224043400107262868914403952658176422119140625	896.2499946355809470333042554557323455810546875	0.0	22440.97324212389867170713841915130615234375	0.0	1	1	1	1
4188	S6	2019	6	24	12	829.222567077466010232456028461456298828125	746.508074683398945126100443303585052490234375	214.519103493863013909503933973610401153564453125	22.934261778934999398416039184667170047760009765625	40.3267409662017968230429687537252902984619140625	2.338997211878009796492960958858020603656768798828125	941.0000095764720526858582161366939544677734375	0.0	23122.88284301750172744505107402801513671875	0.0	1	1	1	1
4189	S6	2019	6	24	13	767.445091332328956923447549343109130859375	540.2408140288449658328318037092685699462890625	304.10365293290800536851747892796993255615234375	22.63444452285759922460783855058252811431884765625	42.80611101786289651727201999165117740631103515625	2.332222216079629983909171642153523862361907958984375	868.08331807454896988929249346256256103515625	0.0	21430.530349413500516675412654876708984375	0.0	1	1	1	1
4190	S6	2019	6	24	14	818.988099585639020006055943667888641357421875	742.042843712700005198712460696697235107421875	207.774439387851003857576870359480381011962890625	22.786666764153299169493038789369165897369384765625	40.433888732062399640199146233499050140380859375	2.255555549595090081282933169859461486339569091796875	950.0833352406799576783669181168079376220703125	0.0	23052.5885820387993589974939823150634765625	0.0	1	1	1	1
4191	S6	2019	6	24	15	745.6165422227639965058187954127788543701171875	715.46430155436200948315672576427459716796875	202.280481465657004491731640882790088653564453125	22.443333424462199587878785678185522556304931640625	41.559444745381597385858185589313507080078125	2.67861111048194988626391932484693825244903564453125	851.249997814496964565478265285491943359375	0.0	21022.52594629919985891319811344146728515625	0.0	1	1	1	1
4192	S6	2019	6	24	16	624.9009869893390032302704639732837677001953125	640.3863581339510346879251301288604736328125	193.618646918401992707003955729305744171142578125	22.009999879201199490807994152419269084930419921875	43.9094444910684984506588079966604709625244140625	2.908611110183919823413134508882649242877960205078125	693.7500039736420376357273198664188385009765625	0.0	17435.41075785949942655861377716064453125	0.0	1	1	1	1
4193	S6	2019	6	24	17	469.750762515596989032928831875324249267578125	488.5349860297300210731918923556804656982421875	195.441771782768995535661815665662288665771484375	21.897221999698199823569666477851569652557373046875	44.9777776930067005878299823962152004241943359375	2.976944444742459783270760453888215124607086181640625	492.000003655751015685382299125194549560546875	0.0	12550.71953932440010248683393001556396484375	0.0	1	1	1	1
4194	S6	2019	6	24	18	349.088546032375006689107976853847503662109375	394.8993682225540169383748434484004974365234375	181.155592812431990523691638372838497161865234375	21.300000074174601394361161510460078716278076171875	51.20833320617669670582472463138401508331298828125	2.759999993112349780943759469664655625820159912109375	334.000001351038008579052984714508056640625	0.0	8484.74919795989990234375	0.0	1	1	1	1
4195	S6	2019	6	24	19	220.79636792076900064785149879753589630126953125	396.9376333024760015177889727056026458740234375	102.9304936726880015385177102871239185333251953125	20.471666717529199530645200866274535655975341796875	60.5833334604898965380925801582634449005126953125	2.37805555032359006162323566968552768230438232421875	166.583333785334986032466986216604709625244140625	0.0	3972.00668603180019999854266643524169921875	0.0	1	1	1	1
4196	S6	2019	6	24	20	53.82265039020109753664655727334320545196533203125	8.8800519027643698422025408945046365261077880859375	52.5356806649102026085529359988868236541748046875	18.63555552164709894213956431485712528228759765625	67.939999622768795006777509115636348724365234375	2.12138888935248015599199788994155824184417724609375	40.08333291858429703324873116798698902130126953125	0.0	1155.919880916670081205666065216064453125	0.0	1	1	1	1
4197	S6	2019	6	24	21	30.70615738171790098931523971259593963623046875	5.25125715169960027850493133882991969585418701171875	31.083281058531500917752055102027952671051025390625	18.085897384545699395630435901693999767303466796875	68.182692552224096971258404664695262908935546875	2.438782041462559835309775735368020832538604736328125	19.666666785875900558266948792152106761932373046875	0.0	654.3259024620059562948881648480892181396484375	0.0	1	1	1	1
4198	S6	2019	6	24	22	0	0	0	0	0	0	0.1666666745829079865348631983579252846539020538330078125	0.0	13.9147999385993994536647733184508979320526123046875	0.0	1	1	1	0
4199	S6	2019	6	24	23	0	0	0	0	0	0	0	0.0	0	0.0	1	1	1	0
4200	S6	2019	6	24	24	0	0	0	0	0	0	0	0.0	0	0.0	1	1	1	0
4201	S6	2019	6	25	1	0	0	0	0	0	0	0	0.0	0	0.0	1	1	1	0
4202	S6	2019	6	25	2	0	0	0	0	0	0	0	0.0	0	0.0	1	1	1	0
4203	S6	2019	6	25	3	0	0	0	0	0	0	0	0.0	0	0.0	1	1	1	0
4204	S6	2019	6	25	4	12.8781091182127997996076373965479433536529541015625	0.31261081086552600094563558741356246173381805419921875	13.295717317124999823363395989872515201568603515625	14.6402175219162007380191425909288227558135986328125	90.2836975429369061885154224000871181488037109375	2.082608685545289883833675048663280904293060302734375	2.7499999948000901639488802175037562847137451171875	0.0	108.536966106232995343816583044826984405517578125	0.0	1	1	1	1
4205	S6	2019	6	25	5	40.53431513044559864056282094679772853851318359375	15.4380297554862995212943133083172142505645751953125	38.683680709203002834328799508512020111083984375	14.563333347108599724606392555870115756988525390625	91.3894448174369955495421891100704669952392578125	2.055555554644919791229540351196192204952239990234375	26.00000022600089977231618831865489482879638671875	0.0	807.355251784131041858927346765995025634765625	0.0	1	1	1	1
4206	S6	2019	6	25	6	147.8858574973210124881006777286529541015625	256.046725103590006256126798689365386962890625	86.4402115503946930630263523198664188385009765625	15.7383333365122002334146600333042442798614501953125	89.3522218492295934311187011189758777618408203125	1.816944441199300097622426619636826217174530029296875	63.24999996771399679573733010329306125640869140625	0.0	2254.51953957478008305770345032215118408203125	0.0	1	1	1	1
4207	S6	2019	6	25	7	272.7813248528369740597554482519626617431640625	436.58724174499502623802982270717620849609375	114.3773665957979943641475983895361423492431640625	18.2333333757188000845417263917624950408935546875	82.2994446648491049245421891100704669952392578125	2.01416666631897012251783962710760533809661865234375	180.499999473490987611512537114322185516357421875	0.0	5162.0242893695904058404266834259033203125	0.0	1	1	1	1
4208	S6	2019	6	25	8	370.47265205383297370644868351519107818603515625	429.423593266805028179078362882137298583984375	151.58750144110700830424320884048938751220703125	20.118888770209398586530369357205927371978759765625	76.626110839843704525264911353588104248046875	2.459722211625840149196164929890073835849761962890625	308.8333321114370164650608785450458526611328125	0.0	8707.53977696098081651143729686737060546875	0.0	1	1	1	1
4209	S6	2019	6	25	9	598.3880758497449505739496089518070220947265625	772.4449078877760257455520331859588623046875	120.68837375640799791653989814221858978271484375	21.95222216712100049562650383450090885162353515625	71.0450003729926038431585766375064849853515625	2.5905555515653500009420895366929471492767333984375	567.249993483226035095867700874805450439453125	0.0	15485.066513220399428973905742168426513671875	0.0	1	1	1	1
4210	S6	2019	6	25	10	710.1897616916229480921174399554729461669921875	807.1884870741099575752741657197475433349609375	129.807967228358990041670040227472782135009765625	22.9211111704507999320412636734545230865478515625	66.986110560099206168160890229046344757080078125	2.70444444053701982255688562872819602489471435546875	739.99999960263403409044258296489715576171875	0.0	19429.26867802930064499378204345703125	0.0	1	1	1	1
4211	S6	2019	6	25	11	659.4397417169990376351051963865756988525390625	525.983628943519988752086646854877471923828125	245.773917019200013100999058224260807037353515625	23.192437008983201707223997800610959529876708984375	65.598039664474100618463126011192798614501953125	2.87086835436794007847538523492403328418731689453125	712.666675448416981453192420303821563720703125	0.0	18422.73290952040042611770331859588623046875	0.0	1	1	1	1
4212	S6	2019	6	25	12	664.229666646320993095287121832370758056640625	351.7865014182190179781173355877399444580078125	364.83872095743799945921637117862701416015625	23.413333320617599753177273669280111789703369140625	65.4927771038478994114484521560370922088623046875	2.8911111116409298205098821199499070644378662109375	733.4166715542470456057344563305377960205078125	0.0	19002.39604711530046188272535800933837890625	0.0	1	1	1	1
4213	S6	2019	6	25	13	638.5255586412209822810837067663669586181640625	293.8846299754239907997543923556804656982421875	381.29045961167997802476747892796993255615234375	23.89666649500519923776664654724299907684326171875	63.90888888041170190490447566844522953033447265625	2.729999988112179920562994084320962429046630859375	691.333328684170965061639435589313507080078125	0.0	17749.60629145300117670558393001556396484375	0.0	1	1	1	1
4214	S6	2019	6	25	14	728.516120543222996275289915502071380615234375	431.1842207435839782192488200962543487548828125	371.07161269579597728807129897177219390869140625	24.25637388904770119779641390778124332427978515625	63.26855505492120101962427725084125995635986328125	3.020679879796400069125184018048457801342010498046875	792.9999977350220206062658689916133880615234375	0.0	20070.47466437019829754717648029327392578125	0.0	1	1	1	1
4215	S6	2019	6	25	15	744.7136150783959465115913189947605133056640625	751.3480684068459822810837067663669586181640625	175.635045835705994932141038589179515838623046875	24.774999915228899993735467432998120784759521484375	61.5016662597655994204615126363933086395263671875	3.11250000380807012589912119437940418720245361328125	843.66666773955103053594939410686492919921875	0.0	20804.93867397299982258118689060211181640625	0.0	1	1	1	1
4216	S6	2019	6	25	16	628.7793471992509921619785018265247344970703125	731.2061424574139891774393618106842041015625	138.607791294957991112823947332799434661865234375	24.432033198789600447753400658257305622100830078125	63.9701948458104965311576961539685726165771484375	3.04233982901719013369756794418208301067352294921875	702.1666765213000189760350622236728668212890625	0.0	17376.4104048410008545033633708953857421875	0.0	1	1	1	1
4217	S6	2019	6	25	17	502.64468383788999972239253111183643341064453125	657.4437659369569928458076901733875274658203125	138.853142717149012241861782968044281005859375	24.29499991734819985822468879632651805877685546875	64.8166667302449042153966729529201984405517578125	3.13472221543390983100607627420686185359954833984375	531.2500024835270551193389110267162322998046875	0.0	13202.51170794169956934638321399688720703125	0.0	1	1	1	1
4218	S6	2019	6	25	18	337.99779531690802514276583679020404815673828125	480.64838553534599441263708285987377166748046875	130.932034386527988090165308676660060882568359375	24.062777911292098309559150948189198970794677734375	65.684444597032296542238327674567699432373046875	2.755833330502110101178914192132651805877685546875	319.8333357771219880305579863488674163818359375	0.0	7842.3782885074697333038784563541412353515625	0.0	1	1	1	1
4219	S6	2019	6	25	19	171.41229924103498660770128481090068817138671875	220.540546634442989670787937939167022705078125	109.8368966044899934786371886730194091796875	22.84768673363949886834234348498284816741943359375	69.86405716756900119435158558189868927001953125	2.33487544174295980070610312395729124546051025390625	148.083331063389010751052410341799259185791015625	0.0	3612.35677699246980409952811896800994873046875	0.0	1	1	1	1
4220	S6	2019	6	25	20	69.3154904625632042325378279201686382293701171875	69.6633047065273984799205209128558635711669921875	58.37016790563409784908799338154494762420654296875	22.064488649368200867684208787977695465087890625	71.5971590388904957080740132369101047515869140625	2.04460226846012016466147542814724147319793701171875	45.750000048428802301714313216507434844970703125	0.0	1306.965116411440021693124435842037200927734375	0.0	1	1	1	1
4221	S6	2019	6	25	21	18.8451047166931999754524440504610538482666015625	0.98493318543784902363569244698737747967243194580078125	19.176566098445999131172357010655105113983154296875	21.208026700992601121242842054925858974456787109375	73.03545155094610663581988774240016937255859375	2.3150501663868201518425848917104303836822509765625	10.749999918819700184258181252516806125640869140625	0.0	340.17429105006198142291395924985408782958984375	0.0	1	1	1	1
4222	S6	2019	6	25	22	0	0	0	0	0	0	0	0.0	0	0.0	1	1	1	0
4223	S6	2019	6	25	23	0	0	0	0	0	0	0	0.0	0	0.0	1	1	1	0
4224	S6	2019	6	25	24	0	0	0	0	0	0	0	0.0	0	0.0	1	1	1	0
4225	S6	2019	6	26	1	0	0	0	0	0	0	0	0.0	0	0.0	1	1	1	0
4226	S6	2019	6	26	2	0	0	0	0	0	0	0	0.0	0	0.0	1	1	1	0
4227	S6	2019	6	26	3	0	0	0	0	0	0	0	0.0	0	0.0	1	1	1	0
4228	S6	2019	6	26	4	11.6125189636063996800885433913208544254302978515625	0.60531464296838499716812975748325698077678680419921875	11.9845372904901008581646237871609628200531005859375	18.0478262693984987663498031906783580780029296875	87.84695587158199714394868351519107818603515625	1.0495652170284899273866585645009763538837432861328125	2.9166666984868498957439442165195941925048828125	0.0	102.9848256536439947694816510193049907684326171875	0.0	1	1	1	1
4229	S6	2019	6	26	5	44.3819806098938016702959430404007434844970703125	41.67292796348530004024723893962800502777099609375	38.60997824139059986237043631263077259063720703125	18.236110941568998811135315918363630771636962890625	88.000555631849493920526583679020404815673828125	0.824722228282027014500954464892856776714324951171875	25.0000001396984004031764925457537174224853515625	0.0	824.639853710928946384228765964508056640625	0.0	1	1	1	1
4230	S6	2019	6	26	6	132.312559212578008782656979747116565704345703125	119.5842806001499951662481180392205715179443359375	106.1672582202480015212131547741591930389404296875	19.814444658491300543801116873510181903839111328125	84.0772220187717067574340035207569599151611328125	0.76361111427346795021975367490085773169994354248046875	80.750000352660293856388307176530361175537109375	0.0	2505.58143605788018248858861625194549560546875	0.0	1	1	1	1
4231	S6	2019	6	26	7	218.312746895684000492110499180853366851806640625	201.007692401937987369819893501698970794677734375	142.333145459493010775986476801335811614990234375	21.738333267635699286302042310126125812530517578125	78.1216670566135036324340035207569599151611328125	1.0263888915379799637861424344009719789028167724609375	158.58333185315001401249901391565799713134765625	0.0	4486.5501423676696504116989672183990478515625	0.0	1	1	1	1
4232	S6	2019	6	26	8	416.75644632975200920554925687611103057861328125	527.1432695176860079300240613520145416259765625	151.697246424356990246451459825038909912109375	24.82944437662759895601993775926530361175537109375	67.1111110263399979203313705511391162872314453125	1.1327777790526500911738594368216581642627716064453125	344.58333253860399736367980949580669403076171875	0.0	9476.959337790800418588332831859588623046875	0.0	1	1	1	1
4233	S6	2019	6	26	9	520.4491909833019462894299067556858062744140625	481.5005141003030075808055698871612548828125	225.678350271304992702425806783139705657958984375	27.35915494569589867523973225615918636322021484375	60.7366196538361009515938349068164825439453125	0.69267605912517404842532187103643082082271575927734375	480.5833324789999778658966533839702606201171875	0.0	12865.701198577900868258439004421234130859375	0.0	1	1	1	1
4234	S6	2019	6	26	10	474.86851644804897887297556735575199127197265625	164.2768321715969932483858428895473480224609375	353.87242316043699474903405643999576568603515625	28.277272744612201194058798137120902538299560546875	59.792424288662999742882675491273403167724609375	0.45878788232803302538087564244051463901996612548828125	486.91666622956500987129402346909046173095703125	0.0	12582.808633645299778436310589313507080078125	0.0	1	1	1	1
4235	S6	2019	6	26	11	760.8246174612960430749808438122272491455078125	689.305672295349040723522193729877471923828125	214.838054549221993738683522678911685943603515625	29.8056496604014000695315189659595489501953125	58.10254226296630264414488920010626316070556640625	0.8553672321772169961917597902356646955013275146484375	810.8333349227890494148596189916133880615234375	0.0	20219.94582811979853431694209575653076171875	0.0	1	1	1	1
4236	S6	2019	6	26	12	803.6541195339619889637106098234653472900390625	711.317837354871016941615380346775054931640625	213.155040189954007701089722104370594024658203125	29.06222227944260083631888846866786479949951171875	62.370555559794098599013523198664188385009765625	1.3961111129157999233285636364598758518695831298828125	903.1666715939840059945709072053432464599609375	0.0	21910.84957122799823991954326629638671875	0.0	1	1	1	1
4237	S6	2019	6	26	13	819.32547810872301852214150130748748779296875	775.994919670951958323712460696697235107421875	168.76720788743699586120783351361751556396484375	27.36166665818949894628531183116137981414794921875	64.3083334816825953339503030292689800262451171875	0.95944444537162698605214927738416008651256561279296875	944.9999928474429680136381648480892181396484375	0.0	22687.869588533998467028141021728515625	0.0	1	1	1	1
4238	S6	2019	6	26	14	752.8966823992290073874755762517452239990234375	654.2317182811849534118664450943470001220703125	221.337483823132998850269359536468982696533203125	26.17325916130889851274332613684237003326416015625	67.2791090516326022452631150372326374053955078125	1.06740947121696994059902863227762281894683837890625	864.5000035564099789553438313305377960205078125	0.0	20958.83691310880021774210035800933837890625	0.0	1	1	1	1
4239	S6	2019	6	26	15	403.35025105915002541223657317459583282470703125	141.997571915913994189395452849566936492919921875	290.1564158997119875493808649480342864990234375	24.283382727059798611435326165519654750823974609375	69.093471538419095168137573637068271636962890625	0.94569732828026997761838856604299508035182952880859375	390.166661391654997714795172214508056640625	0.0	10282.217254241300906869582831859588623046875	0.0	1	1	1	1
4240	S6	2019	6	26	16	211.04785474333499450949602760374546051025390625	8.905374443497549918902222998440265655517578125	204.245106607764995487741543911397457122802734375	22.16948648089719853260248783044517040252685546875	76.4238666868642013696444337256252765655517578125	0.98217523025962094607166363857686519622802734375	186.66666808227699903000029735267162322998046875	0.0	5250.369464357660035602748394012451171875	0.0	1	1	1	1
4241	S6	2019	6	26	17	155.95771980285599056514911353588104248046875	1.7878468080734200018611090854392386972904205322265625	154.882360066307001034147106111049652099609375	21.41166689130989908562696655280888080596923828125	78.612777879502999667238327674567699432373046875	0.98194444527228597063839288239250890910625457763671875	142.166667307415991672314703464508056640625	0.0	4058.65840117135985565255396068096160888671875	0.0	1	1	1	1
4242	S6	2019	6	26	18	75.640886258946096631916589103639125823974609375	0.365898453723493000122601870316429995000362396240234375	75.45875326703850305420928634703159332275390625	20.549582308713400635724610765464603900909423828125	79.0072423780861043951517785899341106414794921875	1.213649026862750002209168087574653327465057373046875	66.6666665735344992071986780501902103424072265625	0.0	1953.521310041340029783896170556545257568359375	0.0	1	1	1	1
4243	S6	2019	6	26	19	59.87335216734140175276479567401111125946044921875	0.327479405949513024953745343736954964697360992431640625	59.8899626943800029721387545578181743621826171875	20.124444357554100548668429837562143802642822265625	77.3955551571315965020403382368385791778564453125	2.71000000387429995640786728472448885440826416015625	51.58333356181780260385494329966604709625244140625	0.0	1456.71623448529999222955666482448577880859375	0.0	1	1	1	1
4244	S6	2019	6	26	20	34.82993161978839680159580893814563751220703125	0.256804522513333022271098116107168607413768768310546875	34.92192197447059953674397547729313373565673828125	19.252100840336101583716299501247704029083251953125	76.3456584812879981427613529376685619354248046875	2.747619049388819956192264726269058883190155029296875	28.833333247651598441052556154318153858184814453125	0.0	815.3930235033229791952180676162242889404296875	0.0	1	1	1	1
4245	S6	2019	6	26	21	10.6883096075056993612406586180441081523895263671875	0.276901787952943012616202622666605748236179351806640625	10.793439272533699835321385762654244899749755859375	18.27345444419160003235447220504283905029296875	76.0807271506568980612428276799619197845458984375	2.537090911214999966460936775547452270984649658203125	6.00000000364761998383755781105719506740570068359375	0.0	180.510509138304996668011881411075592041015625	0.0	1	1	1	1
4246	S6	2019	6	26	22	0	0	0	0	0	0	0	0.0	0	0.0	1	1	1	0
4247	S6	2019	6	26	23	0	0	0	0	0	0	0	0.0	0	0.0	1	1	1	0
4248	S6	2019	6	26	24	0	0	0	0	0	0	0	0.0	0	0.0	1	1	1	0
4249	S6	2019	6	27	1	0	0	0	0	0	0	0	0.0	0	0.0	1	1	1	0
4250	S6	2019	6	27	2	0	0	0	0	0	0	0	0.0	0	0.0	1	1	1	0
4251	S6	2019	6	27	3	0	0	0	0	0	0	0	0.0	0	0.0	1	1	1	0
4252	S6	2019	6	27	4	6.51737160134959037094404266099445521831512451171875	0.30417887896702000549709055121638812124729156494140625	6.68853900239273979622112165088765323162078857421875	14.324999867258799923774859053082764148712158203125	80.499999896899993245824589394032955169677734375	2.62229730108299019519790817867033183574676513671875	2.50000006053597001454136261600069701671600341796875	0.0	73.9489584229888947675135568715631961822509765625	0.0	1	1	1	1
4253	S6	2019	6	27	5	25.378525043264399840836631483398377895355224609375	0.33322903395612202270825719097047112882137298583984375	25.66573215792769957488417276181280612945556640625	14.18384409880570018458456615917384624481201171875	79.70055697555329743408947251737117767333984375	2.266573810477769956861493483302183449268341064453125	21.249999990686799122840966447256505489349365234375	0.0	606.8434274444999800834921188652515411376953125	0.0	1	1	1	1
4254	S6	2019	6	27	6	85.0449374304877068198038614355027675628662109375	3.050879500226840068677347517223097383975982666015625	84.9575350867377068198038614355027675628662109375	14.4822222603691006526105411467142403125762939453125	78.3711113823784017995421891100704669952392578125	2.14222221813268021151088760234415531158447265625	73.0833339815336984202076564542949199676513671875	0.0	2103.6003107825899860472418367862701416015625	0.0	1	1	1	1
4255	S6	2019	6	27	7	262.99196866390599325313814915716648101806640625	262.367423186379028265946544706821441650390625	164.9051208272350095285219140350818634033203125	15.1668621410022996798261374351568520069122314453125	74.2621704504286981318728066980838775634765625	2.27184750047945982487362925894558429718017578125	171.416668842234003022895194590091705322265625	0.0	4943.5331771770897830720059573650360107421875	0.0	1	1	1	1
4256	S6	2019	6	27	8	325.38061316762201613528304733335971832275390625	123.733422374518994502068380825221538543701171875	263.95835287220501186311594210565090179443359375	15.763976932602499658742090105079114437103271484375	73.280691691022099121255450882017612457275390625	2.4533141174646200255438088788650929927825927734375	326.75000155965500425736536271870136260986328125	0.0	9303.030957778290030546486377716064453125	0.0	1	1	1	1
4257	S6	2019	6	27	9	290.80511314672997968955314718186855316162109375	31.4802084003518984900438226759433746337890625	270.81694774249399415566585958003997802734375	16.057507061080201538061373867094516754150390625	72.1277624892106956622228608466684818267822265625	2.428611890958990215949597768485546112060546875	275.9166633089399738310021348297595977783203125	0.0	7877.26526459058004547841846942901611328125	0.0	1	1	1	1
4258	S6	2019	6	27	10	495.35707772991599995293654501438140869140625	190.325993760259990494887460954487323760986328125	355.50664479147098973044194281101226806640625	17.03173651095629992369140381924808025360107421875	69.438622069215995225022197701036930084228515625	2.59970059830270994183365473872981965541839599609375	507.916666567324000425287522375583648681640625	0.0	13899.247755606900682323612272739410400390625	0.0	1	1	1	1
4259	S6	2019	6	27	11	614.3134742712439901879406534135341644287109375	330.5416170806159925632528029382228851318359375	348.5989985846860008678049780428409576416015625	17.958146957543700494852600968442857265472412109375	66.970287700811496733876992948353290557861328125	2.507028750813419915033364304690621793270111083984375	714.249995847548007077421061694622039794921875	0.0	17316.6353503862992511130869388580322265625	0.0	1	1	1	1
4260	S6	2019	6	27	12	752.6518506136800397143815644085407257080078125	511.7279311203719771583564579486846923828125	324.21056886152700826642103493213653564453125	18.86461033139909915234966319985687732696533203125	65.2061691284178976957264239899814128875732421875	2.5983766186740400172539011691696941852569580078125	838.5000055034960269040311686694622039794921875	0.0	19681.75603946049886872060596942901611328125	0.0	1	1	1	1
4261	S6	2019	6	27	13	855.63491341858798477915115654468536376953125	844.899567785940007524914108216762542724609375	145.56176610295500495340093038976192474365234375	19.404833969392800696596168563701212406158447265625	62.22416926726830155303105129860341548919677734375	2.33232628632887983854971025721170008182525634765625	1039.833332101499991040327586233615875244140625	0.0	25171.26532395679896580986678600311279296875	0.0	1	1	1	1
4262	S6	2019	6	27	14	847.9839066659930040259496308863162994384765625	916.9753910682719606484170071780681610107421875	102.7800510129439999218448065221309661865234375	20.29385482532349982420782907865941524505615234375	59.8893853299444032245446578599512577056884765625	2.180446928023620056791287424857728183269500732421875	992.5000071525649900650023482739925384521484375	0.0	24315.43680032089832820929586887359619140625	0.0	1	1	1	1
4263	S6	2019	6	27	15	774.165770128038047914742492139339447021484375	900.997816467285019825794734060764312744140625	97.95741288926859624552889727056026458740234375	20.828333271874299725823220796883106231689453125	59.22222226460770144740308751352131366729736328125	2.073888886637150097413950788904912769794464111328125	892.3333287239059927742346189916133880615234375	0.0	22104.41807905830137315206229686737060546875	0.0	1	1	1	1
4264	S6	2019	6	27	16	655.5498867985789956946973688900470733642578125	824.03614231498295339406467974185943603515625	110.9033869186799989847713732160627841949462890625	21.25923749638440085618640296161174774169921875	58.3392961899206028419939684681594371795654296875	1.791202343366709914818102333811111748218536376953125	742.7499989668530133712920360267162322998046875	0.0	18519.89676554990001022815704345703125	0.0	1	1	1	1
4265	S6	2019	6	27	17	451.26918367284798705441062338650226593017578125	495.15373847283098029947723262012004852294921875	172.00011246820798760381876491010189056396484375	21.396573152868899825307380524463951587677001953125	58.7707165156569004693665192462503910064697265625	1.3009345833200500752724337871768511831760406494140625	473.9166672031079770022188313305377960205078125	0.0	11564.108123381900441017933189868927001953125	0.0	1	1	1	1
4266	S6	2019	6	27	18	280.34894590268100955654517747461795806884765625	338.93899069019897751786629669368267059326171875	146.710395922606011254174518398940563201904296875	20.837930991731798968658040394075214862823486328125	62.6577586798832015801963279955089092254638671875	1.0606321820068600469966213495354168117046356201171875	265.75000087419999772464507259428501129150390625	0.0	6489.9835685888901934958994388580322265625	0.0	1	1	1	1
4267	S6	2019	6	27	19	251.073137969112991640940890647470951080322265625	530.8033562563770146880415268242359161376953125	99.8487204862444031050472403876483440399169921875	20.811797742093499863358374568633735179901123046875	67.1606744273324949290326912887394428253173828125	0.86264045218403395676176614870200864970684051513671875	178.083335359892998894792981445789337158203125	0.0	4121.64629995823997887782752513885498046875	0.0	1	1	1	1
4268	S6	2019	6	27	20	71.9649717132677011477426276542246341705322265625	90.5271336648840048155761905945837497711181640625	56.3219823119460016869197716005146503448486328125	19.409677355092899375677006901241838932037353515625	74.3089603437745012115556164644658565521240234375	1.3150537643167699020096961248782463371753692626953125	46.41666713481149741937770158983767032623291015625	0.0	1469.334137936429897308698855340480804443359375	0.0	1	1	1	1
4269	S6	2019	6	27	21	20.243618570525001132409670390188694000244140625	6.13575419083494022487457186798565089702606201171875	20.608299888413501577133501996286213397979736328125	18.52155168303119836537007358856499195098876953125	77.5237066005837931470523471944034099578857421875	0.9521551751371080118957479498931206762790679931640625	9.5000000534733697321598810958676040172576904296875	0.0	354.4298669633780036747339181602001190185546875	0.0	1	1	1	1
4270	S6	2019	6	27	22	0	0	0	0	0	0	0	0.0	16.288691665977200528914181631989777088165283203125	0.0	1	1	1	0
4271	S6	2019	6	27	23	0	0	0	0	0	0	0	0.0	0	0.0	1	1	1	0
4272	S6	2019	6	27	24	0	0	0	0	0	0	0	0.0	0	0.0	1	1	1	0
4273	S6	2019	6	28	1	0	0	0	0	0	0	0	0.0	0	0.0	1	1	1	0
4274	S6	2019	6	28	2	0	0	0	0	0	0	0	0.0	0	0.0	1	1	1	0
4275	S6	2019	6	28	3	0	0	0	0	0	0	0	0.0	0	0.0	1	1	1	0
4276	S6	2019	6	28	4	11.4888626911022004861706591327674686908721923828125	7.174572653240620212500289198942482471466064453125	11.93958596830010066014438052661716938018798828125	16.144444783528598463817615993320941925048828125	87.127777523464601472369395196437835693359375	0.98333333267105904607063848743564449250698089599609375	1.8333333913081599764183238221448846161365509033203125	0.0	96.547008569662494892327231355011463165283203125	0.0	1	1	1	0
4277	S6	2019	6	28	5	40.8054719784042987384964362718164920806884765625	94.3390446422960025074644363485276699066162109375	27.55126377669240156365049188025295734405517578125	16.238068423487899138990542269311845302581787109375	86.5468748266045935224610730074346065521240234375	0.81761363834481304291301739795017056167125701904296875	19.583333283662799573221491300500929355621337890625	0.0	763.6510121325660520597011782228946685791015625	0.0	1	1	1	1
4278	S6	2019	6	28	6	175.683784144833992968415259383618831634521484375	528.1453313800949445067089982330799102783203125	55.47226035030430324468397884629666805267333984375	17.2203342363361997513493406586349010467529296875	84.665459274249400323242298327386379241943359375	0.94289693601616197948800390804535709321498870849609375	42.50000013659399655807646922767162322998046875	0.0	1927.094022432959945945185609161853790283203125	0.0	1	1	1	1
4279	S6	2019	6	28	7	216.98640648569698896608315408229827880859375	186.258582545546005349024198949337005615234375	155.85206313779099218663759529590606689453125	17.862824266856900834454791038297116756439208984375	80.93976962394600604966399259865283966064453125	1.0426512986679199457284994423389434814453125	146.08333383997199916848330758512020111083984375	0.0	4300.80282191431979299522936344146728515625	0.0	1	1	1	1
4280	S6	2019	6	28	8	400.61677338356099653537967242300510406494140625	449.6911464014709736147779040038585662841796875	170.881282407183988425458665005862712860107421875	18.804651044135798798606629134155809879302978515625	75.6622093333754008881442132405936717987060546875	0.77674418852426196924199075510841794312000274658203125	327.249996364115986580145545303821563720703125	0.0	9305.116494496660379809327423572540283203125	0.0	1	1	1	1
4281	S6	2019	6	28	9	601.8585929870599784408113919198513031005859375	828.9127794053810021068784408271312713623046875	95.509474902682796937369857914745807647705078125	20.00583341916399859883313183672726154327392578125	69.872500292460102855329751037061214447021484375	1.090833334045270053280773936421610414981842041015625	574.5833367109299842923064716160297393798828125	0.0	15634.477853775000767200253903865814208984375	0.0	1	1	1	1
4282	S6	2019	6	28	10	717.9053961859799528610892593860626220703125	889.7378980848519631763338111340999603271484375	84.1632553312513067567124380730092525482177734375	20.894999885558998897749916068278253078460693359375	66.1658333460488989885561750270426273345947265625	0.8644444455703099716714632450020872056484222412109375	749.0833352009459531473112292587757110595703125	0.0	19591.2853479385012178681790828704833984375	0.0	1	1	1	1
4283	S6	2019	6	28	11	738.5494986640079559947480447590351104736328125	758.9833239661320476443506777286529541015625	141.501074282328005438102991320192813873291015625	21.88083337148029983154629007913172245025634765625	61.70249996185300034312604111619293689727783203125	0.91111111144224798952251376249478198587894439697265625	817.9166739185640153664280660450458526611328125	0.0	20789.65771198270158492960035800933837890625	0.0	1	1	1	1
4284	S6	2019	6	28	12	857.0667100694439568542293272912502288818359375	925.6846135457350328579195775091648101806640625	87.7627169079249966898714774288237094879150390625	22.479166603088298614920859108678996562957763671875	58.53000008265170350796324783004820346832275390625	0.9724999998178740501231231974088586866855621337890625	982.6666613419829445774666965007781982421875	0.0	23981.88300927479940582998096942901611328125	0.0	1	1	1	1
4285	S6	2019	6	28	13	868.0973195393879677794757299125194549560546875	929.7386335584850485247443430125713348388671875	87.835349930657201866779359988868236541748046875	23.45416676203409878098682384006679058074951171875	50.9641665458678971845074556767940521240234375	0.90777777979771301364309010750730521976947784423828125	1018.2500084241299873610842041671276092529296875	0.0	24405.21585941309967893175780773162841796875	0.0	1	1	1	1
4286	S6	2019	6	28	14	834.9763652042839794376050122082233428955078125	903.411155551086949344608001410961151123046875	102.415391553348996467320830561220645904541015625	24.28319329975030171908656484447419643402099609375	51.77815124768159904533604276366531848907470703125	0.72016806896327201226171155212796293199062347412109375	980.41666547456998159759677946567535400390625	0.0	23456.98734124499969766475260257720947265625	0.0	1	1	1	1
4287	S6	2019	6	28	15	755.68680101851305153104476630687713623046875	876.3483555001270133288926444947719573974609375	99.0680560904489055928934249095618724822998046875	24.6633802709445006939859013073146343231201171875	50.7501410255969034324152744375169277191162109375	0.9583098599608510514968884308473207056522369384765625	869.333331783612948129302822053432464599609375	0.0	21242.14943250010037445463240146636962890625	0.0	1	1	1	1
4288	S6	2019	6	28	16	660.39026065402504173107445240020751953125	866.6206215752489470105501823127269744873046875	87.7144478268093052975018508732318878173828125	24.652499961852999632583305356092751026153564453125	47.40666672388709912411286495625972747802734375	1.4566666664348699722353330798796378076076507568359375	744.50001120567094403668306767940521240234375	0.0	18261.1209551493011531420052051544189453125	0.0	1	1	1	1
4289	S6	2019	6	28	17	528.3321054246689527644775807857513427734375	810.428226047092039152630604803562164306640625	85.5318384594387026709227939136326313018798828125	23.903333377838098527945476234890520572662353515625	49.6583333969116011985533987171947956085205078125	1.9969444392455899528471263693063519895076751708984375	561.0833341876649456025916151702404022216796875	0.0	13813.03294499709954834543168544769287109375	0.0	1	1	1	1
4290	S6	2019	6	28	18	386.86828426784899193080491386353969573974609375	763.0234141031900207963190041482448577880859375	66.5762542406717017229311750270426273345947265625	23.810833358764600831136704073287546634674072265625	47.1558334032693977633243775926530361175537109375	1.55722222253679998260622596717439591884613037109375	366.08333388964200594273279421031475067138671875	0.0	8779.17536099750941502861678600311279296875	0.0	1	1	1	1
4291	S6	2019	6	28	19	241.02404225667299897395423613488674163818359375	606.519505140516002938966266810894012451171875	67.0695061895581972066793241538107395172119140625	23.10000011126199837008243775926530361175537109375	51.5766668319702006328952847979962825775146484375	1.550277777181729987887592869810760021209716796875	174.333332106470010103294043801724910736083984375	0.0	3857.4540515740800401545129716396331787109375	0.0	1	1	1	1
4292	S6	2019	6	28	20	91.8236680201799941869467147625982761383056640625	162.7764390975349897416890598833560943603515625	61.3351356384763022333572735078632831573486328125	21.62390423200989886254319571889936923980712890625	58.5199203339229967468781978823244571685791015625	1.8059760970898299792253283158061094582080841064453125	48.0000004172324992168796597979962825775146484375	0.0	1569.05839592217989775235764682292938232421875	0.0	1	1	1	1
4293	S6	2019	6	28	21	28.509862855329298980677776853553950786590576171875	5.22623299422151976756367730558849871158599853515625	29.1063500784211015570690506137907505035400390625	20.6419491444602982710421201772987842559814453125	65.123728865283993627599556930363178253173828125	1.784745762408789904185368868638761341571807861328125	13.249999989056899352135587832890450954437255859375	0.0	469.80128188927801602403633296489715576171875	0.0	1	1	1	1
4294	S6	2019	6	28	22	0	0	0	0	0	0	0.08333333729145829538165202166055678389966487884521484375	0.0	16.760566776307900482834156719036400318145751953125	0.0	1	1	1	0
4295	S6	2019	6	28	23	0	0	0	0	0	0	0	0.0	0	0.0	1	1	1	0
4296	S6	2019	6	28	24	0	0	0	0	0	0	0	0.0	0	0.0	1	1	1	0
4297	S6	2019	6	29	1	0	0	0	0	0	0	0	0.0	0	0.0	1	1	1	0
4298	S6	2019	6	29	2	0	0	0	0	0	0	0	0.0	0	0.0	1	1	1	0
4299	S6	2019	6	29	3	0	0	0	0	0	0	0	0.0	0	0.0	1	1	1	0
4300	S6	2019	6	29	4	10.6201329507688999598258305923081934452056884765625	1.12735407205595006274734259932301938533782958984375	11.0680935901143993049799973960034549236297607421875	15.568116022192899805531851598061621189117431640625	91.995652240255594733753241598606109619140625	2.369565209616780077084285949240438640117645263671875	2.166666721071420109723248970112763345241546630859375	0.0	94.741249146560903682257048785686492919921875	0.0	1	1	1	0
4301	S6	2019	6	29	5	46.165362634366601923829875886440277099609375	40.2924407083011004715444869361817836761474609375	41.2446961017704012419926584698259830474853515625	15.3194986093674998528513242490589618682861328125	92.1072422335738991705511580221354961395263671875	2.009749299885500217754952245741151273250579833984375	25.3333334500591007554248790256679058074951171875	0.0	861.538911238312039131415076553821563720703125	0.0	1	1	1	1
4302	S6	2019	6	29	6	136.0929318172829880495555698871612548828125	145.101509967572013692915788851678371429443359375	99.0193955649792059148239786736667156219482421875	15.394929603791499772569295600987970829010009765625	91.2408449629661930657675839029252529144287109375	2.07380281275426003873008085065521299839019775390625	73.499999629954203328452422283589839935302734375	0.0	2440.99229574202990988851524889469146728515625	0.0	1	1	1	1
4303	S6	2019	6	29	7	235.621358061786992266206652857363224029541015625	169.720170802199987747371778823435306549072265625	179.23256415994700319060939364135265350341796875	16.110541444218700490864648600108921527862548828125	86.2638175507895965665738913230597972869873046875	2.361823356983660193719742892426438629627227783203125	176.83333158492899883640347979962825775146484375	0.0	5035.5611840884002958773635327816009521484375	0.0	1	1	1	1
4304	S6	2019	6	29	8	337.74622696096201934778946451842784881591796875	92.9568698138674989195351372472941875457763671875	289.54765514893898625814472325146198272705078125	16.778409015048598718067296431399881839752197265625	84.8636366454037016637812484987080097198486328125	1.889488637616679955755216724355705082416534423828125	288.08333352208097721813828684389591217041015625	0.0	8178.006539742140375892631709575653076171875	0.0	1	1	1	1
4305	S6	2019	6	29	9	414.397851132797995887813158333301544189453125	135.240458453866011723221163265407085418701171875	325.72865124406399672807310707867145538330078125	18.027298921826201194562599994242191314697265625	81.1477011099628953161300159990787506103515625	1.659195404456939915149860098608769476413726806640625	432.58333206176899921047152020037174224853515625	0.0	12039.1567448774003423750400543212890625	0.0	1	1	1	1
4306	S6	2019	6	29	10	684.6229099416590315740904770791530609130859375	738.92214673946500624879263341426849365234375	154.9794501268889916900661773979663848876953125	19.789913628218098295974414213560521602630615234375	75.36253603184940175196970812976360321044921875	1.7242074908543700839658185941516421735286712646484375	725.6666670242949521707487292587757110595703125	0.0	19007.62303670239998609758913516998291015625	0.0	1	1	1	1
4307	S6	2019	6	29	11	793.3066246880420067100203596055507659912109375	870.760189988877982614212669432163238525390625	110.2018164952589955873918370343744754791259765625	21.990833266576100157863038475625216960906982421875	67.9216667811075041072399471886456012725830078125	1.360277775675049927173176911310292780399322509765625	879.6666761239370089242584072053432464599609375	0.0	22235.36713918050008942373096942901611328125	0.0	1	1	1	1
4308	S6	2019	6	29	12	843.348083326550977290025912225246429443359375	879.39350450303800244000740349292755126953125	112.5031500286520014242341858334839344024658203125	23.474999904632500857815102790482342243194580078125	63.57583332061759762154906638897955417633056640625	1.4872222233149698933374338594148866832256317138671875	964.4999951124200379126705229282379150390625	0.0	23583.0278793969991966150701045989990234375	0.0	1	1	1	1
4309	S6	2019	6	29	13	851.51833309597395782475359737873077392578125	862.397536044649996256339363753795623779296875	126.723219680786002072636620141565799713134765625	24.238333415985099605904906638897955417633056640625	58.81666669845579775710575631819665431976318359375	1.5025000011755300644011867916560731828212738037109375	993.4166719516109651522128842771053314208984375	0.0	23815.471053123401361517608165740966796875	0.0	1	1	1	1
4310	S6	2019	6	29	14	817.916717190212011701078154146671295166015625	842.6506486680769967279047705233097076416015625	133.217562950981999847499537281692028045654296875	25.10833328564959998630001791752874851226806640625	53.65416676203410162315776688046753406524658203125	1.44527777499622001045054275891743600368499755859375	955.8333406845739546042750589549541473388671875	0.0	22896.6737985610016039572656154632568359375	0.0	1	1	1	1
4311	S6	2019	6	29	15	745.6934504191079895463190041482448577880859375	804.1120303683810561778955161571502685546875	141.799772516886008588699041865766048431396484375	25.794166628519601403013439266942441463470458984375	51.4050000190733982208257657475769519805908203125	1.4861111128495700928198175461147911846637725830078125	856.416667501129950323957018554210662841796875	0.0	20724.3381341298008919693529605865478515625	0.0	1	1	1	1
4312	S6	2019	6	29	16	644.30427754719994482002221047878265380859375	768.8366005791549468995071947574615478515625	135.753450987073989608688862062990665435791015625	26.3350000222524016635361476801335811614990234375	51.818333148956298828125	1.2822222183147999885477474890649318695068359375	717.8333352009440204710699617862701416015625	0.0	17551.48522059119932237081229686737060546875	0.0	1	1	1	1
4313	S6	2019	6	29	17	512.7606875101720333987032063305377960205078125	715.109682888454017302137799561023712158203125	122.3502666261459950192147516645491123199462890625	26.76333325703929943983894190751016139984130859375	52.07916647593179959585540927946567535400390625	1.4080555553237499299967794286203570663928985595703125	541.749993960062056430615484714508056640625	0.0	13288.53633006410018424503505229949951171875	0.0	1	1	1	1
4314	S6	2019	6	29	18	374.8013334486209942042478360235691070556640625	660.365502081976956105791032314300537109375	98.3474609375000028421709430404007434844970703125	26.383333333333300885215066955424845218658447265625	56.2649996757507011579946265555918216705322265625	1.28305555582045993645579073927365243434906005859375	352.4999991059299873086274601519107818603515625	0.0	8468.056281407700225827284157276153564453125	0.0	1	1	1	1
4315	S6	2019	6	29	19	232.7952651977529967552982270717620849609375	537.487222798665015943697653710842132568359375	78.57077373928490260368562303483486175537109375	25.654166666666601059887398150749504566192626953125	57.52499996821079975006796303205192089080810546875	1.808888889269689936867280266596935689449310302734375	170.16666506727500518536544404923915863037109375	0.0	3817.386691768950186087749898433685302734375	0.0	1	1	1	1
4316	S6	2019	6	29	20	73.583346130371097615352482534945011138916015625	130.735550016880011980902054347097873687744140625	49.7931870117187003188519156537950038909912109375	24.20840001678460140510651399381458759307861328125	64.1263999328613039097035652957856655120849609375	1.2284000003337800510649913121596910059452056884765625	38.75000029802330203665405861102044582366943359375	0.0	1273.655988276000016412581317126750946044921875	0.0	1	1	1	1
4317	S6	2019	6	29	21	23.67170710997140048448272864334285259246826171875	4.06139296957037032598236692138016223907470703125	24.33585298278109831926485639996826648712158203125	23.3345455689863001680350862443447113037109375	66.7372728521173002036448451690375804901123046875	1.160454546998840097415950367576442658901214599609375	9.91666673993069025527802295982837677001953125	0.0	371.8735561706120051894686184823513031005859375	0.0	1	1	1	1
4318	S6	2019	6	29	22	0	0	0	0	0	0	0	0.0	6.50563343272855032495272098458372056484222412109375	0.0	1	1	1	0
4319	S6	2019	6	29	23	0	0	0	0	0	0	0	0.0	0	0.0	1	1	1	0
4320	S6	2019	6	29	24	0	0	0	0	0	0	0	0.0	0	0.0	1	1	1	0
4321	S6	2019	6	30	1	0	0	0	0	0	0	0	0.0	0	0.0	1	1	1	0
4322	S6	2019	6	30	2	0	0	0	0	0	0	0	0.0	0	0.0	1	1	1	0
4323	S6	2019	6	30	3	0	0	0	0	0	0	0	0.0	0	0.0	1	1	1	0
4324	S6	2019	6	30	4	14.3406820062731004128409040276892483234405517578125	9.019036194340120715651210048235952854156494140625	14.7923908077302002084252308122813701629638671875	15.3622951038547999047523262561298906803131103515625	85.424589813732694665304734371602535247802734375	0.377049185702057976232737246391479857265949249267578125	2.83333338059795014629571596742607653141021728515625	0.0	116.210142189326006700866855680942535400390625	0.0	1	1	1	0
4325	S6	2019	6	30	5	31.807059929195698799730962491594254970550537109375	42.4582615953548980769483023323118686676025390625	27.061307222829700691590915084816515445709228515625	14.8098870185808006993966046138666570186614990234375	86.0121472245555054314536391757428646087646484375	0.5745762762545190138752104758168570697307586669921875	19.1666667815295994614643859677016735076904296875	0.0	690.0494036575170184732996858656406402587890625	0.0	1	1	1	1
4326	S6	2019	6	30	6	182.034087785085006316876388154923915863037109375	531.516222498152046682662330567836761474609375	61.40090421040849832934327423572540283203125	18.355833307901999518207958317361772060394287109375	75.794166501363093857435160316526889801025390625	0.93666666671633702634380824747495353221893310546875	54.166666852931001585602643899619579315185546875	0.0	2189.702150722339865751564502716064453125	0.0	1	1	1	1
4327	S6	2019	6	30	7	306.8582779142590197807294316589832305908203125	649.86662487453804715187288820743560791015625	75.0248239517211032989507657475769519805908203125	21.97500004768370018837231327779591083526611328125	62.76666682561229748671394190751016139984130859375	1.4444444372422100553166046665864996612071990966796875	185.08333433419301172762061469256877899169921875	0.0	5197.76212672389010549522936344146728515625	0.0	1	1	1	1
4328	S6	2019	6	30	8	468.33943667941599642290384508669376373291015625	824.66311136881495258421637117862701416015625	65.5799215634662999718784703873097896575927734375	24.617500066757198595723821199499070644378662109375	54.2900000254312971037506940774619579315185546875	1.898888886057660041473127421340905129909515380859375	385.5833311875650224465061910450458526611328125	0.0	10585.059305032000338542275130748748779296875	0.0	1	1	1	1
4329	S6	2019	6	30	9	600.6144205729159466500277630984783172607421875	870.6384806315099922358058393001556396484375	73.5333461337618956576989148743450641632080078125	26.874166727066000959212033194489777088165283203125	48.79583326975500057187673519365489482879638671875	2.055833334475750007186434231698513031005859375	579.7500014305099966804846189916133880615234375	0.0	15351.85567537940005422569811344146728515625	0.0	1	1	1	1
4330	S6	2019	6	30	10	714.8214713202579559947480447590351104736328125	900.993787129719976292108185589313507080078125	79.754972775777105198358185589313507080078125	28.705833339691100292156988871283829212188720703125	42.21249999999999857891452847979962825775146484375	2.0361111044883699605634319595992565155029296875	754.1666726271299694417393766343593597412109375	0.0	19135.4243755339994095265865325927734375	0.0	1	1	1	1
4331	S6	2019	6	30	11	794.03027530246299647842533886432647705078125	876.7811948988170343000092543661594390869140625	110.2189579433860018298219074495136737823486328125	30.5724999586741006396550801582634449005126953125	37.1591667175292030833588796667754650115966796875	2.1480555552575300026774129946716129779815673828125	882.7500094970069994815276004374027252197265625	0.0	21527.090589205399737693369388580322265625	0.0	1	1	1	1
4332	S6	2019	6	30	12	834.3472237481009869952686131000518798828125	840.4098267449270451834308914840221405029296875	138.397394794886992031024419702589511871337890625	31.329999939600600811218100716359913349151611328125	36.61250015894569997954022255726158618927001953125	2.40472222020227999195185475400649011135101318359375	961.2500021855039449292235076427459716796875	0.0	22843.44625473019914352335035800933837890625	0.0	1	1	1	1
4333	S6	2019	6	30	13	862.8134308733250463774311356246471405029296875	826.891198784963989965035580098628997802734375	169.8490117536269963238737545907497406005859375	31.64885719299309840835121576674282550811767578125	36.1754283687046012119026272557675838470458984375	3.24628570445945996425507473759353160858154296875	1001.1666566133400237958994694054126739501953125	0.0	23602.31256484979894594289362430572509765625	0.0	1	1	1	1
4334	S6	2019	6	30	14	742.7381842902469770706375129520893096923828125	543.1197485064600414261803962290287017822265625	300.45285180810600422773859463632106781005859375	31.602402243170200080157883348874747753143310546875	39.0270270499380984574600006453692913055419921875	2.8990990922257697803843257133848965167999267578125	849.2499937613860083729377947747707366943359375	0.0	20231.36109113689963123761117458343505859375	0.0	1	1	1	1
4335	S6	2019	6	30	15	664.856461853911014259210787713527679443359375	621.562558944501006408245302736759185791015625	201.0551708276719864443293772637844085693359375	31.1976811118747008322316105477511882781982421875	41.86376844765479887655601487495005130767822265625	3.84086956528649015041310121887363493442535400390625	750.7499953110999513228307478129863739013671875	0.0	18248.11367193849946488626301288604736328125	0.0	1	1	1	1
4336	S6	2019	6	30	16	624.3943827253559675227734260261058807373046875	684.1032293822199790156446397304534912109375	172.842459141026012048314441926777362823486328125	29.709348554314001233933595358394086360931396484375	50.35779036611059922279309830628335475921630859375	3.95722380001889018075189596856944262981414794921875	693.1666632493330553188570775091648101806640625	0.0	17051.05511347450010362081229686737060546875	0.0	1	1	1	1
4337	S6	2019	6	30	17	467.804652674057024341891519725322723388671875	550.356251171230951513280160725116729736328125	172.5776983597689877569791860878467559814453125	26.93676469466259959517628885805606842041015625	59.82558815900009818733451538719236850738525390625	4.25117646192803011473415608634240925312042236328125	484.8333348830529985207249410450458526611328125	0.0	11928.916354974100613617338240146636962890625	0.0	1	1	1	1
4338	S6	2019	6	30	18	346.9089139373600119142793118953704833984375	493.875150031549992490909062325954437255859375	130.165041236238010924353147856891155242919921875	25.194692643660999920030008070170879364013671875	50.4483241395576982313286862336099147796630859375	3.78575418406690999972852296195924282073974609375	330.6666625042749956264742650091648101806640625	0.0	8074.6579368908996912068687379360198974609375	0.0	1	1	1	1
4339	S6	2019	6	30	19	133.875086602200013885521912015974521636962890625	80.14967237567799429598380811512470245361328125	109.2154565446829934671768569387495517730712890625	23.255336986498800655454033403657376766204833984375	51.125280830297498368963715620338916778564453125	3.70084269194120007995252308319322764873504638671875	109.0000007922430000917302095331251621246337890625	0.0	2858.35531105598010981339029967784881591796875	0.0	1	1	1	1
4340	S6	2019	6	30	20	43.4304749965667014066639239899814128875732421875	1.1470261426849399644112281748675741255283355712890625	43.6402331511178971368281054310500621795654296875	21.785000038146900891433688229881227016448974609375	59.90166660944620247164493775926530361175537109375	3.1999999976820401315080744097940623760223388671875	36.25000066434329681896997499279677867889404296875	0.0	1064.56672151883003607508726418018341064453125	0.0	1	1	1	1
4341	S6	2019	6	30	21	24.731957325096200150937875150702893733978271484375	8.1909807550804796250076833530329167842864990234375	25.377338822819101693539778352715075016021728515625	20.883691075533700853839036426506936550140380859375	63.2733906921910005394238396547734737396240234375	3.659227459215809830084253917448222637176513671875	11.833333390920099503773599280975759029388427734375	0.0	407.18287586544801115451264195144176483154296875	0.0	1	1	1	1
4342	S6	2019	6	30	22	0	0	0	0	0	0	0	0.0	14.8035750413932998270638563553802669048309326171875	0.0	1	1	1	0
4343	S6	2019	6	30	23	0	0	0	0	0	0	0	0.0	0	0.0	1	1	1	0
4344	S6	2019	6	30	24	0	0	0	0	0	0	0	0.0	0	0.0	1	1	1	0
4345	S6	2019	7	1	1	0	0	0	0	0	0	0	0.0	0	0.0	1	1	1	0
4346	S6	2019	7	1	2	0	0	0	0	0	0	0	0.0	0	0.0	1	1	1	0
4347	S6	2019	7	1	3	0	0	0	0	0	0	0	0.0	0	0.0	1	1	1	0
4348	S6	2019	7	1	4	10.570239880879700677951404941268265247344970703125	0.463320855895678007652094265722553245723247528076171875	10.982985350290899617675677291117608547210693359375	15.3533333587645994811055061290971934795379638671875	89.8693341064452937416717759333550930023193359375	2.033333330154409868129050664720125496387481689453125	2.166666721071420109723248970112763345241546630859375	0.0	103.45190810039599682568223215639591217041015625	0.0	1	1	1	0
4349	S6	2019	7	1	5	37.9742771865283970100790611468255519866943359375	82.8614330444969056088666548021137714385986328125	27.274962821249200572992776869796216487884521484375	15.5158192047290999227016072836704552173614501953125	89.0539547332935939039089134894311428070068359375	2.01468926255649005696568565326742827892303466796875	19.33333332029479834091034717857837677001953125	0.0	728.8219233353929666918702423572540283203125	0.0	1	1	1	1
4350	S6	2019	7	1	6	176.83385123250201331757125444710254669189453125	381.5450233191160123169538564980030059814453125	96.224930819030504380862112157046794891357421875	16.74791093789099960531530086882412433624267578125	85.0328691530360032402313663624227046966552734375	2.47325905343948004855292310821823775768280029296875	73.6666666343814000583734014071524143218994140625	0.0	2563.14314901827992798644118010997772216796875	0.0	1	1	1	1
4351	S6	2019	7	1	7	121.64907686445400258890003897249698638916015625	11.793839002317799469210513052530586719512939453125	118.12248761918800710191135294735431671142578125	17.509166701634701013290396076627075672149658203125	83.4266669591267060468453564681112766265869140625	2.4433333347240999700034080888144671916961669921875	104.9999998261530009813213837333023548126220703125	0.0	3040.23821155230007207137532532215118408203125	0.0	1	1	1	1
4352	S6	2019	7	1	8	171.170974159239989376146695576608180999755859375	1.699717619766790033253300862270407378673553466796875	170.2701124403209860247443430125713348388671875	18.194999949137301342716455110348761081695556640625	79.559999910990399030197295360267162322998046875	2.289999995960129819394524020026437938213348388671875	158.33333320915699005126953125	0.0	4513.8682027657696380629204213619232177734375	0.0	1	1	1	1
4353	S6	2019	7	1	9	392.77861587253499919825117103755474090576171875	66.230146027175607059689355082809925079345703125	348.275087029270025595906190574169158935546875	19.380177418861098459501590696163475513458251953125	71.5221894619732978526371880434453487396240234375	3.247041420911890075018391144112683832645416259765625	391.166667143502991166315041482448577880859375	0.0	10819.914062817799276672303676605224609375	0.0	1	1	1	1
4354	S6	2019	7	1	10	445.72353102285597969967056997120380401611328125	132.640840490646013449804740957915782928466796875	347.8394160693200092282495461404323577880859375	20.006962154484998706038823002018034458160400390625	65.990506667125004014451405964791774749755859375	3.79398734301704987359471488161943852901458740234375	449.4999994834259950948762707412242889404296875	0.0	12327.532082796000395319424569606781005859375	0.0	1	1	1	1
4355	S6	2019	7	1	11	660.448983502534019862650893628597259521484375	293.74642482911798424538574181497097015380859375	425.7841023170140033471398055553436279296875	20.9242331147925000323084532283246517181396484375	60.74294515036360309068186325021088123321533203125	3.787423314309549926548470466514118015766143798828125	701.083337267242995949345640838146209716796875	0.0	17899.06146128970067366026341915130615234375	0.0	1	1	1	1
4356	S6	2019	7	1	12	318.53401170458101887561497278511524200439453125	76.6086604535008035554710659198462963104248046875	251.281708762758995590047561563551425933837890625	20.86875001021790154709378839470446109771728515625	58.494940496626298909177421592175960540771484375	3.37172618455119987856960506178438663482666015625	336.4999983459720169776119291782379150390625	0.0	8726.090709368379975785501301288604736328125	0.0	1	1	1	1
4357	S6	2019	7	1	13	494.41196015125098028875072486698627471923828125	152.017883707495997214209637604653835296630859375	359.464558578850983394659124314785003662109375	18.3488188766119009187605115585029125213623046875	74.53543304082910481156432069838047027587890625	3.587401573582889913183180397027172148227691650390625	444.74999544521398320284788496792316436767578125	0.0	10942.982986569399145082570612430572509765625	0.0	1	1	1	1
4358	S6	2019	7	1	14	664.4932919842650562713970430195331573486328125	468.92610413099799870906281284987926483154296875	285.47267164382202508932095952332019805908203125	19.350442537515899488198556355200707912445068359375	69.43893779203250460341223515570163726806640625	2.828023600982700003214631578885018825531005859375	781.3333347439739782203105278313159942626953125	0.0	19242.22050110499912989325821399688720703125	0.0	1	1	1	1
4359	S6	2019	7	1	15	429.88583902612799647613428533077239990234375	308.40533022384300920748501084744930267333984375	188.732106387817992754207807593047618865966796875	20.172013644065401649640989489853382110595703125	64.9351535445593981421552598476409912109375	3.721160406647280094460938926204107701778411865234375	411.9166666641809797511086799204349517822265625	0.0	10500.1506234207990928553044795989990234375	0.0	1	1	1	1
4360	S6	2019	7	1	16	336.8842365927320088303531520068645477294921875	77.6427563557366937629922176711261272430419921875	285.1313290167710192690719850361347198486328125	19.90419161105580059256681124679744243621826171875	60.63353286103569672604862716980278491973876953125	4.74880240259769959010327511350624263286590576171875	354.91666197776902436089585535228252410888671875	0.0	9532.73900349934046971611678600311279296875	0.0	1	1	1	1
4361	S6	2019	7	1	17	585.2701555040140419805538840591907501220703125	525.36895815531397602171637117862701416015625	270.1148759629990081521100364625453948974609375	19.8822219424776989171732566319406032562255859375	57.47777743869350075556212686933577060699462890625	5.4377777894337899766696864389814436435699462890625	437.16666474938398323502042330801486968994140625	0.0	11400.110085805199560127221047878265380859375	0.0	1	1	1	1
4362	S6	2019	7	1	18	0	0	0	0	0	0	152.6666660793119945083162747323513031005859375	0.0	4162.243578583000271464698016643524169921875	0.0	1	1	1	0
4363	S6	2019	7	1	19	0	0	0	0	0	0	148.999998966851990189752541482448577880859375	0.0	3925.0483463207901877467520534992218017578125	0.0	1	1	1	0
4364	S6	2019	7	1	20	0	0	0	0	0	0	54.00000093504780096509421127848327159881591796875	0.0	1533.936540285739965838729403913021087646484375	0.0	1	1	1	0
4365	S6	2019	7	1	21	0	0	0	0	0	0	8.2500000329066498494512416073121130466461181640625	0.0	253.120742583025986505163018591701984405517578125	0.0	1	1	1	0
4366	S6	2019	7	1	22	0	0	0	0	0	0	0.08333333729145829538165202166055678389966487884521484375	0.0	0	0.0	1	1	1	0
4367	S6	2019	7	1	23	0	0	0	0	0	0	0	0.0	0	0.0	1	1	1	0
4368	S6	2019	7	1	24	0	0	0	0	0	0	0	0.0	0	0.0	1	1	1	0
4369	S6	2019	7	2	1	0	0	0	0	0	0	0	0.0	0	0.0	1	1	1	0
4370	S6	2019	7	2	2	0	0	0	0	0	0	0	0.0	0	0.0	1	1	1	0
4371	S6	2019	7	2	3	0	0	0	0	0	0	0	0.0	0	0.0	1	1	1	0
4372	S6	2019	7	2	4	0	0	0	0	0	0	1.4166667242534500825712484584073536098003387451171875	0.0	48.11342471900049844180102809332311153411865234375	0.0	1	1	1	0
4373	S6	2019	7	2	5	0	0	0	0	0	0	22.500000117967399404506068094633519649505615234375	0.0	637.5750368461000334718846715986728668212890625	0.0	1	1	1	0
4374	S6	2019	7	2	6	0	0	0	0	0	0	55.58333359658710293160766013897955417633056640625	0.0	1658.8830711940900073386728763580322265625	0.0	1	1	1	0
4375	S6	2019	7	2	7	0	0	0	0	0	0	172.500001266599014115854515694081783294677734375	0.0	4978.6020517348997600493021309375762939453125	0.0	1	1	1	0
4376	S6	2019	7	2	8	0	0	0	0	0	0	251.249998807905996045519714243710041046142578125	0.0	7261.6711258887999065336771309375762939453125	0.0	1	1	1	0
4377	S6	2019	7	2	9	0	0	0	0	0	0	350.58333352208001088001765310764312744140625	0.0	9783.628652493169283843599259853363037109375	0.0	1	1	1	0
4378	S6	2019	7	2	10	0	0	0	0	0	0	288.16666702429500901416759006679058074951171875	0.0	8276.856333017340148217044770717620849609375	0.0	1	1	1	0
4379	S6	2019	7	2	11	0	0	0	0	0	0	436.583330233889000737690366804599761962890625	0.0	11671.67159914970034151338040828704833984375	0.0	1	1	1	0
4380	S6	2019	7	2	12	0	0	0	0	0	0	503.74999642371898289638920687139034271240234375	0.0	12486.27566297849989496171474456787109375	0.0	1	1	1	0
4381	S6	2019	7	2	13	0	0	0	0	0	0	632.249993582566958139068447053432464599609375	0.0	15088.066786527599106193520128726959228515625	0.0	1	1	1	0
4382	S6	2019	7	2	14	0	0	0	0	0	0	394.00000373522101426715380512177944183349609375	0.0	10402.38271156940027140080928802490234375	0.0	1	1	1	0
4383	S6	2019	7	2	15	0	0	0	0	0	0	419.08333078026697648965637199580669403076171875	0.0	10971.704771121299927472136914730072021484375	0.0	1	1	1	0
4384	S6	2019	7	2	16	0	0	0	0	0	0	429.08333241939402569187222979962825775146484375	0.0	11207.257131735399525496177375316619873046875	0.0	1	1	1	0
4385	S6	2019	7	2	17	0	0	0	0	0	0	451.8333375453939879662357270717620849609375	0.0	11804.7957619031003559939563274383544921875	0.0	1	1	1	0
4386	S6	2019	7	2	18	0	0	0	0	0	0	331.24999950329498688006424345076084136962890625	0.0	8326.0706663131495588459074497222900390625	0.0	1	1	1	0
4387	S6	2019	7	2	19	0	0	0	0	0	0	179.166664679845013097292394377291202545166015625	0.0	4286.82971000671022920869290828704833984375	0.0	1	1	1	0
4388	S6	2019	7	2	20	0	0	0	0	0	0	47.999999641130301597513607703149318695068359375	0.0	1378.63312040766004429315216839313507080078125	0.0	1	1	1	0
4389	S6	2019	7	2	21	0	0	0	0	0	0	8.6666665835460801048384382738731801509857177734375	0.0	284.95858415650701545018819160759449005126953125	0.0	1	1	1	0
4390	S6	2019	7	2	22	0	0	0	0	0	0	0	0.0	0	0.0	1	1	1	0
4391	S6	2019	7	2	23	0	0	0	0	0	0	0	0.0	0	0.0	1	1	1	0
4392	S6	2019	7	2	24	0	0	0	0	0	0	0	0.0	0	0.0	1	1	1	0
4393	S6	2019	7	3	1	0	0	0	0	0	0	0	0.0	0	0.0	1	1	1	0
4394	S6	2019	7	3	2	0	0	0	0	0	0	0	0.0	0	0.0	1	1	1	0
4395	S6	2019	7	3	3	0	0	0	0	0	0	0	0.0	0	0.0	1	1	1	0
4396	S6	2019	7	3	4	0	0	0	0	0	0	1.83333331369794994003541432903148233890533447265625	0.0	95.265508706991795406793244183063507080078125	0.0	1	1	1	0
4397	S6	2019	7	3	5	0	0	0	0	0	0	18.16666708327829837799072265625	0.0	557.009572784106012477423064410686492919921875	0.0	1	1	1	0
4398	S6	2019	7	3	6	0	0	0	0	0	0	43.16666706775610151680666604079306125640869140625	0.0	1675.5106374621400391333736479282379150390625	0.0	1	1	1	0
4399	S6	2019	7	3	7	0	0	0	0	0	0	204.333332056800003329044557176530361175537109375	0.0	5882.536639769879911909811198711395263671875	0.0	1	1	1	0
4400	S6	2019	7	3	8	0	0	0	0	0	0	324.75000309447301560794585384428501129150390625	0.0	9264.096205433199429535306990146636962890625	0.0	1	1	1	0
4401	S6	2019	7	3	9	0	0	0	0	0	0	535.1666621863849968576687388122081756591796875	0.0	14460.056846340399715700186789035797119140625	0.0	1	1	1	0
4402	S6	2019	7	3	10	0	0	0	0	0	0	675.250001251695039172773249447345733642578125	0.0	18450.7659077643984346650540828704833984375	0.0	1	1	1	0
4403	S6	2019	7	3	11	0	0	0	0	0	0	610.500007867811973483185283839702606201171875	0.0	16100.549081961200499790720641613006591796875	0.0	1	1	1	0
4404	S6	2019	7	3	12	0	0	0	0	0	0	670.083336532112980421516112983226776123046875	0.0	16195.000062386199715547263622283935546875	0.0	1	1	1	0
4405	S6	2019	7	3	13	0	0	0	0	0	0	645.9166680773120106096030212938785552978515625	0.0	16479.55423593520026770420372486114501953125	0.0	1	1	1	0
4406	S6	2019	7	3	14	0	0	0	0	0	0	809.916665156684985049651004374027252197265625	0.0	19509.2510779697986436076462268829345703125	0.0	1	1	1	0
4407	S6	2019	7	3	15	0	0	0	0	0	0	625.750005245208967608050443232059478759765625	0.0	15683.092186848300116253085434436798095703125	0.0	1	1	1	0
4408	S6	2019	7	3	16	0	0	0	0	0	0	566.8333346645040364819578826427459716796875	0.0	14555.147280295599557575769722461700439453125	0.0	1	1	1	0
4409	S6	2019	7	3	17	0	0	0	0	0	0	359.583328478038993125665001571178436279296875	0.0	9338.0733107526903040707111358642578125	0.0	1	1	1	0
4410	S6	2019	7	3	18	0	0	0	0	0	0	326.2500042716679899967857636511325836181640625	0.0	8172.82394071417002123780548572540283203125	0.0	1	1	1	0
4411	S6	2019	7	3	19	0	0	0	0	0	0	156.2500003104399866060703061521053314208984375	0.0	3863.25952162346993645769543945789337158203125	0.0	1	1	1	0
4412	S6	2019	7	3	20	0	0	0	0	0	0	39.1666671882070005494824727065861225128173828125	0.0	1289.68784896036004283814691007137298583984375	0.0	1	1	1	0
4413	S6	2019	7	3	21	0	0	0	0	0	0	7.66666668156781039300540214753709733486175537109375	0.0	244.669658558754008481628261506557464599609375	0.0	1	1	1	0
4414	S6	2019	7	3	22	0	0	0	0	0	0	0	0.0	3.281483465495159901337274277466349303722381591796875	0.0	1	1	1	0
4415	S6	2019	7	3	23	0	0	0	0	0	0	0	0.0	0	0.0	1	1	1	0
4416	S6	2019	7	3	24	0	0	0	0	0	0	0	0.0	0	0.0	1	1	1	0
4417	S6	2019	7	4	1	0	0	0	0	0	0	0	0.0	0	0.0	1	1	1	0
4418	S6	2019	7	4	2	0	0	0	0	0	0	0	0.0	0	0.0	1	1	1	0
4419	S6	2019	7	4	3	0	0	0	0	0	0	0	0.0	0	0.0	1	1	1	0
4420	S6	2019	7	4	4	0	0	0	0	0	0	1.3333333675594400968833497245213948190212249755859375	0.0	76.628457832460895815529511310160160064697265625	0.0	1	1	1	0
4421	S6	2019	7	4	5	0	0	0	0	0	0	19.3333333202946988649273407645523548126220703125	0.0	637.60989283521894321893341839313507080078125	0.0	1	1	1	0
4422	S6	2019	7	4	6	0	0	0	0	0	0	48.5000004991888005179134779609739780426025390625	0.0	1775.022911528739996356307528913021087646484375	0.0	1	1	1	0
4423	S6	2019	7	4	7	0	0	0	0	0	0	141.333333527046988820075057446956634521484375	0.0	4027.0387033621400405536405742168426513671875	0.0	1	1	1	0
4424	S6	2019	7	4	8	0	0	0	0	0	0	213.3333298067240093587315641343593597412109375	0.0	5935.5920106172698069713078439235687255859375	0.0	1	1	1	0
4425	S6	2019	7	4	9	0	0	0	0	0	0	129.583333929378994753278675489127635955810546875	0.0	3899.34110144773012507357634603977203369140625	0.0	1	1	1	0
4426	S6	2019	7	4	10	0	0	0	0	0	0	146.833333497246002252722973935306072235107421875	0.0	4440.5623575051604348118416965007781982421875	0.0	1	1	1	0
4427	S6	2019	7	4	11	186.238729095458012352537480182945728302001953125	0.7923537602382040301307597474078647792339324951171875	184.175954873221002117134048603475093841552734375	14.160000010899100431061015115119516849517822265625	88.9057148524693019453479791991412639617919921875	2.341428578751420186421228208928368985652923583984375	139.66666596631199581679538823664188385009765625	0.0	4261.54724756876021274365484714508056640625	0.0	1	1	1	1
4428	S6	2019	7	4	12	168.54443772633800335825071670114994049072265625	0.69940753692968005150731869434821419417858123779296875	167.5002802530920007484382949769496917724609375	14.6172221395703996194015417131595313549041748046875	85.9627772437200974309234879910945892333984375	3.494166662047299976023850831552408635616302490234375	154.833334187665997205840540118515491485595703125	0.0	4717.0800268650300495210103690624237060546875	0.0	1	1	1	1
4429	S6	2019	7	4	13	210.654300580705012180260382592678070068359375	0.73499898192073598313101001622271724045276641845703125	208.966983773366990817521582357585430145263671875	14.7879999433243991546760298660956323146820068359375	85.5622860281807930959985242225229740142822265625	3.8862857161249397819346995675005018711090087890625	191.33333240946200248799868859350681304931640625	0.0	5821.165899435700339381583034992218017578125	0.0	1	1	1	1
4430	S6	2019	7	4	14	310.31023898654501635974156670272350311279296875	1.9635591650174699651643095421604812145233154296875	306.90254194471498294660705141723155975341796875	15.0633332305484000102069330750964581966400146484375	86.53611111111109721605316735804080963134765625	4.26666667229599028132724924944341182708740234375	289.7500010828169934029574505984783172607421875	0.0	8747.78212110200911411084234714508056640625	0.0	1	1	1	1
4431	S6	2019	7	4	15	352.070966762966008900548331439495086669921875	8.3291586497591598714507199474610388278961181640625	342.7704965803350205533206462860107421875	15.612222327126300314148465986363589763641357421875	82.914444096883102020001388154923915863037109375	4.20249999496671033938355321879498660564422607421875	337.91666850447501246890169568359851837158203125	0.0	10000.118970870900739100761711597442626953125	0.0	1	1	1	1
4432	S6	2019	7	4	16	168.676374314706009727160562761127948760986328125	0.467384088530995001065093674696981906890869140625	167.627076957799005185734131373465061187744140625	15.4278479859798007822746512829326093196868896484375	78.499367267270599768380634486675262451171875	4.07689873063111019035886783967725932598114013671875	139.166666194796988520465674810111522674560546875	0.0	4264.793065687010312103666365146636962890625	0.0	1	1	1	1
4433	S6	2019	7	4	17	116.859925307374993508346960879862308502197265625	0.463805967265499996532440718510770238935947418212890625	116.32330830536699295407743193209171295166015625	14.58519567724039944778269273228943347930908203125	85.3946923623537941239192150533199310302734375	4.51145251370008981695036709425039589405059814453125	106.750000578661996541995904408395290374755859375	0.0	3248.9750261108101767604239284992218017578125	0.0	1	1	1	1
4434	S6	2019	7	4	18	81.69070984851350658573210239410400390625	0.315753924382058015485341684325248934328556060791015625	81.40245062729400160606019198894500732421875	14.3445402260483998446716213948093354701995849609375	86.2218389620725957911417935974895954132080078125	4.39109195597554968770737104932777583599090576171875	73.249999744196799156270571984350681304931640625	0.0	2251.2068003415997736738063395023345947265625	0.0	1	1	1	1
4435	S6	2019	7	4	19	48.86341124640569688608593423850834369659423828125	0.268847760061422025312793948614853434264659881591796875	48.67462053298950053203952847979962825775146484375	13.936111036936399187879942473955452442169189453125	90.2000003814697066673033987171947956085205078125	4.00749999135731993504805359407328069210052490234375	42.8333332141238969370533595792949199676513671875	0.0	1313.71623153487007584772072732448577880859375	0.0	1	1	1	1
4436	S6	2019	7	4	20	18.647810750537399115955849993042647838592529296875	0.2356705598843590043767193265011883340775966644287109375	18.56216551462799912997070350684225559234619140625	13.7738889959122996486939882743172347545623779296875	92.4294445037840972645426518283784389495849609375	3.76027777724794987079803831875324249267578125	16.000000061467201106779612018726766109466552734375	0.0	482.23254363983897974321735091507434844970703125	0.0	1	1	1	1
4437	S6	2019	7	4	21	2.886670020250340140677280942327342927455902099609375	0.2060338481684030054186251845749211497604846954345703125	2.83792249300161980585244236863218247890472412109375	13.6674922021918998638057018979452550411224365234375	93.2798759295105952560334117151796817779541015625	3.37182661401967020964320909115485846996307373046875	1.4166666951496100779195330687798559665679931640625	0.0	49.998500539610603254914167337119579315185546875	0.0	1	1	1	1
4438	S6	2019	7	4	22	0	0	0	0	0	0	0	0.0	0	0.0	1	1	1	0
4439	S6	2019	7	4	23	0	0	0	0	0	0	0	0.0	0	0.0	1	1	1	0
4440	S6	2019	7	4	24	0	0	0	0	0	0	0	0.0	0	0.0	1	1	1	0
4441	S6	2019	7	5	1	0	0	0	0	0	0	0	0.0	0	0.0	1	1	1	0
4442	S6	2019	7	5	2	0	0	0	0	0	0	0	0.0	0	0.0	1	1	1	0
4443	S6	2019	7	5	3	0	0	0	0	0	0	0	0.0	0	0.0	1	1	1	0
4444	S6	2019	7	5	4	12.338027488894500294236422632820904254913330078125	4.88763927831881961338922337745316326618194580078125	12.2068671017157992508828101563267409801483154296875	13.1585367714486007884033824666403234004974365234375	88.2121950475180938155972398817539215087890625	2.526829274689270210529912219499237835407257080078125	2.16666675987652990187370960484258830547332763671875	0.0	102.855534370366996199663844890892505645751953125	0.0	1	1	1	0
4445	S6	2019	7	5	5	35.77601743096089847995244781486690044403076171875	65.06275813936480290067265741527080535888671875	27.86749611069669896323830471374094486236572265625	13.0681416812546995487309686723165214061737060546875	85.1817108874474939739229739643633365631103515625	2.125073738593969974175479364930652081966400146484375	18.750000124176299465261763543821871280670166015625	0.0	704.514780392247985219000838696956634521484375	0.0	1	1	1	1
4446	S6	2019	7	5	6	106.1885970807000063587111071683466434478759765625	195.2887524238279866040102206170558929443359375	68.5465045262202039566545863635838031768798828125	13.191977181202300783979808329604566097259521484375	81.238109271642400699420250020921230316162109375	2.153581657860539788629239410511218011379241943359375	48.5000000335275984753025113604962825775146484375	0.0	1621.54997388520996537408791482448577880859375	0.0	1	1	1	1
4447	S6	2019	7	5	7	164.305079949137990524832275696098804473876953125	55.529986073714098893105983734130859375	145.91053702811001357986242510378360748291015625	13.6135977780177004348161062807776033878326416015625	79.2949007374705985284890630282461643218994140625	2.20084985508121011577031822525896131992340087890625	134.66666700939100564937689341604709625244140625	0.0	3815.063258012140067876316606998443603515625	0.0	1	1	1	1
4448	S6	2019	7	5	8	301.44094802810599276199354790151119232177734375	198.39886878023600047526997514069080352783203125	207.2007747340840069227851927280426025390625	14.338738762222600797713312203995883464813232421875	77.084684354764902991519193165004253387451171875	1.8870870808402300244921434568823315203189849853515625	227.749998370805002423367113806307315826416015625	0.0	6436.6221378246800668421201407909393310546875	0.0	1	1	1	1
4449	S6	2019	7	5	9	421.61463694907797616906464099884033203125	301.48779326538300438187434338033199310302734375	236.8351919191690058141830377280712127685546875	15.4003058500610006120723483036272227764129638671875	72.5590210427566972839485970325767993927001953125	1.5840978599651800440284432625048793852329254150390625	365.75000112255298745367326773703098297119140625	0.0	10716.201454400899820029735565185546875	0.0	1	1	1	1
4450	S6	2019	7	5	10	685.8833073535589619496022351086139678955078125	698.2191574628719763495610095560550689697265625	190.19686981568798955777310766279697418212890625	16.65240970577099943739085574634373188018798828125	66.5939760897532977423907141201198101043701171875	1.7295180754848200610496178342145867645740509033203125	717.0833274722090209252201020717620849609375	0.0	18394.4666385650998563505709171295166015625	0.0	1	1	1	1
4451	S6	2019	7	5	11	838.928046317327016367926262319087982177734375	835.6722651439760056746308691799640655517578125	184.48638952345999086901429109275341033935546875	18.11220236051649834507770719937980175018310546875	60.87619040125890279568920959718525409698486328125	1.3407738067741898912998976811650209128856658935546875	868.75000596046402279171161353588104248046875	0.0	21671.78440093990138848312199115753173828125	0.0	1	1	1	1
4452	S6	2019	7	5	12	894.9187666151250368784531019628047943115234375	924.0758955213749459289829246699810028076171875	130.374371676973993317005806602537631988525390625	18.719444433848000386433341191150248050689697265625	58.1422222985161027963840751908719539642333984375	1.486388888789540008161793593899346888065338134765625	1026.500001549710077597410418093204498291015625	0.0	25448.8440354664999176748096942901611328125	0.0	1	1	1	1
4453	S6	2019	7	5	13	872.5272264121230136879603378474712371826171875	878.2175897105879585069487802684307098388671875	138.638416058084004589545656926929950714111328125	19.226086978635901658662987756542861461639404296875	54.234782652923996693061781115829944610595703125	1.4892753599346499893130157943232916295528411865234375	994.9166824420359489522525109350681304931640625	0.0	24324.50451453520145150832831859588623046875	0.0	1	1	1	1
4454	S6	2019	7	5	14	857.6811228491070551172015257179737091064453125	906.72093636546696870937012135982513427734375	128.074001227010995762611855752766132354736328125	19.533519638317198285903941723518073558807373046875	46.58938553879379895761303487233817577362060546875	1.7913407797420399791832323899143375456333160400390625	1006.0833295186199620729894377291202545166015625	0.0	24428.52902412409821408800780773162841796875	0.0	1	1	1	1
4455	S6	2019	7	5	15	782.3564817640509545526583679020404815673828125	930.2202419704859721605316735804080963134765625	90.47042140960689948769868351519107818603515625	19.880555566151901558669123915024101734161376953125	42.584999953375898940066690556704998016357421875	1.4630555552740800440147950212121941149234771728515625	910.4166676600769960714387707412242889404296875	0.0	22311.98501586910060723312199115753173828125	0.0	1	1	1	1
4456	S6	2019	7	5	16	672.5282012939450169142219237983226776123046875	908.56329006618898347369395196437835693359375	77.5439382976955045023714774288237094879150390625	20.201111104753199043670974788255989551544189453125	40.11722240447989662470718030817806720733642578125	1.59055555553899008458529351628385484218597412109375	764.8333261410399472879362292587757110595703125	0.0	18978.95427544910126016475260257720947265625	0.0	1	1	1	1
4457	S6	2019	7	5	17	538.3920731438530538071063347160816192626953125	853.073776414659050715272314846515655517578125	75.0824903064303015298719401471316814422607421875	20.03333317438760019513210863806307315826416015625	42.1444443596733009371746447868645191192626953125	1.867499998956910101099992971285246312618255615234375	578.833334147929008395294658839702606201171875	0.0	14475.08424520490007125772535800933837890625	0.0	1	1	1	1
4458	S6	2019	7	5	18	395.61377224392299467581324279308319091796875	793.12426079644001220003701746463775634765625	65.7509396870930942213817615993320941925048828125	19.8472218301561014186518150381743907928466796875	44.224444516499801238751388154923915863037109375	2.088055554694590032482892638654448091983795166015625	379.0000031391770107802585698664188385009765625	0.0	9212.281843026439673849381506443023681640625	0.0	1	1	1	1
4459	S6	2019	7	5	19	245.85294439527700660619302652776241302490234375	663.586110602484041010029613971710205078125	55.105462159050802029014448635280132293701171875	19.68777765697900150598798063583672046661376953125	46.65222206115719671970509807579219341278076171875	1.8144444447424599164975234089069999754428863525390625	180.1666679481650135130621492862701416015625	0.0	3951.30253334840017487294971942901611328125	0.0	1	1	1	1
4460	S6	2019	7	5	20	67.6738483926524025946491747163236141204833984375	163.31125288255799432590720243752002716064453125	36.41997780177899812770192511379718780517578125	18.315217465939699792443207115866243839263916015625	50.963478254235297981722396798431873321533203125	2.54478260123210997534215493942610919475555419921875	32.5833335518835980337826185859739780426025390625	0.0	1142.028262217839937875396572053432464599609375	0.0	1	1	1	1
4461	S6	2019	7	5	21	20.313235063263800128652292187325656414031982421875	8.88845689585713927272081491537392139434814453125	20.984230891140999375465980847366154193878173828125	17.490909137147799157219196786172688007354736328125	56.2678789774575989213190041482448577880859375	2.377575750061959869441352566354908049106597900390625	7.5833333830814897424943410442210733890533447265625	0.0	304.56822225823901817420846782624721527099609375	0.0	1	1	1	1
4462	S6	2019	7	5	22	0	0	0	0	0	0	0	0.0	1.0781666884819600671363559740711934864521026611328125	0.0	1	1	1	0
4463	S6	2019	7	5	23	0	0	0	0	0	0	0	0.0	0	0.0	1	1	1	0
4464	S6	2019	7	5	24	0	0	0	0	0	0	0	0.0	0	0.0	1	1	1	0
4465	S6	2019	7	6	1	0	0	0	0	0	0	0	0.0	0	0.0	1	1	1	0
4466	S6	2019	7	6	2	0	0	0	0	0	0	0	0.0	0	0.0	1	1	1	0
4467	S6	2019	7	6	3	0	0	0	0	0	0	0	0.0	0	0.0	1	1	1	0
4468	S6	2019	7	6	4	1.144934280352150057780136194196529686450958251953125	0.07290090689308599547491240855379146523773670196533203125	1.1424670219421300121354079237789846956729888916015625	13.1636363809758005771755051682703197002410888671875	85.3909086747602970035586622543632984161376953125	0.9636363766410129816364360522129572927951812744140625	0	0.0	0	0.0	1	1	1	0
4469	S6	2019	7	6	5	10.1899491487828992575259690056554973125457763671875	0.25640327373036597702338212911854498088359832763671875	10.2946127735906003408672404475510120391845703125	12.6814814761831993195073664537630975246429443359375	89.8412040781091008057046565227210521697998046875	0.60833333860392901915048469163593836128711700439453125	5.16666674714844020854798145592212677001953125	0.0	175.947356231820009497823775745928287506103515625	0.0	1	1	1	1
4470	S6	2019	7	6	6	21.34821164368889867546386085450649261474609375	0.269059079443036974765846025547944009304046630859375	21.5533125366385007737335399724543094635009765625	12.751002822701000383176506147719919681549072265625	91.5343835825222953417323878966271877288818359375	1.479656159450799979282464846619404852390289306640625	19.41666682250789932595580467022955417633056640625	0.0	601.0253584633270520498626865446567535400390625	0.0	1	1	1	1
4471	S6	2019	7	6	7	59.79031146338220281677422462962567806243896484375	0.410799396788240012146076196586363948881626129150390625	60.33754597818450093882347573526203632354736328125	12.15993891433100060339711490087211132049560546875	83.163302873617197974454029463231563568115234375	1.6764525996253301087790532619692385196685791015625	51.500000059604502666843472979962825775146484375	0.0	1568.2704883317101121065206825733184814453125	0.0	1	1	1	1
4472	S6	2019	7	6	8	94.909015380011595652831601910293102264404296875	0.5229817400376000069428528149728663265705108642578125	95.0549209382798068190822959877550601959228515625	12.6299999634423993910559147479943931102752685546875	83.10138863457569868842256255447864532470703125	0.79277777887052902627829098491929471492767333984375	86.1666665102047062418932910077273845672607421875	0.0	2613.96674563487022169283591210842132568359375	0.0	1	1	1	1
4473	S6	2019	7	6	9	109.944975259567996772602782584726810455322265625	0.45293657024804900856906897388398647308349609375	109.72150141398100231526768766343593597412109375	13.018055529064600506217175279743969440460205078125	87.3763892491657969685547868721187114715576171875	1.28111110909116998612944371416233479976654052734375	96.916666875282999171759001910686492919921875	0.0	3019.33750510214986206847243010997772216796875	0.0	1	1	1	1
4474	S6	2019	7	6	10	215.356908798217006051345379091799259185791015625	0.925213109619086981894042764906771481037139892578125	214.37090964847101304258103482425212860107421875	13.29111106925540042311695287935435771942138671875	89.918611272176093507368932478129863739013671875	1.61416666623617999221096397377550601959228515625	200.2500016242260016952059231698513031005859375	0.0	5934.3890845775304114795289933681488037109375	0.0	1	1	1	1
4475	S6	2019	7	6	11	201.92478523254300171174691058695316314697265625	0.764170769105354974470856177504174411296844482421875	200.727206484475999559435877017676830291748046875	14.401111155085999371294747106730937957763671875	89.6380554199217982613845379091799259185791015625	2.07472221958968017219149260199628770351409912109375	185.083336507279994975760928355157375335693359375	0.0	5477.7047783136104044388048350811004638671875	0.0	1	1	1	1
4476	S6	2019	7	6	12	249.12708723280098865870968438684940338134765625	1.0218520629737100069434063698281534016132354736328125	247.2257383134630117638153024017810821533203125	15.2202778206931004234547799569554626941680908203125	90.752500110202305450002313591539859771728515625	2.49111111048194988626391932484693825244903564453125	232.249997556208001014965702779591083526611328125	0.0	6819.794615109780352213419973850250244140625	0.0	1	1	1	1
4477	S6	2019	7	6	13	184.871978081597006848824094049632549285888671875	0.631586137413977954935262459912337362766265869140625	183.26239530775200137213687412440776824951171875	15.746388875113499494773350306786596775054931640625	90.863889079623703537436085753142833709716796875	2.69194444343446992462531852652318775653839111328125	168.99999976157999981296597979962825775146484375	0.0	5049.2701133092296004178933799266815185546875	0.0	1	1	1	1
4478	S6	2019	7	6	14	371.78346733819802238940610550343990325927734375	217.72430264144799139103270135819911956787109375	195.245394842964998360912431962788105010986328125	16.63928580567949921942272339947521686553955078125	91.0949401855468039457264239899814128875732421875	2.144642855085070021203819123911671340465545654296875	441.666662693028001740458421409130096435546875	0.0	11128.899271289499665726907551288604736328125	0.0	1	1	1	1
4479	S6	2019	7	6	15	356.95299324523699624478467740118503570556640625	102.3370699180999991995122400112450122833251953125	281.42670954437699037953279912471771240234375	16.773064077101100366462560486979782581329345703125	82.5377102733059047068309155292809009552001953125	3.2343434279013099086341753718443214893341064453125	339.99999457349400699968100525438785552978515625	0.0	8815.367981791490819887258112430572509765625	0.0	1	1	1	1
4480	S6	2019	7	6	16	425.91854120967599328650976531207561492919921875	263.5662957879479790790355764329433441162109375	260.2432247498110200467635877430438995361328125	17.501823529646298283068972523324191570281982421875	70.702431977338704882640740834176540374755859375	3.369604860033299953414598348899744451045989990234375	477.4999991059299873086274601519107818603515625	0.0	12369.226649403499322943389415740966796875	0.0	1	1	1	1
4481	S6	2019	7	6	17	472.43996424704602077326853759586811065673828125	485.57204522271098312558024190366268157958984375	201.354333486616013715320150367915630340576171875	17.68602496792809830594705999828875064849853515625	57.170186321187401290444540791213512420654296875	4.00714286190012014543526674970053136348724365234375	501.58333778381302181514911353588104248046875	0.0	12805.5392007033005938865244388580322265625	0.0	1	1	1	1
4482	S6	2019	7	6	18	264.35277779236702144771697930991649627685546875	184.336345004110995660084881819784641265869140625	190.419581019913010777599993161857128143310546875	16.66231441780789879203439340926706790924072265625	59.1783382178060008982356521300971508026123046875	4.4189910987718103996257923427037894725799560546875	260.75000129640199020286672748625278472900390625	0.0	6821.7573960622003141907043755054473876953125	0.0	1	1	1	1
4483	S6	2019	7	6	19	178.344443470664003825731924735009670257568359375	233.7170940335209934346494264900684356689453125	107.5830107251459963890738436020910739898681640625	16.198575430106501471527735702693462371826171875	60.8170941127331019515622756443917751312255859375	4.272079764353239994534305878914892673492431640625	147.16666812697900468265288509428501129150390625	0.0	3686.72936161358984463731758296489715576171875	0.0	1	1	1	1
4484	S6	2019	7	6	20	55.00722279805619763237700681202113628387451171875	2.0642748792114797851127150352112948894500732421875	55.2807664243047014451803988777101039886474609375	15.4931136176970998263868750655092298984527587890625	66.8988022261749932795282802544534206390380859375	3.83383234032613007258305515279062092304229736328125	46.166666783392400930097210220992565155029296875	0.0	1303.39983726540003772242926061153411865234375	0.0	1	1	1	1
4485	S6	2019	7	6	21	15.225775913758699431355125852860510349273681640625	0.29107211285081202589708482264541089534759521484375	15.6676503610816997280608120490796864032745361328125	14.73419925144740005862331599928438663482666015625	71.3852818476689066073959111236035823822021484375	4.48701300352681986538527780794538557529449462890625	6.8333333862635203814761553076095879077911376953125	0.0	245.587539975531996105928556062281131744384765625	0.0	1	1	1	1
4486	S6	2019	7	6	22	0	0	0	0	0	0	0	0.0	1.48614996578545000005533438525162637233734130859375	0.0	1	1	1	0
4487	S6	2019	7	6	23	0	0	0	0	0	0	0	0.0	0	0.0	1	1	1	0
4488	S6	2019	7	6	24	0	0	0	0	0	0	0	0.0	0	0.0	1	1	1	0
4489	S6	2019	7	7	1	0	0	0	0	0	0	0	0.0	0	0.0	1	1	1	0
4490	S6	2019	7	7	2	0	0	0	0	0	0	0	0.0	0	0.0	1	1	1	0
4491	S6	2019	7	7	3	0	0	0	0	0	0	0	0.0	0	0.0	1	1	1	0
4492	S6	2019	7	7	4	5.21891246600583968984210514463484287261962890625	0.26654675433581498378288188177975825965404510498046875	5.39030452749944988255492717144079506397247314453125	14.2431818571956991803517666994594037532806396484375	80.8318184939297026403437484987080097198486328125	2.7159090787172299741314418497495353221893310546875	0.91666668110217497389413665587198920547962188720703125	0.0	28.947791744333901675645392970182001590728759765625	0.0	1	1	1	0
4493	S6	2019	7	7	5	36.704605325062999554575071670114994049072265625	3.200793011600350013168281293474137783050537109375	37.06177541149980214640891063027083873748779296875	14.2205555518468003128873533569276332855224609375	80.3194443596733975709867081604897975921630859375	2.32027777499622001045054275891743600368499755859375	29.833333411564399995086205308325588703155517578125	0.0	923.0414312332840154340374283492565155029296875	0.0	1	1	1	1
4494	S6	2019	7	7	6	64.82804163826830290418001823127269744873046875	13.21303194334929997921790345571935176849365234375	62.0853593561383974019918241538107395172119140625	14.234722230169499113117126398719847202301025390625	81.3799996482000977948700892738997936248779296875	2.368055555141630019733156586880795657634735107421875	53.91666681195300014906024443916976451873779296875	0.0	1508.211315919950038733077235519886016845703125	0.0	1	1	1	1
4495	S6	2019	7	7	7	141.590921020507011007794062606990337371826171875	38.34648220933529927378913271240890026092529296875	127.8399914236619991925181238912045955657958984375	14.676470560186000824387519969604909420013427734375	80.946176461612395769407157786190509796142578125	2.15176469727474017901158731547184288501739501953125	119.6666676551109986803567153401672840118408203125	0.0	3379.05235091844997441512532532215118408203125	0.0	1	1	1	1
4496	S6	2019	7	7	8	223.843357355454003254635608755052089691162109375	87.08517958244630108310957439243793487548828125	182.34135975557200026742066256701946258544921875	15.316764677272100669824794749729335308074951171875	77.053234975478204660248593427240848541259765625	2.382352940650540151779068764881230890750885009765625	187.41666711866901096072979271411895751953125	0.0	5371.91237509251004667021334171295166015625	0.0	1	1	1	1
4497	S6	2019	7	7	9	236.446880283640012976320576854050159454345703125	78.3457619000834029066027142107486724853515625	188.197440839168990578400553204119205474853515625	15.5005970399770998113808673224411904811859130859375	76.139402770996099434341886080801486968994140625	2.60328357717884006916619910043664276599884033203125	210.500001286464993199842865578830242156982421875	0.0	6016.7519996563396489364095032215118408203125	0.0	1	1	1	1
4498	S6	2019	7	7	10	410.51758514888700801748200319707393646240234375	166.02037216245099671141360886394977569580078125	293.5450189015219848442939110100269317626953125	16.13206342666860138024276238866150379180908203125	74.11714305574929539943695999681949615478515625	2.579365081541120208186157469754107296466827392578125	416.083327184119980302057228982448577880859375	0.0	11235.579629739100710139609873294830322265625	0.0	1	1	1	1
4499	S6	2019	7	7	11	375.05461960350902472782763652503490447998046875	63.938362758704300858880742453038692474365234375	321.553219891233993621426634490489959716796875	15.8201342557100002039760511252097785472869873046875	76.0630875913887933847945532761514186859130859375	2.312416105762419960001352592371404170989990234375	373.5833348085490115408902056515216827392578125	0.0	9939.692551891019320464693009853363037109375	0.0	1	1	1	1
4500	S6	2019	7	7	12	398.57831970391197273784200660884380340576171875	45.75214566051349862618735642172396183013916015625	356.81651592805798145491280592978000640869140625	16.458670516923600501968394382856786251068115234375	72.7612718791630044279372668825089931488037109375	2.695375714171130088203653940581716597080230712890625	402.41666634877498154310160316526889801025390625	0.0	10713.57627709699954721145331859588623046875	0.0	1	1	1	1
4501	S6	2019	7	7	13	590.0038618772599647854804061353206634521484375	151.063236005227992109212209470570087432861328125	458.01383768415502117932192049920558929443359375	17.330267060050598360021467669866979122161865234375	69.139168962880404478710261173546314239501953125	2.572700293375400182327439324581064283847808837890625	650.83333849906603063573129475116729736328125	0.0	15520.679036776200518943369388580322265625	0.0	1	1	1	1
4502	S6	2019	7	7	14	459.85034790918501812484464608132839202880859375	159.28692413388699833376449532806873321533203125	328.8386552354439800183172337710857391357421875	17.3141209824971014086258946917951107025146484375	67.5155613704097987692875904031097888946533203125	2.5383285278889200498042555409483611583709716796875	520.5833353102169667181442491710186004638671875	0.0	13412.78989116340017062611877918243408203125	0.0	1	1	1	1
4503	S6	2019	7	7	15	599.8248170140269621697370894253253936767578125	414.4856645151950260697049088776111602783203125	284.5008309145999874090193770825862884521484375	17.793674601129698231716247391887009143829345703125	64.6801204566495044900875655002892017364501953125	3.347891569047800164327099992078728973865509033203125	688.1666630506530282218591310083866119384765625	0.0	17637.9451950391012360341846942901611328125	0.0	1	1	1	1
4504	S6	2019	7	7	16	472.5513830798410026545752771198749542236328125	192.655716779941002414489048533141613006591796875	345.9123682836340094581828452646732330322265625	17.63333351291409911709706648252904415130615234375	65.0429826368364985000880551524460315704345703125	2.790350876879270192176818454754538834095001220703125	462.58333573738701716138166375458240509033203125	0.0	12382.45398799579925253055989742279052734375	0.0	1	1	1	1
4505	S6	2019	7	7	17	509.96464556793597466821665875613689422607421875	488.4909097899250127738923765718936920166015625	236.7938012422019937730510719120502471923828125	18.14567181601449874506215564906597137451171875	63.1820896774975011567221372388303279876708984375	2.621791039029159886553088654181919991970062255859375	493.66666873296099993240204639732837677001953125	0.0	12459.531366825000077369622886180877685546875	0.0	1	1	1	1
4506	S6	2019	7	7	18	215.650373156023988485685549676418304443359375	28.397092201791100052332694758661091327667236328125	203.432078156962006687535904347896575927734375	17.034261745994800918424516567029058933258056640625	65.3972145016811055029393173754215240478515625	2.660167132413480128860783224808983504772186279296875	206.999999781449986357984016649425029754638671875	0.0	5707.1907718976099204155616462230682373046875	0.0	1	1	1	1
4507	S6	2019	7	7	19	130.3432180404660130079719237983226776123046875	32.83236548461839987567145726643502712249755859375	120.955506218804003992772777564823627471923828125	16.52305522494840062108778511174023151397705078125	67.8558331171670943149365484714508056640625	3.051111115846360188896824183757416903972625732421875	107.8333333134650047213654033839702606201171875	0.0	3001.32979204257981109549291431903839111328125	0.0	1	1	1	1
4508	S6	2019	7	7	20	53.65186679098339794791172607801854610443115234375	1.168357864767310072551254052086733281612396240234375	54.10263812806869765381634351797401905059814453125	15.6766666756735002508094112272374331951141357421875	70.8588894314236057425659964792430400848388671875	2.4944444470935298596714346786029636859893798828125	44.166666610787302715834812261164188385009765625	0.0	1263.8801597058800325612537562847137451171875	0.0	1	1	1	1
4509	S6	2019	7	7	21	13.578973328593800573571570566855370998382568359375	0.2210519051831550119135982868101564235985279083251953125	13.741945686753400224233701010234653949737548828125	14.928159021728699684672392322681844234466552734375	74.5191339981684990334542817436158657073974609375	2.146209382838720092223638857831247150897979736328125	8.333333253782910787776927463710308074951171875	0.0	262.7411723757790014133206568658351898193359375	0.0	1	1	1	1
4510	S6	2019	7	7	22	0	0	0	0	0	0	0	0.0	0	0.0	1	1	1	0
4511	S6	2019	7	7	23	0	0	0	0	0	0	0	0.0	0	0.0	1	1	1	0
4512	S6	2019	7	7	24	0	0	0	0	0	0	0	0.0	0	0.0	1	1	1	0
4513	S6	2019	7	8	1	0	0	0	0	0	0	0	0.0	0	0.0	1	1	1	0
4514	S6	2019	7	8	2	0	0	0	0	0	0	0	0.0	0	0.0	1	1	1	0
4515	S6	2019	7	8	3	0	0	0	0	0	0	0	0.0	0	0.0	1	1	1	0
4516	S6	2019	7	8	4	0.84916657706101694724765138744260184466838836669921875	0.27666313449541701796619008746347390115261077880859375	0.88058078289031904706263276239042170345783233642578125	13.4666665395099993673966309870593249797821044921875	85.5	2.250000039736419932268063348601572215557098388671875	0	0.0	0	0.0	1	1	1	0
4517	S6	2019	7	8	5	8.8090931403856291836973468889482319355010986328125	0.28537903534122699422681534997536800801753997802734375	8.905921420071020833120201132260262966156005859375	13.567791494123699891360956826247274875640869140625	85.291104041725503748239134438335895538330078125	2.15797546222531000381650301278568804264068603515625	6.916666694451119923314763582311570644378662109375	0.0	203.78015815125098697535577230155467987060546875	0.0	1	1	1	1
4518	S6	2019	7	8	6	15.6338526209194998983775803935714066028594970703125	0.298704532037178005499100663655553944408893585205078125	15.7200263235303996367520085186697542667388916015625	13.4972221930821003610390107496641576290130615234375	86.815833261277902010988327674567699432373046875	1.9963888844682100565108839873573742806911468505859375	13.666666500891299307340887025929987430572509765625	0.0	411.2990746895490019596763886511325836181640625	0.0	1	1	1	1
4519	S6	2019	7	8	7	22.62346378554639869662423734553158283233642578125	0.286310891562440994473348609972163103520870208740234375	22.691620715323299606325235799886286258697509765625	13.4951566902660005098368856124579906463623046875	88.1823357258765980759562808088958263397216796875	2.23931623473125984702392088365741074085235595703125	20.250000059604499114129794179461896419525146484375	0.0	606.5911756207569851540029048919677734375	0.0	1	1	1	1
4520	S6	2019	7	8	8	74.19623515341010033807833679020404815673828125	0.5010112658143039965352727449499070644378662109375	74.3665962537128990561541286297142505645751953125	13.6986111270056003519357545883394777774810791015625	89.0233333375717990065822959877550601959228515625	1.8411111078328499246481442241929471492767333984375	71.249999726812205835813074372708797454833984375	0.0	2099.21329095958981270086951553821563720703125	0.0	1	1	1	1
4521	S6	2019	7	8	9	42.3274737196608015210586017929017543792724609375	0.323509506798667023641513651455170474946498870849609375	42.31895645434099861859067459590733051300048828125	13.788498394024600202101282775402069091796875	89.8869006854657044414125266484916210174560546875	1.391054313022860089432697350275702774524688720703125	36.4166665822265969154614140279591083526611328125	0.0	1080.688303336489980210899375379085540771484375	0.0	1	1	1	1
4522	S6	2019	7	8	10	84.2271141529082996157740126363933086395263671875	0.496934844305116973917080258615897037088871002197265625	83.7776402473449053331933100707828998565673828125	13.5963888936572008248049314715899527072906494140625	93.1977777269151062000673846341669559478759765625	1.8105555523600800338357430518954060971736907958984375	77.2499997789662984359893016517162322998046875	0.0	2428.29290032386006714659743010997772216796875	0.0	1	1	1	1
4523	S6	2019	7	8	11	490.47528557803997273367713205516338348388671875	115.4199856878490066947051673196256160736083984375	391.6382779382460057604475878179073333740234375	14.7924581399842995921289912075735628604888916015625	91.4354751203313043106390978209674358367919921875	2.076256976280789867672638138174079358577728271484375	521.9999992599090319345123134553432464599609375	0.0	13694.7484413782003684900701045989990234375	0.0	1	1	1	1
4524	S6	2019	7	8	12	553.082741078000026391237042844295501708984375	168.150133906153001817074255086481571197509765625	409.03502879156900462476187385618686676025390625	16.886646921627498585394278052262961864471435546875	79.396736348771895563913858495652675628662109375	2.22166171519620991858801062335260212421417236328125	569.9999990562599805343779735267162322998046875	0.0	14572.12229569749979418702423572540283203125	0.0	1	1	1	1
4525	S6	2019	7	8	13	613.3752561002160064163035713136196136474609375	315.113291674279025755822658538818359375	346.57002249136297677978291176259517669677734375	17.588288258503798289211772498674690723419189453125	74.779278981434998740951414220035076141357421875	2.08678678304582998492833212367258965969085693359375	642.7500049273149897999246604740619659423828125	0.0	15015.541305144599391496740281581878662109375	0.0	1	1	1	1
4526	S6	2019	7	8	14	794.5700717182279504413600079715251922607421875	704.3103012065249686202150769531726837158203125	225.059650253199009739546454511582851409912109375	19.2301886276627982397258165292441844940185546875	65.682704517676398836556472815573215484619140625	1.8795597482027399660609034981462173163890838623046875	964.66666956741801186581142246723175048828125	0.0	23304.832498232499347068369388580322265625	0.0	1	1	1	1
4527	S6	2019	7	8	15	808.110739983452049273182637989521026611328125	903.4281144883890419805538840591907501220703125	134.20016309950000277240178547799587249755859375	19.978333393732700784539701999165117740631103515625	59.09166649712449981279860367067158222198486328125	1.912500003476929943957429713918827474117279052734375	941.166669130320997282979078590869903564453125	0.0	22998.45544497169976239092648029327392578125	0.0	1	1	1	1
4528	S6	2019	7	8	16	726.9018778028430460835807025432586669921875	871.3891013374540079894359223544597625732421875	155.391777336930005048998282290995121002197265625	20.3639664090544982855135458521544933319091796875	58.25111737597580230385574395768344402313232421875	1.85782122470480004494675085879862308502197265625	811.1666738986949667378212325274944305419921875	0.0	19928.6450147629002458415925502777099609375	0.0	1	1	1	1
4529	S6	2019	7	8	17	563.434348945502961214515380561351776123046875	770.563278925669010277488268911838531494140625	146.243744011039012775654555298388004302978515625	20.02762758982429858178875292651355266571044921875	59.59009005572340100798101047985255718231201171875	1.80690690391771990874758557765744626522064208984375	568.2500054438900178865878842771053314208984375	0.0	14687.548836072199264890514314174652099609375	0.0	1	1	1	1
4530	S6	2019	7	8	18	413.97617450290198348739068023860454559326171875	759.7564366658519929842441342771053314208984375	98.7726575957403980510207475163042545318603515625	19.528888893127401615856797434389591217041015625	62.2352778752644013593453564681112766265869140625	1.982777775989629898134580798796378076076507568359375	393.749997019767988604144193232059478759765625	0.0	9732.2442034880004939623177051544189453125	0.0	1	1	1	1
4531	S6	2019	7	8	19	238.213302485148005871451459825038909912109375	646.348173353406991736846975982189178466796875	56.162882667117600021811085753142833709716796875	18.6647222677866011508740484714508056640625	65.0369444953069972825687727890908718109130859375	1.8380555521282799791293882663012482225894927978515625	175.08333362638899188823415897786617279052734375	0.0	3880.2336653073798515833914279937744140625	0.0	1	1	1	1
4532	S6	2019	7	8	20	64.0648136806859014313886291347444057464599609375	167.911142360897002845376846380531787872314453125	32.99648607009110179433264420367777347564697265625	17.03073929812649822679304634220898151397705078125	70.8929961386356950470144511200487613677978515625	2.0972762625041099227019003592431545257568359375	29.416666676600801366703308303840458393096923828125	0.0	1060.645465428629904636181890964508056640625	0.0	1	1	1	1
4533	S6	2019	7	8	21	17.299524769811501556660005007870495319366455078125	5.46635808577079984615920693613588809967041015625	17.3900869563668010187029722146689891815185546875	15.926946137479600196229512221179902553558349609375	79.1083830416558981823982321657240390777587890625	2.229940114085540159294396289624273777008056640625	6.00000002305022039905679775984026491641998291015625	0.0	248.85779332059200896765105426311492919921875	0.0	1	1	1	1
4534	S6	2019	7	8	22	0	0	0	0	0	0	0	0.0	2.783749873439500088778686404111795127391815185546875	0.0	1	1	1	0
4535	S6	2019	7	8	23	0	0	0	0	0	0	0	0.0	0	0.0	1	1	1	0
4536	S6	2019	7	8	24	0	0	0	0	0	0	0	0.0	0	0.0	1	1	1	0
4537	S6	2019	7	9	1	0	0	0	0	0	0	0	0.0	0	0.0	1	1	1	0
4538	S6	2019	7	9	2	0	0	0	0	0	0	0	0.0	0	0.0	1	1	1	0
4539	S6	2019	7	9	3	0	0	0	0	0	0	0	0.0	0	0.0	1	1	1	0
4540	S6	2019	7	9	4	5.49204756231868973515020115883089601993560791015625	0.297652738234575997555708681829855777323246002197265625	5.6421972555272699167971950373612344264984130859375	13.164706028209000265860595391131937503814697265625	84.6435297348919988280613324604928493499755859375	1.5670588195323900126965099843800999224185943603515625	1.2500000399692499097881182024138979613780975341796875	0.0	34.12511688657090047627207241021096706390380859375	0.0	1	1	1	0
4541	S6	2019	7	9	5	25.27052156395379967079861671663820743560791015625	15.16127759590739998429853585548698902130126953125	23.502874962488800036908287438564002513885498046875	13.1744444926578996302168889087624847888946533203125	84.9372220357258953526979894377291202545166015625	1.64638888819350004411035115481354296207427978515625	19.916666594023599401452884194441139698028564453125	0.0	605.9366300081229610441369004547595977783203125	0.0	1	1	1	1
4542	S6	2019	7	9	6	53.23078621758349981973879039287567138671875	0.7753070964167509959708013411727733910083770751953125	53.1966510613759027137348311953246593475341796875	13.3077777147292994897043172386474907398223876953125	82.740833049350300143487402237951755523681640625	1.6538888916373200022036371592548675835132598876953125	45.6666670118766973018864518962800502777099609375	0.0	1281.94144616523999502533115446567535400390625	0.0	1	1	1	1
4543	S6	2019	7	9	7	105.796940243010993754069204442203044891357421875	0.57337626134120600607246842628228478133678436279296875	105.843374119494995966306305490434169769287109375	13.7456824905692993610273333615623414516448974609375	81.1713093409631056829312001354992389678955078125	1.6378830041227800951020299180527217686176300048828125	96.58333410819460596030694432556629180908203125	0.0	2778.33377321561010830919258296489715576171875	0.0	1	1	1	1
4544	S6	2019	7	9	8	359.88316557624102642876096069812774658203125	255.64022453298599657500744797289371490478515625	227.703161456368007975470391102135181427001953125	14.8017045503312001386575502692721784114837646484375	75.4406252340836971370663377456367015838623046875	1.8250000002709299007364052158663980662822723388671875	294.99999930461098074374604038894176483154296875	0.0	8451.228936513280132203362882137298583984375	0.0	1	1	1	1
4545	S6	2019	7	9	9	555.6407485589739962961175478994846343994140625	441.137119209621005211374722421169281005859375	286.877530795771008342853747308254241943359375	16.328963366950400626365080825053155422210693359375	70.5929872931503012978282640688121318817138671875	1.824390243829749902459980148705653846263885498046875	576.0833323001860435397247783839702606201171875	0.0	15738.205492496499573462642729282379150390625	0.0	1	1	1	1
4546	S6	2019	7	9	10	715.068284653171986064990051090717315673828125	727.9811350909139946452341973781585693359375	198.45265345717899663213756866753101348876953125	17.162424145322798807455910718999803066253662109375	69.0042421976724966725669219158589839935302734375	2.00818181552669994260895691695623099803924560546875	742.999995748202991308062337338924407958984375	0.0	19635.955075422898516990244388580322265625	0.0	1	1	1	1
4547	S6	2019	7	9	11	776.5805992974170521847554482519626617431640625	743.0859011967969536271994002163410186767578125	193.9614916271630136179737746715545654296875	18.093055497275400966827874071896076202392578125	66.0311109542845997566473670303821563720703125	1.9016666672295901019396069386857561767101287841796875	840.1666680971790128751308657228946685791015625	0.0	21684.55811341599837760441005229949951171875	0.0	1	1	1	1
4548	S6	2019	7	9	12	771.0364715746660522199817933142185211181640625	428.4142833257179745487519539892673492431640625	403.57277568625301000793115235865116119384765625	18.414245935791601738173994817771017551422119140625	66.2064242016669055601596483029425144195556640625	2.3444134070220599141975981183350086212158203125	884.4999919335050435620360076427459716796875	0.0	21985.80106099439944955520331859588623046875	0.0	1	1	1	1
4549	S6	2019	7	9	13	858.0050179118070445838384330272674560546875	880.57255580432001806912012398242950439453125	118.90911482671600651883636601269245147705078125	19.31633248643409928035907796584069728851318359375	62.66790826136190162287675775587558746337890625	1.6724928339094600193703854529303498566150665283203125	1013.749991854029985915985889732837677001953125	0.0	24987.38479614250172744505107402801513671875	0.0	1	1	1	1
4550	S6	2019	7	9	14	827.5054297553159585731918923556804656982421875	903.1902903238930093721137382090091705322265625	93.723350948757598644078825600445270538330078125	19.568333212534501086565796867944300174713134765625	60.010000038146898759805480949580669403076171875	1.72916666095454996110447609680704772472381591796875	981.750001509976982561056502163410186767578125	0.0	24056.48688475289964117109775543212890625	0.0	1	1	1	1
4551	S6	2019	7	9	15	748.95886760224902900517918169498443603515625	826.176726270500012105912901461124420166015625	127.42496870816199816545122303068637847900390625	20.38991101771500069617104600183665752410888671875	61.35845671067959727906782063655555248260498046875	1.2133531153025101101405880399397574365139007568359375	866.6666597127920113052823580801486968994140625	0.0	21308.45238765079920995049178600311279296875	0.0	1	1	1	1
4552	S6	2019	7	9	16	464.911205657864002205315046012401580810546875	279.63150320518099078981322236359119415283203125	277.738855793010998240788467228412628173828125	20.399690456803700300270065781660377979278564453125	62.4006194123542030638418509624898433685302734375	0.82321981831969803788950912348809652030467987060546875	495.25000030795598604527185671031475067138671875	0.0	12843.59356760969967581331729888916015625	0.0	1	1	1	1
4553	S6	2019	7	9	17	413.936616374928007644484750926494598388671875	374.16069449761698706424795091152191162109375	204.519052335800012087929644621908664703369140625	20.17366538947160137240643962286412715911865234375	63.7526692292019987462481367401778697967529296875	1.1957295409725199331063549834652803838253021240234375	352.16666882236899027702747844159603118896484375	0.0	9352.3144796490596490912139415740966796875	0.0	1	1	1	1
4554	S6	2019	7	9	18	381.18560380545198995605460368096828460693359375	643.2327581400060125815798528492450714111328125	115.5135437814810046575075830332934856414794921875	20.505847808213200522686747717671096324920654296875	62.92456149497220252442275523208081722259521484375	0.7517543855117769791007731328136287629604339599609375	385.41666666666702667498611845076084136962890625	0.0	9448.103338479979356634430587291717529296875	0.0	1	1	1	1
4555	S6	2019	7	9	19	239.67858797709101281725452281534671783447265625	662.182713996038955883705057203769683837890625	53.435947312248998741779359988868236541748046875	20.3450000127156016560547868721187114715576171875	61.70999978383380124569157487712800502777099609375	0.58638889201813204632429687990224920213222503662109375	175.41666639347801037729368545114994049072265625	0.0	3895.61062306164012625231407582759857177734375	0.0	1	1	1	1
4556	S6	2019	7	9	20	63.269691773686503211138187907636165618896484375	165.27632765277400039849453605711460113525390625	32.17431560960630321233111317269504070281982421875	17.90682735213309939581449725665152072906494140625	71.1433735123599007010852801613509654998779296875	0.68714859543076400871797204672475345432758331298828125	28.083333590378398270104298717342317104339599609375	0.0	1067.546108737579970693332143127918243408203125	0.0	1	1	1	1
4557	S6	2019	7	9	21	16.63199407470460045033178175799548625946044921875	9.9709388818211692750992369838058948516845703125	16.47288056539019862611894495785236358642578125	16.762754994995699320270432508550584316253662109375	79.864285955623699919669888913631439208984375	0.48265306423513198996744222313282079994678497314453125	6.33333335281349985024235138553194701671600341796875	0.0	264.16909027223601924561080522835254669189453125	0.0	1	1	1	1
4558	S6	2019	7	9	22	0	0	0	0	0	0	0	0.0	3.88629998390883013570373805123381316661834716796875	0.0	1	1	1	0
4559	S6	2019	7	9	23	0	0	0	0	0	0	0	0.0	0	0.0	1	1	1	0
4560	S6	2019	7	9	24	0	0	0	0	0	0	0	0.0	0	0.0	1	1	1	0
4561	S6	2019	7	10	1	0	0	0	0	0	0	0	0.0	0	0.0	1	1	1	0
4562	S6	2019	7	10	2	0	0	0	0	0	0	0	0.0	0	0.0	1	1	1	0
4563	S6	2019	7	10	3	0	0	0	0	0	0	0	0.0	0	0.0	1	1	1	0
4564	S6	2019	7	10	4	9.05581672568069961926084943115711212158203125	3.5874755241368898595055725309066474437713623046875	9.429301186611770191348114167340099811553955078125	14.9842104660837005525308995856903493404388427734375	88.7157889918276936214169836603105068206787109375	0.37368421491823700097967275723931379616260528564453125	0.91666667140089097554067620876594446599483489990234375	0.0	51.42322508618229903731844387948513031005859375	0.0	1	1	1	0
4565	S6	2019	7	10	5	33.81740483546600017916716751642525196075439453125	9.9661245559436597574176630587317049503326416015625	33.653690448705702920051408000290393829345703125	15.0005796460136995307266261079348623752593994140625	89.70289830746850157083827070891857147216796875	1.0269565218600600342568895939621143043041229248046875	22.416666693364600604354563984088599681854248046875	0.0	783.182715997101013272185809910297393798828125	0.0	1	1	1	1
4566	S6	2019	7	10	6	107.20431965721900269272737205028533935546875	44.26575115844600105674544465728104114532470703125	98.39231109619140625	14.831666580835900504098390229046344757080078125	88.349999999999994315658113919198513031005859375	1.378055551648130094832822578609921038150787353515625	74.000000022351599682224332354962825775146484375	0.0	2260.5767846107401055633090436458587646484375	0.0	1	1	1	1
4567	S6	2019	7	10	7	306.4208469390860045677982270717620849609375	585.46737943996004105429165065288543701171875	104.164381959221003626225865446031093597412109375	15.61534092372109938651192351244390010833740234375	81.7482956972989001087626093067228794097900390625	1.45965909424490991597167521831579506397247314453125	185.666668539244000157850678078830242156982421875	0.0	5368.14534664152961340732872486114501953125	0.0	1	1	1	1
4568	S6	2019	7	10	8	440.3151137457949744202778674662113189697265625	759.8939568413619554121396504342555999755859375	80.0854145050048060738845379091799259185791015625	17.0483331362406005382581497542560100555419921875	74.17333348592120501052704639732837677001953125	1.408888891173730062433833154500462114810943603515625	361.4166652162870150277740322053432464599609375	0.0	10286.34738922110045677982270717620849609375	0.0	1	1	1	1
4569	S6	2019	7	10	9	570.520488407765014926553703844547271728515625	766.208835334670993688632734119892120361328125	113.3075999412209995398370665498077869415283203125	18.40420163045070012231008149683475494384765625	69.563025017746298317433684132993221282958984375	1.4246498595098799899716368599911220371723175048828125	545.833329359689969351165927946567535400390625	0.0	15062.08471457159976125694811344146728515625	0.0	1	1	1	1
4570	S6	2019	7	10	10	702.6499816894530567878973670303821563720703125	840.9023642645939844442182220518589019775390625	115.16571513281900251968181692063808441162109375	19.239999993642101117075071670114994049072265625	63.8966662724811982343453564681112766265869140625	1.2747222253017900239768778192228637635707855224609375	736.74999674161199436639435589313507080078125	0.0	19541.24804337809837306849658489227294921875	0.0	1	1	1	1
4571	S6	2019	7	10	11	775.95335489908802628633566200733184814453125	827.1760754055439974763430655002593994140625	133.23166743384399524074979126453399658203125	19.963333225250199376432647113688290119171142578125	59.2216667175292030833588796667754650115966796875	1.398611111938949935762366294511593878269195556640625	850.0833412011460268331575207412242889404296875	0.0	21866.2225405374992988072335720062255859375	0.0	1	1	1	1
4572	S6	2019	7	10	12	830.5016767713749459289829246699810028076171875	890.6498282538519788431585766375064849853515625	98.396719423929795311778434552252292633056640625	20.201666800180998251335040549747645854949951171875	57.13333358764639768878623726777732372283935546875	1.5136111089752699587762663213652558624744415283203125	962.1666620175050184116116724908351898193359375	0.0	23957.62193202969865524210035800933837890625	0.0	1	1	1	1
4573	S6	2019	7	10	13	856.110430399575989213190041482448577880859375	914.9621602376299733805353753268718719482421875	94.561561054653594737828825600445270538330078125	20.539999961852998922040569595992565155029296875	55.90500011444090233680981327779591083526611328125	1.731388884534430072648092391318641602993011474609375	1009.1666777928600140512571670114994049072265625	0.0	24628.19989522290052263997495174407958984375	0.0	1	1	1	1
4574	S6	2019	7	10	14	821.076989746092976929503493010997772216796875	903.8577323065859445705427788197994232177734375	92.1153703901502041162530076690018177032470703125	20.824999999999999289457264239899814128875732421875	55.23833370208740234375	1.8208333356512900191859216647571884095668792724609375	973.5833307107250220724381506443023681640625	0.0	23636.50822639459875063039362430572509765625	0.0	1	1	1	1
4575	S6	2019	7	10	15	752.6402726915140419805538840591907501220703125	889.9790312025279490626417100429534912109375	89.6296838548447993844092707149684429168701171875	21.31666663487749957539563183672726154327392578125	51.74999987284339653115239343605935573577880859375	1.78833332914445009009796194732189178466796875	884.333342313763978381757624447345733642578125	0.0	21667.04940795890070148743689060211181640625	0.0	1	1	1	1
4576	S6	2019	7	10	16	651.8117914835610235968488268554210662841796875	866.49587588839995078160427510738372802734375	85.983576160007004318686085753142833709716796875	22.018333339691100292156988871283829212188720703125	49.2733334223429011444750358350574970245361328125	1.1480555536846299702347096172161400318145751953125	743.6666637659069465371430851519107818603515625	0.0	18439.04395898180155199952423572540283203125	0.0	1	1	1	1
4577	S6	2019	7	10	17	527.1427183363169888252741657197475433349609375	816.9754759046760455021285451948642730712890625	85.2729900995889948944750358350574970245361328125	21.541666666666600349344662390649318695068359375	50.50499992370600210733755375258624553680419921875	1.503055554048879915995939882122911512851715087890625	568.0833384394640006576082669198513031005859375	0.0	14176.366508007000447832979261875152587890625	0.0	1	1	1	1
4578	S6	2019	7	10	18	382.80631400214298309947480447590351104736328125	751.0402833726669769021100364625453948974609375	72.405222055647101342401583679020404815673828125	20.603333441416399551826543756760656833648681640625	52.24333343505850280052982270717620849609375	1.7702777717676398960833239470957778394222259521484375	366.666664679846007857122458517551422119140625	0.0	8946.639706691150422557257115840911865234375	0.0	1	1	1	1
4579	S6	2019	7	10	19	236.723214340209011652405024506151676177978515625	640.2825181749129797026398591697216033935546875	57.83104218377000194095671758987009525299072265625	19.898333326975500057187673519365489482879638671875	53.9200000762939026799358543939888477325439453125	1.5827777788870800446119346815976314246654510498046875	175.1666646450750022268039174377918243408203125	0.0	3890.73799053827997340704314410686492919921875	0.0	1	1	1	1
4580	S6	2019	7	10	20	69.002884021703692951632547192275524139404296875	167.20278350630900376927456818521022796630859375	38.4677027412081997681525535881519317626953125	18.46449277020879975452771759591996669769287109375	60.62282613394909702719814958982169628143310546875	0.9326086961056869739650210249237716197967529296875	31.999999812493701512039478984661400318145751953125	0.0	1154.67947721481004919041879475116729736328125	0.0	1	1	1	1
4581	S6	2019	7	10	21	20.10648802152039849033826612867414951324462890625	5.4151188701821002524638970498926937580108642578125	19.8128002240107008447012049145996570587158203125	17.6139421921509011781381559558212757110595703125	66.4182689006511992602099780924618244171142578125	0.54663461633026599884033203125	7.50000005549132975346537932637147605419158935546875	0.0	317.0919407469519910591770894825458526611328125	0.0	1	1	1	1
4582	S6	2019	7	10	22	0	0	0	0	0	0	0	0.0	6.36715829993285975518801933503709733486175537109375	0.0	1	1	1	0
4583	S6	2019	7	10	23	0	0	0	0	0	0	0	0.0	0	0.0	1	1	1	0
4584	S6	2019	7	10	24	0	0	0	0	0	0	0	0.0	0	0.0	1	1	1	0
4585	S6	2019	7	11	1	0	0	0	0	0	0	0	0.0	0	0.0	1	1	1	0
4586	S6	2019	7	11	2	0	0	0	0	0	0	0	0.0	0	0.0	1	1	1	0
4587	S6	2019	7	11	3	0	0	0	0	0	0	0	0.0	0	0.0	1	1	1	0
4588	S6	2019	7	11	4	7.06196292241414003143518129945732653141021728515625	1.953507855534549975118352449499070644378662109375	7.36201008160908987321136009995825588703155517578125	14.6666665077208993039903361932374536991119384765625	81.8999989827473058312534703873097896575927734375	0.3833333353201540116828027748852036893367767333984375	0.5833333610401829627534198152716271579265594482421875	0.0	46.20640003122380079503273009322583675384521484375	0.0	1	1	1	0
4589	S6	2019	7	11	5	27.691403519518001274946072953753173351287841796875	34.0980589303679977319916361011564731597900390625	24.332847664111401542186285951174795627593994140625	14.6684411487650994132536652614362537860870361328125	82.471862996032399450996308587491512298583984375	0.398098861649914981253317591836093924939632415771484375	13.91666661947959937606356106698513031005859375	0.0	550.745177082719010286382399499416351318359375	0.0	1	1	1	1
4590	S6	2019	7	11	6	140.3090101242059972719289362430572509765625	428.83255360921202736790291965007781982421875	51.34826671812260201477329246699810028076171875	15.428333298365199510726597509346902370452880859375	83.4716662089029028948061750270426273345947265625	0.65166667070653705451377391000278294086456298828125	38.5833331383764033262195880524814128875732421875	0.0	1655.63557793696008957340382039546966552734375	0.0	1	1	1	1
4591	S6	2019	7	11	7	270.5140009986020004362217150628566741943359375	575.4622392442489626773749478161334991455078125	75.9630311436122980239815660752356052398681640625	17.166666793823200265478590154089033603668212890625	75.6350004831949007666480611078441143035888671875	0.80972222462296394862590886987163685262203216552734375	159.33333647747900840840884484350681304931640625	0.0	4675.8442918459395514219067990779876708984375	0.0	1	1	1	1
4592	S6	2019	7	11	8	426.22361094156900662710540927946567535400390625	697.4714930216470065715839155018329620361328125	96.931195343865198310595587827265262603759765625	18.594999917348200568767424556426703929901123046875	69.8516665140787011978318332694470882415771484375	0.7861111135118530324206176373991183936595916748046875	351.41665985187000842415727674961090087890625	0.0	9927.295207977300378843210637569427490234375	0.0	1	1	1	1
4593	S6	2019	7	11	9	566.0773777431910502855316735804080963134765625	764.422800699868957963190041482448577880859375	112.2052492989430021452790242619812488555908203125	20.091666634877501707023839117027819156646728515625	63.4049999237060006862520822323858737945556640625	0.51083333624733795463868091246695257723331451416015625	544.16666676600698338006623089313507080078125	0.0	14933.938900629700583522208034992218017578125	0.0	1	1	1	1
4594	S6	2019	7	11	10	682.2502904256180045194923877716064453125	805.8031422932939449310651980340480804443359375	121.4456918080639979962143115699291229248046875	21.281666692097900295266299508512020111083984375	55.3066665013630966996061033569276332855224609375	0.61694444600078701679279902236885391175746917724609375	720.2499955892559455605805851519107818603515625	0.0	18812.94826666509834467433393001556396484375	0.0	1	1	1	1
4595	S6	2019	7	11	11	780.1476040310329835847369395196437835693359375	849.1284635755749832242145203053951263427734375	122.4944062338930024225192028097808361053466796875	22.0933333714802984104608185589313507080078125	53.8699996312459035152642172761261463165283203125	0.81500000208616196761823857741546817123889923095703125	870.3333288431159644460421986877918243408203125	0.0	21905.85223833720010588876903057098388671875	0.0	1	1	1	1
4596	S6	2019	7	11	12	842.2544596268679697459447197616100311279296875	873.431990594089029400493018329143524169921875	126.0923260814330006951422546990215778350830078125	22.90672279806690170289584784768521785736083984375	48.40672279806690170289584784768521785736083984375	0.776470590956737982679669585195370018482208251953125	971.666658918062012162408791482448577880859375	0.0	23846.34725252780117443762719631195068359375	0.0	1	1	1	1
4597	S6	2019	7	11	13	873.98174045862697312259115278720855712890625	879.6629586380510090748430229723453521728515625	144.0332345641060101115726865828037261962890625	23.851404549030700508183144847862422466278076171875	44.9834269512904967314170789904892444610595703125	0.76123595832104096192693987177335657179355621337890625	1033.083339532219952161540277302265167236328125	0.0	24671.780745188400032930076122283935546875	0.0	1	1	1	1
4598	S6	2019	7	11	14	818.17167510522494922042824327945709228515625	679.325653172915963295963592827320098876953125	270.8791540545889802160672843456268310546875	24.10212774769509991301674745045602321624755859375	45.565349660021098543438711203634738922119140625	0.875379939843818011269149792497046291828155517578125	1019.3333377440800404656329192221164703369140625	0.0	24157.57729609799935133196413516998291015625	0.0	1	1	1	1
4599	S6	2019	7	11	15	656.7665949100399984672549180686473846435546875	511.320789762067988704075105488300323486328125	279.2664642799189778088475577533245086669921875	23.2689023890145989525990444235503673553466796875	47.81128044826220246932280133478343486785888671875	1.3518292696737599367651228021713905036449432373046875	693.33333025375804936629720032215118408203125	0.0	17492.27074782050112844444811344146728515625	0.0	1	1	1	1
4600	S6	2019	7	11	16	553.0620491721409734964254312217235565185546875	482.569379077250005138921551406383514404296875	232.63882431426600305712781846523284912109375	24.013961061254700979361587087623775005340576171875	46.3681818602920969851766130886971950531005859375	1.0048701294830799657376019240473397076129913330078125	596.0000120103360359280486591160297393798828125	0.0	14993.474404017100823693908751010894775390625	0.0	1	1	1	1
4601	S6	2019	7	11	17	310.0783550829650039304397068917751312255859375	148.433491180918991858561639674007892608642578125	227.756116728044986530221649445593357086181640625	22.80845470817720155309871188364923000335693359375	48.79387741533729894172211061231791973114013671875	1.1556851332111099939226050992147065699100494384765625	286.99999675154600708992802537977695465087890625	0.0	7647.142564256990226567722856998443603515625	0.0	1	1	1	1
4602	S6	2019	7	11	18	320.637768983157002367079257965087890625	545.7044730855940315450425259768962860107421875	103.3334049782300070319251972250640392303466796875	22.07994264859519972787893493659794330596923828125	57.02263597635960223897200194187462329864501953125	1.186246422010019951898129875189624726772308349609375	325.66666354735599497871589846909046173095703125	0.0	7913.1885866323800655663944780826568603515625	0.0	1	1	1	1
4603	S6	2019	7	11	19	211.47658547295401376686641015112400054931640625	488.27489185333200794048025272786617279052734375	73.24495883517789707184419967234134674072265625	20.80666669209789887418082798831164836883544921875	61.938333320617601884805480949580669403076171875	1.0905555563668400953503123673726804554462432861328125	162.08333522081198907471843995153903961181640625	0.0	3738.71818929912979001528583467006683349609375	0.0	1	1	1	1
4604	S6	2019	7	11	20	63.540806301461401517371996305882930755615234375	117.6017599304179981345441774465143680572509765625	43.63008747930110331481046159751713275909423828125	19.74314379612329872770715155638754367828369140625	65.0826087619947060147751471959054470062255859375	0.7685618776342140190394047749578021466732025146484375	33.33333320915699715669688885100185871124267578125	0.0	1138.400539755820091158966533839702606201171875	0.0	1	1	1	1
4605	S6	2019	7	11	21	17.58975624508320123595694894902408123016357421875	0.1646149252355089964705570082514896057546138763427734375	18.18685479058159870646704803220927715301513671875	18.536000213623001542373458505608141422271728515625	66.60666656494140625	0.8373333350817360187789972769678570330142974853515625	5.33333349934158018612606610986404120922088623046875	0.0	252.28874137003998612271971069276332855224609375	0.0	1	1	1	1
4606	S6	2019	7	11	22	0	0	0	0	0	0	0	0.0	1.4628750504926000264305230302852578461170196533203125	0.0	1	1	1	0
4607	S6	2019	7	11	23	0	0	0	0	0	0	0	0.0	0	0.0	1	1	1	0
4608	S6	2019	7	11	24	0	0	0	0	0	0	0	0.0	0	0.0	1	1	1	0
4609	S6	2019	7	12	1	0	0	0	0	0	0	0	0.0	0	0.0	1	1	1	0
4610	S6	2019	7	12	2	0	0	0	0	0	0	0	0.0	0	0.0	1	1	1	0
4611	S6	2019	7	12	3	0	0	0	0	0	0	0	0.0	0	0.0	1	1	1	0
4612	S6	2019	7	12	4	6.32681727409361993608172269887290894985198974609375	0.5399858988821499838905992874060757458209991455078125	6.49836041450500001559476004331372678279876708984375	13.952000160217199464796067331917583942413330078125	85.3280004882812050936990999616682529449462890625	0.484000004529953009591025647750939242541790008544921875	0.74999999681798301676138862603693269193172454833984375	0.0	41.20813306265829822905288892798125743865966796875	0.0	1	1	1	0
4613	S6	2019	7	12	5	21.514782683054601619687673519365489482879638671875	0.683728637711868980630924852448515594005584716796875	21.84270706176749854421359486877918243408203125	14.1416666507720005796500117867253720760345458984375	84.9649996439615051713190041482448577880859375	0.298888892349269019721447193660424090921878814697265625	17.74999988265329875503084622323513031005859375	0.0	523.6344827959929943972383625805377960205078125	0.0	1	1	1	1
4614	S6	2019	7	12	6	138.619761339822986201397725380957126617431640625	163.56256516112199506096658296883106231689453125	100.3547097312069951158264302648603916168212890625	15.538333304723099814736997359432280063629150390625	80.0150004069009952445412636734545230865478515625	0.5905555593470730446625793774728663265705108642578125	84.0000004197160023977630771696567535400390625	0.0	2716.2911295890799010521732270717620849609375	0.0	1	1	1	1
4615	S6	2019	7	12	7	239.26142951117600432553444989025592803955078125	131.573300478193004892091266810894012451171875	197.767104975382011389228864572942256927490234375	18.573333199818900851596481516025960445404052734375	71.954999796549401480660890229046344757080078125	0.86999999938739602800552574990433640778064727783203125	170.08333280682398935823584906756877899169921875	0.0	5124.1959830125097141717560589313507080078125	0.0	1	1	1	1
4616	S6	2019	7	12	8	293.5589836968309782605501823127269744873046875	96.4142575374907977447946905158460140228271484375	245.067492591009994384876335971057415008544921875	18.78333342870070055141695775091648101806640625	74.2166665395100011437534703873097896575927734375	0.93138888999819702263494036742486059665679931640625	253.666665405034990499189007095992565155029296875	0.0	7270.4206903775602768291719257831573486328125	0.0	1	1	1	1
4617	S6	2019	7	12	9	297.2652122921409727496211417019367218017578125	8.927527230646870037844564649276435375213623046875	290.42926864624001837000832892954349517822265625	19.185000006357800117484657675959169864654541015625	73.6883332570393037030953564681112766265869140625	0.8588888915876540242066994323977269232273101806640625	271.66666463017401156321284361183643341064453125	0.0	7725.9380618731302092783153057098388671875	0.0	1	1	1	1
4618	S6	2019	7	12	10	505.22304532786898789709084667265415191650390625	86.5983002202423932658348348923027515411376953125	439.519440717351017156033776700496673583984375	20.087743753842300264977893675677478313446044921875	70.4442897360969055853274767287075519561767578125	1.1623955435407500313971240757382474839687347412109375	475.3333330154409850365482270717620849609375	0.0	13106.12432161969991284422576427459716796875	0.0	1	1	1	1
4619	S6	2019	7	12	11	462.0884988572860265776398591697216033935546875	31.835004440281100102083655656315386295318603515625	432.23755637274797436475637368857860565185546875	20.4049999237060006862520822323858737945556640625	68.43499959309889391079195775091648101806640625	0.97111111084620105327047667742590419948101043701171875	467.166669666765983492950908839702606201171875	0.0	12651.1936783790006302297115325927734375	0.0	1	1	1	1
4620	S6	2019	7	12	12	570.675567286923978826962411403656005859375	47.1553531584632992235128767788410186767578125	523.9865452333409621132886968553066253662109375	21.714484679665698507733395672403275966644287109375	64.1930361989479933981783688068389892578125	0.73119777432723298549177570748724974691867828369140625	598.833329975605010986328125	0.0	15967.05140670129912905395030975341796875	0.0	1	1	1	1
4621	S6	2019	7	12	13	718.0882435334029878504225052893161773681640625	349.8840315026089911043527536094188690185546875	422.19378427358702765559428371489048004150390625	23.070370339939699988462962210178375244140625	57.678917355007598644078825600445270538330078125	0.87834757923061002049536227787029929459095001220703125	776.9166727860759920076816342771053314208984375	0.0	19232.64338572819906403310596942901611328125	0.0	1	1	1	1
4622	S6	2019	7	12	14	797.752888341103016500710509717464447021484375	652.4400206755329918451025150716304779052734375	274.0176362068419848583289422094821929931640625	23.45630503679650047388349776156246662139892578125	48.99765410660990028191008605062961578369140625	1.5498533727835999140864942091866396367549896240234375	943.6666667461349788936786353588104248046875	0.0	22715.6851689020986668765544891357421875	0.0	1	1	1	1
4623	S6	2019	7	12	15	759.5121744791659921247628517448902130126953125	815.0819023980029669473879039287567138671875	155.33547778659300320214242674410343170166015625	24.168333339691098871071517351083457469940185546875	44.01166655222569801253484911285340785980224609375	1.6719444394111599994090511245303787291049957275390625	891.7500029007600232944241724908351898193359375	0.0	20190.50905108450024272315204143524169921875	0.0	1	1	1	1
4624	S6	2019	7	12	16	588.22643180326895162579603493213653564453125	689.753879623169950718875043094158172607421875	133.36120345375701390366884879767894744873046875	24.35653403130439897950054728426039218902587890625	43.082954395900998179058660753071308135986328125	1.1252840908074899228807908002636395394802093505859375	663.6666705210990357954869978129863739013671875	0.0	14596.2070624033003696240484714508056640625	0.0	1	1	1	1
4625	S6	2019	7	12	17	471.4736156843999879129114560782909393310546875	676.5923951358189469829085282981395721435546875	111.8866182419640011858064099214971065521240234375	23.9019943085150998740573413670063018798828125	46.4780629258548998450351064093410968780517578125	1.0837606859003299231147821046761237084865570068359375	481.00000123183002642690553329885005950927734375	0.0	11852.6042203108008834533393383026123046875	0.0	1	1	1	1
4626	S6	2019	7	12	18	376.49121941460498419473879039287567138671875	643.3098397996690209765802137553691864013671875	111.290462493896001205939683131873607635498046875	24.34000002543130136700710863806307315826416015625	45.45833307902010034240447566844522953033447265625	0.7616666683720210162533703623921610414981842041015625	349.99999900658798424046835862100124359130859375	0.0	8573.939939339959892095066606998443603515625	0.0	1	1	1	1
4627	S6	2019	7	12	19	246.988235176934011860794271342456340789794921875	506.911794704860994897899217903614044189453125	108.1625155342940018954323022626340389251708984375	23.09666659037269909049427951686084270477294921875	52.17333342234289972338956431485712528228759765625	1.177222223911019938213939894922077655792236328125	188.75000129143398908126982860267162322998046875	0.0	4528.60925594965010532177984714508056640625	0.0	1	1	1	1
4628	S6	2019	7	12	20	66.0330580615687949830316938459873199462890625	85.480484071576398719116696156561374664306640625	52.00011041635060138332846690900623798370361328125	21.21941759671199889680792693980038166046142578125	63.13948189942190225565354921855032444000244140625	0.7485436936991110012939998341607861220836639404296875	38.00000001986820308275127899833023548126220703125	0.0	1256.039527555300082894973456859588623046875	0.0	1	1	1	1
4629	S6	2019	7	12	21	20.22883254811510056470069685019552707672119140625	2.167210478215439994897906217374838888645172119140625	20.03477075901989934436642215587198734283447265625	20.172811156593699166705846437253057956695556640625	68.6525345551801962074023322202265262603759765625	0.493548392837498017815534012697753496468067169189453125	6.83333345417239979013857009704224765300750732421875	0.0	322.02493182072902300205896608531475067138671875	0.0	1	1	1	1
4630	S6	2019	7	12	22	0	0	0	0	0	0	0	0.0	2.749199979007160177246760213165543973445892333984375	0.0	1	1	1	0
4631	S6	2019	7	12	23	0	0	0	0	0	0	0	0.0	0	0.0	1	1	1	0
4632	S6	2019	7	12	24	0	0	0	0	0	0	0	0.0	0	0.0	1	1	1	0
4633	S6	2019	7	13	1	0	0	0	0	0	0	0	0.0	0	0.0	1	1	1	0
4634	S6	2019	7	13	2	0	0	0	0	0	0	0	0.0	0	0.0	1	1	1	0
4635	S6	2019	7	13	3	0	0	0	0	0	0	0	0.0	0	0.0	1	1	1	0
4636	S6	2019	7	13	4	4.69773522500068008156404175679199397563934326171875	0.298796378797100026236677194901858456432819366455078125	4.888426203881540033080455032177269458770751953125	14.9677419354838008302976959384977817535400390625	90.8870975125220041945794946514070034027099609375	0.5161290380262559818191903104889206588268280029296875	0.7500000259218080334022715760511346161365509033203125	0.0	29.1940169408917000737346825189888477325439453125	0.0	1	1	1	0
4637	S6	2019	7	13	5	22.558497069538500312546602799557149410247802734375	0.6174172832050179859919580849236808717250823974609375	22.89507081128540022518791374750435352325439453125	15.0371013503143000633599513093940913677215576171875	91.2391302357548994450553436763584613800048828125	0.11391304549963500447606890020324499346315860748291015625	19.000000165154499853770175832323729991912841796875	0.0	521.4300298442450412039761431515216827392578125	0.0	1	1	1	1
4638	S6	2019	7	13	6	59.15692540274719846138395951129496097564697265625	0.534575200660361016247179577476345002651214599609375	59.3972699218326027903458452783524990081787109375	16.525000127156499019065449829213321208953857421875	89.676666641235300403423025272786617279052734375	0.122222224209042995557439326148596592247486114501953125	54.91666682064529680928899324499070644378662109375	0.0	1477.2915815313599523506127297878265380859375	0.0	1	1	1	1
4639	S6	2019	7	13	7	126.5515692816839958823038614355027675628662109375	14.6323023032809995669367708615027368068695068359375	121.91871793535000279007363133132457733154296875	17.571666749318399780577237834222614765167236328125	87.614999898274703582501388154923915863037109375	0.266666670309172015862486659898422658443450927734375	106.1666669944909955347611685283482074737548828125	0.0	3013.61629366874012703192420303821563720703125	0.0	1	1	1	1
4640	S6	2019	7	13	8	310.458959833779999826219864189624786376953125	306.714771527713992327335290610790252685546875	158.49341930813199041949701495468616485595703125	19.8350001017251997836865484714508056640625	77.066666793823202397106797434389591217041015625	0.310833337903021977854933766138856299221515655517578125	271.91666389504899825624306686222553253173828125	0.0	7570.962662498170175240375101566314697265625	0.0	1	1	1	1
4641	S6	2019	7	13	9	497.0113221910260108415968716144561767578125	541.3545206069940149973263032734394073486328125	173.898015128241013371734879910945892333984375	22.008333333333300885215066955424845218658447265625	65.1966669082641061550020822323858737945556640625	0.511388892018131979710915402392856776714324951171875	480.83333671092901795418583787977695465087890625	0.0	13092.268844445499780704267323017120361328125	0.0	1	1	1	1
4642	S6	2019	7	13	10	661.893255106607966808951459825038909912109375	711.805713568792953083175234496593475341796875	169.8059623718260127134271897375583648681640625	23.7299999872843017101331497542560100555419921875	58.8066668828328005247385590337216854095458984375	0.54500000170535500831903163998504169285297393798828125	693.66666177908700774423778057098388671875	0.0	18097.4877278009007568471133708953857421875	0.0	1	1	1	1
4643	S6	2019	7	13	11	769.4245361328120225152815692126750946044921875	772.2734086778419850816135294735431671142578125	175.888181262545998606583452783524990081787109375	24.42166662216180128552878159098327159881591796875	55.156666692097900295266299508512020111083984375	0.86305555817153700726152010247460566461086273193359375	849.583322803179953552898950874805450439453125	0.0	21345.1911211012993589974939823150634765625	0.0	1	1	1	1
4644	S6	2019	7	13	12	824.4798178778750070705427788197994232177734375	736.9232581244569928458076901733875274658203125	222.497176784939000526719610206782817840576171875	24.63333330154409850365482270717620849609375	55.73666693369540325875277630984783172607421875	1.0150000002649000041543558836565352976322174072265625	937.50000496705297337030060589313507080078125	0.0	23023.29977353410140494816005229949951171875	0.0	1	1	1	1
4645	S6	2019	7	13	13	787.6467856185439586624852381646633148193359375	617.6754040437580215439083985984325408935546875	273.285366795643994919373653829097747802734375	24.26218487501810017192838131450116634368896484375	58.63613463115949997472853283397853374481201171875	1.1159663897435498913779383656219579279422760009765625	909.2500060796710386057384312152862548828125	0.0	22240.2536074320014449767768383026123046875	0.0	1	1	1	1
4646	S6	2019	7	13	14	800.3247332626509660258307121694087982177734375	740.0852463968680012840195558965206146240234375	204.126274194610004997230134904384613037109375	24.212078705262598532499396242201328277587890625	58.54438194532070127706901985220611095428466796875	1.1348314605904399332558796231751330196857452392578125	946.9999969005569937507971189916133880615234375	0.0	22700.58945814759863424114882946014404296875	0.0	1	1	1	1
4647	S6	2019	7	13	15	738.3817694769960553458076901733875274658203125	737.22600419786203929106704890727996826171875	189.19838087293800299448776058852672576904296875	24.13833325703929943983894190751016139984130859375	58.6366666793823014813824556767940521240234375	1.110277775592269922100285839405842125415802001953125	857.5000017881390022012055851519107818603515625	0.0	20843.725562095598434098064899444580078125	0.0	1	1	1	1
4648	S6	2019	7	13	16	654.3024382510419627578812651336193084716796875	691.0771848387629461285541765391826629638671875	204.108225073518013914508628658950328826904296875	24.063841765883200451980883372016251087188720703125	58.3892654052561965727363713085651397705078125	1.0141242945429900235154718757257796823978424072265625	729.6666602293649930288665927946567535400390625	0.0	18073.68008295690015074796974658966064453125	0.0	1	1	1	1
4649	S6	2019	7	13	17	474.4777123345260179121396504342555999755859375	636.0066031561949557726620696485042572021484375	131.600141652425008942373096942901611328125	23.733333365122401659164097509346902370452880859375	57.053333346048901830727118067443370819091796875	1.0027777835726698896223751944489777088165283203125	508.4999973575249896384775638580322265625	0.0	12643.649458885100102634169161319732666015625	0.0	1	1	1	1
4650	S6	2019	7	13	18	351.170185903484025402576662600040435791015625	543.093883450110979538294486701488494873046875	127.7975723395179983299385639838874340057373046875	22.91769673315319977291437680833041667938232421875	61.0932587077108024686822318471968173980712890625	1.1348314605904399332558796231751330196857452392578125	325.083335240680980859906412661075592041015625	0.0	8029.4754306475397243048064410686492919921875	0.0	1	1	1	1
4651	S6	2019	7	13	19	221.479279327391992637785733677446842193603515625	465.796213955349003299488686025142669677734375	94.8449044121636006821063347160816192626953125	22.660000006357801538570129196159541606903076171875	61.43333339691159977746792719699442386627197265625	0.90555555580390800773926684996695257723331451416015625	170.91666596631199581679538823664188385009765625	0.0	4020.37407954533000520314089953899383544921875	0.0	1	1	1	1
4652	S6	2019	7	13	20	72.825325752559393777119112201035022735595703125	137.519693115970994767849333584308624267578125	49.16774980018009699733738671056926250457763671875	21.35592106768950060313727590255439281463623046875	64.7374999899612930676084943115711212158203125	0.9572368421052630527157134565641172230243682861328125	36.83333285152910008264370844699442386627197265625	0.0	1242.886697252590010975836776196956634521484375	0.0	1	1	1	1
4653	S6	2019	7	13	21	21.622333952834399184439462260343134403228759765625	1.368617266666289911114517963142134249210357666015625	21.997852900840701551032907445915043354034423828125	20.39888273271100160854985006153583526611328125	68.7938554646581934548521530814468860626220703125	1.2480446937696800802086727344430983066558837890625	7.50000007489389997061834947089664638042449951171875	0.0	285.9981492316979938550502993166446685791015625	0.0	1	1	1	1
4654	S6	2019	7	13	22	0	0	0	0	0	0	0	0.0	0.879650004208083036161269774311222136020660400390625	0.0	1	1	1	0
4655	S6	2019	7	13	23	0	0	0	0	0	0	0	0.0	0	0.0	1	1	1	0
4656	S6	2019	7	13	24	0	0	0	0	0	0	0	0.0	0	0.0	1	1	1	0
4657	S6	2019	7	14	1	0	0	0	0	0	0	0	0.0	0	0.0	1	1	1	0
4658	S6	2019	7	14	2	0	0	0	0	0	0	0	0.0	0	0.0	1	1	1	0
4659	S6	2019	7	14	3	0	0	0	0	0	0	0	0.0	0	0.0	1	1	1	0
4660	S6	2019	7	14	4	2.151089079380029911447991253226064145565032958984375	0.193715830445289005634634804664528928697109222412109375	2.20297325134276977820491083548404276371002197265625	15.6900000762939004772533735376782715320587158203125	84.573999023437494315658113919198513031005859375	1.473999996185300087603309293626807630062103271484375	0.166666674582916007896216115113929845392704010009765625	0.0	0	0.0	1	1	1	0
4661	S6	2019	7	14	5	10.0571835034385994589456458925269544124603271484375	0.21921810570209299129373903269879519939422607421875	10.1269330485572996991550098755396902561187744140625	15.3379887895211002302175984368659555912017822265625	84.6589382747032033194045652635395526885986328125	1.369553071826520085352285605040378868579864501953125	8.25000012021821049756908905692398548126220703125	0.0	229.68981865172600009827874600887298583984375	0.0	1	1	1	1
4662	S6	2019	7	14	6	39.0156078498010998600875609554350376129150390625	0.327018977290739976115929721345310099422931671142578125	39.0745124338728970769807347096502780914306640625	15.0582173833607004809209684026427567005157470703125	84.500836088132700751884840428829193115234375	1.4197771607335198940091913755168206989765167236328125	35.41666657353420077924965880811214447021484375	0.0	1011.8764924506300530993030406534671783447265625	0.0	1	1	1	1
4663	S6	2019	7	14	7	76.7031809488932054819088079966604709625244140625	0.43539567804998802191818185747251845896244049072265625	76.6542458852132000401979894377291202545166015625	15.1788889964420992129134901915676891803741455078125	83.562222396002795221647829748690128326416015625	1.1663888895677099188930014861398376524448394775390625	70.4999994486569931950725731439888477325439453125	0.0	2036.165232459700064282515086233615875244140625	0.0	1	1	1	1
4664	S6	2019	7	14	8	108.0206365373390013928656117059290409088134765625	0.50959985939164897938979947866755537688732147216796875	107.80131145053400132383103482425212860107421875	15.3333333333333001746723311953246593475341796875	83.06277783711749407302704639732837677001953125	1.1136111150185199480944220340461470186710357666015625	98.7499995777998975654554669745266437530517578125	0.0	2916.49430990218979786732234060764312744140625	0.0	1	1	1	1
4665	S6	2019	7	14	9	184.53234935336598709909594617784023284912109375	0.75977192757030298508880150620825588703155517578125	183.823230404323993525395053438842296600341796875	15.58194435172610070594600983895361423492431640625	81.1438885794745061730282031930983066558837890625	1.4983333336810200631106226865085773169994354248046875	173.000001658994989384154905565083026885986328125	0.0	5042.2980388005598797462880611419677734375	0.0	1	1	1	1
4666	S6	2019	7	14	10	346.839147031141010302235372364521026611328125	9.472976200012769965042025432921946048736572265625	338.01618995772702191970893181860446929931640625	16.65877446357909974494759808294475078582763671875	77.5448468986659946722284075804054737091064453125	1.3896935934973899673394726050901226699352264404296875	343.83333598573898370887036435306072235107421875	0.0	9568.4256056944504962302744388580322265625	0.0	1	1	1	1
4667	S6	2019	7	14	11	441.35782029893601929870783351361751556396484375	7.54740296949942024440360910375602543354034423828125	431.16048202514599552159779705107212066650390625	17.879444456100401339426753111183643341064453125	73.6719447029961003181597334332764148712158203125	1.1113888854781699411233830687706358730792999267578125	421.75000160932501103161484934389591217041015625	0.0	11645.438353220599310589022934436798095703125	0.0	1	1	1	1
4668	S6	2019	7	14	12	360.0750765906440165053936652839183807373046875	1.829484174731700107940923771820962429046630859375	355.530248896279999826219864189624786376953125	18.88444440099920029751956462860107421875	70.6202776590983063442763523198664188385009765625	0.948055554015768020548193817376159131526947021484375	332.083333283663023394183255732059478759765625	0.0	9235.65446337063985993154346942901611328125	0.0	1	1	1	1
4669	S6	2019	7	14	13	328.02616941663899297054740600287914276123046875	1.1318871983223399713125445487094111740589141845703125	324.119299062092977692373096942901611328125	19.413333257039301571467149187810719013214111328125	68.1547223409016993400655337609350681304931640625	1.3713888878623599065775806593592278659343719482421875	304.33333540955999296784284524619579315185546875	0.0	8601.8379330634998041205108165740966796875	0.0	1	1	1	1
4670	S6	2019	7	14	14	395.6123090955940142521285451948642730712890625	3.880369859106009844396112384856678545475006103515625	389.09949815538101347556221298873424530029296875	19.46194449530700154582518734969198703765869140625	67.510554991828001902831601910293102264404296875	1.5661111068394399925551851993077434599399566650390625	375.58333079020002287506940774619579315185546875	0.0	10401.1385043461996247060596942901611328125	0.0	1	1	1	1
4671	S6	2019	7	14	15	503.58334966139301513976533897221088409423828125	83.262382094663593079530983231961727142333984375	438.38900132612701554535306058824062347412109375	19.792045468633798321889116778038442134857177734375	65.861363172531099507978069595992565155029296875	1.555965907279059923240538410027511417865753173828125	560.9166622161859550033113919198513031005859375	0.0	14114.172856012899501365609467029571533203125	0.0	1	1	1	1
4672	S6	2019	7	14	16	435.6736415516239731005043722689151763916015625	94.3561448175459958065403043292462825775146484375	372.761747013438025533105246722698211669921875	19.846875022758098339181742630898952484130859375	65.5224430561064963285389239899814128875732421875	1.78664772872896993050062519614584743976593017578125	467.16666718324000839857035316526889801025390625	0.0	12121.6465036074005183763802051544189453125	0.0	1	1	1	1
4673	S6	2019	7	14	17	367.16340722690398479244322516024112701416015625	99.141497944249493912138859741389751434326171875	313.77440384723200850203284062445163726806640625	19.7669466109501996697872527875006198883056640625	65.96442550103529356420040130615234375	1.8543417388651499688734247683896683156490325927734375	344.00000174840300815048976801335811614990234375	0.0	9041.82892044382970198057591915130615234375	0.0	1	1	1	1
4674	S6	2019	7	14	18	388.81248499766098802865599282085895538330078125	505.00232378641698005594662390649318695068359375	182.465227143102993068168871104717254638671875	19.394397938618798349352800869382917881011962890625	66.323249774152799318471807055175304412841796875	1.8932773096053800987448312298511154949665069580078125	345.33333281675999160142964683473110198974609375	0.0	8746.839692195260795415379106998443603515625	0.0	1	1	1	1
4675	S6	2019	7	14	19	111.267807663810998519693384878337383270263671875	1.443154462985690056342491516261361539363861083984375	111.50252388848099371898570097982883453369140625	18.066944556765999863046090467832982540130615234375	70.48583348592120501052704639732837677001953125	1.531111108594469971677654029917903244495391845703125	97.9166670391955022978436318226158618927001953125	0.0	2654.49146429697020721505396068096160888671875	0.0	1	1	1	1
4676	S6	2019	7	14	20	40.76983635690469753853903966955840587615966796875	0.2175953882746390066760255876943119801580905914306640625	41.110925075742898116004653275012969970703125	17.18916669421719944921278511174023151397705078125	73.2994449403550021315822959877550601959228515625	1.966388885428500099550319646368734538555145263671875	32.91666693985460057092495844699442386627197265625	0.0	932.84609541297004398074932396411895751953125	0.0	1	1	1	1
4677	S6	2019	7	14	21	18.657179670333800203252394567243754863739013671875	0.18260457458905798855397506486042402684688568115234375	19.151289019584599060408436344005167484283447265625	16.7189998149871001942301518283784389495849609375	75.2734994506835022320956340990960597991943359375	1.722499996870749949806622680625878274440765380859375	7.83333323973541961748878748039714992046356201171875	0.0	265.13881577799799060812802053987979888916015625	0.0	1	1	1	1
4678	S6	2019	7	14	22	0	0	0	0	0	0	0	0.0	0.409741653129457983339989368687383830547332763671875	0.0	1	1	1	0
4679	S6	2019	7	14	23	0	0	0	0	0	0	0	0.0	0	0.0	1	1	1	0
4680	S6	2019	7	14	24	0	0	0	0	0	0	0	0.0	0	0.0	1	1	1	0
4681	S6	2019	7	15	1	0	0	0	0	0	0	0	0.0	0	0.0	1	1	1	0
4682	S6	2019	7	15	2	0	0	0	0	0	0	0	0.0	0	0.0	1	1	1	0
4683	S6	2019	7	15	3	0	0	0	0	0	0	0	0.0	0	0.0	1	1	1	0
4684	S6	2019	7	15	4	1.494927702581180017915585267473943531513214111328125	0.2616706985761130255241369013674557209014892578125	1.533617535058179992546456560376100242137908935546875	14.8117646610034991994098163559101521968841552734375	84.885295419132006600193562917411327362060546875	1.235294109758199976312198486994020640850067138671875	0.08333333729145829538165202166055678389966487884521484375	0.0	0	0.0	1	1	1	0
4685	S6	2019	7	15	5	6.48710957421504996744943127851001918315887451171875	0.2586830353076530197853344361647032201290130615234375	6.560210205723169707425768137909471988677978515625	14.6941691723926002310918192961253225803375244140625	84.59387776455440643985639326274394989013671875	1.3542274035100601015102483870577998459339141845703125	5.08333336135061042426741551025770604610443115234375	0.0	145.689850207418004401915823109447956085205078125	0.0	1	1	1	1
4686	S6	2019	7	15	6	20.887717734442798445115840877406299114227294921875	0.28041747880375200718816586231696419417858123779296875	20.954978028933201272820951999165117740631103515625	14.5513889418706998668540109065361320972442626953125	85.441666603088293641121708787977695465087890625	1.3861111112766699715592721986467950046062469482421875	18.24999996460979900803067721426486968994140625	0.0	531.16766735911596697405911982059478759765625	0.0	1	1	1	1
4687	S6	2019	7	15	7	51.40969617101880118070766911841928958892822265625	0.348490427641404976188965747496695257723331451416015625	51.4033937189313974158721975982189178466796875	14.2177777528762003811380054685287177562713623046875	86.0536116070216934303971356712281703948974609375	1.5944444456861999181995770413777790963649749755859375	46.49999986092240078505710698664188385009765625	0.0	1367.169508089619966995087452232837677001953125	0.0	1	1	1	1
4688	S6	2019	7	15	8	103.9867003334889972165910876356065273284912109375	0.491749094881945014723356734975823201239109039306640625	103.7852675861779943033980089239776134490966796875	14.1047224309709005041213458753190934658050537109375	83.8722220102944930886224028654396533966064453125	1.6466666630572699414614135093870572745800018310546875	95.833333209156904786141240037977695465087890625	0.0	2829.57145571706996634020470082759857177734375	0.0	1	1	1	1
4689	S6	2019	7	15	9	156.453820461697006294343736954033374786376953125	0.6293105403375289785827817468089051544666290283203125	155.929580921595999143391964025795459747314453125	14.293333307901999518207958317361772060394287109375	77.6455556657578966905930428765714168548583984375	1.722500000314580059779245857498608529567718505859375	143.916665886839012955533689819276332855224609375	0.0	4263.6420279741096237557940185070037841796875	0.0	1	1	1	1
4690	S6	2019	7	15	10	214.383639568751988235817407257854938507080078125	0.77080020118090797343057829493773169815540313720703125	213.42200639512799398289644159376621246337890625	14.4397221777173996315468684770166873931884765625	74.7361113230386990835540927946567535400390625	1.940277775873739951606467002420686185359954833984375	197.583335141340995733116869814693927764892578125	0.0	5747.402518987670191563665866851806640625	0.0	1	1	1	1
4691	S6	2019	7	15	11	328.302213244968015715130604803562164306640625	7.0209204461011598397135458071716129779815673828125	321.0125467936189807005575858056545257568359375	15.395833320087799478415035991929471492767333984375	69.6352777693006004255948937498033046722412109375	1.6613888868027200107491125891101546585559844970703125	306.74999579787299808231182396411895751953125	0.0	8744.834651549650516244582831859588623046875	0.0	1	1	1	1
4692	S6	2019	7	15	12	595.52781249999998181010596454143524169921875	111.013640190106997351904283277690410614013671875	498.350279628207999849109910428524017333984375	17.144571440560401498487408389337360858917236328125	62.36828558785570209010984399355947971343994140625	1.808857144372800096476794351474381983280181884765625	571.749995152154951938427984714508056640625	0.0	15014.113684495199777302332222461700439453125	0.0	1	1	1	1
4693	S6	2019	7	15	13	770.1035570861989754121168516576290130615234375	311.18568515325699763707234524190425872802734375	506.24403937425898902802146039903163909912109375	18.18309033229810012244342942722141742706298828125	59.31166175642089655184463481418788433074951171875	2.323906701612049818805871836957521736621856689453125	850.749999284744944816338829696178436279296875	0.0	21138.9793952305990387685596942901611328125	0.0	1	1	1	1
4694	S6	2019	7	15	14	755.6525297447069533518515527248382568359375	384.7311252852859979611821472644805908203125	444.01696253669297220767475664615631103515625	18.409467539138301361845151404850184917449951171875	59.02396450381299786158706410787999629974365234375	2.534911241668920123260022592148743569850921630859375	835.6666664282430474486318416893482208251953125	0.0	20569.7331627210005535744130611419677734375	0.0	1	1	1	1
4695	S6	2019	7	15	15	546.9228309588239653749042190611362457275390625	203.41443597829999134773970581591129302978515625	392.9014625333790036165737546980381011962890625	18.327118738896398753013272653333842754364013671875	59.5443502846409984385900315828621387481689453125	2.56384181016581980117052808054722845554351806640625	611.5833371877660056270542554557323455810546875	0.0	15824.80182250339930760674178600311279296875	0.0	1	1	1	1
4696	S6	2019	7	15	16	329.26218655904102661224897019565105438232421875	17.074652298850299558807819266803562641143798828125	315.97870352003297966803074814379215240478515625	17.829722144868600963718563434667885303497314453125	62.63444425794809689023168175481259822845458984375	2.557777778390379896933382042334415018558502197265625	321.166666845479994663037359714508056640625	0.0	8905.649175246549930307082831859588623046875	0.0	1	1	1	1
4697	S6	2019	7	15	17	224.761883148365001261481666006147861480712890625	59.72757653005960065684121218509972095489501953125	194.84974006609701291381497867405414581298828125	17.844350459211899107003773679025471210479736328125	64.724293886604897352299303747713565826416015625	2.29096044675778021115775118232704699039459228515625	225.5833335220789876984781585633754730224609375	0.0	6254.8730075359299007686786353588104248046875	0.0	1	1	1	1
4698	S6	2019	7	15	18	171.912014230712003381995600648224353790283203125	7.597823777718559767890837974846363067626953125	168.280482746431999885317054577171802520751953125	18.37325886165859856191673316061496734619140625	64.6172703288722942716049146838486194610595703125	1.9573816149015599297200651562889106571674346923828125	155.499999721844005762250162661075592041015625	0.0	4320.6928968429501765058375895023345947265625	0.0	1	1	1	1
4699	S6	2019	7	15	19	48.55700214726009988908117520622909069061279296875	0.242439077458860008373875416509690694510936737060546875	48.4922423801049973235421930439770221710205078125	17.650696390518501033284337609075009822845458984375	70.4646240276878046415731660090386867523193359375	2.38300835256123999528199419728480279445648193359375	41.50000059356290194045868702232837677001953125	0.0	1216.211729993420021855854429304599761962890625	0.0	1	1	1	1
4700	S6	2019	7	15	20	12.6709737314118005002683275961317121982574462890625	0.30140005933741698118666363370721228420734405517578125	12.8122716996403998024334214278496801853179931640625	17.47666657765699937954195775091648101806640625	72.7522223578558993040132918395102024078369140625	1.9908333298232800956384380697272717952728271484375	10.5000000136594007216217505629174411296844482421875	0.0	319.29970905184501361873117275536060333251953125	0.0	1	1	1	1
4701	S6	2019	7	15	21	12.3373957745571996014177784672938287258148193359375	0.2458488352279709909797844602508121170103549957275390625	12.5858977043882003243879807996563613414764404296875	17.472872236941700663237497792579233646392822265625	74.212234010087598790050833486020565032958984375	1.564361707010160085218331005307845771312713623046875	4.91666670617016965394441285752691328525543212890625	0.0	148.7209662639839962139376439154148101806640625	0.0	1	1	1	1
4702	S6	2019	7	15	22	0	0	0	0	0	0	0	0.0	0	0.0	1	1	1	0
4703	S6	2019	7	15	23	0	0	0	0	0	0	0	0.0	0	0.0	1	1	1	0
4704	S6	2019	7	15	24	0	0	0	0	0	0	0	0.0	0	0.0	1	1	1	0
4705	S6	2019	7	16	1	0	0	0	0	0	0	0	0.0	0	0.0	1	1	1	0
4706	S6	2019	7	16	2	0	0	0	0	0	0	0	0.0	0	0.0	1	1	1	0
4707	S6	2019	7	16	3	0	0	0	0	0	0	0	0.0	0	0.0	1	1	1	0
4708	S6	2019	7	16	4	0	0	0	0	0	0	0.75000001622053302785531059271306730806827545166015625	0.0	8.3397082053124602651905661332421004772186279296875	0.0	1	1	1	0
4709	S6	2019	7	16	5	10.4908398867339993643099660403095185756683349609375	0.29217275506910700411111747598624788224697113037109375	10.6003820985469001669798672082833945751190185546875	16.087031969075898274468272575177252292633056640625	81.2792502851237941285944543778896331787109375	0.93256483976366799648616279228008352220058441162109375	8.833333345440589567942879511974751949310302734375	0.0	251.165827270596992093487642705440521240234375	0.0	1	1	1	1
4710	S6	2019	7	16	6	74.0914613564809059198523755185306072235107421875	4.9378053231785603571779574849642813205718994140625	73.1510294755299952385030337609350681304931640625	15.9002777443990996886213906691409647464752197265625	86.5227773242526012609232566319406032562255859375	1.687499996605839935881476776557974517345428466796875	61.83333322405800203114267787896096706390380859375	0.0	1732.314902047309942645370028913021087646484375	0.0	1	1	1	1
4711	S6	2019	7	16	7	90.9298597297559041408021585084497928619384765625	5.0439588755187703128513021511025726795196533203125	89.5600092978053936576543492265045642852783203125	15.832378275414900059558931388892233371734619140625	87.440401202969695759747992269694805145263671875	2.175071637490410214610392358736135065555572509765625	78.24999994287890103805693797767162322998046875	0.0	2248.76014639934010119759477674961090087890625	0.0	1	1	1	1
4712	S6	2019	7	16	8	154.699208757612012732352013699710369110107421875	3.463979882333009907569021379458718001842498779296875	152.9385854297210016738972626626491546630859375	15.391111103693599915231970953755080699920654296875	85.9955558776855042424358543939888477325439453125	2.681944439146250136474236569483764469623565673828125	140.916667568186994685675017535686492919921875	0.0	4143.41689397891968837939202785491943359375	0.0	1	1	1	1
4713	S6	2019	7	16	9	379.07078197703600608292617835104465484619140625	123.517788893334994781980640254914760589599609375	305.33366008085300791208283044397830963134765625	16.541470597772001127623298089019954204559326171875	80.075882900462403313213144429028034210205078125	1.9314705867101100711380468055722303688526153564453125	396.33333558837597365709370933473110198974609375	0.0	11292.562733093900533276610076427459716796875	0.0	1	1	1	1
4714	S6	2019	7	16	10	317.0978043026390196246211417019367218017578125	7.15308692137865964610909941256977617740631103515625	309.77874310811301938883843831717967987060546875	17.241666597790100468046148307621479034423828125	75.7480555640325974309234879910945892333984375	1.4577777764863399934114340794621966779232025146484375	304.8333339393129790551029145717620849609375	0.0	8579.9954434236205997876822948455810546875	0.0	1	1	1	1
4715	S6	2019	7	16	11	344.19713249206500904620043002068996429443359375	9.59881612757840940730602596886456012725830078125	334.6667438930929847629158757627010345458984375	17.36416658295519965804487583227455615997314453125	75.8425005171034030126975267194211483001708984375	1.4619444409178299348894825016031973063945770263671875	319.49999928474397847821819595992565155029296875	0.0	8969.4228370984201319515705108642578125	0.0	1	1	1	1
4716	S6	2019	7	16	12	754.5588185400929432944394648075103759765625	396.78384668400798318543820641934871673583984375	423.41162902150000491019454784691333770751953125	19.568715010275301580122686573304235935211181640625	67.68575401945480507492902688682079315185546875	1.3050279319286299806179840743425302207469940185546875	855.083331465714991281856782734394073486328125	0.0	20843.4009552001007250510156154632568359375	0.0	1	1	1	1
4717	S6	2019	7	16	13	846.9403432210280016079195775091648101806640625	708.0543416984329496699501760303974151611328125	260.14514259295202691646409220993518829345703125	20.663559283240299890849200892262160778045654296875	62.702542299604601794271729886531829833984375	1.3104519772495899498920834957971237599849700927734375	857.250000039736960388836450874805450439453125	0.0	20893.54151487350100069306790828704833984375	0.0	1	1	1	1
4718	S6	2019	7	16	14	761.0678059418529528556973673403263092041015625	602.54046596757098086527548730373382568359375	277.57730892326799221336841583251953125	20.987976465756499777626231661997735500335693359375	60.15806476671320268678755383007228374481201171875	1.1736070392243600490900234945002011954784393310546875	926.4166603485749647006741724908351898193359375	0.0	21783.775329589800094254314899444580078125	0.0	1	1	1	1
4719	S6	2019	7	16	15	746.466187011362990233465097844600677490234375	786.240736249573956229141913354396820068359375	163.88624579407400005948147736489772796630859375	20.85552323141759956115492968820035457611083984375	61.88982549933499655026025720871984958648681640625	1.22906976912257004386219705338589847087860107421875	843.3333386977509462667512707412242889404296875	0.0	20827.0244995752000249922275543212890625	0.0	1	1	1	1
4720	S6	2019	7	16	16	649.8827701144740558447665534913539886474609375	869.4621717664930429236846975982189178466796875	89.6697629080878044760538614355027675628662109375	20.8069443967606986234386567957699298858642578125	61.24027786254880112437604111619293689727783203125	1.2141666689680599144907091613276861608028411865234375	749.916662772496010802569799125194549560546875	0.0	18669.11645730329837533645331859588623046875	0.0	1	1	1	1
4721	S6	2019	7	16	17	528.1704477098249981281696818768978118896484375	843.7964870876729719384456984698772430419921875	77.7297866821289034078290569595992565155029296875	20.593333228429099079903608071617782115936279296875	59.2213889016044987556597334332764148712158203125	1.2086111142403499485453721717931330204010009765625	574.16667044162795718875713646411895751953125	0.0	14361.67112986239953897893428802490234375	0.0	1	1	1	1
4722	S6	2019	7	16	18	386.1568558461809743675985373556613922119140625	788.0430515469939791728393174707889556884765625	66.8112208013082948809824301861226558685302734375	20.00222832512390169767968473024666309356689453125	57.97353768946400265349438996054232120513916015625	1.07353760505452999751696552266366779804229736328125	375.25000423192801690674968995153903961181640625	0.0	9136.03592912355088628828525543212890625	0.0	1	1	1	1
4723	S6	2019	7	16	19	229.88147701687199742082157172262668609619140625	677.499336666531007722369395196437835693359375	47.28456039428709800631622783839702606201171875	19.769166676203401067368758958764374256134033203125	58.21055548985790295546394190751016139984130859375	0.70722222328186001849559261245303787291049957275390625	170.75000206629300691929529421031475067138671875	0.0	3731.4114371935402232338674366474151611328125	0.0	1	1	1	1
4724	S6	2019	7	16	20	62.98702835803700139649663469754159450531005859375	185.50368859461099191321409307420253753662109375	30.803154985757100092769178445450961589813232421875	18.352442974376298678862440283410251140594482421875	63.29478839787280008977177203632891178131103515625	0.86188925302766394853648534990497864782810211181640625	24.3333337518075012440021964721381664276123046875	0.0	972.650174051525027607567608356475830078125	0.0	1	1	1	1
4725	S6	2019	7	16	21	15.1690520989267003670875055831857025623321533203125	6.92670340169417020348419100628234446048736572265625	15.1488135990343000258917527389712631702423095703125	17.60328935321999921370661468245089054107666015625	69.1624999799226003460717038251459598541259765625	1.1953947334305199401427444172441028058528900146484375	4.250000007838590221354024833999574184417724609375	0.0	188.524067401885986328125	0.0	1	1	1	1
4726	S6	2019	7	16	22	0	0	0	0	0	0	0	0.0	0	0.0	1	1	1	0
4727	S6	2019	7	16	23	0	0	0	0	0	0	0	0.0	0	0.0	1	1	1	0
4728	S6	2019	7	16	24	0	0	0	0	0	0	0	0.0	0	0.0	1	1	1	0
4729	S6	2019	7	17	1	0	0	0	0	0	0	0	0.0	0	0.0	1	1	1	0
4730	S6	2019	7	17	2	0	0	0	0	0	0	0	0.0	0	0.0	1	1	1	0
4731	S6	2019	7	17	3	0	0	0	0	0	0	0	0.0	0	0.0	1	1	1	0
4732	S6	2019	7	17	4	15.8652706146240003448610877967439591884613037109375	0.298044860363005981174211456163902767002582550048828125	16.3358860015868998516452847979962825775146484375	16.100000381469701693504248396493494510650634765625	84	0	2.75000001420267015106446706340648233890533447265625	0.0	99.680124471584605316820670850574970245361328125	0.0	1	1	1	0
4733	S6	2019	7	17	5	37.6429213703542018265579827129840850830078125	35.96855312235970103529325569979846477508544921875	35.21970343106030298940822831355035305023193359375	16.248985605654500119499061838723719120025634765625	86.4756522358326975563613814301788806915283203125	0.64086956779161996511362531236954964697360992431640625	24.916666482264698601056807092390954494476318359375	0.0	910.489554206528964641620405018329620361328125	0.0	1	1	1	1
4734	S6	2019	7	17	6	134.6876064088600060131284408271312713623046875	390.66393644544797325579565949738025665283203125	58.51884585486509848806235822848975658416748046875	17.210555643505500711398781277239322662353515625	82.276944181654101839740178547799587249755859375	0.7113888916869950396204558273893781006336212158203125	45.5833335096638023742343648336827754974365234375	0.0	1777.81854569912002261844463646411895751953125	0.0	1	1	1	1
4735	S6	2019	7	17	7	283.08576897515098380608833394944667816162109375	652.0029909769690448229084722697734832763671875	70.0906142552693012248710147105157375335693359375	18.815833245383299043851366150192916393280029296875	70.8280558692083985761200892738997936248779296875	0.61611111346218294659848879746277816593647003173828125	163.66666927933698616470792330801486968994140625	0.0	4865.7091657320697777322493493556976318359375	0.0	1	1	1	1
4736	S6	2019	7	17	8	407.0709438594129778721253387629985809326171875	696.1426914177260414362535811960697174072265625	87.4000050920264044407304027117788791656494140625	20.087818707690299646628773189149796962738037109375	64.43172816851989637143560685217380523681640625	0.667988672134895988818925616214983165264129638671875	313.33333750565799391551990993320941925048828125	0.0	8731.282671292590748635120689868927001953125	0.0	1	1	1	1
4737	S6	2019	7	17	9	572.997604370116960126324556767940521240234375	749.74067447719198753475211560726165771484375	133.111361056654999401871464215219020843505859375	20.87671622660619874523035832680761814117431640625	59.0035820576681970806021126918494701385498046875	1.1973134284588800024806687360978685319423675537109375	491.66666716337300613304250873625278472900390625	0.0	13226.687093575799735845066606998443603515625	0.0	1	1	1	1
4738	S6	2019	7	17	10	647.3263859254630006034858524799346923828125	701.7412363901850085312617011368274688720703125	163.774881913213988582356250844895839691162109375	21.19551833337089874476077966392040252685546875	55.7563022645581014558047172613441944122314453125	1.6176470586565601106343592618941329419612884521484375	686.83333694934799495968036353588104248046875	0.0	18109.95312531790114007890224456787109375	0.0	1	1	1	1
4739	S6	2019	7	17	11	754.3607931296910464880056679248809814453125	726.96321548629703102051280438899993896484375	198.822751050553989671243471093475818634033203125	22.171787730808301120077885570935904979705810546875	56.96648020184900218509937985800206661224365234375	1.1804469254429699187625146805658005177974700927734375	850.6666620572390229426673613488674163818359375	0.0	21613.15075556430019787512719631195068359375	0.0	1	1	1	1
4740	S6	2019	7	17	12	878.70420901876104835537262260913848876953125	797.0039089589889726994442753493785858154296875	231.700434768032010879323934204876422882080078125	22.420563313658799842187363537959754467010498046875	56.88788716490839902917286963202059268951416015625	1.508169013429689897520802333019673824310302734375	1011.4166637261699861483066342771053314208984375	0.0	24823.4430551529003423638641834259033203125	0.0	1	1	1	1
4741	S6	2019	7	17	13	868.4710853619279760096105746924877166748046875	775.3681460758820094270049594342708587646484375	229.8947476434969985348288901150226593017578125	22.620949771817098650217303656972944736480712890625	56.73938561551390336035183281637728214263916015625	1.5801675948184199516077796943136490881443023681640625	953.250000874201987244305200874805450439453125	0.0	23009.81513659150004968978464603424072265625	0.0	1	1	1	1
4742	S6	2019	7	17	14	692.4476492868340073982835747301578521728515625	583.97868688787502833292819559574127197265625	227.03668096837799339482444338500499725341796875	21.96450712177109920730799785815179347991943359375	58.90901402218239724106751964427530765533447265625	1.461971828719260013684788646060042083263397216796875	882.499992847441944832098670303821563720703125	0.0	21684.402306874500936828553676605224609375	0.0	1	1	1	1
4743	S6	2019	7	17	15	727.3751592000320442821248434484004974365234375	801.78908504909895782475359737873077392578125	139.1405039257469979929737746715545654296875	22.09500010278480175429649534635245800018310546875	58.53111124038689894177878159098327159881591796875	1.6180555534031599851374494392075575888156890869140625	867.08333094914496541605331003665924072265625	0.0	21089.22576904289962840266525745391845703125	0.0	1	1	1	1
4744	S6	2019	7	17	16	620.127393595377043311600573360919952392578125	767.70425381130598907475359737873077392578125	125.194048796759005881540360860526561737060546875	21.573333242204398629837669432163238525390625	60.12944448259140273194134351797401905059814453125	1.940000000596040052869284409098327159881591796875	711.2499972184499483773834072053432464599609375	0.0	17543.77943277349913842044770717620849609375	0.0	1	1	1	1
4745	S6	2019	7	17	17	452.44346618652298275264911353588104248046875	596.5720046149359632181585766375064849853515625	137.30446169111399967732722871005535125732421875	21.886111174689400371562442160211503505706787109375	50.1522222201028995414162636734545230865478515625	1.2361111096209900228615197192993946373462677001953125	484.33333386977398049566545523703098297119140625	0.0	12175.048629442799210664816200733184814453125	0.0	1	1	1	1
4746	S6	2019	7	17	18	361.47724956936298212895053438842296600341796875	683.854084608288985691615380346775054931640625	86.902968321906200799276120960712432861328125	22.380555449591700067912825033999979496002197265625	45.42083344989350024434315855614840984344482421875	0.8225000018046959571194065574673004448413848876953125	349.1666664679850100583280436694622039794921875	0.0	8523.388763268800175865180790424346923828125	0.0	1	1	1	1
4747	S6	2019	7	17	19	216.320553504096011465662741102278232574462890625	559.41078974405900225974619388580322265625	65.5417564498053053512194310314953327178955078125	21.54555552270669949166403966955840587615966796875	48.34416668150159779315799823962152004241943359375	0.667777780691781952526753229903988540172576904296875	159.583332017062986096789245493710041046142578125	0.0	3626.4434680342601495794951915740966796875	0.0	1	1	1	1
4748	S6	2019	7	17	20	72.011628993948903598720789887011051177978515625	171.700362443923012278901296667754650115966796875	43.52372537944909680618366110138595104217529296875	19.872696319944598286610926152206957340240478515625	54.79863440868390256355269229970872402191162109375	1.0324232113442699532157575958990491926670074462890625	30.0833332973221985184864024631679058074951171875	0.0	1162.7940920491901124478317797183990478515625	0.0	1	1	1	1
4749	S6	2019	7	17	21	18.843091573470598376616180757991969585418701171875	3.407992682300310161025436173076741397380828857421875	19.18229548442050003131953417323529720306396484375	19.045512725145300692020100541412830352783203125	60.78782044924219718495805864222347736358642578125	0.53589744139940298506274984902120195329189300537109375	4.16666668024843023232506311614997684955596923828125	0.0	236.9194760685790015486418269574642181396484375	0.0	1	1	1	1
4750	S6	2019	7	17	22	0	0	0	0	0	0	0	0.0	0	0.0	1	1	1	0
4751	S6	2019	7	17	23	0	0	0	0	0	0	0	0.0	0	0.0	1	1	1	0
4752	S6	2019	7	17	24	0	0	0	0	0	0	0	0.0	0	0.0	1	1	1	0
4753	S6	2019	7	18	1	0	0	0	0	0	0	0	0.0	0	0.0	1	1	1	0
4754	S6	2019	7	18	2	0	0	0	0	0	0	0	0.0	0	0.0	1	1	1	0
4755	S6	2019	7	18	3	0	0	0	0	0	0	0	0.0	0	0.0	1	1	1	0
4756	S6	2019	7	18	4	5.4163356927724901623832920449785888195037841796875	0.5351790877488940001427408788003958761692047119140625	5.06078872313865968379786863806657493114471435546875	12.076923223642200611038788338191807270050048828125	84.523078918457002828290569595992565155029296875	0.10000000320948000676057887403658241964876651763916015625	0.416666676755991005620671785436570644378662109375	0.0	20.57069148092200094879444804973900318145751953125	0.0	1	1	1	0
4757	S6	2019	7	18	5	22.477423861475198663129049236886203289031982421875	44.38430460382600273305797600187361240386962890625	19.81897811999800040894115227274596691131591796875	11.578877855055399237471647211350500583648681640625	85.8254128635519037970880162902176380157470703125	0.55247525128200802857492135444772429764270782470703125	13.333333306945799989762235782109200954437255859375	0.0	516.3195263594379866844974458217620849609375	0.0	1	1	1	1
4758	S6	2019	7	18	6	140.59772692786299330691690556704998016357421875	512.7613193935809476897702552378177642822265625	40.450190194447799285626388154923915863037109375	13.895833365122399527535890229046344757080078125	80.750555462307403331578825600445270538330078125	0.461944448616768976734192619915120303630828857421875	36.33333370089520286683182348497211933135986328125	0.0	1553.018447011709895377862267196178436279296875	0.0	1	1	1	1
4759	S6	2019	7	18	7	273.67563544379299855791032314300537109375	659.8604641384539490900351665914058685302734375	59.95922182930839738901340751908719539642333984375	18.7650000519222004413677495904266834259033203125	70.2502775192260031644764239899814128875732421875	0.332777780542771017824321688749478198587894439697265625	182.000000029800986567352083511650562286376953125	0.0	4620.883136987669786321930587291717529296875	0.0	1	1	1	1
4760	S6	2019	7	18	8	419.2737418280700012473971582949161529541015625	745.5091345893009702194831334054470062255859375	75.0181982888115044261212460696697235107421875	21.188333304723098393651525839231908321380615234375	63.22499993642170323937534703873097896575927734375	0.6033333376049989649203553199185989797115325927734375	329.83333120743299105015466921031475067138671875	0.0	9732.456237077689365833066403865814208984375	0.0	1	1	1	1
4761	S6	2019	7	18	9	559.199885121294983036932535469532012939453125	818.448063672419038994121365249156951904296875	83.707444491160600819057435728609561920166015625	22.260445804648998802122150664217770099639892578125	52.10891384666670234082630486227571964263916015625	1.0740947070061899193404997276957146823406219482421875	542.8333356976510231106658466160297393798828125	0.0	14717.737793922400669544003903865814208984375	0.0	1	1	1	1
4762	S6	2019	7	18	10	605.113719807113966453471221029758453369140625	701.2951602492220217754947952926158905029296875	129.466513190157996859852573834359645843505859375	22.60232558361310140071509522385895252227783203125	50.30087215955860102667429600842297077178955078125	1.261337207673590032896981938392855226993560791015625	591.3333321611089559155516326427459716796875	0.0	15297.269200285199985955841839313507080078125	0.0	1	1	1	1
4763	S6	2019	7	18	11	613.8501485775110495524131692945957183837890625	539.7569891412759943705168552696704864501953125	201.059964446581005859115975908935070037841796875	23.359366023918301635831085150130093097686767578125	48.32074900250609772456300561316311359405517578125	1.0657060517357799245274918575887568295001983642578125	720.500004788234946317970752716064453125	0.0	18457.7972292900012689642608165740966796875	0.0	1	1	1	1
4764	S6	2019	7	18	12	650.299111853443037034594453871250152587890625	453.64185407241001257716561667621135711669921875	284.19806886088298369941185228526592254638671875	23.387616107338299542561799171380698680877685546875	48.003405201914802091778255999088287353515625	1.7281733727307500014802599253016524016857147216796875	685.0833197434750445609097369015216827392578125	0.0	15864.55512046809963067062199115753173828125	0.0	1	1	1	1
4765	S6	2019	7	18	13	618.5952276185499840721604414284229278564453125	462.30410259472597545027383603155612945556640625	239.9148568441700035691610537469387054443359375	23.21075572523950114600665983743965625762939453125	49.06656988276989750374923460185527801513671875	2.1784883722836099195774295367300510406494140625	693.6666741967210327857173979282379150390625	0.0	16940.32828013100152020342648029327392578125	0.0	1	1	1	1
4766	S6	2019	7	18	14	744.57563840600005278247408568859100341796875	720.8296233564169597229920327663421630859375	174.2400778931749982803012244403362274169921875	23.645400434997700500616701901890337467193603515625	47.00207694984680273364574532024562358856201171875	2.49050445018959987208972961525432765483856201171875	846.7500035961439834863995201885700225830078125	0.0	20052.84013350800159969367086887359619140625	0.0	1	1	1	1
4767	S6	2019	7	18	15	748.201006514301980132586322724819183349609375	820.8492992272530273112352006137371063232421875	147.19303242544100385202909819781780242919921875	24.064606752288401736450396128930151462554931640625	43.9792135002906974250436178408563137054443359375	2.479494375291829921792441382422111928462982177734375	874.3333369493469717781408689916133880615234375	0.0	21228.16451390579823055304586887359619140625	0.0	1	1	1	1
4768	S6	2019	7	18	16	587.0950614456579614852671511471271514892578125	662.7031027813569608042598702013492584228515625	158.821712257586995065139490179717540740966796875	23.943362908377398667880697757937014102935791015625	47.66548660863460185055373585782945156097412109375	2.663716819785680200993738253600895404815673828125	654.4166704018899736183811910450458526611328125	0.0	16267.367482185300104902125895023345947265625	0.0	1	1	1	1
4769	S6	2019	7	18	17	412.7366356973340089098201133310794830322265625	520.33393090385698087629862129688262939453125	130.253685085504997687166905961930751800537109375	23.500576294121199083519968553446233272552490234375	48.62536049438819674151091021485626697540283203125	2.659654169415869962023180050891824066638946533203125	461.91667268673501212106202729046344757080078125	0.0	11416.340912381800080765970051288604736328125	0.0	1	1	1	1
4770	S6	2019	7	18	18	166.600795044296006608419702388346195220947265625	119.14044246916699876237544231116771697998046875	118.4036967178870014549829647876322269439697265625	22.141091878386699676184434792958199977874755859375	52.632183908045902853700681589543819427490234375	2.3405172331579802147416558000259101390838623046875	161.166666696468013242338201962411403656005859375	0.0	4126.0575999816401235875673592090606689453125	0.0	1	1	1	1
4771	S6	2019	7	18	19	124.412181790668995517989969812333583831787109375	103.4067967929770048840509844012558460235595703125	100.3231313705440044259376008994877338409423828125	21.403333059946600513967496226541697978973388671875	54.7569445292154028948061750270426273345947265625	1.6591666623950001024923039949499070644378662109375	102.0833334575080044714923133142292499542236328125	0.0	2648.94574880600021060672588646411895751953125	0.0	1	1	1	1
4772	S6	2019	7	18	20	66.1911104356345987298482214100658893585205078125	58.348571809906303542447858490049839019775390625	58.38906621268859709061871399171650409698486328125	20.5551532702857002732343971729278564453125	58.615877433075496583114727400243282318115234375	1.6710306359532800524192452940042130649089813232421875	43.75000080714610106724649085663259029388427734375	0.0	1346.853119631600065986276604235172271728515625	0.0	1	1	1	1
4773	S6	2019	7	18	21	15.5797877186223008294518876937218010425567626953125	0.10737008692598599968182071506817010231316089630126953125	16.084326400254898459252217435277998447418212890625	19.297368400975198454716519336216151714324951171875	62.14631596615439690367566072382032871246337890625	1.2442105307390800561506694066338241100311279296875	4.50000006821935993883698756690137088298797607421875	0.0	182.428467281471995420361054129898548126220703125	0.0	1	1	1	1
4774	S6	2019	7	18	22	0	0	0	0	0	0	0	0.0	0	0.0	1	1	1	0
4775	S6	2019	7	18	23	0	0	0	0	0	0	0	0.0	0	0.0	1	1	1	0
4776	S6	2019	7	18	24	0	0	0	0	0	0	0	0.0	0	0.0	1	1	1	0
4777	S6	2019	7	19	1	0	0	0	0	0	0	0	0.0	0	0.0	1	1	1	0
4778	S6	2019	7	19	2	0	0	0	0	0	0	0	0.0	0	0.0	1	1	1	0
4779	S6	2019	7	19	3	0	0	0	0	0	0	0	0.0	0	0.0	1	1	1	0
4780	S6	2019	7	19	4	0	0	0	0	0	0	0.08333333729145829538165202166055678389966487884521484375	0.0	6.3756334129720801939811281044967472553253173828125	0.0	1	1	1	0
4781	S6	2019	7	19	5	10.5662572564958008314306425745598971843719482421875	0.40762930155932097786575241116224788129329681396484375	10.8433606126640000866245827637612819671630859375	17.324050704135100176017658668570220470428466796875	85.4851261814937970484606921672821044921875	1.788924047841299991290497928275726735591888427734375	7.1666667354292901137569060665555298328399658203125	0.0	218.514258818079014190516318194568157196044921875	0.0	1	1	1	1
4782	S6	2019	7	19	6	25.86415011617869907922795391641557216644287109375	2.18527239619028978978576560621149837970733642578125	25.803079949484899913159097195602953433990478515625	17.898888874053898945248874952085316181182861328125	83.0405552758110019340165308676660060882568359375	1.9283333352870399846068494298378936946392059326171875	23.416666934887498285888796090148389339447021484375	0.0	661.76067975659998410264961421489715576171875	0.0	1	1	1	1
4783	S6	2019	7	19	7	86.20403259065409429240389727056026458740234375	0.425679405778645991720310348682687617838382720947265625	86.220796245998798212895053438842296600341796875	18.358333386315198509919355274178087711334228515625	81.9977775149875043325664591975510120391845703125	2.048888885643739943276386838988400995731353759765625	81.3333333159489058061808464117348194122314453125	0.0	2241.007154186560001107864081859588623046875	0.0	1	1	1	1
4784	S6	2019	7	19	8	216.37405560811299665147089399397373199462890625	20.055591693934399444287919322960078716278076171875	206.205334048801006474604946561157703399658203125	19.344444582197400706036205519922077655792236328125	78.2688889397515055179610499180853366851806640625	1.970833331015370060157465559314005076885223388671875	199.16666733721700666137621738016605377197265625	0.0	5603.3278405666396793094463646411895751953125	0.0	1	1	1	1
4785	S6	2019	7	19	9	377.21660868326802074079751037061214447021484375	55.39033319221599782622433849610388278961181640625	344.22403072780997490554000250995159149169921875	20.83055558734459822289863950572907924652099609375	72.0611113230387019257250358350574970245361328125	2.34527777541013993101159940124489367008209228515625	340.58332939942602024530060589313507080078125	0.0	9490.78792333603996667079627513885498046875	0.0	1	1	1	1
4786	S6	2019	7	19	10	462.36021359584401579922996461391448974609375	110.520409093924996568603091873228549957275390625	380.73652908197601618667249567806720733642578125	21.234540386784299670352993416599929332733154296875	70.54651805484519400124554522335529327392578125	2.374094704482539786027928130351938307285308837890625	461.00000043709900410249247215688228607177734375	0.0	12676.201820373500595451332628726959228515625	0.0	1	1	1	1
4787	S6	2019	7	19	11	643.992279985214963744510896503925323486328125	150.42407832890700092320912517607212066650390625	521.050639088947946220287121832370758056640625	22.338333246442999779901583679020404815673828125	65.75555532243510015177889727056026458740234375	2.800277781900430085215703002177178859710693359375	665.5000001192080389955663122236728668212890625	0.0	17531.13998969390013371594250202178955078125	0.0	1	1	1	1
4788	S6	2019	7	19	12	456.6575109693729928039829246699810028076171875	88.4865979663820070300062070600688457489013671875	380.6463867187500227373675443232059478759765625	21.8177778244018014675020822323858737945556640625	66.9688883039685975973043241538107395172119140625	2.2991666616664900857358588837087154388427734375	458.0833340684570202938630245625972747802734375	0.0	12509.732633829100450384430587291717529296875	0.0	1	1	1	1
4789	S6	2019	7	19	13	674.0498347764599884612835012376308441162109375	326.78151101376198539583128876984119415283203125	397.58794540233799352790811099112033843994140625	23.393539359060500970599605352617800235748291015625	60.0668540590263972944740089587867259979248046875	2.298595504898030217333371183485724031925201416015625	730.416660507519054590375162661075592041015625	0.0	17996.88092867529849172569811344146728515625	0.0	1	1	1	1
4790	S6	2019	7	19	14	234.3697452309689879257348366081714630126953125	23.66948525906909850391457439400255680084228515625	212.688717500662988868498359806835651397705078125	22.205349619987000409082611440680921077728271484375	65.96707815790369977548834867775440216064453125	2.271193413332159849460367695428431034088134765625	185.66666605571799664176069200038909912109375	0.0	5449.124609430649798014201223850250244140625	0.0	1	1	1	1
4791	S6	2019	7	19	15	212.776880929380013185436837375164031982421875	10.0356227565214997099474203423596918582916259765625	204.53381543338099390894058160483837127685546875	19.61642625902150172123583615757524967193603515625	79.36512938837489627985632978379726409912109375	1.53429394599683011080060168751515448093414306640625	212.833336864907010976821766234934329986572265625	0.0	6032.89094567299980553798377513885498046875	0.0	1	1	1	1
4792	S6	2019	7	19	16	510.796715592538021155633032321929931640625	301.9177531478450191571027971804141998291015625	320.0980132971390048624016344547271728515625	22.365083822324901774436511914245784282684326171875	69.5614522156102026428925455547869205474853515625	1.2382681568741100708308522371225990355014801025390625	551.5000037848949432373046875	0.0	13951.83156927419986459426581859588623046875	0.0	1	1	1	1
4793	S6	2019	7	19	17	110.08710659486399663364863954484462738037109375	7.638933940897249641466260072775185108184814453125	105.3996245648839931163820438086986541748046875	22.379581171804698414007361861877143383026123046875	67.93822051842170139934751205146312713623046875	0.97120418832564203714952100199298001825809478759765625	58.16666646084480163381158490665256977081298828125	0.0	1739.163029318049893845454789698123931884765625	0.0	1	1	1	1
4794	S6	2019	7	19	18	239.34343802134100087641854770481586456298828125	151.260036156864003942246199585497379302978515625	179.08214490678500396825256757438182830810546875	19.15722209082699833970764302648603916168212890625	88.1116663614908048884899471886456012725830078125	0.984999999652306001962642767466604709625244140625	227.333332722384994895037380047142505645751953125	0.0	6042.3912853002502743038348853588104248046875	0.0	1	1	1	1
4795	S6	2019	7	19	19	164.9936208724969901595613919198513031005859375	200.784151065348993370207608677446842193603515625	115.72494824727300510858185589313507080078125	20.020555633968701414460156229324638843536376953125	82.6516668107773995188836124725639820098876953125	0.67722222424215694491778094743494875729084014892578125	132.91666532556200763792730867862701416015625	0.0	3352.6229858398301075794734060764312744140625	0.0	1	1	1	1
4796	S6	2019	7	19	20	55.64603161517479890108006657101213932037353515625	53.3562568509835983832090278156101703643798828125	47.9807512495251984319111215882003307342529296875	19.508641713931201167042672750540077686309814453125	85.9351853264702043588840751908719539642333984375	0.56882716347405903878353683467139489948749542236328125	35.41666688397509688002173788845539093017578125	0.0	1119.92040276526995512540452182292938232421875	0.0	1	1	1	1
4797	S6	2019	7	19	21	15.3579423623926007991258302354253828525543212890625	0.2760885502047389916668862497317604720592498779296875	15.695062804222100538709128159098327159881591796875	19.1364710415110010899297776632010936737060546875	86.8188238704905046461135498248040676116943359375	0.261764708511968979820494496379978954792022705078125	4.75000010919757986727063325815834105014801025390625	0.0	183.765474474055992004650761373341083526611328125	0.0	1	1	1	1
4798	S6	2019	7	19	22	0	0	0	0	0	0	0	0.0	0	0.0	1	1	1	0
4799	S6	2019	7	19	23	0	0	0	0	0	0	0	0.0	0	0.0	1	1	1	0
4800	S6	2019	7	19	24	0	0	0	0	0	0	0	0.0	0	0.0	1	1	1	0
4801	S6	2019	7	20	1	0	0	0	0	0	0	0	0.0	0	0.0	1	1	1	0
4802	S6	2019	7	20	2	0	0	0	0	0	0	0	0.0	0	0.0	1	1	1	0
4803	S6	2019	7	20	3	0	0	0	0	0	0	0	0.0	0	0.0	1	1	1	0
4804	S6	2019	7	20	4	0	0	0	0	0	0	0.5833333610401909563591971163987182080745697021484375	0.0	15.4713084145137003133640973828732967376708984375	0.0	1	1	1	0
4805	S6	2019	7	20	5	17.921360992385899635337409563362598419189453125	3.1298041805669498671704786829650402069091796875	18.0147110644928005740439402870833873748779296875	14.476347337939699855269282124936580657958984375	97.5595809114193031064132810570299625396728515625	0.3526946148294169969261702135554514825344085693359375	12.5833335526598002473974702297709882259368896484375	0.0	377.82848455632500872525270096957683563232421875	0.0	1	1	1	1
4806	S6	2019	7	20	6	128.13627440170199633939773775637149810791015625	194.948821499361002906880457885563373565673828125	78.763391601306693701189942657947540283203125	15.2276536099737000995446578599512577056884765625	98.02681523328379853410297073423862457275390625	0.33324022824204801995762181832105852663516998291015625	55.0833332041897989483913988806307315826416015625	0.0	1859.2518866062100642011500895023345947265625	0.0	1	1	1	1
4807	S6	2019	7	20	7	285.07993292039401467263814993202686309814453125	485.17267764922098649549297988414764404296875	121.213336501582006121680024079978466033935546875	17.617419402829998631432317779399454593658447265625	95.662257434475804984685964882373809814453125	0.88838709958137995759130944861681200563907623291015625	165.08333571255099059271742589771747589111328125	0.0	4831.7274053891296716756187379360198974609375	0.0	1	1	1	1
4808	S6	2019	7	20	8	378.859657090850987515295855700969696044921875	398.22397118926301118335686624050140380859375	198.297804999145995452636270783841609954833984375	19.61547289195230092673227773047983646392822265625	83.6954154858957934948193724267184734344482421875	1.331518620081820092337920868885703384876251220703125	319.0833292901510276351473294198513031005859375	0.0	8949.471394220969159505330026149749755859375	0.0	1	1	1	1
4809	S6	2019	7	20	9	447.62115854456800434491015039384365081787109375	373.69269298608702456476748920977115631103515625	230.117820496489997594835585914552211761474609375	20.70202910381809857653934159316122531890869140625	77.044637751924796020830399356782436370849609375	1.60492753619733008463299483992159366607666015625	433.833335836726973866461776196956634521484375	0.0	11862.337728341399269993416965007781982421875	0.0	1	1	1	1
4810	S6	2019	7	20	10	570.228587032702989745303057134151458740234375	401.34606513548402517699287272989749908447265625	299.811837571390015000361017882823944091796875	21.6581461188497996772639453411102294921875	69.95084269662919496113318018615245819091796875	2.130056179808760052907246063114143908023834228515625	593.16666424274399105343036353588104248046875	0.0	15652.91800101589979021809995174407958984375	0.0	1	1	1	1
4811	S6	2019	7	20	11	677.2641106499560237352852709591388702392578125	331.61501928501598968068719841539859771728515625	416.48931316799502155845402739942073822021484375	22.2611111217074011392469401471316814422607421875	65.2677776548596995098705519922077655792236328125	2.226944438782000101895164334564469754695892333984375	719.4166705012320335299591533839702606201171875	0.0	18752.18604008349939249455928802490234375	0.0	1	1	1	1
4812	S6	2019	7	20	12	710.5372719348309829001664184033870697021484375	386.408206203285999436047859489917755126953125	392.26903385645897515132674016058444976806640625	22.8340844328973986421260633505880832672119140625	60.6681689410142013230142765678465366363525390625	2.649014083096670191252997028641402721405029296875	795.916664103667017116094939410686492919921875	0.0	20191.9788916905017686076462268829345703125	0.0	1	1	1	1
4813	S6	2019	7	20	13	771.8165397859560243887244723737239837646484375	495.22586583282901528946240432560443878173828125	360.8927080402260116898105479776859283447265625	23.88135593759130159696724149398505687713623046875	49.4935026222702987297452636994421482086181640625	2.64293784711319990066158425179310142993927001953125	908.1666519244489563789102248847484588623046875	0.0	22399.78571732830096152611076831817626953125	0.0	1	1	1	1
4814	S6	2019	7	20	14	366.5590062101119883664068765938282012939453125	95.44895728781790467110113240778446197509765625	285.1394029214339980171644128859043121337890625	22.922816907855800394600009894929826259613037109375	50.541690213915302365421666763722896575927734375	2.67633802806826981424137557041831314563751220703125	357.58333280682501253977534361183643341064453125	0.0	9916.575541098920439253561198711395263671875	0.0	1	1	1	1
4815	S6	2019	7	20	15	365.65435350206098519265651702880859375	52.11081016547969824159736162982881069183349609375	325.79846810234897702684975229203701019287109375	21.87722228368119914421185967512428760528564453125	54.628333261277902010988327674567699432373046875	2.6841666716668299841330735944211483001708984375	367.66666422287499926824239082634449005126953125	0.0	10244.8425094285994418896734714508056640625	0.0	1	1	1	1
4816	S6	2019	7	20	16	378.71119384765597715158946812152862548828125	71.992943903720998832795885391533374786376953125	331.65985658433697835789644159376621246337890625	22.252777820163299082878438639454543590545654296875	54.68055523766410175312557839788496494293212890625	2.992777769019200118094659046619199216365814208984375	380.8333302537599820425384677946567535400390625	0.0	10347.469617922999532311223447322845458984375	0.0	1	1	1	1
4817	S6	2019	7	20	17	346.19116889105902146184234879910945892333984375	127.84551392661199997746734879910945892333984375	278.8194296942809842221322469413280487060546875	22.2283332824707002828290569595992565155029296875	57.29222238328720351319134351797401905059814453125	3.079722212255000091118972704862244427204132080078125	346.08332812786102294921875	0.0	9254.599839448919738060794770717620849609375	0.0	1	1	1	1
4818	S6	2019	7	20	18	219.308891169230008699742029421031475067138671875	83.043397550202001866637147031724452972412109375	187.62040574815500804106704890727996826171875	21.980555544959099023571980069391429424285888671875	57.08944439358180034105316735804080963134765625	3.028333330651120203214077264419756829738616943359375	203.33333375553200994545477442443370819091796875	0.0	5514.88876839477961766533553600311279296875	0.0	1	1	1	1
4819	S6	2019	7	20	19	159.259838273789995355400606058537960052490234375	116.038331542598001533406204544007778167724609375	128.825263722736991667261463589966297149658203125	22.259999699062699818341570789925754070281982421875	53.0933333079020002287506940774619579315185546875	3.561111110779970001516403499408625066280364990234375	133.333332836627988626787555404007434844970703125	0.0	3487.36546436944991000927984714508056640625	0.0	1	1	1	1
4820	S6	2019	7	20	20	28.136041906144800606170974788255989551544189453125	0.348481042186419009976106053727562539279460906982421875	28.273152393764899414918545517139136791229248046875	21.764444096883099888373180874623358249664306640625	56.56722225613059862325826543383300304412841796875	3.479166667494499876056579523719847202301025390625	22.2499999993789998598003876395523548126220703125	0.0	620.9899745881540411573951132595539093017578125	0.0	1	1	1	1
4821	S6	2019	7	20	21	1.803346265446049923042437512776814401149749755859375	0.24001803572059798863591595363686792552471160888671875	1.689961922176590025657105798018164932727813720703125	21.13896099932780003882726305164396762847900390625	60.6376625160118010171572677791118621826171875	4.12077921087090981444589488091878592967987060546875	0.08333333729145829538165202166055678389966487884521484375	0.0	4.417724985008479876569253974594175815582275390625	0.0	1	1	1	1
4822	S6	2019	7	20	22	0	0	0	0	0	0	0	0.0	0	0.0	1	1	1	0
4823	S6	2019	7	20	23	0	0	0	0	0	0	0	0.0	0	0.0	1	1	1	0
4824	S6	2019	7	20	24	0	0	0	0	0	0	0	0.0	0	0.0	1	1	1	0
4825	S6	2019	7	21	1	0	0	0	0	0	0	0	0.0	0	0.0	1	1	1	0
4826	S6	2019	7	21	2	0	0	0	0	0	0	0	0.0	0	0.0	1	1	1	0
4827	S6	2019	7	21	3	0	0	0	0	0	0	0	0.0	0	0.0	1	1	1	0
4828	S6	2019	7	21	4	0	0	0	0	0	0	0	0.0	0	0.0	1	1	1	0
4829	S6	2019	7	21	5	18.56978856588330017984844744205474853515625	3.14504045431876999572295972029678523540496826171875	18.894410931444699741632575751282274723052978515625	16.3662333674244990788793074898421764373779296875	94.1152592696151941709103994071483612060546875	1.1162337680141600770866716629825532436370849609375	11.916666708809099617383253644220530986785888671875	0.0	382.87872937507898996045696549117565155029296875	0.0	1	1	1	1
4830	S6	2019	7	21	6	50.482607656129601991779054515063762664794921875	37.49658790281119991050218231976032257080078125	45.76520596893740133737082942388951778411865234375	16.896056290747399231122471974231302738189697265625	91.6064792256959066207855357788503170013427734375	0.5943662001213549928024804103188216686248779296875	38.1666671795150023172027431428432464599609375	0.0	1104.500384380419973240350373089313507080078125	0.0	1	1	1	1
4831	S6	2019	7	21	7	79.3920412911308943648691638372838497161865234375	0.72162637975480803387284822747460566461086273193359375	79.255188507503902428652509115636348724365234375	17.495555517408501344789328868500888347625732421875	88.912778049045101624869857914745807647705078125	0.88222222584817100443643766993773169815540313720703125	70.4166671882070005494824727065861225128173828125	0.0	1997.293899456660028590704314410686492919921875	0.0	1	1	1	1
4832	S6	2019	7	21	8	173.045157958813007326170918531715869903564453125	19.735734249697298281489565852098166942596435546875	164.622313876111007857616641558706760406494140625	18.55826313221820100807235576212406158447265625	87.5380948064040040890176896937191486358642578125	1.7478991563246599749703591442084871232509613037109375	157.416667168340012494809343479573726654052734375	0.0	4420.7115272680903217406012117862701416015625	0.0	1	1	1	1
4833	S6	2019	7	21	9	228.964419146489007061973097734153270721435546875	5.64408364638102977295375239918939769268035888671875	225.22989275202399994668667204678058624267578125	19.554189724629100766151168500073254108428955078125	83.1167599981722986512977513484656810760498046875	1.57402234320533995770574620109982788562774658203125	211.16666495800001257521216757595539093017578125	0.0	5942.482858896250036195851862430572509765625	0.0	1	1	1	1
4834	S6	2019	7	21	10	331.95850974286901191590004600584506988525390625	119.14438246709499935604981146752834320068359375	246.699283776254986833009752444922924041748046875	20.300577963018600513578348909504711627960205078125	77.6393061290585961842225515283644199371337890625	2.003468210469780075300150201655924320220947265625	332.8333397706350069711334072053432464599609375	0.0	8941.767677664769507828168570995330810546875	0.0	1	1	1	1
4835	S6	2019	7	21	11	559.46723516504198414622806012630462646484375	388.031596751791994392988272011280059814453125	267.3149793398130213972763158380985260009765625	21.880070019435198247492735390551388263702392578125	68.955594256207604075825656764209270477294921875	2.236713291152370164383000883390195667743682861328125	521.166662375130954387714155018329620361328125	0.0	13620.118310054100220440886914730072021484375	0.0	1	1	1	1
4836	S6	2019	7	21	12	600.55923335509896787698380649089813232421875	290.35600769242000751546584069728851318359375	364.61280827268302573429537005722522735595703125	21.69053263353870164564796141348779201507568359375	67.238461432372304216187330894172191619873046875	2.73786981633076020870021238806657493114471435546875	687.0833337306900148178101517260074615478515625	0.0	17058.02619457240143674425780773162841796875	0.0	1	1	1	1
4837	S6	2019	7	21	13	508.74572391910902524614357389509677886962890625	246.67518538426799068474792875349521636962890625	303.87931461735098537246813066303730010986328125	21.748948850431201407218395615927875041961669921875	66.8492490980359974628299823962152004241943359375	2.943243245731240076423773643909953534603118896484375	567.9166664679820542005472816526889801025390625	0.0	14101.504365603099358850158751010894775390625	0.0	1	1	1	1
4838	S6	2019	7	21	14	346.8513958665570271477918140590190887451171875	3.2527016267687400841168710030615329742431640625	341.30442950047398653623531572520732879638671875	20.11131517019470038576400838792324066162109375	76.5146787217633033151287236250936985015869140625	3.2333333336432001914317879709415137767791748046875	318.99999827146501729657757095992565155029296875	0.0	9074.501713116949758841656148433685302734375	0.0	1	1	1	1
4839	S6	2019	7	21	15	185.8691630031399881772813387215137481689453125	1.4890318534915401027518555565620772540569305419921875	184.2782033001140007399953901767730712890625	20.423676801591199136964860372245311737060546875	73.971308843671096155958366580307483673095703125	2.938718650334390058986855365219525992870330810546875	166.08333028852899815319688059389591217041015625	0.0	4801.4405568440697607002221047878265380859375	0.0	1	1	1	1
4840	S6	2019	7	21	16	225.56098931933200901767122559249401092529296875	3.232824363198960160303840893902815878391265869140625	222.47072848365399977410561405122280120849609375	20.356825329008501057614921592175960540771484375	74.02603195432629945571534335613250732421875	3.82730159324311980384436537860892713069915771484375	198.166665000217989245356875471770763397216796875	0.0	5639.4910688201698576449416577816009521484375	0.0	1	1	1	1
4841	S6	2019	7	21	17	254.361403420914001571873086504638195037841796875	143.061925687814010643705842085182666778564453125	177.817841729451998844524496234953403472900390625	20.643895293391000933524992433376610279083251953125	71.1247090627980043109346297569572925567626953125	3.993895345995590151488841001992113888263702392578125	267.583331714072983231744728982448577880859375	0.0	7103.113611539200064726173877716064453125	0.0	1	1	1	1
4842	S6	2019	7	21	18	202.509491402761995004766504280269145965576171875	38.74010457583830202565877698361873626708984375	188.075254189627003142959438264369964599609375	19.973428677150099730397414532490074634552001953125	72.760571201869396418260294012725353240966796875	3.563142840606820183069203267223201692104339599609375	194.750002274910002597607672214508056640625	0.0	5229.2707761128303900477476418018341064453125	0.0	1	1	1	1
4843	S6	2019	7	21	19	178.21564866186798781200195662677288055419921875	256.269568157362982674385420978069305419921875	119.3547369728619997886198689229786396026611328125	19.5847888140610990603818208910524845123291015625	72.7563381356251994702688534744083881378173828125	3.151830983665619978495442410348914563655853271484375	150.99999929467600168209173716604709625244140625	0.0	3674.86312488714020219049416482448577880859375	0.0	1	1	1	1
4844	S6	2019	7	21	20	60.11158414781920100722345523536205291748046875	81.4129031006694958705338649451732635498046875	47.55880582366000197680477867834270000457763671875	18.47450974942579904336525942198932170867919921875	73.654622246237295257742516696453094482421875	3.230812326699739944757538978592492640018463134765625	37.58333359534540107915745466016232967376708984375	0.0	1114.92927372455005752271972596645355224609375	0.0	1	1	1	1
4845	S6	2019	7	21	21	18.34582364022190148489244165830314159393310546875	3.045014094662020109893774133524857461452484130859375	19.083239469442201396987002226524055004119873046875	18.1558564503987014404629007913172245025634765625	73.9684685372017014515222399495542049407958984375	3.49459458632512021125648971064947545528411865234375	4.91666670617024959000218586879782378673553466796875	0.0	186.084284990404995596691151149570941925048828125	0.0	1	1	1	0
4846	S6	2019	7	21	22	0	0	0	0	0	0	0	0.0	0	0.0	1	1	1	0
4847	S6	2019	7	21	23	0	0	0	0	0	0	0	0.0	0	0.0	1	1	1	0
4848	S6	2019	7	21	24	0	0	0	0	0	0	0	0.0	0	0.0	1	1	1	0
4849	S6	2019	7	22	1	0	0	0	0	0	0	0	0.0	0	0.0	1	1	1	0
4850	S6	2019	7	22	2	0	0	0	0	0	0	0	0.0	0	0.0	1	1	1	0
4851	S6	2019	7	22	3	0	0	0	0	0	0	0	0.0	0	0.0	1	1	1	0
4852	S6	2019	7	22	4	0	0	0	0	0	0	0.08333333729145829538165202166055678389966487884521484375	0.0	13.2269499202568994178363936953246593475341796875	0.0	1	1	1	0
4853	S6	2019	7	22	5	22.3067147610234002286233589984476566314697265625	6.75737348245638980159810671466402709484100341796875	22.739814971474999083511647768318653106689453125	14.1909804811664006507498925202526152133941650390625	92.469019721536000133710331283509731292724609375	1.3839215711051300328193747191107831895351409912109375	12.83333365184549990090090432204306125640869140625	0.0	443.072951554009023311664350330829620361328125	0.0	1	1	1	1
4854	S6	2019	7	22	6	114.674307661135998159807058982551097869873046875	154.334763226733997498740791343152523040771484375	88.477762089466295947204343974590301513671875	14.7949860607348995245047262869775295257568359375	89.8752090114071933157902094535529613494873046875	0.7796657402535329683956888402462936937808990478515625	69.833333604037505892847548238933086395263671875	0.0	2263.95987222592020771116949617862701416015625	0.0	1	1	1	1
4855	S6	2019	7	22	7	173.814118279350992679610499180853366851806640625	51.1286953873104010881434078328311443328857421875	158.6857795291469983567367307841777801513671875	15.720555464426599456828625989146530628204345703125	86.6666664123535070984871708787977695465087890625	1.7036111101508100151846747394301928579807281494140625	141.749998554586994714554748497903347015380859375	0.0	4246.036628882089644321240484714508056640625	0.0	1	1	1	1
4856	S6	2019	7	22	8	245.488954416909990641215699724853038787841796875	42.5279107446471016373834572732448577880859375	227.246485095552998245693743228912353515625	16.634444257948100442945360555313527584075927734375	84.798889117770698931053630076348781585693359375	1.6405555599265599919789337945985607802867889404296875	213.749999801318011805051355622708797454833984375	0.0	6256.4852138360101889702491462230682373046875	0.0	1	1	1	1
4857	S6	2019	7	22	9	282.29192411634602422054740600287914276123046875	30.1574807576835013378513394854962825775146484375	264.19069455464597240279545076191425323486328125	17.764444287618001538930911920033395290374755859375	78.9705558353000043325664591975510120391845703125	2.0705555505222701384582251193933188915252685546875	269.74999780456101916570332832634449005126953125	0.0	7801.0046084722098385100252926349639892578125	0.0	1	1	1	1
4858	S6	2019	7	22	10	348.2524443623680099335615523159503936767578125	24.74578859663409957647672854363918304443359375	330.11700822009601097306585870683193206787109375	18.592022871359798585899625322781503200531005859375	73.225071616322196632609120570123195648193359375	2.24529913865942010176013354794122278690338134765625	333.9166690905880159334628842771053314208984375	0.0	9632.249703009909353568218648433685302734375	0.0	1	1	1	1
4859	S6	2019	7	22	11	486.417076195609979549772106111049652099609375	92.2150116827751986647854209877550601959228515625	411.34895612928602304236846975982189178466796875	19.503888850741901705987402237951755523681640625	68.91055526733390479421359486877918243408203125	2.09611110794874999641024260199628770351409912109375	498.916660745938997933990322053432464599609375	0.0	12504.357655843099564663134515285491943359375	0.0	1	1	1	1
4860	S6	2019	7	22	12	492.9919638180859919884824194014072418212890625	80.094380998994296305681928060948848724365234375	425.6697906835109961320995353162288665771484375	20.1326816548181994903643499128520488739013671875	65.296089662519904095461242832243442535400390625	1.9731843561433499711910144469584338366985321044921875	496.33333335319997559054172597825527191162109375	0.0	13675.12295643479956197552382946014404296875	0.0	1	1	1	1
4861	S6	2019	7	22	13	506.74010484483500249552889727056026458740234375	59.28910979777570133819608599878847599029541015625	454.14556037055098158816690556704998016357421875	20.4449999703301017461853916756808757781982421875	61.59222178988979834457495599053800106048583984375	1.987499989983100068258181636338122189044952392578125	518.8333243131620520216529257595539093017578125	0.0	14206.542372703499495401047170162200927734375	0.0	1	1	1	1
4862	S6	2019	7	22	14	376.62795193990001507700071670114994049072265625	19.7868520725103991253490676172077655792236328125	358.11287477281297242370783351361751556396484375	20.53499982621929831339002703316509723663330078125	60.1005552715725031021065660752356052398681640625	1.9063888843688598928594046810758300125598907470703125	366.08333637316900421865284442901611328125	0.0	10422.917534907699518953450024127960205078125	0.0	1	1	1	1
4863	S6	2019	7	22	15	271.6116932588460031183785758912563323974609375	3.440528102824460088271507629542611539363861083984375	267.77636696310599973003263585269451141357421875	19.254705900304401211542426608502864837646484375	66.0532351774327963767063920386135578155517578125	2.213529410432359956217851504334248602390289306640625	248.4166684250039907055906951427459716796875	0.0	7452.1716833114796827430836856365203857421875	0.0	1	1	1	1
4864	S6	2019	7	22	16	197.32010497609599042334593832492828369140625	1.8877661436326500510318737724446691572666168212890625	194.987938867256985986387007869780063629150390625	16.959025921316001728200717479921877384185791015625	82.8618911699442008966798312030732631683349609375	1.4770773643238099825936160414130426943302154541015625	180.16666670640398706382256932556629180908203125	0.0	5504.8502286275297592510469257831573486328125	0.0	1	1	1	1
4865	S6	2019	7	22	17	106.6782501326659939877572469413280487060546875	0.49986374345090600623819909742451272904872894287109375	106.095092921786005035755806602537631988525390625	15.81500001483490081000127247534692287445068359375	90.3366668277316051671732566319406032562255859375	1.4083333323399200853742740946472622454166412353515625	96.083334026236599356707301922142505645751953125	0.0	2892.7579522132700731162913143634796142578125	0.0	1	1	1	1
4866	S6	2019	7	22	18	54.39894433551359753664655727334320545196533203125	0.358049853316817989767884000684716738760471343994140625	54.0761324352688035332903382368385791778564453125	15.3822221967909005257979515590704977512359619140625	92.7988889058430999057236476801335811614990234375	1.547499997831049967089711572043597698211669921875	48.33333380520330280205598683096468448638916015625	0.0	1455.75120175878009831649251282215118408203125	0.0	1	1	1	1
4867	S6	2019	7	22	19	26.957709561453899738125983276404440402984619140625	0.33166562113910902365176980310934595763683319091796875	26.797990555233401011037130956538021564483642578125	15.1416667858759002029955809121020138263702392578125	94.7897222518920017364507657475769519805908203125	1.785555550124910073606088189990259706974029541015625	23.916666861623500750511084333993494510650634765625	0.0	702.5249190628550195469870232045650482177734375	0.0	1	1	1	1
4868	S6	2019	7	22	20	9.1516961319578999933810337097384035587310791015625	0.325330551465352002526998376197298057377338409423828125	9.084314261542420609885084559209644794464111328125	15.1283334175745007854629875509999692440032958984375	95.3166673660278007673696265555918216705322265625	1.851944442838429960573876087437383830547332763671875	7.2500001018245701089881549705751240253448486328125	0.0	218.47650129347999836681992746889591217041015625	0.0	1	1	1	1
4869	S6	2019	7	22	21	1.3130325272362199928721793185104615986347198486328125	0.325526132545572000065448037275928072631359100341796875	1.3253940321663499890547655013506300747394561767578125	15.2063830558288994865279164514504373073577880859375	95.534042033743304500603699125349521636962890625	1.95212765323354009439071887754835188388824462890625	0.08333333729145829538165202166055678389966487884521484375	0.0	0	0.0	1	1	1	1
4870	S6	2019	7	22	22	0	0	0	0	0	0	0	0.0	0	0.0	1	1	1	0
4871	S6	2019	7	22	23	0	0	0	0	0	0	0	0.0	0	0.0	1	1	1	0
4872	S6	2019	7	22	24	0	0	0	0	0	0	0	0.0	0	0.0	1	1	1	0
4873	S6	2019	7	23	1	0	0	0	0	0	0	0	0.0	0	0.0	1	1	1	0
4874	S6	2019	7	23	2	0	0	0	0	0	0	0	0.0	0	0.0	1	1	1	0
4875	S6	2019	7	23	3	0	0	0	0	0	0	0	0.0	0	0.0	1	1	1	0
4876	S6	2019	7	23	4	0	0	0	0	0	0	0	0.0	0	0.0	1	1	1	0
4877	S6	2019	7	23	5	13.52530209828410079353488981723785400390625	0.344391259973849006570389974513091146945953369140625	13.6512238624599007152937701903283596038818359375	17.598616081950499534514165134169161319732666015625	93.9986159380743941937907948158681392669677734375	1.962629752588100018328987061977386474609375	9.4166669878177202690494596026837825775146484375	0.0	244.287883397190995538039715029299259185791015625	0.0	1	1	1	1
4878	S6	2019	7	23	6	55.31827878952019972302878159098327159881591796875	1.40469763014051007843363549909554421901702880859375	55.268638314141099954213132150471210479736328125	17.722500101725199073143812711350619792938232421875	93.6174998601276939780291286297142505645751953125	1.782777778804299995130122624686919152736663818359375	44.58333381141210338682867586612701416015625	0.0	1194.830828656750099980854429304599761962890625	0.0	1	1	1	1
4879	S6	2019	7	23	7	86.4913459248012941316119395196437835693359375	0.5482925073968030194038192348671145737171173095703125	86.4671772321064935340473311953246593475341796875	18.091666650772001645464115426875650882720947265625	91.8349997838337941402642172761261463165283203125	1.6116666658057099414946833348949439823627471923828125	78.000000367561796110749128274619579315185546875	0.0	2117.55416045585980100440792739391326904296875	0.0	1	1	1	1
4880	S6	2019	7	23	8	201.96335489736401314075919799506664276123046875	29.53784901434080012450067442841827869415283203125	187.895048712606012486503459513187408447265625	18.970621367632301002004169276915490627288818359375	88.65084759124920310568995773792266845703125	1.7881355874114099879790273917024023830890655517578125	179.50000055134199783424264751374721527099609375	0.0	5152.7474870284204371273517608642578125	0.0	1	1	1	1
4881	S6	2019	7	23	9	464.68574004671398824939387850463390350341796875	430.9272353965840238743112422525882720947265625	211.66751034864699931858922354876995086669921875	21.234925358331000921907616429962217807769775390625	80.3516419823489940199578995816409587860107421875	1.336417911212830045286636959644965827465057373046875	442.49999647339001285217818804085254669189453125	0.0	12127.4343530336991534568369388580322265625	0.0	1	1	1	1
4882	S6	2019	7	23	10	653.0583401150170175242237746715545654296875	812.686198255750014141085557639598846435546875	106.2924610985649991334867081604897975921630859375	22.980833260218300750921116559766232967376708984375	73.17666676839189676684327423572540283203125	1.4933333312471699372281364048831164836883544921875	701.6666680574420524862944148480892181396484375	0.0	18340.0567372639998211525380611419677734375	0.0	1	1	1	1
4883	S6	2019	7	23	11	749.0779651217990249278955161571502685546875	865.853708224826050354749895632266998291015625	96.2093897501626997836865484714508056640625	24.164999850590998420329924556426703929901123046875	67.52666702270499854421359486877918243408203125	2.348888884484760186666107983910478651523590087890625	848.4999984502779852846288122236728668212890625	0.0	21487.98263072959889541380107402801513671875	0.0	1	1	1	1
4884	S6	2019	7	23	12	801.995119561089040871593169867992401123046875	888.19528672959995674318633973598480224609375	93.6231155183580057155268150381743907928466796875	25.045833126703801241319524706341326236724853515625	63.89666674931839907003450207412242889404296875	2.353055551316999949307273709564469754695892333984375	942.9166615009299903249484486877918243408203125	0.0	23116.156816482500289566814899444580078125	0.0	1	1	1	1
4885	S6	2019	7	23	13	815.2879302978509485910763032734394073486328125	887.6087056477859960068599320948123931884765625	98.702182388305601534739253111183643341064453125	25.719166676203400356826023198664188385009765625	61.0599999427794983830608543939888477325439453125	2.13888888822661016320125781930983066558837890625	977.50000158945704242796637117862701416015625	0.0	23355.27046521499869413673877716064453125	0.0	1	1	1	1
4886	S6	2019	7	23	14	786.564454481336042590555734932422637939453125	879.7575407240119602647610008716583251953125	100.443389129638006806999328546226024627685546875	26.024166695276800709279996226541697978973388671875	61.67833312352490082730582798831164836883544921875	1.540277774797540022433395279222168028354644775390625	950.7500032583869824520661495625972747802734375	0.0	22714.66072400410121190361678600311279296875	0.0	1	1	1	1
4887	S6	2019	7	23	15	718.5077772939670239793485961854457855224609375	837.2033781765550202180747874081134796142578125	114.1608947881770035337467561475932598114013671875	26.688826779413400203111450537107884883880615234375	59.7466482237064013816052465699613094329833984375	1.2762569832568699812469503740430809557437896728515625	848.499993483226035095867700874805450439453125	0.0	20509.683350721999886445701122283935546875	0.0	1	1	1	1
4888	S6	2019	7	23	16	497.2584674091759779912536032497882843017578125	430.5031458939220101456157863140106201171875	221.573255983785003309094463475048542022705078125	26.49361022364210072055357159115374088287353515625	60.24025576411720095393320661969482898712158203125	0.86837060897114104474070472861058078706264495849609375	518.0833376944050314705236814916133880615234375	0.0	12512.669255336100832209922373294830322265625	0.0	1	1	1	1
4889	S6	2019	7	23	17	310.0658902493449886605958454310894012451171875	282.474849808523003957816399633884429931640625	172.794161689997991970813018269836902618408203125	26.107736494616300859661350841633975505828857421875	62.48452713974560168708194396458566188812255859375	0.60802292541992997154665090420166961848735809326171875	361.5833359460040128396940417587757110595703125	0.0	8921.809812386820340179838240146636962890625	0.0	1	1	1	1
4890	S6	2019	7	23	18	348.76742157154802725926856510341167449951171875	633.3973076599460227953386493027210235595703125	103.0957174570539933711188496090471744537353515625	25.848305087978499017253852798603475093841552734375	62.74096032051040339183600735850632190704345703125	1.2807909579431899782520076769287697970867156982421875	341.250002384186018389300443232059478759765625	0.0	8101.2451549371098735718987882137298583984375	0.0	1	1	1	1
4891	S6	2019	7	23	19	194.98891414971700442038127221167087554931640625	486.13199522501901128634926863014698028564453125	73.28360052294709703346597962081432342529296875	25.08662974535580048041083500720560550689697265625	64.73203341343270267316256649792194366455078125	1.5367687970482799553195718544884584844112396240234375	150.2499983956410005703219212591648101806640625	0.0	3381.373390555379955912940204143524169921875	0.0	1	1	1	1
4892	S6	2019	7	23	20	56.99770499175439653072317014448344707489013671875	140.0763103634679964670795015990734100341796875	35.32211896788390248502764734439551830291748046875	24.013585043853101552713269484229385852813720703125	69.2358486535413959472862188704311847686767578125	0.76641509499189897081095068642753176391124725341796875	22.833333273107800920342924655415117740631103515625	0.0	902.772781128687029195134527981281280517578125	0.0	1	1	1	1
4893	S6	2019	7	23	21	14.132134392147900570080309989862143993377685546875	0.7719976498967120459582247349317185580730438232421875	14.6843266577946991446879110299050807952880859375	23.134285845075300613871149835176765918731689453125	71.6571430024645934508953359909355640411376953125	0.40285714949880302437890122746466659009456634521484375	1.916666699495789938367806826136074960231781005859375	0.0	139.95503385861599099371233023703098297119140625	0.0	1	1	1	1
4894	S6	2019	7	23	22	0	0	0	0	0	0	0	0.0	0	0.0	1	1	1	0
4895	S6	2019	7	23	23	0	0	0	0	0	0	0	0.0	0	0.0	1	1	1	0
4896	S6	2019	7	23	24	0	0	0	0	0	0	0	0.0	0	0.0	1	1	1	0
4897	S6	2019	7	24	1	0	0	0	0	0	0	0	0.0	0	0.0	1	1	1	0
4898	S6	2019	7	24	2	0	0	0	0	0	0	0	0.0	0	0.0	1	1	1	0
4899	S6	2019	7	24	3	0	0	0	0	0	0	0	0.0	0	0.0	1	1	1	0
4900	S6	2019	7	24	4	0	0	0	0	0	0	0.08333333729145829538165202166055678389966487884521484375	0.0	7.99041668263564996976811016793362796306610107421875	0.0	1	1	1	0
4901	S6	2019	7	24	5	21.41894286383080014957158709876239299774169921875	13.0867224846869998344800478662364184856414794921875	21.00614002336379826374468393623828887939453125	15.9679715030981999035475382697768509387969970703125	95.433096210303204998126602731645107269287109375	0.9373665508214259478592111918260343372821807861328125	13.1666666711680004908657792839221656322479248046875	0.0	446.58427188793797313337563537061214447021484375	0.0	1	1	1	1
4902	S6	2019	7	24	6	114.7263175921730038453461020253598690032958984375	320.3383751128629910454037599265575408935546875	57.63743579587450227563749649561941623687744140625	17.03016743580050018636029562912881374359130859375	93.2935755212879058717589941807091236114501953125	1.008938545954289889294841486844234168529510498046875	41.16666673993069736070538056083023548126220703125	0.0	1481.685008853670069584040902554988861083984375	0.0	1	1	1	1
4903	S6	2019	7	24	7	246.483631642658991722782957367599010467529296875	525.144710455999984333175234496593475341796875	85.121867497761996901317615993320941925048828125	19.955000034967998345791784231550991535186767578125	86.37000001271559312954195775091648101806640625	1.08499999816219006021356108249165117740631103515625	152.49999985098799015759141184389591217041015625	0.0	4197.814067204790262621827423572540283203125	0.0	1	1	1	1
4904	S6	2019	7	24	8	393.9575792948400021487032063305377960205078125	663.541391669378981532645411789417266845703125	101.071566200256000911394949071109294891357421875	22.79916674296060108417805167846381664276123046875	75.7258332570392980187534703873097896575927734375	1.098611112104519893506449079723097383975982666015625	332.66667028268102512811310589313507080078125	0.0	9167.293985684709696215577423572540283203125	0.0	1	1	1	1
4905	S6	2019	7	24	9	531.1295262654620046305353753268718719482421875	736.5277779473190093995071947574615478515625	115.4489499198059974105490255169570446014404296875	24.93166667620339893574055167846381664276123046875	66.51083316802970557546359486877918243408203125	1.0536111119720599216265100039890967309474945068359375	517.7499949932099525540252216160297393798828125	0.0	14018.839061260199741809628903865814208984375	0.0	1	1	1	1
4906	S6	2019	7	24	10	611.1748918620020276648574508726596832275390625	722.277685276824968241271562874317169189453125	129.56548363512200694458442740142345428466796875	26.248863545331001745353205478750169277191162109375	60.422727443955096759964362718164920806884765625	0.97329545562917496592802990562631748616695404052734375	663.6666605869910426918067969381809234619140625	0.0	16720.15716632199837476946413516998291015625	0.0	1	1	1	1
4907	S6	2019	7	24	11	748.1960724475329698179848492145538330078125	817.968318650702030936372466385364532470703125	134.123206216080006925039924681186676025390625	27.2249299751943993896929896436631679534912109375	55.51652677519980016995759797282516956329345703125	0.93081232821907899932512009399943053722381591796875	810.583330690860975664691068232059478759765625	0.0	20075.1868089039999176748096942901611328125	0.0	1	1	1	1
4908	S6	2019	7	24	12	809.393045891654992374242283403873443603515625	882.18709004719994482002221047878265380859375	108.547610070969994922052137553691864013671875	28.72166662216179844335783855058252811431884765625	46.6958332697549991507912636734545230865478515625	0.81388889228304195366803241995512507855892181396484375	949.9166657527290453799651004374027252197265625	0.0	22761.325279871598468162119388580322265625	0.0	1	1	1	1
4909	S6	2019	7	24	13	818.1556572808159444321063347160816192626953125	875.243061150443963924772106111049652099609375	113.739389801024998405409860424697399139404296875	29.380000178019198386891730478964745998382568359375	46.02000004450479764273040927946567535400390625	0.96222222447395300282124708246556110680103302001953125	980.75000445047999164671637117862701416015625	0.0	23076.01515452059902600012719631195068359375	0.0	1	1	1	1
4910	S6	2019	7	24	14	799.652585347492959044757299125194549560546875	852.2777289496519870226620696485042572021484375	135.847865337795013829236268065869808197021484375	29.3341667811074984228980611078441143035888671875	47.3991668701170993927007657475769519805908203125	1.0552777808573499118693916898337192833423614501953125	962.916672229767982571502216160297393798828125	0.0	22668.79479090369932237081229686737060546875	0.0	1	1	1	1
4911	S6	2019	7	24	15	705.2321546687629734151414595544338226318359375	795.58871762142598527134396135807037353515625	132.955309535180987268176977522671222686767578125	28.104651085166000967774380114860832691192626953125	52.50610455801319886859346297569572925567626953125	1.993023247652959906162095649051479995250701904296875	847.2499996423720176608185283839702606201171875	0.0	20152.505675951601006090641021728515625	0.0	1	1	1	1
4912	S6	2019	7	24	16	596.805551825628981532645411789417266845703125	764.729737684461042590555734932422637939453125	117.16444388495500561475637368857860565185546875	27.31333335240680071365204639732837677001953125	54.54166685740150199990239343605935573577880859375	2.509444442391389973323612139211036264896392822265625	700.8333305517829785458161495625972747802734375	0.0	17028.26084693269876879639923572540283203125	0.0	1	1	1	1
4913	S6	2019	7	24	17	474.06162770589099864082527346909046173095703125	737.61820933024000623845495283603668212890625	96.3937039057413045384237193502485752105712890625	27.5733334223428983023040927946567535400390625	51.718333339691099581614253111183643341064453125	2.197500004205430013115574183757416903972625732421875	526.2499898672100471230805851519107818603515625	0.0	12828.95588874809982371516525745391845703125	0.0	1	1	1	1
4914	S6	2019	7	24	18	313.3036801232229890956659801304340362548828125	554.01408464643600382260046899318695068359375	94.5767438464693981359232566319406032562255859375	27.385833263397199033306605997495353221893310546875	51.73583345413199907625312334857881069183349609375	2.214444443583480026660481598810292780399322509765625	312.4166677395500073544098995625972747802734375	0.0	7458.9290618896702653728425502777099609375	0.0	1	1	1	1
4915	S6	2019	7	24	19	216.49240832858600924737402237951755523681640625	448.772524134318018695921637117862701416015625	106.7962933222450061521158204413950443267822265625	27.2374999682107983289824915118515491485595703125	50.85833339691159693529698415659368038177490234375	1.8024999969535400179410089549492113292217254638671875	176.33333243429700587512343190610408782958984375	0.0	4101.7573227484999733860604465007781982421875	0.0	1	1	1	1
4916	S6	2019	7	24	20	60.32107651721140229028605972416698932647705078125	139.4070811838899999202112667262554168701171875	38.77772152911330039160020533017814159393310546875	24.58661707626389869574268232099711894989013671875	62.51078111442929952090707956813275814056396484375	1.6732341954034499753589670945075340569019317626953125	28.750000211099699498618065263144671916961669921875	0.0	1019.057164589559988598921336233615875244140625	0.0	1	1	1	1
4917	S6	2019	7	24	21	10.5202964877222999717787388362921774387359619140625	0.585479566777074023065097208018414676189422607421875	10.9082432652378003012927365489304065704345703125	23.109909762133298727349028922617435455322265625	68.0747751459344954128027893602848052978515625	1.8378378330050200162304463447071611881256103515625	1.4166666854483300763689612722373567521572113037109375	0.0	88.1374171003698023696415475569665431976318359375	0.0	1	1	1	1
4918	S6	2019	7	24	22	0	0	0	0	0	0	0	0.0	0	0.0	1	1	1	0
4919	S6	2019	7	24	23	0	0	0	0	0	0	0	0.0	0	0.0	1	1	1	0
4920	S6	2019	7	24	24	0	0	0	0	0	0	0	0.0	0	0.0	1	1	1	0
4921	S6	2019	7	25	1	0	0	0	0	0	0	0	0.0	0	0.0	1	1	1	0
4922	S6	2019	7	25	2	0	0	0	0	0	0	0	0.0	0	0.0	1	1	1	0
4923	S6	2019	7	25	3	0	0	0	0	0	0	0	0.0	0	0.0	1	1	1	0
4924	S6	2019	7	25	4	0	0	0	0	0	0	0	0.0	4.49910007106749976202308971551246941089630126953125	0.0	1	1	1	0
4925	S6	2019	7	25	5	26.861232599172598867198757943697273731231689453125	10.53159689521699959868783480487763881683349609375	27.097528639136701400502715841867029666900634765625	18.7131490674398008877687971107661724090576171875	96.1982694315662030248859082348644733428955078125	0.98650519018767202084063683287240564823150634765625	16.750000019480200563748439890332520008087158203125	0.0	514.3244401551779674264253117144107818603515625	0.0	1	1	1	1
4926	S6	2019	7	25	6	115.9301369561080008452336187474429607391357421875	223.1252116521189918785239569842815399169921875	76.4638314353095012165795196779072284698486328125	19.5399999459583995076172868721187114715576171875	92.840000025431294261579751037061214447021484375	1.1736111123528700783680278618703596293926239013671875	55.00000001241750169356237165629863739013671875	0.0	1823.4988922874099444015882909297943115234375	0.0	1	1	1	1
4927	S6	2019	7	25	7	241.12778968810999913330306299030780792236328125	446.51379352410600631628767587244510650634765625	102.19963686201299424283206462860107421875	21.134999895095798905231276876293122768402099609375	83.639166768391902451185160316526889801025390625	1.688055552707770079479132618871517479419708251953125	157.749999314545988227109774015843868255615234375	0.0	4344.0657556056803514366038143634796142578125	0.0	1	1	1	1
4928	S6	2019	7	25	8	383.90076412624699742082157172262668609619140625	606.464168633355029669473879039287567138671875	115.0549562878070020133236539550125598907470703125	22.15916651089980149436087231151759624481201171875	78.91916656494140625	1.981944441464210004966162159689702093601226806640625	313.1666692594690175610594451427459716796875	0.0	8930.351008971500050392933189868927001953125	0.0	1	1	1	1
4929	S6	2019	7	25	9	515.6303107367619986689533106982707977294921875	668.8948639763719938855501823127269744873046875	137.441758092243986766334273852407932281494140625	23.4483333587646001205939683131873607635498046875	70.855833435058599434341886080801486968994140625	2.18638888680272014397587554412893950939178466796875	501.16667151451002837347914464771747589111328125	0.0	13761.57327493020056863315403461456298828125	0.0	1	1	1	1
4930	S6	2019	7	25	10	622.7385904435010388624505139887332916259765625	712.051818163788993842899799346923828125	139.173733751312994399995659478008747100830078125	24.486554618643101122188454610295593738555908203125	63.1728289948791967844954342581331729888916015625	2.480392155026180045496175807784311473369598388671875	658.0833345651629997519194148480892181396484375	0.0	17302.7324080467005842365324497222900390625	0.0	1	1	1	1
4931	S6	2019	7	25	11	727.30012071397504769265651702880859375	793.955205281574990294757299125194549560546875	133.23043026394299204184790141880512237548828125	25.182499949137298500545512069948017597198486328125	57.884166717529296875	2.541944441696000200892058273893781006336212158203125	828.9999961853039849302149377763271331787109375	0.0	20878.21618715919976239092648029327392578125	0.0	1	1	1	1
4932	S6	2019	7	25	12	791.7469863891600425631622783839702606201171875	793.3557981703010000273934565484523773193359375	161.527548768785010224746656604111194610595703125	25.8783335049946998651648755185306072235107421875	53.184999910990399030197295360267162322998046875	2.653888883938389842143124042195267975330352783203125	937.833334008852034457959234714508056640625	0.0	22814.42900498699964373372495174407958984375	0.0	1	1	1	1
4933	S6	2019	7	25	13	822.385410568929955843486823141574859619140625	751.05823508175899405614472925662994384765625	211.337759754874014106462709605693817138671875	26.561931843107398520942297182045876979827880859375	50.77386371655889973908415413461625576019287109375	2.5758522657508198250297937192954123020172119140625	961.416671673455994096002541482448577880859375	0.0	23330.97004890440075541846454143524169921875	0.0	1	1	1	1
4934	S6	2019	7	25	14	763.467729878979980639996938407421112060546875	684.183018052299985356512479484081268310546875	223.0702378029039891771390102803707122802734375	26.75523252265389828608022071421146392822265625	49.3799416963444031125618494115769863128662109375	2.32761627565635986769621013081632554531097412109375	888.3333305517829785458161495625972747802734375	0.0	21201.96727911629932350479066371917724609375	0.0	1	1	1	1
4935	S6	2019	7	25	15	668.235035234401948400773108005523681640625	681.30295953399399877525866031646728515625	175.440394544735994486472918651998043060302734375	26.952407858526999717696526204235851764678955078125	48.75552414632039699426968581974506378173828125	2.417280451265340079913812587619759142398834228515625	821.8333274126049445840180851519107818603515625	0.0	19218.3175881702991318888962268829345703125	0.0	1	1	1	1
4936	S6	2019	7	25	16	593.7356960720479719384456984698772430419921875	731.2465435451930488852667622268199920654296875	131.56564004686100588514818809926509857177734375	27.1283334732055010363183100707828998565673828125	48.4200001716613002145095379091799259185791015625	2.226388891620759924450112521299161016941070556640625	694.2500025033949668795685283839702606201171875	0.0	16770.26327451059842132963240146636962890625	0.0	1	1	1	1
4937	S6	2019	7	25	17	466.14824701944900198213872499763965606689453125	679.4328737046979540536995045840740203857421875	115.2388789706759979480921174399554729461669921875	26.875833225250200797518118633888661861419677734375	48.80583324432370062595509807579219341278076171875	2.446111107286479846578686192515306174755096435546875	515.0000005960470161880948580801486968994140625	0.0	12501.549581686600504326634109020233154296875	0.0	1	1	1	1
4938	S6	2019	7	25	18	309.38125182257698497778619639575481414794921875	539.238443056741971304290927946567535400390625	98.978148078918394503489253111183643341064453125	26.04833319981889871996827423572540283203125	51.49416656494140198674358543939888477325439453125	2.0419444431861197841726607293821871280670166015625	303.00000185767800076064304448664188385009765625	0.0	7262.1100147565002771443687379360198974609375	0.0	1	1	1	1
4939	S6	2019	7	25	19	185.773904991149009902073885314166545867919921875	446.5416327582460098710726015269756317138671875	74.557811800638802424145978875458240509033203125	24.77583338419589864543013391084969043731689453125	56.27333329518629767562742927111685276031494140625	2.16166666208042013153090010746382176876068115234375	144.333335260548011547143687494099140167236328125	0.0	3199.49167718489979961304925382137298583984375	0.0	1	1	1	1
4940	S6	2019	7	25	20	45.3720012195773989560620975680649280548095703125	87.9381905405247010776292881928384304046630859375	33.9025743015476024311283254064619541168212890625	23.077704958055800688043746049515902996063232421875	62.44754129628660166417830623686313629150390625	1.5937704906111800351453666735324077308177947998046875	23.5833334736525017660824232734739780426025390625	0.0	782.4687361717229805435636080801486968994140625	0.0	1	1	1	1
4941	S6	2019	7	25	21	13.6821190869366002829110584571026265621185302734375	1.5933625366952599566872095238068141043186187744140625	14.3169430979975000894910408533178269863128662109375	22.0111111534965999680935055948793888092041015625	65.4555562337238967529629007913172245025634765625	0.91851851454487498660483879575622268021106719970703125	1.41666668544834006837618289864622056484222412109375	0.0	91.3258162327108067302106064744293689727783203125	0.0	1	1	1	1
4942	S6	2019	7	25	22	0	0	0	0	0	0	0	0.0	0	0.0	1	1	1	0
4943	S6	2019	7	25	23	0	0	0	0	0	0	0	0.0	0	0.0	1	1	1	0
4944	S6	2019	7	25	24	0	0	0	0	0	0	0	0.0	0	0.0	1	1	1	0
4945	S6	2019	7	26	1	0	0	0	0	0	0	0	0.0	0	0.0	1	1	1	0
4946	S6	2019	7	26	2	0	0	0	0	0	0	0	0.0	0	0.0	1	1	1	0
4947	S6	2019	7	26	3	0	0	0	0	0	0	0	0.0	0	0.0	1	1	1	0
4948	S6	2019	7	26	4	0	0	0	0	0	0	0.08333333729145829538165202166055678389966487884521484375	0.0	3.983250043044459953733849033596925437450408935546875	0.0	1	1	1	0
4949	S6	2019	7	26	5	20.905756515091301395159462117590010166168212890625	21.131845300251999475449338206090033054351806640625	21.307660870532199481885982095263898372650146484375	16.878008062908701703008773620240390300750732421875	86.1024898671509930636602803133428096771240234375	0.51203319937361702063327584255603142082691192626953125	11.4166667335666005556049640290439128875732421875	0.0	401.3079089733470254941494204103946685791015625	0.0	1	1	1	1
4950	S6	2019	7	26	6	108.8322609477570068747809273190796375274658203125	326.000270377264996568555943667888641357421875	52.07469049029879926138164591975510120391845703125	18.539166736602698648539444548077881336212158203125	81.29166698455810546875	0.407777782032887003982324358730693347752094268798828125	39.166666877766402876659412868320941925048828125	0.0	1423.62887784837994331610389053821563720703125	0.0	1	1	1	1
4951	S6	2019	7	26	7	233.3836590237079917642404325306415557861328125	499.51649839613099857160705141723155975341796875	80.5648048400878025177007657475769519805908203125	21.82916671435030053771697566844522953033447265625	73.24999936421710344802704639732837677001953125	0.632222224192485970917232407373376190662384033203125	136.916666602094011295775999315083026885986328125	0.0	3978.919411698980184155516326427459716796875	0.0	1	1	1	1
4952	S6	2019	7	26	8	374.6947794596350149731733836233615875244140625	613.724652438693055955809541046619415283203125	103.12167161305700346929370425641536712646484375	25.108333396911600488010662957094609737396240234375	60.43916657765699795845648623071610927581787109375	1.0727777789036399003208543945220299065113067626953125	308.5833378136150031423312611877918243408203125	0.0	8629.3110549449993413873016834259033203125	0.0	1	1	1	1
4953	S6	2019	7	26	9	513.5538197835279561331844888627529144287109375	693.863347880045012061600573360919952392578125	118.625873141818004796732566319406032562255859375	27.374166615804000457501388154923915863037109375	49.371666495005200658852118067443370819091796875	1.3805555555555499847031342142145149409770965576171875	495.9999993443469747944618575274944305419921875	0.0	13417.121708393000517389737069606781005859375	0.0	1	1	1	1
4954	S6	2019	7	26	10	632.7874242146809820042108185589313507080078125	757.789009094238053876324556767940521240234375	121.783756870692997154037584550678730010986328125	28.38999996185300034312604111619293689727783203125	48.91750030517570024812812334857881069183349609375	1.6005555565986300248226825715391896665096282958984375	675.5833327770229743691743351519107818603515625	0.0	17420.3740755715989507734775543212890625	0.0	1	1	1	1
4955	S6	2019	7	26	11	717.6895448472760108415968716144561767578125	794.90376959906598131055943667888641357421875	122.6410664240510044464826933108270168304443359375	29.14166671435030053771697566844522953033447265625	48.93250013987219659838956431485712528228759765625	1.5044444432688999224723147563054226338863372802734375	817.1666661898290158205782063305377960205078125	0.0	20316.37227535240162978880107402801513671875	0.0	1	1	1	1
4956	S6	2019	7	26	12	765.5532338169640524938586167991161346435546875	793.1114264038629926290013827383518218994140625	134.1445512608109993379912339150905609130859375	29.82114277430940063595699029974639415740966796875	46.21199995858319908847988699562847614288330078125	1.64114285511629010017031760071404278278350830078125	911.5833242734280474905972369015216827392578125	0.0	22024.82394377389937289990484714508056640625	0.0	1	1	1	1
4957	S6	2019	7	26	13	733.3542041950389602789073251187801361083984375	635.2748055083969802581123076379299163818359375	213.583189589124998519764631055295467376708984375	30.141741658116199431560744415037333965301513671875	44.07087096938850123706288286484777927398681640625	2.37987987075123985647451263503171503543853759765625	833.0833340684539507492445409297943115234375	0.0	19619.32313442229860811494290828704833984375	0.0	1	1	1	1
4958	S6	2019	7	26	14	619.899821197009032403002493083477020263671875	443.3327522387750150301144458353519439697265625	265.9176431624609904247336089611053466796875	29.74983596801749996529906638897955417633056640625	46.37409841818880096298016724176704883575439453125	2.473114748372399862574866347131319344043731689453125	631.75000001986700226552784442901611328125	0.0	15303.90004316960039432160556316375732421875	0.0	1	1	1	1
4959	S6	2019	7	26	15	689.072426465530952555127441883087158203125	740.7529841758829434184008277952671051025390625	149.466448179433001541838166303932666778564453125	28.85126762390130039648283855058252811431884765625	41.92676068158210256342499633319675922393798828125	2.91605633043907008783435230725444853305816650390625	819.6666638056440206128172576427459716796875	0.0	19810.52788098650125903077423572540283203125	0.0	1	1	1	1
4960	S6	2019	7	26	16	581.9880580211410006086225621402263641357421875	713.441456196366971198585815727710723876953125	126.807163397913001290362444706261157989501953125	27.622284169316600355159607715904712677001953125	42.208634995484402452348149381577968597412109375	3.01643453235412994928310581599362194538116455078125	665.583337346711005011457018554210662841796875	0.0	16206.8880697091008187271654605865478515625	0.0	1	1	1	1
4961	S6	2019	7	26	17	256.1789051836179851306951604783535003662109375	120.9013333604240045815458870492875576019287109375	193.57363159006200703515787608921527862548828125	26.378693309697201385688458685763180255889892578125	46.00823861902409817048464901745319366455078125	2.8034090902656298993633754434995353221893310546875	247.333332896232008124570711515843868255615234375	0.0	6437.4285936355399826425127685070037841796875	0.0	1	1	1	1
4962	S6	2019	7	26	18	187.602060874528007161643472500145435333251953125	124.77881067856100116841844283044338226318359375	135.4303972498209986952133476734161376953125	25.100849864840800051979385898448526859283447265625	53.14249304536379980845595127902925014495849609375	2.469121808370850157388076695497147738933563232421875	181.166667491196989203672274015843868255615234375	0.0	4543.8062399625696343719027936458587646484375	0.0	1	1	1	1
4963	S6	2019	7	26	19	161.117453066507010817076661624014377593994140625	379.64967435532099671036121435463428497314453125	69.4165633095635001836853916756808757781982421875	24.088333415985101026990378159098327159881591796875	58.82833331425980105677808751352131366729736328125	2.25666666171616991931614393251948058605194091796875	125.666666155060994469749857671558856964111328125	0.0	2762.663759291170208598487079143524169921875	0.0	1	1	1	1
4964	S6	2019	7	26	20	49.36631527799099927733550430275499820709228515625	108.1025628542769965179104474373161792755126953125	33.95807006023179752673968323506414890289306640625	22.724055011657501523814062238670885562896728515625	62.95326454450989928091075853444635868072509765625	1.412027493580100045988956480869092047214508056640625	24.499999902521498285068446421064436435699462890625	0.0	856.84988337258300816756673157215118408203125	0.0	1	1	1	1
4965	S6	2019	7	26	21	14.0397356904071006766798745957203209400177001953125	0.60574453226897995161692733745439909398555755615234375	14.6424343482306991148789165890775620937347412109375	21.847825755243700740493295597843825817108154296875	67.0347830730934930443254415877163410186767578125	1.3217391255109200987050144249224103987216949462890625	1.5833333794337900446436151469242759048938751220703125	0.0	94.190317671746100813834345899522304534912109375	0.0	1	1	1	0
4966	S6	2019	7	26	22	0	0	0	0	0	0	0	0.0	0	0.0	1	1	1	0
4967	S6	2019	7	26	23	0	0	0	0	0	0	0	0.0	0	0.0	1	1	1	0
4968	S6	2019	7	26	24	0	0	0	0	0	0	0	0.0	0	0.0	1	1	1	0
4969	S6	2019	7	27	1	0	0	0	0	0	0	0	0.0	0	0.0	1	1	1	0
4970	S6	2019	7	27	2	0	0	0	0	0	0	0	0.0	0	0.0	1	1	1	0
4971	S6	2019	7	27	3	0	0	0	0	0	0	0	0.0	0	0.0	1	1	1	0
4972	S6	2019	7	27	4	0	0	0	0	0	0	0	0.0	2.19458326076463006160111035569570958614349365234375	0.0	1	1	1	0
4973	S6	2019	7	27	5	21.219711856681698236570809967815876007080078125	31.52785187909579889264932717196643352508544921875	21.4871491945090014041852555237710475921630859375	17.439075445928398977457618457265198230743408203125	86.025629732789099080036976374685764312744140625	1.1647058830541701102134766188100911676883697509765625	9.58333343927125014261036994867026805877685546875	0.0	352.7546087279910125289461575448513031005859375	0.0	1	1	1	1
4974	S6	2019	7	27	6	102.1376505533850007623186684213578701019287109375	247.66506524615800799438147805631160736083984375	59.44126203325050283865493838675320148468017578125	18.472777801089801386069666477851569652557373046875	84.142777548895907102632918395102024078369140625	1.987777778506270021097179778735153377056121826171875	41.9166663972039970076366444118320941925048828125	0.0	1443.224055071669909011689014732837677001953125	0.0	1	1	1	1
4975	S6	2019	7	27	7	233.224479241804004914229153655469417572021484375	461.08002073114499808070831932127475738525390625	92.15513014793390311751863919198513031005859375	19.833238617940299519659674842841923236846923828125	81.2102266875180021088453941047191619873046875	3.16164772060106979978399976971559226512908935546875	138.833334669470986000305856578052043914794921875	0.0	4048.21535944938977991114370524883270263671875	0.0	1	1	1	1
4976	S6	2019	7	27	8	374.0370633443189944955520331859588623046875	567.6380432128900110910763032734394073486328125	119.755090204873994252920965664088726043701171875	21.373333454131998365710387588478624820709228515625	75.9494445376925995105921174399554729461669921875	2.88361111382643020561999946949072182178497314453125	307.83333132664398590350174345076084136962890625	0.0	8683.298478523860467248596251010894775390625	0.0	1	1	1	1
4977	S6	2019	7	27	9	516.229770321315982073429040610790252685546875	659.84734293619794698315672576427459716796875	135.971243328517999771065660752356052398681640625	23.145555517408499923703857348300516605377197265625	67.0283330705429989393451251089572906494140625	3.501944437374670204832227682345546782016754150390625	495.33333381017001784130115993320941925048828125	0.0	13683.857023715900140814483165740966796875	0.0	1	1	1	1
4978	S6	2019	7	27	10	586.1738391623370034722029231488704681396484375	579.8155907638130202030879445374011993408203125	190.016331389588998490580706857144832611083984375	24.370028927278099217801354825496673583984375	60.60576361400590172934244037605822086334228515625	3.552161377084349869193147242185659706592559814453125	642.58333543936305431998334825038909912109375	0.0	16783.48666429520017118193209171295166015625	0.0	1	1	1	1
4979	S6	2019	7	27	11	618.329736635281960843713022768497467041015625	461.58329870909801684319972991943359375	268.350269565333974242093972861766815185546875	25.290584483703998586179295671172440052032470703125	54.27597412505699736584574566222727298736572265625	4.13993505959386975945335507276467978954315185546875	633.749999105931010490166954696178436279296875	0.0	16411.89674536379970959387719631195068359375	0.0	1	1	1	1
4980	S6	2019	7	27	12	515.1105754237020164509885944426059722900390625	317.67542557608197739682509563863277435302734375	256.1871444209920127832447178661823272705078125	25.57838705124390088485597516410052776336669921875	51.226774474113199175917543470859527587890625	4.73709677198239997863993266946636140346527099609375	612.8333335121469644946046173572540283203125	0.0	15407.03493356699982541613280773162841796875	0.0	1	1	1	1
4981	S6	2019	7	27	13	700.26742661650905574788339436054229736328125	489.6163271496189963727374561131000518798828125	294.11573708095698975739651359617710113525390625	26.076527482060299689692328684031963348388671875	50.96141508537849773574635037221014499664306640625	4.3401929192796000478438145364634692668914794921875	822.0000105599559674374177120625972747802734375	0.0	20197.07010189690117840655148029327392578125	0.0	1	1	1	1
4982	S6	2019	7	27	14	735.4676680626799907258828170597553253173828125	605.587845154130036462447606027126312255859375	249.349801744733014174926211126148700714111328125	26.251298724830899544713247450999915599822998046875	48.98474031919000282186971162445843219757080078125	4.72467532260464029292279519722796976566314697265625	832.833329836528037048992700874805450439453125	0.0	20311.4263812700010021217167377471923828125	0.0	1	1	1	1
4983	S6	2019	7	27	15	572.398055212838016814203001558780670166015625	425.82884145816302634557359851896762847900390625	264.59548564184200358795351348817348480224609375	26.133333257266400551088736392557621002197265625	50.0145834059942018257061135955154895782470703125	4.51160714065744006262548282393254339694976806640625	673.999999960263039611163549125194549560546875	0.0	16751.457740863101207651197910308837890625	0.0	1	1	1	1
4984	S6	2019	7	27	16	564.1685737798239870244287885725498199462890625	612.032135987838046276010572910308837890625	174.96280820870100569663918577134609222412109375	26.01265420442739895179329323582351207733154296875	54.5925927927464016420344705693423748016357421875	4.78302469067735014363051959662698209285736083984375	637.3333310087540439781150780618190765380859375	0.0	15844.85415617619946715421974658966064453125	0.0	1	1	1	1
4985	S6	2019	7	27	17	424.944646950227024717605672776699066162109375	497.9988256014249827785533852875232696533203125	162.2085985390530140648479573428630828857421875	26.136144643806499487936889636330306529998779296875	54.763554205377403150123427622020244598388671875	4.1698795151279597348548122681677341461181640625	447.91666666666600349344662390649318695068359375	0.0	11080.925583839400133001618087291717529296875	0.0	1	1	1	1
4986	S6	2019	7	27	18	283.84428440638902202408644370734691619873046875	402.86497499240198294501169584691524505615234375	130.360039912632004188708378933370113372802734375	25.888856882367800693600656813941895961761474609375	55.8191430664061982724888366647064685821533203125	4.43371428694042979401501725078560411930084228515625	278.33333114782902839579037390649318695068359375	0.0	6642.55327979723006137646734714508056640625	0.0	1	1	1	1
4987	S6	2019	7	27	19	162.810788832769986811399576254189014434814453125	361.7291588912399902255856432020664215087890625	71.0691045549179989393451251089572906494140625	25.14333325492010118296093423850834369659423828125	60.6611111958820998779629007913172245025634765625	4.251944441762230297854330274276435375213623046875	129.833331952493011840488179586827754974365234375	0.0	2860.929233332470175810158252716064453125	0.0	1	1	1	1
4988	S6	2019	7	27	20	53.7211487120089969948821817524731159210205078125	82.585941494260396211757324635982513427734375	41.51364109636009658288458012975752353668212890625	24.0681564181875984331782092340290546417236328125	60.1955307475680996276423684321343898773193359375	3.838826813178350061406263193930499255657196044921875	34.0833332544813032427555299364030361175537109375	0.0	1020.237015560260033453232608735561370849609375	0.0	1	1	1	1
4989	S6	2019	7	27	21	6.01003452114291025765169251826591789722442626953125	0.270742370844720026124008427359513007104396820068359375	6.1356444142081496551099917269311845302581787109375	23.2573424119214990923865116201341152191162109375	61.90209811550749918751535005867481231689453125	3.376223778391210128546617852407507598400115966796875	1.3333333675594400968833497245213948190212249755859375	0.0	53.722374723292801945717656053602695465087890625	0.0	1	1	1	0
4990	S6	2019	7	27	22	0	0	0	0	0	0	0	0.0	0	0.0	1	1	1	0
4991	S6	2019	7	27	23	0	0	0	0	0	0	0	0.0	0	0.0	1	1	1	0
4992	S6	2019	7	27	24	0	0	0	0	0	0	0	0.0	0	0.0	1	1	1	0
4993	S6	2019	7	28	1	0	0	0	0	0	0	0	0.0	0	0.0	1	1	1	0
4994	S6	2019	7	28	2	0	0	0	0	0	0	0	0.0	0	0.0	1	1	1	0
4995	S6	2019	7	28	3	0	0	0	0	0	0	0	0.0	0	0.0	1	1	1	0
4996	S6	2019	7	28	4	0	0	0	0	0	0	0	0.0	0	0.0	1	1	1	0
4997	S6	2019	7	28	5	20.509061676504298787904190248809754848480224609375	28.37463031568859861408782307989895343780517578125	20.794751470933501735771642415784299373626708984375	18.656502240441799500558772706426680088043212890625	88.575785068118506160317338071763515472412109375	1.85201792893388006433497139369137585163116455078125	9.1666667043075999998791303369216620922088623046875	0.0	333.25833823376598274990101344883441925048828125	0.0	1	1	1	1
4998	S6	2019	7	28	6	75.046840890248603272993932478129863739013671875	152.5111188948150129363057203590869903564453125	50.59519405364989808049358543939888477325439453125	19.4338891241284983379955519922077655792236328125	85.8694442749023068017777404747903347015380859375	2.147499995513090009779944011825136840343475341796875	36.500000394880800058672321029007434844970703125	0.0	1190.776246289409982637153007090091705322265625	0.0	1	1	1	1
4999	S6	2019	7	28	7	100.7697081565849970274939551018178462982177734375	46.98324063743149991978498292155563831329345703125	88.78515451219340093302889727056026458740234375	20.007222482893201487286205519922077655792236328125	83.760555352105001247764448635280132293701171875	2.520555550356700091896300364169292151927947998046875	73.0000017210840042025665752589702606201171875	0.0	2097.81213601429999471292831003665924072265625	0.0	1	1	1	1
5000	S6	2019	7	28	8	38.338223159313201904296875	0.302177161445432995723336944138281978666782379150390625	38.34876651763909904957472463138401508331298828125	19.75937520861619844936285517178475856781005859375	87.1896872520446066801014239899814128875732421875	2.987812490761279970996611154987476766109466552734375	29.8333335667849013361774268560111522674560546875	0.0	925.3764102856299587074317969381809234619140625	0.0	1	1	1	1
5001	S6	2019	7	28	9	21.6919117055387005166267044842243194580078125	0.1445223110554829937246523741123382933437824249267578125	21.527828420329200298510841093957424163818359375	17.931196506206799057281386922113597393035888671875	88.7294870034241967005073092877864837646484375	2.37948717469843007421559377689845860004425048828125	17.08333333954200128346201381646096706390380859375	0.0	548.0250008404240134041174314916133880615234375	0.0	1	1	1	1
5002	S6	2019	7	28	10	164.128864134682004305432201363146305084228515625	1.8787751314644101086059890803880989551544189453125	161.953469869824999705087975598871707916259765625	16.778333377838098527945476234890520572662353515625	92.8461113399929018896727939136326313018798828125	1.5661111068394399925551851993077434599399566650390625	166.166666429488003586811828427016735076904296875	0.0	4749.6506894628400914371013641357421875	0.0	1	1	1	1
5003	S6	2019	7	28	11	384.7787752093689732646453194320201873779296875	92.960164673112700484125525690615177154541015625	310.40007888331501817447133362293243408203125	18.802424240112298292615378159098327159881591796875	89.7130302198005011860004742629826068878173828125	1.6587878751935301036013470366015098989009857177734375	385.24999966223998626446700654923915863037109375	0.0	10589.16824062660089111886918544769287109375	0.0	1	1	1	1
5004	S6	2019	7	28	12	475.8098237471140237175859510898590087890625	179.564120254159007572525297291576862335205078125	333.0001739964340004007681272923946380615234375	20.322424073652701537184839253313839435577392578125	87.6190910339355042424358543939888477325439453125	1.8430303010073501024379538648645393550395965576171875	550.750001023214963424834422767162322998046875	0.0	14015.270411968200278352014720439910888671875	0.0	1	1	1	1
5005	S6	2019	7	28	13	483.06702300525097371064475737512111663818359375	161.734832062730987445320351980626583099365234375	350.7101467945529975622775964438915252685546875	22.64819686139210119790732278488576412200927734375	76.81672115638599507292383350431919097900390625	3.87836065253272987973787166993133723735809326171875	569.8333407441759845823980867862701416015625	0.0	14050.03194014230030006729066371917724609375	0.0	1	1	1	1
5006	S6	2019	7	28	14	351.95564766164198999831569381058216094970703125	72.935911879560507031783345155417919158935546875	294.2033917947779855239787138998508453369140625	23.238956960432300746788314427249133586883544921875	73.3809817027459985183668322861194610595703125	3.59693251367361011006096305209212005138397216796875	403.41666340827902104138047434389591217041015625	0.0	10231.1790386836000834591686725616455078125	0.0	1	1	1	1
5007	S6	2019	7	28	15	427.263770225720008966163732111454010009765625	196.204917965790997413932927884161472320556640625	282.8840723282249882686301134526729583740234375	24.45480748934620152112984214909374713897705078125	67.670833514286897525380481965839862823486328125	3.190384613397789781430446964805014431476593017578125	512.5833402077360005932860076427459716796875	0.0	12754.287302493999959551729261875152587890625	0.0	1	1	1	1
5008	S6	2019	7	28	16	486.77668550151298632044927217066287994384765625	447.138926377660027355886995792388916015625	204.099661420838998537874431349337100982666015625	25.290332258287801181495524360798299312591552734375	64.9957702613668999447327223606407642364501953125	3.481268879149970185693518942571245133876800537109375	540.833340336879018650506623089313507080078125	0.0	13253.3703545729003963060677051544189453125	0.0	1	1	1	1
5009	S6	2019	7	28	17	363.44703742639302390671218745410442352294921875	354.63685896506700601094053126871585845947265625	183.79576616429500290905707515776157379150390625	25.330746431493000869750176207162439823150634765625	65.7319399022344015293128904886543750762939453125	3.350447755251349857275044996640644967555999755859375	404.00000040729997863309108652174472808837890625	0.0	10168.345749378100663307122886180877685546875	0.0	1	1	1	1
5010	S6	2019	7	28	18	297.717411940124975444632582366466522216796875	435.15534453453602736772154457867145538330078125	135.841753444451995846975478343665599822998046875	25.172126342510299679133822792209684848785400390625	66.299425081274904414385673590004444122314453125	3.295114945920030180559479049406945705413818359375	294.83333354195002584674512036144733428955078125	0.0	7126.689155896499869413673877716064453125	0.0	1	1	1	1
5011	S6	2019	7	28	19	156.95797277300499672492151148617267608642578125	319.886467945709000559872947633266448974609375	82.0256310152202985364056075923144817352294921875	24.695786460061999179060876485891640186309814453125	67.588202594371296072495169937610626220703125	2.51460673584695992843762724078260362148284912109375	127.2500002135829930693944334052503108978271484375	0.0	2901.220709085449925623834133148193359375	0.0	1	1	1	1
5012	S6	2019	7	28	20	45.8542254521295973290762049145996570587158203125	79.8841413967050044675488607026636600494384765625	36.032902844302299172341008670628070831298828125	23.50489519025889961767461500130593776702880859375	71.9010490204070009667702834121882915496826171875	1.886363625734829962965477534453384578227996826171875	27.083333736906400446287079830653965473175048828125	0.0	877.6934283475089841886074282228946685791015625	0.0	1	1	1	1
5013	S6	2019	7	28	21	13.081187321589499816809620824642479419708251953125	0.254226916254712997922382555771037004888057708740234375	13.6510561246138006907813178258948028087615966796875	22.55576944351189894177878159098327159881591796875	75.52884586040789827166008763015270233154296875	1.18846154384887991994901312864385545253753662109375	1.3333333481568800937822061314363963901996612548828125	0.0	84.090899210422804799236473627388477325439453125	0.0	1	1	1	0
5014	S6	2019	7	28	22	0	0	0	0	0	0	0	0.0	0	0.0	1	1	1	0
5015	S6	2019	7	28	23	0	0	0	0	0	0	0	0.0	0	0.0	1	1	1	0
5016	S6	2019	7	28	24	0	0	0	0	0	0	0	0.0	0	0.0	1	1	1	0
5017	S6	2019	7	29	1	0	0	0	0	0	0	0	0.0	0	0.0	1	1	1	0
5018	S6	2019	7	29	2	0	0	0	0	0	0	0	0.0	0	0.0	1	1	1	0
5019	S6	2019	7	29	3	0	0	0	0	0	0	0	0.0	0	0.0	1	1	1	0
5020	S6	2019	7	29	4	0	0	0	0	0	0	0.166666674582916007896216115113929845392704010009765625	0.0	1.1228166986256800097265795557177625596523284912109375	0.0	1	1	1	0
5021	S6	2019	7	29	5	22.2077440633459985974695882759988307952880859375	17.935668670235600075102411210536956787109375	22.303246068282799541293570655398070812225341796875	17.580751481750201747900064219720661640167236328125	91.5582158263299987766004051081836223602294921875	0.34882629575304002766955591141595505177974700927734375	10.8333333434226002367495311773382127285003662109375	0.0	359.72460149787201544313575141131877899169921875	0.0	1	1	1	1
5022	S6	2019	7	29	6	89.1973493682013014449694310314953327178955078125	114.0823514408530030550537048839032649993896484375	72.315234099494006159147829748690128326416015625	18.23999980290729894250034703873097896575927734375	88.99555515713160502855316735804080963134765625	0.6272222268912519549388662198907695710659027099609375	53.41666657477600210768287070095539093017578125	0.0	1665.715585152310040939482860267162322998046875	0.0	1	1	1	1
5023	S6	2019	7	29	7	202.594742414686010079094558022916316986083984375	295.25022968716001514621893875300884246826171875	116.99973634084000195798580534756183624267578125	20.510000038146898759805480949580669403076171875	82.93999985588919798829010687768459320068359375	0.59500000402331298943181536742486059665679931640625	126.7500016838300069821343640796840190887451171875	0.0	3815.2221242586701919208280742168426513671875	0.0	1	1	1	1
5024	S6	2019	7	29	8	340.984654405380979369510896503925323486328125	459.20460900200697551554185338318347930908203125	144.2461261325410077915876172482967376708984375	23.312222120496901567321401671506464481353759765625	74.1355559455023040982268867082893848419189453125	0.58333333565129097397772284239181317389011383056640625	284.41666935880999744767905212938785552978515625	0.0	8036.4162027836000561364926397800445556640625	0.0	1	1	1	1
5025	S6	2019	7	29	9	497.87529407077300902528804726898670196533203125	633.9809156629770541258039884269237518310546875	146.162093183729012935145874507725238800048828125	24.9788888401455011489815660752356052398681640625	69.317777336968305235131992958486080169677734375	0.491111114372809021144661301150335930287837982177734375	483.16667228937200206928537227213382720947265625	0.0	13217.489143212600538390688598155975341796875	0.0	1	1	1	1
5026	S6	2019	7	29	10	583.032737477620003119227476418018341064453125	585.81878051757803405052982270717620849609375	192.624525451659991404085303656756877899169921875	26.469999991522801252585850306786596775054931640625	65.1066665437486022938173846341669559478759765625	0.5747222242256000424021067374269478023052215576171875	626.74999237060501400264911353588104248046875	0.0	16414.55531120299929170869290828704833984375	0.0	1	1	1	1
5027	S6	2019	7	29	11	627.8402481079100425631622783839702606201171875	503.26998341878197607002221047878265380859375	250.175166787041007410152815282344818115234375	27.7772222201028995414162636734545230865478515625	62.16944423251680262865193071775138378143310546875	0.61861111488607101183134773236815817654132843017578125	705.666656295459006287273950874805450439453125	0.0	17994.39263343809943762607872486114501953125	0.0	1	1	1	1
5028	S6	2019	7	29	12	707.95951995849600280052982270717620849609375	548.050414615207046153955161571502685546875	269.32831709120000596158206462860107421875	28.8016667895846012470428831875324249267578125	59.235000080532500987828825600445270538330078125	0.9661111111442239884894433998852036893367767333984375	821.750005086262945042108185589313507080078125	0.0	20230.24733861280037672258913516998291015625	0.0	1	1	1	1
5029	S6	2019	7	29	13	693.58855243258994960342533886432647705078125	434.06868201361697856555110774934291839599609375	339.791278076171010980033315718173980712890625	29.79444462458290132644833647646009922027587890625	54.870555475022996461120783351361751556396484375	1.0252777792513299015553229764918796718120574951171875	779.33332820733403423218987882137298583984375	0.0	18913.70312372839907766319811344146728515625	0.0	1	1	1	1
5030	S6	2019	7	29	14	642.013769069639010922401212155818939208984375	373.15303095115001497106277383863925933837890625	347.20841984254599310588673688471317291259765625	30.551260518092700380066162324510514736175537109375	49.2588234054608022915999754332005977630615234375	0.9826330566773560093452033470384776592254638671875	737.1666630109140214699436910450458526611328125	0.0	18099.44782654440132318995893001556396484375	0.0	1	1	1	1
5031	S6	2019	7	29	15	510.77814390394399879369302652776241302490234375	213.299406263562985941462102346122264862060546875	354.0569673326280053515802137553691864013671875	29.680555491977198556696748710237443447113037109375	56.44111105600990185848786495625972747802734375	1.1666666662527400699644886117312125861644744873046875	543.2500044504810148282558657228946685791015625	0.0	13662.391940752599111874587833881378173828125	0.0	1	1	1	1
5032	S6	2019	7	29	16	494.99052954779699575738050043582916259765625	348.457490539550008179503493010997772216796875	281.6852018144389830922591499984264373779296875	29.584444533454000492156410473398864269256591796875	57.4122221628824007666480611078441143035888671875	1.0852777757578400130711315796361304819583892822265625	540.666672090688052776386030018329620361328125	0.0	13428.609391053500075940974056720733642578125	0.0	1	1	1	1
5033	S6	2019	7	29	17	476.51366314358102727055666036903858184814453125	567.576014200845975210540927946567535400390625	190.32077174716499712303630076348781585693359375	30.34944447411429990779652143828570842742919921875	53.33833346896700078332287375815212726593017578125	0.83194444427887603854543385750730521976947784423828125	514.16666557391499736695550382137298583984375	0.0	12450.709223747200667276047170162200927734375	0.0	1	1	1	1
5034	S6	2019	7	29	18	303.7120107014969789815950207412242889404296875	463.8309975465130037264316342771053314208984375	130.096451144747987882510642521083354949951171875	29.90277784135599858927889727056026458740234375	50.522222306993199936187011189758777618408203125	0.95833333217435401341077749748365022242069244384765625	294.916667044162977617816068232059478759765625	0.0	7119.9985146522403738345019519329071044921875	0.0	1	1	1	1
5035	S6	2019	7	29	19	158.05704592598800672931247390806674957275390625	304.8474623786070196729269810020923614501953125	85.392316479153095087895053438842296600341796875	28.208333365122399527535890229046344757080078125	53.7788887235852968160543241538107395172119140625	1.179444443682819976260134353651665151119232177734375	127.24999990314199749263934791088104248046875	0.0	2999.14496640362995094619691371917724609375	0.0	1	1	1	1
5036	S6	2019	7	29	20	32.93917682700679705476431990973651409149169921875	7.9910387659031396623277032631449401378631591796875	32.2180868705112999350603786297142505645751953125	25.78166664971239896431143279187381267547607421875	56.1211112340291009559223311953246593475341796875	1.338888887150420092808644767501391470432281494140625	23.49999997143940078103696578182280063629150390625	0.0	696.25922602911805370240472257137298583984375	0.0	1	1	1	1
5037	S6	2019	7	29	21	8.9843235318622891583117961999960243701934814453125	0.1882281523966599923181064468735712580382823944091796875	9.270366282690130077526191598735749721527099609375	24.66825436788889902572918799705803394317626953125	57.97301640586240267793982638977468013763427734375	1.2761904672970800778131206243415363132953643798828125	0.833333343810715998500882051303051412105560302734375	0.0	47.70035023102560245433778618462383747100830078125	0.0	1	1	1	0
5038	S6	2019	7	29	22	0	0	0	0	0	0	0	0.0	0	0.0	1	1	1	0
5039	S6	2019	7	29	23	0	0	0	0	0	0	0	0.0	0	0.0	1	1	1	0
5040	S6	2019	7	29	24	0	0	0	0	0	0	0	0.0	0	0.0	1	1	1	0
5041	S6	2019	7	30	1	0	0	0	0	0	0	0	0.0	0	0.0	1	1	1	0
5042	S6	2019	7	30	2	0	0	0	0	0	0	0	0.0	0	0.0	1	1	1	0
5043	S6	2019	7	30	3	0	0	0	0	0	0	0	0.0	0	0.0	1	1	1	0
5044	S6	2019	7	30	4	0	0	0	0	0	0	0	0.0	0	0.0	1	1	1	0
5045	S6	2019	7	30	5	22.6020797462553986179045750759541988372802734375	27.473840989992300620770038221962749958038330078125	22.05974030950989828170349937863647937774658203125	18.565071817790400388048510649241507053375244140625	93.8985643888774035303868004120886325836181640625	0.8875598097531980368302129136282019317150115966796875	11.0000000762131993070624957908876240253448486328125	0.0	332.6086365850650281572598032653331756591796875	0.0	1	1	1	1
5046	S6	2019	7	30	6	91.9167574815347023786671343259513378143310546875	233.13345276738499478597077541053295135498046875	54.40085381521299723317497409880161285400390625	19.999154910235301230159166152589023113250732421875	87.3833807287081043568832683376967906951904296875	1.0946478902454099824126387829892337322235107421875	42.74999971191090253341826610267162322998046875	0.0	1444.215053071570082465768791735172271728515625	0.0	1	1	1	1
5047	S6	2019	7	30	7	194.337303538654992962619871832430362701416015625	258.99958892656098896623007021844387054443359375	125.7222031659849932339056977070868015289306640625	21.40261625689119995286091580055654048919677734375	85.0598833172820008030612370930612087249755859375	1.832267437823289935039383635739795863628387451171875	121.0000024487560068564562243409454822540283203125	0.0	3608.18027953304999755346216261386871337890625	0.0	1	1	1	1
5048	S6	2019	7	30	8	275.64079770370199184981174767017364501953125	92.6511896551914020392359816469252109527587890625	235.49506010673400169253000058233737945556640625	21.173802894269901031520930700935423374176025390625	86.3287323857696975437647779472172260284423828125	1.714084504355839921885262810974381864070892333984375	254.50000166892999686751863919198513031005859375	0.0	7015.440315008119796402752399444580078125	0.0	1	1	1	1
5049	S6	2019	7	30	9	259.94747725592702636276953853666782379150390625	3.1775896515697201749617306631989777088165283203125	257.49711278279602311158669181168079376220703125	21.41111112170739971816146862693130970001220703125	84.94611112806529718000092543661594390869140625	1.7127777735392200053610167742590419948101043701171875	237.833332270381987427754211239516735076904296875	0.0	6565.7523274421700989478267729282379150390625	0.0	1	1	1	1
5050	S6	2019	7	30	10	435.98660580902497940769535489380359649658203125	87.7511229786926065798979834653437137603759765625	374.490030002323010194231756031513214111328125	22.026345677146100143772855517454445362091064453125	82.126628346213493614413891918957233428955078125	2.12804532017316017089569868403486907482147216796875	401.91666533549602036146097816526889801025390625	0.0	10766.234517097400384955108165740966796875	0.0	1	1	1	1
5051	S6	2019	7	30	11	551.763342528601015146705321967601776123046875	271.04536456056399629233055748045444488525390625	344.5415108618229851344949565827846527099609375	22.76039869629079959167938795872032642364501953125	78.5746441050471986500269849784672260284423828125	2.357264956347960183080658680410124361515045166015625	635.5833361546200421798857860267162322998046875	0.0	16268.795132637000278919003903865814208984375	0.0	1	1	1	1
5052	S6	2019	7	30	12	610.7917192447820298184524290263652801513671875	223.4267666325760046674986369907855987548828125	431.05775885045801487649441696703433990478515625	23.660059200941400803230862948112189769744873046875	74.921597723424696368965669535100460052490234375	2.578994083686689808843084392719902098178863525390625	660.0833311676969969994388520717620849609375	0.0	16749.51710303619984188117086887359619140625	0.0	1	1	1	1
5053	S6	2019	7	30	13	531.2972579956050367400166578590869903564453125	116.616135909158998629209236241877079010009765625	429.11726082695798822896904312074184417724609375	23.652222188313800188552704639732837677001953125	73.2666662004258029128322959877550601959228515625	2.848888891604210105157335419789887964725494384765625	605.0833314657210166842560283839702606201171875	0.0	15683.19743871689934167079627513885498046875	0.0	1	1	1	1
5054	S6	2019	7	30	14	215.314207780928001056963694281876087188720703125	7.79524595768279038310311079840175807476043701171875	206.96565673464800738656776957213878631591796875	22.544047650836699148158004391007125377655029296875	72.9318451200211939067230559885501861572265625	2.93065475601525005089342812425456941127777099609375	207.166665544111992858233861625194549560546875	0.0	5738.18017542364032124169170856475830078125	0.0	1	1	1	1
5055	S6	2019	7	30	15	330.86413514879001240842626430094242095947265625	14.1305577618380002746789614320732653141021728515625	317.30670233832398707818356342613697052001953125	22.24666652679439948769868351519107818603515625	69.0672215355767065148029359988868236541748046875	3.784166667527620209199312739656306803226470947265625	330.49999798337597667341469787061214447021484375	0.0	8905.30333916347080958075821399688720703125	0.0	1	1	1	1
5056	S6	2019	7	30	16	400.23379783630298334173858165740966796875	198.252160431610008117786492221057415008544921875	282.086839633517001857399009168148040771484375	22.53944444656369938684292719699442386627197265625	66.6900003221299044753322959877550601959228515625	3.1469444442954301877080069971270859241485595703125	425.33333972096301067722379229962825775146484375	0.0	11007.259776194799997028894722461700439453125	0.0	1	1	1	1
5057	S6	2019	7	30	17	357.89734518262997653437196277081966400146484375	211.04644816501200921265990473330020904541015625	246.178489557901997386579751037061214447021484375	22.288333246442999069358847918920218944549560546875	69.085000059339705558159039355814456939697265625	3.06083333724073991533032312872819602489471435546875	364.0833298365259906859137117862701416015625	0.0	9296.864966551480392809025943279266357421875	0.0	1	1	1	1
5058	S6	2019	7	30	18	107.0505983776509992821956984698772430419921875	0.44575123451650100481202798619051463901996612548828125	106.782814386154996100231073796749114990234375	21.7033333036633990786867798306047916412353515625	65.1433332443236992048696265555918216705322265625	2.50138889137241005045098063419573009014129638671875	96.416666172443996174479252658784389495849609375	0.0	2660.34444918235021759755909442901611328125	0.0	1	1	1	1
5059	S6	2019	7	30	19	67.12853624555799569861846975982189178466796875	0.379310716367844025231903515305020846426486968994140625	67.2924474822149960573369753547012805938720703125	21.17666649288599955980316735804080963134765625	68.2383330451117018355944310314953327178955078125	2.35638887774612992842548919725231826305389404296875	56.749999988824100682904827408492565155029296875	0.0	1572.36736391981003180262632668018341064453125	0.0	1	1	1	1
5060	S6	2019	7	30	20	12.4022379254494996558833008748479187488555908203125	0.277155255513816978218955000556888990104198455810546875	12.440865278244000791119105997495353221893310546875	20.290502803951600441223490634001791477203369140625	79.7251398523425933717589941807091236114501953125	2.451396644281940151444132425240240991115570068359375	9.5833332840507292615939149982295930385589599609375	0.0	277.8957732953130062014679424464702606201171875	0.0	1	1	1	1
5061	S6	2019	7	30	21	1.8688896397749499289631103238207288086414337158203125	0.238758610251048997152878428096300922334194183349609375	1.9410522431135099896692963739042170345783233642578125	20.010416825612299618342149187810719013214111328125	80.187499682108494880594662390649318695068359375	2.9104166651765499551629545749165117740631103515625	0	0.0	0.44772498464832499731613779658800922334194183349609375	0.0	1	1	1	0
5062	S6	2019	7	30	22	0	0	0	0	0	0	0	0.0	0	0.0	1	1	1	0
5063	S6	2019	7	30	23	0	0	0	0	0	0	0	0.0	0	0.0	1	1	1	0
5064	S6	2019	7	30	24	0	0	0	0	0	0	0	0.0	0	0.0	1	1	1	0
5065	S6	2019	7	31	1	0	0	0	0	0	0	0	0.0	0	0.0	1	1	1	0
5066	S6	2019	7	31	2	0	0	0	0	0	0	0	0.0	0	0.0	1	1	1	0
5067	S6	2019	7	31	3	0	0	0	0	0	0	0	0.0	0	0.0	1	1	1	0
5068	S6	2019	7	31	4	0	0	0	0	0	0	0	0.0	0	0.0	1	1	1	0
5069	S6	2019	7	31	5	2.352042961400000020688594304374419152736663818359375	0.306950150232295992935860340367071330547332763671875	2.28710734425111983370015877881087362766265869140625	16.433593496680199308457304141484200954437255859375	93.499220162629995911629521287977695465087890625	2.14296874729916009272301380406133830547332763671875	1.0000000183936099684700593570596538484096527099609375	0.0	22.8700664204854007266476401127874851226806640625	0.0	1	1	1	1
5070	S6	2019	7	31	6	8.4389445185661298154400355997495353221893310546875	0.29745057779881600712457156987511552870273590087890625	8.3487493157386705178168995189480483531951904296875	16.319166384802901603734426316805183887481689453125	94.52972265879310498348786495625972747802734375	2.000277774946550124468558351509273052215576171875	7.00000002204127991234372530016116797924041748046875	0.0	200.728700806696991776334471069276332855224609375	0.0	1	1	1	1
5071	S6	2019	7	31	7	29.84609888124590071356578846462070941925048828125	0.34463637731035401401413764688186347484588623046875	29.7995760447467006315491744317114353179931640625	16.17493062032630035673719248734414577484130859375	95.2069639030604975005189771763980388641357421875	1.967966566344820034117901741410605609416961669921875	27.083333736906499922270086244679987430572509765625	0.0	760.616440946854027060908265411853790283203125	0.0	1	1	1	1
5072	S6	2019	7	31	8	44.27428694830999944542782031930983066558837890625	0.384268074731032027724353383746347390115261077880859375	44.23492872450079715918036527000367641448974609375	16.3169440269469987470074556767940521240234375	94.2086111280653000221718684770166873931884765625	2.435833333432670055884727844386361539363861083984375	40.16666704167919732526570442132651805877685546875	0.0	1130.956759055449992956710048019886016845703125	0.0	1	1	1	1
5073	S6	2019	7	31	9	53.09571189880369956881622783839702606201171875	0.4099792022671959745849790124339051544666290283203125	52.9841081778208007335706497542560100555419921875	16.293333021799700333076543756760656833648681640625	92.50527803632940049283206462860107421875	2.715555547260569912992878016666509211063385009765625	47.58333352704850227610222646035254001617431640625	0.0	1349.041105558470007963478565216064453125	0.0	1	1	1	1
5074	S6	2019	7	31	10	65.8312140716902973736068815924227237701416015625	0.47228228497779201067174881245591677725315093994140625	65.813224759595101431841612793505191802978515625	16.099712892510400052969998796470463275909423828125	91.834769961477604738320223987102508544921875	2.508620684688109836457670098752714693546295166015625	58.416667083899000090241315774619579315185546875	0.0	1663.000303010139987236470915377140045166015625	0.0	1	1	1	1
5075	S6	2019	7	31	11	118.1951378147769986526327556930482387542724609375	0.5347321339905619641541534292628057301044464111328125	116.0824289554499983978530508466064929962158203125	16.144207692727800207421751110814511775970458984375	91.7201218721342996786916046403348445892333984375	3.19024388501193012501744306064210832118988037109375	111.83333272735200125680421479046344757080078125	0.0	3308.3647141853898574481718242168426513671875	0.0	1	1	1	1
5076	S6	2019	7	31	12	344.32208357916897512041032314300537109375	2.718374620046879908130676994915120303630828857421875	340.1518811543779747808002866804599761962890625	16.89861099455089998855328303761780261993408203125	89.00583360460069570763153024017810821533203125	3.37194443858331993624233291484415531158447265625	323.58333095908000132112647406756877899169921875	0.0	9197.993616263049261760897934436798095703125	0.0	1	1	1	1
5077	S6	2019	7	31	13	225.058465406629011340555734932422637939453125	0.90362603829966603452561457743286155164241790771484375	222.85732710096499431529082357883453369140625	17.333889049953800309822327108122408390045166015625	80.9502782609726949658579542301595211029052734375	3.7724999902976801280374274938367307186126708984375	204.250001658996012565694400109350681304931640625	0.0	5906.1218102772700149216689169406890869140625	0.0	1	1	1	1
5078	S6	2019	7	31	14	429.514929877386975931585766375064849853515625	40.35299261659380221090032136999070644378662109375	393.9102942996549927556770853698253631591796875	18.528055683771700756778955110348761081695556640625	74.385833104451393182898755185306072235107421875	3.078888882779410085532845187117345631122589111328125	464.33333555857399232991156168282032012939453125	0.0	12431.35305245709969312883913516998291015625	0.0	1	1	1	1
5079	S6	2019	7	31	15	240.7077464133579951521824114024639129638671875	3.280101513092069875909828624571673572063446044921875	235.10147477282998806913383305072784423828125	19.01766358073960105912192375399172306060791015625	67.893162306217703871880075894296169281005859375	2.75612535028376015588946756906807422637939453125	230.083331465720988262546597979962825775146484375	0.0	6452.344755331680062226951122283935546875	0.0	1	1	1	1
5080	S6	2019	7	31	16	411.10001457569200056241243146359920501708984375	87.89829995153939989904756657779216766357421875	351.433691778848015019320882856845855712890625	19.707848803941498516678620944730937480926513671875	65.9031974881194031468112370930612087249755859375	2.79040697216986988138387459912337362766265869140625	410.24999941388699653543881140649318695068359375	0.0	10891.922334829900137265212833881378173828125	0.0	1	1	1	1
5081	S6	2019	7	31	17	336.34713033040299023923580534756183624267578125	116.0216355254249975814673234708607196807861328125	278.27434556749102512185345403850078582763671875	19.861666515138399091711107757873833179473876953125	63.86749998728429744687673519365489482879638671875	3.115555552393189930882044791360385715961456298828125	345.16666829586000631024944595992565155029296875	0.0	9160.5975925922393798828125	0.0	1	1	1	1
5082	S6	2019	7	31	18	130.84450651804598919625277630984783172607421875	0.5669353248344519702328625498921610414981842041015625	131.13590416378400504981982521712779998779296875	19.014444430669101393505115993320941925048828125	70.7222223917643049162506940774619579315185546875	2.51388888375625985105443760403431951999664306640625	113.416666785876003586963634006679058074951171875	0.0	3212.74732301633002862217836081981658935546875	0.0	1	1	1	1
5083	S6	2019	7	31	19	40.541102568308502895888523198664188385009765625	0.3638707916355790050744190011755563318729400634765625	40.53615913391109870644868351519107818603515625	18.546388838026199863406873191706836223602294921875	73.0891668107773995188836124725639820098876953125	2.1116666647295101455483745667152106761932373046875	34.0833333320914988462391193024814128875732421875	0.0	967.319584141170025759493000805377960205078125	0.0	1	1	1	1
5084	S6	2019	7	31	20	13.749847563770000391514258808456361293792724609375	0.318233946089942987267562557462952099740505218505859375	13.83767492704919988000256125815212726593017578125	18.008888848622600420412709354422986507415771484375	76.6649996227688035332903382368385791778564453125	2.24444444121585018336872963118366897106170654296875	10.3333334166867008008239281480200588703155517578125	0.0	313.35860987504298691419535316526889801025390625	0.0	1	1	1	1
5085	S6	2019	7	31	21	1.9441738112976600927339632107759825885295867919921875	0.315998432144784013875238315449678339064121246337890625	1.984982574195190085930562418070621788501739501953125	17.515789533916201747842933400534093379974365234375	78.9491215756064974584660376422107219696044921875	1.8122806967350399975913433081586845219135284423828125	0.08333333729145829538165202166055678389966487884521484375	0.0	3.793000010773579955269951824448071420192718505859375	0.0	1	1	1	0
5086	S6	2019	7	31	22	0	0	0	0	0	0	0	0.0	0	0.0	1	1	1	0
5087	S6	2019	7	31	23	0	0	0	0	0	0	0	0.0	0	0.0	1	1	1	0
5088	S6	2019	7	31	24	0	0	0	0	0	0	0	0.0	0	0.0	1	1	1	0
5089	S6	2019	8	1	1	0	0	0	0	0	0	0	0.0	0	0.0	1	1	1	0
5090	S6	2019	8	1	2	0	0	0	0	0	0	0	0.0	0	0.0	1	1	1	0
5091	S6	2019	8	1	3	0	0	0	0	0	0	0	0.0	0	0.0	1	1	1	0
5092	S6	2019	8	1	4	0	0	0	0	0	0	0	0.0	0	0.0	1	1	1	0
5093	S6	2019	8	1	5	2.010545381527629960061176461749710142612457275390625	0.23962237474031999884260812905267812311649322509765625	1.85253639805574010779309901408851146697998046875	14.550934443963999598281588987447321414947509765625	92.459346165166806486013229005038738250732421875	1.3887850473695799724538346708868630230426788330078125	0.3333333491658250213873770917416550219058990478515625	0.0	10.4417248318590996092325440258719027042388916015625	0.0	1	1	1	1
5094	S6	2019	8	1	6	6.08106851577757989701922269887290894985198974609375	0.364958685967657014970200179959647357463836669921875	5.95280916790166969576603150926530361175537109375	14.159722259309500458357433672063052654266357421875	92.7058330959743983612497686408460140228271484375	0.77694444838497300764856845489703118801116943359375	5.16666673744717019900463128578849136829376220703125	0.0	155.070024387290004597161896526813507080078125	0.0	1	1	1	1
5095	S6	2019	8	1	7	21.517639236979999139975916477851569652557373046875	0.322147761719921987833004095591604709625244140625	21.37637395858759958855443983338773250579833984375	14.2558333370420005081768977106548845767974853515625	94.073055860731301436317153275012969970703125	1.91277777776122004382841623737476766109466552734375	19.08333351214719897370741819031536579132080078125	0.0	554.9457557499399626976810395717620849609375	0.0	1	1	1	1
5096	S6	2019	8	1	8	39.02189707226219894664609455503523349761962890625	0.419864410368932017281196067415294237434864044189453125	38.89754783312479702317432384006679058074951171875	14.4288889408111007384150070720352232456207275390625	94.213888655768499802434234879910945892333984375	1.5999999955296499987156266797683201730251312255859375	35.83333361893890156579800532199442386627197265625	0.0	1022.78673648834001141949556767940521240234375	0.0	1	1	1	1
5097	S6	2019	8	1	9	71.7925021701388033079638262279331684112548828125	0.437825180610848019302494549265247769653797149658203125	71.5975668695237033034572959877550601959228515625	14.5199999809264994610202847979962825775146484375	90.73027752770309461993747390806674957275390625	1.96166666919986010242382690194062888622283935546875	65.3333334873123021679930388927459716796875	0.0	1891.42883817354004349908791482448577880859375	0.0	1	1	1	1
5098	S6	2019	8	1	10	60.8681057082281995462835766375064849853515625	0.46924608258737399157922709491685964167118072509765625	60.57059482998310073753600590862333774566650390625	14.2449999650318996913256341940723359584808349609375	92.02666619618730692309327423572540283203125	1.6227777731087400514553564789821393787860870361328125	55.66666678835930071045368094928562641143798828125	0.0	1629.132150361929916471126489341259002685546875	0.0	1	1	1	1
5099	S6	2019	8	1	11	98.79224751790360414815950207412242889404296875	0.6206249637736209745497717449325136840343475341796875	98.447304280598899595133843831717967987060546875	14.76138884226480030292805167846381664276123046875	93.34111073811840242342441342771053314208984375	1.202777776949929933181238084216602146625518798828125	91.2500005215400022962057846598327159881591796875	0.0	2675.30071735380988684482872486114501953125	0.0	1	1	1	1
5100	S6	2019	8	1	12	146.636859491135993494026479311287403106689453125	0.748859260396824044647701157373376190662384033203125	144.9522843254929966860800050199031829833984375	15.3200000365575004224183430778793990612030029296875	89.671110873752098768818541429936885833740234375	1.3833333310153699269307026042952202260494232177734375	135.500000168880006867766496725380420684814453125	0.0	3954.39235866070021074847318232059478759765625	0.0	1	1	1	1
5101	S6	2019	8	1	13	144.838800180589004185094381682574748992919921875	0.73122547662357695319457207006053067743778228759765625	143.835083199078013649341301061213016510009765625	15.8239553844696008155779054504819214344024658203125	86.3428967616683991082027205266058444976806640625	1.4448467946318199750521671376191079616546630859375	129.08333229521900875624851323664188385009765625	0.0	3794.6341882149399680201895534992218017578125	0.0	1	1	1	1
5102	S6	2019	8	1	14	261.61317201294599499306059442460536956787109375	1.015950439034849939190507939201779663562774658203125	260.134013578380972830927930772304534912109375	15.9898844592143998255551196052692830562591552734375	84.665317667701998516349704004824161529541015625	1.7497109788862899026895547649473883211612701416015625	234.083334604897999042805167846381664276123046875	0.0	6660.6219510237497161142528057098388671875	0.0	1	1	1	1
5103	S6	2019	8	1	15	281.6146189537420241322251968085765838623046875	21.0429132242932013241443200968205928802490234375	265.44838110709400780251598916947841644287109375	16.5543973096418000068297260440886020660400390625	84.0739408362571936095264391042292118072509765625	1.3859934818472801065780686258221976459026336669921875	291.49999717871497750820708461105823516845703125	0.0	7929.3818175792303009075112640857696533203125	0.0	1	1	1	1
5104	S6	2019	8	1	16	349.05632447884698876805487088859081268310546875	80.4072877421877052483978332020342350006103515625	296.19701071346497656122664920985698699951171875	16.949019338570298742752129328437149524688720703125	85.1169933742946938082241103984415531158447265625	1.64575163250654998847721799393184483051300048828125	405.16666447122997851693071424961090087890625	0.0	10444.81981794030070886947214603424072265625	0.0	1	1	1	1
5105	S6	2019	8	1	17	355.0311194097949964998406358063220977783203125	211.238210559267002963679260574281215667724609375	250.530626363181994520346052013337612152099609375	16.8794950671751990967095480300486087799072265625	83.896530079164705284711089916527271270751953125	2.139116715557559889049343837541528046131134033203125	358.66666461030700929768499918282032012939453125	0.0	9264.47030901909965905360877513885498046875	0.0	1	1	1	1
5106	S6	2019	8	1	18	217.847273877639992178956163115799427032470703125	200.726558341946002883560140617191791534423828125	149.2137236044439987381338141858577728271484375	17.119718100319399667341713211499154567718505859375	81.453239311970406788532272912561893463134765625	1.069295774547140087662455698591656982898712158203125	208.1666669497880093331332318484783172607421875	0.0	5198.217734694449973176233470439910888671875	0.0	1	1	1	1
5107	S6	2019	8	1	19	187.09895040724001091803074814379215240478515625	431.3682523515479942943784408271312713623046875	89.9702285130818069092129007913172245025634765625	17.7116665416292988766144844703376293182373046875	78.397221565246496766121708787977695465087890625	1.1044444439311800199021718071890063583850860595703125	154.000001028179013928820495493710041046142578125	0.0	3452.6638636986399433226324617862701416015625	0.0	1	1	1	1
5108	S6	2019	8	1	20	46.53754661000999703901470638811588287353515625	88.7211570313692021727547398768365383148193359375	36.10068260664220218814079998992383480072021484375	16.547988348993701634981334791518747806549072265625	83.3566087744701036399419535882771015167236328125	0.51120690093643295082159738740301690995693206787109375	26.5833331116784989944790140725672245025634765625	0.0	852.782744293406949509517289698123931884765625	0.0	1	1	1	1
5109	S6	2019	8	1	21	7.92670387764499029259468443342484533786773681640625	0.262473318266541022492077672723098658025264739990234375	8.2168766178496799312824805383570492267608642578125	15.847945134933599575788321089930832386016845703125	86.201370657306796374541590921580791473388671875	0.4972602794431659756213548462255857884883880615234375	0.66666669833164104996825471971533261239528656005859375	0.0	51.1968166877826007521434803493320941925048828125	0.0	1	1	1	0
5110	S6	2019	8	1	22	0	0	0	0	0	0	0	0.0	0	0.0	1	1	1	0
5111	S6	2019	8	1	23	0	0	0	0	0	0	0	0.0	0	0.0	1	1	1	0
5112	S6	2019	8	1	24	0	0	0	0	0	0	0	0.0	0	0.0	1	1	1	0
5113	S6	2019	8	2	1	0	0	0	0	0	0	0	0.0	0	0.0	1	1	1	0
5114	S6	2019	8	2	2	0	0	0	0	0	0	0	0.0	0	0.0	1	1	1	0
5115	S6	2019	8	2	3	0	0	0	0	0	0	0	0.0	0	0.0	1	1	1	0
5116	S6	2019	8	2	4	0	0	0	0	0	0	0	0.0	0	0.0	1	1	1	0
5117	S6	2019	8	2	5	11.5075532683106001030637344229035079479217529296875	0.490525041901787972609128019030322320759296417236328125	11.74386445034379988783257431350648403167724609375	14.137209426525000566243761568330228328704833984375	93.75116295038259295324678532779216766357421875	0.2011627948214839978202661541217821650207042694091796875	7.33333351672624988992765793227590620517730712890625	0.0	174.920182985563997135614044964313507080078125	0.0	1	1	1	1
5118	S6	2019	8	2	6	31.87583504782779897368527599610388278961181640625	0.55541153566704803967724046742659993469715118408203125	32.0026400989955988052315660752356052398681640625	14.9866667403115005896552247577346861362457275390625	93.2741671668158005559234879910945892333984375	0.60388889312744098436525064244051463901996612548828125	30.99999995902189908747459412552416324615478515625	0.0	806.2513619661300481311627663671970367431640625	0.0	1	1	1	1
5119	S6	2019	8	2	7	61.880909103817401728520053438842296600341796875	0.5580680489540099653567040149937383830547332763671875	61.71615458594420289273330126889050006866455078125	15.911666748258799231052762479521334171295166015625	90.6563888973659999237497686408460140228271484375	0.73388889349169195153166356249130330979824066162109375	58.500000275671396821053349412977695465087890625	0.0	1575.063007573279946882394142448902130126953125	0.0	1	1	1	1
5120	S6	2019	8	2	8	106.0746441735160061625720118172466754913330078125	0.7068420112133020349887146949185989797115325927734375	105.7584382586999964814822305925190448760986328125	16.53888882531060033898029359988868236541748046875	88.371666781107506949410890229046344757080078125	0.63111111645897199906585228745825588703155517578125	96.7499998708571951056001125834882259368896484375	0.0	2744.37119066715013104840181767940521240234375	0.0	1	1	1	1
5121	S6	2019	8	2	9	151.896553844875001004766090773046016693115234375	0.88596199651559104371045805237372405827045440673828125	151.304200914170991154605871997773647308349609375	17.993889040417098357238501193933188915252685546875	85.614167001512299748355871997773647308349609375	0.3530555588503669905975357323768548667430877685546875	140.41666686534898644822533242404460906982421875	0.0	3999.730164806040193070657551288604736328125	0.0	1	1	1	1
5122	S6	2019	8	2	10	209.4020924462209904959308914840221405029296875	1.02300987119475994546746733249165117740631103515625	207.556815380519992686458863317966461181640625	19.213889174991098940381561988033354282379150390625	81.0441663953993014501975267194211483001708984375	0.512777782479922006331207740004174411296844482421875	191.083334386346990640959120355546474456787109375	0.0	5400.6169339020898405578918755054473876953125	0.0	1	1	1	1
5123	S6	2019	8	2	11	287.2806711698830213208566419780254364013671875	1.2525274590834098997760293059400282800197601318359375	284.41310240092997219107928685843944549560546875	20.17105264412720089239883236587047576904296875	73.136842426500805913747171871364116668701171875	0.81973684059553997283131820950075052678585052490234375	256.41666973630498205238836817443370819091796875	0.0	7182.4881235758502953103743493556976318359375	0.0	1	1	1	1
5124	S6	2019	8	2	12	369.6772367689339944263338111340999603271484375	1.592909518049820061236232504597865045070648193359375	364.8885277642140181342256255447864532470703125	20.809444713592501585708305356092751026153564453125	66.381666925218297592437011189758777618408203125	1.0655555535521699095369285714696161448955535888671875	342.83333520094498680919059552252292633056640625	0.0	9398.751099904389775474555790424346923828125	0.0	1	1	1	1
5125	S6	2019	8	2	13	449.36639421250998793766484595835208892822265625	7.0637249718109700324930599890649318695068359375	437.51403291490299807264818809926509857177734375	21.728055694368098471613848232664167881011962890625	63.99166704813629991122070350684225559234619140625	0.964722223911020027031781864934600889682769775390625	431.2499985098839943020720966160297393798828125	0.0	11550.948599974299213499762117862701416015625	0.0	1	1	1	1
5126	S6	2019	8	2	14	341.82157438036398389158421196043491363525390625	1.618779292073039943744561242056079208850860595703125	338.47512980716300035055610351264476776123046875	21.38112650051920127225457690656185150146484375	69.317746401504706454943516291677951812744140625	1.075774650254710085306442124419845640659332275390625	324.83332852522499933911603875458240509033203125	0.0	8777.0327726999894366599619388580322265625	0.0	1	1	1	1
5127	S6	2019	8	2	15	661.5394190922160078116576187312602996826171875	573.0265630596339860858279280364513397216796875	265.45969716593998555254074744880199432373046875	23.336389661859900712670423672534525394439697265625	57.4269343050981007081645657308399677276611328125	0.8343839577070959467874899928574450314044952392578125	803.4999991456669476974639110267162322998046875	0.0	19640.2263243993002106435596942901611328125	0.0	1	1	1	1
5128	S6	2019	8	2	16	510.76690105862002155845402739942073822021484375	381.35554868909997594528249464929103851318359375	277.2043289184570085126324556767940521240234375	23.484166749318401201662709354422986507415771484375	58.67944451438049924263395951129496097564697265625	1.0688888884252900624005633289925754070281982421875	557.9166685541459855812718160450458526611328125	0.0	13550.273338953600614331662654876708984375	0.0	1	1	1	1
5129	S6	2019	8	2	17	371.66255675421797377566690556704998016357421875	390.2603000534900274942629039287567138671875	184.156604978773003722380963154137134552001953125	22.865277798970499389952237834222614765167236328125	58.231666522555798337634769268333911895751953125	1.0016666666500999571809416011092253029346466064453125	499.58333373069700655833003111183643341064453125	0.0	12144.86567179359917645342648029327392578125	0.0	1	1	1	1
5130	S6	2019	8	2	18	308.149536768594998648040927946567535400390625	576.8478715684669850816135294735431671142578125	103.223534795972994970725267194211483001708984375	23.301944446563698676300191436894237995147705078125	56.53583352830670349931097007356584072113037109375	0.6580555577245019716059459824464283883571624755859375	312.66667072971500829225988127291202545166015625	0.0	7393.0651446183501320774666965007781982421875	0.0	1	1	1	1
5131	S6	2019	8	2	19	160.694966252644007909111678600311279296875	423.0590229458269959650351665914058685302734375	67.2481250233119993708896799944341182708740234375	21.606111054950201122437647427432239055633544921875	61.525277752346397619476192630827426910400390625	1.37805555611847996289043294382281601428985595703125	126.166664995253000824959599412977695465087890625	0.0	2782.33707696199007841642014682292938232421875	0.0	1	1	1	1
5132	S6	2019	8	2	20	45.1757528223889011087521794252097606658935546875	119.405934195674007014531525783240795135498046875	31.6504368004222982335704728029668331146240234375	20.229787312500800311454440816305577754974365234375	65.1141848327419978659236221574246883392333984375	1.3382978713047399832447581502492539584636688232421875	19.249999973302099220973104820586740970611572265625	0.0	697.2975581884389839615323580801486968994140625	0.0	1	1	1	1
5133	S6	2019	8	2	21	10.8690125601632008311980825965292751789093017578125	0.389067458254949982698889243692974559962749481201171875	11.3146480832780991221397925983183085918426513671875	19.614286150251100337982279597781598567962646484375	68.942856924874405422087875194847583770751953125	1.2142857142857099717048185993917286396026611328125	0.416666676755991005620671785436570644378662109375	0.0	52.84072501429650259296977310441434383392333984375	0.0	1	1	1	0
5134	S6	2019	8	2	22	0	0	0	0	0	0	0	0.0	0	0.0	1	1	1	0
5135	S6	2019	8	2	23	0	0	0	0	0	0	0	0.0	0	0.0	1	1	1	0
5136	S6	2019	8	2	24	0	0	0	0	0	0	0	0.0	0	0.0	1	1	1	0
5137	S6	2019	8	3	1	0	0	0	0	0	0	0	0.0	0	0.0	1	1	1	0
5138	S6	2019	8	3	2	0	0	0	0	0	0	0	0.0	0	0.0	1	1	1	0
5139	S6	2019	8	3	3	0	0	0	0	0	0	0	0.0	0	0.0	1	1	1	0
5140	S6	2019	8	3	4	0	0	0	0	0	0	0	0.0	0	0.0	1	1	1	0
5141	S6	2019	8	3	5	16.6673448702672004628766444511711597442626953125	21.324393276776401506822367082349956035614013671875	16.1484847368893014163404586724936962127685546875	15.5384615384614992450451609329320490360260009765625	94.062936369355696797356358729302883148193359375	0.58111888566217195783991655844147317111492156982421875	4.91666673527412978472739268909208476543426513671875	0.0	174.0065089737360040089697577059268951416015625	0.0	1	1	1	1
5142	S6	2019	8	3	6	86.1479693465762039750188705511391162872314453125	305.30805892944300694580306299030780792236328125	40.80662188529959877314468030817806720733642578125	16.50861122078359954912230023182928562164306640625	92.5213886896768968881588079966604709625244140625	0.53527778204944398421361029249965213239192962646484375	31.249999689559000870531235705129802227020263671875	0.0	1115.38614953556998443673364818096160888671875	0.0	1	1	1	1
5143	S6	2019	8	3	7	218.521727667914007042782031930983066558837890625	527.517227003309017163701355457305908203125	72.5704998228284949846056406386196613311767578125	19.026111104753198333128239028155803680419921875	83.664722315470299918160890229046344757080078125	0.67666666905085204319902913994155824184417724609375	127.3333337157960016838842420838773250579833984375	0.0	3643.05801689625013750628568232059478759765625	0.0	1	1	1	1
5144	S6	2019	8	3	8	358.0637353584589845922891981899738311767578125	629.8834611386220103668165393173694610595703125	100.1520245654429999149215291254222393035888671875	20.7579096670203995245174155570566654205322265625	76.78163838790629824870848096907138824462890625	1.1977401146780899399146846917574293911457061767578125	306.1666650076709856875822879374027252197265625	0.0	8455.25014400483996723778545856475830078125	0.0	1	1	1	1
5145	S6	2019	8	3	9	502.3489547599809839084628038108348846435546875	714.111125459751974631217308342456817626953125	119.092051886971006524618132971227169036865234375	22.36572232665150039565560291521251201629638671875	69.7524081005928024978857138194143772125244140625	0.95580736435844204645917443485814146697521209716796875	470.33332784970497186805005185306072235107421875	0.0	12599.042365948300357558764517307281494140625	0.0	1	1	1	1
5146	S6	2019	8	3	10	628.282998996309970607399009168148040771484375	779.6176445855029442100203596055507659912109375	126.3637491438120008524492732249200344085693359375	22.97500000000000142108547152020037174224853515625	66.0858333905537023156284703873097896575927734375	1.2319444443616600626256740724784322082996368408203125	681.750004490216042540851049125194549560546875	0.0	17863.9752864836991648189723491668701171875	0.0	1	1	1	1
5147	S6	2019	8	3	11	724.1094333224820047689718194305896759033203125	815.327949354383008540025912225246429443359375	134.878774515787000609634560532867908477783203125	23.90250008900959954871723311953246593475341796875	57.931388791402099514016299508512020111083984375	1.20972222197385992359386364114470779895782470703125	829.3333252271009996547945775091648101806640625	0.0	20939.22054767599911428987979888916015625	0.0	1	1	1	1
5148	S6	2019	8	3	12	787.122710333929944681585766375064849853515625	839.3873879326710039094905368983745574951171875	140.189349492389993656615843065083026885986328125	24.50833355585729833592267823405563831329345703125	51.55166695912669894141799886710941791534423828125	1.4247222207486600620285344120929948985576629638671875	935.249994198479953411151655018329620361328125	0.0	22787.95158863059987197630107402801513671875	0.0	1	1	1	1
5149	S6	2019	8	3	13	793.676343790689998058951459825038909912109375	843.045527988010007902630604803562164306640625	135.183529281615989248166442848742008209228515625	24.77499996821079975006796303205192089080810546875	50.58000005086260131292874575592577457427978515625	1.45472221995393002913488089689053595066070556640625	963.5833303133639446969027630984783172607421875	0.0	22999.97723102569943876005709171295166015625	0.0	1	1	1	1
5150	S6	2019	8	3	14	758.025972832572961124242283403873443603515625	836.7937511867939974763430655002593994140625	127.1989095052079932202104828320443630218505859375	24.748333358764600831136704073287546634674072265625	52.33666655222570085470579215325415134429931640625	1.4847222199042600099261335344635881483554840087890625	930.1666667064040439072414301335811614990234375	0.0	21969.0904617308988235890865325927734375	0.0	1	1	1	1
5151	S6	2019	8	3	15	684.1099585639100268963375128805637359619140625	816.92868991427894798107445240020751953125	119.3028950797179987830531899817287921905517578125	24.488333479563298311632024706341326236724853515625	53.06833349863679671898353262804448604583740234375	1.5077777758240700212155616100062616169452667236328125	834.4999998807890051466529257595539093017578125	0.0	19870.2485164005993283353745937347412109375	0.0	1	1	1	1
5152	S6	2019	8	3	16	579.2472919040250189937069080770015716552734375	785.63153127034502176684327423572540283203125	108.7072239345969961732407682575285434722900390625	24.2200000127156016560547868721187114715576171875	56.11666660308829790437812334857881069183349609375	1.557777778390379896933382042334415018558502197265625	689.583336313565041564288549125194549560546875	0.0	16672.06337054559844546020030975341796875	0.0	1	1	1	1
5153	S6	2019	8	3	17	448.69428727891698827079380862414836883544921875	727.617483181423040150548331439495086669921875	97.0319277445475023569088079966604709625244140625	23.6866666793822986392115126363933086395263671875	55.9049999237060006862520822323858737945556640625	1.5563888897498399099816879243007861077785491943359375	506.08332951863502557898755185306072235107421875	0.0	12335.99118391669981065206229686737060546875	0.0	1	1	1	1
5154	S6	2019	8	3	18	304.9869692060680108625092543661594390869140625	639.755843607583983612130396068096160888671875	80.2151592466565972472380963154137134552001953125	23.449999999999999289457264239899814128875732421875	54.57833334604890040964164654724299907684326171875	1.4102777779102300126368163546430878341197967529296875	306.91666280229901531129144132137298583984375	0.0	7232.63971010844034026376903057098388671875	0.0	1	1	1	1
5155	S6	2019	8	3	19	164.1091676288179996845428831875324249267578125	495.187247212727015721611678600311279296875	57.07749366760250353536321199499070644378662109375	23.244999853769900965971828554756939411163330078125	53.7000001907347979113183100707828998565673828125	1.0038888874153200081451586811454035341739654541015625	125.9999995430309951416347757913172245025634765625	0.0	2708.18835993606990086846053600311279296875	0.0	1	1	1	1
5156	S6	2019	8	3	20	44.92395550174929752529351389966905117034912109375	145.967552901299995937733910977840423583984375	28.8167153184052011738458531908690929412841796875	21.705836492753601163485654979012906551361083984375	58.95642021565119961223899736069142818450927734375	0.75642023673317304588437082202290184795856475830078125	15.5833333847113006953577496460638940334320068359375	0.0	661.674677394328000445966608822345733642578125	0.0	1	1	1	1
5157	S6	2019	8	3	21	7.05350926518439980128505339962430298328399658203125	0.1750113707967100029616602796522784046828746795654296875	7.3512071371078402393095529987476766109466552734375	20.44999980926510119161321199499070644378662109375	60.61874938011160196538185118697583675384521484375	0.5375000033527610465711177312186919152736663818359375	0	0.0	33.34600819895680245963376364670693874359130859375	0.0	1	1	1	0
5158	S6	2019	8	3	22	0	0	0	0	0	0	0	0.0	0	0.0	1	1	1	0
5159	S6	2019	8	3	23	0	0	0	0	0	0	0	0.0	0	0.0	1	1	1	0
5160	S6	2019	8	3	24	0	0	0	0	0	0	0	0.0	0	0.0	1	1	1	0
5161	S6	2019	8	4	1	0	0	0	0	0	0	0	0.0	0	0.0	1	1	1	0
5162	S6	2019	8	4	2	0	0	0	0	0	0	0	0.0	0	0.0	1	1	1	0
5163	S6	2019	8	4	3	0	0	0	0	0	0	0	0.0	0	0.0	1	1	1	0
5164	S6	2019	8	4	4	0	0	0	0	0	0	0	0.0	0	0.0	1	1	1	0
5165	S6	2019	8	4	5	12.3744241160731007767026312649250030517578125	39.0057155186130017909817979671061038970947265625	11.2363786851206004513414882239885628223419189453125	15.50322584336799991433508694171905517578125	87.8367731401996962858902406878769397735595703125	0.54709677715455296009849917027167975902557373046875	5.25000001653091974418430254445411264896392822265625	0.0	142.48225077365799506878829561173915863037109375	0.0	1	1	1	1
5166	S6	2019	8	4	6	55.17457452880010038143154815770685672760009765625	87.093786850074906169538735412061214447021484375	42.2820683320363031043598311953246593475341796875	16.1683334668476987872054451145231723785400390625	90.7883333841958943821737193502485752105712890625	0.897777780310974993227546292473562061786651611328125	33.9166667933263994427761645056307315826416015625	0.0	1020.363600924599950303672812879085540771484375	0.0	1	1	1	1
5167	S6	2019	8	4	7	151.51911646311299364242586307227611541748046875	137.108875559408005528894136659801006317138671875	119.009246826170993927007657475769519805908203125	17.715406161396398232454885146580636501312255859375	89.9448176792688940395237295888364315032958984375	1.20476190616435996361133220489136874675750732421875	110.6666661798939941263597575016319751739501953125	0.0	3189.4570489724401340936310589313507080078125	0.0	1	1	1	1
5168	S6	2019	8	4	8	147.4844880210019937294418923556804656982421875	10.163254753914099381972846458666026592254638671875	143.156147638956014134237193502485752105712890625	18.62999995549510146020111278630793094635009765625	88.4383333841959000665156054310500621795654296875	1.5933333331512000707874676663777790963649749755859375	132.916665946443998791437479667365550994873046875	0.0	3766.696403423929950804449617862701416015625	0.0	1	1	1	1
5169	S6	2019	8	4	9	370.10503526361702597569092176854610443115234375	125.79803475078000474240980111062526702880859375	300.9130870915259947651065886020660400390625	20.05434169822709833397311740554869174957275390625	79.222408861005305880098603665828704833984375	1.661344537714950053697293697041459381580352783203125	363.41666802764001431569340638816356658935546875	0.0	9961.51809891061930102296173572540283203125	0.0	1	1	1	1
5170	S6	2019	8	4	10	473.377453657509022377780638635158538818359375	262.09896299764699278966872952878475189208984375	302.46647365404197671523434109985828399658203125	21.163188364885801462378367432393133640289306640625	70.9843480649200984089475241489708423614501953125	1.3466666650944800753819663441390730440616607666015625	448.7500041723250205905060283839702606201171875	0.0	12232.033620277999943937174975872039794921875	0.0	1	1	1	1
5171	S6	2019	8	4	11	423.91793831814499071697355248034000396728515625	104.6384142792120002241063048131763935089111328125	344.8208710745469716130173765122890472412109375	21.0775279838046998293066280893981456756591796875	67.6117980185518945290823467075824737548828125	1.2205056205726700913061222308897413313388824462890625	498.50000441074297441446105949580669403076171875	0.0	12833.761721849399691564030945301055908203125	0.0	1	1	1	1
5172	S6	2019	8	4	12	502.4952323999290229039615951478481292724609375	142.3627847957139920254121534526348114013671875	388.4229578596820147140533663332462310791015625	21.375561655237401481599590624682605266571044921875	63.64943801151230218238197267055511474609375	1.395786517038100082999108053627423942089080810546875	585.1666604479149782491731457412242889404296875	0.0	14952.088137467699198168702423572540283203125	0.0	1	1	1	1
5173	S6	2019	8	4	13	524.103271744467974713188596069812774658203125	166.08632530593700948884361423552036285400390625	390.2689120552749955095350742340087890625	21.75965915484859891648738994263112545013427734375	60.38749988512550004315926344133913516998291015625	1.386363640427580090630499398685060441493988037109375	642.166664203004984301514923572540283203125	0.0	16034.054537614099899656139314174652099609375	0.0	1	1	1	1
5174	S6	2019	8	4	14	360.0371846516919731584494002163410186767578125	4.03379037711354992978840527939610183238983154296875	354.44042383829702203001943416893482208251953125	21.525000063578200837355325347743928432464599609375	58.05999997456859773592441342771053314208984375	1.4130555561847100154437839591992087662220001220703125	340.00000109274998294495162554085254669189453125	0.0	9243.931651115430213394574820995330810546875	0.0	1	1	1	1
5175	S6	2019	8	4	15	347.30227025349898895001388154923915863037109375	2.6720411643385801880867802537977695465087890625	343.41174231635199021184234879910945892333984375	21.549999777475900231138439266942441463470458984375	56.5850000381469016019764239899814128875732421875	1.9313888809747099539748660390614531934261322021484375	333.41666559378199963248334825038909912109375	0.0	9020.516057809220001217909157276153564453125	0.0	1	1	1	1
5176	S6	2019	8	4	16	359.69379626499102187153766863048076629638671875	95.217185055941598648132639937102794647216796875	302.57644499017902717241668142378330230712890625	21.4140448088055990183420362882316112518310546875	58.13455072681549751223428756929934024810791015625	2.240730334533730161439279982005245983600616455078125	379.24999992053000141822849400341510772705078125	0.0	9959.253460168840319965966045856475830078125	0.0	1	1	1	1
5177	S6	2019	8	4	17	298.306974442976979844388552010059356689453125	74.69879586120549674888025037944316864013671875	260.56997940660102131005260162055492401123046875	20.951396718371501748379159835167229175567626953125	62.276815648851396645113709382712841033935546875	2.368435758202430019281337081338278949260711669921875	319.4166682660589913211879320442676544189453125	0.0	8385.440548261029107379727065563201904296875	0.0	1	1	1	1
5178	S6	2019	8	4	18	175.396872880723009302528225816786289215087890625	9.8943213185502401074700173921883106231689453125	172.12616248660600604125647805631160736083984375	20.2999999046325001472723670303821563720703125	65.0949998219806929000696982257068157196044921875	1.8936111105812900579081770047196187078952789306640625	160.249998172122985806709039025008678436279296875	0.0	4290.8181399106697426759637892246246337890625	0.0	1	1	1	1
5179	S6	2019	8	4	19	57.79009291330969944056050735525786876678466796875	0.37931197538144001413229489116929471492767333984375	57.93398637241779880469039198942482471466064453125	19.753333409627199301894506788812577724456787109375	66.8249999364217046604608185589313507080078125	1.7736111109455399148515652996138669550418853759765625	49.333333193013999107279232703149318695068359375	0.0	1373.07752172152004277450032532215118408203125	0.0	1	1	1	1
5180	S6	2019	8	4	20	15.2327757298946000474870743346400558948516845703125	0.351364066120651019620169108748086728155612945556640625	15.34773001141009984849006286822259426116943359375	19.41666669845579917819122783839702606201171875	66.935000101725194099344662390649318695068359375	1.652222222338119994589078487479127943515777587890625	12.3333333952662993482363162911497056484222412109375	0.0	349.14658187577998660344746895134449005126953125	0.0	1	1	1	1
5181	S6	2019	8	4	21	2.95724406242370019270992997917346656322479248046875	0.34113228023052200033049530247808434069156646728515625	3.05994852781295012533746557892300188541412353515625	19.225000476837099228077931911684572696685791015625	68.0199996948241931704615126363933086395263671875	1.5900000035762700267838454237789846956729888916015625	0.08333333729145829538165202166055678389966487884521484375	0.0	4.80078315983212977613447947078384459018707275390625	0.0	1	1	1	0
5182	S6	2019	8	4	22	0	0	0	0	0	0	0	0.0	0	0.0	1	1	1	0
5183	S6	2019	8	4	23	0	0	0	0	0	0	0	0.0	0	0.0	1	1	1	0
5184	S6	2019	8	4	24	0	0	0	0	0	0	0	0.0	0	0.0	1	1	1	0
5185	S6	2019	8	5	1	0	0	0	0	0	0	0	0.0	0	0.0	1	1	1	0
5186	S6	2019	8	5	2	0	0	0	0	0	0	0	0.0	0	0.0	1	1	1	0
5187	S6	2019	8	5	3	0	0	0	0	0	0	0	0.0	0	0.0	1	1	1	0
5188	S6	2019	8	5	4	0	0	0	0	0	0	0	0.0	0	0.0	1	1	1	0
5189	S6	2019	8	5	5	15.8114310542478992971382467658258974552154541015625	0.348073813496835027248010874245665036141872406005859375	16.360561121378498938838674803264439105987548828125	15.329801268924899915191417676396667957305908203125	89.131787533791595024013076908886432647705078125	0.96026490026751798456672304382664151489734649658203125	4.91666670617024959000218586879782378673553466796875	0.0	173.911725170909988946732482872903347015380859375	0.0	1	1	1	1
5190	S6	2019	8	5	6	81.1058304150898976558892172761261463165283203125	236.2919177407189863515668548643589019775390625	45.3858069896698026468584430404007434844970703125	16.03666666348770064587370143271982669830322265625	86.6216665903726976694088079966604709625244140625	0.9736111088759360487898675273754633963108062744140625	33.58333356057600127542173140682280063629150390625	0.0	1187.87477165459995376295410096645355224609375	0.0	1	1	1	1
5191	S6	2019	8	5	7	210.786611069573012855471461080014705657958984375	416.86871723598898142881807871162891387939453125	101.7884255091340008902989211492240428924560546875	17.79833339055370089454299886710941791534423828125	78.9666667938231938705939683131873607635498046875	0.88416667108734403601744133993634022772312164306640625	121.5000019098309991250062012113630771636962890625	0.0	3783.68717432021003332920372486114501953125	0.0	1	1	1	1
5192	S6	2019	8	5	8	273.93247358534000568397459574043750762939453125	290.18359549840198496895027346909046173095703125	158.06899982028500062369857914745807647705078125	18.270000139872198730017771595157682895660400390625	75.025000000000005684341886080801486968994140625	0.98555555716156895140755977990920655429363250732421875	227.999996393919985848697251640260219573974609375	0.0	6423.167884349810265121050179004669189453125	0.0	1	1	1	1
5193	S6	2019	8	5	9	491.88046784736701511064893566071987152099609375	620.6227527981069442830630578100681304931640625	161.029959622234997596024186350405216217041015625	19.6191548092264014258034876547753810882568359375	66.4039438274543982743125525303184986114501953125	0.93859155136094896132448184289387427270412445068359375	459.50000733137102315595257095992565155029296875	0.0	12810.089270273800138966180384159088134765625	0.0	1	1	1	1
5194	S6	2019	8	5	10	596.409693215882043659803457558155059814453125	542.7067812863830340575077570974826812744140625	247.83112426587700838354066945612430572509765625	20.655710326595798420612482004798948764801025390625	59.96908066730969721902511082589626312255859375	1.014206130524530014014317202963866293430328369140625	652.3333340883240225593908689916133880615234375	0.0	17150.54631233209875063039362430572509765625	0.0	1	1	1	1
5195	S6	2019	8	5	11	738.5289452852970271123922429978847503662109375	668.5681070046169907072908245027065277099609375	257.42689059371701887357630766928195953369140625	21.9512535243976998344805906526744365692138671875	53.976323056021698221229598857462406158447265625	0.90306406789835402815214138172450475394725799560546875	812.2500032186500220632296986877918243408203125	0.0	20958.602110544801689684391021728515625	0.0	1	1	1	1
5196	S6	2019	8	5	12	767.1284189064409702041302807629108428955078125	716.9098305089510176912881433963775634765625	217.6845939252619928083731792867183685302734375	22.7363128448997002806208911351859569549560546875	49.6639666211004993101596483029425144195556640625	0.858659218975950988550494002993218600749969482421875	917.583331465719993502716533839702606201171875	0.0	22525.76752503709940356202423572540283203125	0.0	1	1	1	1
5197	S6	2019	8	5	13	595.9600193374329819562262855470180511474609375	272.956491570618027253658510744571685791015625	378.74674847531099430852918885648250579833984375	22.607520887114500141024109325371682643890380859375	49.1534818155187025467967032454907894134521484375	0.9075208941375969562415093605522997677326202392578125	673.4999964634570233101840130984783172607421875	0.0	17072.95427719749932293780148029327392578125	0.0	1	1	1	1
5198	S6	2019	8	5	14	501.2807406107580163734382949769496917724609375	125.7179807500699979527780669741332530975341796875	404.20697470770898007685900665819644927978515625	22.716666698455799888733963598497211933135986328125	49.54499982198070284766799886710941791534423828125	0.8102777784069370436981216698768548667430877685546875	563.4999970595030163167393766343593597412109375	0.0	14412.416895230600857757963240146636962890625	0.0	1	1	1	1
5199	S6	2019	8	5	15	536.9928619902010495934518985450267791748046875	310.37162203539497795645729638636112213134765625	320.4965662552129970208625309169292449951171875	23.609322133037299096258720965124666690826416015625	47.34124324820130169655385543592274188995361328125	0.73220339400620104708394819681416265666484832763671875	644.0833335121450318183633498847484588623046875	0.0	16029.069105783999475534074008464813232421875	0.0	1	1	1	1
5200	S6	2019	8	5	16	448.45206121319000658331788145005702972412109375	253.40509921534300019629881717264652252197265625	295.11142216985700770237599499523639678955078125	23.73553015372809937844067462719976902008056640625	48.2982809728058981590947951190173625946044921875	0.6315186279038640382310632048756815493106842041015625	499.00000045696998540734057314693927764892578125	0.0	12468.51384639739990234375	0.0	1	1	1	1
5201	S6	2019	8	5	17	258.3906229133280021414975635707378387451171875	95.436229810436998377554118633270263671875	214.07703180122899766502087004482746124267578125	22.21396007700860053546421113424003124237060546875	57.2595443399543029272535932250320911407470703125	1.768945870406259945895044438657350838184356689453125	268.41666425267902695850352756679058074951171875	0.0	6976.499239603659589192830026149749755859375	0.0	1	1	1	1
5202	S6	2019	8	5	18	210.381789864434011860794271342456340789794921875	155.255287641286003008644911460578441619873046875	156.600445090399006176085094921290874481201171875	21.65666672388709912411286495625972747802734375	59.6366667429605996630925801582634449005126953125	1.813888888557749989871581419720314443111419677734375	195.99999735752800233967718668282032012939453125	0.0	5029.3839673201300684013403952121734619140625	0.0	1	1	1	1
5203	S6	2019	8	5	19	71.251147948370999074541032314300537109375	3.8392848885307699902114109136164188385009765625	70.51932711071430048832553438842296600341796875	20.6983334223428983023040927946567535400390625	68.13166669209789461092441342771053314208984375	1.4777777753770300339652976617799140512943267822265625	63.66666763400039741327418596483767032623291015625	0.0	1740.3272725641700162668712437152862548828125	0.0	1	1	1	1
5204	S6	2019	8	5	20	13.045973751131999307517617125995457172393798828125	0.299469342236744984209195763469324447214603424072265625	13.2171936701129002500465503544546663761138916015625	19.672905112112001546620376757346093654632568359375	76.8715079962874057173394248820841312408447265625	1.1405027924969199926152896296116523444652557373046875	8.916666789445979901529426570050418376922607421875	0.0	278.2463830274820111299050040543079376220703125	0.0	1	1	1	1
5205	S6	2019	8	5	21	1.7609282732009801097916579237789846956729888916015625	0.37704988320668497703280763744260184466838836669921875	1.8328712582588100321601132236537523567676544189453125	19.399999618530198830512745189480483531951904296875	78.95000076293939628158113919198513031005859375	0.4500000029802320167249263249686919152736663818359375	0	0.0	2.268166630528809957212388326297514140605926513671875	0.0	1	1	1	0
5206	S6	2019	8	5	22	0	0	0	0	0	0	0	0.0	0	0.0	1	1	1	0
5207	S6	2019	8	5	23	0	0	0	0	0	0	0	0.0	0	0.0	1	1	1	0
5208	S6	2019	8	5	24	0	0	0	0	0	0	0	0.0	0	0.0	1	1	1	0
5209	S6	2019	8	6	1	0	0	0	0	0	0	0	0.0	0	0.0	1	1	1	0
5210	S6	2019	8	6	2	0	0	0	0	0	0	0	0.0	0	0.0	1	1	1	0
5211	S6	2019	8	6	3	0	0	0	0	0	0	0	0.0	0	0.0	1	1	1	0
5212	S6	2019	8	6	4	0	0	0	0	0	0	0.08333333729145829538165202166055678389966487884521484375	0.0	0	0.0	1	1	1	0
5213	S6	2019	8	6	5	6.78934298862110008343506706296466290950775146484375	0.36996003748340999806032414198853075504302978515625	6.98320344903252010482219702680595219135284423828125	16.819317926059998313803589553572237491607666015625	92.06022739410400390625	1.6102272705598299484819335702923126518726348876953125	2.250000009856500060578810007427819073200225830078125	0.0	57.40399976881840160558567731641232967376708984375	0.0	1	1	1	1
5214	S6	2019	8	6	6	53.111584975984300172058283351361751556396484375	34.13019851321970321578191942535340785980224609375	47.40217437479230255803486215882003307342529296875	17.09000005722040071987066767178475856781005859375	91.43333346048990506460540927946567535400390625	1.6608333300385200725912682173657231032848358154296875	39.41666668591390276787933544255793094635009765625	0.0	1118.494169786569955249433405697345733642578125	0.0	1	1	1	1
5215	S6	2019	8	6	7	149.527887683443992727916338481009006500244140625	129.382297617693012625750270672142505645751953125	115.4208088344989988627276034094393253326416015625	18.246666431426998400411321199499070644378662109375	88.994999694824201696974341757595539093017578125	1.3930555541482199100045136219705455005168914794921875	113.416667406756999980643740855157375335693359375	0.0	3224.78242715197984580299817025661468505859375	0.0	1	1	1	1
5216	S6	2019	8	6	8	195.328404659694996325924876146018505096435546875	10.629094790584499463648171513341367244720458984375	190.3551322937009899760596454143524169921875	19.086666933695401127124569029547274112701416015625	86.676667022705004228555480949580669403076171875	1.9841666617327200494713679290725849568843841552734375	178.1666663785759965321631170809268951416015625	0.0	4967.646847168580279685556888580322265625	0.0	1	1	1	1
5217	S6	2019	8	6	9	391.22523345070300138104357756674289703369140625	261.82082258907797722713439725339412689208984375	250.885371591852987194215529598295688629150390625	20.1896552546269987260529887862503528594970703125	81.6908043609268048612648271955549716949462890625	2.070977007863159968792388099245727062225341796875	378.4166673819210018336889334022998809814453125	0.0	10366.4424419403003412298858165740966796875	0.0	1	1	1	1
5218	S6	2019	8	6	10	407.741705251293979017646051943302154541015625	217.1182145305959920733585022389888763427734375	266.680410606915984317311085760593414306640625	20.8325580330782003102285671047866344451904296875	78.14011662505390631849877536296844482421875	2.102034883097160022913385546416975557804107666015625	408.083334565161976570379920303821563720703125	0.0	10853.7732511758003965951502323150634765625	0.0	1	1	1	1
5219	S6	2019	8	6	11	521.3035116615529886985314078629016876220703125	326.63611068145399940476636402308940887451171875	283.49493986405599343925132416188716888427734375	21.88113198190360009220967185683548450469970703125	70.2984275817870951641452847979962825775146484375	2.476415093964750013810771633870899677276611328125	546.666665623585004141204990446567535400390625	0.0	14369.30078268050056067295372486114501953125	0.0	1	1	1	1
5220	S6	2019	8	6	12	574.007509841399951255880296230316162109375	380.20355801943202322945580817759037017822265625	279.44575064522797447352786548435688018798828125	21.039455627908498769329526112414896488189697265625	65.7170066963247023750227526761591434478759765625	2.787755102831490194859043185715563595294952392578125	559.333333745599020403460599482059478759765625	0.0	14269.965231418600524193607270717620849609375	0.0	1	1	1	1
5221	S6	2019	8	6	13	714.8082890728719576145522296428680419921875	688.1348789264169454327202402055263519287109375	182.79740068024199217688874341547489166259765625	22.491503241794500667083411826752126216888427734375	50.8901960335524989886835101060569286346435546875	3.118954242834070189616113566444255411624908447265625	850.5833397309010024400777183473110198974609375	0.0	21485.89428265890092006884515285491943359375	0.0	1	1	1	1
5222	S6	2019	8	6	14	421.97258416048799745112773962318897247314453125	250.786721065502007377290283329784870147705078125	233.66752052897601288350415416061878204345703125	22.5210525878811012034930172376334667205810546875	52.681733654010400869083241559565067291259765625	2.448297210153040026625603786669671535491943359375	485.999998946984987924224697053432464599609375	0.0	12101.872225602399339550174772739410400390625	0.0	1	1	1	1
5223	S6	2019	8	6	15	376.59458463332197197814821265637874603271484375	211.7476838639360039451275952160358428955078125	226.769489849313998774960055015981197357177734375	23.0852941232569008889186079613864421844482421875	48.80999994838929723073306377045810222625732421875	2.695294118541120109711073382641188800334930419921875	405.41666808227597584846080280840396881103515625	0.0	10365.09551604579974082298576831817626953125	0.0	1	1	1	1
5224	S6	2019	8	6	16	447.38474332875199479531147517263889312744140625	319.34224313488897450952208600938320159912109375	258.573407732206987930112518370151519775390625	23.410632122522098796935097198002040386199951171875	48.969540146575496919467695988714694976806640625	2.5617816109938100765930357738398015499114990234375	522.916667163372039794921875	0.0	13125.9047538041995721869170665740966796875	0.0	1	1	1	1
5225	S6	2019	8	6	17	320.1436712885470114997588098049163818359375	293.5843300267330278074950911104679107666015625	170.79734788458000593891483731567859649658203125	23.54126511998919824009135481901466846466064453125	48.99487946981400199319978128187358379364013671875	2.3277108424219701277024796581827104091644287109375	357.5833352903520108156953938305377960205078125	0.0	8895.60698469479029881767928600311279296875	0.0	1	1	1	1
5226	S6	2019	8	6	18	134.6278251012159898891695775091648101806640625	73.175941589598807013317127712070941925048828125	113.56605822245199988174135796725749969482421875	22.66833321253449895493758958764374256134033203125	52.55499992370599926516661071218550205230712890625	2.41555555421444978492218069732189178466796875	129.0833341578639874569489620625972747802734375	0.0	3367.3691501219900601427070796489715576171875	0.0	1	1	1	1
5227	S6	2019	8	6	19	109.4719452245270048251768457703292369842529296875	146.759111165167013268728624098002910614013671875	75.6617735218068929725632187910377979278564453125	22.310614463337298474243652890436351299285888671875	53.76256947011250275636484730057418346405029296875	2.210893850752759792754886802867986261844635009765625	91.4166665946438996570577728562057018280029296875	0.0	2225.36998987196011512423865497112274169921875	0.0	1	1	1	1
5228	S6	2019	8	6	20	24.095310008887000918775811442174017429351806640625	21.189143652767398862124537117779254913330078125	21.981756040945498398286872543394565582275390625	21.46767674070409981368356966413557529449462890625	57.9218856734458000801168964244425296783447265625	1.305387206149819956380042640375904738903045654296875	12.0833333251841992250774637795984745025634765625	0.0	384.8376394404709799346164800226688385009765625	0.0	1	1	1	1
5229	S6	2019	8	6	21	0	0	0	0	0	0	0	0.0	1.2889666638026600065103366432595066726207733154296875	0.0	1	1	1	0
5230	S6	2019	8	6	22	0	0	0	0	0	0	0	0.0	0	0.0	1	1	1	0
5231	S6	2019	8	6	23	0	0	0	0	0	0	0	0.0	0	0.0	1	1	1	0
5232	S6	2019	8	6	24	0	0	0	0	0	0	0	0.0	0	0.0	1	1	1	0
5233	S6	2019	8	7	1	0	0	0	0	0	0	0	0.0	0	0.0	1	1	1	0
5234	S6	2019	8	7	2	0	0	0	0	0	0	0	0.0	0	0.0	1	1	1	0
5235	S6	2019	8	7	3	0	0	0	0	0	0	0	0.0	0	0.0	1	1	1	0
5236	S6	2019	8	7	4	0	0	0	0	0	0	0	0.0	0	0.0	1	1	1	0
5237	S6	2019	8	7	5	16.7937024800122998158258269540965557098388671875	64.6332767247098018970064003951847553253173828125	15.779052202680400540657501551322638988494873046875	15.1946903076847004143701269640587270259857177734375	88.8610610286745981056810705922544002532958984375	0.1743362851902439947249234819537377916276454925537109375	3.66666673410994992110545354080386459827423095703125	0.0	147.611466857294004739742376841604709625244140625	0.0	1	1	1	0
5238	S6	2019	8	7	6	78.227227385838801865247660316526889801025390625	260.46437240176697969218366779386997222900390625	43.283436881171297727632918395102024078369140625	16.140000073115000844836686155758798122406005859375	85.6033332824707002828290569595992565155029296875	0.2380555590821629985409657592754228971898555755615234375	30.83333365308740070531712262891232967376708984375	0.0	1110.08582140008002170361578464508056640625	0.0	1	1	1	1
5239	S6	2019	8	7	7	203.254580434162988922253134660422801971435546875	480.7499571058480114515987224876880645751953125	75.789923424190902778718736954033374786376953125	17.968333212534499665480325347743928432464599609375	81.4566672007241976416480611078441143035888671875	0.68861111493574200803635676493286155164241790771484375	116.083334510523997096242965199053287506103515625	0.0	3494.97289955615997314453125	0.0	1	1	1	1
5240	S6	2019	8	7	8	350.51812540123302142092143185436725616455078125	625.1790346873500539004453457891941070556640625	100.269866157042002896560006774961948394775390625	19.615598917671501766335495631210505962371826171875	74.2454037679602976140813552774488925933837890625	1.1763231198933699062081359443254768848419189453125	303.2499973972629732088535092771053314208984375	0.0	8406.204173962300046696327626705169677734375	0.0	1	1	1	1
5241	S6	2019	8	7	9	497.00740541426097252042382024228572845458984375	719.965988926380987322772853076457977294921875	116.7520840820649965507982415147125720977783203125	21.2896647799613987217526300810277462005615234375	65.6287709667695935422671027481555938720703125	1.1382681551758799809448419182444922626018524169921875	495.25000403324798980975174345076084136962890625	0.0	13362.3823126157003571279346942901611328125	0.0	1	1	1	1
5242	S6	2019	8	7	10	608.799297332762989753973670303821563720703125	722.714839410245986073277890682220458984375	150.812858345802993653705925680696964263916015625	22.796629284205000232077509281225502490997314453125	54.78258428680759806184141780249774456024169921875	1.434550563773409947998516145162284374237060546875	680.0833394130060014504124410450458526611328125	0.0	17635.92837254199912422336637973785400390625	0.0	1	1	1	1
5243	S6	2019	8	7	11	437.12882485311502023250795900821685791015625	294.69929950397198581413249485194683074951171875	230.497529501993000167203717865049839019775390625	22.687868837450299253077901084907352924346923828125	55.8760656638223025538536603562533855438232421875	1.6531147556226699624204456995357759296894073486328125	429.83333083490498438550275750458240509033203125	0.0	11150.94446639220041106455028057098388671875	0.0	1	1	1	1
5244	S6	2019	8	7	12	423.52229013750599051491008140146732330322265625	111.4552830991950003181045758537948131561279296875	335.3935047943920153556973673403263092041015625	21.920527914052801321531660505570471286773681640625	62.71436998921050332000959315337240695953369140625	1.974486796999249893502792474464513361454010009765625	430.50000071525499834024230949580669403076171875	0.0	11332.344929377199150621891021728515625	0.0	1	1	1	1
5245	S6	2019	8	7	13	520.243569699872978162602521479129791259765625	192.015394917121994922126759774982929229736328125	366.77896738940802379147498868405818939208984375	23.500931568027201734594200388528406620025634765625	53.697826160407203133217990398406982421875	1.9736024862305701077502817497588694095611572265625	531.166662772496010802569799125194549560546875	0.0	13700.66302021340015926398336887359619140625	0.0	1	1	1	1
5246	S6	2019	8	7	14	421.94147141196498296267236582934856414794921875	142.80114889295799684987287037074565887451171875	315.14786484458198856373201124370098114013671875	23.418636322021399109871708787977695465087890625	52.9854543165726994402575655840337276458740234375	2.125454542582680073081746741081587970256805419921875	371.41666499276999502399121411144733428955078125	0.0	9799.302791555719522875733673572540283203125	0.0	1	1	1	1
5247	S6	2019	8	7	15	107.988703351791997420150437392294406890869140625	0.285308358718758980909768752098898403346538543701171875	107.1122875767620001852264977060258388519287109375	21.403734302124998833960489719174802303314208984375	63.95477161961469647621925105340778827667236328125	3.137759331845639820812721154652535915374755859375	72.8333331644536059457095689140260219573974609375	0.0	2235.49677431582995268399827182292938232421875	0.0	1	1	1	1
5248	S6	2019	8	7	16	300.8130928830399852813570760190486907958984375	199.465459077643998853091034106910228729248046875	189.85214754430199946000357158482074737548828125	18.037499916262699883873210637830197811126708984375	85.2417684415490981564289540983736515045166015625	2.639024384683219981440061019384302198886871337890625	316.50000034520900271672871895134449005126953125	0.0	8196.440602342290731030516326427459716796875	0.0	1	1	1	1
5249	S6	2019	8	7	17	293.4575712415900170526583679020404815673828125	178.362747929161997717528720386326313018798828125	203.804446008469994922052137553691864013671875	20.388333320617601174262745189480483531951904296875	76.1949996948242045391452847979962825775146484375	1.731111108511679930188620346598327159881591796875	313.9999993145460166488192044198513031005859375	0.0	8010.7338825861297664232552051544189453125	0.0	1	1	1	1
5250	S6	2019	8	7	18	186.64754360698299251453136093914508819580078125	72.9129866997925972782468306832015514373779296875	160.777507346319993075667298398911952972412109375	21.386907901604498505321316770277917385101318359375	65.7501391992594932389692985452711582183837890625	2.0501392739396901987447563442401587963104248046875	181.74999890228099275191198103129863739013671875	0.0	4689.9036417404704479849897325038909912109375	0.0	1	1	1	1
5251	S6	2019	8	7	19	75.5122889942592934175991103984415531158447265625	66.273245728098601148303714580833911895751953125	63.5127398384941983522367081604897975921630859375	20.7299999872843017101331497542560100555419921875	67.5749999364217046604608185589313507080078125	1.6758333351049099491092420066706836223602294921875	61.25000026077010062408589874394237995147705078125	0.0	1533.116307109590024992940016090869903564453125	0.0	1	1	1	1
5252	S6	2019	8	7	20	36.0122302901576034628305933438241481781005859375	58.82360969932980054863946861587464809417724609375	32.5693658425773975295669515617191791534423828125	19.65295778193939923994548735208809375762939453125	75.1760559511856030212584300898015499114990234375	1.2543661977203799384739113520481623709201812744140625	23.75000016763790000595690798945724964141845703125	0.0	704.779601966338987040217034518718719482421875	0.0	1	1	1	1
5253	S6	2019	8	7	21	0	0	0	0	0	0	0.750000006519258022308349609375	0.0	33.333474847798498785778065212070941925048828125	0.0	1	1	1	0
5254	S6	2019	8	7	22	0	0	0	0	0	0	0	0.0	0	0.0	1	1	1	0
5255	S6	2019	8	7	23	0	0	0	0	0	0	0	0.0	0	0.0	1	1	1	0
5256	S6	2019	8	7	24	0	0	0	0	0	0	0	0.0	0	0.0	1	1	1	0
5257	S6	2019	8	8	1	0	0	0	0	0	0	0	0.0	0	0.0	1	1	1	0
5258	S6	2019	8	8	2	0	0	0	0	0	0	0	0.0	0	0.0	1	1	1	0
5259	S6	2019	8	8	3	0	0	0	0	0	0	0	0.0	0	0.0	1	1	1	0
5260	S6	2019	8	8	4	0	0	0	0	0	0	0	0.0	0	0.0	1	1	1	0
5261	S6	2019	8	8	5	19.049276810066299248092036577872931957244873046875	7.2822289344142401290582711226306855678558349609375	19.54165648479079919752621208317577838897705078125	15.385294072768200379641712061129510402679443359375	92.132352267994605199419311247766017913818359375	0.71176470991443097080519919472862966358661651611328125	4.58333325029045024479046332999132573604583740234375	0.0	156.64055966772099282025010325014591217041015625	0.0	1	1	1	0
5262	S6	2019	8	8	6	66.86956872353999870028928853571414947509765625	109.2206913857149999103057780303061008453369140625	54.42353448388289649528815061785280704498291015625	16.067039207373198905770550481975078582763671875	89.5072628852374947427961160428822040557861328125	0.58547486273269999657031803508289158344268798828125	39.9166670007009969367572921328246593475341796875	0.0	1240.198386212179912035935558378696441650390625	0.0	1	1	1	1
5263	S6	2019	8	8	7	165.450150235492998262998298741877079010009765625	283.75044406685498188380734063684940338134765625	85.9632820765177001476331497542560100555419921875	17.1866666793822986392115126363933086395263671875	85.5933338165283004173033987171947956085205078125	1.029444444759020083068890016875229775905609130859375	107.83333238214299854007549583911895751953125	0.0	3132.50356415907981499913148581981658935546875	0.0	1	1	1	1
5264	S6	2019	8	8	8	359.26134242368499371877987869083881378173828125	580.8876411834449982052319683134555816650390625	131.018481222431006472106673754751682281494140625	19.4528090766306007708408287726342678070068359375	77.97584278663890700045158155262470245361328125	1.576404489576809897499742874060757458209991455078125	313.74999756614300849832943640649318695068359375	0.0	8653.1508962313600932247936725616455078125	0.0	1	1	1	1
5265	S6	2019	8	8	9	329.0687988536980128628783859312534332275390625	85.3555465810957940675507416017353534698486328125	285.0614333765460060021723620593547821044921875	20.336592168115299017472352716140449047088623046875	73.6516761140450029188286862336099147796630859375	2.00782122583694988549041227088309824466705322265625	306.1666712164869750267826020717620849609375	0.0	8473.98172815639918553642928600311279296875	0.0	1	1	1	1
5266	S6	2019	8	8	10	390.89617972617298846671474166214466094970703125	285.9077339971510127725196070969104766845703125	203.239935179013997412766912020742893218994140625	20.438738527956598289847534033469855785369873046875	72.6732730120867955747598898597061634063720703125	1.96636636282230004013626967207528650760650634765625	399.41666958232599426992237567901611328125	0.0	10666.615217923999807680957019329071044921875	0.0	1	1	1	1
5267	S6	2019	8	8	11	516.19457067762095903162844479084014892578125	341.578238392869025119580328464508056640625	275.0254940759559758589603006839752197265625	21.758333342415898670196838793344795703887939453125	62.6446427163622985290203359909355640411376953125	2.12619047203943001278503288631327450275421142578125	569.1666665176550168325775302946567535400390625	0.0	14440.06686409309986629523336887359619140625	0.0	1	1	1	1
5268	S6	2019	8	8	12	438.8715573506179907781188376247882843017578125	140.17550349809999943317961879074573516845703125	330.24204378242899338147253729403018951416015625	22.3051204221793994975087116472423076629638671875	60.58343367978749682833949918858706951141357421875	2.1765060168073802060462185181677341461181640625	474.50000047683698767286841757595539093017578125	0.0	12543.58221093810061574913561344146728515625	0.0	1	1	1	1
5269	S6	2019	8	8	13	245.36442658881099987411289475858211517333984375	43.69489889168330165603038039989769458770751953125	209.629073519666007996420376002788543701171875	19.018907418771899386911172769032418727874755859375	76.1705878762636956480491789989173412322998046875	1.7970588217262399854945442712050862610340118408203125	182.499999646096995320476708002388477325439453125	0.0	5258.2578832904500814038328826427459716796875	0.0	1	1	1	1
5270	S6	2019	8	8	14	68.608205848640494650680921040475368499755859375	0.450477365273501018094748360454104840755462646484375	68.2003111805948947221622802317142486572265625	17.599301044757499568049752269871532917022705078125	85.0713283031970064484994509257376194000244140625	2.4804195782521301083534126519225537776947021484375	55.16666639596240173659680294804275035858154296875	0.0	1636.7387659847599934437312185764312744140625	0.0	1	1	1	1
5271	S6	2019	8	8	15	434.04590261247398075283854268491268157958984375	217.974971371805992248482652939856052398681640625	288.7969209882940049283206462860107421875	17.885000101725200494229284231550991535186767578125	82.7466673533121053196737193502485752105712890625	1.6941666644480399828154304486815817654132843017578125	482.333339750766981524066068232059478759765625	0.0	12690.656274557099095545709133148193359375	0.0	1	1	1	1
5272	S6	2019	8	8	16	454.55116665968199640701641328632831573486328125	436.28861457709302840157761238515377044677734375	190.171020302843004401438520289957523345947265625	21.000298537069198800963931716978549957275390625	69.630746186669199460084200836718082427978515625	1.98626865673421004743204321130178868770599365234375	498.25000079969498756327084265649318695068359375	0.0	12448.52754970390014932490885257720947265625	0.0	1	1	1	1
5273	S6	2019	8	8	17	101.4262969699239960164049989543855190277099609375	0.357638640092050985597182943820371292531490325927734375	100.5340001967060032939116354100406169891357421875	18.4191010650176991703119711019098758697509765625	79.9981277408671047624011407606303691864013671875	1.788764045702829985629023212823085486888885498046875	91.250000211100001479280763305723667144775390625	0.0	2709.32035272319990326650440692901611328125	0.0	1	1	1	1
5274	S6	2019	8	8	18	85.82584113734100128567661158740520477294921875	3.610250184129519812614717011456377804279327392578125	83.719741358643403827954898588359355926513671875	16.585416623524199764005970791913568973541259765625	87.5196432840256051122196367941796779632568359375	0.9738095285637029530079189498792402446269989013671875	76.0833323001856030032286071218550205230712890625	0.0	2058.89168474823009091778658330440521240234375	0.0	1	1	1	1
5275	S6	2019	8	8	19	86.3421139130005030892789363861083984375	46.3317542014357997004481148906052112579345703125	75.6071456302035045382581301964819431304931640625	16.415315267202000626411972916685044765472412109375	87.309008601191493426085799001157283782958984375	0.489489491905894025247647505239001475274562835693359375	72.7500012144447936179858515970408916473388671875	0.0	1942.726211001479896367527544498443603515625	0.0	1	1	1	1
5276	S6	2019	8	8	20	42.02830546477739659394501359201967716217041015625	51.0891265266671013023369596339762210845947265625	38.14350922970930213296014699153602123260498046875	17.40646558794480114329417119733989238739013671875	87.0392242300099070462238159961998462677001953125	1.2504310335578499024933307737228460609912872314453125	21.916666786031100855325348675251007080078125	0.0	651.61955077200900632306002080440521240234375	0.0	1	1	1	1
5277	S6	2019	8	8	21	3.537617921829220080098821199499070644378662109375	0.368058830499648992340411268742172978818416595458984375	3.71080827713011984769764239899814128875732421875	17.200000762939399834294817992486059665679931640625	87.90000152587890625	0.800000011920928955078125	0.08333333729145829538165202166055678389966487884521484375	0.0	7.75870009480660005607433049590326845645904541015625	0.0	1	1	1	0
5278	S6	2019	8	8	22	0	0	0	0	0	0	0	0.0	0	0.0	1	1	1	0
5279	S6	2019	8	8	23	0	0	0	0	0	0	0	0.0	0	0.0	1	1	1	0
5280	S6	2019	8	8	24	0	0	0	0	0	0	0	0.0	0	0.0	1	1	1	0
5281	S6	2019	8	9	1	0	0	0	0	0	0	0	0.0	0	0.0	1	1	1	0
5282	S6	2019	8	9	2	0	0	0	0	0	0	0	0.0	0	0.0	1	1	1	0
5283	S6	2019	8	9	3	0	0	0	0	0	0	0	0.0	0	0.0	1	1	1	0
5284	S6	2019	8	9	4	0	0	0	0	0	0	0	0.0	0	0.0	1	1	1	0
5285	S6	2019	8	9	5	8.88339363790191072212110157124698162078857421875	0.36864305149137399642000900712446309626102447509765625	9.2150137508864897739613297744654119014739990234375	15.883185673603900767147933947853744029998779296875	91.532743470858605405737762339413166046142578125	1.884955744827740087288248105323873460292816162109375	2.000000007683400138347451502340845763683319091796875	0.0	69.1716088525329979574962635524570941925048828125	0.0	1	1	1	0
5286	S6	2019	8	9	6	57.54670267105100123217198415659368038177490234375	125.417713702220993354785605333745479583740234375	40.6673650264740018656084430404007434844970703125	16.26055571768009855304626398719847202301025390625	90.3663895077174998959890217520296573638916015625	2.0919444395436102013263734988868236541748046875	28.41666659029829844484993373043835163116455078125	0.0	921.558258434137997028301469981670379638671875	0.0	1	1	1	1
5287	S6	2019	8	9	7	192.041498334219994603699888102710247039794921875	442.47849531923702670610509812831878662109375	79.5318047169889013048305059783160686492919921875	17.347190948014798550502746365964412689208984375	85.8337082594968023840920068323612213134765625	2.077528089452319814967040656483732163906097412109375	108.75000059604599300655536353588104248046875	0.0	3137.22149779399978797300718724727630615234375	0.0	1	1	1	1
5288	S6	2019	8	9	8	315.8475376887560059913084842264652252197265625	460.355328600023995022638700902462005615234375	131.216362542850987438214360736310482025146484375	18.5364985932935013579481164924800395965576171875	79.5480711622831933027555351145565509796142578125	1.6756676546013300477255825171596370637416839599609375	282.583333551883015388739295303821563720703125	0.0	7871.9654877980201490572653710842132568359375	0.0	1	1	1	1
5289	S6	2019	8	9	9	454.50613363412702483401517383754253387451171875	513.0425317543509891038411296904087066650390625	189.702324265700013938840129412710666656494140625	19.89538456843440172860937309451401233673095703125	72.25323084904590587029815651476383209228515625	1.749538456568350053288440903997980058193206787109375	476.08333329359601293617743067443370819091796875	0.0	12716.099262237499715411104261875152587890625	0.0	1	1	1	1
5290	S6	2019	8	9	10	586.618644867379998686374165117740631103515625	741.6367116672510064745438285171985626220703125	123.863766514469006096987868659198284149169921875	20.680515655473801217567597632296383380889892578125	68.183381088825200322389719076454639434814453125	1.5017192013625699775758448595297522842884063720703125	688.5000020265570128685794770717620849609375	0.0	18048.83331060409909696318209171295166015625	0.0	1	1	1	1
5291	S6	2019	8	9	11	692.6307242509250272632925771176815032958984375	788.7916053909090123852365650236606597900390625	135.694164915579989383331849239766597747802734375	21.80693625301289984008690225891768932342529296875	62.5696529983785012518637813627719879150390625	1.267630060025719984651004779152572154998779296875	852.499996622402022694586776196956634521484375	0.0	21550.7117509841991704888641834259033203125	0.0	1	1	1	1
5292	S6	2019	8	9	12	749.9139943440750357694923877716064453125	801.881665462916998876607976853847503662109375	147.253618685404006782846408896148204803466796875	23.419166787465400147993932478129863739013671875	55.7961110750834023974675801582634449005126953125	0.62916667030917194924910518238903023302555084228515625	890.083337823549982203985564410686492919921875	0.0	22478.8879156112016062252223491668701171875	0.0	1	1	1	1
5293	S6	2019	8	9	13	760.6586271497930056284531019628047943115234375	753.705813174776949381339363753795623779296875	184.92626999749001015516114421188831329345703125	23.84777770572230082279929774813354015350341796875	53.56111116409299910401387023739516735076904296875	0.7063888903293340515432419124408625066280364990234375	922.166660428046952802105806767940521240234375	0.0	22655.0703048705981927923858165740966796875	0.0	1	1	1	1
5294	S6	2019	8	9	14	444.368915812174009261070750653743743896484375	107.1726398150120047603195416741073131561279296875	359.723863728841024567373096942901611328125	23.26472219891009984849006286822259426116943359375	55.41666670905210168029952910728752613067626953125	0.74833333616455399717182217500521801412105560302734375	476.91666583220199981951736845076084136962890625	0.0	12504.58468993499991483986377716064453125	0.0	1	1	1	1
5295	S6	2019	8	9	15	363.18326721191402839394868351519107818603515625	33.023471337556799198864609934389591217041015625	338.1772444831000257181585766375064849853515625	22.723888847562999870888233999721705913543701171875	59.37111121283629699973971582949161529541015625	0.8936111132303869997173251249478198587894439697265625	352.75000085433299545911722816526889801025390625	0.0	9737.381756305700037046335637569427490234375	0.0	1	1	1	1
5296	S6	2019	8	9	16	249.84791251288498870053444989025592803955078125	7.83886393523877966771351566421799361705780029296875	244.4709066602910070287180133163928985595703125	22.6875001801384001964834169484674930572509765625	59.9783333778380978174027404747903347015380859375	0.5147222256494889958133853724575601518154144287109375	229.499999433754993560796719975769519805908203125	0.0	6525.2202351887999611790291965007781982421875	0.0	1	1	1	1
5297	S6	2019	8	9	17	207.4677836673359934138716198503971099853515625	1.2719086954920999499307754376786760985851287841796875	206.333446792816999959541135467588901519775390625	22.34422554231019830695004202425479888916015625	60.69295772498760044300070148892700672149658203125	0.9923943665665639901618533258442766964435577392578125	192.333334436018986934868735261261463165283203125	0.0	5421.7629830042496905662119388580322265625	0.0	1	1	1	1
5298	S6	2019	8	9	18	151.173241403367001112201251089572906494140625	7.14288698434828983607758345897309482097625732421875	148.84123889075300439799320884048938751220703125	22.1138889100815987376336124725639820098876953125	58.51111101574360162658194894902408123016357421875	1.541944443848390022822059108875691890716552734375	137.666666259367985958306235261261463165283203125	0.0	3807.0525974035199396894313395023345947265625	0.0	1	1	1	1
5299	S6	2019	8	9	19	69.0259152094522931975006940774619579315185546875	0.39320481713447297256180945623782463371753692626953125	69.3438479635450022442455519922077655792236328125	21.115833250681500743439755751751363277435302734375	62.8741665946111965013187727890908718109130859375	1.872777776585679898602165849297307431697845458984375	58.0000011250375990812244708649814128875732421875	0.0	1660.051107406610071848263032734394073486328125	0.0	1	1	1	1
5300	S6	2019	8	9	20	24.51350323735049840934152598492801189422607421875	0.293484047004901993371817070510587655007839202880859375	24.836005922910299403838507714681327342987060546875	19.888513577950899247070992714725434780120849609375	71.17026991457549911501700989902019500732421875	1.8310810807790300902553326523047871887683868408203125	15.583333433217600116904577589593827724456787109375	0.0	485.63554657933599401076207868754863739013671875	0.0	1	1	1	1
5301	S6	2019	8	9	21	0	0	0	0	0	0	0	0.0	2.857450007771409783430272000259719789028167724609375	0.0	1	1	1	0
5302	S6	2019	8	9	22	0	0	0	0	0	0	0	0.0	0	0.0	1	1	1	0
5303	S6	2019	8	9	23	0	0	0	0	0	0	0	0.0	0	0.0	1	1	1	0
5304	S6	2019	8	9	24	0	0	0	0	0	0	0	0.0	0	0.0	1	1	1	0
5305	S6	2019	8	10	1	0	0	0	0	0	0	0	0.0	0	0.0	1	1	1	0
5306	S6	2019	8	10	2	0	0	0	0	0	0	0	0.0	0	0.0	1	1	1	0
5307	S6	2019	8	10	3	0	0	0	0	0	0	0	0.0	0	0.0	1	1	1	0
5308	S6	2019	8	10	4	0	0	0	0	0	0	0	0.0	0	0.0	1	1	1	0
5309	S6	2019	8	10	5	0	0	0	0	0	0	0.3333333491658330149931543928687460720539093017578125	0.0	0	0.0	1	1	1	0
5310	S6	2019	8	10	6	17.655253991102501487375775468535721302032470703125	0.43219534097573697462024711057893000543117523193359375	17.987793400756299178055996890179812908172607421875	18.8448713905790015132879489101469516754150390625	93.2897436679937044345933827571570873260498046875	3.674786325703310208012908333330415189266204833984375	12.083333567716000089831140940077602863311767578125	0.0	293.23296062648199722389108501374721527099609375	0.0	1	1	1	1
5311	S6	2019	8	10	7	53.47095959451460345235318527556955814361572265625	0.52391868167453303772873596244608052074909210205078125	53.533612145317903241448220796883106231689453125	19.307777706782001558849515276961028575897216796875	90.0005558649697974260561750270426273345947265625	3.754722224672629948827307089231908321380615234375	48.08333345378439815931415068916976451873779296875	0.0	1305.4413373271599994041025638580322265625	0.0	1	1	1	1
5312	S6	2019	8	10	8	101.0566203011400006062103784643113613128662109375	1.418134671863580109629765502177178859710693359375	100.39177163441900120233185589313507080078125	19.738055753707801187601944548077881336212158203125	86.0383334053886983383563347160816192626953125	2.733888891008160015871908399276435375213623046875	93.6666658769049007560170139186084270477294921875	0.0	2555.52730957668018163531087338924407958984375	0.0	1	1	1	1
5313	S6	2019	8	10	9	340.43319519564602160244248807430267333984375	185.1652129297580131606082431972026824951171875	241.81852965613001060773967765271663665771484375	21.4259258878876011067404760979115962982177734375	80.1982906374156954143472830764949321746826171875	1.867806262440149911441267249756492674350738525390625	338.7500022848449816592619754374027252197265625	0.0	9029.9921333789898199029266834259033203125	0.0	1	1	1	1
5314	S6	2019	8	10	10	537.6044766050390535383485257625579833984375	454.30740549419800800023949705064296722412109375	247.690267620664002379271551035344600677490234375	23.58242425051599866492324508726596832275390625	74.1721208052201035343387047760188579559326171875	1.8978787848443599006742488199961371719837188720703125	583.4166631102549445131444372236728668212890625	0.0	15001.768132050799977150745689868927001953125	0.0	1	1	1	1
5315	S6	2019	8	10	11	663.7541064416569724926375783979892730712890625	620.5406249417150092995143495500087738037109375	228.7697500354510111719719134271144866943359375	25.128443175447198854044472682289779186248779296875	65.242514433261106887584901414811611175537109375	1.559880236397960029393061631708405911922454833984375	755.0833423932390360278077423572540283203125	0.0	18918.43670606609884998761117458343505859375	0.0	1	1	1	1
5316	S6	2019	8	10	12	642.346592355281018171808682382106781005859375	561.0704182254020224718260578811168670654296875	222.951457107683012281995615921914577484130859375	26.15471137838159876309873652644455432891845703125	58.238905758843202420393936336040496826171875	2.25319148822033010759469107142649590969085693359375	745.3333288431140317698009312152862548828125	0.0	18149.296323458300321362912654876708984375	0.0	1	1	1	1
5317	S6	2019	8	10	13	494.8026443680900001709233038127422332763671875	330.448382712243983405642211437225341796875	242.47655601750699361218721605837345123291015625	25.183660158144800078616754035465419292449951171875	63.53986884721739869519296917133033275604248046875	3.35424836018894989564387287828139960765838623046875	609.499995907154016094864346086978912353515625	0.0	14757.720132668799124076031148433685302734375	0.0	1	1	1	1
5318	S6	2019	8	10	14	584.3326989582600390349398367106914520263671875	483.26770732680398623415385372936725616455078125	231.739162944611990724297356791794300079345703125	24.70178561551229989845523959957063198089599609375	61.5241072177885968130794935859739780426025390625	3.99970237343084011882865524967201054096221923828125	700.5833393583690167361055500805377960205078125	0.0	16891.49069289359977119602262973785400390625	0.0	1	1	1	1
5319	S6	2019	8	10	15	465.3305858519009916562936268746852874755859375	329.9099947538439892014139331877231597900390625	241.464672274705009158424218185245990753173828125	24.79725598707430123113226727582514286041259765625	57.8018292334021026590562541969120502471923828125	3.33719512511316995784227401600219309329986572265625	551.66666458050303845084272325038909912109375	0.0	13622.571130593600173597224056720733642578125	0.0	1	1	1	1
5320	S6	2019	8	10	16	332.40182451197898672035080380737781524658203125	166.055450352268991309756529517471790313720703125	230.9689721810190121686900965869426727294921875	24.53782878423989899374646483920514583587646484375	58.2746709773415005884089623577892780303955078125	2.757565785003329938973593016271479427814483642578125	341.166669192414019562420435249805450439453125	0.0	8892.14652031658988562412559986114501953125	0.0	1	1	1	1
5321	S6	2019	8	10	17	137.168353573903999631511396728456020355224609375	2.7622594392801698148787181708030402660369873046875	135.468684733140008802365628071129322052001953125	17.220912324158401673912521800957620143890380859375	95.5482890052939950464860885404050350189208984375	2.1068441070077899013313071918673813343048095703125	103.91666666449299327723565511405467987060546875	0.0	2880.56901469827016626368276774883270263671875	0.0	1	1	1	1
5322	S6	2019	8	10	18	174.245948387080005659299786202609539031982421875	187.413998289487011561504914425313472747802734375	113.2156400489260050790107925422489643096923828125	18.7747852412881996997384703718125820159912109375	92.4446992628212029785572667606174945831298828125	1.792836672511679996233624478918500244617462158203125	179.6666691079730071578524075448513031005859375	0.0	4434.32725220919019193388521671295166015625	0.0	1	1	1	1
5323	S6	2019	8	10	19	100.9313915220800055294603225775063037872314453125	178.812987475922994917709729634225368499755859375	70.888485347992201468514394946396350860595703125	20.0972144676781994121483876369893550872802734375	81.2476323374797999576912843622267246246337890625	1.9674094664685199962406159102101810276508331298828125	84.0833336114881007006260915659368038177490234375	0.0	1960.183014472320110144210048019886016845703125	0.0	1	1	1	1
5324	S6	2019	8	10	20	33.124833859895403520567924715578556060791015625	61.2948643875266014902081224136054515838623046875	29.01988073109610155597692937590181827545166015625	20.01376518836379858612417592667043209075927734375	76.8210529837048028412027633748948574066162109375	1.76639676214711993651462762500159442424774169921875	14.9999998490481001311991349211893975734710693359375	0.0	458.68295601879498235575738362967967987060546875	0.0	1	1	1	1
5325	S6	2019	8	10	21	0	0	0	0	0	0	0	0.0	4.14689172369744962765025775297544896602630615234375	0.0	1	1	1	0
5326	S6	2019	8	10	22	0	0	0	0	0	0	0	0.0	0	0.0	1	1	1	0
5327	S6	2019	8	10	23	0	0	0	0	0	0	0	0.0	0	0.0	1	1	1	0
5328	S6	2019	8	10	24	0	0	0	0	0	0	0	0.0	0	0.0	1	1	1	0
5329	S6	2019	8	11	1	0	0	0	0	0	0	0	0.0	0	0.0	1	1	1	0
5330	S6	2019	8	11	2	0	0	0	0	0	0	0	0.0	0	0.0	1	1	1	0
5331	S6	2019	8	11	3	0	0	0	0	0	0	0	0.0	0	0.0	1	1	1	0
5332	S6	2019	8	11	4	0	0	0	0	0	0	0	0.0	0	0.0	1	1	1	0
5333	S6	2019	8	11	5	15.87713888608490009346496663056313991546630859375	6.6990037056115898650432427530176937580108642578125	16.189015065706598761607892811298370361328125	18.292307721651500429516090662218630313873291015625	76.200000234750604022337938658893108367919921875	2.19999998991306000561962719075381755828857421875	2.5833333881261300035703243338502943515777587890625	0.0	101.8676167974859936293796636164188385009765625	0.0	1	1	1	0
5334	S6	2019	8	11	6	62.2022623909844014633563347160816192626953125	77.2761657926771050597380963154137134552001953125	52.587101475397702188274706713855266571044921875	18.366944625642499744344604550860822200775146484375	76.248888672722699766381992958486080169677734375	2.534444444047080136073191169998608529567718505859375	37.0833333581685025137630873359739780426025390625	0.0	1136.865562448889932056772522628307342529296875	0.0	1	1	1	1
5335	S6	2019	8	11	7	140.220898601594996080166311003267765045166015625	168.026367467833011914990493096411228179931640625	95.75942137521070662842248566448688507080078125	19.064804210343101686930822324939072132110595703125	73.5134081707320063969746115617454051971435546875	2.738547476976270100834653931087814271450042724609375	101.2500006084629973202027031220495700836181640625	0.0	2771.49022618928984229569323360919952392578125	0.0	1	1	1	1
5336	S6	2019	8	11	8	285.23849480410598289381596259772777557373046875	325.98262529075100246700458228588104248046875	160.37517441898899051011539995670318603515625	19.841566258166199787638106499798595905303955078125	70.922590508518396745785139501094818115234375	2.855120483112620011212356985197402536869049072265625	252.333331232270012378648971207439899444580078125	0.0	6951.85928046702974825166165828704833984375	0.0	1	1	1	1
5337	S6	2019	8	11	9	340.58159188966402552978252060711383819580078125	245.79721133939500532505917362868785858154296875	210.833270253361007462444831617176532745361328125	20.171621580381600580267331679351627826690673828125	68.32297286471799679929972626268863677978515625	3.593918914629799843396540381945669651031494140625	334.3333366016549916821531951427459716796875	0.0	9283.76347819964939844794571399688720703125	0.0	1	1	1	1
5338	S6	2019	8	11	10	507.95128860743199084026855416595935821533203125	487.8491620008600193614256568253040313720703125	202.4409000679789869536762125790119171142578125	20.79434610508349834390173782594501972198486328125	64.332508788091899987193755805492401123046875	3.72897525832004017587451016879640519618988037109375	555.1666716734570172775420360267162322998046875	0.0	14500.781238079000104335136711597442626953125	0.0	1	1	1	1
5339	S6	2019	8	11	11	494.5833325338199983889353461563587188720703125	256.82779900506602643872611224651336669921875	313.11688696819800270532141439616680145263671875	21.375585275350200475941164768300950527191162109375	62.31203992709659900128826848231256008148193359375	3.556856192872670074933694195351563394069671630859375	512.416668236254963630926795303821563720703125	0.0	13290.295392274800178711302578449249267578125	0.0	1	1	1	1
5340	S6	2019	8	11	12	586.459604423276005036314018070697784423828125	391.10565575303502328097238205373287200927734375	293.5978266562179896936868317425251007080078125	21.76580643807680104373503127135336399078369140625	61.54387092590329899621792719699442386627197265625	3.44516129157234995972203250858001410961151123046875	640.9999951720229773854953236877918243408203125	0.0	16779.81847524640033952891826629638671875	0.0	1	1	1	1
5341	S6	2019	8	11	13	547.7470405724390047907945699989795684814453125	261.12487398790898396327975206077098846435546875	346.44726285509199215084663592278957366943359375	22.4614649244173989472983521409332752227783203125	58.38248431454790221550865680910646915435791015625	3.38949044456906989353228709660470485687255859375	583.666662375130954387714155018329620361328125	0.0	14537.693311770699438056908547878265380859375	0.0	1	1	1	1
5342	S6	2019	8	11	14	646.6447857856750260907574556767940521240234375	504.81706678157200940404436551034450531005859375	274.8389597415920206913142465054988861083984375	22.875000047683698767286841757595539093017578125	55.86531260013580180157077847979962825775146484375	3.80624999254940998838492305367253720760345458984375	784.49999541044599027372896671295166015625	0.0	19505.62516848239829414524137973785400390625	0.0	1	1	1	1
5343	S6	2019	8	11	15	515.66119172426397199160419404506683349609375	385.54568911278698806199827231466770172119140625	253.29972355419698715195409022271633148193359375	22.825889963933899906578517402522265911102294921875	54.6417473604764012407031259499490261077880859375	3.63042070757609014464151186984963715076446533203125	586.1666724085799842214328236877918243408203125	0.0	14575.42677720380015671253204345703125	0.0	1	1	1	1
5344	S6	2019	8	11	16	544.4457793451859970446093939244747161865234375	580.21755287366295306128449738025665283203125	210.51288832926599070560769177973270416259765625	23.088821555192300394310223055072128772735595703125	51.82356508837000319545040838420391082763671875	3.251057403595420058906029225909151136875152587890625	659.83333190282201030640862882137298583984375	0.0	16482.166369755999767221510410308837890625	0.0	1	1	1	1
5345	S6	2019	8	11	17	324.56208464614297781736240722239017486572265625	301.12858272725998176611028611660003662109375	184.721099766072001102656940929591655731201171875	22.6051574586796988342030090279877185821533203125	50.7676216715727974815308698453009128570556640625	3.022349561524590111361021627089940011501312255859375	354.99999796350601855010609142482280731201171875	0.0	8952.597320079790733871050179004669189453125	0.0	1	1	1	1
5346	S6	2019	8	11	18	231.496946483187997500863275490701198577880859375	215.02198382483499017325812019407749176025390625	159.59951265123100938581046648323535919189453125	22.05416665607020121342429774813354015350341796875	51.9816665543449971664813347160816192626953125	2.5616666716005997983529596240259706974029541015625	237.66666650772100410904386080801486968994140625	0.0	5934.03304119903987157158553600311279296875	0.0	1	1	1	1
5347	S6	2019	8	11	19	114.7484108077150040116976015269756317138671875	158.5356820861489950402756221592426300048828125	85.6168487654791050545100006274878978729248046875	21.4147222518920017364507657475769519805908203125	54.6399997711180986925683100707828998565673828125	2.192500001688789890152975203818641602993011474609375	100.166666321456006016887840814888477325439453125	0.0	2352.7814025680199847556650638580322265625	0.0	1	1	1	1
5348	S6	2019	8	11	20	24.68920391287119997514309943653643131256103515625	18.054588199087501010353662422858178615570068359375	23.38275687694540039274215814657509326934814453125	20.364285755157400359394159750081598758697509765625	58.0103572572979970800588489510118961334228515625	1.8649999980415599143412919147522188723087310791015625	13.750000071013399605135418823920190334320068359375	0.0	405.698289629073997275554575026035308837890625	0.0	1	1	1	1
5349	S6	2019	8	11	21	0	0	0	0	0	0	0	0.0	0.88013336062431601902744660037569701671600341796875	0.0	1	1	1	0
5350	S6	2019	8	11	22	0	0	0	0	0	0	0	0.0	0	0.0	1	1	1	0
5351	S6	2019	8	11	23	0	0	0	0	0	0	0	0.0	0	0.0	1	1	1	0
5352	S6	2019	8	11	24	0	0	0	0	0	0	0	0.0	0	0.0	1	1	1	0
5353	S6	2019	8	12	1	0	0	0	0	0	0	0	0.0	0	0.0	1	1	1	0
5354	S6	2019	8	12	2	0	0	0	0	0	0	0	0.0	0	0.0	1	1	1	0
5355	S6	2019	8	12	3	0	0	0	0	0	0	0	0.0	0	0.0	1	1	1	0
5356	S6	2019	8	12	4	0	0	0	0	0	0	0	0.0	0	0.0	1	1	1	0
5357	S6	2019	8	12	5	4.619899141161059930027477093972265720367431640625	1.1602574769864999471025157617987133562564849853515625	4.75852558069060993517496171989478170871734619140625	17.803508290073299491496072732843458652496337890625	80.422806589226894402600009925663471221923828125	1.2368421104916300645726323637063615024089813232421875	1.083333345983799933520685954135842621326446533203125	0.0	26.97575045749550071150224539451301097869873046875	0.0	1	1	1	0
5358	S6	2019	8	12	6	30.0879858718977999387789168395102024078369140625	2.5928875545660599044595073792152106761932373046875	30.09593718581719912208427558653056621551513671875	17.89583303133640157511763391084969043731689453125	80.8191664589775058402665308676660060882568359375	1.5558333271907400785494246520102024078369140625	26.666666924332499633010229445062577724456787109375	0.0	751.9481390093759500814485363662242889404296875	0.0	1	1	1	1
5359	S6	2019	8	12	7	169.7641173044839888461865484714508056640625	310.2787841983960106517770327627658843994140625	88.328066974216000062369857914745807647705078125	18.760555707083799603651641518808901309967041015625	77.5644442028469001115809078328311443328857421875	1.9394444438318398926668351123225875198841094970703125	111.58333377291700116984429769217967987060546875	0.0	3157.16786434251980608678422868251800537109375	0.0	1	1	1	1
5360	S6	2019	8	12	8	327.33295035761801727858255617320537567138671875	548.445163364516020010341890156269073486328125	115.4481876522460055412011570297181606292724609375	20.05698312727430021595864673145115375518798828125	70.5268155742624003323726356029510498046875	2.121229046300129983393389920820482075214385986328125	287.75000075499298191061825491487979888916015625	0.0	7889.3862664699599918094463646411895751953125	0.0	1	1	1	1
5361	S6	2019	8	12	9	465.699376158783024948206730186939239501953125	639.1423669324400407276698388159275054931640625	139.416898732944986250004149042069911956787109375	20.986956565967499699354448239319026470184326171875	63.9165216749992026734616956673562526702880859375	2.499999999740840195272539858706295490264892578125	472.24999715884501938489847816526889801025390625	0.0	12949.449181556599796749651432037353515625	0.0	1	1	1	1
5362	S6	2019	8	12	10	457.15643480644797591594397090375423431396484375	419.85787557368297484572394751012325286865234375	202.70532816902499462230480276048183441162109375	21.513442661723100712833911529742181301116943359375	60.592786770179600353003479540348052978515625	2.732131147384639913155979229486547410488128662109375	496.16666634877498154310160316526889801025390625	0.0	13172.2471714019993669353425502777099609375	0.0	1	1	1	1
5363	S6	2019	8	12	11	637.718256773772054657456465065479278564453125	611.30887827176002247142605483531951904296875	208.666215402108008447612519375979900360107421875	22.071604946513200928848164039663970470428466796875	60.23518496383849907260810141451656818389892578125	2.625617288328979892497727632871828973293304443359375	742.6666642228750561116612516343593597412109375	0.0	18899.7542858123997575603425502777099609375	0.0	1	1	1	1
5364	S6	2019	8	12	12	703.04638962072795038693584501743316650390625	616.18143494098103474243544042110443115234375	245.803671152313000902722706086933612823486328125	22.6052146630783994396551861427724361419677734375	57.3085887534486033700886764563620090484619140625	2.822085884359709861968212862848304212093353271484375	821.49999588727905575069598853588104248046875	0.0	20964.5712773004997870884835720062255859375	0.0	1	1	1	1
5365	S6	2019	8	12	13	696.84234782460998758324421942234039306640625	564.777173858579999432549811899662017822265625	271.03858373799397440961911343038082122802734375	22.9003057684007984562413184903562068939208984375	56.22966366222510004035939346067607402801513671875	2.800611621013839869220873879385180771350860595703125	815.999994675323023329838179051876068115234375	0.0	20467.0915106932006892748177051544189453125	0.0	1	1	1	1
5366	S6	2019	8	12	14	371.28103002954702560600708238780498504638671875	212.375450029468993307091295719146728515625	211.655310083607986371134757064282894134521484375	21.54426245611220025466536753810942173004150390625	63.47786851789130224688051384873688220977783203125	2.39754097945376987155441383947618305683135986328125	307.666666495302024486591108143329620361328125	0.0	7999.9122793475899015902541577816009521484375	0.0	1	1	1	1
5367	S6	2019	8	12	15	334.85731769583998129746760241687297821044921875	159.33553679836398941915831528604030609130859375	222.591834174262004353295196779072284698486328125	19.490643367432699761820913408882915973663330078125	77.5514619392261010943911969661712646484375	2.108771928482580104713406399241648614406585693359375	400.083332012098026098101399838924407958984375	0.0	10271.315937240900893812067806720733642578125	0.0	1	1	1	1
5368	S6	2019	8	12	16	304.6374643894660039222799241542816162109375	270.56367247472797998852911405265331268310546875	161.00334137364399111902457661926746368408203125	19.87105259978979887591776787303388118743896484375	73.1421055375484030491861631162464618682861328125	2.25175439056596982112523619434796273708343505859375	397.66666603585002803811221383512020111083984375	0.0	10249.488281706899215350858867168426513671875	0.0	1	1	1	1
5369	S6	2019	8	12	17	414.1887156877010056632570922374725341796875	700.8280420329909929932910017669200897216796875	98.3093461273108033537937444634735584259033203125	21.754038627433200048244543722830712795257568359375	58.850417772043300601580995135009288787841796875	2.541225630094739784681223682127892971038818359375	491.49999767541902429002220742404460906982421875	0.0	12019.22748486199998296797275543212890625	0.0	1	1	1	1
5370	S6	2019	8	12	18	265.8850205250270164469839073717594146728515625	587.32352312202101529692299664020538330078125	80.0890918525195019128659623675048351287841796875	21.461538320253300327067336183972656726837158203125	56.350712170288403513040975667536258697509765625	2.52421652353725978201737234485335648059844970703125	277.1666646003719733926118351519107818603515625	0.0	6371.682653824480439652688801288604736328125	0.0	1	1	1	1
5371	S6	2019	8	12	19	120.230971166822001805485342629253864288330078125	365.088884570863001499674282968044281005859375	52.09251523547700202243504463694989681243896484375	20.78611112170739971816146862693130970001220703125	50.61055541568330085056004463694989681243896484375	2.41416665373577021824758048751391470432281494140625	100.0833345266679970109180430881679058074951171875	0.0	2085.8929082751201349310576915740966796875	0.0	1	1	1	1
5372	S6	2019	8	12	20	24.533916211809401630716820363886654376983642578125	24.5387099252427987039482104592025279998779296875	23.1598663439068985780977527610957622528076171875	19.646285760061999781100894324481487274169921875	54.06571428571420057096474920399487018585205078125	2.29542856693266994483337839483283460140228271484375	9.33333339829300001611045445315539836883544921875	0.0	328.72707683903598763208719901740550994873046875	0.0	1	1	1	1
5373	S6	2019	8	12	21	0	0	0	0	0	0	0	0.0	0	0.0	1	1	1	0
5374	S6	2019	8	12	22	0	0	0	0	0	0	0	0.0	0	0.0	1	1	1	0
5375	S6	2019	8	12	23	0	0	0	0	0	0	0	0.0	0	0.0	1	1	1	0
5376	S6	2019	8	12	24	0	0	0	0	0	0	0	0.0	0	0.0	1	1	1	0
5377	S6	2019	8	13	1	0	0	0	0	0	0	0	0.0	0	0.0	1	1	1	0
5378	S6	2019	8	13	2	0	0	0	0	0	0	0	0.0	0	0.0	1	1	1	0
5379	S6	2019	8	13	3	0	0	0	0	0	0	0	0.0	0	0.0	1	1	1	0
5380	S6	2019	8	13	4	0	0	0	0	0	0	0	0.0	0	0.0	1	1	1	0
5381	S6	2019	8	13	5	0.157161376439033995122684927991940639913082122802734375	0.317856334149836994296123293679556809365749359130859375	0.1516091255471110066377349312460864894092082977294921875	13.9249997138976997490544817992486059665679931640625	90.6249980926512961332264239899814128875732421875	0.450000010430812003026090906132594682276248931884765625	0	0.0	0	0.0	1	1	1	0
5382	S6	2019	8	13	6	21.145217759726801176611843402497470378875732421875	0.35270961497663899653076668982976116240024566650390625	21.256681259437499420528183691203594207763671875	14.0085201776615004831683108932338654994964599609375	93.0946187588130982248912914656102657318115234375	0.93587444154670895724024148876196704804897308349609375	12.9999998413646000727794671547599136829376220703125	0.0	361.83718529840399469321710057556629180908203125	0.0	1	1	1	1
5383	S6	2019	8	13	7	71.0484316190082978437203564681112766265869140625	0.59605167085925703229776217995095066726207733154296875	71.31802190144850328579195775091648101806640625	14.4327777438693001244018887518905103206634521484375	90.1505554623073948050659964792430400848388671875	0.83583333608176901829978078239946626126766204833984375	65.3333334873122026920100324787199497222900390625	0.0	1861.64880295594002745929174125194549560546875	0.0	1	1	1	1
5384	S6	2019	8	13	8	149.75980727937400160953984595835208892822265625	4.12282302031913960860265433439053595066070556640625	148.188959418401992707003955729305744171142578125	15.390000089009600259259968879632651805877685546875	87.5894442240396955412506940774619579315185546875	0.9505555575920470179340782124199904501438140869140625	134.250001671413002668487024493515491485595703125	0.0	3831.856104234830127097666263580322265625	0.0	1	1	1	1
5385	S6	2019	8	13	9	47.4907797288748980690797907300293445587158203125	0.35783926871574001093989636501646600663661956787109375	47.38574492677719973698913236148655414581298828125	14.85896658390119995374334394000470638275146484375	90.31033394764250488151446916162967681884765625	0.54832827039402598501283137011341750621795654296875	38.33333309739810346172816934995353221893310546875	0.0	1087.901672658819961725384928286075592041015625	0.0	1	1	1	1
5386	S6	2019	8	13	10	316.21625566079501368221826851367950439453125	55.999483605589603030239231884479522705078125	276.92730530214902273655752651393413543701171875	15.662253511455599408463967847637832164764404296875	87.6338029458488989575926098041236400604248046875	0.8721126771309000158538538016728125512599945068359375	325.1666687428950126559357158839702606201171875	0.0	8812.012876073569714208133518695831298828125	0.0	1	1	1	1
5387	S6	2019	8	13	11	291.12866139049498315216624177992343902587890625	17.212028503225401010467976448126137256622314453125	276.79665026911101222140132449567317962646484375	16.504559282111500806422554887831211090087890625	83.748024334661096190757234580814838409423828125	1.1844984811127698964838828032952733337879180908203125	263.8333352903520108156953938305377960205078125	0.0	7452.3538847764602905954234302043914794921875	0.0	1	1	1	1
5388	S6	2019	8	13	12	352.02749159071100848450441844761371612548828125	7.39589233365323028834836804890073835849761962890625	344.082556830511975931585766375064849853515625	16.820000129275801015182878472842276096343994140625	82.6633337656655982073061750270426273345947265625	1.264722222255330041917886774172075092792510986328125	346.33333235979097253220970742404460906982421875	0.0	9711.7591301600405131466686725616455078125	0.0	1	1	1	1
5389	S6	2019	8	13	13	242.029687998844991625446709804236888885498046875	7.33892336282162016658503489452414214611053466796875	235.200154729989009183555026538670063018798828125	16.091538465940001145781934610567986965179443359375	83.69769287109369315658113919198513031005859375	1.5149999993351699334453996925731189548969268798828125	187.99999977151600205615977756679058074951171875	0.0	5440.961236755059871939010918140411376953125	0.0	1	1	1	1
5390	S6	2019	8	13	14	252.68464375099898688858957029879093170166015625	2.9145520787266701034923244151286780834197998046875	248.884069052356011297888471744954586029052734375	16.85146197380370125529225333593785762786865234375	78.3845033478317958497427753172814846038818359375	1.8266081830039999633896741215721704065799713134765625	233.66666771471500396728515625	0.0	6850.245078404739615507423877716064453125	0.0	1	1	1	1
5391	S6	2019	8	13	15	198.194011163174991452251560986042022705078125	0.86448782575682903139835389083600603044033050537109375	197.254674761481993527922895736992359161376953125	17.136236078283701544933137483894824981689453125	74.7384829574755968906174530275166034698486328125	1.9308988779280900072166105019277893006801605224609375	176.666665201384006422813399694859981536865234375	0.0	5166.38287156817023060284554958343505859375	0.0	1	1	1	1
5392	S6	2019	8	13	16	217.752536405999990165582858026027679443359375	0.86063850580164802384075528607354499399662017822265625	217.23852274791300942524685524404048919677734375	15.4963855456156007761592263705097138881683349609375	82.2168677456406982173575670458376407623291015625	2.142168671521070155705501747434027493000030517578125	199.83333473404098867831635288894176483154296875	0.0	5836.4564081032904141466133296489715576171875	0.0	1	1	1	1
5393	S6	2019	8	13	17	125.6420120669749991293429047800600528717041015625	0.465812251228710005879207756152027286589145660400390625	125.358482384756001692949212156236171722412109375	15.7536052207587999873794615268707275390625	80.1000003635322030959287076257169246673583984375	2.168338550015299848183758513187058269977569580078125	107.4166673546030068564505199901759624481201171875	0.0	3116.563476622090092860162258148193359375	0.0	1	1	1	1
5394	S6	2019	8	13	18	145.269655206468002006658934988081455230712890625	111.793856885862993522096076048910617828369140625	116.2556771808200011264489148743450641632080078125	15.4677777979108999062418661196716129779815673828125	79.258333290947803106973879039287567138671875	2.0302777777943301629193229018710553646087646484375	141.999999061226986896144808270037174224853515625	0.0	3769.9024776617798124789260327816009521484375	0.0	1	1	1	1
5395	S6	2019	8	13	19	114.80922192467500053680851124227046966552734375	225.647793747484001869452185928821563720703125	73.6042217572530006464148755185306072235107421875	16.23888895246710006858847918920218944549560546875	77.3688888125949034701989148743450641632080078125	1.865277776453230007547290369984693825244903564453125	96.9166662544003969514960772357881069183349609375	0.0	2278.06138495604000127059407532215118408203125	0.0	1	1	1	1
5396	S6	2019	8	13	20	38.0267344163489013908474589698016643524169921875	148.749714201595992335569462738931179046630859375	28.30785606068030091364562395028769969940185546875	15.994300614984499731008327216841280460357666015625	76.730569671472693471514503471553325653076171875	1.74041450888381010742023136117495596408843994140625	12.7500001011260000183256124728359282016754150390625	0.0	423.28062265490797244638088159263134002685546875	0.0	1	1	1	0
5397	S6	2019	8	13	21	0	0	0	0	0	0	0	0.0	0	0.0	1	1	1	0
5398	S6	2019	8	13	22	0	0	0	0	0	0	0	0.0	0	0.0	1	1	1	0
5399	S6	2019	8	13	23	0	0	0	0	0	0	0	0.0	0	0.0	1	1	1	0
5400	S6	2019	8	13	24	0	0	0	0	0	0	0	0.0	0	0.0	1	1	1	0
5401	S6	2019	8	14	1	0	0	0	0	0	0	0	0.0	0	0.0	1	1	1	0
5402	S6	2019	8	14	2	0	0	0	0	0	0	0	0.0	0	0.0	1	1	1	0
5403	S6	2019	8	14	3	0	0	0	0	0	0	0	0.0	0	0.0	1	1	1	0
5404	S6	2019	8	14	4	0	0	0	0	0	0	0	0.0	0	0.0	1	1	1	0
5405	S6	2019	8	14	5	12.2586135201983008613524361862801015377044677734375	38.94632146341930223343297257088124752044677734375	11.705177730984100747946285991929471492767333984375	11.6388890345891002908729205955751240253448486328125	85.126388549804602234871708787977695465087890625	0.594444450818830016913807412493042647838592529296875	1.6666667264265300207881637106765992939472198486328125	0.0	78.194440730536797445893171243369579315185546875	0.0	1	1	1	0
5406	S6	2019	8	14	6	60.80404745207889760649777599610388278961181640625	222.320995267232007108759717084467411041259765625	35.8803266127903981441704672761261463165283203125	12.7372222476535004176412257947959005832672119140625	84.7349998897976064426984521560370922088623046875	0.9586111124191010190997985773719847202301025390625	25.666666838030000263870533672161400318145751953125	0.0	925.6854181488359927243436686694622039794921875	0.0	1	1	1	1
5407	S6	2019	8	14	7	164.9068759706279934107442386448383331298828125	375.32472718225500329936039634048938751220703125	78.3773103078205934934885590337216854095458984375	14.25833331214050048174613039009273052215576171875	80.8433332231308980908579542301595211029052734375	1.258611110515059916536984019330702722072601318359375	94.5833331594865995839427341707050800323486328125	0.0	2919.812346498159968177787959575653076171875	0.0	1	1	1	1
5408	S6	2019	8	14	8	254.581572317478986633432214148342609405517578125	279.058023643525984880398027598857879638671875	141.78216863010499082520254887640476226806640625	15.430083649404199519494795822538435459136962890625	78.8323118587057933837058953940868377685546875	1.4387186617904299534842493812902830541133880615234375	232.083331793546989274545921944081783294677734375	0.0	6540.4098083575599957839585840702056884765625	0.0	1	1	1	1
5409	S6	2019	8	14	9	441.61387275501198246274725534021854400634765625	589.2852777381109490306698717176914215087890625	146.663353852441986191479372791945934295654296875	16.56685548733710078295189305208623409271240234375	72.185552537610107037835405208170413970947265625	2.212747870778219994036817297455854713916778564453125	459.50000236431600342257297597825527191162109375	0.0	12684.917648633299904759041965007781982421875	0.0	1	1	1	1
5410	S6	2019	8	14	10	566.283179160275949470815248787403106689453125	577.208978280036035357625223696231842041015625	210.574265181652009459867258556187152862548828125	17.565644164758200673759347409941256046295166015625	63.82637995152379772889617015607655048370361328125	2.4803680982326401505133617320097982883453369140625	624.9999975164729448806610889732837677001953125	0.0	16734.22491550440099672414362430572509765625	0.0	1	1	1	1
5411	S6	2019	8	14	11	602.9833967262339911030721850693225860595703125	568.174047660603946496848948299884796142578125	211.747606746874993177698343060910701751708984375	18.136760135306001728849878418259322643280029296875	58.5308411500163998653079033829271793365478515625	2.237383169641370184166362378164194524288177490234375	671.250003079572024944354780018329620361328125	0.0	17853.60517104460086557082831859588623046875	0.0	1	1	1	1
5412	S6	2019	8	14	12	455.38649607927300166920758783817291259765625	301.40205884236701194822671823203563690185546875	229.938020608364013241953216493129730224609375	17.55416667767060090454833698458969593048095703125	61.79166658108049858810773002915084362030029296875	2.086538459914609955347941649961285293102264404296875	529.66666345795101733529008924961090087890625	0.0	14201.996594667400131584145128726959228515625	0.0	1	1	1	1
5413	S6	2019	8	14	13	544.984767397638051988906227052211761474609375	460.8294833483470256396685726940631866455078125	195.606144920827006217223242856562137603759765625	17.9036303731081005707892472855746746063232421875	63.1264026881051023565305513329803943634033203125	1.3726072589753000041667974073789082467555999755859375	577.66666884223695888067595660686492919921875	0.0	14972.696334123500491841696202754974365234375	0.0	1	1	1	1
5414	S6	2019	8	14	14	543.6499982175570266917929984629154205322265625	480.2474570196400236454792320728302001953125	191.67933995744800768079585395753383636474609375	18.96769935050890154570879531092941761016845703125	55.02212413011390168549041845835745334625244140625	2.032743359034039798416415578685700893402099609375	468.9999967813499779367703013122081756591796875	0.0	12120.824893315599183551967144012451171875	0.0	1	1	1	1
5415	S6	2019	8	14	15	561.415274143218994140625	464.910481258209983934648334980010986328125	257.1387677192680030202609486877918243408203125	16.913068126548399305875136633403599262237548828125	66.740624839609296259368420578539371490478515625	2.401136356659910209288000260130502283573150634765625	677.6666715741149573659640736877918243408203125	0.0	17318.86003414789956877939403057098388671875	0.0	1	1	1	1
5416	S6	2019	8	14	16	499.14359588623000263396534137427806854248046875	561.5718361588880043200333602726459503173828125	180.828082972934993222224875353276729583740234375	18.895142789568200925032215309329330921173095703125	55.90999995640339648161898367106914520263671875	2.798857142840109890613575771567411720752716064453125	583.500000337759047397412359714508056640625	0.0	14653.2212694486006512306630611419677734375	0.0	1	1	1	1
5417	S6	2019	8	14	17	395.841080013640976176247932016849517822265625	578.3076496008079629973508417606353759765625	139.28788528873400309748831205070018768310546875	19.10762726519740084540899260900914669036865234375	54.6491527988412002514451160095632076263427734375	3.105932195476210022633267726632766425609588623046875	461.33333692948002635603188537061214447021484375	0.0	11466.7445123194993357174098491668701171875	0.0	1	1	1	1
5418	S6	2019	8	14	18	283.89014737432802348848781548440456390380859375	584.864449527676015350152738392353057861328125	101.04534251463400096326950006186962127685546875	18.78687159042780052686794078908860683441162109375	57.71815644162990110999089665710926055908203125	2.322067035476579999198065706877969205379486083984375	305.91666946808499005783232860267162322998046875	0.0	7192.0725206534198150620795786380767822265625	0.0	1	1	1	1
5419	S6	2019	8	14	19	75.63067037794320413013338111340999603271484375	101.34141567100999736794619821012020111083984375	57.15825092527600048697422607801854610443115234375	17.548333157433400941727086319588124752044677734375	62.92333340115010287263430655002593994140625	1.4036111083295599311071555348462425172328948974609375	64.9166664419071963720853091217577457427978515625	0.0	1612.3030073940599322668276727199554443359375	0.0	1	1	1	1
5420	S6	2019	8	14	20	31.980588759406099796933631296269595623016357421875	66.9254617596750023267304641194641590118408203125	27.464675165165598258454338065348565578460693359375	17.18135567573499855598129215650260448455810546875	64.1062145340913929203452426008880138397216796875	0.74406780142568595959318145105498842895030975341796875	10.4999999651530000477350768051110208034515380859375	0.0	351.39584413263702344920602627098560333251953125	0.0	1	1	1	1
5421	S6	2019	8	14	21	0	0	0	0	0	0	0	0.0	0	0.0	1	1	1	0
5422	S6	2019	8	14	22	0	0	0	0	0	0	0	0.0	0	0.0	1	1	1	0
5423	S6	2019	8	14	23	0	0	0	0	0	0	0	0.0	0	0.0	1	1	1	0
5424	S6	2019	8	14	24	0	0	0	0	0	0	0	0.0	0	0.0	1	1	1	0
5425	S6	2019	8	15	1	0	0	0	0	0	0	0	0.0	0	0.0	1	1	1	0
5426	S6	2019	8	15	2	0	0	0	0	0	0	0	0.0	0	0.0	1	1	1	0
5427	S6	2019	8	15	3	0	0	0	0	0	0	0	0.0	0	0.0	1	1	1	0
5428	S6	2019	8	15	4	0	0	0	0	0	0	0	0.0	0	0.0	1	1	1	0
5429	S6	2019	8	15	5	1.5626025944948100931952694736537523567676544189453125	0.390659016370772993465010358704603277146816253662109375	1.61368561983108005364329073927365243434906005859375	15.075000238418500231318830628879368305206298828125	76.6699996948241988548033987171947956085205078125	0.8250000014901159861580026699812151491641998291015625	0.3333333491658250213873770917416550219058990478515625	0.0	3.106783338201549948820456847897730767726898193359375	0.0	1	1	1	0
5430	S6	2019	8	15	6	26.894237551689098353335793945007026195526123046875	0.50232366178716902904710650545894168317317962646484375	27.0137574665887001401642919518053531646728515625	15.7237142399378999613190899253822863101959228515625	77.0531428309848962499017943628132343292236328125	1.70257142620426993318005770561285316944122314453125	24.83333321288230166601351811550557613372802734375	0.0	684.117690660061043672612868249416351318359375	0.0	1	1	1	1
5431	S6	2019	8	15	7	109.10539182027099514016299508512020111083984375	17.2464250433775987403350882232189178466796875	104.5968342251239988627276034094393253326416015625	17.262777805328301639065102790482342243194580078125	72.80444475809730420223786495625972747802734375	2.827777771486169822168221799074672162532806396484375	95.2500005563104963357545784674584865570068359375	0.0	2747.37012386322021484375	0.0	1	1	1	1
5432	S6	2019	8	15	8	211.686404885185993407503701746463775634765625	67.7862050852840951620237319730222225189208984375	187.51298611958799256171914748847484588623046875	18.248888651529899362913056393153965473175048828125	65.8788890202840065057898755185306072235107421875	2.141111105514890144974060603999532759189605712890625	187.166664749384011656729853712022304534912109375	0.0	5416.028608878479644772596657276153564453125	0.0	1	1	1	1
5433	S6	2019	8	15	9	219.066371197170013829236268065869808197021484375	18.4088965627882004127968684770166873931884765625	209.031581454806001829638262279331684112548828125	18.566111066606300283865493838675320148468017578125	64.2255554199218039457264239899814128875732421875	2.221944437175980002763253651210106909275054931640625	204.666665444768995030244695954024791717529296875	0.0	5857.75060455003040260635316371917724609375	0.0	1	1	1	1
5434	S6	2019	8	15	10	332.45404925876101742687751539051532745361328125	106.82269754848499587751575745642185211181640625	264.13417460123599767030100338160991668701171875	18.909444363911898534524880233220756053924560546875	62.66944440205890032302704639732837677001953125	2.56805555091963011449252007878385484218597412109375	346.16666783889098724102950654923915863037109375	0.0	9701.028416554099749191664159297943115234375	0.0	1	1	1	1
5435	S6	2019	8	15	11	376.16657501611899760973756201565265655517578125	18.11461229993690125184002681635320186614990234375	360.19164809202499100138084031641483306884765625	18.10897438342750120909840916283428668975830078125	66.296153802138093169560306705534458160400390625	3.182051276931389782731685045291669666767120361328125	341.41666566332099819192080758512020111083984375	0.0	9714.65660631657010526396334171295166015625	0.0	1	1	1	1
5436	S6	2019	8	15	12	255.565018081664987903423025272786617279052734375	11.9098464816808000676928713801316916942596435546875	244.6267727110119949429645203053951263427734375	18.458333365122399527535890229046344757080078125	59.73000009324810122279814095236361026763916015625	4.110277774598859679144879919476807117462158203125	242.999995748201996548232273198664188385009765625	0.0	6823.0063915252603692351840436458587646484375	0.0	1	1	1	1
5437	S6	2019	8	15	13	147.1811575359760126957553438842296600341796875	0.664087500671544983532612604903988540172576904296875	146.061865086024994297986268065869808197021484375	17.45333340962719859135177102871239185333251953125	65.675000127156494045266299508512020111083984375	4.4869444456365297213551457389257848262786865234375	134.500000625848002755446941591799259185791015625	0.0	3958.17177494365978418500162661075592041015625	0.0	1	1	1	1
5438	S6	2019	8	15	14	120.08077201457899718661792576313018798828125	0.5348872328898319761236734848353080451488494873046875	119.1170513782430049332106136716902256011962890625	16.052525369406499322622039471752941608428955078125	82.8013467242821974423350184224545955657958984375	3.814478103159249844367195692029781639575958251953125	110.750000302990002865044516511261463165283203125	0.0	3321.1722026268498666468076407909393310546875	0.0	1	1	1	1
5439	S6	2019	8	15	15	150.189368650647992353697190992534160614013671875	0.692297251688108961076295599923469126224517822265625	149.381583722431997784951818175613880157470703125	15.7877777841355992904937011189758777618408203125	90.17222230699320562052889727056026458740234375	2.916111101210109968207007113960571587085723876953125	135.916667059062007183456444181501865386962890625	0.0	3958.72856676579021950601600110530853271484375	0.0	1	1	1	1
5440	S6	2019	8	15	16	84.6957490179272980412861215882003307342529296875	0.54520419802930597530377099246834404766559600830078125	84.4090542369417988766144844703376293182373046875	15.874999872843400083866072236560285091400146484375	92.58611191643609572565765120089054107666015625	2.784444434609670171454354203888215124607086181640625	78.666666522622193724600947462022304534912109375	0.0	2280.1258514324799762107431888580322265625	0.0	1	1	1	1
5441	S6	2019	8	15	17	95.2945937262640967446714057587087154388427734375	0.58592075126038600796363198242033831775188446044921875	95.1744671079846966676996089518070220947265625	16.403333271874299015280485036782920360565185546875	91.774444325764903851450071670114994049072265625	2.664999995297849810782508939155377447605133056640625	87.0833328614630062247670139186084270477294921875	0.0	2515.26572306951993596157990396022796630859375	0.0	1	1	1	1
5442	S6	2019	8	15	18	64.6267868571811021638495731167495250701904296875	0.48796512397627000989785983620095066726207733154296875	64.53443407482569682542816735804080963134765625	16.759999963972301628700733999721705913543701171875	90.3594439612493971480944310314953327178955078125	2.43944444441132990419873749488033354282379150390625	58.7500010927517024583721649833023548126220703125	0.0	1645.42569716771004095789976418018341064453125	0.0	1	1	1	1
5443	S6	2019	8	15	19	32.8671189758511985701261437498033046722412109375	0.369967235748966005726146022425382398068904876708984375	32.86524932384489972037044935859739780426025390625	16.7455556763543000897698220796883106231689453125	91.2977777693005947412530076690018177032470703125	1.9427777768837000138546500238589942455291748046875	28.66666709693760139998630620539188385009765625	0.0	801.6608937953909617135650478303432464599609375	0.0	1	1	1	1
5444	S6	2019	8	15	20	6.85476926089206006764698031474836170673370361328125	0.36019648529671000058982599512091837823390960693359375	6.9093170244615098596341340453363955020904541015625	16.656410685389001713474499410949647426605224609375	91.40732680659590414506965316832065582275390625	1.7062271017949599549723416203050874173641204833984375	3.833333418394139879836757245357148349285125732421875	0.0	108.1762504763899954696171334944665431976318359375	0.0	1	1	1	1
5445	S6	2019	8	15	21	0	0	0	0	0	0	0	0.0	0	0.0	1	1	1	0
5446	S6	2019	8	15	22	0	0	0	0	0	0	0	0.0	0	0.0	1	1	1	0
5447	S6	2019	8	15	23	0	0	0	0	0	0	0	0.0	0	0.0	1	1	1	0
5448	S6	2019	8	15	24	0	0	0	0	0	0	0	0.0	0	0.0	1	1	1	0
5449	S6	2019	8	16	1	0	0	0	0	0	0	0	0.0	0	0.0	1	1	1	0
5450	S6	2019	8	16	2	0	0	0	0	0	0	0	0.0	0	0.0	1	1	1	0
5451	S6	2019	8	16	3	0	0	0	0	0	0	0	0.0	0	0.0	1	1	1	0
5452	S6	2019	8	16	4	0	0	0	0	0	0	0	0.0	0	0.0	1	1	1	0
5453	S6	2019	8	16	5	4.74990335046028011589669404202140867710113525390625	0.36127403925876200307953922674641944468021392822265625	4.91629041700946967097252127132378518581390380859375	16.0714288439069008518345071934163570404052734375	95.6020392593072045883673126809298992156982421875	1.6612244868765000394006392525625415146350860595703125	0.5833333610401829627534198152716271579265594482421875	0.0	13.37578318392250054102987633086740970611572265625	0.0	1	1	1	0
5454	S6	2019	8	16	6	15.63390915658730051518432446755468845367431640625	0.38564391359686800431205710992799140512943267822265625	15.83335654735559927530630375258624553680419921875	15.98388889100809961973936879076063632965087890625	95.1755554623074004894078825600445270538330078125	1.675833330634560081051631641457788646221160888671875	14.166666970898699418057731236331164836883544921875	0.0	367.42618338515200093752355314791202545166015625	0.0	1	1	1	1
5455	S6	2019	8	16	7	72.242972893184997928983648307621479034423828125	3.371562403523249873416034461115486919879913330078125	71.618993949890096928356797434389591217041015625	16.063889100816499677648607757873833179473876953125	94.23555611504440321368747390806674957275390625	1.62250000039735997603429495939053595066070556640625	63.58333366612600201506211305968463420867919921875	0.0	1734.909601509569938571075908839702606201171875	0.0	1	1	1	1
5456	S6	2019	8	16	8	257.70070663628501961284200660884380340576171875	347.871638416376981695066206157207489013671875	133.5173049000640048689092509448528289794921875	17.030924912822001715539954602718353271484375	90.227745695610195753033622168004512786865234375	1.6158959520173199475578940109699033200740814208984375	224.416662007570010928247938863933086395263671875	0.0	6110.911558071789841051213443279266357421875	0.0	1	1	1	1
5457	S6	2019	8	16	9	419.99904644234101169786299578845500946044921875	505.9950736444379799650050699710845947265625	162.3362204175469969413825310766696929931640625	18.035168172387098906028768396936357021331787109375	83.4984707146974045599563396535813808441162109375	1.8418960193063800279134056836483068764209747314453125	450.333333263793974765576422214508056640625	0.0	12377.066363890900902333669364452362060546875	0.0	1	1	1	1
5458	S6	2019	8	16	10	368.8113272175979773237486369907855987548828125	243.9211180774190097508835606276988983154296875	214.0918961248449932099902071058750152587890625	18.81893482998270172856791759841144084930419921875	78.4612425177760002270588302053511142730712890625	1.7881656777576500072512999395257793366909027099609375	432.75000030795700922681135125458240509033203125	0.0	11006.560792525500801275484263896942138671875	0.0	1	1	1	1
5459	S6	2019	8	16	11	396.0607498275650186769780702888965606689453125	215.556800752072007298920652829110622406005859375	249.56523068301299872473464347422122955322265625	19.231818265848200866230399697087705135345458984375	76.736013959337697087903507053852081298828125	1.7244755279767700617554737618775106966495513916015625	360.250003015001993844634853303432464599609375	0.0	9648.4437584876795881427824497222900390625	0.0	1	1	1	1
5460	S6	2019	8	16	12	359.93099253137597770546562969684600830078125	103.5170064905559996759620844386518001556396484375	280.33807454029198424905189312994480133056640625	18.837150930692299510837983689270913600921630859375	79.0695527785317011648658080957829952239990234375	1.94860335193865008562852381146512925624847412109375	410.4166657974329837088589556515216827392578125	0.0	11021.811301509500481188297271728515625	0.0	1	1	1	1
5461	S6	2019	8	16	13	487.133091175923027549288235604763031005859375	104.277874136337999289025901816785335540771484375	403.4013312844659822076209820806980133056640625	19.775070179744201226412769756279885768890380859375	70.0355744134811999401790671981871128082275390625	1.71512604653000000354268195223994553089141845703125	546.666666865349043291644193232059478759765625	0.0	14177.831232547699983115307986736297607421875	0.0	1	1	1	1
5462	S6	2019	8	16	14	464.084124422621016492485068738460540771484375	152.24446675425400599124259315431118011474609375	351.7833080949450277330470271408557891845703125	20.72040233392819885693825199268758296966552734375	64.633620744463996743434108793735504150390625	1.4589080463709500623536996499751694500446319580078125	528.166666626930009442730806767940521240234375	0.0	13312.94922033940019900910556316375732421875	0.0	1	1	1	1
5463	S6	2019	8	16	15	276.37814706131001685207593254745006561279296875	8.1604810640132594556916956207714974880218505859375	269.00747297063202267963788472115993499755859375	20.243854682538700018312738393433392047882080078125	63.4354747367303986038677976466715335845947265625	1.6589385467534600859806914741056971251964569091796875	261.3333364327739900545566342771053314208984375	0.0	7278.2991925875203378382138907909393310546875	0.0	1	1	1	1
5464	S6	2019	8	16	16	340.1117517934679881363990716636180877685546875	117.0658400136610026720518362708389759063720703125	275.03555340955398378355312161147594451904296875	20.14237293954619900659963604994118213653564453125	62.2112990880415992478447151370346546173095703125	1.8008474535861200838127160750445909798145294189453125	378.250005344548981156549416482448577880859375	0.0	9776.425560315450638881884515285491943359375	0.0	1	1	1	1
5465	S6	2019	8	16	17	196.80687642501499112768215127289295196533203125	43.41812656873489828512902022339403629302978515625	175.685292885128006901140906848013401031494140625	19.826836338150901184462782111950218677520751953125	62.23361573515629885378075414337217807769775390625	1.97768361656004998394564609043300151824951171875	193.16666883726799142095842398703098297119140625	0.0	5149.0346044301795700448565185070037841796875	0.0	1	1	1	1
5466	S6	2019	8	16	18	98.9373206244573992762525449506938457489013671875	15.754238430162200046424914035014808177947998046875	94.986954413519896434081601910293102264404296875	19.480833339691098871071517351083457469940185546875	63.80416647593180101694088079966604709625244140625	1.378611115035079937030104701989330351352691650390625	92.3333329459035070385652943514287471771240234375	0.0	2500.8285418152800048119388520717620849609375	0.0	1	1	1	1
5467	S6	2019	8	16	19	83.15313536326090115835540927946567535400390625	22.46184968799349945811627549119293689727783203125	79.2380781067741963852313347160816192626953125	18.83166689872739851807637023739516735076904296875	64.560833358764597278423025272786617279052734375	1.4283333314789599111094275940558873116970062255859375	74.4166662916540957439792691729962825775146484375	0.0	2045.6669343014500555000267922878265380859375	0.0	1	1	1	1
5468	S6	2019	8	16	20	19.147475051407699453420718782581388950347900390625	1.2754317511721400268953630074975080788135528564453125	19.561759608806898569355325889773666858673095703125	18.196534543934401284559498890303075313568115234375	66.187128841286806846255785785615444183349609375	0.98366337055617003581886592655791901051998138427734375	7.500000094296449759667666512541472911834716796875	0.0	239.9374770854279859122470952570438385009765625	0.0	1	1	1	1
5469	S6	2019	8	16	21	0	0	0	0	0	0	0	0.0	0	0.0	1	1	1	0
5470	S6	2019	8	16	22	0	0	0	0	0	0	0	0.0	0	0.0	1	1	1	0
5471	S6	2019	8	16	23	0	0	0	0	0	0	0	0.0	0	0.0	1	1	1	0
5472	S6	2019	8	16	24	0	0	0	0	0	0	0	0.0	0	0.0	1	1	1	0
5473	S6	2019	8	17	1	0	0	0	0	0	0	0	0.0	0	0.0	1	1	1	0
5474	S6	2019	8	17	2	0	0	0	0	0	0	0	0.0	0	0.0	1	1	1	0
5475	S6	2019	8	17	3	0	0	0	0	0	0	0	0.0	0	0.0	1	1	1	0
5476	S6	2019	8	17	4	0	0	0	0	0	0	0	0.0	0	0.0	1	1	1	0
5477	S6	2019	8	17	5	0.422055115302403027754962749895639717578887939453125	0.325743291775385024333644423677469603717327117919921875	0.4172184288501730176079718148685060441493988037109375	17.593333689371700501169470953755080699920654296875	80.66666615804030016079195775091648101806640625	2.56666665871938004528374221990816295146942138671875	0	0.0	0	0.0	1	1	1	0
5478	S6	2019	8	17	6	5.54119757252820033244233854929916560649871826171875	0.326321502927666984295029806162347085773944854736328125	5.67068114446372018022657357505522668361663818359375	16.707453769186198400120701990090310573577880859375	86.4602482007897066296209231950342655181884765625	2.29440994218269000981536009931005537509918212890625	2.250000009856500060578810007427819073200225830078125	0.0	94.0096667812515960349628585390746593475341796875	0.0	1	1	1	1
5479	S6	2019	8	17	7	13.647282208426499749975846498273313045501708984375	0.35033523493398999182346642555785365402698516845703125	13.6594321956741993062678375281393527984619140625	16.17937855262540125522718881256878376007080078125	89.3211859794658948885626159608364105224609375	2.463559319912369982574773530359379947185516357421875	11.1666666731857997518773117917589843273162841796875	0.0	348.358835404116007339325733482837677001953125	0.0	1	1	1	1
5480	S6	2019	8	17	8	41.69310753080579701190799823962152004241943359375	0.45282003151045902011873067749547772109508514404296875	41.68743048773870185641499119810760021209716796875	15.8474998712539001388677206705324351787567138671875	90.3283332824706945984871708787977695465087890625	2.49027777628765978334968167473562061786651611328125	37.58333312968409956056348164565861225128173828125	0.0	1118.549375484390111523680388927459716796875	0.0	1	1	1	1
5481	S6	2019	8	17	9	61.717686462402298275264911353588104248046875	0.50112570855352600585064237748156301677227020263671875	61.48206115298800256141475983895361423492431640625	15.664166704813599295675885514356195926666259765625	92.417499923706003528423025272786617279052734375	10.968611307938800791816902346909046173095703125	57.7499999975162978671505698002874851226806640625	0.0	1712.789356708520017491537146270275115966796875	0.0	1	1	1	1
5482	S6	2019	8	17	10	192.603871409097990863301674835383892059326171875	1.058917790651320078865182949812151491641998291015625	191.5804002126050136212143115699291229248046875	16.308333325385998335832482553087174892425537109375	92.2366664886474012519101961515843868255615234375	3.33361110786596004373905088868923485279083251953125	183.75000047186898655127151869237422943115234375	0.0	5358.6807747681696127983741462230682373046875	0.0	1	1	1	1
5483	S6	2019	8	17	11	177.187996843126001067503239028155803680419921875	0.83665263545182000370914465747773647308349609375	176.506923251681001829638262279331684112548828125	17.324999698003100689902566955424845218658447265625	87.9699996948241960126324556767940521240234375	3.248333329624589982387306008604355156421661376953125	161.999998614193003731998032890260219573974609375	0.0	4773.192281524299687589518725872039794921875	0.0	1	1	1	1
5484	S6	2019	8	17	12	247.42671307457800367046729661524295806884765625	1.4892160177230799877889921845053322613239288330078125	244.6874330308700109526398591697216033935546875	17.862499984105401296119453036226332187652587890625	84.9458336512247029759237193502485752105712890625	2.897222215433910008641760214231908321380615234375	231.250002359349991820636205375194549560546875	0.0	6594.3710505962399111012928187847137451171875	0.0	1	1	1	1
5485	S6	2019	8	17	13	295.35254753960498419473879039287567138671875	1.4170167654752698904729868445429019629955291748046875	292.23053830464601787753053940832614898681640625	18.766666587193800097566054319031536579132080078125	80.0133328119913045384237193502485752105712890625	2.954722218960519786179474976961500942707061767578125	277.25000306963801222082111053168773651123046875	0.0	7802.5375207264996788580901920795440673828125	0.0	1	1	1	1
5486	S6	2019	8	17	14	337.302757432725002217921428382396697998046875	6.34177557126515001328925791312940418720245361328125	330.65476803249697468345402739942073822021484375	20.14666651089979865218992927111685276031494140625	74.06749973297110045677982270717620849609375	3.069722222371229936044301211950369179248809814453125	318.41666748126300490184803493320941925048828125	0.0	8705.272058645859942771494388580322265625	0.0	1	1	1	1
5487	S6	2019	8	17	15	126.72105330361199548860895447432994842529296875	0.7187000863564509955949688446708023548126220703125	125.6933572557230007760153966955840587615966796875	20.036666536331100729739773669280111789703369140625	73.7083333333333001746723311953246593475341796875	2.646666655855039795852690076571889221668243408203125	116.0833345105250060669277445413172245025634765625	0.0	3321.47959619758012195234186947345733642578125	0.0	1	1	1	1
5488	S6	2019	8	17	16	99.9668025864495035648360499180853366851806640625	0.515396116591162023468086772481910884380340576171875	99.3530605845980971935205161571502685546875	20.017500019073398931368501507677137851715087890625	74.9524995168050054417108185589313507080078125	2.449999999834429953438075244775973260402679443359375	89.9166669696567026903721853159368038177490234375	0.0	2577.8117924928601496503688395023345947265625	0.0	1	1	1	1
5489	S6	2019	8	17	17	76.69765005458970108520588837563991546630859375	0.54222616660786904230207028376753441989421844482421875	76.46746999275779899107874371111392974853515625	19.48571429533109977683125180192291736602783203125	79.5823531591590977996020228601992130279541015625	2.045938372611990185845343148685060441493988037109375	68.91666601101570677201380021870136260986328125	0.0	2002.8469562530399343813769519329071044921875	0.0	1	1	1	1
5490	S6	2019	8	17	18	43.83013236787579813835691311396658420562744140625	0.445847179673404980793094409818877466022968292236328125	43.80428386794189776765051647089421749114990234375	18.9083333969116011985533987171947956085205078125	84.45499992370599784408113919198513031005859375	2.03249999806283998537992374622263014316558837890625	38.0000006407500023897227947600185871124267578125	0.0	1084.384170671299898458528332412242889404296875	0.0	1	1	1	1
5491	S6	2019	8	17	19	49.6939070277743013548388262279331684112548828125	24.549570791754401710704769357107579708099365234375	47.30259301927350179539644159376621246337890625	18.974999984105398453948509995825588703155517578125	85.1083332697549934664493775926530361175537109375	1.7080555525918799109064138974645175039768218994140625	44.50000015397849750797831802628934383392333984375	0.0	1190.457419802740105296834371984004974365234375	0.0	1	1	1	1
5492	S6	2019	8	17	20	17.603146213016401588902226649224758148193359375	0.90766006525810194460746060940437018871307373046875	17.750626980503898977303833817131817340850830078125	18.939240226262700872439381782896816730499267578125	85.629113981995402582469978369772434234619140625	1.5383966216809599192316682092496193945407867431640625	9.33333337889055059122256352566182613372802734375	0.0	273.821063844176023849286139011383056640625	0.0	1	1	1	1
5493	S6	2019	8	17	21	0	0	0	0	0	0	0	0.0	0	0.0	1	1	1	0
5494	S6	2019	8	17	22	0	0	0	0	0	0	0	0.0	0	0.0	1	1	1	0
5495	S6	2019	8	17	23	0	0	0	0	0	0	0	0.0	0	0.0	1	1	1	0
5496	S6	2019	8	17	24	0	0	0	0	0	0	0	0.0	0	0.0	1	1	1	0
5497	S6	2019	8	18	1	0	0	0	0	0	0	0	0.0	0	0.0	1	1	1	0
5498	S6	2019	8	18	2	0	0	0	0	0	0	0	0.0	0	0.0	1	1	1	0
5499	S6	2019	8	18	3	0	0	0	0	0	0	0	0.0	0	0.0	1	1	1	0
5500	S6	2019	8	18	4	0	0	0	0	0	0	0	0.0	0	0.0	1	1	1	0
5501	S6	2019	8	18	5	6.97893983125686023782918709912337362766265869140625	0.397001612931489000768436881116940639913082122802734375	7.2574466466903597705595529987476766109466552734375	16.643750548362699959170640795491635799407958984375	94.8937516212462952580608543939888477325439453125	1.0500000081956299968766188612789846956729888916015625	1.166666722080349938295285028289072215557098388671875	0.0	31.52603299046580076492318767122924327850341796875	0.0	1	1	1	0
5502	S6	2019	8	18	6	34.0658580025037025507117505185306072235107421875	10.5846497199186995175068659591488540172576904296875	32.87527787155570280219762935303151607513427734375	16.478333187103199719558688229881227016448974609375	95.054165840148897359540569595992565155029296875	0.79972222422560002019764624492381699383258819580078125	25.250000103066401635487636667676270008087158203125	0.0	731.8440374607849889798671938478946685791015625	0.0	1	1	1	1
5503	S6	2019	8	18	7	138.40326360066700317474897019565105438232421875	131.308341408437996733482577838003635406494140625	111.2586335923929965474599157460033893585205078125	16.69916677474969901595613919198513031005859375	93.8683330535887989753973670303821563720703125	0.92750000274843602543484166744747199118137359619140625	103.250000004967006361766834743320941925048828125	0.0	3074.2348258694100877619348466396331787109375	0.0	1	1	1	1
5504	S6	2019	8	18	8	115.0203526390919961386316572315990924835205078125	25.901353240840901293040587916038930416107177734375	106.4552943335630033061534049920737743377685546875	17.026666593551599504507976234890520572662353515625	91.0416668574014948944750358350574970245361328125	0.508611114654275997537524744984693825244903564453125	101.416668544212001279447576962411403656005859375	0.0	2985.9141583243899731314741075038909912109375	0.0	1	1	1	1
5505	S6	2019	8	18	9	134.5825020896060095765278674662113189697265625	0.73289364783300203765037394987302832305431365966796875	133.40502103169700376383843831717967987060546875	17.278333282470700993371792719699442386627197265625	88.0116666793823014813824556767940521240234375	0.465000004569688984989994651186862029135227203369140625	119.4166659067050062503767549060285091400146484375	0.0	3572.1005449692302136099897325038909912109375	0.0	1	1	1	1
5506	S6	2019	8	18	10	123.020195537142996045076870359480381011962890625	0.69073922360936801378983318500104360282421112060546875	121.8459490882020048729827976785600185394287109375	17.579166809717801100987344398163259029388427734375	86.3566667556762013191473670303821563720703125	0.470833336561918003315696523713995702564716339111328125	110.58333267768199448255472816526889801025390625	0.0	3360.38413643836020128219388425350189208984375	0.0	1	1	1	1
5507	S6	2019	8	18	11	162.104517512851003857576870359480381011962890625	1.290724193304769951140542616485618054866790771484375	159.94484174516401253640651702880859375	17.932499869664500380395111278630793094635009765625	85.4916667302449013732257299125194549560546875	0.594444446431265038910396469873376190662384033203125	150.583333646256988913592067547142505645751953125	0.0	4430.959150195119946147315204143524169921875	0.0	1	1	1	1
5508	S6	2019	8	18	12	271.0293080647779788705520331859588623046875	1.8301722960339599222123752042534761130809783935546875	266.41714320712600283513893373310565948486328125	19.19249997138970087462439551018178462982177734375	80.6641665140787011978318332694470882415771484375	0.90611111116078102423188056491198949515819549560546875	253.91666591167398792094900272786617279052734375	0.0	7250.493278106019715778529644012451171875	0.0	1	1	1	1
5509	S6	2019	8	18	13	260.76380844116198431947850622236728668212890625	1.1486927059789400207279186361120082437992095947265625	256.7588583204479846244794316589832305908203125	19.82583325703929943983894190751016139984130859375	79.475000381469698140790569595992565155029296875	2.03194444022244002923116568126715719699859619140625	242.250000437099998862322536297142505645751953125	0.0	6960.1926604906902866787277162075042724609375	0.0	1	1	1	1
5510	S6	2019	8	18	14	193.176729753281989587776479311287403106689453125	0.83610055562522600514085979739320464432239532470703125	190.834178755018001538701355457305908203125	19.6541670481363013323061750270426273345947265625	82.0766667048136042694750358350574970245361328125	1.6522222199373699513813562589348293840885162353515625	172.916665673256005675284541212022304534912109375	0.0	5113.5853777329002696205861866474151611328125	0.0	1	1	1	1
5511	S6	2019	8	18	15	62.0193276134888975548165035434067249298095703125	0.41332201839549698174636205294518731534481048583984375	61.228413482210498841595835983753204345703125	18.88238816332459890645623090676963329315185546875	88.4710444663887045635419781319797039031982421875	0.99044776291989500283108327494119293987751007080078125	55.50000009437400194656220264732837677001953125	0.0	1713.066682219500080464058555662631988525390625	0.0	1	1	1	1
5512	S6	2019	8	18	16	42.87740142507180252096077310852706432342529296875	0.43145790234603698110049663227982819080352783203125	42.4572393085399966139448224566876888275146484375	17.7846605700377011771706747822463512420654296875	92.4566368845710968571438570506870746612548828125	1.108849552528690107777720186277292668819427490234375	37.2500002073744980179981212131679058074951171875	0.0	1083.508410801490072117303498089313507080078125	0.0	1	1	1	1
5513	S6	2019	8	18	17	39.8311810878658008050479111261665821075439453125	0.431810217216859026923003739284467883408069610595703125	39.48185687476870242562654311768710613250732421875	16.417827356492498580564642907120287418365478515625	92.5250695316239983867490082047879695892333984375	1.553481894864340073780795137281529605388641357421875	34.50000006705530353201538673602044582366943359375	0.0	1024.775472780059999422519467771053314208984375	0.0	1	1	1	1
5514	S6	2019	8	18	18	33.905020946926498481843736954033374786376953125	0.47606119496954801828536574248573742806911468505859375	33.77468172709139793141730478964745998382568359375	15.8591666142144998019603008287958800792694091796875	93.1550000508625970496723311953246593475341796875	1.1416666660043899295118308145902119576930999755859375	29.833333256344001682691668975166976451873779296875	0.0	872.1508464465540555465850047767162322998046875	0.0	1	1	1	1
5515	S6	2019	8	18	19	39.23607197337680219106914591975510120391845703125	0.5869602935919020492150366408168338239192962646484375	39.01295776367179968247000942938029766082763671875	15.8233333110808995769502871553413569927215576171875	95.514999453226693049145978875458240509033203125	1.03222222220566006711806039675138890743255615234375	35.916666189829498989638523198664188385009765625	0.0	1030.696621785559955242206342518329620361328125	0.0	1	1	1	1
5516	S6	2019	8	18	20	21.495228043142301288526141433976590633392333984375	0.376180274939198977524057454502326436340808868408203125	21.664766442100898302669520489871501922607421875	15.8033018741967001830062145018018782138824462890625	94.5207546881909053126946673728525638580322265625	2.122641502545679959013114057597704231739044189453125	10.50000023678870064713919418863952159881591796875	0.0	312.2642642507950085928314365446567535400390625	0.0	1	1	1	1
5517	S6	2019	8	18	21	0	0	0	0	0	0	0	0.0	0	0.0	1	1	1	0
5518	S6	2019	8	18	22	0	0	0	0	0	0	0	0.0	0	0.0	1	1	1	0
5519	S6	2019	8	18	23	0	0	0	0	0	0	0	0.0	0	0.0	1	1	1	0
5520	S6	2019	8	18	24	0	0	0	0	0	0	0	0.0	0	0.0	1	1	1	0
5521	S6	2019	8	19	1	0	0	0	0	0	0	0	0.0	0	0.0	1	1	1	0
5522	S6	2019	8	19	2	0	0	0	0	0	0	0	0.0	0	0.0	1	1	1	0
5523	S6	2019	8	19	3	0	0	0	0	0	0	0	0.0	0	0.0	1	1	1	0
5524	S6	2019	8	19	4	0	0	0	0	0	0	0	0.0	0	0.0	1	1	1	0
5525	S6	2019	8	19	5	5.40980731207748011257763209869153797626495361328125	0.83810616156150496980359321241849102079868316650390625	5.55985763155180023886714479885995388031005859375	14.003448091704200351159670390188694000244140625	96.1999995790678070761714479885995388031005859375	1.3034482814114600746080441240337677299976348876953125	0.5833333610401829627534198152716271579265594482421875	0.0	20.890275171647399332641725777648389339447021484375	0.0	1	1	1	0
5526	S6	2019	8	19	6	37.6422013958295025304323644377291202545166015625	59.8983575322560994891318841837346553802490234375	30.50909355878830098163234652020037174224853515625	14.44749996662130087088371510617434978485107421875	96.2233338038125936009237193502485752105712890625	1.114166668140220028959674891666509211063385009765625	22.416666693364700080337570398114621639251708984375	0.0	679.2700399334249823368736542761325836181640625	0.0	1	1	1	1
5527	S6	2019	8	19	7	113.86962258102499845335842110216617584228515625	113.9703917893919964399174205027520656585693359375	92.0520855286861063859760179184377193450927734375	15.6698005138298999128210198250599205493927001953125	94.2621085664145965665738913230597972869873046875	1.5985754933791900267436858484870754182338714599609375	76.3333334277069042173025081865489482879638671875	0.0	2277.3038471738500447827391326427459716796875	0.0	1	1	1	1
5528	S6	2019	8	19	8	235.32988054680100731275160796940326690673828125	282.564733037442010754602961242198944091796875	126.9724645672419995889868005178868770599365234375	16.97393953727949877929859212599694728851318359375	91.1069698911723975243148743174970149993896484375	2.04181817688724986936676941695623099803924560546875	206.58333227038400536912376992404460906982421875	0.0	5788.1404558817603174247778952121734619140625	0.0	1	1	1	1
5529	S6	2019	8	19	9	358.07844003878102512317127548158168792724609375	283.8988336174689948165905661880970001220703125	218.37579476205900164131890051066875457763671875	18.797368294314299674852009047754108905792236328125	81.1361843912224998121018870733678340911865234375	2.1858552636480599318247186602093279361724853515625	352.41666808724500015159719623625278472900390625	0.0	9827.833741903290501795709133148193359375	0.0	1	1	1	1
5530	S6	2019	8	19	10	414.0147417294580236557521857321262359619140625	409.23066634966698984499089419841766357421875	165.3274946821489947978989221155643463134765625	19.218237073950401594402137561701238155364990234375	75.88145898975500358574208803474903106689453125	2.104559270444239960085042184800840914249420166015625	462.49999540547497645093244500458240509033203125	0.0	12120.024417837399596464820206165313720703125	0.0	1	1	1	1
5531	S6	2019	8	19	11	410.07299342848699552632751874625682830810546875	257.8328970920080109863192774355411529541015625	236.524583358085010331706143915653228759765625	19.95192884903629959580939612351357936859130859375	68.62373890862619418840040452778339385986328125	2.827893172863320092602634758804924786090850830078125	449.16666671633601026769611053168773651123046875	0.0	12039.777815341900350176729261875152587890625	0.0	1	1	1	1
5532	S6	2019	8	19	12	418.27780108384598634074791334569454193115234375	88.5102455783057990856832475401461124420166015625	346.99734836632097767505911178886890411376953125	19.609577281038500728982398868538439273834228515625	70.0284507858921045908573432825505733489990234375	2.3563380247270497847011938574723899364471435546875	448.99999474485701966841588728129863739013671875	0.0	11992.960641781499361968599259853363037109375	0.0	1	1	1	1
5533	S6	2019	8	19	13	673.8343646099109491842682473361492156982421875	507.315941100174995881388895213603973388671875	296.64348253900601548593840561807155609130859375	20.970231265690898680986720137298107147216796875	60.16589606841859705355091136880218982696533203125	2.662427740203849868549923485261388123035430908203125	793.0000027020749939765664748847484588623046875	0.0	20255.69136937459916225634515285491943359375	0.0	1	1	1	1
5534	S6	2019	8	19	14	508.0807299207809819563408382236957550048828125	388.04945085186301412250031717121601104736328125	232.14743850659800727953552268445491790771484375	21.083911504655201696323274518363177776336669921875	63.0712935992219030367778032086789608001708984375	2.70977917275970003885277037625201046466827392578125	638.5833236078409527181065641343593597412109375	0.0	15721.004222830100843566469848155975341796875	0.0	1	1	1	1
5535	S6	2019	8	19	15	395.49411956787099597931955941021442413330078125	133.19791438607200007027131505310535430908203125	308.24533050537098688437254168093204498291015625	20.867428534371498471955419518053531646728515625	63.7939995356967983752838335931301116943359375	2.69999999633856990755020888173021376132965087890625	437.08333373069700655833003111183643341064453125	0.0	11561.309824387199114426039159297943115234375	0.0	1	1	1	1
5536	S6	2019	8	19	16	255.074606614546013361177756451070308685302734375	118.1196199494460046253152540884912014007568359375	185.017044358686007399228401482105255126953125	20.1643636807527997234501526691019535064697265625	67.7869089716131014711208990775048732757568359375	2.773454550829800080435916243004612624645233154296875	226.499998631576005436727427877485752105712890625	0.0	5930.4848934213396205450408160686492919921875	0.0	1	1	1	1
5537	S6	2019	8	19	17	203.495555208253989576405729167163372039794921875	109.0534017568860036817568470723927021026611328125	154.05641247635099944091052748262882232666015625	17.6420612122687003875398659147322177886962890625	82.2938722275757044144484098069369792938232421875	1.7055710297607100667249824255122803151607513427734375	226.166664001842008246967452578246593475341796875	0.0	5942.065156996250152587890625	0.0	1	1	1	1
5538	S6	2019	8	19	18	162.114315329656989206341677345335483551025390625	159.18276026770399766974151134490966796875	124.5601396878559938841135590337216854095458984375	17.112500000000000710542735760100185871124267578125	80.444166628519695905197295360267162322998046875	1.17833333561816999690563534386456012725830078125	167.2500011821570069514564238488674163818359375	0.0	4241.745809714009737945161759853363037109375	0.0	1	1	1	1
5539	S6	2019	8	19	19	88.1549686113992976288500358350574970245361328125	212.853065463569009807542897760868072509765625	55.0624207178750992852656054310500621795654296875	17.9608334382375005588983185589313507080078125	80.287499745686801588817615993320941925048828125	1.0997222233977499428192459163255989551544189453125	78.7500004904972996655487804673612117767333984375	0.0	1705.164627482490004695137031376361846923828125	0.0	1	1	1	1
5540	S6	2019	8	19	20	20.13539467644439895366303971968591213226318359375	7.96866414043091975116794856148771941661834716796875	20.09769048150049997047972283326089382171630859375	17.61237141520700077990113641135394573211669921875	79.025773392510103576569235883653163909912109375	1.3582474168428400052022197996848262846469879150390625	8.666666864883069365532719530165195465087890625	0.0	255.440065016347006121577578596770763397216796875	0.0	1	1	1	1
5541	S6	2019	8	19	21	0	0	0	0	0	0	0	0.0	0	0.0	1	1	1	0
5542	S6	2019	8	19	22	0	0	0	0	0	0	0	0.0	0	0.0	1	1	1	0
5543	S6	2019	8	19	23	0	0	0	0	0	0	0	0.0	0	0.0	1	1	1	0
5544	S6	2019	8	19	24	0	0	0	0	0	0	0	0.0	0	0.0	1	1	1	0
5545	S6	2019	8	20	1	0	0	0	0	0	0	0	0.0	0	0.0	1	1	1	0
5546	S6	2019	8	20	2	0	0	0	0	0	0	0	0.0	0	0.0	1	1	1	0
5547	S6	2019	8	20	3	0	0	0	0	0	0	0	0.0	0	0.0	1	1	1	0
5548	S6	2019	8	20	4	0	0	0	0	0	0	0	0.0	0	0.0	1	1	1	0
5549	S6	2019	8	20	5	6.16250038146972034525106209912337362766265869140625	0.65703552961349398486845529987476766109466552734375	6.4685406684875399463408029987476766109466552734375	14.80000019073479933240378159098327159881591796875	92.5	1.200000047683710047152771949185989797115325927734375	0.5833333610401829627534198152716271579265594482421875	0.0	26.304967080553399938480652053840458393096923828125	0.0	1	1	1	0
5550	S6	2019	8	20	6	43.5173919947749965331240673549473285675048828125	110.5784461042239996686475933529436588287353515625	32.200925111770601461103069595992565155029296875	14.8584337349396999883310854784213006496429443359375	89.4298192219560945659395656548440456390380859375	1.2256024112722900820671156907337717711925506591796875	20.5000000229725998224239447154104709625244140625	0.0	706.05778880417301479610614478588104248046875	0.0	1	1	1	1
5551	S6	2019	8	20	7	148.766448402403995032727834768593311309814453125	321.6559669918480039996211417019367218017578125	77.1538853115504963398052495904266834259033203125	15.9383334159851006717190102790482342243194580078125	83.77833315531410107723786495625972747802734375	1.511666665474570070415438749478198587894439697265625	90.499999312064204559646896086633205413818359375	0.0	2733.9062069853198408964090049266815185546875	0.0	1	1	1	1
5552	S6	2019	8	20	8	296.175231764050977290025912225246429443359375	547.20122850206098519265651702880859375	101.5882727093160013964734389446675777435302734375	17.753333346048901120184382307343184947967529296875	78.956666564941400565658113919198513031005859375	1.7383333304689900788986278712400235235691070556640625	269.58333452542598251966410316526889801025390625	0.0	7453.943034013120268355123698711395263671875	0.0	1	1	1	1
5553	S6	2019	8	20	9	454.18511449723001760503393597900867462158203125	600.778003837380992990802042186260223388671875	162.88328802017900898135849274694919586181640625	19.28452376524599998219855478964745998382568359375	72.09107149214969467720948159694671630859375	1.8791666651765499551629545749165117740631103515625	482.16667026281402286258526146411895751953125	0.0	13002.449254194800232653506100177764892578125	0.0	1	1	1	1
5554	S6	2019	8	20	10	398.1938892896520201247767545282840728759765625	329.319441549235989441513083875179290771484375	200.925218621770994786857045255601406097412109375	19.8845698076467982673420920036733150482177734375	65.6261128615200988178912666626274585723876953125	1.9816023747185200765130730360397137701511383056640625	423.83333419759998150766477920114994049072265625	0.0	11429.991359511999689857475459575653076171875	0.0	1	1	1	1
5555	S6	2019	8	20	11	193.640299684671987279216409660875797271728515625	30.84961243380190154539377545006573200225830078125	171.051960672191995627144933678209781646728515625	18.349831841208700922152274870313704013824462890625	74.3670036495735047310517984442412853240966796875	1.5080808070974300871824880232452414929866790771484375	175.249999389052987908144132234156131744384765625	0.0	5047.182738780969884828664362430572509765625	0.0	1	1	1	1
5556	S6	2019	8	20	12	342.70103465041000845303642563521862030029296875	130.454681819023988964545424096286296844482421875	248.414511197232997119499486871063709259033203125	18.11301360064990007003871141932904720306396484375	80.578424270838894472035462968051433563232421875	1.2431506852376899008305599636514671146869659423828125	472.833327328165978542529046535491943359375	0.0	12632.485672831500778556801378726959228515625	0.0	1	1	1	1
5557	S6	2019	8	20	13	521.9293124992090042724157683551311492919921875	329.508501296289978199638426303863525390625	273.456351419097018151660449802875518798828125	18.962783054240698987769064842723309993743896484375	75.6093853823960984072982682846486568450927734375	2.09288025799305987817433560849167406558990478515625	666.4166661600239649487775750458240509033203125	0.0	16810.38347880039873416535556316375732421875	0.0	1	1	1	1
5558	S6	2019	8	20	14	620.8102536261829982322524301707744598388671875	582.104847064432988190674223005771636962890625	207.799952494947007153314189054071903228759765625	21.08765837512429897060428629629313945770263671875	60.58512676818460107597275055013597011566162109375	2.036708861306490092601961805485188961029052734375	728.499999269841055138385854661464691162109375	0.0	17973.1772045293982955627143383026123046875	0.0	1	1	1	1
5559	S6	2019	8	20	15	432.98608635059298421765561215579509735107421875	306.039890541441991445026360452175140380859375	230.277400318090002429016749374568462371826171875	20.267246533822298459881494636647403240203857421875	63.8489858654962034734126063995063304901123046875	2.034782610768850030780185988987796008586883544921875	503.5833287984120261171483434736728668212890625	0.0	13061.872700850099136005155742168426513671875	0.0	1	1	1	1
5560	S6	2019	8	20	16	300.07169513756701917372993193566799163818359375	197.07029661064899528355454094707965850830078125	190.677182015530007674897206015884876251220703125	20.044444527041800796496318071149289608001708984375	58.40683713733640303189531550742685794830322265625	1.84102564268980994910407389397732913494110107421875	361.74999798337597667341469787061214447021484375	0.0	9338.485201199810035177506506443023681640625	0.0	1	1	1	1
5561	S6	2019	8	20	17	257.57484006210097504663281142711639404296875	179.77251075791599532749387435615062713623046875	185.99706867916398778106668032705783843994140625	20.554366270253300541526186862029135227203369140625	54.23126765506359703294947394169867038726806640625	1.7529577444976400801834870435413904488086700439453125	301.9999998311189983724034391343593597412109375	0.0	7519.36555902164036524482071399688720703125	0.0	1	1	1	1
5562	S6	2019	8	20	18	241.650747468736000200806302018463611602783203125	368.54418695701400565667427144944667816162109375	137.5286304685799905200838111340999603271484375	20.6488890118069008394741103984415531158447265625	58.1872222900390028144101961515843868255615234375	1.8644444468948500048810501539264805614948272705078125	258.83333509166999419903731904923915863037109375	0.0	6176.4779339234200961072929203510284423828125	0.0	1	1	1	1
5563	S6	2019	8	20	19	75.4357133388518974470571265555918216705322265625	113.905761857827002359044854529201984405517578125	55.89008831448020231391637935303151607513427734375	19.584999932183098536597753991372883319854736328125	63.75888868967690115141522255726158618927001953125	1.644166667179919993913017606246285140514373779296875	68.99999966844899290663306601345539093017578125	0.0	1647.752655049160011913045309484004974365234375	0.0	1	1	1	1
5564	S6	2019	8	20	20	16.232887554689799713969478034414350986480712890625	4.807049057522750246107534621842205524444580078125	16.432054524864600608680120785720646381378173828125	18.293988920951800736247605527751147747039794921875	68.3010929295273996331161470152437686920166015625	1.083606560047849942662878675037063658237457275390625	6.4999999303836997199823599657975137233734130859375	0.0	215.7683729504529992482275702059268951416015625	0.0	1	1	1	1
5565	S6	2019	8	20	21	0	0	0	0	0	0	0	0.0	0	0.0	1	1	1	0
5566	S6	2019	8	20	22	0	0	0	0	0	0	0	0.0	0	0.0	1	1	1	0
5567	S6	2019	8	20	23	0	0	0	0	0	0	0	0.0	0	0.0	1	1	1	0
5568	S6	2019	8	20	24	0	0	0	0	0	0	0	0.0	0	0.0	1	1	1	0
5569	S6	2019	8	21	1	0	0	0	0	0	0	0	0.0	0	0.0	1	1	1	0
5570	S6	2019	8	21	2	0	0	0	0	0	0	0	0.0	0	0.0	1	1	1	0
5571	S6	2019	8	21	3	0	0	0	0	0	0	0	0.0	0	0.0	1	1	1	0
5572	S6	2019	8	21	4	0	0	0	0	0	0	0	0.0	0	0.0	1	1	1	0
5573	S6	2019	8	21	5	5.29757022857666015625	0.382167696952818991551481531132594682276248931884765625	5.525446414947509765625	12.8999996185302006068695845897309482097625732421875	92	0	0.1666666745829079865348631983579252846539020538330078125	0.0	13.647533332308199760518618859350681304931640625	0.0	1	1	1	0
5574	S6	2019	8	21	6	42.48081835519150217805872671306133270263671875	117.1013465686680063981839339248836040496826171875	30.922131195529299674262802000157535076141357421875	13.241087553364199180805371725000441074371337890625	90.3111787317742056302449782378971576690673828125	0.415407858046159983445022589876316487789154052734375	20.666666755763198892736909328959882259368896484375	0.0	715.5154788245739609919837675988674163818359375	0.0	1	1	1	1
5575	S6	2019	8	21	7	153.436570400660997393060824833810329437255859375	371.66103210449199423237587325274944305419921875	72.6594068739149037128299823962152004241943359375	15.0016667260064000544161899597384035587310791015625	84.7266662173800995105921174399554729461669921875	0.7875000010761949997828423875034786760807037353515625	92.9166665300717937725494266487658023834228515625	0.0	2812.0912214120098724379204213619232177734375	0.0	1	1	1	1
5576	S6	2019	8	21	8	288.667808966202983356197364628314971923828125	489.28917890245202215737663209438323974609375	117.882600979371005678331130184233188629150390625	16.78835234858770064647615072317421436309814453125	79.3642048402266055973086622543632984161376953125	1.4914772703566299139055217892746441066265106201171875	256.50000075499201557249762117862701416015625	0.0	7141.6139205297104126657359302043914794921875	0.0	1	1	1	1
5577	S6	2019	8	21	9	340.95346657289201175444759428501129150390625	308.96648139208099337338353507220745086669921875	191.053130450233993542497046291828155517578125	17.170948011065799931884612306021153926849365234375	78.0370034500728024795535020530223846435546875	2.252293577890509990169221055111847817897796630859375	370.08333082000399372191168367862701416015625	0.0	10079.476247231099478085525333881378173828125	0.0	1	1	1	1
5578	S6	2019	8	21	10	255.7088621727669988104025833308696746826171875	113.2356126023830000804082374088466167449951171875	189.977504807178007695256383158266544342041015625	16.826224819040401570191534119658172130584716796875	77.05100912044639471787377260625362396240234375	1.6380403487586099320338917095796205103397369384765625	244.7500005364410071706515736877918243408203125	0.0	6939.26844000815981416963040828704833984375	0.0	1	1	1	1
5579	S6	2019	8	21	11	568.4211944223139880705275572836399078369140625	560.9553018775250166072510182857513427734375	186.717487045197998440926312468945980072021484375	18.006725110505698239649063907563686370849609375	71.2611110084935006625528330914676189422607421875	1.4766081854788100091724345475086010992527008056640625	678.8333244621750282021821476519107818603515625	0.0	17840.22386868789908476173877716064453125	0.0	1	1	1	1
5580	S6	2019	8	21	12	726.8785663180880192157928831875324249267578125	820.63469272189604453160427510738372802734375	136.48308819664799784732167609035968780517578125	19.78666671117139941316054319031536579132080078125	58.7738888634575005198712460696697235107421875	1.5247222236461099864612833698629401624202728271484375	869.333326816559974759002216160297393798828125	0.0	22883.37230682370136491954326629638671875	0.0	1	1	1	1
5581	S6	2019	8	21	13	719.2522138175310146834817714989185333251953125	738.812480249310056024114601314067840576171875	180.186882062145997451807488687336444854736328125	19.896610324665598312776637612842023372650146484375	53.90282500531039744373629218898713588714599609375	1.530790956932940094503692307625897228717803955078125	890.250002344447011637385003268718719482421875	0.0	22474.0227262178013916127383708953857421875	0.0	1	1	1	1
5582	S6	2019	8	21	14	679.842211337919025027076713740825653076171875	719.7384536343689660498057492077350616455078125	173.834206235092011638698750175535678863525390625	19.953982322265201077016172348521649837493896484375	50.84454281562189947862862027250230312347412109375	1.9648967517160700335665524107753299176692962646484375	902.7500003576279823391814716160297393798828125	0.0	22019.74948247270003776066005229949951171875	0.0	1	1	1	1
5583	S6	2019	8	21	15	589.281461563577977358363568782806396484375	617.5625120599760293771396391093730926513671875	200.02556390118701301616965793073177337646484375	19.95460117082649986741671455092728137969970703125	53.7472393176307008388903341256082057952880859375	1.7033742276803101045601351870573125779628753662109375	777.4166663487759478812222369015216827392578125	0.0	18990.4487331708005513064563274383544921875	0.0	1	1	1	1
5584	S6	2019	8	21	16	513.77610450897600458119995892047882080078125	663.9932511283190024187206290662288665771484375	158.906288474883012895588763058185577392578125	20.207163365317601488868604064919054508209228515625	51.8879656860001006180027616210281848907470703125	1.7756447005579298892286033151322044432163238525390625	629.083335399627003425848670303821563720703125	0.0	15486.885945002199150621891021728515625	0.0	1	1	1	1
5585	S6	2019	8	21	17	342.01476383209200093915569595992565155029296875	515.6398488906919510554871521890163421630859375	125.17626077075300372598576359450817108154296875	19.82325583834980164965600124560296535491943359375	52.96308137095250145875979796983301639556884765625	1.4683139529512299059632596254232339560985565185546875	418.16667094826601669410592876374721527099609375	0.0	10401.707390944100552587769925594329833984375	0.0	1	1	1	1
5586	S6	2019	8	21	18	219.192414516871991736479685641825199127197265625	477.97831141948699951171875	89.02305164337150245046359486877918243408203125	19.604444556766001284131561988033354282379150390625	54.71333338419589864543013391084969043731689453125	1.3447222227851500786499627793091349303722381591796875	236.833331485587990528074442408978939056396484375	0.0	5497.3546812931499516707845032215118408203125	0.0	1	1	1	1
5587	S6	2019	8	21	19	87.8996216456094998648040927946567535400390625	305.1461419847270235550240613520145416259765625	43.92169561386099729816123726777732372283935546875	18.819444391462500476563945994712412357330322265625	57.4072223451401981719754985533654689788818359375	1.2444444453550700391275540823698975145816802978515625	73.0833346024158032605555490590631961822509765625	0.0	1601.806160062549906797357834875583648681640625	0.0	1	1	1	1
5588	S6	2019	8	21	20	21.180213984736599996949735214002430438995361328125	85.856616716031595615277183242142200469970703125	17.030537909048501177267098682932555675506591796875	17.942962759512401049732943647541105747222900390625	60.5081479673032021082690334878861904144287109375	1.0444444457689900929153736797161400318145751953125	4.1666666608458999832009794772602617740631103515625	0.0	173.58052486088200794256408698856830596923828125	0.0	1	1	1	0
5589	S6	2019	8	21	21	0	0	0	0	0	0	0	0.0	0	0.0	1	1	1	0
5590	S6	2019	8	21	22	0	0	0	0	0	0	0	0.0	0	0.0	1	1	1	0
5591	S6	2019	8	21	23	0	0	0	0	0	0	0	0.0	0	0.0	1	1	1	0
5592	S6	2019	8	21	24	0	0	0	0	0	0	0	0.0	0	0.0	1	1	1	0
5593	S6	2019	8	22	1	0	0	0	0	0	0	0	0.0	0	0.0	1	1	1	0
5594	S6	2019	8	22	2	0	0	0	0	0	0	0	0.0	0	0.0	1	1	1	0
5595	S6	2019	8	22	3	0	0	0	0	0	0	0	0.0	0	0.0	1	1	1	0
5596	S6	2019	8	22	4	0	0	0	0	0	0	0	0.0	0	0.0	1	1	1	0
5597	S6	2019	8	22	5	0	0	0	0	0	0	0.41666667675599999842717124920454807579517364501953125	0.0	13.748158157492600395244153332896530628204345703125	0.0	1	1	1	0
5598	S6	2019	8	22	6	37.3763798713683996766121708787977695465087890625	77.17540190406140254708589054644107818603515625	30.364296156167899454203507048077881336212158203125	13.9493749171495000638287820038385689258575439453125	90.1515624046325001472723670303821563720703125	1.2309374983422400884336411763797514140605926513671875	20.41666652075939936139548080973327159881591796875	0.0	643.447404106457042871625162661075592041015625	0.0	1	1	1	1
5599	S6	2019	8	22	7	136.16318297915898938299505971372127532958984375	279.01401021745397201812011189758777618408203125	73.6183251592847938127306406386196613311767578125	15.3422222773233993819985698792152106761932373046875	86.2655555725096974128973670303821563720703125	1.2452777771486100988340695039369165897369384765625	92.1666687354449010172174894250929355621337890625	0.0	2641.6853169600099136005155742168426513671875	0.0	1	1	1	1
5600	S6	2019	8	22	8	267.064134852091001448570750653743743896484375	394.72308637830900579501758329570293426513671875	129.74627058241100030500092543661594390869140625	17.493888992733399589951659436337649822235107421875	77.737778260972703492370783351361751556396484375	1.900277774946550035650716381496749818325042724609375	243.250001221894990521832369267940521240234375	0.0	6790.226966142639867030084133148193359375	0.0	1	1	1	1
5601	S6	2019	8	22	9	403.7686336517330119022517465054988861083984375	511.862927754719976292108185589313507080078125	153.485661739773007639087154529988765716552734375	19.46555564668440041486974223516881465911865234375	66.947222476535301893818541429936885833740234375	2.07666667045817998626944245188497006893157958984375	428.83333067099300706104259006679058074951171875	0.0	11808.495779832199332304298877716064453125	0.0	1	1	1	1
5602	S6	2019	8	22	10	535.61282314534901161096058785915374755859375	601.58626588796096257283352315425872802734375	180.3485841378150098535115830600261688232421875	21.067597959294598553015021025203168392181396484375	57.49217878373639933897720766253769397735595703125	2.5628491565168900478965952061116695404052734375	613.9999926090240478515625	0.0	16350.1307368277994100935757160186767578125	0.0	1	1	1	1
5603	S6	2019	8	22	11	583.020175955389049704535864293575286865234375	504.323974378364027870702557265758514404296875	242.84648628019300531377666629850864410400390625	22.052259908557598322431658743880689144134521484375	51.97768338521319719802704639732837677001953125	2.501129940152159836230794098810292780399322509765625	680.083339413007024631951935589313507080078125	0.0	17796.43392562860026373527944087982177734375	0.0	1	1	1	1
5604	S6	2019	8	22	12	511.16964833329302564379759132862091064453125	294.86556896694497709177085198462009429931640625	294.22892202982001208511064760386943817138671875	22.118597606333199934169897460378706455230712890625	51.1557926433842027336140745319426059722900390625	2.592987800153289779103715773089788854122161865234375	563.3333300550790454508387483656406402587890625	0.0	14960.434059302000605384819209575653076171875	0.0	1	1	1	1
5605	S6	2019	8	22	13	566.02108205308604738092981278896331787109375	404.41898133815402616164647042751312255859375	268.0075000751750167182763107120990753173828125	22.78563040792059979366968036629259586334228515625	44.87536611025630151061704964376986026763916015625	2.79002932806518000319329075864516198635101318359375	667.9166654745689584160572849214076995849609375	0.0	17025.061170259999926201999187469482421875	0.0	1	1	1	1
5606	S6	2019	8	22	14	668.781775676028019006480462849140167236328125	676.7536252088949595417943783104419708251953125	194.0031807912899921575444750487804412841796875	23.6946479313809987843342241831123828887939453125	39.02591529093989919374507735483348369598388671875	2.8250704196976901272364557371474802494049072265625	865.1666591564800228297826834022998809814453125	0.0	21153.1724532445005024783313274383544921875	0.0	1	1	1	1
5607	S6	2019	8	22	15	608.933933936225002980791032314300537109375	725.488721550834952722652815282344818115234375	148.728361468844013870693743228912353515625	24.024444389343198480446517351083457469940185546875	38.38166648017030269102178863249719142913818359375	2.71055555707877982030140628921799361705780029296875	798.4999964634570233101840130984783172607421875	0.0	19504.56567605329837533645331859588623046875	0.0	1	1	1	1
5608	S6	2019	8	22	16	468.09465383885600431312923319637775421142578125	547.8661410775349622781504876911640167236328125	168.807010831274993734041345305740833282470703125	24.02813372704969907545091700740158557891845703125	39.62117008644889892821083776652812957763671875	3.001392754588609879107252709218300879001617431640625	588.2500012715660204776213504374027252197265625	0.0	14501.366198062800322077237069606781005859375	0.0	1	1	1	1
5609	S6	2019	8	22	17	320.40798903571197797646163962781429290771484375	337.83627248340098958578892052173614501953125	176.57323744032100876211188733577728271484375	23.600555674235000225280600716359913349151611328125	41.944444592793701076516299508512020111083984375	3.00583332661125002260860128444619476795196533203125	382.16667373974900101529783569276332855224609375	0.0	9428.75943084557002293877303600311279296875	0.0	1	1	1	1
5610	S6	2019	8	22	18	135.840301005045006377258687280118465423583984375	33.07415580385259801232678000815212726593017578125	126.0465747197460046891137608326971530914306640625	22.714444584316598962914213188923895359039306640625	46.1527779049342967709890217520296573638916015625	2.227222217784980085042434438946656882762908935546875	133.250001817939988768557668663561344146728515625	0.0	3471.97639445462982621393166482448577880859375	0.0	1	1	1	1
5611	S6	2019	8	22	19	51.02725153499169863380302558653056621551513671875	3.188621580642129860194700086140073835849761962890625	50.852121464411396800642251037061214447021484375	21.898888884650300923340182635001838207244873046875	49.9955556445651012609232566319406032562255859375	1.28277778004606002326681846170686185359954833984375	45.83333355064200276274277712218463420867919921875	0.0	1230.750033011029927365598268806934356689453125	0.0	1	1	1	1
5612	S6	2019	8	22	20	15.9916687875553993336552593973465263843536376953125	0.311520999972370982167291231235140003263950347900390625	16.325292355772301533534118789248168468475341796875	20.86376823204150099400067119859158992767333984375	53.8166668380516028946658479981124401092529296875	0.7898550754871920265287599249859340488910675048828125	4.2499999884360502022673244937323033809661865234375	0.0	153.238325729036006350725074298679828643798828125	0.0	1	1	1	0
5613	S6	2019	8	22	21	0	0	0	0	0	0	0	0.0	0	0.0	1	1	1	0
5614	S6	2019	8	22	22	0	0	0	0	0	0	0	0.0	0	0.0	1	1	1	0
5615	S6	2019	8	22	23	0	0	0	0	0	0	0	0.0	0	0.0	1	1	1	0
5616	S6	2019	8	22	24	0	0	0	0	0	0	0	0.0	0	0.0	1	1	1	0
5617	S6	2019	8	23	1	0	0	0	0	0	0	0	0.0	0	0.0	1	1	1	0
5618	S6	2019	8	23	2	0	0	0	0	0	0	0	0.0	0	0.0	1	1	1	0
5619	S6	2019	8	23	3	0	0	0	0	0	0	0	0.0	0	0.0	1	1	1	0
5620	S6	2019	8	23	4	0	0	0	0	0	0	0	0.0	0	0.0	1	1	1	0
5621	S6	2019	8	23	5	0	0	0	0	0	0	0	0.0	0	0.0	1	1	1	0
5622	S6	2019	8	23	6	23.249332542204701468335770186968147754669189453125	0.45825364946169100388573269810876809060573577880859375	23.342799379894501043963828124105930328369140625	16.84147909599860071239163517020642757415771484375	75.760128475078801102426950819790363311767578125	1.48553054834868003553083326551131904125213623046875	17.83333354978810092461571912281215190887451171875	0.0	488.709084301566008434747345745563507080078125	0.0	1	1	1	1
5623	S6	2019	8	23	7	98.1782205051845977550328825600445270538330078125	20.005315136743899273596980492584407329559326171875	92.7849627812702948403966729529201984405517578125	17.561666711171401544788750470615923404693603515625	74.7483336554632984416457475163042545318603515625	1.716666662030740031497089148615486919879913330078125	84.6666675060987046208538231439888477325439453125	0.0	2364.9312555789902035030536353588104248046875	0.0	1	1	1	1
5624	S6	2019	8	23	8	251.523995208739989948298898525536060333251953125	292.1117986043290102315950207412242889404296875	147.874264568752010973184951581060886383056640625	19.11611114078090167822665534913539886474609375	67.2705554114447039637525449506938457489013671875	1.82861110832955997551607651985250413417816162109375	230.583333720761999074966297484934329986572265625	0.0	6451.5812546014904000912792980670928955078125	0.0	1	1	1	1
5625	S6	2019	8	23	9	367.7847226424950122236623428761959075927734375	256.65834995323501743769156746566295623779296875	244.37423534124599200367811135947704315185546875	20.703380337567299562806510948576033115386962890625	60.6847887495872981844513560645282268524169921875	2.1808450624976298826140919118188321590423583984375	372.4166651566810060103307478129863739013671875	0.0	10365.40410916009932407177984714508056640625	0.0	1	1	1	1
5626	S6	2019	8	23	10	467.18777270846800320214242674410343170166015625	315.89714156256701471647829748690128326416015625	284.31227900187099066897644661366939544677734375	21.930555523766400938256992958486080169677734375	59.1383332994249002467768150381743907928466796875	2.137777772380240026706132994149811565876007080078125	493.24999749660497627701261080801486968994140625	0.0	13641.460835933599810232408344745635986328125	0.0	1	1	1	1
5627	S6	2019	8	23	11	612.2606486795999671812751330435276031494140625	644.850390293471946279169060289859771728515625	186.954092084199004375477670691907405853271484375	22.833983296471298984897657646797597408294677734375	56.13732582878599686182496952824294567108154296875	2.160445680276259938779048752621747553348541259765625	733.8333378235480495277442969381809234619140625	0.0	18935.98288297649924061261117458343505859375	0.0	1	1	1	1
5628	S6	2019	8	23	12	685.446790410431049167527817189693450927734375	759.8161979890199972942355088889598846435546875	151.005205396195009370785555802285671234130859375	23.7104225642244017535631428472697734832763671875	55.40309846904909818476880900561809539794921875	2.4152112741705398235581014887429773807525634765625	849.249993761379982970538549125194549560546875	0.0	21816.5945212045990047045052051544189453125	0.0	1	1	1	1
5629	S6	2019	8	23	13	637.4163093914729643074679188430309295654296875	611.9795900133959776212577708065509796142578125	200.761419186112988199965911917388439178466796875	24.451367711585998421242038602940738201141357421875	53.29604860207229677371287834830582141876220703125	2.48936169596789991231844396679662168025970458984375	723.9166696866360553030972369015216827392578125	0.0	17924.735496441498980857431888580322265625	0.0	1	1	1	1
5630	S6	2019	8	23	14	595.5895361219130563767976127564907073974609375	578.0258172117170261117280460894107818603515625	203.5817579996009953902103006839752197265625	24.460416685967199867945964797399938106536865234375	53.319047530492099440380115993320941925048828125	3.01458332962578001712472541839815676212310791015625	725.49999505281402889522723853588104248046875	0.0	17560.56489547089950065128505229949951171875	0.0	1	1	1	1
5631	S6	2019	8	23	15	557.5438667665040384235908277332782745361328125	602.69167776064705321914516389369964599609375	183.263332688664007719125947915017604827880859375	24.64216860805640152420892263762652873992919921875	53.56114447260470257106135250069200992584228515625	2.600903613560169969076696361298672854900360107421875	725.83333154519505114876665174961090087890625	0.0	17524.38942591350132715888321399688720703125	0.0	1	1	1	1
5632	S6	2019	8	23	16	361.74414868200000228171120397746562957763671875	263.9170136548419804967124946415424346923828125	218.52502490918499233885086141526699066162109375	24.041593000248798972506847348995506763458251953125	57.5395280393527031037592678330838680267333984375	2.745427729984999842827164684422314167022705078125	383.2500055432329872928676195442676544189453125	0.0	10004.398852586700741085223853588104248046875	0.0	1	1	1	1
5633	S6	2019	8	23	17	205.799949710107995315411244519054889678955078125	86.4744886821892038142323144711554050445556640625	175.343014415238002357000368647277355194091796875	23.165266207954100963206656160764396190643310546875	62.979551790809097155943163670599460601806640625	2.46610644326155981076453826972283422946929931640625	202.499999354283005459365085698664188385009765625	0.0	5353.7170787652503349818289279937744140625	0.0	1	1	1	1
5634	S6	2019	8	23	18	165.53941973894001193912117742002010345458984375	171.20900303383399432277656160295009613037109375	122.891363602110004649148322641849517822265625	22.97681576712830064934678375720977783203125	65.3606143503881042988723493181169033050537109375	1.7670391027154799257203876550192944705486297607421875	160.08333489298598806271911598742008209228515625	0.0	3886.43923401831989394850097596645355224609375	0.0	1	1	1	1
5635	S6	2019	8	23	19	74.4315096802180988788677495904266834259033203125	198.325164778365007123284158296883106231689453125	50.66217311223339692105582798831164836883544921875	22.474444484710598857191143906675279140472412109375	66.9488888210720034521727939136326313018798828125	1.9755555517971499224216813672683201730251312255859375	63.2500005109859984031572821550071239471435546875	0.0	1436.78309954702990580699406564235687255859375	0.0	1	1	1	1
5636	S6	2019	8	23	20	17.321375146204101014291154569946229457855224609375	46.719046149934996492447680793702602386474609375	15.480980386539300752701819874346256256103515625	21.44693923483080055802929564379155635833740234375	72.3244896713568010682138265110552310943603515625	0.90102041315059200332626687668380327522754669189453125	2.916666688785559902186150793568231165409088134765625	0.0	123.674901124710004296503029763698577880859375	0.0	1	1	1	0
5637	S6	2019	8	23	21	0	0	0	0	0	0	0	0.0	0	0.0	1	1	1	0
5638	S6	2019	8	23	22	0	0	0	0	0	0	0	0.0	0	0.0	1	1	1	0
5639	S6	2019	8	23	23	0	0	0	0	0	0	0	0.0	0	0.0	1	1	1	0
5640	S6	2019	8	23	24	0	0	0	0	0	0	0	0.0	0	0.0	1	1	1	0
5641	S6	2019	8	24	1	0	0	0	0	0	0	0	0.0	0	0.0	1	1	1	0
5642	S6	2019	8	24	2	0	0	0	0	0	0	0	0.0	0	0.0	1	1	1	0
5643	S6	2019	8	24	3	0	0	0	0	0	0	0	0.0	0	0.0	1	1	1	0
5644	S6	2019	8	24	4	0	0	0	0	0	0	0	0.0	0	0.0	1	1	1	0
5645	S6	2019	8	24	5	0	0	0	0	0	0	0	0.0	5.91199984773999975828928654664196074008941650390625	0.0	1	1	1	0
5646	S6	2019	8	24	6	38.00163811481360198740730993449687957763671875	147.7701111422790063443244434893131256103515625	23.70377180793060034602603991515934467315673828125	15.476363615556099517789334640838205814361572265625	93.807272385105903822477557696402072906494140625	0.2057575790268000026639327870725537650287151336669921875	15.5000000086147000644132276647724211215972900390625	0.0	537.925709349415001270244829356670379638671875	0.0	1	1	1	0
5647	S6	2019	8	24	7	146.7205759684239865237032063305377960205078125	438.8997283935540281163412146270275115966796875	57.4337028503417030833588796667754650115966796875	17.76555551952780120927855023182928562164306640625	87.7455556233723967807236476801335811614990234375	0.15250000233451499465076039996347390115261077880859375	75.50000026821959409062401391565799713134765625	0.0	2441.5972704688601879752241075038909912109375	0.0	1	1	1	1
5648	S6	2019	8	24	8	283.757681543175976912607438862323760986328125	526.2227332212700048330589197576045989990234375	110.0464900623660042811025050468742847442626953125	18.984090973030401272581002558581531047821044921875	83.9068182164972000691705034114420413970947265625	0.85284091125835004287836227376828901469707489013671875	276.08333652218198039918206632137298583984375	0.0	6793.0063704649501232779584825038909912109375	0.0	1	1	1	1
5649	S6	2019	8	24	9	454.25451201117397204143344424664974212646484375	695.833415634451966980122961103916168212890625	128.5016043617860077574732713401317596435546875	20.376323104900901483915731660090386867523193359375	76.4005574090898988970366190187633037567138671875	0.83314763586501194847500073592527769505977630615234375	487.0000009735409776112646795809268951416015625	0.0	13388.68006070450064726173877716064453125	0.0	1	1	1	1
5650	S6	2019	8	24	10	551.6915232340489865237032063305377960205078125	797.768835110133977650548331439495086669921875	94.5829705344306006509214057587087154388427734375	22.110000016954199253405022318474948406219482421875	68.4544443978202963307921891100704669952392578125	0.6075000037749600512171355148893781006336212158203125	647.0833371082929943440831266343593597412109375	0.0	16927.44529247279933770187199115753173828125	0.0	1	1	1	1
5651	S6	2019	8	24	11	640.7167661878789886031881906092166900634765625	835.6673316107850268963375128805637359619140625	95.4684783935546050770426518283784389495849609375	23.1933334138658011625011567957699298858642578125	65.5511109246148038209867081604897975921630859375	0.61833333596587103375696869989042170345783233642578125	796.8333214521400122976046986877918243408203125	0.0	20247.01790014899961533956229686737060546875	0.0	1	1	1	1
5652	S6	2019	8	24	12	695.000093248155053515802137553691864013671875	861.96266242133197010844014585018157958984375	93.173531956142795706909964792430400848388671875	23.992777739630799516135084559209644794464111328125	60.93388875325519649095440399833023548126220703125	0.635555558568901002303164204931817948818206787109375	871.000001827874029913800768554210662841796875	0.0	22084.6781333286999142728745937347412109375	0.0	1	1	1	1
5653	S6	2019	8	24	13	706.3907714843750227373675443232059478759765625	867.8057037353510168031789362430572509765625	93.4049547195433973456601961515843868255615234375	24.82222228580049971924381679855287075042724609375	54.90388912624779749194203759543597698211669921875	0.6975000025497539724028683849610388278961181640625	909.9999964237209724160493351519107818603515625	0.0	22430.2896261214991682209074497222900390625	0.0	1	1	1	1
5654	S6	2019	8	24	14	686.0724895901149693600018508732318878173828125	835.8211283365880035489681176841259002685546875	119.2611148834219960690461448393762111663818359375	25.2155556042988990839148755185306072235107421875	54.6388888041177978038831497542560100555419921875	1.0641666676435199700989642224158160388469696044921875	911.333332459131042924127541482448577880859375	0.0	21687.9518826802013791166245937347412109375	0.0	1	1	1	1
5655	S6	2019	8	24	15	614.765522427029054597369395196437835693359375	787.3982152303050270347739569842815399169921875	133.99283638000400742384954355657100677490234375	25.86500008371140069129978655837476253509521484375	51.26527808507280070671185967512428760528564453125	0.82944444674584605348144350500660948455333709716796875	812.9999985297509965675999410450458526611328125	0.0	19379.90482648209945182316005229949951171875	0.0	1	1	1	1
5656	S6	2019	8	24	16	484.15744951036202792238327674567699432373046875	755.541358608669042951078154146671295166015625	97.469963370429098858949146233499050140380859375	26.138333230548401076021036715246737003326416015625	51.15000016954210337871700176037847995758056640625	0.56416667029261502452897047987789846956729888916015625	626.0000020265580360501189716160297393798828125	0.0	15069.97897227599969482980668544769287109375	0.0	1	1	1	1
5657	S6	2019	8	24	17	349.1434120178220155139570124447345733642578125	702.78845130072704705526120960712432861328125	73.53617225223109699072665534913539886474609375	25.054166698455798467648492078296840190887451171875	56.69416660732689905444203759543597698211669921875	0.93916666665010894998744106487720273435115814208984375	434.0833326180789981663110665977001190185546875	0.0	10454.283485809899502783082425594329833984375	0.0	1	1	1	1
5658	S6	2019	8	24	18	209.87212999131901369764818809926509857177734375	598.890206231011006821063347160816192626953125	55.450953091515401638389448635280132293701171875	24.9100000010596005495244753547012805938720703125	50.49361127217610345496723311953246593475341796875	1.2099999999834400998821593020693399012088775634765625	236.583330978949987866144510917365550994873046875	0.0	5229.41912710667020292021334171295166015625	0.0	1	1	1	1
5659	S6	2019	8	24	19	78.56252162191600518781342543661594390869140625	359.98884328206298732766299508512020111083984375	32.25731220245359764930981327779591083526611328125	23.320277924007800862682415754534304141998291015625	54.833055422041098836416495032608509063720703125	0.9641666670640309799722444950020872056484222412109375	61.08333333395449926683795638382434844970703125	0.0	1275.6952736526700391550548374652862548828125	0.0	1	1	1	1
5660	S6	2019	8	24	20	16.09756493081849981763298274017870426177978515625	74.235650488308493777367402799427509307861328125	12.7267418102342002583782232250086963176727294921875	21.536734639381801770241509075276553630828857421875	58.0530607262436006976713542826473712921142578125	0.74387755473049299581589366425760090351104736328125	1.1666666735739799065640909248031675815582275390625	0.0	100.623224861918998840337735600769519805908203125	0.0	1	1	1	0
5661	S6	2019	8	24	21	0	0	0	0	0	0	0	0.0	0	0.0	1	1	1	0
5662	S6	2019	8	24	22	0	0	0	0	0	0	0	0.0	0	0.0	1	1	1	0
5663	S6	2019	8	24	23	0	0	0	0	0	0	0	0.0	0	0.0	1	1	1	0
5664	S6	2019	8	24	24	0	0	0	0	0	0	0	0.0	0	0.0	1	1	1	0
5665	S6	2019	8	25	1	0	0	0	0	0	0	0	0.0	0	0.0	1	1	1	0
5666	S6	2019	8	25	2	0	0	0	0	0	0	0	0.0	0	0.0	1	1	1	0
5667	S6	2019	8	25	3	0	0	0	0	0	0	0	0.0	0	0.0	1	1	1	0
5668	S6	2019	8	25	4	0	0	0	0	0	0	0	0.0	0	0.0	1	1	1	0
5669	S6	2019	8	25	5	0	0	0	0	0	0	0.08333333729145829538165202166055678389966487884521484375	0.0	3.9644500551123798004482523538172245025634765625	0.0	1	1	1	0
5670	S6	2019	8	25	6	34.88246988733479980737683945335447788238525390625	108.4805512709690020756170270033180713653564453125	23.934900971758100496344923158176243305206298828125	15.4520123484702995853012907900847494602203369140625	95.5170283125650030342512764036655426025390625	1.051393191050439934741689285147003829479217529296875	15.7500001951118999699019695981405675411224365234375	0.0	523.3567270139850506893708370625972747802734375	0.0	1	1	1	0
5671	S6	2019	8	25	7	139.36188161638000337916309945285320281982421875	383.12619349161701620687381364405155181884765625	60.4792083528305965955951251089572906494140625	16.97611116833149935700930655002593994140625	93.8194446987575929597369395196437835693359375	1.1358333337638100157818143998156301677227020263671875	80.0000013162688929924115655012428760528564453125	0.0	2351.767649253210038295947015285491943359375	0.0	1	1	1	1
5672	S6	2019	8	25	8	279.55217348734498727935715578496456146240234375	596.7648274739580074310651980340480804443359375	80.5059672461615036809234879910945892333984375	19.45333334604890040964164654724299907684326171875	84.93777785831019855322665534913539886474609375	1.491666668653480076756068228860385715961456298828125	263.49999631444597980589605867862701416015625	0.0	6865.6032135089399162097834050655364990234375	0.0	1	1	1	1
5673	S6	2019	8	25	9	421.20778664482901376686641015112400054931640625	704.8303120930989962289459072053432464599609375	95.626065360175203977632918395102024078369140625	21.773888900544900337763465358875691890716552734375	75.8961113188000950913192355073988437652587890625	1.776944440437679961775074843899346888065338134765625	456.24999950329498688006424345076084136962890625	0.0	12390.747129917099300655536353588104248046875	0.0	1	1	1	1
5674	S6	2019	8	25	10	543.9312645806199952858150936663150787353515625	768.206611463758008540025912225246429443359375	106.1068922678619941279976046644151210784912109375	23.592777834998198471794239594601094722747802734375	68.1461116578843046909241820685565471649169921875	1.6577777748306499194796970186871476471424102783203125	642.7500049273179456577054224908351898193359375	0.0	16719.0472483634002855978906154632568359375	0.0	1	1	1	1
5675	S6	2019	8	25	11	638.514415995279023263719864189624786376953125	812.8579138861759929568506777286529541015625	110.66894170973000655067153275012969970703125	24.931666729185298692073047277517616748809814453125	60.7208333969116011985533987171947956085205078125	2.1161111030313701775185108999721705913543701171875	794.333338737485973979346454143524169921875	0.0	19845.676064491199213080108165740966796875	0.0	1	1	1	1
5676	S6	2019	8	25	12	697.77140943739095746423117816448211669921875	847.7112769232850268963375128805637359619140625	108.518845960828997476710355840623378753662109375	25.36583330366340049977225135080516338348388671875	56.8563887914020966718453564681112766265869140625	2.37750000125832006148129948996938765048980712890625	874.58334366480403332388959825038909912109375	0.0	21805.787364641801104880869388580322265625	0.0	1	1	1	1
5677	S6	2019	8	25	13	712.8333976554330320141161791980266571044921875	865.316944515471959675778634846210479736328125	104.6068674581620001617920934222638607025146484375	26.052646238491700358963498729281127452850341796875	44.7064067447417983203195035457611083984375	2.47158774866367014766410648007877171039581298828125	921.9166686137499482356361113488674163818359375	0.0	22465.5268987019007909111678600311279296875	0.0	1	1	1	1
5678	S6	2019	8	25	14	681.62496676974797082948498427867889404296875	861.919639417860025787376798689365386962890625	101.2861253526470051156138652004301548004150390625	26.620277982287898765889622154645621776580810546875	39.625555653042198400726192630827426910400390625	2.902777767346960136052302914322353899478912353515625	907.749990622201949008740484714508056640625	0.0	21634.17208194730119430460035800933837890625	0.0	1	1	1	1
5679	S6	2019	8	25	15	598.27435150146402520476840436458587646484375	817.3720403035480330800055526196956634521484375	102.077504136827002412246656604111194610595703125	26.61916651195949867769741103984415531158447265625	39.5247222794425994152334169484674930572509765625	2.7936111027167900289214230724610388278961181640625	794.416666030884016436175443232059478759765625	0.0	19139.81445630389862344600260257720947265625	0.0	1	1	1	1
5680	S6	2019	8	25	16	480.90805977715302788055851124227046966552734375	750.6300411648220460847369395196437835693359375	99.42588632371689527644775807857513427734375	26.44083313412129854214072111062705516815185546875	39.25500007205530295095741166733205318450927734375	2.427777771817309915292071309522725641727447509765625	628.583331902819963943329639732837677001953125	0.0	15263.238390286700450815260410308837890625	0.0	1	1	1	1
5681	S6	2019	8	25	17	341.44037526448499875186826102435588836669921875	636.9923950195310453636921010911464691162109375	94.0812230639987063796070287935435771942138671875	26.098333258099000175889159436337649822235107421875	39.10500005086259989184327423572540283203125	2.251111104008220120675787256914190948009490966796875	426.8333390355099936641636304557323455810546875	0.0	10259.2478692531003616750240325927734375	0.0	1	1	1	1
5682	S6	2019	8	25	18	160.092354954613000472818384878337383270263671875	309.0666353408660143031738698482513427734375	75.676488176981592914671637117862701416015625	24.880277776718099147501561674289405345916748046875	43.2366665734185033898029359988868236541748046875	2.106111107518270131322424276731908321380615234375	178.499999145666009781052707694470882415771484375	0.0	4125.7270177205200525349937379360198974609375	0.0	1	1	1	1
5683	S6	2019	8	25	19	39.88712824715499749572700238786637783050537109375	18.849750208689098229797309613786637783050537109375	39.17164647844099789608662831597030162811279296875	22.89388875961299874006726895458996295928955078125	50.68194455040819690339048975147306919097900390625	1.292222224672630037645149059244431555271148681640625	32.416666780287897609014180488884449005126953125	0.0	927.5744346280889658373780548572540283203125	0.0	1	1	1	1
5684	S6	2019	8	25	20	12.642928451299599856838540290482342243194580078125	27.167108600959100073168883682228624820709228515625	11.953854620456599633371297386474907398223876953125	22.212499956289899927242004196159541606903076171875	54.32812476158139958215542719699442386627197265625	1.3083333323399199965564321246347390115261077880859375	2.16666668226632008753540503676049411296844482421875	0.0	97.7620500683162987343166605569422245025634765625	0.0	1	1	1	0
5685	S6	2019	8	25	21	0	0	0	0	0	0	0	0.0	0	0.0	1	1	1	0
5686	S6	2019	8	25	22	0	0	0	0	0	0	0	0.0	0	0.0	1	1	1	0
5687	S6	2019	8	25	23	0	0	0	0	0	0	0	0.0	0	0.0	1	1	1	0
5688	S6	2019	8	25	24	0	0	0	0	0	0	0	0.0	0	0.0	1	1	1	0
5689	S6	2019	8	26	1	0	0	0	0	0	0	0	0.0	0	0.0	1	1	1	0
5690	S6	2019	8	26	2	0	0	0	0	0	0	0	0.0	0	0.0	1	1	1	0
5691	S6	2019	8	26	3	0	0	0	0	0	0	0	0.0	0	0.0	1	1	1	0
5692	S6	2019	8	26	4	0	0	0	0	0	0	0	0.0	0	0.0	1	1	1	0
5693	S6	2019	8	26	5	0	0	0	0	0	0	0.08333333729145829538165202166055678389966487884521484375	0.0	0	0.0	1	1	1	0
5694	S6	2019	8	26	6	22.763409400219199341108833323232829570770263671875	28.7003545185446995446909568272531032562255859375	21.3300998902087002306870999746024608612060546875	17.66286655513000170003579114563763141632080078125	89.053419504569404807625687681138515472412109375	1.1742671024333299900632709977799095213413238525390625	14.833333727437899796086639980785548686981201171875	0.0	430.5376003806790095040923915803432464599609375	0.0	1	1	1	1
5695	S6	2019	8	26	7	112.7666485892400061175067094154655933380126953125	76.1005983318718932650881470181047916412353515625	95.7545751889546039592460147105157375335693359375	18.304444440205799082832527346909046173095703125	88.392777358160998346647829748690128326416015625	1.786944444725909963977983352378942072391510009765625	92.3333326354619003950574551708996295928955078125	0.0	2541.89496735732018350972793996334075927734375	0.0	1	1	1	1
5696	S6	2019	8	26	8	259.9774455600310147929121740162372589111328125	210.752680559953006422801990993320941925048828125	193.323002031113986731725162826478481292724609375	20.466388977898400725052852067165076732635498046875	80.5736112594604065861858543939888477325439453125	1.8663888827794099523060822320985607802867889404296875	242.499998460212992767992545850574970245361328125	0.0	6412.1450583140003800508566200733184814453125	0.0	1	1	1	1
5697	S6	2019	8	26	9	350.61398705376501538921729661524295806884765625	393.65131778849399779574014246463775634765625	162.687172741360001282373559661209583282470703125	22.9586109161376015208588796667754650115966796875	69.2250003178913999590804451145231723785400390625	1.6077777796321399694789988643606193363666534423828125	372.5000023841849952077609486877918243408203125	0.0	10037.342250347099252394400537014007568359375	0.0	1	1	1	1
5698	S6	2019	8	26	10	521.94894714355405085370875895023345947265625	664.554814317491036490537226200103759765625	141.679046207004006419083452783524990081787109375	24.92972226142880032284665503539144992828369140625	59.36472197638610026615424430929124355316162109375	2.11305554815464002871294724172912538051605224609375	612.4166597922639994067139923572540283203125	0.0	15937.63864040370026486925780773162841796875	0.0	1	1	1	1
5699	S6	2019	8	26	11	614.025808715819948702119290828704833984375	708.948921034070963287376798689365386962890625	150.4241760253900110910763032734394073486328125	26.04861105283099931284596095792949199676513671875	49.815833409627202854608185589313507080078125	2.237777778423490016024288706830702722072601318359375	761.0833346843719482421875	0.0	19082.02795187630181317217648029327392578125	0.0	1	1	1	1
5700	S6	2019	8	26	12	669.4850928412539587952778674662113189697265625	741.23215111626495854579843580722808837890625	150.006959194606992014087154529988765716552734375	26.883055586284999805002371431328356266021728515625	45.511388799879199495990178547799587249755859375	2.43222222162617018881292096921242773532867431640625	837.00001736481999614625237882137298583984375	0.0	20797.313014666200615465641021728515625	0.0	1	1	1	1
5701	S6	2019	8	26	13	680.1339396158849694984382949769496917724609375	747.5006291707350101205520331859588623046875	147.96946940951801252595032565295696258544921875	27.29999987814159823074078303761780261993408203125	42.663610924614800978815765120089054107666015625	2.2702777800460598456311345216818153858184814453125	875.4166712363570468369289301335811614990234375	0.0	21321.00586096440019900910556316375732421875	0.0	1	1	1	1
5702	S6	2019	8	26	14	647.6276370578340220163227058947086334228515625	741.7759375678159585731918923556804656982421875	141.27561993069099344211281277239322662353515625	27.3458334445952999658402404747903347015380859375	40.61305551528929669302669935859739780426025390625	2.692222220533420085075704264454543590545654296875	858.5833261410390377932344563305377960205078125	0.0	20442.56285826360181090421974658966064453125	0.0	1	0	1	1
5703	S6	2019	8	26	15	565.63154161241300244000740349292755126953125	703.04566735161597534897737205028533935546875	135.50174916585200435292790643870830535888671875	27.409999815622899888012398150749504566192626953125	40.962222247653500062369857914745807647705078125	2.53361110637584996396753922454081475734710693359375	747.8333314259849657901213504374027252197265625	0.0	7756.525423843389944522641599178314208984375	0.0	1	0	1	1
5704	S6	2019	8	26	16	454.2120657179090130739496089518070220947265625	657.6419631958000309168710373342037200927734375	122.3908623377480040517184534110128879547119140625	27.111666737662400095132397837005555629730224609375	44.0144443935817974988822243176400661468505859375	2.6836111096872201642327127046883106231689453125	590.166668097175943330512382090091705322265625	0.0	12042.090923835799912922084331512451171875	0.0	1	0	1	1
5705	S6	2019	8	26	17	321.51176092359702352041495032608509063720703125	568.2817454867889637171174399554729461669921875	103.66881915198399610744672827422618865966796875	26.763888968361701614639969193376600742340087890625	44.42777789433790047723960014991462230682373046875	2.256944445106709995485516628832556307315826416015625	398.2500011722249837475828826427459716796875	0.0	9506.467004617050406523048877716064453125	0.0	1	0	1	1
5706	S6	2019	8	26	18	184.82125534481400563890929333865642547607421875	430.57104534572999909869395196437835693359375	77.7903310139974024650655337609350681304931640625	25.97027771737840140531261567957699298858642578125	46.36305541992179968247000942938029766082763671875	1.709722218579710073527166969142854213714599609375	207.166665544111992858233861625194549560546875	0.0	4590.3162906567604295560158789157867431640625	0.0	1	1	1	1
5707	S6	2019	8	26	19	75.8112791485255996803971356712281703948974609375	192.70397867626599008872290141880512237548828125	51.74199563662210010761555167846381664276123046875	24.40500006145899902776363887824118137359619140625	52.04833342234289972338956431485712528228759765625	1.294999998642329952502905143774114549160003662109375	65.666666409621797129148035310208797454833984375	0.0	1549.135465174909995766938664019107818603515625	0.0	1	1	1	1
5708	S6	2019	8	26	20	18.2929908694053011686264653690159320831298828125	6.5799076543474601663774592452682554721832275390625	18.511581634988498734628592501394450664520263671875	23.18265315464559961355917039327323436737060546875	55.726530775731902167535736225545406341552734375	1.2367346904107499039326967249508015811443328857421875	4.33333344214284021944649794022552669048309326171875	0.0	172.584780647108999573902110569179058074951171875	0.0	1	1	1	0
5709	S6	2019	8	26	21	0	0	0	0	0	0	0	0.0	0	0.0	1	1	1	0
5710	S6	2019	8	26	22	0	0	0	0	0	0	0	0.0	0	0.0	1	1	1	0
5711	S6	2019	8	26	23	0	0	0	0	0	0	0	0.0	0	0.0	1	1	1	0
5712	S6	2019	8	26	24	0	0	0	0	0	0	0	0.0	0	0.0	1	1	1	0
5713	S6	2019	8	27	1	0	0	0	0	0	0	0	0.0	0	0.0	1	1	1	0
5714	S6	2019	8	27	2	0	0	0	0	0	0	0	0.0	0	0.0	1	1	1	0
5715	S6	2019	8	27	3	0	0	0	0	0	0	0	0.0	0	0.0	1	1	1	0
5716	S6	2019	8	27	4	0	0	0	0	0	0	0	0.0	0	0.0	1	1	1	0
5717	S6	2019	8	27	5	0	0	0	0	0	0	0.08333333729145829538165202166055678389966487884521484375	0.0	0	0.0	1	1	1	0
5718	S6	2019	8	27	6	34.12164741992950212079449556767940521240234375	74.116513224045405650031170807778835296630859375	27.846123051643299817214938229881227016448974609375	16.70233334859209861633644322864711284637451171875	94.3573336029052001094896695576608180999755859375	1.31800000131130001790324968169443309307098388671875	20.0000000380290003931804676540195941925048828125	0.0	596.676050297294978008721955120563507080078125	0.0	1	1	1	1
5719	S6	2019	8	27	7	134.378238995868997562865843065083026885986328125	298.01182488335501830079010687768459320068359375	76.222797679901105993849341757595539093017578125	18.230833413865799030872949515469372272491455078125	90.5899999194675018543421174399554729461669921875	1.2094444431364499425995973069802857935428619384765625	91.8333350370335068646454601548612117767333984375	0.0	2635.68012913068014313466846942901611328125	0.0	1	1	1	1
5720	S6	2019	8	27	8	106.6175090048040061674328171648085117340087890625	80.9856347130403975143053685314953327178955078125	84.9094801796806990523691638372838497161865234375	19.963888756434098326053572236560285091400146484375	86.0969442367553057238183100707828998565673828125	1.3294444435172600993411151648615486919879913330078125	88.916666184862293675905675627291202545166015625	0.0	2403.73153239489010957186110317707061767578125	0.0	1	1	1	1
5721	S6	2019	8	27	9	82.3007883495753986835552495904266834259033203125	1.10144332850143999991132659488357603549957275390625	81.9842495812309977054610499180853366851806640625	20.41750014093179999008498270995914936065673828125	85.834999953375898940066690556704998016357421875	1.2124999969369800734142472720122896134853363037109375	75.2500003824630994131439365446567535400390625	0.0	2136.02983951568012344068847596645355224609375	0.0	1	1	1	1
5722	S6	2019	8	27	10	459.0553318871390047206659801304340362548828125	319.1543215473490135991596616804599761962890625	273.2936890920000223559327423572540283203125	23.09555567635430151085529359988868236541748046875	74.9047218746608933770403382368385791778564453125	1.536666660921440108467095342348329722881317138671875	509.83333215117500003543682396411895751953125	0.0	13448.251316944699283340014517307281494140625	0.0	1	1	1	1
5723	S6	2019	8	27	11	360.2192915369950014792266301810741424560546875	273.454077114382016588933765888214111328125	186.470683794342988903736113570630550384521484375	25.4890449127453990740832523442804813385009765625	64.781741474451592921468545682728290557861328125	1.609831458145980054297297101584263145923614501953125	413.91667475303000856001744978129863739013671875	0.0	10704.89942530789994634687900543212890625	0.0	1	1	1	1
5724	S6	2019	8	27	12	111.83706327643500344493077136576175689697265625	1.2059388573159000035417420804151333868503570556640625	110.129886338434999970559147186577320098876953125	23.971314867179199126212552073411643505096435546875	74.37171282521279636057442985475063323974609375	0.96772908736984997180030632080161012709140777587890625	99.1666670888669017358552082441747188568115234375	0.0	3042.58068899313002475537359714508056640625	0.0	1	1	1	1
5725	S6	2019	8	27	13	433.96609435860199255330371670424938201904296875	127.1318818359790014937971136532723903656005859375	343.90451871768101455018040724098682403564453125	23.84699142150000028550493880175054073333740234375	76.7461320062762979432591237127780914306640625	0.81719197875107596473753801546990871429443359375	481.24999552964999338655616156756877899169921875	0.0	12503.233720858799642883241176605224609375	0.0	1	1	1	1
5726	S6	2019	8	27	14	594.252512985400016987114213407039642333984375	495.55451789364298065265757031738758087158203125	263.56385696068201696107280440628528594970703125	25.097190915868498706231548567302525043487548828125	73.1803373486807942072118748910725116729736328125	1.0174157290478700321756377888959832489490509033203125	751.833339532214040445978753268718719482421875	0.0	18118.44942967090173624455928802490234375	0.0	1	1	1	1
5727	S6	2019	8	27	15	525.992864481607966808951459825038909912109375	559.6185333251950169142219237983226776123046875	189.4798399607340115835540927946567535400390625	25.38555550575249952771628159098327159881591796875	69.5474995083279026175659964792430400848388671875	1.6208333284490599179861192169482819736003875732421875	680.6666652361540172933018766343593597412109375	0.0	16433.84770552310146740637719631195068359375	0.0	1	1	1	1
5728	S6	2019	8	27	16	418.81082517835801581895793788135051727294921875	412.865193155075985487201251089572906494140625	206.861045074461998183323885314166545867919921875	26.78555548455980073185855871997773647308349609375	63.08888869815400113338910159654915332794189453125	1.699444441994029997289317179820500314235687255859375	514.2500003178889755872660316526889801025390625	0.0	12586.51757240289953188039362430572509765625	0.0	1	1	1	1
5729	S6	2019	8	27	17	201.10957806905099687355686910450458526611328125	76.3608790968441013546907925046980381011962890625	176.472225273980001247764448635280132293701171875	26.79861120118030015646581887267529964447021484375	64.82166699303519408204010687768459320068359375	1.496666661649939999989555872161872684955596923828125	198.833332707484004231446306221187114715576171875	0.0	5127.962956825869696331210434436798095703125	0.0	1	1	1	1
5730	S6	2019	8	27	18	115.29186573028499651627498678863048553466796875	95.163719577259399784452398307621479034423828125	88.23960215250650662710540927946567535400390625	25.99777780638800095402984879910945892333984375	66.2708332485621980367795913480222225189208984375	1.3386111082302198926896608099923469126224517822265625	116.6666656111679998275576508603990077972412109375	0.0	2926.860719919190159998834133148193359375	0.0	1	1	1	1
5731	S6	2019	8	27	19	38.4676486810048032793929451145231723785400390625	20.36385140899150059112798771820962429046630859375	37.2680089208813996037861215882003307342529296875	24.7341665956708993689971975982189178466796875	70.13583314683700109526398591697216033935546875	0.7933333359658709671435872223810292780399322509765625	29.4166669094312993593121063895523548126220703125	0.0	822.0839047183600314383511431515216827392578125	0.0	1	1	1	1
5732	S6	2019	8	27	20	10.1707953628227993903010428766719996929168701171875	0.426263309254937994285938884786446578800678253173828125	10.5768248402342006642129490501247346401214599609375	24.218367479285401344668571255169808864593505859375	72.4959174954160943116221460513770580291748046875	0.73265306682002695470856679094140417873859405517578125	0.66666665952652504056885618410888127982616424560546875	0.0	48.4935331235950997097461367957293987274169921875	0.0	1	1	1	0
5733	S6	2019	8	27	21	0	0	0	0	0	0	0	0.0	0	0.0	1	1	1	0
5734	S6	2019	8	27	22	0	0	0	0	0	0	0	0.0	0	0.0	1	1	1	0
5735	S6	2019	8	27	23	0	0	0	0	0	0	0	0.0	0	0.0	1	1	1	0
5736	S6	2019	8	27	24	0	0	0	0	0	0	0	0.0	0	0.0	1	1	1	0
5737	S6	2019	8	28	1	0	0	0	0	0	0	0	0.0	0	0.0	1	1	1	0
5738	S6	2019	8	28	2	0	0	0	0	0	0	0	0.0	0	0.0	1	1	1	0
5739	S6	2019	8	28	3	0	0	0	0	0	0	0	0.0	0	0.0	1	1	1	0
5740	S6	2019	8	28	4	0	0	0	0	0	0	0	0.0	0	0.0	1	1	1	0
5741	S6	2019	8	28	5	0	0	0	0	0	0	0	0.0	0	0.0	1	1	1	0
5742	S6	2019	8	28	6	15.546039360156900244192001991905272006988525390625	1.901099752256830033303458549198694527149200439453125	15.6811483856559998883994921925477683544158935546875	19.935869624649200204657972790300846099853515625	90.9014487888502031864845775999128818511962890625	1.0123188404933201045565738240838982164859771728515625	10.25000007939519974797804025001823902130126953125	0.0	271.25377332170700128699536435306072235107421875	0.0	1	1	1	1
5743	S6	2019	8	28	7	112.5873524983719988767916220240294933319091796875	128.378530027965013005086802877485752105712890625	86.035896205902105293716886080801486968994140625	20.7016667471990984950025449506938457489013671875	90.591666454738998481843736954033374786376953125	1.05722222253679998260622596717439591884613037109375	89.2500005041564037355783511884510517120361328125	0.0	2449.96159151195979575277306139469146728515625	0.0	1	1	1	1
5744	S6	2019	8	28	8	153.51129597557900297033484093844890594482421875	59.3553199988271984466337016783654689788818359375	135.743862533569000561328721232712268829345703125	22.005000336964901208602896076627075672149658203125	88.3383332570393946525655337609350681304931640625	1.2961111141575700766992440549074672162532806396484375	136.583333835004992806716472841799259185791015625	0.0	3356.82177791990989135229028761386871337890625	0.0	1	1	1	1
5745	S6	2019	8	28	9	208.913870408798999278587871231138706207275390625	20.666243692984100022158600040711462497711181640625	198.78161790635800798554555512964725494384765625	23.2783331871032004301014239899814128875732421875	83.86999982198079806039459072053432464599609375	0.80777778128782895539217179248225875198841094970703125	199.583331743874992980636307038366794586181640625	0.0	5442.111899455399907310493290424346923828125	0.0	1	1	1	1
5746	S6	2019	8	28	10	343.75376621300000579140032641589641571044921875	138.336980420538992575529846362769603729248046875	261.65346555038200904164114035665988922119140625	24.160845050005800516146337031386792659759521484375	80.21605663030919686207198537886142730712890625	1.0369014092734099019565974231227301061153411865234375	367.3333339393140022366424091160297393798828125	0.0	9811.644370357180378050543367862701416015625	0.0	1	1	1	1
5747	S6	2019	8	28	11	421.506342814933987028780393302440643310546875	166.304202425158990763520705513656139373779296875	309.23838706732402670240844599902629852294921875	25.37790364921929864294725120998919010162353515625	75.1620393488291966832548496313393115997314453125	1.7798866834755300292414403884322382509708404541015625	464.7500030696400017404812388122081756591796875	0.0	12171.22279604270079289563000202178955078125	0.0	1	1	1	1
5748	S6	2019	8	28	12	667.5001789167810102298972196877002716064453125	451.2579843964559813684900291264057159423828125	353.702076887884004463558085262775421142578125	26.632492925606499056812026537954807281494140625	69.3759099922928044179570861160755157470703125	2.251260499660369784891145172878168523311614990234375	801.9999911387780002769432030618190765380859375	0.0	20005.7484904925004229880869388580322265625	0.0	1	1	1	1
5749	S6	2019	8	28	13	625.4587344215029816041351296007633209228515625	546.540823522401979062124155461788177490234375	243.48908671744999310249113477766513824462890625	26.9403361953607003442812128923833370208740234375	65.670868561047399225572007708251476287841796875	2.47254901097601997861374911735765635967254638671875	800.2500012516969718490145169198513031005859375	0.0	19679.81251080819856724701821804046630859375	0.0	1	1	1	1
5750	S6	2019	8	28	14	594.4064314100470483026583679020404815673828125	549.9555261400009840144775807857513427734375	227.406636683145990218690712936222553253173828125	27.2283333460488989885561750270426273345947265625	62.92999998728429744687673519365489482879638671875	2.399722218761839886980169467278756201267242431640625	781.916677951812971514300443232059478759765625	0.0	18837.27310101189868873916566371917724609375	0.0	1	1	1	1
5751	S6	2019	8	28	15	535.4677038404670383897610008716583251953125	571.852734968397044212906621396541595458984375	193.82134632534399543146719224750995635986328125	26.919999790191599942090761032886803150177001953125	64.1449994405110004436210147105157375335693359375	2.324166659182969940644625239656306803226470947265625	700.4166692495349479941069148480892181396484375	0.0	16898.744146029101102612912654876708984375	0.0	1	1	1	1
5752	S6	2019	8	28	16	405.738827684190027866861782968044281005859375	500.73789181179398610765929333865642547607421875	159.740409639146008657917263917624950408935546875	26.77333326339719832276387023739516735076904296875	66.773333485921199326185160316526889801025390625	2.104722221526829972759742304333485662937164306640625	518.9999938011160338646732270717620849609375	0.0	12676.620284716200330876745283603668212890625	0.0	1	1	1	1
5753	S6	2019	8	28	17	298.81531588236401830727118067443370819091796875	450.77845442030098865870968438684940338134765625	131.079563246832009326681145466864109039306640625	26.175000031789100063406294793821871280670166015625	68.65333315531410107723786495625972747802734375	2.054722214738519792120996498852036893367767333984375	366.3333331545189821554231457412242889404296875	0.0	8862.87955443063037819229066371917724609375	0.0	1	1	1	1
5754	S6	2019	8	28	18	153.882503234014990312061854638159275054931640625	275.552900780571007999242283403873443603515625	86.7713906394109955044768867082893848419189453125	25.45666662851959927138523198664188385009765625	70.9233333587645944362520822323858737945556640625	1.9272222184472600492455285348114557564258575439453125	170.24999981125000658721546642482280731201171875	0.0	3888.905644416799987084232270717620849609375	0.0	1	1	1	1
5755	S6	2019	8	28	19	56.19260701603359819955585408024489879608154296875	88.617173843996397408773191273212432861328125	46.00769753721019839076689095236361026763916015625	23.888333320617601174262745189480483531951904296875	77.773333104451495501052704639732837677001953125	1.971944442805309893884668781538493931293487548828125	49.25000069973349781093929777853190898895263671875	0.0	1214.7342270860999633441679179668426513671875	0.0	1	1	1	1
5756	S6	2019	8	28	20	9.80334644813041933275599149055778980255126953125	0.2113823975835520119215260592682170681655406951904296875	10.08717575320940085248366813175380229949951171875	22.540259745213798936447346932254731655120849609375	84.64285654835879313395707868039608001708984375	2.209090912496880054760595157858915627002716064453125	1.166666722080349938295285028289072215557098388671875	0.0	57.5099664274601991564850322902202606201171875	0.0	1	1	1	0
5757	S6	2019	8	28	21	0	0	0	0	0	0	0	0.0	0	0.0	1	1	1	0
5758	S6	2019	8	28	22	0	0	0	0	0	0	0	0.0	0	0.0	1	1	1	0
5759	S6	2019	8	28	23	0	0	0	0	0	0	0	0.0	0	0.0	1	1	1	0
5760	S6	2019	8	28	24	0	0	0	0	0	0	0	0.0	0	0.0	1	1	1	0
5761	S6	2019	8	29	1	0	0	0	0	0	0	0	0.0	0	0.0	1	1	1	0
5762	S6	2019	8	29	2	0	0	0	0	0	0	0	0.0	0	0.0	1	1	1	0
5763	S6	2019	8	29	3	0	0	0	0	0	0	0	0.0	0	0.0	1	1	1	0
5764	S6	2019	8	29	4	0	0	0	0	0	0	0	0.0	0	0.0	1	1	1	0
5765	S6	2019	8	29	5	0	0	0	0	0	0	0	0.0	0	0.0	1	1	1	0
5766	S6	2019	8	29	6	27.918527624660800512401692685671150684356689453125	6.22491325292372010835606488399207592010498046875	27.791857884342501705532413325272500514984130859375	21.204511413000499686631883378140628337860107421875	82.1601507430685984445517533458769321441650390625	1.2157894761714700404553468615631572902202606201171875	19.833333693289400656567522673867642879486083984375	0.0	561.730724138519008192815817892551422119140625	0.0	1	1	1	1
5767	S6	2019	8	29	7	51.347236622704400588190765120089054107666015625	5.4818365007638902852704632095992565155029296875	50.86808805465690142000312334857881069183349609375	21.113333638509100609326196718029677867889404296875	83.0499998728434007944088079966604709625244140625	1.51500000001654999692846104153431951999664306640625	44.33333408087489857507534907199442386627197265625	0.0	1243.797966589520001434721052646636962890625	0.0	1	1	1	1
5768	S6	2019	8	29	8	54.8483451737296974215496447868645191192626953125	1.4847929529017800387435954689863137900829315185546875	54.6241873317294022172063705511391162872314453125	21.190000247955300238800191436894237995147705078125	82.84666722615560274789459072053432464599609375	0.80361111429002496375773034742451272904872894287109375	50.666666900118599414781783707439899444580078125	0.0	1432.70680805047004469088278710842132568359375	0.0	1	1	1	1
5769	S6	2019	8	29	9	119.946948178609005708494805730879306793212890625	1.660841177817840019770301296375691890716552734375	119.2329722298510006339711253531277179718017578125	21.423333072662298803834346472285687923431396484375	84.0966663360594992582264239899814128875732421875	1.4863888872994299727992029147571884095668792724609375	108.75000059604400348689523525536060333251953125	0.0	3029.43372726440020414884202182292938232421875	0.0	1	1	1	1
5770	S6	2019	8	29	10	244.936792874405995235065347515046596527099609375	15.954142793991000104369959444738924503326416015625	235.811558253644989235908724367618560791015625	21.940413078375598843194893561303615570068359375	82.0439525818051009764531045220792293548583984375	1.21946902577504001641273134737275540828704833984375	229.916665082175001089126453734934329986572265625	0.0	6458.167890707640253822319209575653076171875	0.0	1	1	1	1
5771	S6	2019	8	29	11	298.24843059115897858646349050104618072509765625	20.530598343991499632466002367436885833740234375	283.15429462856701547934790141880512237548828125	22.871666622161800574986045830883085727691650390625	77.1850002288818046736196265555918216705322265625	0.82361111202173697964923348990851081907749176025390625	300.41666701435997310909442603588104248046875	0.0	8128.90456120173985254950821399688720703125	0.0	1	1	1	1
5772	S6	2019	8	29	12	282.6789335477150189035455696284770965576171875	11.9999880242492000803622431703843176364898681640625	272.4771437348609879336436279118061065673828125	23.58898300774350076380869722925126552581787109375	74.786723012978001179362763650715351104736328125	0.855649717025837031059154469403438270092010498046875	273.08332920074502681018202565610408782958984375	0.0	7400.5998323361100119655020534992218017578125	0.0	1	1	1	1
5773	S6	2019	8	29	13	479.00806206208500270804506726562976837158203125	195.969837985440989314156468026340007781982421875	340.16390527763400086769252084195613861083984375	24.495702115034301726836929447017610073089599609375	68.3882519959719985536139574833214282989501953125	1.6842406844682800137746880864142440259456634521484375	560.166669388612035618280060589313507080078125	0.0	14079.810539881300428532995283603668212890625	0.0	1	1	1	1
5774	S6	2019	8	29	14	517.3635327475409440012299455702304840087890625	403.19090443339501916852896101772785186767578125	251.6534836632860105964937247335910797119140625	24.511011844589500441315976786427199840545654296875	63.4455355576105972659206599928438663482666015625	2.685416662622059913445582424174062907695770263671875	663.2500042517980318734771572053432464599609375	0.0	16117.026636997799869277514517307281494140625	0.0	1	1	1	1
5775	S6	2019	8	29	15	299.06004329209901015929062850773334503173828125	72.8133300488417063434098963625729084014892578125	254.8020467008090008675935678184032440185546875	24.45056177525029994512806297279894351959228515625	65.5261236683706016492578783072531223297119140625	1.216853934978499918173611149541102349758148193359375	323.0000051359339749978971667587757110595703125	0.0	8376.954803864149653236381709575653076171875	0.0	1	1	1	1
5776	S6	2019	8	29	16	261.95384073805502112008980475366115570068359375	116.2874453677519994698741356842219829559326171875	203.662188321694003434458863921463489532470703125	24.394827524820900777058341191150248050689697265625	66.7890799072966956373420543968677520751953125	1.2250000015757500637647581243072636425495147705078125	279.333335037031019965070299804210662841796875	0.0	7257.6088011264700980973429977893829345703125	0.0	1	1	1	1
5777	S6	2019	8	29	17	244.372574003830010269666672684252262115478515625	237.455190110983011209100368432700634002685546875	154.23995141739800374125479720532894134521484375	24.32577906924669974841890507377684116363525390625	65.68498539046589712597778998315334320068359375	1.92294616722857991675255107111297547817230224609375	283.49999897181902497322880662977695465087890625	0.0	6983.9158455530696301138959825038909912109375	0.0	1	1	1	1
5778	S6	2019	8	29	18	116.6485700049440055181548814289271831512451171875	108.0456338152019952758564613759517669677734375	94.1906853465980020700953900814056396484375	23.58969361137869924505139351822435855865478515625	67.3415041952743962383465259335935115814208984375	2.40222840920131996966802034876309335231781005859375	118.583335541188006345691974274814128875732421875	0.0	2876.1716187000201898626983165740966796875	0.0	1	1	1	1
5779	S6	2019	8	29	19	30.791409367985099976294804946519434452056884765625	14.257442806495500775554319261573255062103271484375	29.7189992586771012383906054310500621795654296875	22.885000101725200494229284231550991535186767578125	64.10333309173580573769868351519107818603515625	1.9486111115250299707923886671778745949268341064453125	26.49999960946529853345055016689002513885498046875	0.0	701.221430053308040442061610519886016845703125	0.0	1	1	1	1
5780	S6	2019	8	29	20	8.921391680127090495489028398878872394561767578125	1.584086996458820006949963499209843575954437255859375	9.2098714737664995055865801987238228321075439453125	22.25952366420199979302196879871189594268798828125	71.159523555210597578479791991412639617919921875	2.116666666098999893819154749508015811443328857421875	1.1666666929765299176580128914793021976947784423828125	0.0	43.3512334711846989421246689744293689727783203125	0.0	1	1	1	0
5781	S6	2019	8	29	21	0	0	0	0	0	0	0	0.0	0	0.0	1	1	1	0
5782	S6	2019	8	29	22	0	0	0	0	0	0	0	0.0	0	0.0	1	1	1	0
5783	S6	2019	8	29	23	0	0	0	0	0	0	0	0.0	0	0.0	1	1	1	0
5784	S6	2019	8	29	24	0	0	0	0	0	0	0	0.0	0	0.0	1	1	1	0
5785	S6	2019	8	30	1	0	0	0	0	0	0	0	0.0	0	0.0	1	1	1	0
5786	S6	2019	8	30	2	0	0	0	0	0	0	0	0.0	0	0.0	1	1	1	0
5787	S6	2019	8	30	3	0	0	0	0	0	0	0	0.0	0	0.0	1	1	1	0
5788	S6	2019	8	30	4	0	0	0	0	0	0	0	0.0	0	0.0	1	1	1	0
5789	S6	2019	8	30	5	0	0	0	0	0	0	0	0.0	0	0.0	1	1	1	0
5790	S6	2019	8	30	6	28.6347983890565984665954601950943470001220703125	74.6601739805833943819379783235490322113037109375	23.18697602173369887168519198894500732421875	15.081034676782000047978726797737181186676025390625	91.3219829756638006301727727986872196197509765625	0.479741382958560003135772831228678114712238311767578125	11.7500000148235006491859166999347507953643798828125	0.0	375.61404922356297220176202245056629180908203125	0.0	1	1	1	0
5791	S6	2019	8	30	7	100.795160113440005034135538153350353240966796875	165.5031809878009880776517093181610107421875	67.9861737569172959183561033569276332855224609375	16.2366665840147987864838796667754650115966796875	87.4633333841959057508574915118515491485595703125	0.458611115068197017219375766217126511037349700927734375	79.1666672254604009140166454017162322998046875	0.0	2054.77623144785002295975573360919952392578125	0.0	1	1	1	1
5792	S6	2019	8	30	8	252.10338968685999816443654708564281463623046875	465.69914399680902761247125454246997833251953125	104.119229776281002841642475686967372894287109375	18.79832865999259894351780530996620655059814453125	80.8763226267355008758386247791349887847900390625	0.79192200684945801558711764300824142992496490478515625	249.58333248893399058943032287061214447021484375	0.0	6087.7714802821601551841013133525848388671875	0.0	1	1	1	1
5793	S6	2019	8	30	9	369.9806261424070044085965491831302642822265625	444.85730849610399673110805451869964599609375	173.724680085919004568495438434183597564697265625	20.214868678990999484312851564027369022369384765625	75.658892061550403695946442894637584686279296875	1.2685131182997200216533428829279728233814239501953125	382.41666307051900730584748089313507080078125	0.0	10483.39411616319921449758112430572509765625	0.0	1	1	1	1
5794	S6	2019	8	30	10	319.0787285451630168608971871435642242431640625	130.91989761087000943007296882569789886474609375	241.824299537058010400869534350931644439697265625	20.36763851844180095440606237389147281646728515625	72.0623906750025042811103048734366893768310546875	1.49241982561157993103506669285707175731658935546875	333.24999734759097691494389437139034271240234375	0.0	8926.53904358544968999922275543212890625	0.0	1	1	1	1
5795	S6	2019	8	30	11	629.761196248015039600431919097900390625	556.53130142381996847689151763916015625	271.98181928668100226786918938159942626953125	22.06871340567600014992422075010836124420166015625	64.16228075752479753646184690296649932861328125	2.08304093115858979246013404917903244495391845703125	720.4166675607369825229397974908351898193359375	0.0	18512.69112030660107848234474658966064453125	0.0	1	1	1	1
5796	S6	2019	8	30	12	514.865002407115980531671084463596343994140625	249.822635713524988432254758663475513458251953125	340.41577114147997917825705371797084808349609375	22.469101032514199545175870298407971858978271484375	62.39325854483610100942314602434635162353515625	1.83117976851676989014094942831434309482574462890625	579.00000611941004535765387117862701416015625	0.0	15112.951139609000165364705026149749755859375	0.0	1	1	1	1
5797	S6	2019	8	30	13	349.18642861809502164760488085448741912841796875	85.864400635386800786363892257213592529296875	287.466882152288008001050911843776702880859375	22.416338176458598496765262098051607608795166015625	62.29492977303510059527980047278106212615966796875	1.8569014056467600948252538728411309421062469482421875	389.749996364115986580145545303821563720703125	0.0	10185.6972773870002129115164279937744140625	0.0	1	1	1	1
5798	S6	2019	8	30	14	468.3061306276180175700574181973934173583984375	318.3262594540909731222200207412242889404296875	258.97340039239401221493608318269252777099609375	22.8637682099273007452211459167301654815673828125	59.0434784156688010625657625496387481689453125	2.1872463776581501093687620596028864383697509765625	600.0833312670389432241790927946567535400390625	0.0	14972.9798038799999631009995937347412109375	0.0	1	1	1	1
5799	S6	2019	8	30	15	372.51375871930798666653572581708431243896484375	137.18149806386600175756029784679412841796875	291.52047494070802713395096361637115478515625	23.074857194082998290696195908822119235992431640625	58.96885722569049903540872037410736083984375	1.9717142838239600788341476800269447267055511474609375	408.75000134110399585551931522786617279052734375	0.0	10511.112312475799626554362475872039794921875	0.0	1	1	1	1
5800	S6	2019	8	30	16	246.003631292604012514857458882033824920654296875	23.17047692655840052111670956946909427642822265625	233.284036289075999093256541527807712554931640625	22.682352915531399872861584299243986606597900390625	59.90168072997020232151044183410704135894775390625	1.499999998330399986201655337936244904994964599609375	238.250001023211012807223596610128879547119140625	0.0	6462.5729223092303072917275130748748779296875	0.0	1	1	1	1
5801	S6	2019	8	30	17	239.86504198710099444724619388580322265625	116.0202682392459934135331423021852970123291015625	197.830191845363998481843736954033374786376953125	22.866666603088301457091802149079740047454833984375	59.07666670481359716404767823405563831329345703125	1.3713888865378101034053770490572787821292877197265625	256.41666601101502465098747052252292633056640625	0.0	6629.0642519791799713857471942901611328125	0.0	1	1	1	1
5802	S6	2019	8	30	18	116.890988540649004789884202182292938232421875	46.97302459279689657023482141084969043731689453125	106.541125837961004663156927563250064849853515625	22.23333330154409992474029422737658023834228515625	60.86333325703930086092441342771053314208984375	0.9949999995529650309578073574812151491641998291015625	114.2499990140400001337184221483767032623291015625	0.0	2939.61511055627988753258250653743743896484375	0.0	1	1	1	1
5803	S6	2019	8	30	19	32.05755911165619664870973792858421802520751953125	15.5810877250761006251877915929071605205535888671875	31.7029073736460986765450797975063323974609375	21.000278324137799046411601011641323566436767578125	64.30752055558650681632570922374725341796875	0.35403900093354800926448433529003523290157318115234375	23.999999936980401571418042294681072235107421875	0.0	703.0913028866069680589134804904460906982421875	0.0	1	1	1	1
5804	S6	2019	8	30	20	7.2568994435396998454734784900210797786712646484375	0.4551258168437259943317485522129572927951812744140625	7.60610810193148001445706540835089981555938720703125	20.19090981916939853135772864334285259246826171875	66.8272739757190947784692980349063873291015625	0.80909090692346696815917539424845017492771148681640625	0.1666666745829079865348631983579252846539020538330078125	0.0	23.85589980985970015581187908537685871124267578125	0.0	1	1	1	0
5805	S6	2019	8	30	21	0	0	0	0	0	0	0	0.0	0	0.0	1	1	1	0
5806	S6	2019	8	30	22	0	0	0	0	0	0	0	0.0	0	0.0	1	1	1	0
5807	S6	2019	8	30	23	0	0	0	0	0	0	0	0.0	0	0.0	1	1	1	0
5808	S6	2019	8	30	24	0	0	0	0	0	0	0	0.0	0	0.0	1	1	1	0
5809	S6	2019	8	31	1	0	0	0	0	0	0	0	0.0	0	0.0	1	1	1	0
5810	S6	2019	8	31	2	0	0	0	0	0	0	0	0.0	0	0.0	1	1	1	0
5811	S6	2019	8	31	3	0	0	0	0	0	0	0	0.0	0	0.0	1	1	1	0
5812	S6	2019	8	31	4	0	0	0	0	0	0	0	0.0	0	0.0	1	1	1	0
5813	S6	2019	8	31	5	0	0	0	0	0	0	0	0.0	0	0.0	1	1	1	0
5814	S6	2019	8	31	6	15.8722524865855998399410964339040219783782958984375	0.38760810920862598383251906852819956839084625244140625	16.15680021968309887370196520350873470306396484375	15.1654472777512996373161513474769890308380126953125	96.4016265559001936935601406730711460113525390625	0.6272357744656920086612217346555553376674652099609375	9.2500000610015593593971061636693775653839111328125	0.0	243.4028413457180022305692546069622039794921875	0.0	1	1	1	1
5815	S6	2019	8	31	7	65.6335362752277973186210147105157375335693359375	8.002647652890939156122840358875691890716552734375	64.830141533745603510396904312074184417724609375	15.3033334096272000124372425489127635955810546875	97.5533334096272000124372425489127635955810546875	0.8686111137270919879682651298935525119304656982421875	54.83333316321169803586599300615489482879638671875	0.0	1506.37419149279003249830566346645355224609375	0.0	1	1	1	1
5816	S6	2019	8	31	8	204.21551737439000362428487278521060943603515625	146.025852137436999100827961228787899017333984375	151.233608863873001837418996728956699371337890625	18.303072545781400748410305823199450969696044921875	98.671229229293004436840419657528400421142578125	1.3195530735580600634193615405820310115814208984375	183.249998216828004160561249591410160064697265625	0.0	4944.5921331644103702274151146411895751953125	0.0	1	1	1	1
5817	S6	2019	8	31	9	375.95693855724101695159333758056163787841796875	455.74802488568099079202511347830295562744140625	169.901243056373999706920585595071315765380859375	20.892241329982301323298088391311466693878173828125	90.5373564972274067486068815924227237701416015625	1.7887930982243001043485719492309726774692535400390625	402.66666809717702335547073744237422943115234375	0.0	10916.500707467299434938468039035797119140625	0.0	1	1	1	1
5818	S6	2019	8	31	10	518.8205663892949814908206462860107421875	576.4650720384380520044942386448383331298828125	195.508687845865011922796838916838169097900390625	23.30666662851960069247070350684225559234619140625	74.3033334096272000124372425489127635955810546875	1.8749999995032899935409886893467046320438385009765625	607.083330551781045869574882090091705322265625	0.0	15962.207913398700839024968445301055908203125	0.0	1	1	1	1
5819	S6	2019	8	31	11	558.056598343662017214228399097919464111328125	492.2185992928190216844086535274982452392578125	240.22978240284800222070771269500255584716796875	24.299162044205399269003464723937213420867919921875	69.4678772015277985474313027225434780120849609375	2.24441340507407982585164063493721187114715576171875	685.9166671832399515551514923572540283203125	0.0	17467.5107995668004150502383708953857421875	0.0	1	1	1	1
5820	S6	2019	8	31	12	630.5671819051100328579195775091648101806640625	601.933912997774996256339363753795623779296875	214.5061214447019892759271897375583648681640625	24.696666495005199948309382307343184947967529296875	69.181666692097905979608185589313507080078125	2.651388887315980102954426911310292780399322509765625	790.1666661103560045376070775091648101806640625	0.0	19970.33504645029825042001903057098388671875	0.0	1	1	1	1
5821	S6	2019	8	31	13	640.3072825113930548468488268554210662841796875	627.7418389214409444321063347160816192626953125	203.7394890255390009770053438842296600341796875	25.13166675567619989806189551018178462982177734375	68.383333333333297332501388154923915863037109375	2.6738888883756199987828949815593659877777099609375	831.5833310286189998805639334022998809814453125	0.0	20433.72948964430179330520331859588623046875	0.0	1	1	1	1
5822	S6	2019	8	31	14	607.1160371758960536681115627288818359375	513.7378645854049636909621767699718475341796875	267.51742322257297246324014849960803985595703125	25.4719101016440987450550892390310764312744140625	68.436796917004500073744566179811954498291015625	2.318539322762000143285376907442696392536163330078125	786.9166632493339648135588504374027252197265625	0.0	19019.45171753569957218132913112640380859375	0.0	1	1	1	1
5823	S6	2019	8	31	15	522.4479904615809573442675173282623291015625	486.4765469614479798110551200807094573974609375	236.26465492028000880964100360870361328125	25.21502896126980175495191360823810100555419921875	70.2367051185211010988496127538383007049560546875	2.536416180216499949295894111855886876583099365234375	695.7500080267590192306670360267162322998046875	0.0	16860.13090610500148613937199115753173828125	0.0	1	1	1	1
5824	S6	2019	8	31	16	410.49982651325200322389719076454639434814453125	453.4151777455999763333238661289215087890625	191.05177167220199407893233001232147216796875	24.89942702044729827548508183099329471588134765625	72.6194840351968053937525837682187557220458984375	2.572492832782269811531250525149516761302947998046875	525.000000993409003058332018554210662841796875	0.0	12764.402627944900814327411353588104248046875	0.0	1	1	1	1
5825	S6	2019	8	31	17	293.9675499386249839517404325306415557861328125	499.42633683946399969499907456338405609130859375	111.9746125962989964364169281907379627227783203125	24.033333365122398816993154468946158885955810546875	77.590000152587805359871708787977695465087890625	2.69611110753483007584918595966883003711700439453125	368.83333325386001888546161353588104248046875	0.0	8878.19840510683934553526341915130615234375	0.0	1	1	1	1
5826	S6	2019	8	31	18	158.77688397301500344838132150471210479736328125	376.94647979736299703290569595992565155029296875	73.1135199228921948133574915118515491485595703125	23.221666685740100177781641832552850246429443359375	81.29666671752920592552982270717620849609375	2.4466666662030700507557412493042647838592529296875	183.166663472849990057511604391038417816162109375	0.0	4023.22238186994991337996907532215118408203125	0.0	1	1	1	1
5827	S6	2019	8	31	19	44.263943817880402775699621997773647308349609375	134.786336181395000721749966032803058624267578125	30.170244979858399148042735760100185871124267578125	22.268333339691100292156988871283829212188720703125	85.2466664632161013059885590337216854095458984375	2.169166666765999895716277023893781006336212158203125	39.58333306945859675352039630524814128875732421875	0.0	873.075427487490969724603928625583648681640625	0.0	1	1	1	1
5828	S6	2019	8	31	20	6.8504444469105099102534950361587107181549072265625	0.55173803188584003009964362718164920806884765625	7.13609483025290014523989157169125974178314208984375	21.636364156549600323842241778038442134857177734375	87.781817349520594007117324508726596832275390625	1.66363637013868004288497104425914585590362548828125	0.416666676755991005620671785436570644378662109375	0.0	25.976558177110899094941487419418990612030029296875	0.0	1	1	1	0
5829	S6	2019	8	31	21	0	0	0	0	0	0	0	0.0	0	0.0	1	1	1	0
5830	S6	2019	8	31	22	0	0	0	0	0	0	0	0.0	0	0.0	1	1	1	0
5831	S6	2019	8	31	23	0	0	0	0	0	0	0.166666674582916007896216115113929845392704010009765625	0.0	0	0.0	1	1	1	0
5832	S6	2019	8	31	24	0	0	0	0	0	0	0.166666674582916007896216115113929845392704010009765625	0.0	0	0.0	1	1	1	0
5833	S6	2019	9	1	1	0	0	0	0	0	0	0.3333333491658250213873770917416550219058990478515625	0.0	0	0.0	1	1	1	0
5834	S6	2019	9	1	2	0	0	0	0	0	0	0	0.0	0	0.0	1	1	1	0
5835	S6	2019	9	1	3	0	0	0	0	0	0	0	0.0	0	0.0	1	1	1	0
5836	S6	2019	9	1	4	0	0	0	0	0	0	0	0.0	0	0.0	1	1	1	0
5837	S6	2019	9	1	5	0	0	0	0	0	0	0	0.0	0	0.0	1	1	1	0
5838	S6	2019	9	1	6	33.65211418347480076818101224489510059356689453125	44.54620143974940305042764521203935146331787109375	30.87080313201639825138045125640928745269775390625	19.07222249772809874457379919476807117462158203125	85.586752312815093546305433847010135650634765625	0.80854701142535201352501417204621247947216033935546875	16.08333297190259969511316739954054355621337890625	0.0	522.8145146975290344926179386675357818603515625	0.0	1	1	1	1
5839	S6	2019	9	1	7	97.263548829820393848422099836170673370361328125	40.81989924460639684866691823117434978485107421875	91.8032288233439004443425801582634449005126953125	19.787222247653499351827122154645621776580810546875	84.2547224680582047540156054310500621795654296875	0.78083333530359799734554826500243507325649261474609375	80.4166666542492976077483035624027252197265625	0.0	2331.354138751819846220314502716064453125	0.0	1	1	1	1
5840	S6	2019	9	1	8	185.60215035914001191486022435128688812255859375	132.884372568114002888250979594886302947998046875	146.1012355243780120872543193399906158447265625	21.035158580593101618205764680169522762298583984375	81.3556192271646949620844679884612560272216796875	1.1783861671641500112883704787236638367176055908203125	166.91666562110100358040654100477695465087890625	0.0	4480.9519623716596470330841839313507080078125	0.0	1	1	1	1
5841	S6	2019	9	1	9	104.857416525778006644031847827136516571044921875	4.700714084796640435115477885119616985321044921875	102.6312761279740044528807629831135272979736328125	20.3478753249300012839739792980253696441650390625	85.5441930192724981907304027117788791656494140625	1.5844192630677300659414186156936921179294586181640625	94.2500016341609949677149415947496891021728515625	0.0	2785.71629772583992235013283789157867431640625	0.0	1	1	1	1
5842	S6	2019	9	1	10	61.5096795932172000220816698856651782989501953125	0.41582228188602299301379616736085154116153717041015625	61.5121794143042990299363736994564533233642578125	19.1984025327542013883430627174675464630126953125	90.1520764774407012964729801751673221588134765625	1.4936102271651299222554598600254394114017486572265625	52.25000002731849946258080308325588703155517578125	0.0	1544.63071748613992895116098225116729736328125	0.0	1	1	1	1
5843	S6	2019	9	1	11	131.925918738046988210044219158589839935302734375	0.92177986966239000565792593988589942455291748046875	131.23323793941000303675536997616291046142578125	19.289722410837800481431258958764374256134033203125	89.7316662894354948321051779203116893768310546875	1.5719444428880999797826234498643316328525543212890625	123.249997074405001740160514600574970245361328125	0.0	3423.3102413515198350069113075733184814453125	0.0	1	1	1	1
5844	S6	2019	9	1	12	229.5449128468829940175055526196956634521484375	6.3045367591393404183008897234685719013214111328125	223.917511781055992514666286297142505645751953125	19.747500250074498495678199105896055698394775390625	84.546667120191699495990178547799587249755859375	1.509166663553970000322124178637750446796417236328125	225.0833340610070081311278045177459716796875	0.0	6387.3473604519904256449081003665924072265625	0.0	1	1	1	1
5845	S6	2019	9	1	13	383.57576150409198589841253124177455902099609375	70.4147674329473005627733073197305202484130859375	332.32059011082100141720729880034923553466796875	20.85508478563379952674949890933930873870849609375	77.65254248064110242921742610633373260498046875	0.832485875925101037609010745654813945293426513671875	412.3333320021620238549076020717620849609375	0.0	11011.16587718320079147815704345703125	0.0	1	1	1	1
5846	S6	2019	9	1	14	185.953166024344000106793828308582305908203125	1.108718439419750012575605069287121295928955078125	184.7291591426300101375090889632701873779296875	20.074571255275099446180320228450000286102294921875	76.791714760916505611021420918405055999755859375	1.4417142852714999179397636908106505870819091796875	159.08333224554900198199902661144733428955078125	0.0	4515.729131797959780669771134853363037109375	0.0	1	1	1	1
5847	S6	2019	9	1	15	63.851454904585096983282710425555706024169921875	0.402685474320054026531323643212090246379375457763671875	63.33410903901759780865177162922918796539306640625	18.2011360760890994470173609443008899688720703125	84.85340881347650565658113919198513031005859375	2.087878787833629790071654497296549379825592041015625	51.66666644314930323389489785768091678619384765625	0.0	1570.76798379421006757183931767940521240234375	0.0	1	1	1	1
5848	S6	2019	9	1	16	53.686397169957899677683599293231964111328125	0.54611922668236001499053600127808749675750732421875	53.7294532063942966715330840088427066802978515625	17.745682437439800338552231551147997379302978515625	83.1367685854601035089217475615441799163818359375	1.541504179036710109329533224808983504772186279296875	47.50000049049639727627436514012515544891357421875	0.0	1391.62286122639989116578362882137298583984375	0.0	1	1	1	1
5849	S6	2019	9	1	17	106.5609914037909931039393995888531208038330078125	2.87464930688341002706920335185714066028594970703125	105.9531534936690064796493970789015293121337890625	18.10916683408940031085876398719847202301025390625	74.911666488647398409739253111183643341064453125	1.4861111135946301065047236988903023302555084228515625	101.3333356628809980293226544745266437530517578125	0.0	2847.51789520184001958114095032215118408203125	0.0	1	1	1	1
5850	S6	2019	9	1	18	88.913673157162094184968736954033374786376953125	0.9017995485001140121283924599993042647838592529296875	89.1769285731844973952320287935435771942138671875	18.159166759914800337583073996938765048980712890625	67.7980556488036967266452847979962825775146484375	1.434166663305620037505150321521796286106109619140625	79.4166661798955004769595689140260219573974609375	0.0	2216.1763732631998209399171173572540283203125	0.0	1	1	1	1
5851	S6	2019	9	1	19	17.03289092987299824244473711587488651275634765625	0.71614487965901696409076748750521801412105560302734375	17.212352991104101107566748396493494510650634765625	17.918412532503598555422286153770983219146728515625	70.5882536872984047704449039883911609649658203125	1.5955555521306499233702425044612027704715728759765625	12.000000181918199615438425098545849323272705078125	0.0	353.44504223515599505844875238835811614990234375	0.0	1	1	1	1
5852	S6	2019	9	1	20	3.435859203338619938250531049561686813831329345703125	0.469491392374037974644096493648248724639415740966796875	3.600901603698730024660790149937383830547332763671875	17.799999237060500689722175593487918376922607421875	69.90000152587890625	1.60000002384184991655047269887290894985198974609375	0.250000011874365990482971255914890207350254058837890625	0.0	10.456574809116499835681679542176425457000732421875	0.0	1	1	1	0
5853	S6	2019	9	1	21	0	0	0	0	0	0	0	0.0	0	0.0	1	1	1	0
5854	S6	2019	9	1	22	0	0	0	0	0	0	0	0.0	0	0.0	1	1	1	0
5855	S6	2019	9	1	23	0	0	0	0	0	0	0	0.0	0	0.0	1	1	1	0
5856	S6	2019	9	1	24	0	0	0	0	0	0	0	0.0	0	0.0	1	1	1	0
5857	S6	2019	9	2	1	0	0	0	0	0	0	0	0.0	0	0.0	1	1	1	0
5858	S6	2019	9	2	2	0	0	0	0	0	0	0	0.0	0	0.0	1	1	1	0
5859	S6	2019	9	2	3	0	0	0	0	0	0	0	0.0	0	0.0	1	1	1	0
5860	S6	2019	9	2	4	0	0	0	0	0	0	0	0.0	0	0.0	1	1	1	0
5861	S6	2019	9	2	5	0	0	0	0	0	0	0	0.0	0	0.0	1	1	1	0
5862	S6	2019	9	2	6	33.09645386104990194553465698845684528350830078125	169.31136152893299140487215481698513031005859375	22.02964093633320175058543100021779537200927734375	13.2293477473051002135662201908417046070098876953125	80.470108985900793641121708787977695465087890625	1.192391303894309917410510024637915194034576416015625	8.66666671936400945241985027678310871124267578125	0.0	319.69839225833499085638322867453098297119140625	0.0	1	1	1	0
5863	S6	2019	9	2	7	120.0088843981420012596572632901370525360107421875	436.71096666124100238448590971529483795166015625	45.64555497169489939324193983338773250579833984375	14.1033333778380995937595798750407993793487548828125	78.43499997456859773592441342771053314208984375	1.618611107352700084760499521507881581783294677734375	65.9166667610408012478728778660297393798828125	0.0	1890.7510278125600962084718048572540283203125	0.0	1	1	1	1
5864	S6	2019	9	2	8	261.01373418172198626052704639732837677001953125	632.4069056193029609858058393001556396484375	68.7281278822157020158556406386196613311767578125	15.4650000254312995906502692378126084804534912109375	75.2366667429605939787506940774619579315185546875	2.772499995513090009779944011825136840343475341796875	256.58333177367802591106737963855266571044921875	0.0	6289.1486138105401551001705229282379150390625	0.0	1	1	1	1
5865	S6	2019	9	2	9	380.4018419459899860157747752964496612548828125	620.6920420385359875581343658268451690673828125	117.422542617706000100952223874628543853759765625	16.35598803994179917253859457559883594512939453125	72.563472747802705953290569595992565155029296875	3.24071855762761007468952811905182898044586181640625	420.83333184321901399016496725380420684814453125	0.0	11488.546927769899411941878497600555419921875	0.0	1	1	1	1
5866	S6	2019	9	2	10	505.849509956665997378877364099025726318359375	707.890542885558943453361280262470245361328125	124.9947726601040045579793513752520084381103515625	17.167801848136900133567905868403613567352294921875	63.26377734015969878100804635323584079742431640625	3.460681106745270074753761946340091526508331298828125	578.74998698631998195196501910686492919921875	0.0	15594.753523667599438340403139591217041015625	0.0	1	1	1	1
5867	S6	2019	9	2	11	611.9920748457119543672888539731502532958984375	793.2090925589390053573879413306713104248046875	121.3627175198320031768162152729928493499755859375	17.757278532921500158181515871547162532806396484375	60.1275319208072005494614131748676300048828125	2.937658222793019913154921596287749707698822021484375	804.000015060106989039923064410686492919921875	0.0	20388.52196931829894310794770717620849609375	0.0	1	1	1	1
5868	S6	2019	9	2	12	610.1338274614939791717915795743465423583984375	695.2886103953679821643163450062274932861328125	149.43759876972899292013607919216156005859375	18.348048098452398591007295181043446063995361328125	57.265765674121297479359782300889492034912109375	2.79369369507192999435574165545403957366943359375	775.41666726271296283812262117862701416015625	0.0	19647.058844566301559098064899444580078125	0.0	1	1	1	1
5869	S6	2019	9	2	13	307.61480456952398299108608625829219818115234375	210.1008517246519886612077243626117706298828125	165.173900884560993063132627867162227630615234375	18.0006388642917016795763629488646984100341796875	56.55047909672639860900744679383933544158935546875	2.43769967613128013539380845031701028347015380859375	360.33333155015998272574506700038909912109375	0.0	9067.632853984849134576506912708282470703125	0.0	1	1	1	1
5870	S6	2019	9	2	14	660.6756366093950418871827423572540283203125	774.29887724490299660828895866870880126953125	168.872948714665000125023652799427509307861328125	19.141071552321999860168943996541202068328857421875	54.52946448326110129301014239899814128875732421875	2.053273806348439922686566205811686813831329345703125	886.3333364327769459123373962938785552978515625	0.0	21881.67701164880054420791566371917724609375	0.0	1	1	1	1
5871	S6	2019	9	2	15	547.0112173114699771758751012384891510009765625	576.9106071958580059799714945256710052490234375	212.604491182429995888014673255383968353271484375	19.445209663071299388548140996135771274566650390625	52.29610788036959689861760125495493412017822265625	2.3422155721994197818958127754740417003631591796875	677.7500075598560442813322879374027252197265625	0.0	16876.787463823900907300412654876708984375	0.0	1	1	1	1
5872	S6	2019	9	2	16	375.51848997636199101179954595863819122314453125	552.897823498504976669210009276866912841796875	123.9756829232880050994936027564108371734619140625	18.56787882140179846146565978415310382843017578125	53.3454545916932971749702119268476963043212890625	3.209999987212090122312702078488655388355255126953125	484.5000070830179765835055150091648101806640625	0.0	12176.633492112099702353589236736297607421875	0.0	1	1	1	1
5873	S6	2019	9	2	17	315.0322376833120188166503794491291046142578125	662.372593476947031376766972243785858154296875	81.553044938771705574254156090319156646728515625	18.8593219336815991482581011950969696044921875	48.24322047476039898583621834404766559600830078125	2.7734463285591601788837579078972339630126953125	418.9166675011319966870360076427459716796875	0.0	10180.8776656785994418896734714508056640625	0.0	1	1	1	1
5874	S6	2019	9	2	18	104.153080495197997379364096559584140777587890625	134.382484933629001488952781073749065399169921875	74.0430633227030057241790927946567535400390625	17.752500057220398588242460391484200954437255859375	57.637778006659601715000462718307971954345703125	2.07805555777416994800432803458534181118011474609375	96.00000052402350547708920203149318695068359375	0.0	2404.03156975902993508498184382915496826171875	0.0	1	1	1	1
5875	S6	2019	9	2	19	56.6750516150761001199498423375189304351806640625	201.944154566544995077492785640060901641845703125	37.63176793033630218587859417311847209930419921875	17.358576123382601252842505346052348613739013671875	57.96504848443179724881701986305415630340576171875	2.20776698977044016913851010031066834926605224609375	45.41666646643160021312723984010517597198486328125	0.0	1002.8123650699800464280997402966022491455078125	0.0	1	1	1	1
5876	S6	2019	9	2	20	0	0	0	0	0	0	0.08333333729145829538165202166055678389966487884521484375	0.0	15.612100056993600816213074722327291965484619140625	0.0	1	1	1	0
5877	S6	2019	9	2	21	0	0	0	0	0	0	0	0.0	0	0.0	1	1	1	0
5878	S6	2019	9	2	22	0	0	0	0	0	0	0	0.0	0	0.0	1	1	1	0
5879	S6	2019	9	2	23	0	0	0	0	0	0	0	0.0	0	0.0	1	1	1	0
5880	S6	2019	9	2	24	0	0	0	0	0	0	0	0.0	0	0.0	1	1	1	0
5881	S6	2019	9	3	1	0	0	0	0	0	0	0	0.0	0	0.0	1	1	1	0
5882	S6	2019	9	3	2	0	0	0	0	0	0	0	0.0	0	0.0	1	1	1	0
5883	S6	2019	9	3	3	0	0	0	0	0	0	0	0.0	0	0.0	1	1	1	0
5884	S6	2019	9	3	4	0	0	0	0	0	0	0	0.0	0	0.0	1	1	1	0
5885	S6	2019	9	3	5	0	0	0	0	0	0	0	0.0	0	0.0	1	1	1	0
5886	S6	2019	9	3	6	7.41193323404016002342586943996138870716094970703125	0.298583189366568024780690393527038395404815673828125	7.54436284051813998985380749218165874481201171875	14.2352112380551005799134145490825176239013671875	86.6492971500880031499036704190075397491455078125	2.607042245461899998559829327859915792942047119140625	1.666666677920149997049747980781830847263336181640625	0.0	74.7953169823932029203206184320151805877685546875	0.0	1	1	1	1
5887	S6	2019	9	3	7	30.46005498928850130369028192944824695587158203125	0.438468808303025980865896826799144037067890167236328125	30.8644115450669005440431647002696990966796875	14.0238095986074995380477048456668853759765625	87.58403310054490020775119774043560028076171875	2.501680663570299945064334679045714437961578369140625	26.24999964609740032983609125949442386627197265625	0.0	766.3189944190249889288679696619510650634765625	0.0	1	1	1	1
5888	S6	2019	9	3	8	82.6886741638183053737520822323858737945556640625	0.476495842759806997879223899872158654034137725830078125	83.1012417793273954202959430404007434844970703125	14.4444444338480000311619733111001551151275634765625	85.3405560387505062180935055948793888092041015625	2.328888883607250104290642411797307431697845458984375	74.00000002235219653812237083911895751953125	0.0	2181.23414367436998873017728328704833984375	0.0	1	1	1	1
5889	S6	2019	9	3	9	95.5024214850531052434234879910945892333984375	0.594407033258014028120896909967996180057525634765625	95.852302720811593417238327674567699432373046875	14.964166733953600640916192787699401378631591796875	82.141388871934594817503239028155803680419921875	2.722499999072809817590723469038493931293487548828125	85.4166665424906028647455968894064426422119140625	0.0	2556.00015074013981575262732803821563720703125	0.0	1	1	1	1
5890	S6	2019	9	3	10	151.969610509738004111568443477153778076171875	0.7489166241097360288136997041874565184116363525390625	151.914125619807009570649825036525726318359375	14.297746419235000558956016902811825275421142578125	89.3180281088385044085953268222510814666748046875	2.437464782049949985065495638991706073284149169921875	140.166666358707999506805208511650562286376953125	0.0	4041.03433837493003011331893503665924072265625	0.0	1	1	1	1
5891	S6	2019	9	3	11	412.3036954439600094701745547354221343994140625	102.83883456298900682668318040668964385986328125	345.18596970778202148721902631223201751708984375	16.092307715782698807061024126596748828887939453125	86.67907642071060081434552557766437530517578125	2.688923078683699952051711079548113048076629638671875	511.25000044703398316414677537977695465087890625	0.0	13447.9951858519998495467007160186767578125	0.0	1	1	1	1
5892	S6	2019	9	3	12	432.87008346467297315030009485781192779541015625	141.84060783331500488202436827123165130615234375	336.01680164224200098033179529011249542236328125	18.0926034916082016934524290263652801513671875	79.7878696735087942215614020824432373046875	2.09733727107033018910442478954792022705078125	493.08333794275898753767251037061214447021484375	0.0	12135.168462991699925623834133148193359375	0.0	1	1	1	1
5893	S6	2019	9	3	13	281.2735844001080067755538038909435272216796875	18.07065612270179855158858117647469043731689453125	267.37870539590898033566190861165523529052734375	18.83503007032199860759646981023252010345458984375	76.3308379578732996151302359066903591156005859375	1.9955089812328699050425484529114328324794769287109375	285.00000139077502581130829639732837677001953125	0.0	7595.8640029033003884251229465007781982421875	0.0	1	1	1	1
5894	S6	2019	9	3	14	400.41668792340698246334795840084552764892578125	195.539918624588011653031571768224239349365234375	275.5994069561260175760253332555294036865234375	19.432389997086399802128653391264379024505615234375	76.07232713999229645196464844048023223876953125	1.825471695676530003993320860899984836578369140625	446.16667181253302487675682641565799713134765625	0.0	11423.275043567000466282479465007781982421875	0.0	1	1	1	1
5895	S6	2019	9	3	15	529.0903114710689578714664094150066375732421875	539.95452369083204757771454751491546630859375	216.19065442042000313449534587562084197998046875	20.767069404579000746480232919566333293914794921875	69.564350554590106412433669902384281158447265625	3.22779455402825998788785000215284526348114013671875	583.333329608042049585492350161075592041015625	0.0	15557.2746197382002719677984714508056640625	0.0	1	1	1	1
5896	S6	2019	9	3	16	347.78960779108098222422995604574680328369140625	383.73470132935000265206326730549335479736328125	172.67524780086199598372331820428371429443359375	20.80184034335830034478931338526308536529541015625	66.64079741027450154433608986437320709228515625	2.759202452616449807720755416085012257099151611328125	428.916667898495006738812662661075592041015625	0.0	10635.9141717353995773009955883026123046875	0.0	1	1	1	1
5897	S6	2019	9	3	17	190.088809646384987672718125395476818084716796875	186.55822008967999181550112552940845489501953125	123.23219383350300404345034621655941009521484375	20.4298550702523016298073343932628631591796875	67.03159434000650662710540927946567535400390625	2.518840574613510074897249069181270897388458251953125	207.16666740675600522081367671489715576171875	0.0	5126.1989672979098031646572053432464599609375	0.0	1	1	1	1
5898	S6	2019	9	3	18	96.5858519190201008086660294793546199798583984375	109.3748642170489944192013354040682315826416015625	71.043571599678699612923082895576953887939453125	19.59442893110610128815096686594188213348388671875	68.6927580129468964287298149429261684417724609375	3.022284123226790075733561025117523968219757080078125	101.4166659054649954896376584656536579132080078125	0.0	2465.8820095161599965649656951427459716796875	0.0	1	1	1	1
5899	S6	2019	9	3	19	45.4401191454085022769504575990140438079833984375	181.087445959590013444540090858936309814453125	28.79246750483429906353194382973015308380126953125	18.880952344621899641197160235606133937835693359375	69.84063502720420046898652799427509307861328125	2.710793642676060155594086609198711812496185302734375	36.0000002159109016020011040382087230682373046875	0.0	784.396787639708009010064415633678436279296875	0.0	1	1	1	0
5900	S6	2019	9	3	20	0	0	0	0	0	0	0	0.0	5.84345008246600006174276131787337362766265869140625	0.0	1	1	1	0
5901	S6	2019	9	3	21	0	0	0	0	0	0	0	0.0	0	0.0	1	1	1	0
5902	S6	2019	9	3	22	0	0	0	0	0	0	0	0.0	0	0.0	1	1	1	0
5903	S6	2019	9	3	23	0	0	0	0	0	0	0	0.0	0	0.0	1	1	1	0
5904	S6	2019	9	3	24	0	0	0	0	0	0	0	0.0	0	0.0	1	1	1	0
5905	S6	2019	9	4	1	0	0	0	0	0	0	0	0.0	0	0.0	1	1	1	0
5906	S6	2019	9	4	2	0	0	0	0	0	0	0	0.0	0	0.0	1	1	1	0
5907	S6	2019	9	4	3	0	0	0	0	0	0	0	0.0	0	0.0	1	1	1	0
5908	S6	2019	9	4	4	0	0	0	0	0	0	0	0.0	0	0.0	1	1	1	0
5909	S6	2019	9	4	5	0	0	0	0	0	0	0	0.0	0	0.0	1	1	1	0
5910	S6	2019	9	4	6	17.6648241182167993201801436953246593475341796875	5.61273000078896000530903620528988540172576904296875	17.72206105291839861592961824499070644378662109375	14.5244791011014999781991718919016420841217041015625	92.360938151677402174755115993320941925048828125	0.8187500027318790341013254874269478023052215576171875	9.916666691424349977523888810537755489349365234375	0.0	280.58300664027598259053775109350681304931640625	0.0	1	1	1	1
5911	S6	2019	9	4	7	81.0558411916097014682236476801335811614990234375	122.38365267229499977474915795028209686279296875	57.55733805232569721965774078853428363800048828125	15.1691666788525001408061143592931330204010009765625	91.14361084832080450723879039287567138671875	1.2722222232156299437377811045735143125057220458984375	66.749999299644997563518700189888477325439453125	0.0	1764.82223036388995751622132956981658935546875	0.0	1	1	1	1
5912	S6	2019	9	4	8	143.63807091183099373665754683315753936767578125	65.631290058957205246770172379910945892333984375	127.9274494806920046130471746437251567840576171875	16.6997222158642983913523494265973567962646484375	87.7447224934895046999372425489127635955810546875	1.813888882845640093677275217487476766109466552734375	131.666667759418004379767808131873607635498046875	0.0	3559.4728440046301329857669770717620849609375	0.0	1	1	1	1
5913	S6	2019	9	4	9	221.615956772698012855471461080014705657958984375	22.831936860498398544905285234563052654266357421875	210.724985652498986610225983895361423492431640625	17.57777757644650051815915503539144992828369140625	84.6769443300034936328302137553691864013671875	1.9027777727279300279406015761196613311767578125	215.749998887379007328490843065083026885986328125	0.0	6002.8572330872202655882574617862701416015625	0.0	1	1	1	1
5914	S6	2019	9	4	10	289.827412794950987517950125038623809814453125	51.99216905094319685076698078773915767669677734375	260.11362412396601939690299332141876220703125	18.67619032552590141449400107376277446746826171875	76.4750699168827026142025715671479701995849609375	2.31512604491048978871958752279169857501983642578125	290.41666661699701990073663182556629180908203125	0.0	8126.67882442474001436494290828704833984375	0.0	1	1	1	1
5915	S6	2019	9	4	11	457.44163676058298051430028863251209259033203125	166.331087145744987765283440239727497100830078125	351.295294815234001362114213407039642333984375	19.73117968205649930268918978981673717498779296875	68.6174161568116005582851357758045196533203125	2.92106740829648980906085853348486125469207763671875	504.08333291610000514992862008512020111083984375	0.0	13413.200666507100322633050382137298583984375	0.0	1	1	1	1
5916	S6	2019	9	4	12	249.847047181059991771689965389668941497802734375	31.792374325659299216795261600054800510406494140625	227.832603609388996801499160937964916229248046875	19.426376845871100584872692706994712352752685546875	63.67420245184410276806374895386397838592529296875	3.048695644952239991454234768752939999103546142578125	236.833333348233992410314385779201984405517578125	0.0	6465.3645083308101675356738269329071044921875	0.0	1	1	1	1
5917	S6	2019	9	4	13	264.37026869455900168759399093687534332275390625	3.859496886614290023231887971633113920688629150390625	260.47100433773397298864438198506832122802734375	19.18583333757180042766776750795543193817138671875	64.1369442727829977002329542301595211029052734375	2.868333327025169854351815956761129200458526611328125	258.16666707396501578841707669198513031005859375	0.0	7086.7938250303295717458240687847137451171875	0.0	1	1	1	1
5918	S6	2019	9	4	14	201.4938603821680089822621084749698638916015625	18.890531513574199351523930090479552745819091796875	188.113756712986997854386572726070880889892578125	19.300288296570300872190273366868495941162109375	61.37953901703139791834473726339638233184814453125	2.4628242065308700858849988435395061969757080078125	208.250001072883009101133211515843868255615234375	0.0	5675.10011792184013756923377513885498046875	0.0	1	1	1	1
5919	S6	2019	9	4	15	231.167894139635990313763613812625408172607421875	55.16614881381079982247683801688253879547119140625	199.5300064726239952506148256361484527587890625	19.465642481542801078830962069332599639892578125	61.54217886258769709684202098287642002105712890625	2.66899441190938002677057738765142858028411865234375	244.08333376049898788551217876374721527099609375	0.0	6476.592262585940261487849056720733642578125	0.0	1	1	1	1
5920	S6	2019	9	4	16	138.139512348175003353389911353588104248046875	4.210228937015759953510496416129171848297119140625	135.621295250786005226473207585513591766357421875	19.18722211519870057827574783004820346832275390625	63.47083311080930201342198415659368038177490234375	2.849722222155989914682550079305656254291534423828125	134.416666502753997747277026064693927764892578125	0.0	3668.51829240719007430016063153743743896484375	0.0	1	1	1	1
5921	S6	2019	9	4	17	101.46958590613400019719847477972507476806640625	0.52568362918164901476103523236815817654132843017578125	101.1405883789060027311279554851353168487548828125	19.072777928246299694592380546964704990386962890625	63.94222191704640323450803407467901706695556640625	2.39222222069899004281978704966604709625244140625	93.3333334202564941506352624855935573577880859375	0.0	2604.6771208445197771652601659297943115234375	0.0	1	1	1	1
5922	S6	2019	9	4	18	31.74788143021719832859162124805152416229248046875	0.375914404577176008981354016214027069509029388427734375	31.590931865147098278612247668206691741943359375	18.47057139260419944548630155622959136962890625	66.34771436418799339662655256688594818115234375	1.939428569589340067835792069672606885433197021484375	28.250000206753501430512187653221189975738525390625	0.0	815.710211793583994221989996731281280517578125	0.0	1	1	1	1
5923	S6	2019	9	4	19	7.2512355072308398717950694845058023929595947265625	0.378730099813072984549222610439755953848361968994140625	7.35432958391915025941898420569486916065216064453125	17.98362825613099857946508564054965972900390625	67.6424775587774007590269320644438266754150390625	1.1451327442067900097555366301094181835651397705078125	3.583333396818490168556081698625348508358001708984375	0.0	113.0884090671309962772284052334725856781005859375	0.0	1	1	1	1
5924	S6	2019	9	4	20	0	0	0	0	0	0	0	0.0	0	0.0	1	1	1	0
5925	S6	2019	9	4	21	0	0	0	0	0	0	0	0.0	0	0.0	1	1	1	0
5926	S6	2019	9	4	22	0	0	0	0	0	0	0	0.0	0	0.0	1	1	1	0
5927	S6	2019	9	4	23	0	0	0	0	0	0	0	0.0	0	0.0	1	1	1	0
5928	S6	2019	9	4	24	0	0	0	0	0	0	0	0.0	0	0.0	1	1	1	0
5929	S6	2019	9	5	1	0	0	0	0	0	0	0	0.0	0	0.0	1	1	1	0
5930	S6	2019	9	5	2	0	0	0	0	0	0	0	0.0	0	0.0	1	1	1	0
5931	S6	2019	9	5	3	0	0	0	0	0	0	0	0.0	0	0.0	1	1	1	0
5932	S6	2019	9	5	4	0	0	0	0	0	0	0	0.0	0	0.0	1	1	1	0
5933	S6	2019	9	5	5	0	0	0	0	0	0	0	0.0	0	0.0	1	1	1	0
5934	S6	2019	9	5	6	20.0483934600946014370492775924503803253173828125	46.81146452375470090601083938963711261749267578125	17.04791647286580058562321937642991542816162109375	12.9964465949741008188311752746812999248504638671875	93.40101484114740060249459929764270782470703125	1.2548223348135800758740288074477575719356536865234375	6.9166666653473303227883661747910082340240478515625	0.0	235.93448412915000744760618545114994049072265625	0.0	1	1	1	0
5935	S6	2019	9	5	7	109.3996560944450067154321004636585712432861328125	370.49946700202002602964057587087154388427734375	49.49762029117999873051303438842296600341796875	13.801666643884399121589012793265283107757568359375	89.775555674234993830395978875458240509033203125	1.1994444462160200881584160015336237847805023193359375	63.666667168339898807971621863543987274169921875	0.0	1705.365038166439944689045660197734832763671875	0.0	1	1	1	1
5936	S6	2019	9	5	8	223.2342128913049918992328457534313201904296875	424.1867429014699837352964095771312713623046875	104.0674748752770000237433123402297496795654296875	15.067966575410000729107196093536913394927978515625	84.9665739224148950370363309048116207122802734375	1.4122562644209299964614956479636020958423614501953125	211.4166667064019975441624410450458526611328125	0.0	4964.6127919356104030157439410686492919921875	0.0	1	1	1	1
5937	S6	2019	9	5	9	195.674051599335001583312987349927425384521484375	111.9541605011960001547777210362255573272705078125	152.017559921532011912859161384403705596923828125	15.3540351131505996562509608338586986064910888671875	84.49263139691259993924177251756191253662109375	1.8084210524433499411856018923572264611721038818359375	163.16666702429398583262809552252292633056640625	0.0	4718.6158796151603382895700633525848388671875	0.0	1	1	1	1
5938	S6	2019	9	5	10	314.04692875255199169259867630898952484130859375	147.471904746679996378588839434087276458740234375	230.915198087692004946802626363933086395263671875	15.6056818636980008108139372779987752437591552734375	80.8661932945251038518108543939888477325439453125	2.093749992549410077202765023685060441493988037109375	406.462963256569992154254578053951263427734375	0.0	11159.0983823493006639182567596435546875	0.0	1	1	1	1
5939	S6	2019	9	5	11	552.4520472599909908240078948438167572021484375	537.8960464236359939604881219565868377685546875	224.115925950269996747010736726224422454833984375	17.560615433913000060783815570175647735595703125	71.24338449331429501398815773427486419677734375	2.601538459704470174216339728445746004581451416015625	660.5862096465870081374305300414562225341796875	0.0	16882.36668192100114538334310054779052734375	0.0	1	1	1	1
5940	S6	2019	9	5	12	315.97240497539502257495769299566745758056640625	39.91229809738400291507787187583744525909423828125	288.652825194518982243607752025127410888671875	14.9577922480445995034870065865106880664825439453125	82.67727297002619479826535098254680633544921875	2.404220782220360064229680574499070644378662109375	310.1000004758440127261565066874027252197265625	0.0	8559.130645294979331083595752716064453125	0.0	1	1	1	1
5941	S6	2019	9	5	13	521.024021942944045804324559867382049560546875	275.5046046238139751949347555637359619140625	336.56472599331499395702849142253398895263671875	16.4958942530791006220169947482645511627197265625	74.661583841720897680716007016599178314208984375	2.55337243424482007725373478024266660213470458984375	627.0333314935370481180143542587757110595703125	0.0	15654.19861674300045706331729888916015625	0.0	1	1	1	1
5942	S6	2019	9	5	14	570.9852378751020296476781368255615234375	568.5966037527459775446914136409759521484375	214.2485277623300135019235312938690185546875	17.4379631030706008232300519011914730072021484375	65.92376574763540020285290665924549102783203125	3.27438271487199994425054683233611285686492919921875	787.4999997516480334525112994015216827392578125	0.0	19506.67333205540126073174178600311279296875	0.0	1	1	1	1
5943	S6	2019	9	5	15	411.23820630330800440788152627646923065185546875	344.40208700837700916963513009250164031982421875	221.37700317019499607340549118816852569580078125	16.656349242679599598204731591977179050445556640625	70.201984011937696550376131199300289154052734375	3.07936508184860002756977337412536144256591796875	393.616667327780987761798314750194549560546875	0.0	10263.5267200568996486254036426544189453125	0.0	1	1	1	1
5944	S6	2019	9	5	16	362.17637000316102557917474769055843353271484375	481.19232043222501715717953629791736602783203125	151.011500142706012184135033749043941497802734375	17.174212081384499839487034478224813938140869140625	62.3025789998662986590716172941029071807861328125	3.97048710632460011282773848506622016429901123046875	478.3166654407970099782687611877918243408203125	0.0	12268.868790070200702757574617862701416015625	0.0	1	1	1	1
5945	S6	2019	9	5	17	261.9866732707059782114811241626739501953125	443.9627626241129974005161784589290618896484375	113.472283197362997952950536273419857025146484375	16.86902669045770153388730250298976898193359375	63.1861354073943033426985493861138820648193359375	3.789675517595620046762405763729475438594818115234375	310.6499984860409995235386304557323455810546875	0.0	7615.875820318849946488626301288604736328125	0.0	1	1	1	1
5946	S6	2019	9	5	18	141.629943985408999651554040610790252685546875	333.28149502608499687994481064379215240478515625	74.5263297716775952039824915118515491485595703125	16.061111105812898358635720796883106231689453125	64.5197219636705057155268150381743907928466796875	3.989166660937990105395556383882649242877960205078125	153.71666649977299812235287390649318695068359375	0.0	3432.87681912381003712653182446956634521484375	0.0	1	1	1	1
5947	S6	2019	9	5	19	33.25531988825110119023520383052527904510498046875	61.8260750890841990212720702402293682098388671875	28.30798013550889891121187247335910797119140625	15.0149999141692997994823599583469331264495849609375	68.285357393537196912802755832672119140625	3.93392856376511002025608831900171935558319091796875	19.433333501607801707677936065010726451873779296875	0.0	518.0999370058999602406402118504047393798828125	0.0	1	1	1	1
5948	S6	2019	9	5	20	0	0	0	0	0	0	0	0.0	0.475313328206537988318558518585632555186748504638671875	0.0	1	1	1	0
5949	S6	2019	9	5	21	0	0	0	0	0	0	0	0.0	0	0.0	1	1	1	0
5950	S6	2019	9	5	22	0	0	0	0	0	0	0	0.0	0	0.0	1	1	1	0
5951	S6	2019	9	5	23	0	0	0	0	0	0	0	0.0	0	0.0	1	1	1	0
5952	S6	2019	9	5	24	0	0	0	0	0	0	0	0.0	0	0.0	1	1	1	0
5953	S6	2019	9	6	1	0	0	0	0	0	0	0	0.0	0	0.0	1	1	1	0
5954	S6	2019	9	6	2	0	0	0	0	0	0	0	0.0	0	0.0	1	1	1	0
5955	S6	2019	9	6	3	0	0	0	0	0	0	0	0.0	0	0.0	1	1	1	0
5956	S6	2019	9	6	4	0	0	0	0	0	0	0	0.0	0	0.0	1	1	1	0
5957	S6	2019	9	6	5	0	0	0	0	0	0	0	0.0	0	0.0	1	1	1	0
5958	S6	2019	9	6	6	27.408984828639599840016671805642545223236083984375	102.5241014168060047495600883848965167999267578125	21.849058905163300181584418169222772121429443359375	11.2527026163564993765930921654216945171356201171875	82.2270274806667060829568072222173213958740234375	1.443243239981089942602920928038656711578369140625	8.66666674070678055841199238784611225128173828125	0.0	299.560308161502007351373322308063507080078125	0.0	1	1	1	0
5959	S6	2019	9	6	7	108.7199372927340021988129592500627040863037109375	256.01840434604201846013893373310565948486328125	69.9906179640027943378299823962152004241943359375	12.115555553966000701393568306230008602142333984375	80.642500517103400170526583679020404815673828125	1.33972222117913997152527372236363589763641357421875	76.133333363880495880948728881776332855224609375	0.0	2165.5103996396001093671657145023345947265625	0.0	1	1	1	1
5960	S6	2019	9	6	8	182.345545217725003794839722104370594024658203125	138.166164720057992099100374616682529449462890625	141.80581226348800782943726517260074615478515625	13.69499995973369976809408399276435375213623046875	77.6680556191337956306597334332764148712158203125	1.83666666299103997772590446402318775653839111328125	173.033333569765005677254521287977695465087890625	0.0	4755.41955431302994838915765285491943359375	0.0	1	1	1	1
5961	S6	2019	9	6	9	275.0570127699110116736846975982189178466796875	155.2295847237110137939453125	209.631039047240989248166442848742008209228515625	15.129722245534200197880636551417410373687744140625	75.2927774005465977325002313591539859771728515625	2.175555554942949942898167137173004448413848876953125	279.65000023444400767402839846909046173095703125	0.0	8030.8740695317601421265862882137298583984375	0.0	1	1	1	1
5962	S6	2019	9	6	10	214.98706147935598664844292216002941131591796875	6.77438112704289974175253519206307828426361083984375	210.91422381930800611371523700654506683349609375	15.5561110655466006136293799499981105327606201171875	74.3188891516791017011200892738997936248779296875	2.219999992185159864988008848740719258785247802734375	206.29999985297399689443409442901611328125	0.0	5950.6132354338997174636460840702056884765625	0.0	1	1	1	1
5963	S6	2019	9	6	11	226.972215440538008124349289573729038238525390625	22.96076478138559906483351369388401508331298828125	211.72114312913600997489993460476398468017578125	15.9397222174538004679789082729257643222808837890625	74.0708334816825981761212460696697235107421875	2.202500001092750014919374734745360910892486572265625	228.166666130224001562964986078441143035888671875	0.0	6407.2006285190500420867465436458587646484375	0.0	1	1	1	1
5964	S6	2019	9	6	12	258.4770746866860235968488268554210662841796875	14.9332868181168993970686642569489777088165283203125	247.624477979870988519905949942767620086669921875	16.403611042764399741145098232664167881011962890625	72.5813891304863005871084169484674930572509765625	2.18083333455853978222194200498051941394805908203125	285.43333237369898824908887036144733428955078125	0.0	8056.067478656759703881107270717620849609375	0.0	1	1	1	1
5965	S6	2019	9	6	13	420.31597723163798718815087340772151947021484375	99.459900313486997447398607619106769561767578125	351.86524241504099563826457597315311431884765625	17.67790359950939915734124951995909214019775390625	68.2563738512248932011061697266995906829833984375	2.223796033234500146846812640433199703693389892578125	438.38333437840100259563769213855266571044921875	0.0	11833.3405256270998506806790828704833984375	0.0	1	1	1	1
5966	S6	2019	9	6	14	289.58986672295401376686641015112400054931640625	16.665035474052000807887452538125216960906982421875	277.7454149034280135310837067663669586181640625	17.784999963972300207615262479521334171295166015625	66.4516665988497976513826870359480381011962890625	2.35805554878379997063575501670129597187042236328125	286.2500011920919860131107270717620849609375	0.0	8131.8643073240900775999762117862701416015625	0.0	1	1	1	1
5967	S6	2019	9	6	15	361.0424739966230163190630264580249786376953125	91.2179457560348936340233194641768932342529296875	307.97360263781598632704117335379123687744140625	17.849999974282898307365030632354319095611572265625	67.19522495484079627203755080699920654296875	3.058988766305230200259757111780345439910888671875	411.5833356976499999291263520717620849609375	0.0	10905.205066998800248256884515285491943359375	0.0	1	1	1	1
5968	S6	2019	9	6	16	190.519649045220006655654287897050380706787109375	24.48670315523710172556093311868607997894287109375	178.106163704532008296155254356563091278076171875	17.10689648814580010593999759294092655181884765625	70.0040231463552942159367376007139682769775390625	2.914942525155920005630605373880825936794281005859375	173.516666516660990282616694457828998565673828125	0.0	4857.56318966547041782177984714508056640625	0.0	1	1	1	1
5969	S6	2019	9	6	17	50.86342301998490000869423965923488140106201171875	0.303047792872254972973422582072089426219463348388671875	50.72565286744310242283972911536693572998046875	15.267169700478600447013377561233937740325927734375	80.0558492696510057839986984618008136749267578125	2.76792452200403005235784803517162799835205078125	37.2833336237817007940975599922239780426025390625	0.0	1160.963056733209896265179850161075592041015625	0.0	1	1	1	1
5970	S6	2019	9	6	18	34.1984087688822029349466902203857898712158203125	0.406188608475133994257788572213030420243740081787109375	34.2640993172013992307256557978689670562744140625	13.3143661928847993891622536466456949710845947265625	88.85098621207220048745512031018733978271484375	2.109014084137660116624601869261823594570159912109375	28.250000268841699124777733231894671916961669921875	0.0	853.1853919227929736734949983656406402587890625	0.0	1	1	1	1
5971	S6	2019	9	6	19	10.4619034342314005670004917192272841930389404296875	0.40098518807701599708792628007358871400356292724609375	10.5529092967263995461735248682089149951934814453125	13.0432099275628008427929671597667038440704345703125	88.83744874805080371515941806137561798095703125	1.335390949936070104087093568523414433002471923828125	4.6333333865429100484334412612952291965484619140625	0.0	151.260633316510990198366926051676273345947265625	0.0	1	1	1	1
5972	S6	2019	9	6	20	0	0	0	0	0	0	0	0.0	0	0.0	1	1	1	0
5973	S6	2019	9	6	21	0	0	0	0	0	0	0	0.0	0	0.0	1	1	1	0
5974	S6	2019	9	6	22	0	0	0	0	0	0	0	0.0	0	0.0	1	1	1	0
5975	S6	2019	9	6	23	0	0	0	0	0	0	0	0.0	0	0.0	1	1	1	0
5976	S6	2019	9	6	24	0	0	0	0	0	0	0	0.0	0	0.0	1	1	1	0
5977	S6	2019	9	7	1	0	0	0	0	0	0	0	0.0	0	0.0	1	1	1	0
5978	S6	2019	9	7	2	0	0	0	0	0	0	0	0.0	0	0.0	1	1	1	0
5979	S6	2019	9	7	3	0	0	0	0	0	0	0	0.0	0	0.0	1	1	1	0
5980	S6	2019	9	7	4	0	0	0	0	0	0	0	0.0	0	0.0	1	1	1	0
5981	S6	2019	9	7	5	0	0	0	0	0	0	0	0.0	0	0.0	1	1	1	0
5982	S6	2019	9	7	6	15.9924965165554997525987346307374536991119384765625	11.1433168631046992658184535684995353221893310546875	15.783717721700600833401040290482342243194580078125	12.07187500596040052869284409098327159881591796875	88.8257820606230978910389239899814128875732421875	1.55859374674037010066740549518726766109466552734375	6.0500000584094504318954932386986911296844482421875	0.0	190.99141320524000775549211539328098297119140625	0.0	1	1	1	1
5983	S6	2019	9	7	7	89.42372214529240181946079246699810028076171875	265.91532002041702753558638505637645721435546875	45.419770410325696730069466866552829742431640625	13.0849999692704006548638062668032944202423095703125	86.66388854980459655052982270717620849609375	0.9255555580059680043092384948977269232273101806640625	65.350000094622402002642047591507434844970703125	0.0	1596.365020424120075404061935842037200927734375	0.0	1	1	1	1
5984	S6	2019	9	7	8	237.519555854797005167711176909506320953369140625	570.26645130581300691119395196437835693359375	73.7259565247428980683253030292689800262451171875	14.9394444624581996805545713868923485279083251953125	81.9161109924315979924358543939888477325439453125	1.1208333366447000845056436446611769497394561767578125	253.249999880789999906482989899814128875732421875	0.0	5984.82555449010033044032752513885498046875	0.0	1	1	1	1
5985	S6	2019	9	7	9	381.13167902628498495687381364405155181884765625	687.1829919179280068419757299125194549560546875	95.6622370190089981178971356712281703948974609375	16.1666667143502991166315041482448577880859375	77.3699997795952043588840751908719539642333984375	1.6544444402058899878937836547265760600566864013671875	453.3000002304710278622223995625972747802734375	0.0	12391.527378559099815902300179004669189453125	0.0	1	1	1	1
5986	S6	2019	9	7	10	531.8234973864599623993854038417339324951171875	750.2730110254179862749879248440265655517578125	140.00639666867999721944215707480907440185546875	17.3719100202066982774340431205928325653076171875	67.21376451213700420339591801166534423828125	1.701404490330240104611903007025830447673797607421875	673.283334573108959375531412661075592041015625	0.0	17766.32136106489997473545372486114501953125	0.0	1	1	1	1
5987	S6	2019	9	7	11	569.86534930958396216738037765026092529296875	585.1592518326109484405606053769588470458984375	217.35823664945701239048503339290618896484375	18.09058825548950011352644651196897029876708984375	61.7400001301484024907040293328464031219482421875	1.6449999986325900547257106154575012624263763427734375	713.866665711004998229327611625194549560546875	0.0	18449.90290602040113299153745174407958984375	0.0	1	1	1	1
5988	S6	2019	9	7	12	596.4376592835379824464325793087482452392578125	530.6427037922300087302573956549167633056640625	252.140052954829997133856522850692272186279296875	18.17552224913639946635157684795558452606201171875	59.77731347155209817856302834115922451019287109375	2.086865671090219809258314853650517761707305908203125	607.2666674852370078951935283839702606201171875	0.0	16003.219564755700048408471047878265380859375	0.0	1	1	1	1
5989	S6	2019	9	7	13	445.556868443344001207151450216770172119140625	393.298795089893019394367001950740814208984375	187.61539477723999880254268646240234375	18.37848496870559955596036161296069622039794921875	59.1360605875650975349344662390649318695068359375	1.6312121223319600016310459977830760180950164794921875	424.7333337863279894008883275091648101806640625	0.0	10887.714553872699980274774134159088134765625	0.0	1	1	1	1
5990	S6	2019	9	7	14	406.5173464442140129904146306216716766357421875	287.82130577463698273277259431779384613037109375	226.0787479016900078931939788162708282470703125	19.025739613369299974010573350824415683746337890625	53.618638890734700908069498836994171142578125	1.60946745033094007482077358872629702091217041015625	386.7000001172219754153047688305377960205078125	0.0	10295.0095713137998245656490325927734375	0.0	1	1	1	1
5991	S6	2019	9	7	15	308.30630043852698918271926231682300567626953125	204.027875641126996697494178079068660736083984375	196.912710028556006136568612419068813323974609375	18.945481186357898906180707854218780994415283203125	54.67871727679280269285300164483487606048583984375	1.538192416505979931429237694828771054744720458984375	332.53333171208697649490204639732837677001953125	0.0	8634.12620127201080322265625	0.0	1	1	1	1
5992	S6	2019	9	7	16	382.31494319140000470724771730601787567138671875	472.09518511101401827545487321913242340087890625	168.897653988808002623045467771589756011962890625	19.304735374981898843316230340860784053802490234375	54.44094693494700010205633589066565036773681640625	1.5200557079487799772010703236446715891361236572265625	390.13333444793897797353565692901611328125	0.0	9733.33110014596968539990484714508056640625	0.0	1	1	1	1
5993	S6	2019	9	7	17	213.0126528422030105502926744520664215087890625	293.792699306208987763966433703899383544921875	122.1331075032550046444157487712800502777099609375	19.119444561004598881481797434389591217041015625	54.8044442282782000575025449506938457489013671875	1.1305555558866899890091417546500451862812042236328125	239.300000543394986607381724752485752105712890625	0.0	5886.0188047090996406041085720062255859375	0.0	1	1	1	1
5994	S6	2019	9	7	18	111.7031302077040066933477646671235561370849609375	188.75963310679600226649199612438678741455078125	77.3585904903626015993722830899059772491455078125	18.374718912531800896204003947786986827850341796875	57.5134830260544021030000294558703899383544921875	1.0193820255023700038776723886257968842983245849609375	115.3666660810509938528412021696567535400390625	0.0	2710.961210727689831401221454143524169921875	0.0	1	1	1	1
5995	S6	2019	9	7	19	36.1915876070657986929290927946567535400390625	56.14241510042629812460290850140154361724853515625	31.961438233202098757601561374031007289886474609375	17.290151299852301036708013270981609821319580078125	61.66893963380289989117954974062740802764892578125	0.409090912929086003568812657249509356915950775146484375	20.000000121459901691878258134238421916961669921875	0.0	557.8327467509840289494604803621768951416015625	0.0	1	1	1	1
5996	S6	2019	9	7	20	0	0	0	0	0	0	0	0.0	0	0.0	1	1	1	0
5997	S6	2019	9	7	21	0	0	0	0	0	0	0	0.0	0	0.0	1	1	1	0
5998	S6	2019	9	7	22	0	0	0	0	0	0	0	0.0	0	0.0	1	1	1	0
5999	S6	2019	9	7	23	0	0	0	0	0	0	0	0.0	0	0.0	1	1	1	0
6000	S6	2019	9	7	24	0	0	0	0	0	0	0	0.0	0	0.0	1	1	1	0
6001	S6	2019	9	8	1	0	0	0	0	0	0	0	0.0	0	0.0	1	1	1	0
6002	S6	2019	9	8	2	0	0	0	0	0	0	0	0.0	0	0.0	1	1	1	0
6003	S6	2019	9	8	3	0	0	0	0	0	0	0	0.0	0	0.0	1	1	1	0
6004	S6	2019	9	8	4	0	0	0	0	0	0	0	0.0	0	0.0	1	1	1	0
6005	S6	2019	9	8	5	0	0	0	0	0	0	0	0.0	0	0.0	1	1	1	0
6006	S6	2019	9	8	6	7.9647452905774098752544887247495353221893310546875	0.46892287000082399917033626479678787291049957275390625	7.98453491926192970851161589962430298328399658203125	12.8726562336086995941286659217439591884613037109375	85.44921815395349540267488919198513031005859375	0.1664062531199299865836138678787392564117908477783203125	3.6166667026312300237123054102994501590728759765625	0.0	105.9941447883220035919293877668678760528564453125	0.0	1	1	1	1
6007	S6	2019	9	8	7	33.4241373962826031629447243176400661468505859375	0.5721768822107049512482035424909554421901702880859375	33.51262870099800039724868838675320148468017578125	13.1699999809264998162916526780463755130767822265625	85.9905558268228986662506940774619579315185546875	0.3533333390951149954872789749060757458209991455078125	35.6000001852710994398876209743320941925048828125	0.0	1005.5216718464999985371832735836505889892578125	0.0	1	1	1	1
6008	S6	2019	9	8	8	65.5539113574557035235557123087346553802490234375	0.5456035444305999959624386974610388278961181640625	65.70629136827250249552889727056026458740234375	13.67833337783810065957368351519107818603515625	89.1194446139865021905279718339443206787109375	0.7152777824964779984640017573838122189044952392578125	65.283334317306497496247175149619579315185546875	0.0	1882.54723101854006017674691975116729736328125	0.0	1	1	1	1
6009	S6	2019	9	8	9	117.7358814875280046408079215325415134429931640625	0.74008471502198103220138136748573742806911468505859375	117.7348258336379984712039004079997539520263671875	14.866666618982900871515084872953593730926513671875	89.6505555894639059033579542301595211029052734375	0.96222222232156295884664132245234213769435882568359375	121.5166673064230025147480773739516735076904296875	0.0	3488.213554024679979193024337291717529296875	0.0	1	1	1	1
6010	S6	2019	9	8	10	191.051900355020990218690712936222553253173828125	0.91147535923454403583576777236885391175746917724609375	190.57522332933200459592626430094242095947265625	16.019444386164298776975556393153965473175048828125	82.6072220696343038071063347160816192626953125	1.2400000019205899004504090044065378606319427490234375	191.100000093380003818310797214508056640625	0.0	5506.0395956039401426096446812152862548828125	0.0	1	1	1	1
6011	S6	2019	9	8	11	277.60071563720697440658113919198513031005859375	1.8418832946154799490301456899032928049564361572265625	275.0470166524249862050055526196956634521484375	16.88444449106849987174427951686084270477294921875	73.576111263699004894078825600445270538330078125	1.4013888865709300812767423849436454474925994873046875	276.89999838670001963691902346909046173095703125	0.0	7801.567391554510322748683393001556396484375	0.0	1	1	1	1
6012	S6	2019	9	8	12	321.18232481214698736948776058852672576904296875	2.688930234809709940435595854069106280803680419921875	317.41883875528901626239530742168426513671875	17.793333456251300361827816232107579708099365234375	64.9211108101738005871084169484674930572509765625	1.401944442672860002829793302225880324840545654296875	314.7166689236950105623691342771053314208984375	0.0	8752.19374895092914812266826629638671875	0.0	1	1	1	1
6013	S6	2019	9	8	13	325.98813391791401272712391801178455352783203125	2.132099772824179950703182839788496494293212890625	322.46005003187298143529915250837802886962890625	18.31388883590690142000312334857881069183349609375	57.30111115773510022108894190751016139984130859375	1.3519444435834799822515606138040311634540557861328125	315.6166662772490099087008275091648101806640625	0.0	8805.70333202680922113358974456787109375	0.0	1	1	1	1
6014	S6	2019	9	8	14	225.269013044568993109351140446960926055908203125	0.77172670505112994643326373989111743867397308349609375	224.328258132933996193969505839049816131591796875	18.23333334392970073167816735804080963134765625	56.00166681077740093996908399276435375213623046875	1.2288888894021499087472193423309363424777984619140625	213.750000546375986232305876910686492919921875	0.0	6050.3619333108099453966133296489715576171875	0.0	1	1	1	1
6015	S6	2019	9	8	15	203.528340530395013274755910970270633697509765625	1.642749642994659975414606378762982785701751708984375	202.207903374565006515695131383836269378662109375	18.0944446033901016335221356712281703948974609375	60.33166675567620274023283855058252811431884765625	1.1922222204506300879955915661412291228771209716796875	195.283332218725007578541408292949199676513671875	0.0	5470.8007156848898375756107270717620849609375	0.0	1	1	1	1
6016	S6	2019	9	8	16	159.948450525379001874171080999076366424560546875	25.815746129391499152916367165744304656982421875	149.873771369124000329975388012826442718505859375	18.12513995037389946674011298455297946929931640625	60.4245808350973021561003406532108783721923828125	0.8005586617818749584074566882918588817119598388671875	177.450001488129004201255156658589839935302734375	0.0	5166.1635935306503597530536353588104248046875	0.0	1	1	1	1
6017	S6	2019	9	8	17	220.41429755235100174104445613920688629150390625	197.78310780631699117293464951217174530029296875	151.343560129656992785385227762162685394287109375	18.583286171931998609352376661263406276702880859375	58.06005675664359699794658808968961238861083984375	0.84390935183584503409548460695077665150165557861328125	195.650000683962986158803687430918216705322265625	0.0	5505.4637466867798138991929590702056884765625	0.0	1	1	1	1
6018	S6	2019	9	8	18	60.0073807186549998959890217520296573638916015625	61.19835990514189916211762465536594390869140625	51.742576493157201866779359988868236541748046875	17.456666480170298427765374071896076202392578125	65.47611088222919306645053438842296600341796875	0.7630555575092630160582984899519942700862884521484375	58.73333333681019752248175791464745998382568359375	0.0	1429.240961869549892071518115699291229248046875	0.0	1	1	1	1
6019	S6	2019	9	8	19	21.998163595386500901440740562975406646728515625	96.75994878867089710183790884912014007568359375	14.480104588527300535361064248718321323394775390625	17.200784107282999002563883550465106964111328125	67.4184315999348058312534703873097896575927734375	0.608627454790414024188294206396676599979400634765625	12.483333443136199747414138983003795146942138671875	0.0	270.10968872345898716957890428602695465087890625	0.0	1	1	1	0
6020	S6	2019	9	8	20	0	0	0	0	0	0	0	0.0	0	0.0	1	1	1	0
6021	S6	2019	9	8	21	0	0	0	0	0	0	0	0.0	0	0.0	1	1	1	0
6022	S6	2019	9	8	22	0	0	0	0	0	0	0	0.0	0	0.0	1	1	1	0
6023	S6	2019	9	8	23	0	0	0	0	0	0	0	0.0	0	0.0	1	1	1	0
6024	S6	2019	9	8	24	0	0	0	0	0	0	0	0.0	0	0.0	1	1	1	0
6025	S6	2019	9	9	1	0	0	0	0	0	0	0	0.0	0	0.0	1	1	1	0
6026	S6	2019	9	9	2	0	0	0	0	0	0	0	0.0	0	0.0	1	1	1	0
6027	S6	2019	9	9	3	0	0	0	0	0	0	0	0.0	0	0.0	1	1	1	0
6028	S6	2019	9	9	4	0	0	0	0	0	0	0	0.0	0	0.0	1	1	1	0
6029	S6	2019	9	9	5	0	0	0	0	0	0	0	0.0	0	0.0	1	1	1	0
6030	S6	2019	9	9	6	5.80669258634249008110828071949072182178497314453125	6.23419267634549978396307778893969953060150146484375	5.69382215539614033872339859954081475734710693359375	11.943333228429100500989079591818153858184814453125	93.8158330917357972111858543939888477325439453125	0.8350000023841850360639682548935525119304656982421875	2.91666674311272000608141752309165894985198974609375	0.0	71.6374713306623931430294760502874851226806640625	0.0	1	1	1	0
6031	S6	2019	9	9	7	22.76848535272809925800174823962152004241943359375	0.55172983946071696426116659495164640247821807861328125	23.00423090987730034839842119254171848297119140625	12.2261109564039003316793241538107395172119140625	93.3677773369683023929610499180853366851806640625	0.491388894120852015579004046230693347752094268798828125	24.983333377167500799487243057228624820709228515625	0.0	722.7834492921820128685794770717620849609375	0.0	1	1	1	1
6032	S6	2019	9	9	8	87.606351470947203097239253111183643341064453125	0.6368998497724529528341008699499070644378662109375	87.870739947424993943059234879910945892333984375	13.118888976838800175528376712463796138763427734375	92.9705559624566006959867081604897975921630859375	0.55111111609472096528605788989807479083538055419921875	90.3333334252238984163341228850185871124267578125	0.0	2582.31911957262991563766263425350189208984375	0.0	1	1	1	1
6033	S6	2019	9	9	9	158.605533006455999611716833896934986114501953125	1.408332282470329932522190574673004448413848876953125	158.355132081773007257652352564036846160888671875	14.737222162882400056105325347743928432464599609375	89.1305555131699946969092707149684429168701171875	0.6552777819335460218752587024937383830547332763671875	152.716667453447001889799139462411403656005859375	0.0	4308.6917916933698506909422576427459716796875	0.0	1	1	1	1
6034	S6	2019	9	9	10	261.174925104777003070921637117862701416015625	14.0082486197352000800719906692393124103546142578125	252.524661678737999181976192630827426910400390625	15.85499999258249914646512479521334171295166015625	83.6372223748100935836191638372838497161865234375	0.82111111175682804930175961999339051544666290283203125	265.69999977946298486131126992404460906982421875	0.0	7495.0523257255599673953838646411895751953125	0.0	1	1	1	1
6035	S6	2019	9	9	11	241.5392272101499884229269810020923614501953125	11.8244423057056007309029155294410884380340576171875	232.775804943508006772390217520296573638916015625	17.137777720557298977155369357205927371978759765625	77.33666661580400614184327423572540283203125	1.083888888607420053489249767153523862361907958984375	231.166666746140009536247816868126392364501953125	0.0	6589.210670193029727670364081859588623046875	0.0	1	1	1	1
6036	S6	2019	9	9	12	303.36211939608102738930028863251209259033203125	62.2207612696658003414995619095861911773681640625	262.4943095860850235112593509256839752197265625	17.86825840124920006246611592359840869903564453125	71.087078951717700192602933384478092193603515625	1.493820221738860087867806214489974081516265869140625	324.983333299556989004486240446567535400390625	0.0	8930.5730462074207025580108165740966796875	0.0	1	1	1	1
6037	S6	2019	9	9	13	228.98735530724599129825946874916553497314453125	1.573927721989679895386871066875755786895751953125	226.905861779545006129410467110574245452880859375	18.0067413737263990469728014431893825531005859375	68.9640455353125929605084820650517940521240234375	1.31039325851067989248122103163041174411773681640625	207.1999995658790112429414875805377960205078125	0.0	5900.2845098574898656806908547878265380859375	0.0	1	1	1	1
6038	S6	2019	9	9	14	142.018022007411985896396799944341182708740234375	0.65604189522564404501991930374060757458209991455078125	141.47089879777598753207712434232234954833984375	17.80444463094070073339025839231908321380615234375	71.0433335622150963217791286297142505645751953125	1.0775000008443900156862582662142813205718994140625	121.916667123634994140957132913172245025634765625	0.0	3614.73950644333990567247383296489715576171875	0.0	1	1	1	1
6039	S6	2019	9	9	15	110.6871591991839949287168565206229686737060546875	0.66453656794296300791557996490155346691608428955078125	110.1339541647160018555950955487787723541259765625	17.49555553860130174825826543383300304412841796875	73.53944452073830007066135294735431671142578125	1.4688888856106299130033221445046365261077880859375	94.033333162466504973053815774619579315185546875	0.0	2800.3490611910701773012988269329071044921875	0.0	1	1	1	1
6040	S6	2019	9	9	16	38.42605584317980316200191737152636051177978515625	0.24153789895916000229902920182212255895137786865234375	38.32766814665360044500630465336143970489501953125	16.85909092426300048828125	80.63465890017420178992324508726596832275390625	1.7224431775340900419024592338246293365955352783203125	28.316666744649399589661697973497211933135986328125	0.0	902.99761792023900852655060589313507080078125	0.0	1	1	1	1
6041	S6	2019	9	9	17	32.70012782944569806886647711507976055145263671875	0.391635906075437023599050689881551079452037811279296875	32.57530872556890244595706462860107421875	15.8277778148650991596468884381465613842010498046875	89.6094446394178021364496089518070220947265625	1.52083333142928989190068023162893950939178466796875	27.366666588932300641090478166006505489349365234375	0.0	821.239699174959014271735213696956634521484375	0.0	1	1	1	1
6042	S6	2019	9	9	18	17.31806416379080104661625227890908718109130859375	0.43408640788661101428402844248921610414981842041015625	17.328184570206499159894519834779202938079833984375	15.5794445673623993542378229903988540172576904296875	93.3011107126871053196737193502485752105712890625	1.089166667643520103325727177434600889682769775390625	14.2333333690960994744045819970779120922088623046875	0.0	415.79547338187597915748483501374721527099609375	0.0	1	1	1	1
6043	S6	2019	9	9	19	3.207706740319399951744117061025463044643402099609375	0.377404868114189995242924169360776431858539581298828125	3.264681243831339951810832644696347415447235107421875	15.656284212414600887086635339073836803436279296875	93.6956273480191015323725878261029720306396484375	1.0748633879130000678969736327417194843292236328125	0.83333334769122602292412693714140914380550384521484375	0.0	25.083540189855998647772139520384371280670166015625	0.0	1	1	1	1
6044	S6	2019	9	9	20	0	0	0	0	0	0	0	0.0	0	0.0	1	1	1	0
6045	S6	2019	9	9	21	0	0	0	0	0	0	0	0.0	0	0.0	1	1	1	0
6046	S6	2019	9	9	22	0	0	0	0	0	0	0	0.0	0	0.0	1	1	1	0
6047	S6	2019	9	9	23	0	0	0	0	0	0	0	0.0	0	0.0	1	1	1	0
6048	S6	2019	9	9	24	0	0	0	0	0	0	0	0.0	0	0.0	1	1	1	0
6049	S6	2019	9	10	1	0	0	0	0	0	0	0	0.0	0	0.0	1	1	1	0
6050	S6	2019	9	10	2	0	0	0	0	0	0	0	0.0	0	0.0	1	1	1	0
6051	S6	2019	9	10	3	0	0	0	0	0	0	0	0.0	0	0.0	1	1	1	0
6052	S6	2019	9	10	4	0	0	0	0	0	0	0	0.0	0	0.0	1	1	1	0
6053	S6	2019	9	10	5	0	0	0	0	0	0	0	0.0	0	0.0	1	1	1	0
6054	S6	2019	9	10	6	1.7070475568000500476983916087192483246326446533203125	0.37358394735737798786345820190035738050937652587890625	1.6040948786233599765438384565641172230243682861328125	16.03383471553480177362871472723782062530517578125	96.04210462068249398726038634777069091796875	0.62105263713607194997479155063047073781490325927734375	0.6666666963913849830447588828974403440952301025390625	0.0	10.1436265821879008086625617579557001590728759765625	0.0	1	1	1	0
6055	S6	2019	9	10	7	8.9883227447668705423211576999165117740631103515625	0.387958359759713988790252869875985197722911834716796875	8.969255912966190180668490938842296600341796875	16.020000076293900548307647113688290119171142578125	96.45333285861539707184419967234134674072265625	0.6444444465968339752492965999408625066280364990234375	9.4333333622974091525748008280061185359954833984375	0.0	259.7916645153110266619478352367877960205078125	0.0	1	1	1	1
6056	S6	2019	9	10	8	59.67383490668400014556027599610388278961181640625	0.485595298558472998617929761167033575475215911865234375	59.857636610666901333388523198664188385009765625	16.312221972147600723701543756760656833648681640625	96.6400002797443988811210147105157375335693359375	0.5047222251693399552863183998852036893367767333984375	61.1166670608022997157604550011456012725830078125	0.0	1732.376651962599908074480481445789337158203125	0.0	1	1	1	1
6057	S6	2019	9	10	9	62.72302507824360162658194894902408123016357421875	0.48577142498559400252133855246938765048980712890625	62.85518513785459759901641518808901309967041015625	16.4655554241603994114484521560370922088623046875	96.9638890160453996713840751908719539642333984375	1.12944444649748998443783420952968299388885498046875	58.43333372225350075268579530529677867889404296875	0.0	1630.577201147870027853059582412242889404296875	0.0	1	1	1	1
6058	S6	2019	9	10	10	20.158909228112900535734297591261565685272216796875	0.4064966652128430002477443849784322082996368408203125	20.075757148530698259492055512964725494384765625	16.39444416893849876259992015548050403594970703125	96.5000002543130932508574915118515491485595703125	1.1855555573271299163451431013527326285839080810546875	17.500000090027800325742646236903965473175048828125	0.0	488.4905578568569808339816518127918243408203125	0.0	1	1	1	1
6059	S6	2019	9	10	11	30.21198157734340128399708191864192485809326171875	0.439995733069048988728155791250173933804035186767578125	30.229880746205598285314408713020384311676025390625	16.354721890555399710365236387588083744049072265625	96.77139027913409563552704639732837677001953125	1.07055555689666004326454640249721705913543701171875	30.350000100831099558718051412142813205718994140625	0.0	844.9449410041170267504639923572540283203125	0.0	1	1	1	1
6060	S6	2019	9	10	12	60.33578116099040045128276688046753406524658203125	0.52679344589511500895895323992590419948101043701171875	60.31719791624279736197422607801854610443115234375	16.48249996503189862551153055392205715179443359375	97.21833273569740185848786495625972747802734375	0.35750000261598102735405291241477243602275848388671875	67.1166670819123964975005947053432464599609375	0.0	1933.373418947059917627484537661075592041015625	0.0	1	1	1	1
6061	S6	2019	9	10	13	93.8094074249267038112520822323858737945556640625	0.51998641846908399966054048491059802472591400146484375	93.66483584509950333085726015269756317138671875	16.5458335081736009897213079966604709625244140625	97.0499994913736969692763523198664188385009765625	1.229722223927570023960242906468920409679412841796875	93.66666649778659348157816566526889801025390625	0.0	2696.34625415006985349464230239391326904296875	0.0	1	1	1	1
6062	S6	2019	9	10	14	67.7591307852002984191130963154137134552001953125	0.53478173596991396276933983244816772639751434326171875	67.6259053972031978219092707149684429168701171875	16.64916706085200104325849679298698902130126953125	96.719167327880796847239253111183643341064453125	1.3497222201691700949055530145415104925632476806640625	68.46666696170950672239996492862701416015625	0.0	1923.797163863969899466610513627529144287109375	0.0	1	1	1	1
6063	S6	2019	9	10	15	85.2905715094671990073038614355027675628662109375	0.58650166963537497810676768494886346161365509033203125	85.22391471862789558144868351519107818603515625	16.87416640917459886850338079966604709625244140625	95.4466668446857937624372425489127635955810546875	1.537222216029960009109345264732837677001953125	80.1000002150735070927112246863543987274169921875	0.0	2297.28262474139000914874486625194549560546875	0.0	1	1	1	1
6064	S6	2019	9	10	16	35.023429565959503406702424399554729461669921875	0.3723221085758670056975461193360388278961181640625	35.12078918615969769234652630984783172607421875	16.799999952316198914559208787977695465087890625	95.207500394185302639016299508512020111083984375	1.8916666631069400938969238268327899277210235595703125	33.7166666674117010416011908091604709625244140625	0.0	949.7387247780969801169703714549541473388671875	0.0	1	1	1	1
6065	S6	2019	9	10	17	11.2372560103734002723285811953246593475341796875	0.3288879675583700201713099886546842753887176513671875	11.1900087369812002435764952679164707660675048828125	16.184166709582001431044773198664188385009765625	96.8766667048136014273040927946567535400390625	2.845277770857010057881097964127548038959503173828125	8.6166667519136996844508757931180298328399658203125	0.0	245.568108030904994620868819765746593475341796875	0.0	1	1	1	1
6066	S6	2019	9	10	18	4.1530913743707795759974032989703118801116943359375	0.356862124924858026275842348695732653141021728515625	4.1209248175223596177829676889814436435699462890625	15.60583342711129972713024471886456012725830078125	96.9924995422363025454615126363933086395263671875	2.93749999354283009012078764499165117740631103515625	2.900000069833669869012737763114273548126220703125	0.0	77.10995326439530117568210698664188385009765625	0.0	1	1	1	1
6067	S6	2019	9	10	19	0.9051694534718990325927734375	0.3620275526102310070797329899505712091922760009765625	0.878682607911148050305882861721329391002655029296875	15.4432202153285995649412143393419682979583740234375	96.3118641093625029725444619543850421905517578125	2.9283898216435400030377422808669507503509521484375	0	0.0	0	0.0	1	1	1	1
6068	S6	2019	9	10	20	0	0	0	0	0	0	0	0.0	0	0.0	1	1	1	0
6069	S6	2019	9	10	21	0	0	0	0	0	0	0	0.0	0	0.0	1	1	1	0
6070	S6	2019	9	10	22	0	0	0	0	0	0	0	0.0	0	0.0	1	1	1	0
6071	S6	2019	9	10	23	0	0	0	0	0	0	0	0.0	0	0.0	1	1	1	0
6072	S6	2019	9	10	24	0	0	0	0	0	0	0	0.0	0	0.0	1	1	1	0
6073	S6	2019	9	11	1	0	0	0	0	0	0	0	0.0	0	0.0	1	1	1	0
6074	S6	2019	9	11	2	0	0	0	0	0	0	0	0.0	0	0.0	1	1	1	0
6075	S6	2019	9	11	3	0	0	0	0	0	0	0	0.0	0	0.0	1	1	1	0
6076	S6	2019	9	11	4	0	0	0	0	0	0	0	0.0	0	0.0	1	1	1	0
6077	S6	2019	9	11	5	0	0	0	0	0	0	0	0.0	0	0.0	1	1	1	0
6078	S6	2019	9	11	6	13.9116843183275005202403917792253196239471435546875	35.761305861070098899290314875543117523193359375	12.4179218251940000072863767854869365692138671875	12.988732324519599359291532891802489757537841796875	91.826761272591596707570715807378292083740234375	1.6408450716817799541757949555176310241222381591796875	3.26666671317070012037220294587314128875732421875	0.0	121.6217110709589945827246992848813533782958984375	0.0	1	1	1	0
6079	S6	2019	9	11	7	78.8497108724381945421555428765714168548583984375	314.855700026618023912305943667888641357421875	34.65014583799570146993573871441185474395751953125	13.5350000301995994078652074676938354969024658203125	89.1275005340576029766452847979962825775146484375	1.421388888276279960365400256705470383167266845703125	47.20000027057989910872493055649101734161376953125	0.0	1133.873335396250013218377716839313507080078125	0.0	1	1	1	1
6080	S6	2019	9	11	8	213.676387394496003935273620299994945526123046875	492.995304177148000235320068895816802978515625	82.729908098493297075037844479084014892578125	15.0171428734914993441407204954884946346282958984375	85.090571550641698195249773561954498291015625	1.6500000029802299739145610146806575357913970947265625	186.133333543936004161878372542560100555419921875	0.0	4065.95221807558982618502341210842132568359375	0.0	1	1	1	1
6081	S6	2019	9	11	9	366.3182274954659760624053888022899627685546875	730.9922353653679465423920191824436187744140625	78.3269366990951994011993519961833953857421875	16.404166729677200464720954187214374542236328125	78.7488092467898042059459839947521686553955078125	1.9988095196230000194503872990026138722896575927734375	335.250001400708015353302471339702606201171875	0.0	9472.063769896829398931004106998443603515625	0.0	1	1	1	1
6082	S6	2019	9	11	10	444.64749218416699250155943445861339569091796875	586.8609422624309672755771316587924957275390625	149.1955824712030107548343949019908905029296875	17.30034136202549888139401446096599102020263671875	71.8686002138937993777290103025734424591064453125	2.49419795347967987453330351854674518108367919921875	409.28333339591699768789112567901611328125	0.0	13949.156593282999892835505306720733642578125	0.0	1	1	1	1
6083	S6	2019	9	11	11	475.326166594973983592353761196136474609375	420.670394191665991456829942762851715087890625	232.7770094129770086510688997805118560791015625	18.005714331732800559393581352196633815765380859375	68.6361907716781018962137750349938869476318359375	2.91396825710932017017285033944062888622283935546875	544.466668615737944492138922214508056640625	0.0	14471.881783008500860887579619884490966796875	0.0	1	1	1	1
6084	S6	2019	9	11	12	535.633580868960052612237632274627685546875	370.488237393414010512060485780239105224609375	303.5631344567040059700957499444484710693359375	18.543865215558898995595882297493517398834228515625	65.6932515220407964307014481164515018463134765625	3.045398771397170190056158389779739081859588623046875	544.033330678940046709612943232059478759765625	0.0	14384.73363916080052149482071399688720703125	0.0	1	1	1	1
6085	S6	2019	9	11	13	459.70526184082001464048516936600208282470703125	221.77521279811799104209057986736297607421875	318.7341823904849889004253782331943511962890625	18.633142841883998386265375302173197269439697265625	63.81914279392780287025743746198713779449462890625	3.43200000711849018131260891095735132694244384765625	481.4166655143100115310517139732837677001953125	0.0	12573.761789004000092973001301288604736328125	0.0	1	1	1	1
6086	S6	2019	9	11	14	381.97612433000000464744516648352146148681640625	180.558660163917011232115328311920166015625	271.28716473145897225549560971558094024658203125	18.92130675640969883488651248626410961151123046875	63.0951703678477002767976955510675907135009765625	3.549431820484719946051654915208928287029266357421875	363.56666584809499909169971942901611328125	0.0	9698.11016519865006557665765285491943359375	0.0	1	1	1	1
6087	S6	2019	9	11	15	298.75500760304197456207475624978542327880859375	77.71266461564300698228180408477783203125	255.912665236958986270110472105443477630615234375	18.65097504937210004527514684014022350311279296875	64.363231478295205079120933078229427337646484375	3.642339821811499955828139718505553901195526123046875	302.8666672607259897631593048572540283203125	0.0	8269.85334157944089383818209171295166015625	0.0	1	1	1	1
6088	S6	2019	9	11	16	98.8501814736259944993435055948793888092041015625	0.6906265132129190131848872624686919152736663818359375	98.1447966151767019482576870359480381011962890625	18.324166822433401335956659750081598758697509765625	63.994166437784798517895978875458240509033203125	3.427777773141860162553484769887290894985198974609375	79.4666667158405033433155040256679058074951171875	0.0	2369.587332010260070092044770717620849609375	0.0	1	1	1	1
6089	S6	2019	9	11	17	41.48428397178639670528355054557323455810546875	0.471691336130930005676731298080994747579097747802734375	41.48949198722829834196090814657509326934814453125	17.801666784286499733980235760100185871124267578125	67.5474999109903961880263523198664188385009765625	3.241388882531059945080187389976345002651214599609375	37.88333336512250326677531120367348194122314453125	0.0	1128.54563916722008798387832939624786376953125	0.0	1	1	1	1
6090	S6	2019	9	11	18	14.6186500857376007189714073319919407367706298828125	0.453457760016106992129181207928922958672046661376953125	14.6016295390439996282339052413590252399444580078125	17.05532629793039944843258126638829708099365234375	74.452234536921395147146540693938732147216796875	3.278694153446509940152964190929196774959564208984375	11.7166666779666996944797574542462825775146484375	0.0	384.16745848953797803915222175419330596923828125	0.0	1	1	1	1
6091	S6	2019	9	11	19	4.1154165003034801628700733999721705913543701171875	0.198123355085899011118755197458085604012012481689453125	4.0059445128481598885628045536577701568603515625	15.9025640813713007304386337636969983577728271484375	82.794017237475799220192129723727703094482421875	3.009401724379280107513068287516944110393524169921875	1.266666719069089896976265663397498428821563720703125	0.0	94.552041349622101051863864995539188385009765625	0.0	1	1	1	1
6092	S6	2019	9	11	20	0	0	0	0	0	0	0	0.0	0	0.0	1	1	1	0
6093	S6	2019	9	11	21	0	0	0	0	0	0	0	0.0	0	0.0	1	1	1	0
6094	S6	2019	9	11	22	0	0	0	0	0	0	0	0.0	0	0.0	1	1	1	0
6095	S6	2019	9	11	23	0	0	0	0	0	0	0	0.0	0	0.0	1	1	1	0
6096	S6	2019	9	11	24	0	0	0	0	0	0	0	0.0	0	0.0	1	1	1	0
6097	S6	2019	9	12	1	0	0	0	0	0	0	0	0.0	0	0.0	1	1	1	0
6098	S6	2019	9	12	2	0	0	0	0	0	0	0	0.0	0	0.0	1	1	1	0
6099	S6	2019	9	12	3	0	0	0	0	0	0	0	0.0	0	0.0	1	1	1	0
6100	S6	2019	9	12	4	0	0	0	0	0	0	0	0.0	0	0.0	1	1	1	0
6101	S6	2019	9	12	5	0	0	0	0	0	0	0	0.0	0	0.0	1	1	1	0
6102	S6	2019	9	12	6	13.63618364739919996964090387336909770965576171875	22.20769069106020054960026754997670650482177734375	13.0594743008308995513289119116961956024169921875	13.15425539016720080098821199499070644378662109375	93.42659645892200614980538375675678253173828125	1.3999999967661300726007311823195777833461761474609375	3.8666667377886501100192617741413414478302001953125	0.0	133.071465091779003842020756565034389495849609375	0.0	1	1	1	0
6103	S6	2019	9	12	7	75.22199309137130285307648591697216033935546875	242.104321055941994700333452783524990081787109375	40.6236446963416000244251335971057415008544921875	13.772499982515899574764262069948017597198486328125	91.284999783833796982435160316526889801025390625	1.476388884252969990740211869706399738788604736328125	48.31666673223170249684699228964745998382568359375	0.0	1115.240431328609929551021195948123931884765625	0.0	1	1	1	1
6104	S6	2019	9	12	8	213.27934023539199870356242172420024871826171875	538.4976434495710009286995045840740203857421875	70.1348866038852065685205161571502685546875	15.2650000095367008867697222740389406681060791015625	86.116667111714605198358185589313507080078125	1.7216666691005200195974111920804716646671295166015625	154.5000009238719940185546875	0.0	3947.97432969014016634901054203510284423828125	0.0	1	1	1	1
6105	S6	2019	9	12	9	354.073074595132993636070750653743743896484375	683.1511647542309901837143115699291229248046875	86.1623443179660029045408009551465511322021484375	16.576666514078699066203625989146530628204345703125	81.5308333714802984104608185589313507080078125	2.0558333303365401434348314069211483001708984375	357.2833326955629900112398900091648101806640625	0.0	10095.879254738500094390474259853363037109375	0.0	1	1	1	1
6106	S6	2019	9	12	10	472.57951039902201273434911854565143585205078125	672.502523864792010499513708055019378662109375	140.19834641087999216324533335864543914794921875	17.817109093905198591301086707971990108489990234375	75.6976404105667057820028276182711124420166015625	2.366371680765369855947710675536654889583587646484375	574.5499983429899657494388520717620849609375	0.0	15651.856358846000148332677781581878662109375	0.0	1	1	1	1
6107	S6	2019	9	12	11	346.9917326689479750712052918970584869384765625	142.680689119920998564339242875576019287109375	262.999689921243998469435609877109527587890625	18.271171231885499963709662551991641521453857421875	68.7618623338303933678616886027157306671142578125	2.961261269656020100882187762181274592876434326171875	392.01666476825897689195699058473110198974609375	0.0	10673.354245225500562810339033603668212890625	0.0	1	1	1	1
6108	S6	2019	9	12	12	258.798493793193983947276137769222259521484375	86.73505037173589471422019414603710174560546875	202.854359541672010891488753259181976318359375	18.015076833871599859548950917087495326995849609375	72.2252305016150017991094500757753849029541015625	3.244923077546630008072270356933586299419403076171875	281.9166673968239820169401355087757110595703125	0.0	7499.1125166416195497731678187847137451171875	0.0	1	1	1	1
6109	S6	2019	9	12	13	382.47092412312798614948405884206295013427734375	316.4786824654009933510678820312023162841796875	183.08464646772898731796885840594768524169921875	18.954242486664700351184364990331232547760009765625	64.0072725007027969468254013918340206146240234375	2.967575759779319977127443053177557885646820068359375	450.86666407684498381058801896870136260986328125	0.0	11515.08632798980033840052783489227294921875	0.0	1	1	1	1
6110	S6	2019	9	12	14	218.6933054706599932615063153207302093505859375	28.165633797221598655369234620593488216400146484375	200.2414956368210141590679995715618133544921875	18.73313041153640057245866046287119388580322265625	65.4006080163647993686026893556118011474609375	2.768085102089270055358838362735696136951446533203125	230.95000144094200322797405533492565155029296875	0.0	6356.411087016240344382822513580322265625	0.0	1	1	1	1
6111	S6	2019	9	12	15	276.24456202262399528990499675273895263671875	71.8278177867103977405349723994731903076171875	237.494597904963001155920210294425487518310546875	18.91844361384929840141921886242926120758056640625	65.6850145103608014096607803367078304290771484375	2.998847259568199863366544377640821039676666259765625	335.28333331147797480298322625458240509033203125	0.0	8078.8691063721998943947255611419677734375	0.0	1	1	1	1
6112	S6	2019	9	12	16	260.15572989754900845582596957683563232421875	242.747282364245990038398304022848606109619140625	165.611070648961998585946275852620601654052734375	18.93445375586750145657788380049169063568115234375	64.6997198217055000668551656417548656463623046875	3.398039209074660060849737419630400836467742919921875	316.25000039736397638989728875458240509033203125	0.0	8221.9197968641892657615244388580322265625	0.0	1	1	1	1
6113	S6	2019	9	12	17	206.06692379881400256635970436036586761474609375	235.629298752310006648258422501385211944580078125	139.781744940805992882815189659595489501953125	18.796892645668801691272165044210851192474365234375	62.98305087978550176330827525816857814788818359375	2.861016941440980065891608319361694157123565673828125	243.649999300638000931940041482448577880859375	0.0	6059.6032778422004412277601659297943115234375	0.0	1	1	1	1
6114	S6	2019	9	12	18	88.9982951588099950868127052672207355499267578125	197.193247068590011394917382858693599700927734375	61.27387907769939801028158399276435375213623046875	18.240833425521799426860525272786617279052734375	66.3441666285196021135561750270426273345947265625	2.345277769449679805546793431858532130718231201171875	98.81666675209970662763225845992565155029296875	0.0	2044.87565780679005911224521696567535400390625	0.0	1	1	1	1
6115	S6	2019	9	12	19	22.66281051509420052525456412695348262786865234375	49.84785362584700152410732698626816272735595703125	19.53780228570590082881608395837247371673583984375	17.40993382283389934173101210035383701324462890625	71.623179707306093177976435981690883636474609375	1.2357615889697599609320377567200921475887298583984375	6.11666668749724973253023563302122056484222412109375	0.0	189.3568541699399929711944423615932464599609375	0.0	1	1	1	0
6116	S6	2019	9	12	20	0	0	0	0	0	0	0	0.0	0	0.0	1	1	1	0
6117	S6	2019	9	12	21	0	0	0	0	0	0	0	0.0	0	0.0	1	1	1	0
6118	S6	2019	9	12	22	0	0	0	0	0	0	0	0.0	0	0.0	1	1	1	0
6119	S6	2019	9	12	23	0	0	0	0	0	0	0	0.0	0	0.0	1	1	1	0
6120	S6	2019	9	12	24	0	0	0	0	0	0	0	0.0	0	0.0	1	1	1	0
6121	S6	2019	9	13	1	0	0	0	0	0	0	0	0.0	0	0.0	1	1	1	0
6122	S6	2019	9	13	2	0	0	0	0	0	0	0	0.0	0	0.0	1	1	1	0
6123	S6	2019	9	13	3	0	0	0	0	0	0	0	0.0	0	0.0	1	1	1	0
6124	S6	2019	9	13	4	0	0	0	0	0	0	0	0.0	0	0.0	1	1	1	0
6125	S6	2019	9	13	5	0	0	0	0	0	0	0	0.0	0	0.0	1	1	1	0
6126	S6	2019	9	13	6	4.041460581259290307798437424935400485992431640625	0.33695820860395298002032404838246293365955352783203125	3.779806522889570086221056044450961053371429443359375	13.7463636831803004412222435348667204380035400390625	93.7254534634676019777543842792510986328125	0.7909090906381599506147495048935525119304656982421875	1.050000026589259949361121471156366169452667236328125	0.0	32.37796322209759836141529376618564128875732421875	0.0	1	1	1	0
6127	S6	2019	9	13	7	36.059174937671997440702398307621479034423828125	5.27200134197869996199870001873932778835296630859375	35.46943006647949658827201346866786479949951171875	13.885000093777900787017642869614064693450927734375	89.9600001017251997836865484714508056640625	1.520833330104740088728476621326990425586700439453125	34.1000000946223025266590411774814128875732421875	0.0	958.2886417706810107119963504374027252197265625	0.0	1	1	1	1
6128	S6	2019	9	13	8	180.799074547828013237449340522289276123046875	347.0266175659400005315546877682209014892578125	81.319693394479003245578496716916561126708984375	14.768208131624700030215535662136971950531005859375	86.8534682389628045484641916118562221527099609375	1.983526012887149914121209803852252662181854248046875	201.899999504287990248485584743320941925048828125	0.0	3748.2634653647701270529069006443023681640625	0.0	1	1	1	1
6129	S6	2019	9	13	9	354.5217026912799838100909255445003509521484375	636.243266601273035121266730129718780517578125	108.5619652950399967039629700593650341033935546875	15.835757544546400055196500034071505069732666015625	77.432121461810396567670977674424648284912109375	2.686060605536800149906184742576442658901214599609375	416.98333173990198474712087772786617279052734375	0.0	8372.362250089639928773976862430572509765625	0.0	1	1	1	1
6130	S6	2019	9	13	10	487.2328017950050025319796986877918243408203125	681.6309505552050040932954289019107818603515625	149.016182708739989948298898525536060333251953125	16.37374997735020087930024601519107818603515625	69.193125152587896309341886080801486968994140625	2.77218749914317985627576490514911711215972900390625	598.2999975482620129696442745625972747802734375	0.0	11837.42429514720060979016125202178955078125	0.0	1	1	1	1
6131	S6	2019	9	13	11	510.45990564981997295035398565232753753662109375	590.7083437231179914306267164647579193115234375	170.647492624917987313892808742821216583251953125	16.65633311589549947484556469134986400604248046875	67.5069997914632011770663666538894176483154296875	3.112333334883050195429632367449812591075897216796875	652.8666677574319692212156951427459716796875	0.0	12685.907275478000883595086634159088134765625	0.0	1	1	1	1
6132	S6	2019	9	13	12	596.6778716539080278380424715578556060791015625	664.0944497869589895344688557088375091552734375	186.943857544346002441670862026512622833251953125	16.929934137745899391802595346234738826751708984375	65.623355175319403542744112201035022735595703125	2.963157883306080098151369384140707552433013916015625	847.2166664898410317618981935083866119384765625	0.0	16226.585493485099505051039159297943115234375	0.0	1	1	1	1
6133	S6	2019	9	13	13	591.3386570817330039062653668224811553955078125	613.888444512678006503847427666187286376953125	210.712983781199994837152189575135707855224609375	17.3311864885233006816633860580623149871826171875	61.819321920103902812115848064422607421875	3.2050847449545099010492776869796216487884521484375	813.1666670242930194945074617862701416015625	0.0	20114.58867192260004230774939060211181640625	0.0	1	1	1	1
6134	S6	2019	9	13	14	598.3953722758459434771793894469738006591796875	783.4526083329350285566761158406734466552734375	141.12189256139498638731311075389385223388671875	17.734638472637499262418714351952075958251953125	59.31596382554749880000599659979343414306640625	3.16054216637667995115634766989387571811676025390625	793.183333675066023715771734714508056640625	0.0	19886.68721715610081446357071399688720703125	0.0	1	1	1	1
6135	S6	2019	9	13	15	499.35764526822600828381837345659732818603515625	699.0506369121029592861304990947246551513671875	143.714364077439000766389654017984867095947265625	17.620000224326901161475689150393009185791015625	58.96388048769819789640678209252655506134033203125	3.21552239505211989722965881810523569583892822265625	687.3166672885409980153781361877918243408203125	0.0	17205.93409140899893827736377716064453125	0.0	1	1	1	1
6136	S6	2019	9	13	16	385.299081617785986964008770883083343505859375	636.7530489289509887385065667331218719482421875	123.856032296009999527086620219051837921142578125	17.491495635852000845034126541577279567718505859375	59.43812355198109997900246526114642620086669921875	2.8838709662736601302412964287213981151580810546875	518.233334148922949680127203464508056640625	0.0	13024.648490548099289298988878726959228515625	0.0	1	1	1	1
6137	S6	2019	9	13	17	235.93084374120599022717215120792388916015625	506.56741372744198770305956713855266571044921875	93.9354965080649009223634493537247180938720703125	17.16638398035770052274529007263481616973876953125	59.6189264954820004049906856380403041839599609375	3.119491524447150165855191517039202153682708740234375	312.18333343664698986685834825038909912109375	0.0	7517.0783251523898798041045665740966796875	0.0	1	1	1	1
6138	S6	2019	9	13	18	101.7572553528670056266491883434355258941650390625	336.20373751322398447882733307778835296630859375	50.60611106554659954781527630984783172607421875	16.402500144640601575929395039565861225128173828125	65.2816668828327948403966729529201984405517578125	2.80388888931936008930279058404266834259033203125	124.4000002120930048477021045982837677001953125	0.0	2528.65468735496006047469563782215118408203125	0.0	1	1	1	1
6139	S6	2019	9	13	19	21.2251987118874012594460509717464447021484375	49.52717754110209824602861772291362285614013671875	18.568639844463699972720860387198626995086669921875	15.681290331194400522463183733634650707244873046875	66.5012904013355949928154586814343929290771484375	2.547096770809540000612969379290007054805755615234375	6.21666672911182960348241977044381201267242431640625	0.0	201.769800926558986020609154365956783294677734375	0.0	1	1	1	0
6140	S6	2019	9	13	20	0	0	0	0	0	0	0	0.0	0	0.0	1	1	1	0
6141	S6	2019	9	13	21	0	0	0	0	0	0	0	0.0	0	0.0	1	1	1	0
6142	S6	2019	9	13	22	0	0	0	0	0	0	0	0.0	0	0.0	1	1	1	0
6143	S6	2019	9	13	23	0	0	0	0	0	0	0	0.0	0	0.0	1	1	1	0
6144	S6	2019	9	13	24	0	0	0	0	0	0	0	0.0	0	0.0	1	1	1	0
6145	S6	2019	9	14	1	0	0	0	0	0	0	0	0.0	0	0.0	1	1	1	0
6146	S6	2019	9	14	2	0	0	0	0	0	0	0	0.0	0	0.0	1	1	1	0
6147	S6	2019	9	14	3	0	0	0	0	0	0	0	0.0	0	0.0	1	1	1	0
6148	S6	2019	9	14	4	0	0	0	0	0	0	0	0.0	0	0.0	1	1	1	0
6149	S6	2019	9	14	5	0	0	0	0	0	0	0	0.0	0	0.0	1	1	1	0
6150	S6	2019	9	14	6	12.559339501136900452138434047810733318328857421875	0.7987047343753099770680137226008810102939605712890625	12.9147122183511005033551555243320763111114501953125	11.7651162036629006735211078193970024585723876953125	85.2000006742255067138103186152875423431396484375	1.3093023147693900742893902133801020681858062744140625	2.4666666809934998383369020302779972553253173828125	0.0	94.13844657440989749375148676335811614990234375	0.0	1	1	1	0
6151	S6	2019	9	14	7	64.083386256959698812352144159376621246337890625	159.64903371731401193756028078496456146240234375	40.7788609292772008529937011189758777618408203125	11.8499999761581005230937080341391265392303466796875	84.984999720255501642895978875458240509033203125	1.7208333301047400443195556363207288086414337158203125	51.03333362688619700975323212333023548126220703125	0.0	1124.949756637209929976961575448513031005859375	0.0	1	1	1	1
6152	S6	2019	9	14	8	202.930952156914003126075840555131435394287109375	483.69971118503099205554462969303131103515625	77.4096150398253968205608543939888477325439453125	13.200833328564900881474386551417410373687744140625	80.393333053588804659739253111183643341064453125	2.499722220997009802800903344177640974521636962890625	225.6333341201140001430758275091648101806640625	0.0	4913.535888989759769174270331859588623046875	0.0	1	1	1	1
6153	S6	2019	9	14	9	336.213672423629986951709724962711334228515625	552.9930054900349887248012237250804901123046875	124.388138288861995306433527730405330657958984375	14.602247232801399690060861757956445217132568359375	75.23230372653910080771311186254024505615234375	2.7455056190825501971630728803575038909912109375	401.1500018338359723202302120625972747802734375	0.0	11160.520190000499496818520128726959228515625	0.0	1	1	1	1
6154	S6	2019	9	14	10	419.29521841290301154003827832639217376708984375	430.07295184436799218019586987793445587158203125	209.725636931671004958843695931136608123779296875	16.061494216151601222009048797190189361572265625	64.95402274734669845202006399631500244140625	2.812931033643490064122261173906736075878143310546875	491.1333367228500037526828236877918243408203125	0.0	13472.7627933024996309541165828704833984375	0.0	1	1	1	1
6155	S6	2019	9	14	11	447.05679042610501028320868499577045440673828125	368.76924239580802122873137705028057098388671875	233.074259363961999724779161624610424041748046875	16.3688622777332994928656262345612049102783203125	64.1760476163760955614634440280497074127197265625	2.538622752902750079329052823595702648162841796875	576.7333328723899512624484486877918243408203125	0.0	15041.4383550484999432228505611419677734375	0.0	1	1	1	1
6156	S6	2019	9	14	12	582.47000352835902958759106695652008056640625	631.965880280152987324981950223445892333984375	194.872279649899013520553125999867916107177734375	16.76728404009779893613085732795298099517822265625	61.67469141218389694358847918920218944549560546875	3.104012342698780013705572855542413890361785888671875	798.5166703661279825610108673572540283203125	0.0	20379.2523473500987165607511997222900390625	0.0	1	1	1	1
6157	S6	2019	9	14	13	570.9420280568409680199692957103252410888671875	655.8542926560570549554540775716304779052734375	166.7896433184220086332061327993869781494140625	17.164516163711301288685717736370861530303955078125	58.26217002533039845957318902947008609771728515625	2.9651026368315900327843337436206638813018798828125	772.333334634701031973236240446567535400390625	0.0	19875.71928401779950945638120174407958984375	0.0	1	1	1	1
6158	S6	2019	9	14	14	490.954528190635983264655806124210357666015625	630.1371696188670057381386868655681610107421875	124.703807296039002494580927304923534393310546875	17.295950120111800885069897049106657505035400390625	58.0302180590286980077507905662059783935546875	2.519937693329980188394756623893044888973236083984375	653.0333333959180208694306202232837677001953125	0.0	16485.86079676940062199719250202178955078125	0.0	1	1	1	1
6159	S6	2019	9	14	15	468.0143225242539983810274861752986907958984375	699.2189899864280278052319772541522979736328125	120.44340868307500613809679634869098663330078125	17.53293768093210047709362697787582874298095703125	52.842729992965502106017083860933780670166015625	2.7311572635916601115013691014610230922698974609375	689.7166664401689786245697177946567535400390625	0.0	17230.3242226440997910685837268829345703125	0.0	1	1	1	1
6160	S6	2019	9	14	16	380.3912521792129837194806896150112152099609375	699.6990992908739599442924372851848602294921875	99.5937636254538034563665860332548618316650390625	17.737183208196899641961863380856812000274658203125	51.920281928693697182097821496427059173583984375	2.725070414660680118146274253376759588718414306640625	542.1666687975330205517821013927459716796875	0.0	13488.047324617700724047608673572540283203125	0.0	1	1	1	1
6161	S6	2019	9	14	17	196.876291875089009408839046955108642578125	391.91627900369297776705934666097164154052734375	84.58607830090460311112110503017902374267578125	17.256179691700399558840217650867998600006103515625	57.34157306156799904783838428556919097900390625	2.485393261641589912613881097058765590190887451171875	251.3999993602429867678438313305377960205078125	0.0	6174.576547245180336176417768001556396484375	0.0	1	1	1	1
6162	S6	2019	9	14	18	82.9366967413159983379955519922077655792236328125	179.3452879365939907074789516627788543701171875	56.4234985510507982553463079966604709625244140625	16.571111080381598412714083679020404815673828125	60.582222090827002602964057587087154388427734375	1.992499995728330031141695144469849765300750732421875	95.38333361657970499436487443745136260986328125	0.0	2132.88449794052985453163273632526397705078125	0.0	1	1	1	1
6163	S6	2019	9	14	19	12.3305904115948994359541757148690521717071533203125	0.5529889223121460251064718249836005270481109619140625	12.760046949840699426204082556068897247314453125	15.6952381134033007725747665972448885440826416015625	63.602857099260603490620269440114498138427734375	1.675238100403829921702936189831234514713287353515625	2.4500000115949500667511529172770678997039794921875	0.0	96.6565131753061024255657684989273548126220703125	0.0	1	1	1	1
6164	S6	2019	9	14	20	0	0	0	0	0	0	0	0.0	0	0.0	1	1	1	0
6165	S6	2019	9	14	21	0	0	0	0	0	0	0	0.0	0	0.0	1	1	1	0
6166	S6	2019	9	14	22	0	0	0	0	0	0	0	0.0	0	0.0	1	1	1	0
6167	S6	2019	9	14	23	0	0	0	0	0	0	0	0.0	0	0.0	1	1	1	0
6168	S6	2019	9	14	24	0	0	0	0	0	0	0	0.0	0	0.0	1	1	1	0
6169	S6	2019	9	15	1	0	0	0	0	0	0	0	0.0	0	0.0	1	1	1	0
6170	S6	2019	9	15	2	0	0	0	0	0	0	0	0.0	0	0.0	1	1	1	0
6171	S6	2019	9	15	3	0	0	0	0	0	0	0	0.0	0	0.0	1	1	1	0
6172	S6	2019	9	15	4	0	0	0	0	0	0	0	0.0	0	0.0	1	1	1	0
6173	S6	2019	9	15	5	0	0	0	0	0	0	0	0.0	0	0.0	1	1	1	0
6174	S6	2019	9	15	6	4.49785867759158985990097789908759295940399169921875	0.79452598449729705532007528745452873408794403076171875	4.65061464196158969031102969893254339694976806640625	15.01428576878129916849502478726208209991455078125	75.666667756580096693141967989504337310791015625	3.792857153075079867932117849704809486865997314453125	0.95000001989926097234473445496405474841594696044921875	0.0	28.6961783383352013743206043727695941925048828125	0.0	1	1	1	0
6175	S6	2019	9	15	7	23.242975375387398884186040959320962429046630859375	0.87256440362996501303172180996625684201717376708984375	23.345009446144100451192571199499070644378662109375	15.3283333407508006729358385200612246990203857421875	76.0972223069932027783579542301595211029052734375	3.683333323068080034090598928742110729217529296875	23.616666610663099135081210988573729991912841796875	0.0	663.644731044769969230401329696178436279296875	0.0	1	1	1	1
6176	S6	2019	9	15	8	55.81197343402430277592429774813354015350341796875	0.5807841725647440167534796273685060441493988037109375	55.75252166324190028490193071775138378143310546875	15.5955558247036005781183121143840253353118896484375	78.5400000254312971037506940774619579315185546875	3.606666669580670170347502789809368550777435302734375	53.08333318680519852250654366798698902130126953125	0.0	1491.606946289540019279229454696178436279296875	0.0	1	1	1	1
6177	S6	2019	9	15	9	83.8747388839720997566473670303821563720703125	0.6481493823230259909706774124060757458209991455078125	83.6686561584472059394101961515843868255615234375	16.065000322129900922618617187254130840301513671875	81.3227777693006004255948937498033046722412109375	3.6102777784069299826796850538812577724456787109375	76.9833335652946999516643700189888477325439453125	0.0	2231.60202304521999394637532532215118408203125	0.0	1	1	1	1
6178	S6	2019	9	15	10	89.4714154031540971345748403109610080718994140625	0.7285996120836990552760425998712889850139617919921875	89.23445857895740118692629039287567138671875	16.287777805328300217979631270281970500946044921875	85.1261112636990020519078825600445270538330078125	4.47000000079471959679722203873097896575927734375	86.1666663239397934148655622266232967376708984375	0.0	2528.65835453072986638289876282215118408203125	0.0	1	1	1	1
6179	S6	2019	9	15	11	192.298323369552008443861268460750579833984375	15.448395464440000779404726927168667316436767578125	181.700025516353008470105123706161975860595703125	15.7069400823453992899203512934036552906036376953125	86.51829673213529758868389762938022613525390625	4.01514194929260970212681058910675346851348876953125	177.6333341685430013967561535537242889404296875	0.0	5081.066460410749641596339643001556396484375	0.0	1	1	1	1
6180	S6	2019	9	15	12	238.19044223361498779922840185463428497314453125	1.9606900456464899651365385579993017017841339111328125	236.257049136690994828313705511391162872314453125	15.383888896306299187699551112018525600433349609375	75.8238889906140940411205519922077655792236328125	2.915555551979270187956672089057974517345428466796875	242.6666654646400047568022273480892181396484375	0.0	6856.2448441982096483116038143634796142578125	0.0	1	1	1	1
6181	S6	2019	9	15	13	358.35895091243099841449293307960033416748046875	99.5849761290273960412378073669970035552978515625	293.94650393116199893484008498489856719970703125	16.443440195422798666413655155338346958160400390625	70.2798834264103930991041124798357486724853515625	3.248979590116360061102795953047461807727813720703125	406.5333329141139984130859375	0.0	10975.88344315679933060891926288604736328125	0.0	1	1	1	1
6182	S6	2019	9	15	14	330.897718928076983502251096069812774658203125	115.322778858286000058797071687877178192138671875	262.47462935881100065671489574015140533447265625	16.631818164478598731648162356577813625335693359375	64.107670307159395406415569595992565155029296875	3.5758522694761101234917077817954123020172119140625	388.38333698610398414530209265649318695068359375	0.0	10342.285034060399993904866278171539306640625	0.0	1	1	1	1
6183	S6	2019	9	15	15	153.655050468443988620492746122181415557861328125	0.970868700659937022834355957456864416599273681640625	152.85478119320299583705491386353969573974609375	16.467777654859698799327816232107579708099365234375	63.372777578565802514276583679020404815673828125	3.741666670971440122883677759091369807720184326171875	140.13333395123498803513939492404460906982421875	0.0	4074.75694914658015477471053600311279296875	0.0	1	1	1	1
6184	S6	2019	9	15	16	103.4111748801330037395018734969198703765869140625	0.51014584211839497651652663989807479083538055419921875	103.3239478641080069110103067941963672637939453125	16.1866665999094010430781054310500621795654296875	60.30388889312740019477132591418921947479248046875	4.3819444374905600625424995087087154388427734375	86.01666707545490453412639908492565155029296875	0.0	2553.3544257283201659447513520717620849609375	0.0	1	1	1	1
6185	S6	2019	9	15	17	48.59200785954789836296185967512428760528564453125	0.434562579294045014943748128644074313342571258544921875	48.63341413074069663480258896015584468841552734375	15.289444499545599143175422796048223972320556640625	60.8311110390556990523691638372838497161865234375	4.08944444457689026961588751873932778835296630859375	41.30000006407500023897227947600185871124267578125	0.0	1259.32069843014005527948029339313507080078125	0.0	1	1	1	1
6186	S6	2019	9	15	18	36.59492823282869977674636174924671649932861328125	2.934529118984929851876586326397955417633056640625	36.66221144464280001784572959877550601959228515625	14.8044444190130999317034365958534181118011474609375	62.835555542839898635065765120089054107666015625	3.980277783340870012551704348879866302013397216796875	31.63333339616649908521139877848327159881591796875	0.0	905.5192250758419731937465257942676544189453125	0.0	1	1	1	1
6187	S6	2019	9	15	19	8.79389145446545938966664834879338741302490234375	0.4472198471878510162014208617620170116424560546875	8.8794072960362200319650582969188690185546875	14.51090913252389924537055776454508304595947265625	66.7339396158854043505925801582634449005126953125	3.41454545855521995889603203977458178997039794921875	2.15000005361314006080419858335517346858978271484375	0.0	70.12257007105910133759607560932636260986328125	0.0	1	1	1	0
6188	S6	2019	9	15	20	0	0	0	0	0	0	0	0.0	0	0.0	1	1	1	0
6189	S6	2019	9	15	21	0	0	0	0	0	0	0	0.0	0	0.0	1	1	1	0
6190	S6	2019	9	15	22	0	0	0	0	0	0	0	0.0	0	0.0	1	1	1	0
6191	S6	2019	9	15	23	0	0	0	0	0	0	0	0.0	0	0.0	1	1	1	0
6192	S6	2019	9	15	24	0	0	0	0	0	0	0	0.0	0	0.0	1	1	1	0
6193	S6	2019	9	16	1	0	0	0	0	0	0	0	0.0	0	0.0	1	1	1	0
6194	S6	2019	9	16	2	0	0	0	0	0	0	0	0.0	0	0.0	1	1	1	0
6195	S6	2019	9	16	3	0	0	0	0	0	0	0	0.0	0	0.0	1	1	1	0
6196	S6	2019	9	16	4	0	0	0	0	0	0	0	0.0	0	0.0	1	1	1	0
6197	S6	2019	9	16	5	0	0	0	0	0	0	0	0.0	0	0.0	1	1	1	0
6198	S6	2019	9	16	6	10.3594768150993008504201497999019920825958251953125	2.060096583072689835347546249977312982082366943359375	10.59056492128230075877581839449703693389892578125	12.850724455239099341952169197611510753631591796875	70.46376855822569496012874878942966461181640625	3.024637664573779805010644849971868097782135009765625	2.7333333758482201147899104398675262928009033203125	0.0	81.4896568112697963215396157465875148773193359375	0.0	1	1	1	0
6199	S6	2019	9	16	7	32.710819906658599620641325600445270538330078125	4.2959354758262602302920640795491635799407958984375	32.685461150275301633882918395102024078369140625	12.956111028459300626991534954868257045745849609375	70.827222654554503833423950709402561187744140625	3.0544444445106702090697581297717988491058349609375	30.716666889687299857314428663812577724456787109375	0.0	914.9832689513769992117886431515216827392578125	0.0	1	1	1	1
6200	S6	2019	9	16	8	169.992836763599001415059319697320461273193359375	247.407739988276006215528468601405620574951171875	102.509277790037003796896897256374359130859375	13.42339826759179999271509586833417415618896484375	70.016991745462604512795223854482173919677734375	3.2401114262246100139464033418335020542144775390625	194.350000346699999909105827100574970245361328125	0.0	4773.4107837080800891271792352199554443359375	0.0	1	1	1	1
6201	S6	2019	9	16	9	323.92179373705397438243380747735500335693359375	542.4415524796030467769014649093151092529296875	118.7805111360130041475713369436562061309814453125	14.152449618842400269613790442235767841339111328125	67.3829972104997949600146966986358165740966796875	3.41959654546263980279263705597259104251861572265625	387.5333304206529874136322177946567535400390625	0.0	10825.9774744509995798580348491668701171875	0.0	1	1	1	1
6202	S6	2019	9	16	10	461.74271238444401888045831583440303802490234375	665.468268597230007799225859344005584716796875	140.265343294115012895417748950421810150146484375	14.471847391547999706062910263426601886749267578125	64.2680354300131995159972575493156909942626953125	3.560997059093539807150818887748755514621734619140625	571.7833325266830115651828236877918243408203125	0.0	15492.100234826399173471145331859588623046875	0.0	1	1	1	1
6203	S6	2019	9	16	11	511.01688149889997703212429769337177276611328125	566.9974565078620116764795966446399688720703125	190.82663280559000895664212293922901153564453125	14.74999997900710013709613122045993804931640625	61.480503094271199415743467397987842559814453125	3.66981131681855998749597347341477870941162109375	682.783332218725036000250838696956634521484375	0.0	17914.96928731599837192334234714508056640625	0.0	1	1	1	1
6204	S6	2019	9	16	12	565.183857408934045452042482793331146240234375	568.7201014727660322023439221084117889404296875	222.0254038888230070369900204241275787353515625	15.16819787109690054194288677535951137542724609375	57.57243835125709807698513031937181949615478515625	3.4187279139306401276598990079946815967559814453125	712.416664014260049953009001910686492919921875	0.0	18603.71675093959856894798576831817626953125	0.0	1	1	1	1
6205	S6	2019	9	16	13	545.1949083328239566981210373342037200927734375	486.7431552514429995426326058804988861083984375	251.61060523986799353224341757595539093017578125	15.4593750149011004424437487614341080188751220703125	56.052499842643698002575547434389591217041015625	3.577499988488849869128216596436686813831329345703125	655.633334318795959916315041482448577880859375	0.0	17268.52021614709883579052984714508056640625	0.0	1	1	1	1
6206	S6	2019	9	16	14	561.228748183651987346820533275604248046875	663.320228888866040506400167942047119140625	184.598538731953993874412844888865947723388671875	15.61355425938059937607249594293534755706787109375	54.30963845999840344802578329108655452728271484375	3.465060242777119992041434670682065188884735107421875	719.266666223604943297686986625194549560546875	0.0	18235.99528272940005990676581859588623046875	0.0	1	1	1	1
6207	S6	2019	9	16	15	469.95566543267699444186291657388210296630859375	684.0795822202629778985283337533473968505859375	136.915698415683010580323752947151660919189453125	15.797376026565000728396626072935760021209716796875	55.1918367213479967858802410773932933807373046875	3.191836735597500140926285894238390028476715087890625	698.8666668534280006497283466160297393798828125	0.0	17543.68551969519830890931189060211181640625	0.0	1	1	1	1
6208	S6	2019	9	16	16	366.86486717824101333462749607861042022705078125	670.686410025263967327191494405269622802734375	108.26531408074100681915297172963619232177734375	15.9382020971748001869627842097543179988861083984375	55.75674167375880330155268893577158451080322265625	3.21095505407016990062629702151753008365631103515625	534.6333310008039916283451020717620849609375	0.0	13314.39875761660005082376301288604736328125	0.0	1	1	1	1
6209	S6	2019	9	16	17	203.925095563494011230432079173624515533447265625	468.476963363546019536443054676055908203125	73.3797134633835952399749658070504665374755859375	15.738547426362199388449880643747746944427490234375	56.5134080215539000846547423861920833587646484375	3.024022346934790217432009740150533616542816162109375	272.49999983857100005479878745973110198974609375	0.0	6620.643581449980047182179987430572509765625	0.0	1	1	1	1
6210	S6	2019	9	16	18	72.1871053324804989870244753547012805938720703125	219.36909094982598844580934382975101470947265625	45.0382040712567999207749380730092525482177734375	14.9694444762334999410313685075379908084869384765625	65.0427776548597051942124380730092525482177734375	2.51416666739515992645692676887847483158111572265625	91.2166671206554013906497857533395290374755859375	0.0	1884.45115300515999479102902114391326904296875	0.0	1	1	1	1
6211	S6	2019	9	16	19	14.2631164860521000292692406219430267810821533203125	4.551083506681980139774168492294847965240478515625	14.36036950706409953681941260583698749542236328125	14.3538460772261000641947248368524014949798583984375	66.18376016209259660172392614185810089111328125	2.382051278128579863135882987990044057369232177734375	2.633333373038710067959300431539304554462432861328125	0.0	116.0489216990140022289779153652489185333251953125	0.0	1	1	1	0
6212	S6	2019	9	16	20	0	0	0	0	0	0	0	0.0	0	0.0	1	1	1	0
6213	S6	2019	9	16	21	0	0	0	0	0	0	0	0.0	0	0.0	1	1	1	0
6214	S6	2019	9	16	22	0	0	0	0	0	0	0	0.0	0	0.0	1	1	1	0
6215	S6	2019	9	16	23	0	0	0	0	0	0	0	0.0	0	0.0	1	1	1	0
6216	S6	2019	9	16	24	0	0	0	0	0	0	0	0.0	0	0.0	1	1	1	0
6217	S6	2019	9	17	1	0	0	0	0	0	0	0	0.0	0	0.0	1	1	1	0
6218	S6	2019	9	17	2	0	0	0	0	0	0	0	0.0	0	0.0	1	1	1	0
6219	S6	2019	9	17	3	0	0	0	0	0	0	0	0.0	0	0.0	1	1	1	0
6220	S6	2019	9	17	4	0	0	0	0	0	0	0	0.0	0	0.0	1	1	1	0
6221	S6	2019	9	17	5	0	0	0	0	0	0	0	0.0	0	0.0	1	1	1	0
6222	S6	2019	9	17	6	0	0	0	0	0	0	1.5166667134811400163840744426124729216098785400390625	0.0	57.4195465383429990424701827578246593475341796875	0.0	1	1	1	0
6223	S6	2019	9	17	7	37.71999240998290048310082056559622287750244140625	8.9052566988333499153895900235511362552642822265625	36.740082196266399705564253963530063629150390625	11.2119355078666007585752595332451164722442626953125	77.658386944186304390314035117626190185546875	3.581290325810829955344161135144531726837158203125	32.98333347775039925409146235324442386627197265625	0.0	930.4011881351469810397247783839702606201171875	0.0	1	1	1	1
6224	S6	2019	9	17	8	124.0003833940539976765649043954908847808837890625	101.1181395136070051421484095044434070587158203125	95.984865307454100502582150511443614959716796875	11.4409495730073995645170725765638053417205810546875	74.2388728789830025789342471398413181304931640625	3.55637981718300988376313398475758731365203857421875	116.4666666959719947271878481842577457427978515625	0.0	3225.39508789776982666808180510997772216796875	0.0	1	1	1	1
6225	S6	2019	9	17	9	256.429684130893974725040607154369354248046875	243.871590671206007527871406637132167816162109375	166.29396281011401015348383225500583648681640625	12.098575548568600623866586829535663127899169921875	67.8504271548018067505836370401084423065185546875	3.76581195514765010301516667823307216167449951171875	313.1666675210000221341033466160297393798828125	0.0	8901.095392306649955571629106998443603515625	0.0	1	1	1	1
6226	S6	2019	9	17	10	340.15199109961400836255052126944065093994140625	204.024464394029990899070980958640575408935546875	247.644882354228997201062156818807125091552734375	11.3013289473776996629794666660018265247344970703125	71.894019497589397360570728778839111328125	3.94152823912344008050467891735024750232696533203125	294.1500001586970256539643742144107818603515625	0.0	8513.001897931100756977684795856475830078125	0.0	1	1	1	1
6227	S6	2019	9	17	11	329.87900400330198635856504552066326141357421875	234.522968372664990965859033167362213134765625	202.7629168614899981548660434782505035400390625	10.4240143427283999955079707433469593524932861328125	78.1159011517311938632701640017330646514892578125	3.4992831579032301902998369769193232059478759765625	319.85000018030399360213777981698513031005859375	0.0	9023.1326508025304065085947513580322265625	0.0	1	1	1	1
6228	S6	2019	9	17	12	460.430506788304001020151190459728240966796875	469.3563630560560113735846243798732757568359375	181.5127415190110014009405858814716339111328125	9.9860534314231994557076177443377673625946044921875	86.785163539807200550058041699230670928955078125	3.741246293489580043711839607567526400089263916015625	638.7999991575869671578402630984783172607421875	0.0	16970.53915560240056947804987430572509765625	0.0	1	1	1	1
6229	S6	2019	9	17	13	492.56280947598497732542455196380615234375	322.164818197308022718061693012714385986328125	295.14082257819899268724839203059673309326171875	12.1884848912555998623474806663580238819122314453125	64.9054543581874980873180902563035488128662109375	4.05303029110937007573056689579971134662628173828125	624.7999973595150322580593638122081756591796875	0.0	16198.34391673400023137219250202178955078125	0.0	1	1	1	1
6230	S6	2019	9	17	14	377.61163756346701347865746356546878814697265625	273.7873750788639881648123264312744140625	223.5271687083389906547381542623043060302734375	12.722419942401000270137956249527633190155029296875	63.3120998640500971532674157060682773590087890625	3.712455519153550209665581860463134944438934326171875	476.900000125169981401995755732059478759765625	0.0	12509.770513574199867434799671173095703125	0.0	1	1	1	1
6231	S6	2019	9	17	15	250.70966414133698663135874085128307342529296875	183.64886221874900229522609151899814605712890625	154.712671508788986329818726517260074615478515625	11.5057432490426005955441723926924169063568115234375	69.9840002695718936820412636734545230865478515625	3.48614864474212016176579709281213581562042236328125	216.316667051675011634870315901935100555419921875	0.0	5930.1992723097400812548585236072540283203125	0.0	1	1	1	1
6232	S6	2019	9	17	16	294.55848860100098818293190561234951019287109375	409.37457109493897178253973834216594696044921875	138.8112453176009921662625856697559356689453125	12.0250745858719003678061199025250971317291259765625	67.7137309401781948281495715491473674774169921875	3.240597013484180166642545373179018497467041015625	452.73333092530498333871946670114994049072265625	0.0	11544.7397222120998776517808437347412109375	0.0	1	1	1	1
6233	S6	2019	9	17	17	266.31931226299997206297121010720729827880859375	470.3176815489870250530657358467578887939453125	137.27512342617700369373778812587261199951171875	13.4094707467760994035188559792004525661468505859375	58.13454035596920022044287179596722126007080078125	2.94178272696589981904935484635643661022186279296875	342.550000051656979849212802946567535400390625	0.0	8476.478054126089773490093648433685302734375	0.0	1	1	1	1
6234	S6	2019	9	17	18	93.730751785577496093537774868309497833251953125	148.706268761086988661190844140946865081787109375	71.4173063988778977773108636029064655303955078125	12.9352941849651994488112904946319758892059326171875	60.26980406817259705576361739076673984527587890625	2.773333328494830052335373693495057523250579833984375	135.483332878598986326323938556015491485595703125	0.0	3442.1135134994901818572543561458587646484375	0.0	1	1	1	1
6235	S6	2019	9	17	19	21.7025650376858010304204071871936321258544921875	11.3105263144749006443134931032545864582061767578125	21.718626996745200585792190395295619964599609375	12.5467391636060003889951985911466181278228759765625	58.89130414050549688909086398780345916748046875	1.6554347807946399040446294748107902705669403076171875	3.316666570026459925912831749883480370044708251953125	0.0	104.6968780457970069619477726519107818603515625	0.0	1	1	1	0
6236	S6	2019	9	17	20	0	0	0	0	0	0	0	0.0	0	0.0	1	1	1	0
6237	S6	2019	9	17	21	0	0	0	0	0	0	0	0.0	0	0.0	1	1	1	0
6238	S6	2019	9	17	22	0	0	0	0	0	0	0	0.0	0	0.0	1	1	1	0
6239	S6	2019	9	17	23	0	0	0	0	0	0	0	0.0	0	0.0	1	1	1	0
6240	S6	2019	9	17	24	0	0	0	0	0	0	0	0.0	0	0.0	1	1	1	0
6241	S6	2019	9	18	1	0	0	0	0	0	0	0	0.0	0	0.0	1	1	1	0
6242	S6	2019	9	18	2	0	0	0	0	0	0	0	0.0	0	0.0	1	1	1	0
6243	S6	2019	9	18	3	0	0	0	0	0	0	0	0.0	0	0.0	1	1	1	0
6244	S6	2019	9	18	4	0	0	0	0	0	0	0	0.0	0	0.0	1	1	1	0
6245	S6	2019	9	18	5	0	0	0	0	0	0	0	0.0	0	0.0	1	1	1	0
6246	S6	2019	9	18	6	8.29627323150634055082264239899814128875732421875	0.4816181957721710205078125	8.67857646942137961332264239899814128875732421875	11.1999998092650994152563725947402417659759521484375	81.699996948242102234871708787977695465087890625	3	1.0500000227087500359601790478336624801158905029296875	0.0	48.7455362454056029264393146149814128875732421875	0.0	1	1	1	0
6247	S6	2019	9	18	7	56.38538370461299820135536720044910907745361328125	197.237668812446003130389726720750331878662109375	31.375467061996399564804960391484200954437255859375	11.4781609348867004172234373982064425945281982421875	81.1456898217912936388529487885534763336181640625	1.9761494265376799983613409494864754378795623779296875	41.60000005116049948128420510329306125640869140625	0.0	873.01367272933202912099659442901611328125	0.0	1	1	1	0
6248	S6	2019	9	18	8	183.293568674722990863301674835383892059326171875	466.95373073154001986040384508669376373291015625	66.7106206787957063397698220796883106231689453125	12.4508333126702996906942644272930920124053955078125	78.0449999491373063165156054310500621795654296875	2.12916666501098017505455572973005473613739013671875	212.550001343090997352192061953246593475341796875	0.0	4328.6869019269897762569598853588104248046875	0.0	1	1	1	1
6249	S6	2019	9	18	9	326.1720851474329947450314648449420928955078125	621.939359876844036989496089518070220947265625	89.618839857313304264607722871005535125732421875	13.24999997615810087836507591418921947479248046875	73.8083332061766981269101961515843868255615234375	2.300833329889500067366725488682277500629425048828125	420.6833347678190193619229830801486968994140625	0.0	11651.31366650259951711632311344146728515625	0.0	1	1	1	1
6250	S6	2019	9	18	10	443.80919057459897203443688340485095977783203125	632.364928146080956139485351741313934326171875	134.294619928839011890886467881500720977783203125	13.764110383811900106820758082903921604156494140625	71.0012269517394969398083048872649669647216796875	2.39539877238448983831631267094053328037261962890625	523.966667304435986807220615446567535400390625	0.0	14032.23329981159986346028745174407958984375	0.0	1	1	1	1
6251	S6	2019	9	18	11	539.0077759140849593677558004856109619140625	729.1002526791700120156747289001941680908203125	125.7615023566250016529011190868914127349853515625	14.3342939893519005778443897725082933902740478515625	67.5769453680824057073550648055970668792724609375	2.265129680162889957983907152083702385425567626953125	743.5333316524820475024171173572540283203125	0.0	19615.94899892800094676204025745391845703125	0.0	1	1	1	1
6252	S6	2019	9	18	12	627.9955067510189792301389388740062713623046875	686.08590738877001058426685631275177001953125	210.23758686452600841221283189952373504638671875	15.060579753267500535685030627064406871795654296875	64.5715943820234059558060835115611553192138671875	2.206376802834909778283645209739916026592254638671875	819.333331535259048905572853982448577880859375	0.0	20852.3143847782994271256029605865478515625	0.0	1	1	1	1
6253	S6	2019	9	18	13	388.459843953449990294757299125194549560546875	255.918640096139000661423779092729091644287109375	231.15259607488400206420919857919216156005859375	14.33424241904049978302282397635281085968017578125	65.974848683675105576185160316526889801025390625	2.326969684344339928117051385925151407718658447265625	419.83333329359601293617743067443370819091796875	0.0	11113.4542922178006847389042377471923828125	0.0	1	1	1	1
6254	S6	2019	9	18	14	405.23753352471902644538204185664653778076171875	351.88133589148702640159172005951404571533203125	201.09201139037298844414181075990200042724609375	14.405555627499399662383439135737717151641845703125	64.7897661443341945641805068589746952056884765625	2.340058476952779908941693065571598708629608154296875	549.816667040189031467889435589313507080078125	0.0	14264.7023330131996772252023220062255859375	0.0	1	1	1	1
6255	S6	2019	9	18	15	257.5466736433739924905239604413509368896484375	263.0437034463869849787442944943904876708984375	126.3612993891359934650608920492231845855712890625	14.0278442919611006090008231694810092449188232421875	63.2074848791796028990574995987117290496826171875	2.081437124285149931068872319883666932582855224609375	327.9833337912959905224852263927459716796875	0.0	8755.78687687714045750908553600311279296875	0.0	1	1	1	1
6256	S6	2019	9	18	16	160.598853056458011678842012770473957061767578125	162.6067194481560136409825645387172698974609375	94.6097332746133048431147472001612186431884765625	13.8543103371543008250910133938305079936981201171875	61.77068970121180058185927919112145900726318359375	1.4451149404048899693719931747182272374629974365234375	214.06666648884601045210729353129863739013671875	0.0	5542.9088483254099628538824617862701416015625	0.0	1	1	1	1
6257	S6	2019	9	18	17	146.4147193156489947796217165887355804443359375	257.2689084408140161031042225658893585205078125	86.4579247058276934012610581703484058380126953125	14.0208450800934993907276293612085282802581787109375	60.5746478765782967457198537886142730712890625	1.153802817136460046043566762818954885005950927734375	198.866667039691009222224238328635692596435546875	0.0	4837.053411205610245815478265285491943359375	0.0	1	1	1	1
6258	S6	2019	9	18	18	55.45738627115880348128484911285340785980224609375	136.045402363324996031224145554006099700927734375	40.4523059844970021003973670303821563720703125	13.5383333524068003583806785172782838344573974609375	61.71416680018099754079230478964745998382568359375	0.704166668819055985295563004910945892333984375	61.65000007798249725965433754026889801025390625	0.0	1339.2129439860500497161410748958587646484375	0.0	1	1	1	1
6259	S6	2019	9	18	19	13.27221983387349979466307559050619602203369140625	9.0107284310672906002537274616770446300506591796875	13.3390070313498991794176617986522614955902099609375	12.7571429070971991137639633961953222751617431640625	65.7261905670166015625	0.560714290610381027590847224928438663482666015625	1.5833333658520098996547176284366287291049957275390625	0.0	87.419964846534099933705874718725681304931640625	0.0	1	1	1	0
6260	S6	2019	9	18	20	0	0	0	0	0	0	0	0.0	0	0.0	1	1	1	0
6261	S6	2019	9	18	21	0	0	0	0	0	0	0	0.0	0	0.0	1	1	1	0
6262	S6	2019	9	18	22	0	0	0	0	0	0	0	0.0	0	0.0	1	1	1	0
6263	S6	2019	9	18	23	0	0	0	0	0	0	0	0.0	0	0.0	1	1	1	0
6264	S6	2019	9	18	24	0	0	0	0	0	0	0	0.0	0	0.0	1	1	1	0
6265	S6	2019	9	19	1	0	0	0	0	0	0	0	0.0	0	0.0	1	1	1	0
6266	S6	2019	9	19	2	0	0	0	0	0	0	0	0.0	0	0.0	1	1	1	0
6267	S6	2019	9	19	3	0	0	0	0	0	0	0	0.0	0	0.0	1	1	1	0
6268	S6	2019	9	19	4	0	0	0	0	0	0	0	0.0	0	0.0	1	1	1	0
6269	S6	2019	9	19	5	0	0	0	0	0	0	0	0.0	0	0.0	1	1	1	0
6270	S6	2019	9	19	6	7.42205119132994983743856209912337362766265869140625	0.3952619981239819946239322234760038554668426513671875	7.6481451427235302986673559644259512424468994140625	8.420588016510009765625	93.264706779928701507742516696453094482421875	0.55294117682120302870174555209814570844173431396484375	1.3333333520373999991903701811679638922214508056640625	0.0	47.87783812110620118573933723382651805877685546875	0.0	1	1	1	0
6271	S6	2019	9	19	7	62.798113290157999699658830650150775909423828125	181.474352267533987514980253763496875762939453125	37.09137936011369873767762328498065471649169921875	9.055586596440999613832900649867951869964599609375	92.6740227811163066462540882639586925506591796875	0.63435754621162099287090541110956110060214996337890625	55.0500001758336026114193373359739780426025390625	0.0	1064.879690110680030556977726519107818603515625	0.0	1	1	1	0
6272	S6	2019	9	19	8	178.22318439961799185766722075641155242919921875	392.469704503135972117888741195201873779296875	80.044395085496802266789018176496028900146484375	10.82952655324690027782708057202398777008056640625	87.3164345998950039984265458770096302032470703125	1.0214484685144700204517675956594757735729217529296875	190.899999563892009746268740855157375335693359375	0.0	4341.85051321982973604463040828704833984375	0.0	1	1	1	1
6273	S6	2019	9	19	9	329.39773764157399682517279870808124542236328125	647.925581266094013699330389499664306640625	81.311100155281593515610438771545886993408203125	12.23798880497169960790415643714368343353271484375	83.844692528580793577930307947099208831787109375	1.570949719604830097097192265209741890430450439453125	433.650001386801022817962802946567535400390625	0.0	12046.732954184199115843512117862701416015625	0.0	1	1	1	1
6274	S6	2019	9	19	10	446.445007663302021683193743228912353515625	684.484363132052976652630604803562164306640625	111.6335539287990030743458191864192485809326171875	14.4372222158643008782519245869480073451995849609375	78.2266666412352975612520822323858737945556640625	1.3416666673289399103197183649172075092792510986328125	588.54999790588999530882574617862701416015625	0.0	15878.886485099699712009169161319732666015625	0.0	1	1	1	1
6275	S6	2019	9	19	11	517.48156405440795424510724842548370361328125	573.291144116825989840435795485973358154296875	193.925011653738010863889940083026885986328125	15.8623229586030998206069853040389716625213623046875	71.762606266875394567250623367726802825927734375	1.2779036831247900796171279580448754131793975830078125	646.9499990344039588308078236877918243408203125	0.0	16996.4936455089991795830428600311279296875	0.0	1	1	1	1
6276	S6	2019	9	19	12	482.58910694390897333505563437938690185546875	346.7152260425169743029982782900333404541015625	269.580704208158977053244598209857940673828125	15.726197197067900646061389124952256679534912109375	57.896337933607497916455031372606754302978515625	1.4808450713123999520348661462776362895965576171875	659.416665633518960021319799125194549560546875	0.0	16996.881965796099393628537654876708984375	0.0	1	1	1	1
6277	S6	2019	9	19	13	509.20917383829697655528434552252292633056640625	411.9612943013499943845090456306934356689453125	255.71532062954298680779174901545047760009765625	15.4044444613985991310300960321910679340362548828125	53.71111119588209703579195775091648101806640625	1.6791666691501900832150795395136810839176177978515625	680.15000025431299945921637117862701416015625	0.0	13723.719743887499134871177375316619873046875	0.0	1	1	1	1
6278	S6	2019	9	19	14	417.72904485066698043738142587244510650634765625	273.10024468104001016399706713855266571044921875	259.88784268697099832934327423572540283203125	15.118333313200199796710876398719847202301025390625	56.43944445716009994384876335971057415008544921875	1.368611108014980093372514602378942072391510009765625	523.6000011364609463271335698664188385009765625	0.0	11122.8610078493002220056951045989990234375	0.0	1	1	1	1
6279	S6	2019	9	19	15	277.34280357360802327093551866710186004638671875	40.08337838119930296443271799944341182708740234375	255.9600447760680026476620696485042572021484375	14.8655556042988994391862433985807001590728759765625	57.76888902452250107444342575035989284515380859375	0.92444444704386896649594973496277816593647003173828125	291.98333323001799044504878111183643341064453125	0.0	7647.5213130315196394803933799266815185546875	0.0	1	1	1	1
6280	S6	2019	9	19	16	217.78415179782399491159594617784023284912109375	51.05230744017489996622316539287567138671875	197.419899580213012768581393174827098846435546875	14.5683333237964998119196025072596967220306396484375	61.01111083560510195411552558653056621551513671875	0.77222222487131697565843069241964258253574371337890625	228.033333023387996263409149833023548126220703125	0.0	5951.1442482471202310989610850811004638671875	0.0	1	1	1	1
6281	S6	2019	9	19	17	139.62203483581498630883288569748401641845703125	70.629047036502100809229887090623378753662109375	123.31288719177200619014911353588104248046875	14.07722221480469926291334559209644794464111328125	63.1566668192544966586865484714508056640625	0.56027778022819096914730607750243507325649261474609375	152.383334065476987007059506140649318695068359375	0.0	4103.4549415111496273311786353588104248046875	0.0	1	1	1	1
6282	S6	2019	9	19	18	57.685756799909796654901583679020404815673828125	44.35422912637390169265927397646009922027587890625	52.37056957350829833330863039009273052215576171875	13.381111044353900751957553438842296600341796875	64.576666577656993695200071670114994049072265625	0.445555558552344022071878271162859164178371429443359375	53.66666666232040228123878478072583675384521484375	0.0	1373.497580488520043218159116804599761962890625	0.0	1	1	1	1
6283	S6	2019	9	19	19	11.091313091484199304659341578371822834014892578125	0.38670950241990897922050862689502537250518798828125	11.41729860692409914690870209597051143646240234375	12.548648705353599552836385555565357208251953125	67.6594584697000982487224973738193511962890625	0.260810814999245021983398373777163214981555938720703125	0.78333335113711799468916296973475255072116851806640625	0.0	53.43742988382779657285936991684138774871826171875	0.0	1	1	1	0
6284	S6	2019	9	19	20	0	0	0	0	0	0	0	0.0	0	0.0	1	1	1	0
6285	S6	2019	9	19	21	0	0	0	0	0	0	0	0.0	0	0.0	1	1	1	0
6286	S6	2019	9	19	22	0	0	0	0	0	0	0	0.0	0	0.0	1	1	1	0
6287	S6	2019	9	19	23	0	0	0	0	0	0	0	0.0	0	0.0	1	1	1	0
6288	S6	2019	9	19	24	0	0	0	0	0	0	0	0.0	0	0.0	1	1	1	0
6289	S6	2019	9	20	1	0	0	0	0	0	0	0	0.0	0	0.0	1	1	1	0
6290	S6	2019	9	20	2	0	0	0	0	0	0	0	0.0	0	0.0	1	1	1	0
6291	S6	2019	9	20	3	0	0	0	0	0	0	0	0.0	0	0.0	1	1	1	0
6292	S6	2019	9	20	4	0	0	0	0	0	0	0	0.0	0	0.0	1	1	1	0
6293	S6	2019	9	20	5	0	0	0	0	0	0	0	0.0	0	0.0	1	1	1	0
6294	S6	2019	9	20	6	2.69994293559680986760440646321512758731842041015625	0.37268879061395399077127876807935535907745361328125	2.815288923003449905735351421753875911235809326171875	11.0409092469647998058235316420905292034149169921875	86.890909021550896795815788209438323974609375	2.17272727868772985715395407169125974178314208984375	0.433333348094798009864092591669759713113307952880859375	0.0	10.1729915787775997415565143455751240253448486328125	0.0	1	1	1	0
6295	S6	2019	9	20	7	23.138475582996999690976736019365489482879638671875	0.393448505053916985918505133668077178299427032470703125	23.22097823288699913746313541196286678314208984375	11.5127777894337004482849806663580238819122314453125	87.8200003306071010911182384006679058074951171875	2.1241666617492800384070505970157682895660400390625	24.300000001676298921893248916603624820709228515625	0.0	671.08560915415500858216546475887298583984375	0.0	1	1	1	1
6296	S6	2019	9	20	8	64.7613203366596934529297868721187114715576171875	0.8511790808704160493647350449464283883571624755859375	64.631208939022400272733648307621479034423828125	11.821666675143699620775805669836699962615966796875	90.0788885328503994287530076690018177032470703125	2.583333330767020097340491702198050916194915771484375	63.75000029802320256067105219699442386627197265625	0.0	1783.372450371580043793073855340480804443359375	0.0	1	1	1	1
6297	S6	2019	9	20	9	103.5412134700350037519456236623227596282958984375	0.63019883657495101569878670488833449780941009521484375	103.334424209594004651080467738211154937744140625	12.44555556509219940153343486599624156951904296875	90.2866664038763957478295196779072284698486328125	2.65666665716303018740518382401205599308013916015625	108.8166667769349942318513058125972747802734375	0.0	3093.688512841859846957959234714508056640625	0.0	1	1	1	1
6298	S6	2019	9	20	10	162.763077334772987114774878136813640594482421875	1.2639207889359600489598278727498836815357208251953125	161.953411899237011084551340900361537933349609375	13.513091953351899832114213495515286922454833984375	89.369637917011203853689949028193950653076171875	2.532590530210879986583449863246642053127288818359375	170.083334172765006542249466292560100555419921875	0.0	4789.6975328524904398364014923572540283203125	0.0	1	1	1	1
6299	S6	2019	9	20	11	247.371080462852006576213170774281024932861328125	21.162608127538700131253790459595620632171630859375	234.455647457851000581285916268825531005859375	14.9047752069623005155563078005798161029815673828125	82.4275279098682034373268834315240383148193359375	2.499999994725989882482508619432337582111358642578125	242.266665647427004159908392466604709625244140625	0.0	6892.834033568689847015775740146636962890625	0.0	1	1	1	1
6300	S6	2019	9	20	12	197.64406749546100172665319405496120452880859375	0.84820665995084099098022534235497005283832550048828125	196.707365586452993966304347850382328033447265625	14.4885905669039001253395326784811913967132568359375	85.20906082255720548346289433538913726806640625	2.50738255549596988913663153653033077716827392578125	177.149999638397986245763604529201984405517578125	0.0	5161.9569778442501046811230480670928955078125	0.0	1	1	1	1
6301	S6	2019	9	20	13	191.06391141655700494084157980978488922119140625	3.376167389185530165462978402501903474330902099609375	188.77184505676899561876780353486537933349609375	14.5901685484338994314157389453612267971038818359375	85.7438204904619993840242386795580387115478515625	2.364325840737710127115178693202324211597442626953125	178.949998567501012303182506002485752105712890625	0.0	5163.3711546659396844916045665740966796875	0.0	1	1	1	1
6302	S6	2019	9	20	14	121.9895209191549980687341303564608097076416015625	0.59017545259951098568507177333231084048748016357421875	121.7779766996140011769966804422438144683837890625	14.940563355029400582907328498549759387969970703125	81.83549282450070450067869387567043304443359375	2.4546478907826898563371287309564650058746337890625	120.5000002558030018917634151875972747802734375	0.0	3518.18642069895986423944123089313507080078125	0.0	1	1	1	1
6303	S6	2019	9	20	15	138.583954132927004820885485969483852386474609375	0.6239880065951080023722852274659089744091033935546875	138.1183464050290012892219237983226776123046875	15.646666754616600059080155915580689907073974609375	77.0333331637911982170408009551465511322021484375	2.67749999745023981034819371416233479976654052734375	129.566667601465013603956322185695171356201171875	0.0	3704.26521748304003267548978328704833984375	0.0	1	1	1	1
6304	S6	2019	9	20	16	106.3580689960050023046278511174023151397705078125	0.61956873039404503078486641243216581642627716064453125	106.07752439710799308159039355814456939697265625	15.872222153345699524606970953755080699920654296875	76.9572220272488038972369395196437835693359375	2.5074999968210800460610698792152106761932373046875	110.950000459948995512604597024619579315185546875	0.0	3075.7317850987101337523199617862701416015625	0.0	1	1	1	1
6305	S6	2019	9	20	17	82.1342531305734979696353548206388950347900390625	5.75936782397641966468881946639157831668853759765625	80.431470833572603851280291564762592315673828125	15.9324930068156991325167837203480303287506103515625	75.956302546653404306198353879153728485107421875	2.673949575140360135350192649639211595058441162109375	73.2166667468845986377345980145037174224853515625	0.0	1970.967145760849916769075207412242889404296875	0.0	1	1	1	1
6306	S6	2019	9	20	18	14.182818502187700460126507095992565155029296875	0.288528037195403985748498598695732653141021728515625	14.1965758423009997812869187328033149242401123046875	15.3527777565850005458969462779350578784942626953125	78.4633338504366975030279718339443206787109375	2.9044444420271400275623818743042647838592529296875	10.2333333925343996639867327758111059665679931640625	0.0	287.63552795086701507898396812379360198974609375	0.0	1	1	1	1
6307	S6	2019	9	20	19	1.86211409365257996029185960651375353336334228515625	0.2826407410022679922434463151148520410060882568359375	1.9097299365008699734147512572235427796840667724609375	14.9939024157639995138424637843854725360870361328125	79.0512200332268974989347043447196483612060546875	2.517073161718319962432133252150379121303558349609375	0.03333333491658330149931543928687460720539093017578125	0.0	0.2567116636782860172871778559056110680103302001953125	0.0	1	1	1	0
6308	S6	2019	9	20	20	0	0	0	0	0	0	0	0.0	0	0.0	1	1	1	0
6309	S6	2019	9	20	21	0	0	0	0	0	0	0	0.0	0	0.0	1	1	1	0
6310	S6	2019	9	20	22	0	0	0	0	0	0	0	0.0	0	0.0	1	1	1	0
6311	S6	2019	9	20	23	0	0	0	0	0	0	0	0.0	0	0.0	1	1	1	0
6312	S6	2019	9	20	24	0	0	0	0	0	0	0	0.0	0	0.0	1	1	1	0
6313	S6	2019	9	21	1	0	0	0	0	0	0	0	0.0	0	0.0	1	1	1	0
6314	S6	2019	9	21	2	0	0	0	0	0	0	0	0.0	0	0.0	1	1	1	0
6315	S6	2019	9	21	3	0	0	0	0	0	0	0	0.0	0	0.0	1	1	1	0
6316	S6	2019	9	21	4	0	0	0	0	0	0	0	0.0	0	0.0	1	1	1	0
6317	S6	2019	9	21	5	0	0	0	0	0	0	0	0.0	0	0.0	1	1	1	0
6318	S6	2019	9	21	6	1.6255774339040101050812836547265760600566864013671875	0.32191823720932000174599352249060757458209991455078125	1.679235132535290109245806888793595135211944580078125	12.80000019073479933240378159098327159881591796875	87.446667480468704525264911353588104248046875	1.533333321412400085392846449394710361957550048828125	0.1500000071246209987219089043719577603042125701904296875	0.0	0.2242899965494860037296120935934595763683319091796875	0.0	1	1	1	0
6319	S6	2019	9	21	7	12.9545656972090998948488049791194498538970947265625	0.348977891218395008809949331407551653683185577392578125	13.0247652740450998720689312904141843318939208984375	12.9743016258964001252707021194510161876678466796875	86.82569855418279303194140084087848663330078125	1.8103351968460199561405943313729949295520782470703125	12.8166667690189992612204150645993649959564208984375	0.0	374.50461139281600253525539301335811614990234375	0.0	1	1	1	1
6320	S6	2019	9	21	8	49.04407324261129730302855023182928562164306640625	0.41790970820519601769404971491894684731960296630859375	49.07213620079880200819388846866786479949951171875	13.0400000625185992220167463528923690319061279296875	85.60388895670570263973786495625972747802734375	1.3586111118396100305716345246764831244945526123046875	49.26666695003699913968375767581164836883544921875	0.0	1376.915738483269933567498810589313507080078125	0.0	1	1	1	1
6321	S6	2019	9	21	9	100.775881724887000245871604420244693756103515625	0.5475107658654450037971628262312151491641998291015625	100.676316070555998294366872869431972503662109375	13.2361111058129008455352959572337567806243896484375	84.5466666751436974891475983895361423492431640625	1.096111114819839915668353569344617426395416259765625	103.2666665812329966911420342512428760528564453125	0.0	2911.1456265052102025947533547878265380859375	0.0	1	1	1	1
6322	S6	2019	9	21	10	149.6587503221300039513153024017810821533203125	0.69593216122852397109710409495164640247821807861328125	149.307848930358005645757657475769519805908203125	13.557222180896300045560565195046365261077880859375	83.6644449022081033717768150381743907928466796875	1.0469444452060499006762483986676670610904693603515625	145.316666985550995150333619676530361175537109375	0.0	4134.9452386299699355731718242168426513671875	0.0	1	1	1	1
6323	S6	2019	9	21	11	222.137018034193005178167368285357952117919921875	1.0719359492262199307077707999269478023052215576171875	221.0663979424369927073712460696697235107421875	14.252222183015600620592522318474948406219482421875	80.997222646077403851450071670114994049072265625	0.92638889004786795222656792248017154633998870849609375	216.233332703510001238100812770426273345947265625	0.0	6137.726442019120440818369388580322265625	0.0	1	1	1	1
6324	S6	2019	9	21	12	280.4814950307210210667108185589313507080078125	1.6246468318833200417117268443689681589603424072265625	278.1951145172109818304306827485561370849609375	14.8727777693005993597807901096530258655548095703125	79.1227778116861060198061750270426273345947265625	0.90111111385954700825351437742938287556171417236328125	280.050000051656979849212802946567535400390625	0.0	7820.4989274342997305211611092090606689453125	0.0	1	1	1	1
6325	S6	2019	9	21	13	452.75456284546902452348149381577968597412109375	220.079407050084000729839317500591278076171875	324.78326566903302818900556303560733795166015625	15.7551532097181006264463576371781527996063232421875	76.1838440111419998856945312581956386566162109375	0.93259053069236796940089107010862790048122406005859375	568.0499960978810349843115545809268951416015625	0.0	12237.075257301299643586389720439910888671875	0.0	1	1	1	1
6326	S6	2019	9	21	14	531.377248636880949561600573360919952392578125	826.8011661105680332184419967234134674072265625	96.6423768785264059033579542301595211029052734375	16.535555569330799841054613352753221988677978515625	73.96500027974440172329195775091648101806640625	0.9830555525918800441331768524833023548126220703125	796.333331863085959412273950874805450439453125	0.0	14260.771234830199318821541965007781982421875	0.0	1	1	1	1
6327	S6	2019	9	21	15	448.784992387558986592921428382396697998046875	839.61294894748198203160427510738372802734375	69.072137779659698253453825600445270538330078125	17.60111125310260149490204639732837677001953125	70.4561110178628950961865484714508056640625	0.6155555576913880333478346074116416275501251220703125	691.3333336512240521187777630984783172607421875	0.0	13672.63422012320006615482270717620849609375	0.0	1	1	1	1
6328	S6	2019	9	21	16	330.606852128770015042391605675220489501953125	773.7305525037969573531881906092166900634765625	59.41164566675819713736927951686084270477294921875	17.555000050862599181300538475625216960906982421875	70.477222018771698230921174399554729461669921875	0.72722222440772499307826137737720273435115814208984375	507.55000114440798597570392303168773651123046875	0.0	12645.695320765100404969416558742523193359375	0.0	1	1	1	1
6329	S6	2019	9	21	17	193.864621565076987508291495032608509063720703125	630.6192306518549912652815692126750946044921875	48.32392606735219686697746510617434978485107421875	17.984999900394001315362402237951755523681640625	70.0588889227972941853295196779072284698486328125	0.60111111592915300594341942996834404766559600830078125	290.8333321412400209737825207412242889404296875	0.0	6782.7205697695399067015387117862701416015625	0.0	1	1	1	1
6330	S6	2019	9	21	18	63.78242544333139818490963079966604709625244140625	331.12276424831799204184790141880512237548828125	27.967387196752699907165151671506464481353759765625	16.930000140931799279542246949858963489532470703125	74.9500003814697066673033987171947956085205078125	0.5138888942698629502814355873852036893367767333984375	79.0666672711574989307337091304361820220947265625	0.0	1535.20063521960992147796787321567535400390625	0.0	1	1	1	1
6331	S6	2019	9	21	19	10.1469760622296991670054921996779739856719970703125	39.32182652420460300390914198942482471466064453125	9.3216246498955595001234541996382176876068115234375	15.5857143099345005765599125879816710948944091796875	81.485714867001405536939273588359355926513671875	0.26349206812797998367159379995428025722503662109375	0.03333333491658330149931543928687460720539093017578125	0.0	47.4116652350250973313450231216847896575927734375	0.0	1	1	1	0
6332	S6	2019	9	21	20	0	0	0	0	0	0	0	0.0	0	0.0	1	1	1	0
6333	S6	2019	9	21	21	0	0	0	0	0	0	0	0.0	0	0.0	1	1	1	0
6334	S6	2019	9	21	22	0	0	0	0	0	0	0	0.0	0	0.0	1	1	1	0
6335	S6	2019	9	21	23	0	0	0	0	0	0	0	0.0	0	0.0	1	1	1	0
6336	S6	2019	9	21	24	0	0	0	0	0	0	0	0.0	0	0.0	1	1	1	0
6337	S6	2019	9	22	1	0	0	0	0	0	0	0	0.0	0	0.0	1	1	1	0
6338	S6	2019	9	22	2	0	0	0	0	0	0	0	0.0	0	0.0	1	1	1	0
6339	S6	2019	9	22	3	0	0	0	0	0	0	0	0.0	0	0.0	1	1	1	0
6340	S6	2019	9	22	4	0	0	0	0	0	0	0	0.0	0	0.0	1	1	1	0
6341	S6	2019	9	22	5	0	0	0	0	0	0	0	0.0	0	0.0	1	1	1	0
6342	S6	2019	9	22	6	3.650167083740230022925743469386361539363861083984375	0.54983917474746701881116450749686919152736663818359375	2.513271558284750017975284208660013973712921142578125	7.62000007629394016106516573927365243434906005859375	95.599996948242193184341886080801486968994140625	0.38000000715255699557104662744677625596523284912109375	1.083333361505840031213665497489273548126220703125	0.0	44.43681861739599980865023098886013031005859375	0.0	1	1	1	0
6343	S6	2019	9	22	7	45.133123992779900390814873389899730682373046875	53.30827939874900067707130801863968372344970703125	37.47107862770010200392789556644856929779052734375	7.18623853240173016132530392496846616268157958984375	95.612844391335698901457362808287143707275390625	0.84036697615906297276211489588604308664798736572265625	32.01666686994320087933374452404677867889404296875	0.0	922.42195121943996127811260521411895751953125	0.0	1	1	1	1
6344	S6	2019	9	22	8	185.77193321578801032956107519567012786865234375	373.60725262521299328000168316066265106201171875	86.310140565894101882804534398019313812255859375	9.87729887304634956990412320010364055633544921875	95.6206896551723986021897871978580951690673828125	0.65775862284775399313474508744548074901103973388671875	126.3333339244120026023665559478104114532470703125	0.0	3151.25240832566987592144869267940521240234375	0.0	1	1	1	0
6345	S6	2019	9	22	9	252.33507639567000069291680119931697845458984375	339.8405723147919843540876172482967376708984375	132.91566386752600692489068023860454559326171875	14.068888907962300294229862629435956478118896484375	89.31333317226830104118562303483486175537109375	0.314722226228977997042335346122854389250278472900390625	286.48333350817398468279861845076084136962890625	0.0	6408.8017364343004373949952423572540283203125	0.0	1	1	1	1
6346	S6	2019	9	22	10	346.1819741990830152644775807857513427734375	460.78569980197397626398014836013317108154296875	141.853474850124001704898546449840068817138671875	16.73444443278840054745160159654915332794189453125	79.6444446563720021003973670303821563720703125	0.363055559247731973737671751223388127982616424560546875	457.33333379030199239423382095992565155029296875	0.0	9008.5666696230400702916085720062255859375	0.0	1	1	1	1
6347	S6	2019	9	22	11	515.5049457973899507123860530555248260498046875	759.6789680480950437413412146270275115966796875	120.8107402165729951093453564681112766265869140625	18.35166675779549905200838111340999603271484375	73.50555513170030508263153024017810821533203125	0.942499999950328959386069982429035007953643798828125	736.1000011364609463271335698664188385009765625	0.0	16574.77101087569826631806790828704833984375	0.0	1	1	1	1
6348	S6	2019	9	22	12	559.0874994913730233747628517448902130126953125	832.3822199503580350210540927946567535400390625	95.078268305460596820921637117862701416015625	19.313888888888801176335618947632610797882080078125	69.59277843899189974763430655002593994140625	1.3869444424079500066682157921604812145233154296875	819.16666825612401225953362882137298583984375	0.0	20720.58967749269868363626301288604736328125	0.0	1	1	1	1
6349	S6	2019	9	22	13	569.627666558159035048447549343109130859375	873.140128580728969609481282532215118408203125	81.9904097663031024012525449506938457489013671875	19.6333332697549991507912636734545230865478515625	68.233888795640694979738327674567699432373046875	1.5883333285649599009303756247390992939472198486328125	843.3333287636429531630710698664188385009765625	0.0	21220.9386110304985777474939823150634765625	0.0	1	1	1	1
6350	S6	2019	9	22	14	524.6468942430279867039644159376621246337890625	860.969899664984041010029613971710205078125	74.4937173207600977775655337609350681304931640625	19.548888916439398855118270148523151874542236328125	68.74833268059620650092256255447864532470703125	1.579999995314409932944954562117345631122589111328125	796.5333352486289868465973995625972747802734375	0.0	19734.33214823399976012296974658966064453125	0.0	1	1	1	1
6351	S6	2019	9	22	15	440.0190478006990133508224971592426300048828125	827.521367051866036490537226200103759765625	68.243452686733604650726192630827426910400390625	19.481111070844800536860930151306092739105224609375	69.4538888295491005919757299125194549560546875	1.8361111117733799336093625242938287556171417236328125	679.6499987443279451326816342771053314208984375	0.0	16829.05075152709832764230668544769287109375	0.0	1	1	1	1
6352	S6	2019	9	22	16	324.54309828016397432293160818517208099365234375	766.6875445895719849431770853698253631591796875	58.760015636020199281119857914745807647705078125	19.174444336361300855742229032330214977264404296875	67.9605556064180973407928831875324249267578125	1.8511111083957800804711268938262946903705596923828125	501.96666369835401155796716921031475067138671875	0.0	12546.536350250200484879314899444580078125	0.0	1	1	1	1
6353	S6	2019	9	22	17	188.2564787334860056944307871162891387939453125	622.55210961235798095003701746463775634765625	47.76323956383590285668105934746563434600830078125	18.5516665246750989126667263917624950408935546875	68.5811112297904941215165308676660060882568359375	1.7755555528733399928142944190767593681812286376953125	285.28333306312498507395503111183643341064453125	0.0	6713.5162681341198549489490687847137451171875	0.0	1	1	1	1
6354	S6	2019	9	22	18	59.1827891455755974448038614355027675628662109375	328.085811191135007902630604803562164306640625	25.367484842406298639616579748690128326416015625	17.12611110475319975421371054835617542266845703125	73.327222357855902146184234879910945892333984375	1.3705555529230100120230417815037071704864501953125	76.1000002171692955243997857905924320220947265625	0.0	1392.774901476999957594671286642551422119140625	0.0	1	1	1	1
6355	S6	2019	9	22	19	7.6025786972045796829888786305673420429229736328125	16.228734166622100332233458175323903560638427734375	7.520898160934439857783218030817806720733642578125	15.68800006866450047482430818490684032440185546875	79.3359991455077988575794734060764312744140625	0.892000001072883019759274247917346656322479248046875	0.0166666674582915987079534403392244712449610233306884765625	0.0	25.786905227384199434936817851848900318145751953125	0.0	1	1	1	0
6356	S6	2019	9	22	20	0	0	0	0	0	0	0	0.0	0	0.0	1	1	1	0
6357	S6	2019	9	22	21	0	0	0	0	0	0	0	0.0	0	0.0	1	1	1	0
6358	S6	2019	9	22	22	0	0	0	0	0	0	0	0.0	0	0.0	1	1	1	0
6359	S6	2019	9	22	23	0	0	0	0	0	0	0	0.0	0	0.0	1	1	1	0
6360	S6	2019	9	22	24	0	0	0	0	0	0	0	0.0	0	0.0	1	1	1	0
6361	S6	2019	9	23	1	0	0	0	0	0	0	0	0.0	0	0.0	1	1	1	0
6362	S6	2019	9	23	2	0	0	0	0	0	0	0	0.0	0	0.0	1	1	1	0
6363	S6	2019	9	23	3	0	0	0	0	0	0	0	0.0	0	0.0	1	1	1	0
6364	S6	2019	9	23	4	0	0	0	0	0	0	0	0.0	0	0.0	1	1	1	0
6365	S6	2019	9	23	5	0	0	0	0	0	0	0	0.0	0	0.0	1	1	1	0
6366	S6	2019	9	23	6	0	0	0	0	0	0	0.300000010368724978615517784419353120028972625732421875	0.0	14.8498116992413997650146484375	0.0	1	1	1	0
6367	S6	2019	9	23	7	25.815573861230500796182241174392402172088623046875	33.95075461016450191209514741785824298858642578125	23.094954525416500956680465606041252613067626953125	13.0454810784786996435968831065110862255096435546875	83.8346936862599960704756085760891437530517578125	2.727988337549450026386921308585442602634429931640625	26.5166668919845989194072899408638477325439453125	0.0	660.6759558121369764194241724908351898193359375	0.0	1	1	1	1
6368	S6	2019	9	23	8	66.3354713545904957072707475163042545318603515625	2.496973397582760156865333556197583675384521484375	65.996204513973594885101192630827426910400390625	13.58611110051469950121827423572540283203125	82.6566670311820956840165308676660060882568359375	3.033888884882129932663019644678570330142974853515625	63.7833337609963990644246223382651805877685546875	0.0	1779.036809752379895144258625805377960205078125	0.0	1	1	1	1
6369	S6	2019	9	23	9	134.024226188658985847723670303821563720703125	1.0971118635601400104206959440489299595355987548828125	133.465072292750988935949862934648990631103515625	14.2338889069027008105194909148849546909332275390625	80.947222095065598068686085753142833709716796875	3.517777768605280019897918464266695082187652587890625	128.16666588187200659376685507595539093017578125	0.0	3595.4835712909598441910929977893829345703125	0.0	1	1	1	1
6370	S6	2019	9	23	10	163.310250218709001046590856276452541351318359375	0.7461855795648359990224207649589516222476959228515625	162.757948769463013150016195140779018402099609375	14.705000008477099981973879039287567138671875	79.596111043294200726450071670114994049072265625	3.607777765558819904612164464197121560573577880859375	147.516667097805992625580984167754650115966796875	0.0	4206.0247540473801564075984060764312744140625	0.0	1	1	1	1
6371	S6	2019	9	23	11	120.8720617294309960243481327779591083526611328125	0.61680070807536402366366701244260184466838836669921875	120.46896709865899310898385010659694671630859375	15.010000138812500836138497106730937957763671875	79.348889287312800888685160316526889801025390625	3.715833331810099782188672179472632706165313720703125	107.5166667501130035589085309766232967376708984375	0.0	3128.47638626893012769869528710842132568359375	0.0	1	1	1	1
6372	S6	2019	9	23	12	100.293157789442005878299823962152004241943359375	0.54756561753650501156442942374269478023052215576171875	99.846494250827305450002313591539859771728515625	15.086111248864000344838132150471210479736328125	79.7555553860133983334890217520296573638916015625	3.576111114521820066869395304820500314235687255859375	89.916667342186002542803180404007434844970703125	0.0	2648.2184032599097918136976659297943115234375	0.0	1	1	1	1
6373	S6	2019	9	23	13	96.55705180697970035907928831875324249267578125	0.57303130403160995598454974242486059665679931640625	96.1368640687729936189498403109610080718994140625	14.9349997997283008288604833069257438182830810546875	80.2194445716010022806585766375064849853515625	3.388055550472599986022714801947586238384246826171875	88.900000105301700159543543122708797454833984375	0.0	2613.83171280224996735341846942901611328125	0.0	1	1	1	1
6374	S6	2019	9	23	14	73.6029726982116017097723670303821563720703125	0.479518007197313023137752452385029755532741546630859375	73.26277916166509385220706462860107421875	14.7805555343626995323802475468255579471588134765625	79.8466665479871977595394128002226352691650390625	3.511111107137459885763064448838122189044952392578125	66.9000000382462047809895011596381664276123046875	0.0	1959.51057473817991194664500653743743896484375	0.0	1	1	1	1
6375	S6	2019	9	23	15	80.21431346469449863434419967234134674072265625	0.51269099108046900514779053992242552340030670166015625	79.9344947179157969685547868721187114715576171875	14.3149999247655994594197181868366897106170654296875	80.0838889651827940951989148743450641632080078125	3.93333332935968993382402913994155824184417724609375	82.9500005890923972629025229252874851226806640625	0.0	2387.18271503845016923150978982448577880859375	0.0	1	1	1	1
6376	S6	2019	9	23	16	106.09707347022100520916865207254886627197265625	0.5393087111413470413623372223810292780399322509765625	105.845702891879000162589363753795623779296875	14.1966665744780993207996289129368960857391357421875	78.635555860731301436317153275012969970703125	3.941388886670269986467474154778756201267242431640625	100.7166671877100014853567699901759624481201171875	0.0	2823.40833097695985998143441975116729736328125	0.0	1	1	1	1
6377	S6	2019	9	23	17	56.80715943442449855638187727890908718109130859375	0.4042901488227970130395760861574672162532806396484375	56.71768285963270272986846975982189178466796875	13.86833327611279997881865710951387882232666015625	77.9322221120198008748047868721187114715576171875	3.560555555257530091495254964684136211872100830078125	52.24999990314240250199873116798698902130126953125	0.0	1461.943399906150034439633600413799285888671875	0.0	1	1	1	1
6378	S6	2019	9	23	18	22.536514335208398307486277190037071704864501953125	0.2953240928964480094265354637173004448413848876953125	22.704662479294601240553674870170652866363525390625	13.2394445154401996234128091600723564624786376953125	78.2127776675753949575664591975510120391845703125	3.51972222195731010430108653963543474674224853515625	18.766666809096900436770738451741635799407958984375	0.0	545.5983855451139561409945599734783172607421875	0.0	1	1	1	1
6379	S6	2019	9	23	19	6.0464266328250602100524702109396457672119140625	0.353149335173998990544674825287074781954288482666015625	6.30722087972304024106051656417548656463623046875	12.80000019073479933240378159098327159881591796875	78.9882354736327982891452847979962825775146484375	4.2470587842604601291895960457623004913330078125	0.13333333966632798794904601891175843775272369384765625	0.0	12.6699198037384999082632930367253720760345458984375	0.0	1	1	1	0
6380	S6	2019	9	23	20	0	0	0	0	0	0	0	0.0	0	0.0	1	1	1	0
6381	S6	2019	9	23	21	0	0	0	0	0	0	0	0.0	0	0.0	1	1	1	0
6382	S6	2019	9	23	22	0	0	0	0	0	0	0	0.0	0	0.0	1	1	1	0
6383	S6	2019	9	23	23	0	0	0	0	0	0	0	0.0	0	0.0	1	1	1	0
6384	S6	2019	9	23	24	0	0	0	0	0	0	0	0.0	0	0.0	1	1	1	0
6385	S6	2019	9	24	1	0	0	0	0	0	0	0	0.0	0	0.0	1	1	1	0
6386	S6	2019	9	24	2	0	0	0	0	0	0	0	0.0	0	0.0	1	1	1	0
6387	S6	2019	9	24	3	0	0	0	0	0	0	0	0.0	0	0.0	1	1	1	0
6388	S6	2019	9	24	4	0	0	0	0	0	0	0	0.0	0	0.0	1	1	1	0
6389	S6	2019	9	24	5	0	0	0	0	0	0	0	0.0	0	0.0	1	1	1	0
6390	S6	2019	9	24	6	0	0	0	0	0	0	0	0.0	0	0.0	1	1	1	0
6391	S6	2019	9	24	7	5.895924007823300172503877547569572925567626953125	0.416822600719887026432530774400220252573490142822265625	5.91771406073902017652699214522726833820343017578125	13.838372227757400168002277496270835399627685546875	90.6331391667209942397676059044897556304931640625	1.4235465086476699614337348975823260843753814697265625	6.1666668237497201943142499658279120922088623046875	0.0	166.967123428668998030843795277178287506103515625	0.0	1	1	1	1
6392	S6	2019	9	24	8	38.358046163452996779597015120089054107666015625	0.45376219418313701314815489240572787821292877197265625	38.36926982137890007606983999721705913543701171875	14.4344444672265996842952517908997833728790283203125	89.268333138359906797631992958486080169677734375	1.938888888557749989871581419720314443111419677734375	38.816666758308798534926609136164188385009765625	0.0	1129.170915608599898405373096466064453125	0.0	1	1	1	1
6393	S6	2019	9	24	9	40.934053103129002693094662390649318695068359375	0.4290589545336029875244321374339051544666290283203125	40.89513406753540181171047152020037174224853515625	14.4719443851047007143506561988033354282379150390625	88.872221353318906267304555512964725494384765625	2.46194443553685982095657891477458178997039794921875	40.26666649927680197151858010329306125640869140625	0.0	1153.26677088936003201524727046489715576171875	0.0	1	1	1	1
6394	S6	2019	9	24	10	61.3818976826137969737828825600445270538330078125	0.5073863305151460334485591374686919152736663818359375	61.24954925113249970536344335414469242095947265625	14.5761111153495992454054430709220468997955322265625	89.2155551910399964299358543939888477325439453125	2.409999999569520046094339704723097383975982666015625	60.26666648685920080197320203296840190887451171875	0.0	1726.859854161730027044541202485561370849609375	0.0	1	1	1	1
6395	S6	2019	9	24	11	73.1703417672051017461853916756808757781982421875	0.53411027532484800506296096500591374933719635009765625	72.949125364091599976745783351361751556396484375	14.6630555762183991674874050659127533435821533203125	88.6563889397514941492772777564823627471923828125	2.536944432059919929400848559453152120113372802734375	71.75000024338550019820104353129863739013671875	0.0	2081.82071695725016979849897325038909912109375	0.0	1	1	1	1
6396	S6	2019	9	24	12	68.45314873589410353815765120089054107666015625	0.50735703491502304185445382245234213769435882568359375	68.20844170252479443661286495625972747802734375	14.6516667524973005498623024323023855686187744140625	88.632499906751803564475267194211483001708984375	2.669444436993860136908551794476807117462158203125	68.900000303983603089363896287977695465087890625	0.0	2020.840016007419990273774601519107818603515625	0.0	1	1	1	1
6397	S6	2019	9	24	13	71.6481091499327931160223670303821563720703125	0.5014316078689360356435145149589516222476959228515625	71.3693467670016019610557123087346553802490234375	14.67333340644830030896628159098327159881591796875	88.110000080532500987828825600445270538330078125	2.638888885411950102621858604834415018558502197265625	69.183333838979393703993991948664188385009765625	0.0	2024.179823696609901162446476519107818603515625	0.0	1	1	1	1
6398	S6	2019	9	24	14	79.096026346418597086085355840623378753662109375	0.511084795246520950939839167403988540172576904296875	78.8475636164346980194750358350574970245361328125	14.595277931955099148808585596270859241485595703125	89.1755555046928947149353916756808757781982421875	2.66138888431918996246849928866140544414520263671875	73.6500001202027050339893321506679058074951171875	0.0	2117.7247857053998814080841839313507080078125	0.0	1	1	1	1
6399	S6	2019	9	24	15	72.8070806609259051356275449506938457489013671875	0.54285799438754700485532111997599713504314422607421875	72.6332163704766031742110499180853366851806640625	14.621388925446400008922864799387753009796142578125	88.94694438510470035907928831875324249267578125	2.138611108147430162063074021716602146625518798828125	68.8500003268321023597309249453246593475341796875	0.0	2021.975499391550101790926419198513031005859375	0.0	1	1	1	1
6400	S6	2019	9	24	16	36.536204285091798737994395196437835693359375	0.403243357398443025285672547397552989423274993896484375	36.4695029046799987781923846341669559478759765625	14.4063889079623006495012305094860494136810302734375	89.7855550765990955142115126363933086395263671875	1.9738888852298199783064092116546817123889923095703125	32.11666663798180110234170570038259029388427734375	0.0	936.8429550280169451070833019912242889404296875	0.0	1	1	1	1
6401	S6	2019	9	24	17	27.651387103398601396975209354422986507415771484375	0.421237575469744995881882232424686662852764129638671875	27.66150629785320091968969791196286678314208984375	14.132777905464099177379466709680855274200439453125	90.987777985466806285330676473677158355712890625	2.26666666476261990936791335116140544414520263671875	25.20000011039270049195692990906536579132080078125	0.0	728.002489234009999563568271696567535400390625	0.0	1	1	1	1
6402	S6	2019	9	24	18	6.78274171071106035668663025717251002788543701171875	0.360877663776111023974380032086628489196300506591796875	6.8070545196533203125	14.0738764559285005617539354716427624225616455078125	90.6536518482678985719758202321827411651611328125	1.7255617935168598986450660959235392510890960693359375	4.4000000440670898882444816990755498409271240234375	0.0	134.365781831243992883173632435500621795654296875	0.0	1	1	1	1
6403	S6	2019	9	24	19	1.118989012458099896463181721628643572330474853515625	0.399838845838199008486668617479153908789157867431640625	1.14851072159680001050219289027154445648193359375	13.9181816361166994511222583241760730743408203125	91.0318176963111937993744504638016223907470703125	1.3863636336543299076851099016494117677211761474609375	0	0.0	0	0.0	1	1	1	0
6404	S6	2019	9	24	20	0	0	0	0	0	0	0	0.0	0	0.0	1	1	1	0
6405	S6	2019	9	24	21	0	0	0	0	0	0	0	0.0	0	0.0	1	1	1	0
6406	S6	2019	9	24	22	0	0	0	0	0	0	0	0.0	0	0.0	1	1	1	0
6407	S6	2019	9	24	23	0	0	0	0	0	0	0	0.0	0	0.0	1	1	1	0
6408	S6	2019	9	24	24	0	0	0	0	0	0	0	0.0	0	0.0	1	1	1	0
6409	S6	2019	9	25	1	0	0	0	0	0	0	0	0.0	0	0.0	1	1	1	0
6410	S6	2019	9	25	2	0	0	0	0	0	0	0	0.0	0	0.0	1	1	1	0
6411	S6	2019	9	25	3	0	0	0	0	0	0	0	0.0	0	0.0	1	1	1	0
6412	S6	2019	9	25	4	0	0	0	0	0	0	0	0.0	0	0.0	1	1	1	0
6413	S6	2019	9	25	5	0	0	0	0	0	0	0	0.0	0	0.0	1	1	1	0
6414	S6	2019	9	25	6	0	0	0	0	0	0	0	0.0	0	0.0	1	1	1	0
6415	S6	2019	9	25	7	8.2327813196468593304189198534004390239715576171875	0.394853400486008976333351938592386431992053985595703125	8.220771082528710138603855739347636699676513671875	13.58438453445199911584495566785335540771484375	92.8528531965192058805769192986190319061279296875	0.80990991157454395032999627801473252475261688232421875	7.8166667430195797550140923704020678997039794921875	0.0	209.195889617937012872062041424214839935302734375	0.0	1	1	1	1
6416	S6	2019	9	25	8	31.827766386667800446730325347743928432464599609375	0.437940366731749020079433876162511296570301055908203125	31.780952978134099140561374952085316181182861328125	13.7788888772328004250766753102652728557586669921875	93.9916665183173023478957475163042545318603515625	1.2547222211956901016804977189167402684688568115234375	32.76666682213539871781904366798698902130126953125	0.0	913.6508986353879890884854830801486968994140625	0.0	1	1	1	1
6417	S6	2019	9	25	9	91.32780209647279434648226015269756317138671875	0.85258373013801003192924099494121037423610687255859375	91.1630765808952929774022777564823627471923828125	14.2511110915078003102962611592374742031097412109375	91.9683328416611942657254985533654689788818359375	1.3349999992383800861972531492938287556171417236328125	93.550000712275306113951955921947956085205078125	0.0	2588.61959924299981139483861625194549560546875	0.0	1	1	1	1
6418	S6	2019	9	25	10	124.526247003343002006658934988081455230712890625	0.61565022841095895511642765995929948985576629638671875	124.1633711920839999720556079410016536712646484375	14.7066666762033992910119195585139095783233642578125	89.41222231123180108625092543661594390869140625	2.065833332058450100277013916638679802417755126953125	114.5333334803570011217743740417063236236572265625	0.0	3276.83203816414015818736515939235687255859375	0.0	1	1	1	1
6419	S6	2019	9	25	11	133.109758228725013395887799561023712158203125	0.673688476781050038511011734954081475734710693359375	132.676049931844005413950071670114994049072265625	15.0288889567056997975669219158589839935302734375	88.957221794128400915724341757595539093017578125	2.251666667312380187837561607011593878269195556640625	128.6000009626139899410190992057323455810546875	0.0	3796.86371088027999576297588646411895751953125	0.0	1	1	1	1
6420	S6	2019	9	25	12	142.935486327277004647839930839836597442626953125	0.674097371432516023759262679959647357463836669921875	142.44581375121998689792235381901264190673828125	15.4555555952918997064671202679164707660675048828125	87.1461113611857030036844662390649318695068359375	2.111944439510499815781940924352966248989105224609375	139.300000419219003333637374453246593475341796875	0.0	3914.5678132772400203975848853588104248046875	0.0	1	1	1	1
6421	S6	2019	9	25	13	121.6474138153919994920215685851871967315673828125	0.76005702370570704662355865366407670080661773681640625	120.9722441143450026856953627429902553558349609375	15.7691666973961002184978497098200023174285888671875	86.292221980624702837303630076348781585693359375	2.117777769764260131779565199394710361957550048828125	123.63333335767100606972235254943370819091796875	0.0	3445.8166668812400530441664159297943115234375	0.0	1	1	1	1
6422	S6	2019	9	25	14	150.73474500444200430138153024017810821533203125	0.88237126022577194728313543237163685262203216552734375	150.088917647467013694040360860526561737060546875	16.29944412443369827769856783561408519744873046875	83.4155552122328032282894128002226352691650390625	1.959722218910850077833174509578384459018707275390625	142.3333336909610125076142139732837677001953125	0.0	3944.00601983070009737275540828704833984375	0.0	1	1	1	1
6423	S6	2019	9	25	15	68.36536977026190697870333679020404815673828125	0.4605950574080139858779148198664188385009765625	68.183838854895697068059234879910945892333984375	15.8380556477439995433087460696697235107421875	86.040833409627197170266299508512020111083984375	2.064722214887530160609685481176711618900299072265625	65.950000006705494115522014908492565155029296875	0.0	1861.694565912079951885971240699291229248046875	0.0	1	1	1	1
6424	S6	2019	9	25	16	56.917674615647996461120783351361751556396484375	0.48813676180110998625849560994538478553295135498046875	56.84711462656650127200919087044894695281982421875	15.4399999141693005100250957184471189975738525390625	86.9469441943698058139489148743450641632080078125	1.7569444433682399608898094811593182384967803955078125	53.43333352357149834688243572600185871124267578125	0.0	1516.055903832110061557614244520664215087890625	0.0	1	1	1	1
6425	S6	2019	9	25	17	30.745047956042800052500751917250454425811767578125	0.411346726367870008100879886114853434264659881591796875	30.724129994710200008967149187810719013214111328125	15.3824999464882008481936281896196305751800537109375	82.880833095974395519078825600445270538330078125	2.3288888887398702109976511565037071704864501953125	28.133333412309500687342733726836740970611572265625	0.0	794.620890915392010356299579143524169921875	0.0	1	1	1	1
6426	S6	2019	9	25	18	15.075181481200200295234026270918548107147216796875	0.3724412994485499783792192829423584043979644775390625	15.08438822853729988082704949192702770233154296875	14.8622534926507992025790372281335294246673583984375	83.1416902568978031240476411767303943634033203125	2.490985919640090084925532210036180913448333740234375	11.9833334135666991215884991106577217578887939453125	0.0	337.82775433501097950284020043909549713134765625	0.0	1	1	1	1
6427	S6	2019	9	25	19	1.307180391417599896186629848671145737171173095703125	0.372263742817772025350819831146509386599063873291015625	1.3308395014868799055562931243912316858768463134765625	14.56666660308830074654906638897955417633056640625	83.4666671752928976957264239899814128875732421875	3.6777777936723499152549266000278294086456298828125	0	0.0	0	0.0	1	1	1	0
6428	S6	2019	9	25	20	0	0	0	0	0	0	0	0.0	0	0.0	1	1	1	0
6429	S6	2019	9	25	21	0	0	0	0	0	0	0	0.0	0	0.0	1	1	1	0
6430	S6	2019	9	25	22	0	0	0	0	0	0	0	0.0	0	0.0	1	1	1	0
6431	S6	2019	9	25	23	0	0	0	0	0	0	0	0.0	0	0.0	1	1	1	0
6432	S6	2019	9	25	24	0	0	0	0	0	0	0	0.0	0	0.0	1	1	1	0
6433	S6	2019	9	26	1	0	0	0	0	0	0	0	0.0	0	0.0	1	1	1	0
6434	S6	2019	9	26	2	0	0	0	0	0	0	0	0.0	0	0.0	1	1	1	0
6435	S6	2019	9	26	3	0	0	0	0	0	0	0	0.0	0	0.0	1	1	1	0
6436	S6	2019	9	26	4	0	0	0	0	0	0	0	0.0	0	0.0	1	1	1	0
6437	S6	2019	9	26	5	0	0	0	0	0	0	0	0.0	0	0.0	1	1	1	0
6438	S6	2019	9	26	6	0	0	0	0	0	0	0.050000002374875000821230486280910554341971874237060546875	0.0	0	0.0	1	1	1	0
6439	S6	2019	9	26	7	7.713259187237969882744437200017273426055908203125	0.4393313702744749971174087477265857160091400146484375	7.7558843973662003890012783813290297985076904296875	13.2605015327189992291323505924083292484283447265625	88.9451412332469004695667535997927188873291015625	1.3394984294628200505172799239517189562320709228515625	7.13333337916988963200992657220922410488128662109375	0.0	189.030568348243008358622319065034389495849609375	0.0	1	1	1	1
6440	S6	2019	9	26	8	36.991097378730700029336730949580669403076171875	0.489255523433286987344814633615897037088871002197265625	37.001141942871896617361926473677158355712890625	13.5855555507871006426512394682504236698150634765625	89.212499809265096928356797434389591217041015625	2.14055555057194002444020952680148184299468994140625	39.70000029851990319684773567132651805877685546875	0.0	1070.232167219119901346857659518718719482421875	0.0	1	1	1	1
6441	S6	2019	9	26	9	53.85944090949160312220556079410016536712646484375	0.50995520701010998987356970246764831244945526123046875	53.8038476838004982027996447868645191192626953125	13.8961110512414993678476093919016420841217041015625	88.9622222900389942878973670303821563720703125	1.980555554231000048304167648893781006336212158203125	49.9000000456968990647510509006679058074951171875	0.0	1384.773910790680019999854266643524169921875	0.0	1	1	1	1
6442	S6	2019	9	26	10	95.27198679182259866138338111340999603271484375	0.6407934765848839475665954523719847202301025390625	95.053118567996506271811085753142833709716796875	14.351388886239700326541424146853387355804443359375	87.8477780236137988367772777564823627471923828125	2.168333329674270171238958937465213239192962646484375	98.6833343282338972812794963829219341278076171875	0.0	2755.9671238064702265546657145023345947265625	0.0	1	1	1	1
6443	S6	2019	9	26	11	179.403442912630993077982566319406032562255859375	0.88606811737020796382324760998017154633998870849609375	178.56008892059298887033946812152862548828125	14.8497222291097994428810125100426375865936279296875	86.2908332824707002828290569595992565155029296875	2.803888886753049813904681286658160388469696044921875	183.71666756768900086171925067901611328125	0.0	5033.3044211069800439872778952121734619140625	0.0	1	1	1	1
6444	S6	2019	9	26	12	156.25724385579400177448405884206295013427734375	0.74085272236002797097143002247321419417858123779296875	155.6742936664149965508840978145599365234375	15.4791665739482997565801269956864416599273681640625	84.9658332612778934844754985533654689788818359375	2.84166666335528983466929275891743600368499755859375	153.76666747033499405006296001374721527099609375	0.0	4261.6441796223298297263681888580322265625	0.0	1	1	1	1
6445	S6	2019	9	26	13	160.252991718716003788358648307621479034423828125	0.83551953948206303390833227240364067256450653076171875	159.438069746228990197778330184519290924072265625	16.20972226725680087611181079410016536712646484375	83.558611170450802774212206713855266571044921875	2.66416665787498008199918331229127943515777587890625	146.350000177819993041339330375194549560546875	0.0	4041.8244014183701438014395534992218017578125	0.0	1	1	1	1
6446	S6	2019	9	26	14	65.478405160042001398323918692767620086669921875	0.4730876334494860113721870220615528523921966552734375	65.197009094950004737256676889955997467041015625	16.05830915189689989119870006106793880462646484375	85.65131155742500368432956747710704803466796875	2.888921282294880210628207350964657962322235107421875	59.2000000799695982323100906796753406524658203125	0.0	1691.9629372656299892696551978588104248046875	0.0	1	1	1	1
6447	S6	2019	9	26	15	114.867131874296006799340830184519290924072265625	1.5591206903465899547001072278362698853015899658203125	114.1478699472209967780145234428346157073974609375	15.651111054420400847675409750081598758697509765625	91.8699997584024998786844662390649318695068359375	2.32944444053701982255688562872819602489471435546875	123.2999995506049941695891902782022953033447265625	0.0	3388.1245297690102233900688588619232177734375	0.0	1	1	1	1
6448	S6	2019	9	26	16	174.42509501747900912960176356136798858642578125	50.98781494418440018989713280461728572845458984375	157.118508950256995149175054393708705902099609375	16.14159566113070098936077556572854518890380859375	88.7142452446482963068774552084505558013916015625	2.569230760009869829474382640910334885120391845703125	183.48333338896401301099103875458240509033203125	0.0	4691.154141227400032221339643001556396484375	0.0	1	1	1	1
6449	S6	2019	9	26	17	86.6705202724275949321963707916438579559326171875	12.6905836302754995159602913190610706806182861328125	83.839318628762697471756837330758571624755859375	15.732869185445000681511373841203749179840087890625	88.613927177067893126150011084973812103271484375	2.391643447464220084697217316715978085994720458984375	78.9000001735985989625987713225185871124267578125	0.0	2058.59566306074020758387632668018341064453125	0.0	1	1	1	1
6450	S6	2019	9	26	18	20.2461145500981984923782874830067157745361328125	2.98407817482948001241993551957421004772186279296875	20.195027432134001088570585125125944614410400390625	15.1525805657909007351236141403205692768096923828125	91.159677443965705379014252685010433197021484375	2.6458064509976200184837580309249460697174072265625	14.6666667016689000746509918826632201671600341796875	0.0	389.99319217012401850297464989125728607177734375	0.0	1	1	1	1
6451	S6	2019	9	26	19	0	0	0	0	0	0	0.03333333491658330149931543928687460720539093017578125	0.0	0	0.0	1	1	1	0
6452	S6	2019	9	26	20	0	0	0	0	0	0	0	0.0	0	0.0	1	1	1	0
6453	S6	2019	9	26	21	0	0	0	0	0	0	0	0.0	0	0.0	1	1	1	0
6454	S6	2019	9	26	22	0	0	0	0	0	0	0	0.0	0	0.0	1	1	1	0
6455	S6	2019	9	26	23	0	0	0	0	0	0	0	0.0	0	0.0	1	1	1	0
6456	S6	2019	9	26	24	0	0	0	0	0	0	0	0.0	0	0.0	1	1	1	0
6457	S6	2019	9	27	1	0	0	0	0	0	0	0	0.0	0	0.0	1	1	1	0
6458	S6	2019	9	27	2	0	0	0	0	0	0	0	0.0	0	0.0	1	1	1	0
6459	S6	2019	9	27	3	0	0	0	0	0	0	0	0.0	0	0.0	1	1	1	0
6460	S6	2019	9	27	4	0	0	0	0	0	0	0	0.0	0	0.0	1	1	1	0
6461	S6	2019	9	27	5	0	0	0	0	0	0	0	0.0	0	0.0	1	1	1	0
6462	S6	2019	9	27	6	0	0	0	0	0	0	0	0.0	0	0.0	1	1	1	0
6463	S6	2019	9	27	7	2.351076988092919872741504150326363742351531982421875	0.41326316547090702346878288153675384819507598876953125	2.361502544985980112102197381318546831607818603515625	14.6758474980369992834994263830594718456268310546875	97.9360171172578048981449683196842670440673828125	2.35677965743056017089429587940685451030731201171875	1.4166667009703799440245575169683434069156646728515625	0.0	28.574701903077500020344814402051270008087158203125	0.0	1	1	1	1
6464	S6	2019	9	27	8	11.79295058515329941428717575035989284515380859375	0.457800172103774993814795379876159131526947021484375	11.8481662525071005376275934395380318164825439453125	14.760555585225400676563367596827447414398193359375	98.771944978502006051712669432163238525390625	2.500000003311360075031188898719847202301025390625	11.566666808600199800594054977409541606903076171875	0.0	305.47451221694501555248280055820941925048828125	0.0	1	1	1	1
6465	S6	2019	9	27	9	35.38861789173549965425991103984415531158447265625	0.5047873618702090059429110624478198587894439697265625	35.46953950723010251522282487712800502777099609375	15.067222245534200197880636551417410373687744140625	98.88722394307450258565950207412242889404296875	2.646666658090219836907408534898422658443450927734375	37.46666687851149646348858368583023548126220703125	0.0	1060.076823085539899693685583770275115966796875	0.0	1	1	1	1
6466	S6	2019	9	27	10	67.7566608746845986388507299125194549560546875	0.59902309270368603311140986988903023302555084228515625	67.77590005662699468302889727056026458740234375	15.407777727974700354707238147966563701629638671875	98.75861150953500100513338111340999603271484375	2.038055550969299911656662516179494559764862060546875	65.1500002170601959505802369676530361175537109375	0.0	1851.621598005290024957503192126750946044921875	0.0	1	1	1	1
6467	S6	2019	9	27	11	81.6577118069100009734029299579560756683349609375	0.64298425858330399140783129041665233671665191650390625	81.4417422523710996529189287684857845306396484375	15.68798888062629970363559550605714321136474609375	98.5851946143464061833583400584757328033447265625	1.558100550950570095665170811116695404052734375	82.750000928839000380321522243320941925048828125	0.0	2386.7945405344098617206327617168426513671875	0.0	1	1	1	1
6468	S6	2019	9	27	12	105.6009019321860051832118188031017780303955078125	0.66219602417614698008918594496208243072032928466796875	105.454962656232993367666495032608509063720703125	15.336944439675999518613025429658591747283935546875	94.20777753194170145434327423572540283203125	1.6091666616499400443984768571681343019008636474609375	109.3499992663659980962620466016232967376708984375	0.0	3215.44618109860994081827811896800994873046875	0.0	1	1	1	1
6469	S6	2019	9	27	13	189.401787821450994897531927563250064849853515625	5.85214923992753011106060512247495353221893310546875	185.857672797308993040132918395102024078369140625	16.10527788798010107029767823405563831329345703125	90.8086109373303997926996089518070220947265625	1.329444445586859924191003301530145108699798583984375	204.333333671091992300716810859739780426025390625	0.0	5756.092957655569989583455026149749755859375	0.0	1	1	1	1
6470	S6	2019	9	27	14	321.41530193969998663305887021124362945556640625	73.4380354173162999131818651221692562103271484375	282.771191675778027274645864963531494140625	17.643304813960998700395066407509148120880126953125	83.047293921141800865370896644890308380126953125	1.6131054111185900712399643452954478561878204345703125	327.1666673322509950594394467771053314208984375	0.0	8623.27437202132932725362479686737060546875	0.0	1	1	1	1
6471	S6	2019	9	27	15	346.79573968488301716206478886306285858154296875	409.59233564275001526766573078930377960205078125	176.097399779922994866865337826311588287353515625	18.26819481070879902517845039255917072296142578125	76.37306580639159392376313917338848114013671875	1.746991403550330002047985544777475297451019287109375	395.68333427111201672232709825038909912109375	0.0	9707.973474264139440492726862430572509765625	0.0	1	1	1	1
6472	S6	2019	9	27	16	235.36053382744199780063354410231113433837890625	311.8766867184140210156328976154327392578125	130.383102136816006577646476216614246368408203125	18.3545198332790988615670357830822467803955078125	74.075423612432899744817405007779598236083984375	1.4819209021700299189205907168798148632049560546875	239.7333328922589998910552822053432464599609375	0.0	5859.75490907827042974531650543212890625	0.0	1	1	1	1
6473	S6	2019	9	27	17	111.7500353919130020585726015269756317138671875	144.89975436727200985842500813305377960205078125	87.1896915753682009153635590337216854095458984375	17.28666674296059824200710863806307315826416015625	78.6466667175292997171709430404007434844970703125	2.03555554995933984940847949474118649959564208984375	125.9166672825810024960446753539144992828369140625	0.0	2858.78054797649019747041165828704833984375	0.0	1	1	1	1
6474	S6	2019	9	27	18	32.16937969520329687611592817120254039764404296875	54.587068893688098114580498076975345611572265625	26.8151339208800010283084702678024768829345703125	16.20468243946589836923521943390369415283203125	81.9050162580100931108972872607409954071044921875	1.3719063508869400180856246151961386203765869140625	24.166666762903300735843004076741635799407958984375	0.0	589.66981595537299654097296297550201416015625	0.0	1	1	1	1
6475	S6	2019	9	27	19	0	0	0	0	0	0	0	0.0	0.21012999738255999648828264980693347752094268798828125	0.0	1	1	1	0
6476	S6	2019	9	27	20	0	0	0	0	0	0	0	0.0	0	0.0	1	1	1	0
6477	S6	2019	9	27	21	0	0	0	0	0	0	0	0.0	0	0.0	1	1	1	0
6478	S6	2019	9	27	22	0	0	0	0	0	0	0	0.0	0	0.0	1	1	1	0
6479	S6	2019	9	27	23	0	0	0	0	0	0	0	0.0	0	0.0	1	1	1	0
6480	S6	2019	9	27	24	0	0	0	0	0	0	0	0.0	0	0.0	1	1	1	0
6481	S6	2019	9	28	1	0	0	0	0	0	0	0	0.0	0	0.0	1	1	1	0
6482	S6	2019	9	28	2	0	0	0	0	0	0	0	0.0	0	0.0	1	1	1	0
6483	S6	2019	9	28	3	0	0	0	0	0	0	0	0.0	0	0.0	1	1	1	0
6484	S6	2019	9	28	4	0	0	0	0	0	0	0	0.0	0	0.0	1	1	1	0
6485	S6	2019	9	28	5	0	0	0	0	0	0	0	0.0	0	0.0	1	1	1	0
6486	S6	2019	9	28	6	0	0	0	0	0	0	0	0.0	0	0.0	1	1	1	0
6487	S6	2019	9	28	7	15.07030174206870043462913599796593189239501953125	13.191362537519399467100811307318508625030517578125	13.6892641524137008701700324309058487415313720703125	13.5559322777441000340559185133315622806549072265625	93.6457624273785000923453480936586856842041015625	1.2288135573015299684129786328412592411041259765625	12.56666660774489940877174376510083675384521484375	0.0	341.81167844993302651346311904489994049072265625	0.0	1	1	1	1
6488	S6	2019	9	28	8	91.626011965009894311151583679020404815673828125	76.61575318326549677294678986072540283203125	77.5572663942972013728649471886456012725830078125	14.0516667207081997759132718783803284168243408203125	91.5249996185302023832264239899814128875732421875	1.5480555537674101085343636441393755376338958740234375	84.3500001356004958097400958649814128875732421875	0.0	2261.47188593943019441212527453899383544921875	0.0	1	1	1	1
6489	S6	2019	9	28	9	191.10922133754598917221301235258579254150390625	259.34038356861600504998932592570781707763671875	115.8505767392440048979551647789776325225830078125	15.083661882642200424697875860147178173065185546875	85.4921131402673069032971397973597049713134765625	1.9622535203544100301797925567370839416980743408203125	176.466667155424005386521457694470882415771484375	0.0	4677.9375389218403142876923084259033203125	0.0	1	1	1	1
6490	S6	2019	9	28	10	248.393922082308989729426684789359569549560546875	109.2995143190189963888769852928817272186279296875	201.73494575763498914966476149857044219970703125	15.6204022813116996104554345947690308094024658203125	81.6649427304322017562299151904881000518798828125	2.147701153124879969169569449150003492832183837890625	238.483333090940988086003926582634449005126953125	0.0	6526.87812348205989110283553600311279296875	0.0	1	1	1	1
6491	S6	2019	9	28	11	240.3571442857299871320719830691814422607421875	95.19720470526459621396497823297977447509765625	192.31324677548099089108291082084178924560546875	16.223446398804998835885271546430885791778564453125	77.332203170000497038927278481423854827880859375	2.00310734091168018977668907609768211841583251953125	235.883333037297006740118376910686492919921875	0.0	6434.2891047398197770235128700733184814453125	0.0	1	1	1	1
6492	S6	2019	9	28	12	290.16037576848799517392762936651706695556640625	134.74093079905600234269513748586177825927734375	217.13223166899200577972806058824062347412109375	16.554261272603799426406112615950405597686767578125	74.7451705499127996290553710423409938812255859375	2.143181813965460147386465905583463609218597412109375	301.51666526993102479536901228129863739013671875	0.0	8074.3274072806098047294653952121734619140625	0.0	1	1	1	1
6493	S6	2019	9	28	13	361.00477652116200033560744486749172210693359375	160.24757190762198888478451408445835113525390625	274.2639894485470222207368351519107818603515625	17.344318129799500383114718715660274028778076171875	71.123863393610093908137059770524501800537109375	2.336079540747129978939256034209392964839935302734375	361.49999822179398734078858979046344757080078125	0.0	9645.31455834705047891475260257720947265625	0.0	1	1	1	1
6494	S6	2019	9	28	14	166.08378277549201129659195430576801300048828125	30.7607378361605015015811659395694732666015625	150.23952229415300507753272540867328643798828125	16.3234177993821987229239312000572681427001953125	77.486076427411404665690497495234012603759765625	2.111075946330259966998710297048091888427734375	169.01666671037600053750793449580669403076171875	0.0	4681.9033329685598801006563007831573486328125	0.0	1	1	1	1
6495	S6	2019	9	28	15	297.4161475686460107681341469287872314453125	226.0231428754090075017302297055721282958984375	203.48061804677899999660439789295196533203125	15.6086834872804001150825570221059024333953857421875	79.0630254024217009600761230103671550750732421875	1.7036414522917600056217679593828506767749786376953125	321.166666845479994663037359714508056640625	0.0	8405.73244889574925764463841915130615234375	0.0	1	1	1	1
6496	S6	2019	9	28	16	175.20829335162198958641965873539447784423828125	92.31848736451860304441652260720729827880859375	144.1631769801909968009567819535732269287109375	16.413370467162000210237238206900656223297119140625	75.9902509939038992570203845389187335968017578125	1.7849582131526500194951267985743470489978790283203125	166.1166674147040112075046636164188385009765625	0.0	4391.413590312009546323679387569427490234375	0.0	1	1	1	1
6497	S6	2019	9	28	17	91.143574216630696582797099836170673370361328125	53.24648065161370169562360388226807117462158203125	82.520766544341995540889911353588104248046875	16.15166673660269935908218030817806720733642578125	76.8150000254313027880925801582634449005126953125	1.36527777537702998955637667677365243434906005859375	91.649999873091502422539633698761463165283203125	0.0	2218.47548807659995873109437525272369384765625	0.0	1	1	1	1
6498	S6	2019	9	28	18	16.72472829053830167822525254450738430023193359375	0.4494101226126370196567449966096319258213043212890625	16.937550933694598853662682813592255115509033203125	15.3546075755825004449661719263531267642974853515625	78.7351538492143987468807608820497989654541015625	1.3249146778632299170652686370885930955410003662109375	9.9000000394880895981941648642532527446746826171875	0.0	296.53204957333701941024628467857837677001953125	0.0	1	1	1	1
6499	S6	2019	9	28	19	0	0	0	0	0	0	0	0.0	0	0.0	1	1	1	0
6500	S6	2019	9	28	20	0	0	0	0	0	0	0	0.0	0	0.0	1	1	1	0
6501	S6	2019	9	28	21	0	0	0	0	0	0	0	0.0	0	0.0	1	1	1	0
6502	S6	2019	9	28	22	0	0	0	0	0	0	0	0.0	0	0.0	1	1	1	0
6503	S6	2019	9	28	23	0	0	0	0	0	0	0	0.0	0	0.0	1	1	1	0
6504	S6	2019	9	28	24	0	0	0	0	0	0	0	0.0	0	0.0	1	1	1	0
6505	S6	2019	9	29	1	0	0	0	0	0	0	0	0.0	0	0.0	1	1	1	0
6506	S6	2019	9	29	2	0	0	0	0	0	0	0	0.0	0	0.0	1	1	1	0
6507	S6	2019	9	29	3	0	0	0	0	0	0	0	0.0	0	0.0	1	1	1	0
6508	S6	2019	9	29	4	0	0	0	0	0	0	0	0.0	0	0.0	1	1	1	0
6509	S6	2019	9	29	5	0	0	0	0	0	0	0	0.0	0	0.0	1	1	1	0
6510	S6	2019	9	29	6	0	0	0	0	0	0	0	0.0	0	0.0	1	1	1	0
6511	S6	2019	9	29	7	22.339047518643400991322778281755745410919189453125	3.98002332669090019834357008221559226512908935546875	22.20537648959589915875767474062740802764892578125	13.4642045443707996099647061782889068126678466796875	88.9221582412719016019764239899814128875732421875	2.2278408994051499547595085459761321544647216796875	14.76666687522079968175603426061570644378662109375	0.0	424.8548019599789995481842197477817535400390625	0.0	1	1	1	1
6512	S6	2019	9	29	8	119.482000234390994819477782584726810455322265625	318.78411703440798419251223094761371612548828125	56.25693023469710141171162831597030162811279296875	14.2650000095367008867697222740389406681060791015625	85.8566668192544995008574915118515491485595703125	2.90888889167043007688562283874489367008209228515625	84.4499999657274003084239666350185871124267578125	0.0	1952.537203580139930636505596339702606201171875	0.0	1	1	1	1
6513	S6	2019	9	29	9	256.28474047987498352085822261869907379150390625	471.53185607995101236156187951564788818359375	109.62296558688200320830219425261020660400390625	15.275208951370899512767209671437740325927734375	82.0869080694937025555191212333738803863525390625	2.767688020856259978330626836395822465419769287109375	244.99999955296499365431373007595539093017578125	0.0	6488.80234956740969209931790828704833984375	0.0	1	1	1	1
6514	S6	2019	9	29	10	323.93253151350501184424501843750476837158203125	354.08990334282498224638402462005615234375	181.69853953936899415566585958003997802734375	16.110198445090400554136067512445151805877685546875	76.625495348706095910529256798326969146728515625	2.42152974617378990984661868424154818058013916015625	304.883332550524983162176795303821563720703125	0.0	8320.76037128766984096728265285491943359375	0.0	1	1	1	1
6515	S6	2019	9	29	11	291.87361282926900685197324492037296295166015625	175.160941636074994676164351403713226318359375	207.029209148083992886313353665173053741455078125	16.48017493489879825574462302029132843017578125	72.51516049665889340758440084755420684814453125	2.363265297677000109644041003775782883167266845703125	286.99999898672098197494051419198513031005859375	0.0	7806.0342490673201609752140939235687255859375	0.0	1	1	1	1
6516	S6	2019	9	29	12	265.54635156827998798689804971218109130859375	29.824163781733201261658905423246324062347412109375	247.55549196546098755788989365100860595703125	16.795264443315101487996798823587596416473388671875	71.55292445105760634760372340679168701171875	1.995543171353320044403290012269280850887298583984375	257.249999543030980930780060589313507080078125	0.0	7203.7417173385501882876269519329071044921875	0.0	1	1	1	1
6517	S6	2019	9	29	13	134.514490394462001177089405246078968048095703125	0.63846142327495603030484971895930357277393341064453125	133.9204718423779922886751592159271240234375	15.4740615102617997678180472576059401035308837890625	83.6812289241230047309727524407207965850830078125	1.8839590446737399798138312689843587577342987060546875	112.1833334056040030191070400178432464599609375	0.0	3294.3863434096201672218739986419677734375	0.0	1	1	1	1
6518	S6	2019	9	29	14	102.9942543241709955736951087601482868194580078125	0.614776481191317003549556829966604709625244140625	102.7595659679829935839734389446675777435302734375	14.2650000095367008867697222740389406681060791015625	93.071666717529296875	2.18944444515638014792102694627828896045684814453125	98.933333531022100260088336654007434844970703125	0.0	2896.67684932549991572159342467784881591796875	0.0	1	1	1	1
6519	S6	2019	9	29	15	77.9584049436781043596056406386196613311767578125	0.62986529949638503378395171239390037953853607177734375	77.89755449295040534707368351519107818603515625	14.573333374659199535017251037061214447021484375	89.5916662851968936820412636734545230865478515625	1.996944438748879946388115058653056621551513671875	74.683333871265205061718006618320941925048828125	0.0	2174.59305425483989893109537661075592041015625	0.0	1	1	1	1
6520	S6	2019	9	29	16	59.15776013268359889707426191307604312896728515625	0.54284650029407599536313000498921610414981842041015625	59.3598535219827994069419219158589839935302734375	14.680000003178900414013696718029677867889404296875	87.5983329772949019798033987171947956085205078125	1.4863888897001700239997035168926231563091278076171875	54.83333307007939794175399583764374256134033203125	0.0	1594.8825900753299720236100256443023681640625	0.0	1	1	1	1
6521	S6	2019	9	29	17	28.865492441919098354219386237673461437225341796875	0.428351337379879015809791553692775778472423553466796875	28.7337117566002007151837460696697235107421875	14.286666584014799497026615426875650882720947265625	89.9700004577636036628973670303821563720703125	1.4244444403383400565843430740642361342906951904296875	25.233333356057499941016430966556072235107421875	0.0	758.7540313601490424844087101519107818603515625	0.0	1	1	1	1
6522	S6	2019	9	29	18	9.3913741680352291751887605641968548297882080078125	0.412858392798193973849407711895764805376529693603515625	9.43575733939282912388080148957669734954833984375	13.79342102377029988247159053571522235870361328125	92.4000003714310054192537791095674037933349609375	1.221710526629490090044782846234738826751708984375	6.0833334146688198273977832286618649959564208984375	0.0	190.451569529250008372400770895183086395263671875	0.0	1	1	1	1
6523	S6	2019	9	29	19	0	0	0	0	0	0	0	0.0	0	0.0	1	1	1	0
6524	S6	2019	9	29	20	0	0	0	0	0	0	0	0.0	0	0.0	1	1	1	0
6525	S6	2019	9	29	21	0	0	0	0	0	0	0	0.0	0	0.0	1	1	1	0
6526	S6	2019	9	29	22	0	0	0	0	0	0	0	0.0	0	0.0	1	1	1	0
6527	S6	2019	9	29	23	0	0	0	0	0	0	0	0.0	0	0.0	1	1	1	0
6528	S6	2019	9	29	24	0	0	0	0	0	0	0	0.0	0	0.0	1	1	1	0
6529	S6	2019	9	30	1	0	0	0	0	0	0	0	0.0	0	0.0	1	1	1	0
6530	S6	2019	9	30	2	0	0	0	0	0	0	0	0.0	0	0.0	1	1	1	0
6531	S6	2019	9	30	3	0	0	0	0	0	0	0	0.0	0	0.0	1	1	1	0
6532	S6	2019	9	30	4	0	0	0	0	0	0	0	0.0	0	0.0	1	1	1	0
6533	S6	2019	9	30	5	0	0	0	0	0	0	0	0.0	0	0.0	1	1	1	0
6534	S6	2019	9	30	6	0	0	0	0	0	0	0	0.0	0	0.0	1	1	1	0
6535	S6	2019	9	30	7	4.53703461784736017392560825101099908351898193359375	0.428247121836356992030658830117317847907543182373046875	4.5422071648997199844188799033872783184051513671875	12.902371451788699374674251885153353214263916015625	96.60158104576140658537042327225208282470703125	0.947035575101498050543114004540257155895233154296875	3.41666669507196996136144662159495055675506591796875	0.0	93.6334098068376050605365890078246593475341796875	0.0	1	1	1	1
6536	S6	2019	9	30	8	16.594560281435601467592277913354337215423583984375	0.440671398573451000846290526169468648731708526611328125	16.648083970281799537360711838118731975555419921875	12.922222132152899831680770148523151874542236328125	96.1900010850693973907254985533654689788818359375	1.4369444463815899126757358317263424396514892578125	16.700000083073899048713428783230483531951904296875	0.0	489.57165709386100616029580123722553253173828125	0.0	1	1	1	1
6537	S6	2019	9	30	9	62.7753444936540034859717707149684429168701171875	0.56281711003846501828462578487233258783817291259765625	62.835827403598301543752313591539859771728515625	13.0377777788374000778048866777680814266204833984375	95.30555585225420145434327423572540283203125	1.5261111129489199900177709423587657511234283447265625	64.5666666018467054755092249251902103424072265625	0.0	1893.50673854350998226436786353588104248046875	0.0	1	1	1	1
6538	S6	2019	9	30	10	173.6868771023220006100018508732318878173828125	35.84476315594380224638371146284043788909912109375	157.539580917357994849226088263094425201416015625	13.47944453557330035664563183672726154327392578125	91.6955557505288965103318332694470882415771484375	2.488333337174520210055561619810760021209716796875	181.550000732142990500506130047142505645751953125	0.0	5072.835306326540376176126301288604736328125	0.0	1	1	1	1
6539	S6	2019	9	30	11	226.5204915788430071188486181199550628662109375	4.71291913845471999167102694627828896045684814453125	223.2590262942840126925148069858551025390625	14.0694444285498008184731588698923587799072265625	85.385000016954194279605871997773647308349609375	2.757777774830649786252934063668362796306610107421875	224.016666784882005458712228573858737945556640625	0.0	6345.04024485744957928545773029327392578125	0.0	1	1	1	1
6540	S6	2019	9	30	12	188.9092842424410036983317695558071136474609375	5.218578919642400393286152393557131290435791015625	184.580019518354987440034165047109127044677734375	14.23605637617509955816785804927349090576171875	81.8819720201089040756414760835468769073486328125	2.931267602678750083811110016540624201297760009765625	183.383333931365996249951422214508056640625	0.0	5020.1001197099603814422152936458587646484375	0.0	1	1	1	1
6541	S6	2019	9	30	13	243.07850660051599334110505878925323486328125	48.6404283544846975928521715104579925537109375	216.55472159249399055624962784349918365478515625	15.098285759517100501625463948585093021392822265625	74.552571454729303468411671929061412811279296875	3.464857138225009958176769941928796470165252685546875	234.633332490920992086103069595992565155029296875	0.0	6391.1948730548101593740284442901611328125	0.0	1	1	1	1
6542	S6	2019	9	30	14	250.88182029384500992819084785878658294677734375	204.19922299691899070239742286503314971923828125	152.67847118886999169262708164751529693603515625	14.8077151952227996645206076209433376789093017578125	68.1967359141001026046069455333054065704345703125	4.23264094559304027143298299051821231842041015625	293.0666667719680162917939014732837677001953125	0.0	7686.1690898736296730930916965007781982421875	0.0	1	1	1	1
6543	S6	2019	9	30	15	235.942564857076007456271327100694179534912109375	173.778832680463011683968943543732166290283203125	164.550604035867991115082986652851104736328125	14.5781064654242999978350781020708382129669189453125	64.0363906092896968402783386409282684326171875	4.47159763482900007858233948354609310626983642578125	229.183333118755996338222757913172245025634765625	0.0	5978.0134489138899880344979465007781982421875	0.0	1	1	1	1
6544	S6	2019	9	30	16	151.05556152433200622908771038055419921875	98.9643140968776009458451881073415279388427734375	123.4817364935999961517154588364064693450927734375	13.929325495297600667754522874020040035247802734375	67.48387112435699464185745455324649810791015625	4.7961876836340398000402274192310869693756103515625	172.71666694432400390724069438874721527099609375	0.0	5530.3272798657299063052050769329071044921875	0.0	1	1	1	1
6545	S6	2019	9	30	17	110.43308676061400319667882286012172698974609375	234.299899811139994199038483202457427978515625	69.4982873513664998199601541273295879364013671875	13.56309864957560051834661862812936305999755859375	66.3780280959438044874332263134419918060302734375	4.19971830844878990518509453977458178997039794921875	113.9333337855830023954695207066833972930908203125	0.0	2640.4517568647797816083766520023345947265625	0.0	1	1	1	1
6546	S6	2019	9	30	18	29.764914064644898417100193910300731658935546875	76.1734196570208013099545496515929698944091796875	24.39429285348089848639574483968317508697509765625	13.01708178672920013241309789009392261505126953125	63.78291869248359802213599323295056819915771484375	4.247330947490770114427505177445709705352783203125	20.433333316274598701056675054132938385009765625	0.0	535.806508820194039799389429390430450439453125	0.0	1	1	1	1
6547	S6	2019	9	30	19	0	0	0	0	0	0	0	0.0	0	0.0	1	1	1	0
6548	S6	2019	9	30	20	0	0	0	0	0	0	0	0.0	0	0.0	1	1	1	0
6549	S6	2019	9	30	21	0	0	0	0	0	0	0	0.0	0	0.0	1	1	1	0
6550	S6	2019	9	30	22	0	0	0	0	0	0	0	0.0	0	0.0	1	1	1	0
6551	S6	2019	9	30	23	0	0	0	0	0	0	0	0.0	0	0.0	1	1	1	0
6552	S6	2019	9	30	24	0	0	0	0	0	0	0	0.0	0	0.0	1	1	1	0
6553	S6	2019	10	1	1	0	0	0	0	0	0	0	0.0	0	0.0	1	1	1	0
6554	S6	2019	10	1	2	0	0	0	0	0	0	0	0.0	0	0.0	1	1	1	0
6555	S6	2019	10	1	3	0	0	0	0	0	0	0	0.0	0	0.0	1	1	1	0
6556	S6	2019	10	1	4	0	0	0	0	0	0	0	0.0	0	0.0	1	1	1	0
6557	S6	2019	10	1	5	0	0	0	0	0	0	0	0.0	0	0.0	1	1	1	0
6558	S6	2019	10	1	6	0	0	0	0	0	0	0	0.0	0	0.0	1	1	1	0
6559	S6	2019	10	1	7	14.1995889128199994644319303915835916996002197265625	0.89332307804198496370418070000596344470977783203125	14.3839204784423007055238485918380320072174072265625	9.171825477055140396487331599928438663482666015625	73.021427820599200231299619190394878387451171875	1.3944444447046200341588928495184518396854400634765625	10.833333325960300186352469609118998050689697265625	0.0	337.21691920266897568581043742597103118896484375	0.0	1	1	1	1
6560	S6	2019	10	1	8	46.6269756952921028414493775926530361175537109375	0.54772446693645504556258174488903023302555084228515625	46.7900879330104970676984521560370922088623046875	9.560555611716370805197584559209644794464111328125	73.005555555555503133291495032608509063720703125	1.376111114521819889233711364795453846454620361328125	48.0999999990064992516636266373097896575927734375	0.0	1439.3442712724199736840091645717620849609375	0.0	1	1	1	1
6561	S6	2019	10	1	9	110.739856211344005032515269704163074493408203125	1.3364850213130299305674952847766689956188201904296875	110.4319657643629994936418370343744754791259765625	9.97333337995740976111846975982189178466796875	73.3711115095349981629624380730092525482177734375	0.98416666918330697466643641746486537158489227294921875	111.7166671901940020461552194319665431976318359375	0.0	3307.03151424725001561455428600311279296875	0.0	1	1	1	1
6562	S6	2019	10	1	10	135.4933666865030090775690041482448577880859375	1.0871026636825600331093255590531043708324432373046875	135.1156424416429899793001823127269744873046875	10.7544444719950007538500358350574970245361328125	70.9027779473198052073712460696697235107421875	1.54249999680452010153430819627828896045684814453125	132.949999968209993994605611078441143035888671875	0.0	4019.2375411589900977560319006443023681640625	0.0	1	1	1	1
6563	S6	2019	10	1	11	154.67370160420699676251388154923915863037109375	0.8816034028927479671011724349227733910083770751953125	154.305091603596991944868932478129863739013671875	11.0899999830457005600692355073988437652587890625	68.93888905843090242342441342771053314208984375	1.3594444421430400549155592671013437211513519287109375	151.4000010987130053763394244015216827392578125	0.0	4599.3775914112602549721486866474151611328125	0.0	1	1	1	1
6564	S6	2019	10	1	12	139.604922358193988429775345139205455780029296875	0.68524681188993896707728481487720273435115814208984375	139.21161507500499965317430905997753143310546875	11.242777797910900261513233999721705913543701171875	67.7883328755695941936210147105157375335693359375	1.2130555578404000893755210199742577970027923583984375	133.28333335618100363717530854046344757080078125	0.0	4039.878336588530146400444209575653076171875	0.0	1	1	1	1
6565	S6	2019	10	1	13	98.238541327582396434081601910293102264404296875	0.60283640192614595942899313740781508386135101318359375	97.927870157029900610723416320979595184326171875	11.0994445959725993589017889462411403656005859375	68.5161112467446997698061750270426273345947265625	1.3386111098858999302052552593522705137729644775390625	96.3333334773783036553140846081078052520751953125	0.0	2948.271812995270011015236377716064453125	0.0	1	1	1	1
6566	S6	2019	10	1	14	113.5023096932300035177831887267529964447021484375	0.6604424721664849950997222549631260335445404052734375	113.0537151760519947174543631263077259063720703125	11.2294444878895998130019506788812577724456787109375	67.7350003984239066312511567957699298858642578125	1.5661111048526199507335832095122896134853363037109375	110.9666665395090063839234062470495700836181640625	0.0	3359.30749575297022602171637117862701416015625	0.0	1	1	1	1
6567	S6	2019	10	1	15	156.867178853351987299902248196303844451904296875	3.408341853320589809328566843760199844837188720703125	155.21983979543000486955861561000347137451171875	11.6005555523765995218354873941279947757720947265625	63.77388854556610198187627247534692287445068359375	1.2730555535190599680817058469983749091625213623046875	158.650000517567008273545070551335811614990234375	0.0	4675.113331278160330839455127716064453125	0.0	1	1	1	1
6568	S6	2019	10	1	16	110.79984366099000681060715578496456146240234375	0.61951182029313500709832851498504169285297393798828125	110.3540971650009936411152011714875698089599609375	11.5772222306993004536934677162207663059234619140625	64.7355554792616061376975267194211483001708984375	1.596388887200089978790629174909554421901702880859375	100.8999995887269989225387689657509326934814453125	0.0	2928.9216856161701798555441200733184814453125	0.0	1	1	1	1
6569	S6	2019	10	1	17	52.9632579485574979116790927946567535400390625	0.80835596960451805426117743991198949515819549560546875	53.08958606719969708365169935859739780426025390625	11.2011111418406006379200334777124226093292236328125	65.372777854071699721316690556704998016357421875	1.618333327687440093001214336254633963108062744140625	48.9499998589354987643673666752874851226806640625	0.0	1420.7058834532899709302000701427459716796875	0.0	1	1	1	1
6570	S6	2019	10	1	18	26.127231095288198758908038143999874591827392578125	31.09255995598530120105351670645177364349365234375	24.330641650785299390236104954965412616729736328125	11.073745296728599640800894121639430522918701171875	68.427799475238998638815246522426605224609375	1.7436293383132499545951077379868365824222564697265625	15.21666670450940017644825275056064128875732421875	0.0	448.71458694493998109464882872998714447021484375	0.0	1	1	1	1
6571	S6	2019	10	1	19	0	0	0	0	0	0	0	0.0	0	0.0	1	1	1	0
6572	S6	2019	10	1	20	0	0	0	0	0	0	0	0.0	0	0.0	1	1	1	0
6573	S6	2019	10	1	21	0	0	0	0	0	0	0	0.0	0	0.0	1	1	1	0
6574	S6	2019	10	1	22	0	0	0	0	0	0	0	0.0	0	0.0	1	1	1	0
6575	S6	2019	10	1	23	0	0	0	0	0	0	0	0.0	0	0.0	1	1	1	0
6576	S6	2019	10	1	24	0	0	0	0	0	0	0	0.0	0	0.0	1	1	1	0
6577	S6	2019	10	2	1	0	0	0	0	0	0	0	0.0	0	0.0	1	1	1	0
6578	S6	2019	10	2	2	0	0	0	0	0	0	0	0.0	0	0.0	1	1	1	0
6579	S6	2019	10	2	3	0	0	0	0	0	0	0	0.0	0	0.0	1	1	1	0
6580	S6	2019	10	2	4	0	0	0	0	0	0	0	0.0	0	0.0	1	1	1	0
6581	S6	2019	10	2	5	0	0	0	0	0	0	0	0.0	0	0.0	1	1	1	0
6582	S6	2019	10	2	6	0	0	0	0	0	0	0	0.0	0	0.0	1	1	1	0
6583	S6	2019	10	2	7	22.225025021069399144835188053548336029052734375	39.6627126271124978984516928903758525848388671875	19.194616055601500193006359040737152099609375	8.6052134816680396767196725704707205295562744140625	81.8848349042413019560626707971096038818359375	2.845023690524250081779200627352111041545867919921875	11.5166667247346001801133752451278269290924072265625	0.0	352.9976582232239934455719776451587677001953125	0.0	1	1	1	1
6584	S6	2019	10	2	8	127.2156540552769996565984911285340785980224609375	402.05477082994201509791309945285320281982421875	56.611482387118797987568541429936885833740234375	9.399444511201640040098936879076063632965087890625	80.7586110644869989982908009551465511322021484375	2.95972221311594996251415068400092422962188720703125	84.5666673655311029733638861216604709625244140625	0.0	2089.9147560199098734301514923572540283203125	0.0	1	1	1	1
6585	S6	2019	10	2	9	256.27861923641597741152509115636348724365234375	596.0138632032600298771285451948642730712890625	81.6893754747178064690160681493580341339111328125	11.0341666009690992922287477995269000530242919921875	76.508611085679802954473416320979595184326171875	2.62305555732713013838974802638404071331024169921875	235.949999590713986208356800489127635955810546875	0.0	6041.2266761064502134104259312152862548828125	0.0	1	1	1	1
6586	S6	2019	10	2	10	364.2695310735970224413904361426830291748046875	672.304763893170957089751027524471282958984375	100.1803257231070034549702540971338748931884765625	11.8832369870532996714018736383877694606781005859375	74.5745666151101005425516632385551929473876953125	2.882947968092949952989556550164707005023956298828125	361.01666639248497858716291375458240509033203125	0.0	9557.045475641889424878172576427459716796875	0.0	1	1	1	1
6587	S6	2019	10	2	11	471.6322586641280167896184138953685760498046875	716.208218714358054057811386883258819580078125	137.296751296415010301643633283674716949462890625	12.8967742919921004585148693877272307872772216796875	68.6865102147076953542637056671082973480224609375	2.870674487345370007318479110836051404476165771484375	435.7999963064979738192050717771053314208984375	0.0	11478.461607297200316679663956165313720703125	0.0	1	1	1	1
6588	S6	2019	10	2	12	394.12270942987601074491976760327816009521484375	490.47931672457099239181843586266040802001953125	144.102652489238010957706137560307979583740234375	13.0368580630898005523476967937313020229339599609375	65.578247611976394182420335710048675537109375	2.72719033175004010871589343878440558910369873046875	396.099999547004017586004920303821563720703125	0.0	10337.252367536200836184434592723846435546875	0.0	1	1	1	1
6589	S6	2019	10	2	13	227.26723321372099917425657622516155242919921875	94.3305546431269021923071704804897308349609375	179.22853466492500729145831428468227386474609375	12.941642299775100610759182018227875232696533203125	65.072727214555897035097586922347545623779296875	2.824926688873869995433096846682019531726837158203125	255.9666673342389913159422576427459716796875	0.0	6850.5191127459102062857709825038909912109375	0.0	1	1	1	1
6590	S6	2019	10	2	14	264.10346017943402330274693667888641357421875	216.323380134110010430958936922252178192138671875	162.70332788096499143648543395102024078369140625	13.3208333220746002467649304890073835849761962890625	64.686805552906406546753714792430400848388671875	2.95173610953820997337970766238868236541748046875	201.033331411114005504714441485702991485595703125	0.0	5239.8230163380603698897175490856170654296875	0.0	1	1	1	1
6591	S6	2019	10	2	15	102.6709789562890051684007630683481693267822265625	34.7201934825315987609428702853620052337646484375	88.6107345961190020489084417931735515594482421875	7.89580419513729037106486430275253951549530029296875	93.2916077300385069293042761273682117462158203125	1.224475524017019978373355115763843059539794921875	149.3833345128219889375031925737857818603515625	0.0	3851.80481777834984313813038170337677001953125	0.0	1	1	1	1
6592	S6	2019	10	2	16	33.11708189459400131227084784768521785736083984375	0.332345371469367989458731926788459531962871551513671875	32.852966205746497507789172232151031494140625	8.8762712026046397539857935043983161449432373046875	91.9196078481237037749451701529324054718017578125	1.6444444464714000897487267138785682618618011474609375	21.416666925263800891343635157682001590728759765625	0.0	651.3998159828289544748258776962757110595703125	0.0	1	1	1	1
6593	S6	2019	10	2	17	19.228457019064098432181708631105720996856689453125	0.355850957390955013881495005989563651382923126220703125	19.248902557955801739808521233499050140380859375	7.89570205601032970577080050134100019931793212890625	91.5400000466240015839503030292689800262451171875	1.0614285727909600343110696485382504761219024658203125	18.583333461234900596537045203149318695068359375	0.0	534.7527380722259522372041828930377960205078125	0.0	1	1	1	1
6594	S6	2019	10	2	18	3.99368056210508992620589197031222283840179443359375	0.310024372383690016707902259440743364393711090087890625	3.972436338924520082827029909822158515453338623046875	8.13157902893266992805365589447319507598876953125	90.17105172809800706090754829347133636474609375	1.1096491234605700970661246174131520092487335205078125	1.11666670418343993986809437046758830547332763671875	0.0	33.8663468525434012690311647020280361175537109375	0.0	1	1	1	1
6595	S6	2019	10	2	19	0	0	0	0	0	0	0	0.0	0	0.0	1	1	1	0
6596	S6	2019	10	2	20	0	0	0	0	0	0	0	0.0	0	0.0	1	1	1	0
6597	S6	2019	10	2	21	0	0	0	0	0	0	0	0.0	0	0.0	1	1	1	0
6598	S6	2019	10	2	22	0	0	0	0	0	0	0	0.0	0	0.0	1	1	1	0
6599	S6	2019	10	2	23	0	0	0	0	0	0	0	0.0	0	0.0	1	1	1	0
6600	S6	2019	10	2	24	0	0	0	0	0	0	0	0.0	0	0.0	1	1	1	0
6601	S6	2019	10	3	1	0	0	0	0	0	0	0.60000002655822104458138710469938814640045166015625	0.0	0	0.0	1	1	1	0
6602	S6	2019	10	3	2	0	0	0	0	0	0	0	0.0	0	0.0	1	1	1	0
6603	S6	2019	10	3	3	0	0	0	0	0	0	0	0.0	0	0.0	1	1	1	0
6604	S6	2019	10	3	4	0	0	0	0	0	0	0	0.0	0	0.0	1	1	1	0
6605	S6	2019	10	3	5	0	0	0	0	0	0	0.10000000474975000164246097256182110868394374847412109375	0.0	0	0.0	1	1	1	0
6606	S6	2019	10	3	6	0	0	0	0	0	0	0	0.0	0	0.0	1	1	1	0
6607	S6	2019	10	3	7	13.662139476848199848291187663562595844268798828125	0.399488743989406980272605096615734510123729705810546875	13.516779957699100123136304318904876708984375	7.46470589798037043038902993430383503437042236328125	85.35336146635160048390389420092105865478515625	1.743277310824189907378922725911252200603485107421875	10.6500000906332008554500134778209030628204345703125	0.0	295.61386130905401614654692821204662322998046875	0.0	1	1	1	1
6608	S6	2019	10	3	8	68.181182776556994440397829748690128326416015625	10.398261275142399284732164232991635799407958984375	66.7547829204135041436529718339443206787109375	7.5024999896685198308432518388144671916961669921875	85.5091665267944023298696265555918216705322265625	1.382499999884100105873585562221705913543701171875	64.100000075995893666913616470992565155029296875	0.0	1801.627224683760005063959397375583648681640625	0.0	1	1	1	1
6609	S6	2019	10	3	9	188.38845537476601066373405046761035919189453125	241.318681843873008574519190005958080291748046875	112.050642778644004238230991177260875701904296875	8.39152544366437069811581750400364398956298828125	82.980791102694894334490527398884296417236328125	1.0937853101956600543331887820386327803134918212890625	210.616668065389006869736476801335811614990234375	0.0	5471.6740205883897942840121686458587646484375	0.0	1	1	1	1
6610	S6	2019	10	3	10	228.1958773003240139587433077394962310791015625	135.883781283562001362952287308871746063232421875	178.63474293693099070878815837204456329345703125	9.5537705312009695290953459334559738636016845703125	74.99377031169950669209356419742107391357421875	2.0852458967537099709943504421971738338470458984375	208.06666662295600644938531331717967987060546875	0.0	5879.708380500480416230857372283935546875	0.0	1	1	1	1
6611	S6	2019	10	3	11	250.155262654054013182758353650569915771484375	57.7983454816750992222296190448105335235595703125	220.931427513420004515865002758800983428955078125	9.723184359140230270668325829319655895233154296875	72.6745813465651053775218315422534942626953125	1.5368715064319100616074820209178142249584197998046875	280.483332027991991708404384553432464599609375	0.0	7594.91685430208963225595653057098388671875	0.0	1	1	1	1
6612	S6	2019	10	3	12	208.48498819139200577410520054399967193603515625	1.4359901836762800630964420633972622454166412353515625	207.162372250027004838557331822812557220458984375	10.14583334128059988188397255726158618927001953125	71.4800003687540055352656054310500621795654296875	1.43805555560521991509403960662893950939178466796875	199.8333342373369987399200908839702606201171875	0.0	5674.6985852718398746219463646411895751953125	0.0	1	1	1	1
6613	S6	2019	10	3	13	188.9595406002459867522702552378177642822265625	0.79368514799409395354956586743355728685855865478515625	188.23136465284500218331231735646724700927734375	9.871666653950999403832611278630793094635009765625	71.181666437784798517895978875458240509033203125	1.8858333299557299422843925640336237847805023193359375	187.849999715883996032061986625194549560546875	0.0	5361.07331315675037330947816371917724609375	0.0	1	1	1	1
6614	S6	2019	10	3	14	157.535269604048011160557507537305355072021484375	0.6667798099695969593625477500609122216701507568359375	156.955052892589009161383728496730327606201171875	9.713128545430780746983145945705473423004150390625	72.334636773477001270293840207159519195556640625	1.7779329613100800511205079601495526731014251708984375	149.483333900571011554347933270037174224853515625	0.0	4332.4888428052099698106758296489715576171875	0.0	1	1	1	1
6615	S6	2019	10	3	15	133.5107861200959860070724971592426300048828125	1.194675252876340021401802005129866302013397216796875	132.80736728244301048107445240020751953125	9.5575000683466502238161410787142813205718994140625	70.45333360036210024190950207412242889404296875	1.68777777420149011078365219873376190662384033203125	123.2333324849609965667696087621152400970458984375	0.0	3536.36782765387988547445274889469146728515625	0.0	1	1	1	1
6616	S6	2019	10	3	16	81.2796194924247998869759612716734409332275390625	0.5903492047968830203075185636407695710659027099609375	81.2337678273517980187534703873097896575927734375	9.40416651566822991981098311953246593475341796875	70.249166615804000457501388154923915863037109375	1.5980555526084299078348749389988370239734649658203125	78.4666659931341001765758846886456012725830078125	0.0	2162.0363091428998814080841839313507080078125	0.0	1	1	1	1
6617	S6	2019	10	3	17	44.7181651698218018964325892738997936248779296875	0.410929106838173019422555398705299012362957000732421875	44.68232657114659645003484911285340785980224609375	9.2466666618982902292600556393153965473175048828125	69.0666666666666060336865484714508056640625	1.22333333103193009350206921226345002651214599609375	39.16666693985460057092495844699442386627197265625	0.0	1094.965043415619902589241974055767059326171875	0.0	1	1	1	1
6618	S6	2019	10	3	18	8.7158373063351906040452377055771648883819580078125	1.099392804653700039807517896406352519989013671875	8.75225504807063003909206599928438663482666015625	9.060924518008189210149794234894216060638427734375	70.567226954868800703479791991412639617919921875	0.94327731242700696423497674913960509002208709716796875	3.566666661451260100790250362479127943515777587890625	0.0	120.3511302398199944718726328574120998382568359375	0.0	1	1	1	1
6619	S6	2019	10	3	19	0	0	0	0	0	0	0	0.0	0	0.0	1	1	1	0
6620	S6	2019	10	3	20	0	0	0	0	0	0	0	0.0	0	0.0	1	1	1	0
6621	S6	2019	10	3	21	0	0	0	0	0	0	0	0.0	0	0.0	1	1	1	0
6622	S6	2019	10	3	22	0	0	0	0	0	0	0	0.0	0	0.0	1	1	1	0
6623	S6	2019	10	3	23	0	0	0	0	0	0	0	0.0	0	0.0	1	1	1	0
6624	S6	2019	10	3	24	0	0	0	0	0	0	0	0.0	0	0.0	1	1	1	0
6625	S6	2019	10	4	1	0	0	0	0	0	0	0	0.0	0	0.0	1	1	1	0
6626	S6	2019	10	4	2	0	0	0	0	0	0	0	0.0	0	0.0	1	1	1	0
6627	S6	2019	10	4	3	0	0	0	0	0	0	0.116666672208041000136091724925790913403034210205078125	0.0	0	0.0	1	1	1	0
6628	S6	2019	10	4	4	0	0	0	0	0	0	0	0.0	0	0.0	1	1	1	0
6629	S6	2019	10	4	5	0	0	0	0	0	0	0	0.0	0	0.0	1	1	1	0
6630	S6	2019	10	4	6	0	0	0	0	0	0	0	0.0	0	0.0	1	1	1	0
6631	S6	2019	10	4	7	9.75088814072883991457274532876908779144287109375	0.368513350589917021427055487947654910385608673095703125	9.8218074263288404068816817016340792179107666015625	6.84086549511321972971700233756564557552337646484375	81.904327209179200508515350520610809326171875	0.98365384956391899162753134078229777514934539794921875	6.73333337375272034108775187633000314235687255859375	0.0	180.08880656367699657494085840880870819091796875	0.0	1	1	1	1
6632	S6	2019	10	4	8	37.65884879430129927868620143271982669830322265625	0.454949402146869019691877156219561584293842315673828125	37.7311302396986008034218684770166873931884765625	7.1983333309491399631951935589313507080078125	81.7858332951862934123710147105157375335693359375	0.98333333515458598572678283744608052074909210205078125	39.70000001912310239049475057981908321380615234375	0.0	1118.647759656110110881854780018329620361328125	0.0	1	1	1	1
6633	S6	2019	10	4	9	112.807956652933995655985199846327304840087890625	12.83695784194500078001510701142251491546630859375	108.58889271826700451128999702632427215576171875	8.121229063865190056503706728108227252960205078125	77.1064248537883969447648269124329090118408203125	1.654748605033530051144907702109776437282562255859375	112.6166670272740049085768987424671649932861328125	0.0	3165.71493446826980289188213646411895751953125	0.0	1	0	1	1
6634	S6	2019	10	4	10	285.98432565722902154448092915117740631103515625	382.0985044253289970583864487707614898681640625	138.212621564695012921220040880143642425537109375	9.09142019339567042379712802357971668243408203125	68.903845702402605866154772229492664337158203125	2.67278106008054994191525111091323196887969970703125	370.6499983867009859750396572053432464599609375	0.0	10302.758759260099395760335028171539306640625	0.0	1	0	1	1
6635	S6	2019	10	4	11	271.39923276739597213236265815794467926025390625	64.6489424218901973517859005369246006011962890625	239.304829355012998348684050142765045166015625	9.30903952539303958246819092892110347747802734375	66.6225992407502047853995463810861110687255859375	2.85734462796968013975629219203256070613861083984375	320.483333865802023865398950874805450439453125	0.0	8978.433307011919168871827423572540283203125	0.0	1	1	1	1
6636	S6	2019	10	4	12	216.340967983669003160684951581060886383056640625	4.9968014138440199900514926412142813205718994140625	212.76389414469400662710540927946567535400390625	9.6083333730697599861514390795491635799407958984375	67.965833282470697440658113919198513031005859375	2.6999999992549401639507777872495353221893310546875	217.900000512599007151948171667754650115966796875	0.0	6197.4141339461102688801474869251251220703125	0.0	1	1	1	1
6637	S6	2019	10	4	13	482.9245088033829915730166248977184295654296875	631.2738112091350330956629477441310882568359375	171.633185722308013509973534382879734039306640625	10.60307262196879918292324873618781566619873046875	69.5572629108109055096065276302397251129150390625	3.22234635862557983188025900744833052158355712890625	782.68333325783305554068647325038909912109375	0.0	19908.845529953599907457828521728515625	0.0	1	1	1	1
6638	S6	2019	10	4	14	357.40184634906501059958827681839466094970703125	424.33145752175499865188612602651119232177734375	159.109514642387011917890049517154693603515625	11.0352769551401994618800017633475363254547119140625	70.984548496435394326908863149583339691162109375	2.82332360970382989506788362632505595684051513671875	540.833333134650956708355806767940521240234375	0.0	13902.396179238900003838352859020233154296875	0.0	1	1	1	1
6639	S6	2019	10	4	15	309.646989780532976510585285723209381103515625	400.676872698584020326961763203144073486328125	153.27757401899799560851533897221088409423828125	11.227586166238300080522094503976404666900634765625	72.917554610201506193334353156387805938720703125	2.606269586329169829497232058201916515827178955078125	461.65000051260000191177823580801486968994140625	0.0	11851.29279792300076223909854888916015625	0.0	1	1	1	1
6640	S6	2019	10	4	16	184.815932665600001882921787910163402557373046875	290.6552110942490116940462030470371246337890625	97.352382022328100674712914042174816131591796875	11.052691175984900695539181469939649105072021484375	71.4487249142049023475919966585934162139892578125	2.5929178387855298382191904238425195217132568359375	262.75000050663999218159005977213382720947265625	0.0	6677.0873467127503317897208034992218017578125	0.0	1	1	1	1
6641	S6	2019	10	4	17	30.60047517352629853348844335414469242095947265625	1.8078256171610600500088139597210101783275604248046875	30.376091660393601756595671758987009525299072265625	10.2916666348774992201242639566771686077117919921875	74.4541666030882964832926518283784389495849609375	2.735833332522040084455738906399346888065338134765625	22.03333323510980079618093441240489482879638671875	0.0	640.7159831374880241128266789019107818603515625	0.0	1	1	1	1
6642	S6	2019	10	4	18	11.9447883637746006257884801016189157962799072265625	0.34352990620666001841954084738972596824169158935546875	12.053083253436600585928317741490900516510009765625	9.267999954223629544003415503539144992828369140625	81.0186669921875051159076974727213382720947265625	1.8395555521382200847568810786469839513301849365234375	4.6833334219021498512347534415312111377716064453125	0.0	147.65538071903000627571600489318370819091796875	0.0	1	1	1	1
6643	S6	2019	10	4	19	0	0	0	0	0	0	0	0.0	0	0.0	1	1	1	0
6644	S6	2019	10	4	20	0	0	0	0	0	0	0	0.0	0	0.0	1	1	1	0
6645	S6	2019	10	4	21	0	0	0	0	0	0	0	0.0	0	0.0	1	1	1	0
6646	S6	2019	10	4	22	0	0	0	0	0	0	0	0.0	0	0.0	1	1	1	0
6647	S6	2019	10	4	23	0	0	0	0	0	0	0	0.0	0	0.0	1	1	1	0
6648	S6	2019	10	4	24	0	0	0	0	0	0	0	0.0	0	0.0	1	1	1	0
6649	S6	2019	10	5	1	0	0	0	0	0	0	0	0.0	0	0.0	1	1	1	0
6650	S6	2019	10	5	2	0	0	0	0	0	0	0	0.0	0	0.0	1	1	1	0
6651	S6	2019	10	5	3	0	0	0	0	0	0	0	0.0	0	0.0	1	1	1	0
6652	S6	2019	10	5	4	0	0	0	0	0	0	0	0.0	0	0.0	1	1	1	0
6653	S6	2019	10	5	5	0	0	0	0	0	0	0	0.0	0	0.0	1	1	1	0
6654	S6	2019	10	5	6	0	0	0	0	0	0	0	0.0	0	0.0	1	1	1	0
6655	S6	2019	10	5	7	14.93353255998299999873779597692191600799560546875	0.394598869032390997535486576452967710793018341064453125	15.075978576579899481657776050269603729248046875	5.8172898002873996148309743148274719715118408203125	79.1500005632916980857771704904735088348388671875	1.467289718094269890258374289260245859622955322265625	9.800000085184979781161018763668835163116455078125	0.0	280.124357466896981350146234035491943359375	0.0	1	1	1	1
6656	S6	2019	10	5	8	75.978632375929095132960355840623378753662109375	0.82542471869124300898334922749199904501438140869140625	75.9433588716718048772236215882003307342529296875	6.21333332988950015618456745869480073451995849609375	77.637500360276902711120783351361751556396484375	1.836111110448829908392553988960571587085723876953125	79.0666668675842032598666264675557613372802734375	0.0	2270.56779439250021823681890964508056640625	0.0	1	1	1	1
6657	S6	2019	10	5	9	150.747395409478002648029359988868236541748046875	6.86169489887025019214661369915120303630828857421875	147.840776613022995888968580402433872222900390625	6.88972225719027964174756561988033354282379150390625	74.1533332400851037391475983895361423492431640625	2.033888878590529802892206134856678545475006103515625	157.1500003337849875606480054557323455810546875	0.0	4590.0402327378496920573525130748748779296875	0.0	1	1	1	1
6658	S6	2019	10	5	10	218.3521559821230084708076901733875274658203125	10.4319689196016991417081953841261565685272216796875	212.415567991468009267919114790856838226318359375	7.53611112700567975508647577953524887561798095703125	70.478888342115595833092811517417430877685546875	2.227499999105929884279930774937383830547332763671875	243.3500014245499869502964429557323455810546875	0.0	6998.8784889380303866346366703510284423828125	0.0	1	1	1	1
6659	S6	2019	10	5	11	423.29554765489302781134028919041156768798828125	431.1303146256340141917462460696697235107421875	221.842090373568993300068541429936885833740234375	8.4402778201633008592352780397050082683563232421875	65.2155556996662966184885590337216854095458984375	1.985833326892719963296940477448515594005584716796875	681.116666893163028362323530018329620361328125	0.0	18332.25905497860003379173576831817626953125	0.0	1	1	1	1
6660	S6	2019	10	5	12	491.8182214525010067518451251089572906494140625	832.1015760633680429236846975982189178466796875	86.83517525990799867940950207412242889404296875	8.8008333126703899296217059600166976451873779296875	62.57527772055730252986904815770685672760009765625	1.64444444411329993016579464892856776714324951171875	775.666666030884016436175443232059478759765625	0.0	20211.15500132240049424581229686737060546875	0.0	1	1	1	1
6661	S6	2019	10	5	13	481.0379632456910030668950639665126800537109375	800.395467570657956457580439746379852294921875	91.8493635841968938393620192073285579681396484375	9.3165729956680394252543919719755649566650390625	58.06432582555189725326272309757769107818603515625	1.5609550554765700969284125676495023071765899658203125	784.48333293199402760365046560764312744140625	0.0	19997.051958242998807691037654876708984375	0.0	1	1	1	1
6662	S6	2019	10	5	14	446.2997034439459866916877217590808868408203125	804.944652844272013680892996490001678466796875	87.8400503174508031634104554541409015655517578125	9.65459611356092040068688220344483852386474609375	54.277715911440196805415325798094272613525390625	1.398050140288539910926601805840618908405303955078125	729.0166656176239712294773198664188385009765625	0.0	18376.1768142381988582201302051544189453125	0.0	1	1	1	1
6663	S6	2019	10	5	15	351.2402624342170156523934565484523773193359375	733.994235144720960306585766375064849853515625	80.00146068996849635368562303483486175537109375	9.6861111243565805040134364389814436435699462890625	50.95583318074540102315950207412242889404296875	1.3319444423748298955700875012553296983242034912109375	597.7666695912670320467441342771053314208984375	0.0	15165.07130463909925310872495174407958984375	0.0	1	1	1	1
6664	S6	2019	10	5	16	238.47764867146798906105686910450458526611328125	645.851964484319978510029613971710205078125	64.7909561581081021586214774288237094879150390625	9.65138886239792981314167263917624950408935546875	49.7058332125345003760230611078441143035888671875	1.1663888872497600868172185073490254580974578857421875	404.31666721900302263748017139732837677001953125	0.0	10036.6033613680992857553064823150634765625	0.0	1	1	1	1
6665	S6	2019	10	5	17	91.69139418108710515298298560082912445068359375	301.8217793929160279731149785220623016357421875	44.88101767945560283123995759524405002593994140625	9.0425287416611599411453426000662147998809814453125	51.8965517679850023569088079966604709625244140625	0.7977011523198800357903337499010376632213592529296875	129.56666729102499857617658562958240509033203125	0.0	3146.89677556354990883846767246723175048828125	0.0	1	1	1	1
6666	S6	2019	10	5	18	27.439306709896801095283080940134823322296142578125	154.76893725798498735457542352378368377685546875	17.6958610643794003181028529070317745208740234375	8.1865672139979093202555304742418229579925537109375	57.1577113516888033473151153884828090667724609375	0.53930348810271799830928785013384185731410980224609375	6.21666666314316973540599065017886459827423095703125	0.0	337.55810340711201433805399574339389801025390625	0.0	1	1	1	0
6667	S6	2019	10	5	19	0	0	0	0	0	0	0	0.0	0	0.0	1	1	1	0
6668	S6	2019	10	5	20	0	0	0	0	0	0	0	0.0	0	0.0	1	1	1	0
6669	S6	2019	10	5	21	0	0	0	0	0	0	0	0.0	0	0.0	1	1	1	0
6670	S6	2019	10	5	22	0	0	0	0	0	0	0	0.0	0	0.0	1	1	1	0
6671	S6	2019	10	5	23	0	0	0	0	0	0	0	0.0	0	0.0	1	1	1	0
6672	S6	2019	10	5	24	0	0	0	0	0	0	0	0.0	0	0.0	1	1	1	0
6673	S6	2019	10	6	1	0	0	0	0	0	0	0	0.0	0	0.0	1	1	1	0
6674	S6	2019	10	6	2	0	0	0	0	0	0	0	0.0	0	0.0	1	1	1	0
6675	S6	2019	10	6	3	0	0	0	0	0	0	0	0.0	0	0.0	1	1	1	0
6676	S6	2019	10	6	4	0	0	0	0	0	0	0	0.0	0	0.0	1	1	1	0
6677	S6	2019	10	6	5	0	0	0	0	0	0	0	0.0	0	0.0	1	1	1	0
6678	S6	2019	10	6	6	0	0	0	0	0	0	0	0.0	0	0.0	1	1	1	0
6679	S6	2019	10	6	7	26.85720809220050142585023422725498676300048828125	170.14567440521199159775278531014919281005859375	15.6885809123818003030237377970479428768157958984375	2.40507613583868984363789422786794602870941162109375	93.0091373811518025149780442006886005401611328125	1.9451776512988299128181779451551847159862518310546875	7.2499999931702898692265080171637237071990966796875	0.0	269.67450043497001388459466397762298583984375	0.0	1	1	1	0
6680	S6	2019	10	6	8	111.9676437165999942635608022101223468780517578125	452.11300964355399401028989814221858978271484375	40.211879391140399775395053438842296600341796875	3.366666642824799993150008958764374256134033203125	91.4227777693005947412530076690018177032470703125	1.496666661732720005062446944066323339939117431640625	129.516666196285996193182654678821563720703125	0.0	2519.7422663370698501239530742168426513671875	0.0	1	1	1	1
6681	S6	2019	10	6	9	240.4950191073940004571340978145599365234375	661.117675272623046112130396068096160888671875	60.63427990807419831753577454946935176849365234375	5.43166670269436036022625557961873710155487060546875	87.4288888719346033440160681493580341339111328125	1.8772222222553300863268077591783367097377777099609375	362.7999996145559862270602025091648101806640625	0.0	9982.65978097916013211943209171295166015625	0.0	1	1	1	1
6682	S6	2019	10	6	10	361.12687729859402452348149381577968597412109375	759.9078398043060360578238032758235931396484375	78.2043304230841016533304355107247829437255859375	7.2963788555857203022014800808392465114593505859375	81.7685238511449057341451407410204410552978515625	2.0894150356230198894991190172731876373291015625	555.5166666706400064867921173572540283203125	0.0	14999.487892786599331884644925594329833984375	0.0	1	1	1	1
6683	S6	2019	10	6	11	310.13149625990098456895793788135051727294921875	248.0248623503570115644834004342555999755859375	193.452051332260992921874276362359523773193359375	8.1338890102174499219245262793265283107757568359375	72.581111356947104695791495032608509063720703125	2.032777774747870136451410871814005076885223388671875	447.63333102067298341353307478129863739013671875	0.0	12220.289723078300085035152733325958251953125	0.0	1	1	1	1
6684	S6	2019	10	6	12	489.24057685004299855791032314300537109375	804.9075347900389942878973670303821563720703125	100.795692443847002550683100707828998565673828125	9.1255555523766407333141614799387753009796142578125	63.46222212049689659352225135080516338348388671875	2.1544444467458401248904920066706836223602294921875	787.7166668574010373049532063305377960205078125	0.0	20446.17492357889932463876903057098388671875	0.0	1	1	1	1
6685	S6	2019	10	6	13	491.41792042341700152974226512014865875244140625	709.387165930276978542678989470005035400390625	147.826810215176010387949645519256591796875	9.5924790841955296372134398552589118480682373046875	60.20696383930509654192064772360026836395263671875	2.0083565417272399855619369191117584705352783203125	762.5833317637440131875337101519107818603515625	0.0	19280.89371919630139018408954143524169921875	0.0	1	1	1	1
6686	S6	2019	10	6	14	252.179390782432989226435893215239048004150390625	179.01887734553901054823654703795909881591796875	171.018368904304992383913486264646053314208984375	9.1852367448939506999749937676824629306793212890625	60.68495829590180079549099900759756565093994140625	1.8885793856923600575470345575013197958469390869140625	417.666665464638981575262732803821563720703125	0.0	10734.285954634300651377998292446136474609375	0.0	1	1	1	1
6687	S6	2019	10	6	15	342.738248401218015715130604803562164306640625	710.2994763268360429719905368983745574951171875	83.682933213975701391973416320979595184326171875	9.443888876173229363075733999721705913543701171875	57.847222137451097978555480949580669403076171875	1.66444444101716992889805624145083129405975341796875	609.98333394527298878529109060764312744140625	0.0	15173.994684219300324912182986736297607421875	0.0	1	1	1	1
6688	S6	2019	10	6	16	206.1562415228939926237217150628566741943359375	411.72194890181202708845376037061214447021484375	89.1603157679239046728980611078441143035888671875	9.41499996185302023832264239899814128875732421875	58.3488887574936967439498403109610080718994140625	1.679444442109919943817430976196192204952239990234375	319.1333307574190030209138058125972747802734375	0.0	8092.1699672937402283423580229282379150390625	0.0	1	1	1	1
6689	S6	2019	10	6	17	75.68356921715650287296739406883716583251953125	104.7315423717039948314777575433254241943359375	63.1487172235271003728485084138810634613037109375	8.9071856030447005281303063384257256984710693359375	60.7745508319602976143869454972445964813232421875	1.00359281620935991696796918404288589954376220703125	90.116666350513497718566213734447956085205078125	0.0	2271.848335117099850322119891643524169921875	0.0	1	1	1	1
6690	S6	2019	10	6	18	14.1686601039625994502557659870944917201995849609375	0.450527485518554982046879331392119638621807098388671875	14.191060463171300654039441724307835102081298828125	8.0272251323879704187902461853809654712677001953125	62.5392672553736019835923798382282257080078125	0.9089005269617309590302056676591746509075164794921875	3.350000071804970058764183704624883830547332763671875	0.0	163.624289515427989272211561910808086395263671875	0.0	1	1	1	1
6691	S6	2019	10	6	19	0	0	0	0	0	0	0	0.0	0	0.0	1	1	1	0
6692	S6	2019	10	6	20	0	0	0	0	0	0	0	0.0	0	0.0	1	1	1	0
6693	S6	2019	10	6	21	0	0	0	0	0	0	0	0.0	0	0.0	1	1	1	0
6694	S6	2019	10	6	22	0	0	0	0	0	0	0	0.0	0	0.0	1	1	1	0
6695	S6	2019	10	6	23	0	0	0	0	0	0	0	0.0	0	0.0	1	1	1	0
6696	S6	2019	10	6	24	0	0	0	0	0	0	0	0.0	0	0.0	1	1	1	0
6697	S6	2019	10	7	1	0	0	0	0	0	0	0	0.0	0	0.0	1	1	1	0
6698	S6	2019	10	7	2	0	0	0	0	0	0	0	0.0	0	0.0	1	1	1	0
6699	S6	2019	10	7	3	0	0	0	0	0	0	0	0.0	0	0.0	1	1	1	0
6700	S6	2019	10	7	4	0	0	0	0	0	0	0	0.0	0	0.0	1	1	1	0
6701	S6	2019	10	7	5	0	0	0	0	0	0	0	0.0	0	0.0	1	1	1	0
6702	S6	2019	10	7	6	0	0	0	0	0	0	0	0.0	0	0.0	1	1	1	0
6703	S6	2019	10	7	7	15.1088683985648994934081201790831983089447021484375	39.25856026848580171417779638431966304779052734375	13.665086944052500683710604789666831493377685546875	2.651063810003559950700946501456201076507568359375	75.935106480375196724708075635135173797607421875	0.292553194184252018938963146865717135369777679443359375	7.616666727699300309950558585114777088165283203125	0.0	238.320566713809995462725055404007434844970703125	0.0	1	1	1	0
6704	S6	2019	10	7	8	66.0903171327378942123687011189758777618408203125	62.7026970323588983546869712881743907928466796875	53.92955238554210239954045391641557216644287109375	3.9905555950270699128168416791595518589019775390625	68.5905554877386975931585766375064849853515625	0.1397222242421569948778170555669930763542652130126953125	81.48333445812249919981695711612701416015625	0.0	2084.28905904293014827999286353588104248046875	0.0	1	1	1	1
6705	S6	2019	10	7	9	200.5368980407710068902815692126750946044921875	317.6577432791390265265363268554210662841796875	117.1875176323780038956101634539663791656494140625	6.42444445821973975085938945994712412357330322265625	57.953888977898401435595587827265262603759765625	0.51944444866644001734812263748608529567718505859375	264.233335355917006381787359714508056640625	0.0	7402.2753894328998285345733165740966796875	0.0	1	1	1	1
6706	S6	2019	10	7	10	335.6688727693179998823325149714946746826171875	514.5104810658780252197175286710262298583984375	141.497265330906003555355709977447986602783203125	7.10223468721911022072390551329590380191802978515625	55.77318434475520092519218451343476772308349609375	0.5407821268009740389715034325490705668926239013671875	460.649998486042022705078125	0.0	12671.6223448513992480002343654632568359375	0.0	1	1	1	1
6707	S6	2019	10	7	11	442.59186577462998002374661155045032501220703125	821.5711653680019708190229721367359161376953125	81.39116155800689966781646944582462310791015625	8.2162465728631506323154098936356604099273681640625	55.56946777429229911149377585388720035552978515625	0.598879554775916034259353182278573513031005859375	703.63333324591303608031012117862701416015625	0.0	18387.74201869959870236925780773162841796875	0.0	1	1	1	1
6708	S6	2019	10	7	12	482.77928515386298613520921207964420318603515625	806.8437967779909740784205496311187744140625	99.602203560941006799112074077129364013671875	8.9567038626644102095042399014346301555633544921875	55.95530719863629798283000127412378787994384765625	0.5877094996375069602123630829737521708011627197265625	735.8666665852059622920933179557323455810546875	0.0	18934.22373135880116024054586887359619140625	0.0	1	1	1	1
6709	S6	2019	10	7	13	482.78025673760299696368747390806674957275390625	779.6432469685870501052704639732837677001953125	112.69779294331800656436826102435588836669921875	9.2644444041781905951893349993042647838592529296875	55.53944441477450055799636174924671649932861328125	0.72472222612963699273080919738276861608028411865234375	791.63333276907496838248334825038909912109375	0.0	19973.37737878159896354191005229949951171875	0.0	1	1	1	1
6710	S6	2019	10	7	14	444.84476920233800001369672827422618865966796875	835.968995496961042590555734932422637939453125	83.9525718900892030660543241538107395172119140625	9.7266666571299200683142771595157682895660400390625	53.5866663614907992041480611078441143035888671875	0.6002777799963949778572214199812151491641998291015625	749.4166652361540172933018766343593597412109375	0.0	18723.8932927448986447416245937347412109375	0.0	1	1	1	1
6711	S6	2019	10	7	15	333.619041719143979207728989422321319580078125	672.4667302054609763217740692198276519775390625	91.08462596670159427958424203097820281982421875	9.579387202568369730215636081993579864501953125	56.62089153916719652670508367009460926055908203125	0.7846796679463550194810750326723791658878326416015625	556.4666656156369981545140035450458526611328125	0.0	14062.574309110599642735905945301055908203125	0.0	1	1	1	1
6712	S6	2019	10	7	16	208.506339497036009333896799944341182708740234375	425.906150711907002914813347160816192626953125	93.6096142662895971398029359988868236541748046875	8.5866666846805106416695707594044506549835205078125	56.6872224383884031340130604803562164306640625	1.03138888792858995913093167473562061786651611328125	322.99999917546898586806491948664188385009765625	0.0	8151.0462145010596941574476659297943115234375	0.0	1	1	1	1
6713	S6	2019	10	7	17	57.36971684032010188047934207133948802947998046875	7.08921010974380028102359574404545128345489501953125	56.2897694375779025222072959877550601959228515625	7.30111110740237023719600983895361423492431640625	63.04722237057149669681166415102779865264892578125	1.028333333962490048207882864517159759998321533203125	52.833333425223798940351116470992565155029296875	0.0	1515.686481694370058903587050735950469970703125	0.0	1	1	1	1
6714	S6	2019	10	7	18	13.439965195899400640655585448257625102996826171875	0.232767164244920998772414577615563757717609405517578125	13.6472477965111007591758607304655015468597412109375	6.85912416277140035703041576198302209377288818359375	64.9985407251511020376710803247988224029541015625	1.1532846684873498954715387299074791371822357177734375	2.68333338511486996225130496895872056484222412109375	0.0	114.6829197571299943092526518739759922027587890625	0.0	1	1	1	1
6715	S6	2019	10	7	19	0	0	0	0	0	0	0	0.0	0	0.0	1	1	1	0
6716	S6	2019	10	7	20	0	0	0	0	0	0	0	0.0	0	0.0	1	1	1	0
6717	S6	2019	10	7	21	0	0	0	0	0	0	0	0.0	0	0.0	1	1	1	0
6718	S6	2019	10	7	22	0	0	0	0	0	0	0	0.0	0	0.0	1	1	1	0
6719	S6	2019	10	7	23	0	0	0	0	0	0	0	0.0	0	0.0	1	1	1	0
6720	S6	2019	10	7	24	0	0	0	0	0	0	0	0.0	0	0.0	1	1	1	0
6721	S6	2019	10	8	1	0	0	0	0	0	0	0	0.0	0	0.0	1	1	1	0
6722	S6	2019	10	8	2	0	0	0	0	0	0	0	0.0	0	0.0	1	1	1	0
6723	S6	2019	10	8	3	0	0	0	0	0	0	0	0.0	0	0.0	1	1	1	0
6724	S6	2019	10	8	4	0	0	0	0	0	0	0	0.0	0	0.0	1	1	1	0
6725	S6	2019	10	8	5	0	0	0	0	0	0	0	0.0	0	0.0	1	1	1	0
6726	S6	2019	10	8	6	0	0	0	0	0	0	0	0.0	0	0.0	1	1	1	0
6727	S6	2019	10	8	7	3.126827431089089781579559712554328143596649169921875	0.321807581959788979730774372001178562641143798828125	3.17176313891665007105302720447070896625518798828125	8.3190838835621594427038871799595654010772705078125	91.6618323289711014467684435658156871795654296875	2.118320599312089935750691438443027436733245849609375	1.33333336949969005758021012297831475734710693359375	0.0	26.928010016369398726965300738811492919921875	0.0	1	1	1	1
6728	S6	2019	10	8	8	11.0682972590127999268361236318014562129974365234375	0.36033445075154302283948481999686919152736663818359375	11.1176987899674006854411345557309687137603759765625	8.666666656070280083667967119254171848297119140625	92.9288893805609035325687727890908718109130859375	2.6263888889716699992504800320602953433990478515625	10.8333333550641004450199034181423485279083251953125	0.0	314.7892224912840219985810108482837677001953125	0.0	1	1	1	1
6729	S6	2019	10	8	9	19.877814714113799965389262069948017597198486328125	0.362682976739274021138470516234519891440868377685546875	19.86333541340290054222350590862333774566650390625	9.19333337148029983154629007913172245025634765625	94.258889685736704677765374071896076202392578125	2.607222222122879795591643414809368550777435302734375	18.366666572789398514942149631679058074951171875	0.0	531.9368178645760281142429448664188385009765625	0.0	1	1	1	1
6730	S6	2019	10	8	10	48.67419084972799936394949327223002910614013671875	0.40401408428119200966222024362650699913501739501953125	48.6219040393828976220902404747903347015380859375	9.4594443533155594394656873191706836223602294921875	94.4927778879800968070412636734545230865478515625	2.966111112303199792705754589405842125415802001953125	46.2666668308277024834751500748097896575927734375	0.0	1372.992367545760089342365972697734832763671875	0.0	1	1	1	1
6731	S6	2019	10	8	11	49.8400685999127972536371089518070220947265625	0.4113972642769410104079952361644245684146881103515625	49.750102737214803028109599836170673370361328125	9.6538889090220099120642771595157682895660400390625	94.5172228919135051228295196779072284698486328125	2.232777769201330198001187454792670905590057373046875	45.8500000027319032369632623158395290374755859375	0.0	1339.1877703368600123212672770023345947265625	0.0	1	1	1	1
6732	S6	2019	10	8	12	122.472649877962993514302070252597332000732421875	7.72466783408679003031238607945851981639862060546875	118.973160173639001868650666438043117523193359375	10.63631276711399920031908550299704074859619140625	94.7136876623057020196938537992537021636962890625	1.6508379853304500084476558185997419059276580810546875	162.483333361645009063067846000194549560546875	0.0	4523.4148221711302539915777742862701416015625	0.0	1	1	1	1
6733	S6	2019	10	8	13	402.79291461882002067795838229358196258544921875	341.62513333656698932827566750347614288330078125	247.86072657850900213816203176975250244140625	12.812786921516700289203072316013276576995849609375	89.324590063876797785269445739686489105224609375	2.734098358623310076609413954429328441619873046875	507.61666844288498623427585698664188385009765625	0.0	12765.11767109229913330636918544769287109375	0.0	1	1	1	1
6734	S6	2019	10	8	14	315.783225664278006661334075033664703369140625	358.89495171109200555292773060500621795654296875	166.544056078282011412738938815891742706298828125	13.2378048838638004980339246685616672039031982421875	83.6155489712225943321755039505660533905029296875	2.53292682203576990929150269948877394199371337890625	482.183334852257985403412021696567535400390625	0.0	12314.890604217800500919111073017120361328125	0.0	1	1	1	1
6735	S6	2019	10	8	15	321.5970961376809782450436614453792572021484375	622.8856781770920179042150266468524932861328125	101.6283398471500021287283743731677532196044921875	14.2272980458888991250887556816451251506805419921875	78.9373261603140008446644060313701629638671875	2.49247910493263002962294194730930030345916748046875	552.600000798702012616558931767940521240234375	0.0	13738.01487684240055386908352375030517578125	0.0	1	1	1	1
6736	S6	2019	10	8	16	215.940651745265995486988686025142669677734375	477.34515770806200407605501823127269744873046875	95.4875971476237026536182384006679058074951171875	14.966111034817100033933456870727241039276123046875	75.79666671752920592552982270717620849609375	2.49999999362561009519367871689610183238983154296875	359.19999827941200010172906331717967987060546875	0.0	8760.93868613244922016747295856475830078125	0.0	1	1	1	1
6737	S6	2019	10	8	17	84.5511530028448987650335766375064849853515625	216.88757413758099801270873285830020904541015625	52.48512401050989950590519583784043788909912109375	14.5566666762034007120973910787142813205718994140625	73.867778057522201606843736954033374786376953125	2.254444443186120139444028609432280063629150390625	132.7000006412459924831637181341648101806640625	0.0	2948.33555445074989620479755103588104248046875	0.0	1	1	1	1
6738	S6	2019	10	8	18	18.77630178769420155049374443478882312774658203125	15.67909049242729935258466866798698902130126953125	17.291381855010900636671067331917583942413330078125	13.245333315531400586451127310283482074737548828125	78.639334157307899886291124857962131500244140625	1.249999999006579987081977378693409264087677001953125	5.1333333229801301200723173678852617740631103515625	0.0	176.151211210525985961794503964483737945556640625	0.0	1	1	1	0
6739	S6	2019	10	8	19	0	0	0	0	0	0	0	0.0	0	0.0	1	1	1	0
6740	S6	2019	10	8	20	0	0	0	0	0	0	0	0.0	0	0.0	1	1	1	0
6741	S6	2019	10	8	21	0	0	0	0	0	0	0	0.0	0	0.0	1	1	1	0
6742	S6	2019	10	8	22	0	0	0	0	0	0	0	0.0	0	0.0	1	1	1	0
6743	S6	2019	10	8	23	0	0	0	0	0	0	0	0.0	0	0.0	1	1	1	0
6744	S6	2019	10	8	24	0	0	0	0	0	0	0	0.0	0	0.0	1	1	1	0
6745	S6	2019	10	9	1	0	0	0	0	0	0	0	0.0	0	0.0	1	1	1	0
6746	S6	2019	10	9	2	0	0	0	0	0	0	0	0.0	0	0.0	1	1	1	0
6747	S6	2019	10	9	3	0	0	0	0	0	0	0	0.0	0	0.0	1	1	1	0
6748	S6	2019	10	9	4	0	0	0	0	0	0	0	0.0	0	0.0	1	1	1	0
6749	S6	2019	10	9	5	0	0	0	0	0	0	0	0.0	0	0.0	1	1	1	0
6750	S6	2019	10	9	6	0	0	0	0	0	0	0	0.0	0	0.0	1	1	1	0
6751	S6	2019	10	9	7	17.9617960880051015237768297083675861358642578125	35.03135758282530076712646405212581157684326171875	16.226263843365501315929577685892581939697265625	10.623880713733200309434323571622371673583984375	90.8843273903006974023810471408069133758544921875	2.17238805943460011604884130065329372882843017578125	6.95000002160667040840280606062151491641998291015625	0.0	226.49241533751199995094793848693370819091796875	0.0	1	1	1	0
6752	S6	2019	10	9	8	87.0817796707153064517115126363933086395263671875	281.46160110897397998996893875300884246826171875	45.938876528210101923832553438842296600341796875	11.11999998092650088210575631819665431976318359375	89.786110899183398714740178547799587249755859375	1.6836111066242001044201970216818153858184814453125	94.983333473404201185985584743320941925048828125	0.0	1999.91603965559988864697515964508056640625	0.0	1	1	1	1
6753	S6	2019	10	9	9	209.2006034427209897330612875521183013916015625	502.62130788167297623658669181168079376220703125	80.09188322491110056944307871162891387939453125	12.26166666878589950329114799387753009796142578125	85.048888524373296604608185589313507080078125	1.8344444451232699844211992967757396399974822998046875	316.30000000198600673684268258512020111083984375	0.0	8535.4867140451897284947335720062255859375	0.0	1	1	1	1
6754	S6	2019	10	9	10	321.89637408786302330554462969303131103515625	622.2656600952140024674008600413799285888671875	99.413347880045506599344662390649318695068359375	13.3494444317287008772154877078719437122344970703125	81.0788890414766996173057123087346553802490234375	2.04333333099881020444854584638960659503936767578125	492.900002996125977006158791482448577880859375	0.0	13433.0897808074005297385156154632568359375	0.0	1	1	1	1
6755	S6	2019	10	9	11	383.31043508101402039756067097187042236328125	614.0597415067710471703321672976016998291015625	119.6771551638230022263087448664009571075439453125	14.4976676156846995269233957515098154544830322265625	75.6740528251269068960027652792632579803466796875	2.0256559805341698421443652478046715259552001953125	588.7999981641760314232669770717620849609375	0.0	15378.290742635699643869884312152862548828125	0.0	1	1	1	1
6756	S6	2019	10	9	12	406.2541939743799730422324500977993011474609375	417.434027084769013526965864002704620361328125	210.442370104300010780207230709493160247802734375	15.24164226677410027832593186758458614349365234375	71.61114381135729445304605178534984588623046875	2.260410551276720081403937001596204936504364013671875	570.7666665315620093679171986877918243408203125	0.0	14937.145580848000463447533547878265380859375	0.0	1	1	1	1
6757	S6	2019	10	9	13	240.54510154399901011856854893267154693603515625	110.6679018114430022023952915333211421966552734375	187.11611880121398598930682055652141571044921875	14.9144475791001003273095193435437977313995361328125	73.1362610727801012444615480490028858184814453125	2.436260626099940207467398067819885909557342529296875	245.783332362771005819013225845992565155029296875	0.0	6812.292935450879667769186198711395263671875	0.0	1	1	1	1
6758	S6	2019	10	9	14	155.167502636378998204236268065869808197021484375	0.78411486604147395684805132987094111740589141845703125	154.4683652242019888944923877716064453125	13.7822221861945006793348511564545333385467529296875	76.3861111111111057425659964792430400848388671875	2.65222221720549011791945304139517247676849365234375	144.516668220360998020623810589313507080078125	0.0	4220.8648552497297714580781757831573486328125	0.0	1	1	1	1
6759	S6	2019	10	9	15	131.057835515340002530138008296489715576171875	1.6264409027993600442840715913916938006877899169921875	130.193428844875001004766090773046016693115234375	13.5333333651224005933499938691966235637664794921875	79.0005560557047061820412636734545230865478515625	2.533333327786789990199167732498608529567718505859375	120.3333333134650047213654033839702606201171875	0.0	3514.29119010764998165541328489780426025390625	0.0	1	1	1	1
6760	S6	2019	10	9	16	82.1872729831271016109894844703376293182373046875	0.597409558047850008932755372370593249797821044921875	82.080104774898899222534964792430400848388671875	13.4144443564943998126182123087346553802490234375	80.1555556403265967446714057587087154388427734375	2.4677777709232397995720020844601094722747802734375	72.2833332295220003516078577376902103424072265625	0.0	2111.95699895421012115548364818096160888671875	0.0	1	1	1	1
6761	S6	2019	10	9	17	32.75908336639400175727132591418921947479248046875	0.34085072825352302761103828743216581642627716064453125	32.88668226665920002460552495904266834259033203125	13.077222220102900251958999433554708957672119140625	81.183333884345103115265374071896076202392578125	2.026944444411329815380895524867810308933258056640625	26.81666649878020081132490304298698902130126953125	0.0	777.709827758370010997168719768524169921875	0.0	1	1	1	1
6762	S6	2019	10	9	18	5.9920908595031097121363927726633846759796142578125	0.338432236381295992178053211318911053240299224853515625	6.130871219455070075809999252669513225555419921875	12.708490497660999807294501806609332561492919921875	82.8009426188917956324075930751860141754150390625	1.81132075696620997717900536372326314449310302734375	0.80000001859541003401687930818297900259494781494140625	0.0	27.74324836209409994580710190348327159881591796875	0.0	1	1	1	0
6763	S6	2019	10	9	19	0	0	0	0	0	0	0	0.0	0	0.0	1	1	1	0
6764	S6	2019	10	9	20	0	0	0	0	0	0	0	0.0	0	0.0	1	1	1	0
6765	S6	2019	10	9	21	0	0	0	0	0	0	0	0.0	0	0.0	1	1	1	0
6766	S6	2019	10	9	22	0	0	0	0	0	0	0	0.0	0	0.0	1	1	1	0
6767	S6	2019	10	9	23	0	0	0	0	0	0	0	0.0	0	0.0	1	1	1	0
6768	S6	2019	10	9	24	0	0	0	0	0	0	0	0.0	0	0.0	1	1	1	0
6769	S6	2019	10	10	1	0	0	0	0	0	0	0	0.0	0	0.0	1	1	1	0
6770	S6	2019	10	10	2	0	0	0	0	0	0	0	0.0	0	0.0	1	1	1	0
6771	S6	2019	10	10	3	0	0	0	0	0	0	0	0.0	0	0.0	1	1	1	0
6772	S6	2019	10	10	4	0	0	0	0	0	0	0	0.0	0	0.0	1	1	1	0
6773	S6	2019	10	10	5	0	0	0	0	0	0	0	0.0	0	0.0	1	1	1	0
6774	S6	2019	10	10	6	0	0	0	0	0	0	0	0.0	0	0.0	1	1	1	0
6775	S6	2019	10	10	7	10.7847942884275997954546255641616880893707275390625	1.1283840805697600284673853821004740893840789794921875	10.8639287429601001377932334435172379016876220703125	8.263265272387030790923745371401309967041015625	91.825170452091896322599495761096477508544921875	0.695238100225421984390550278476439416408538818359375	4.55000005119169959044711504247970879077911376953125	0.0	157.006517145781998578968341462314128875732421875	0.0	1	1	1	0
6776	S6	2019	10	10	8	60.1997959878708996939167263917624950408935546875	70.680423772169405083332094363868236541748046875	52.39132869508529921631634351797401905059814453125	8.9250000264909505887089835596270859241485595703125	91.0005555470784059934885590337216854095458984375	0.7322222250203289650727356274728663265705108642578125	53.94999977822089931578375399112701416015625	0.0	1609.15996109444995454396121203899383544921875	0.0	1	1	1	1
6777	S6	2019	10	10	9	109.387438583374006384474341757595539093017578125	21.781320356163700324714227463118731975555419921875	102.6508921093410009461877052672207355499267578125	10.2744444370269008004470379091799259185791015625	89.559444512261194404345587827265262603759765625	1.1552777785393899545596241296152584254741668701171875	120.7833334803579958816044381819665431976318359375	0.0	3447.61579334735006341361440718173980712890625	0.0	1	1	1	1
6778	S6	2019	10	10	10	251.44681487096698901950730942189693450927734375	158.891541848162006544953328557312488555908203125	197.7134496865149912991910241544246673583984375	11.805882296308400469797561527229845523834228515625	85.5056018989626949178273207508027553558349609375	1.726050416294599987310220967628993093967437744140625	296.333334098259001621045172214508056640625	0.0	8435.139534870779243647120893001556396484375	0.0	1	1	1	1
6779	S6	2019	10	10	11	326.00717111361200295505113899707794189453125	373.9099630482779730300535447895526885986328125	161.493116217144006441230885684490203857421875	12.6327683023140000528883319930173456668853759765625	80.129096187440694620818248949944972991943359375	2.060734459740960033968804054893553256988525390625	502.84999956687300937119289301335811614990234375	0.0	13341.12780292820025351829826831817626953125	0.0	1	1	1	1
6780	S6	2019	10	10	12	382.78616886469598057374241761863231658935546875	516.008393951836978885694406926631927490234375	143.481670798593000881737680174410343170166015625	13.45635845757630022490047849714756011962890625	75.5710986142901930406878818757832050323486328125	2.50722542990838004328679744503460824489593505859375	610.6333330273620276784640736877918243408203125	0.0	15775.6264547505998052656650543212890625	0.0	1	1	1	1
6781	S6	2019	10	10	13	359.71344111182401093174121342599391937255859375	336.420640446923016497748903930187225341796875	203.4712165919210065112565644085407257080078125	13.915909103371799204751368961296975612640380859375	72.450284567746194852588814683258533477783203125	2.348579538986080184059801467810757458209991455078125	541.999999682107954868115484714508056640625	0.0	13690.394715468099093413911759853363037109375	0.0	1	1	1	1
6782	S6	2019	10	10	14	351.9893410342859851880348287522792816162109375	535.9321902604109482126659713685512542724609375	130.789799394277991950730211101472377777099609375	14.2781609420117998610066933906637132167816162109375	68.01839069936460191456717438995838165283203125	2.4034482771637701858935542986728250980377197265625	614.5500009258579439119785092771053314208984375	0.0	15409.988009929600593750365078449249267578125	0.0	1	1	1	1
6783	S6	2019	10	10	15	273.00150586270700614477391354739665985107421875	432.52373459892299933926551602780818939208984375	120.68423551800600534988916479051113128662109375	14.362931045992599621285989996977150440216064453125	69.6896553258786042306383023969829082489013671875	2.633908045189130131547017299453727900981903076171875	423.9333325376099992354284040629863739013671875	0.0	10699.711697300199375604279339313507080078125	0.0	1	1	1	1
6784	S6	2019	10	10	16	109.8918677518619944066813332028687000274658203125	123.87866178599000477333902381360530853271484375	76.7235333434718000944485538639128208160400390625	13.738997180481799631479589152149856090545654296875	74.2387188244662041824994958005845546722412109375	2.29359330631231994601648693787865340709686279296875	141.849999067683000930628622882068157196044921875	0.0	3592.3759460449100515688769519329071044921875	0.0	1	1	1	1
6785	S6	2019	10	10	17	27.0465632163871987359016202390193939208984375	0.291870136898388976565144048436195589601993560791015625	27.13831463183380066084282589145004749298095703125	12.86677967653429988104107906110584735870361328125	75.727796754998593087293556891381740570068359375	2.041355926606609916262868864578194916248321533203125	18.033333603913501264059959794394671916961669921875	0.0	554.4083118438719566256622783839702606201171875	0.0	1	1	1	1
6786	S6	2019	10	10	18	6.76700005680322025369832772412337362766265869140625	0.1843583715381099941144071863163844682276248931884765625	6.67902649690706962104513877420686185359954833984375	10.6281250913937004298759347875602543354034423828125	87.21562576293939628158113919198513031005859375	1.560416662755109928895080884103663265705108642578125	1.4666666917037201045559413614682853221893310546875	0.0	61.5620867970088028187092277221381664276123046875	0.0	1	1	1	0
6787	S6	2019	10	10	19	0	0	0	0	0	0	0	0.0	0	0.0	1	1	1	0
6788	S6	2019	10	10	20	0	0	0	0	0	0	0	0.0	0	0.0	1	1	1	0
6789	S6	2019	10	10	21	0	0	0	0	0	0	0	0.0	0	0.0	1	1	1	0
6790	S6	2019	10	10	22	0	0	0	0	0	0	0	0.0	0	0.0	1	1	1	0
6791	S6	2019	10	10	23	0	0	0	0	0	0	0	0.0	0	0.0	1	1	1	0
6792	S6	2019	10	10	24	0	0	0	0	0	0	0	0.0	0	0.0	1	1	1	0
6793	S6	2019	10	11	1	0	0	0	0	0	0	0	0.0	0	0.0	1	1	1	0
6794	S6	2019	10	11	2	0	0	0	0	0	0	0	0.0	0	0.0	1	1	1	0
6795	S6	2019	10	11	3	0	0	0	0	0	0	0	0.0	0	0.0	1	1	1	0
6796	S6	2019	10	11	4	0	0	0	0	0	0	0	0.0	0	0.0	1	1	1	0
6797	S6	2019	10	11	5	0	0	0	0	0	0	0	0.0	0	0.0	1	1	1	0
6798	S6	2019	10	11	6	0	0	0	0	0	0	0	0.0	0	0.0	1	1	1	0
6799	S6	2019	10	11	7	1.93533955833741000418513067415915429592132568359375	0.31213318396891798212067214990383945405483245849609375	1.98608546384742989943106294958852231502532958984375	12.3464284964969994717876033973880112171173095703125	91.8107160840715010863277711905539035797119140625	3.335714308278900031012881299830041825771331787109375	0.250000011874365990482971255914890207350254058837890625	0.0	2.79977166404326016646564312395639717578887939453125	0.0	1	1	1	0
6800	S6	2019	10	11	8	7.10386829486260040766865131445229053497314453125	0.32136792416755899370883753363159485161304473876953125	7.14623761287101988415315645397640764713287353515625	12.0670769618107005527463115868158638477325439453125	93.5504613553560062655378715135157108306884765625	2.99323076248168007396088796667754650115966796875	8.0833333660848705193302521365694701671600341796875	0.0	216.453800979069995946701965294778347015380859375	0.0	1	1	1	1
6801	S6	2019	10	11	9	51.039799139234702352041495032608509063720703125	0.444310526384247006514982558655901812016963958740234375	51.0465403132968020827320287935435771942138671875	12.093333339691099581614253111183643341064453125	94.46499989827469789815950207412242889404296875	2.814722216460439963015005560009740293025970458984375	46.08333365370820189355072216130793094635009765625	0.0	1342.806648711359912340412847697734832763671875	0.0	1	1	1	1
6802	S6	2019	10	11	10	45.5227067364586019948546891100704669952392578125	0.446945857587786987696887308629811741411685943603515625	45.4504983107247966245267889462411403656005859375	12.1716667493183994253058699541725218296051025390625	95.306667836507102720133843831717967987060546875	1.5947222153345699258153445043717510998249053955078125	47.0000000670550974746220163069665431976318359375	0.0	1369.968202213440008563338778913021087646484375	0.0	1	1	1	1
6803	S6	2019	10	11	11	185.66110939510900834648055024445056915283203125	34.01367241867699675594849395565688610076904296875	171.5568107208069932312355376780033111572265625	13.6722543584128999327731435187160968780517578125	92.1450868286838016274487017653882503509521484375	2.83381502545636987377974946866743266582489013671875	237.383332476020001422511995770037174224853515625	0.0	6513.2265349229201092384755611419677734375	0.0	1	1	1	1
6804	S6	2019	10	11	12	249.374112690669988978697801940143108367919921875	115.915549080472004561670473776757717132568359375	198.971033638966986245577572844922542572021484375	15.062816829412700059265262098051607608795166015625	84.39323951828640701933181844651699066162109375	2.35549295250797996459368732757866382598876953125	310.5166666209689765310031361877918243408203125	0.0	8465.5713031689301715232431888580322265625	0.0	1	1	1	1
6805	S6	2019	10	11	13	153.11650386386401123672840185463428497314453125	2.130132579141189808069611899554729461669921875	151.264041434393988083684234879910945892333984375	15.6066667397816001283672449062578380107879638671875	82.1583337148030068419757299125194549560546875	2.568055557707940028677739974227733910083770751953125	144.81666715194700145730166696012020111083984375	0.0	4125.3183543681998344254679977893829345703125	0.0	1	1	1	1
6806	S6	2019	10	11	14	90.555127869711895982618443667888641357421875	0.42963013982193298812006787557038478553295135498046875	90.2002886507246017799843684770166873931884765625	15.553333250681500743439755751751363277435302734375	83.8616662343342937901979894377291202545166015625	3.225833333697579963228463384439237415790557861328125	71.9166669373712039714519050903618335723876953125	0.0	2125.79595843949982736376114189624786376953125	0.0	1	1	1	1
6807	S6	2019	10	11	15	43.873411603624703047898947261273860931396484375	0.374413908679105011945154046770767308771610260009765625	43.623023418330802769560250453650951385498046875	14.5208912241093006656456054770387709140777587890625	89.283008692324301591725088655948638916015625	3.44986072058132986484224602463655173778533935546875	39.75000002731879789052982232533395290374755859375	0.0	1194.919538497920029840315692126750946044921875	0.0	1	1	1	1
6808	S6	2019	10	11	16	39.53434949451020230526410159654915332794189453125	0.461298500415350976044948083654162473976612091064453125	39.49939133061300111648961319588124752044677734375	14.4433332125344993102089574676938354969024658203125	89.311666997273704282633843831717967987060546875	3.399999998344310103703946879249997437000274658203125	33.03333340833579967465993831865489482879638671875	0.0	972.0591676111019978634431026875972747802734375	0.0	1	1	1	1
6809	S6	2019	10	11	17	6.39153095555923034254419690114445984363555908203125	0.298590162110894008495876050801598466932773590087890625	6.3927521994203200250694862916134297847747802734375	14.1495676040649005500426937942393124103546142578125	89.965129797328103222753270529210567474365234375	3.5778097948354599111553397960960865020751953125	3.650000064711380165505261174985207617282867431640625	0.0	122.3880893706029979739469126798212528228759765625	0.0	1	1	1	1
6810	S6	2019	10	11	18	2.85617903019617980220345998532138764858245849609375	0.35426269196769499814081427757628262042999267578125	2.884316227968449997121069827699102461338043212890625	13.658252475331099873301354818977415561676025390625	93.867960068786004512730869464576244354248046875	3.1572815550183701560627014259807765483856201171875	0.43333335003505302207571503458893857896327972412109375	0.0	11.6286349482834001634046217077411711215972900390625	0.0	1	1	1	0
6811	S6	2019	10	11	19	0	0	0	0	0	0	0	0.0	0	0.0	1	1	1	0
6812	S6	2019	10	11	20	0	0	0	0	0	0	0	0.0	0	0.0	1	1	1	0
6813	S6	2019	10	11	21	0	0	0	0	0	0	0	0.0	0	0.0	1	1	1	0
6814	S6	2019	10	11	22	0	0	0	0	0	0	0	0.0	0	0.0	1	1	1	0
6815	S6	2019	10	11	23	0	0	0	0	0	0	0	0.0	0	0.0	1	1	1	0
6816	S6	2019	10	11	24	0	0	0	0	0	0	0	0.0	0	0.0	1	1	1	0
6817	S6	2019	10	12	1	0	0	0	0	0	0	0	0.0	0	0.0	1	1	1	0
6818	S6	2019	10	12	2	0	0	0	0	0	0	0	0.0	0	0.0	1	1	1	0
6819	S6	2019	10	12	3	0	0	0	0	0	0	0	0.0	0	0.0	1	1	1	0
6820	S6	2019	10	12	4	0	0	0	0	0	0	0	0.0	0	0.0	1	1	1	0
6821	S6	2019	10	12	5	0	0	0	0	0	0	0	0.0	0	0.0	1	1	1	0
6822	S6	2019	10	12	6	0	0	0	0	0	0	0	0.0	0	0.0	1	1	1	0
6823	S6	2019	10	12	7	4.6756373780897195757688677986152470111846923828125	0.389853974868510977369595593700069002807140350341796875	4.8083621537548300040043613989837467670440673828125	12.854022946850999886692079599015414714813232421875	87.7482756691417051797543535940349102020263671875	1.932183910375349977783798749442212283611297607421875	1.3166667001011400639498560849460773169994354248046875	0.0	36.6998216680560034319569240324199199676513671875	0.0	1	1	1	0
6824	S6	2019	10	12	8	18.75838173627850125058103003539144992828369140625	0.4099530018038219925102794150006957352161407470703125	18.86715389357669891978730447590351104736328125	12.925555576218499709284515120089054107666015625	87.8105557123819977505263523198664188385009765625	2.323888880345549967643137279083020985126495361328125	18.23333332625529834558619768358767032623291015625	0.0	529.460164966681986697949469089508056640625	0.0	1	1	1	1
6825	S6	2019	10	12	9	96.8611468950906981945081497542560100555419921875	2.548645436432619870714688659063540399074554443359375	96.087726322809800194590934552252292633056640625	13.2161111275355001026809986797161400318145751953125	81.12805555131700430138153024017810821533203125	2.711666664150020000789709229138679802417755126953125	99.55000029876799771955120377242565155029296875	0.0	2897.90113220612010991317220032215118408203125	0.0	1	1	1	1
6826	S6	2019	10	12	10	148.485196516248009857008582912385463714599609375	6.6927801630977103997111044009216129779815673828125	145.753750504386999864436802454292774200439453125	13.558888912200899312665569595992565155029296875	80.568055174085799308159039355814456939697265625	2.6466666616499399111717139021493494510650634765625	142.166666934886990247832727618515491485595703125	0.0	4124.84851876894026645459234714508056640625	0.0	1	1	1	1
6827	S6	2019	10	12	11	121.3313947889530055590512347407639026641845703125	1.0268823385238599055213626343174837529659271240234375	120.7054410510589974592221551574766635894775390625	13.6663888878291999162684078328311443328857421875	80.4130554835001021274365484714508056640625	2.68388888264694980279045921633951365947723388671875	121.28333393484399493900127708911895751953125	0.0	3455.36760737498980233795009553432464599609375	0.0	1	1	1	1
6828	S6	2019	10	12	12	194.29077650652499187344801612198352813720703125	33.75466586010789882266180939041078090667724609375	177.866030225565992850533802993595600128173828125	14.2271708720871998821166926063597202301025390625	78.2549018111883043502530199475586414337158203125	2.819047620316510016635902502457611262798309326171875	199.866667886574987278436310589313507080078125	0.0	5644.140432278300067991949617862701416015625	0.0	1	1	1	1
6829	S6	2019	10	12	13	102.9577036478430045463028363883495330810546875	0.51587642442031000911129012820310890674591064453125	102.484284167308004498408990912139415740966796875	13.2227642981985997749916350585408508777618408203125	83.6228915601370061949637602083384990692138671875	2.7231707320949798400988584035076200962066650390625	87.2666668767733000322550651617348194122314453125	0.0	2614.65254674353991504176519811153411865234375	0.0	1	1	1	1
6830	S6	2019	10	12	14	194.981927765740010727313347160816192626953125	110.863649935523000067405519075691699981689453125	149.67322012583400692165014334022998809814453125	13.0299999713896994535389239899814128875732421875	89.5241663614907992041480611078441143035888671875	2.194999997235000055439968491555191576480865478515625	260.9666668499500019606784917414188385009765625	0.0	6898.560079435499574174173176288604736328125	0.0	1	1	1	1
6831	S6	2019	10	12	15	201.78620660641701078930054791271686553955078125	89.442708925254606810995028354227542877197265625	170.8928926327799899809178896248340606689453125	14.47372886420640014648597571067512035369873046875	81.79265510429769392430898733437061309814453125	2.453954801215960213056632710504345595836639404296875	261.666666219630997147760353982448577880859375	0.0	6873.3431552847096099867485463619232177734375	0.0	1	1	1	1
6832	S6	2019	10	12	16	125.890725368923000360155128873884677886962890625	40.5485042161410973449164885096251964569091796875	115.9761290444260026788469986058771610260009765625	14.294166660308800231860004714690148830413818359375	79.833333269755001992962206713855266571044921875	2.736944435205720171921939254389144480228424072265625	149.050000185767004268200253136456012725830078125	0.0	3871.61544760069000403746031224727630615234375	0.0	1	1	1	1
6833	S6	2019	10	12	17	52.44662938382889905142292263917624950408935546875	15.1986505432674992022157312021590769290924072265625	50.5025189479191993768836255185306072235107421875	13.7491666475930998103649471886456012725830078125	83.0374996185302052253973670303821563720703125	2.3161111106475100740453854086808860301971435546875	57.78333330526940159188598045147955417633056640625	0.0	1428.0331520984500457416288554668426513671875	0.0	1	1	1	1
6834	S6	2019	10	12	18	11.775105342864900848098841379396617412567138671875	0.80698130408922796874549021595157682895660400390625	12.030277156829800588866419275291264057159423828125	13.141333414713500360448961146175861358642578125	84.2653337605793950615407084114849567413330078125	1.9959999942779500514689061674289405345916748046875	1.999999994101619993358553983853198587894439697265625	0.0	68.967353164528702791358227841556072235107421875	0.0	1	1	1	0
6835	S6	2019	10	12	19	0	0	0	0	0	0	0	0.0	0	0.0	1	1	1	0
6836	S6	2019	10	12	20	0	0	0	0	0	0	0	0.0	0	0.0	1	1	1	0
6837	S6	2019	10	12	21	0	0	0	0	0	0	0	0.0	0	0.0	1	1	1	0
6838	S6	2019	10	12	22	0	0	0	0	0	0	0	0.0	0	0.0	1	1	1	0
6839	S6	2019	10	12	23	0	0	0	0	0	0	0	0.0	0	0.0	1	1	1	0
6840	S6	2019	10	12	24	0	0	0	0	0	0	0	0.0	0	0.0	1	1	1	0
6841	S6	2019	10	13	1	0	0	0	0	0	0	0	0.0	0	0.0	1	1	1	0
6842	S6	2019	10	13	2	0	0	0	0	0	0	0	0.0	0	0.0	1	1	1	0
6843	S6	2019	10	13	3	0	0	0	0	0	0	0	0.0	0	0.0	1	1	1	0
6844	S6	2019	10	13	4	0	0	0	0	0	0	0	0.0	0	0.0	1	1	1	0
6845	S6	2019	10	13	5	0	0	0	0	0	0	0	0.0	0	0.0	1	1	1	0
6846	S6	2019	10	13	6	0	0	0	0	0	0	0	0.0	0	0.0	1	1	1	0
6847	S6	2019	10	13	7	5.72812067854161011126734592835418879985809326171875	0.414793582899229018590148143630358390510082244873046875	5.8186074081732304108527387143112719058990478515625	11.292857306344100010164765990339219570159912109375	94.31938918755969325502519495785236358642578125	0.950000004196652980681392364203929901123046875	2.016666682902719998082829988561570644378662109375	0.0	51.58817518192029893953076680190861225128173828125	0.0	1	1	1	0
6848	S6	2019	10	13	8	30.367780518531798605863514239899814128875732421875	0.461248194177944992322437656184774823486804962158203125	30.508545547061398650612318306230008602142333984375	11.521666582425400093825373915024101734161376953125	93.57444489796949937954195775091648101806640625	1.1094444452060499006762483986676670610904693603515625	30.70000001850220172627814463339745998382568359375	0.0	882.555505136647980179986916482448577880859375	0.0	1	1	1	1
6849	S6	2019	10	13	9	65.4934067302280027433880604803562164306640625	0.56905650355749604063504420992103405296802520751953125	65.55076417922970222207368351519107818603515625	12.21972220738719983046394190751016139984130859375	91.4541663275823992762525449506938457489013671875	1.201666667809079935835825381218455731868743896484375	63.41666678587589700555326999165117740631103515625	0.0	1866.140126188590102174202911555767059326171875	0.0	1	1	1	1
6850	S6	2019	10	13	10	91.2116730584038037932259612716734409332275390625	0.576564317610527954371946179890073835849761962890625	91.109306822882700771515374071896076202392578125	12.798611142900199411087669432163238525390625	89.1944444656372041890790569595992565155029296875	1.5161111101508100151846747394301928579807281494140625	87.233333786329097847556113265454769134521484375	0.0	2571.04445944230019449605606496334075927734375	0.0	1	1	1	1
6851	S6	2019	10	13	11	163.433110788133006963107618503272533416748046875	1.13218696647219996265221197973005473613739013671875	162.6450600941969923951546661555767059326171875	13.5216666777927994047558968304656445980072021484375	86.18277831607389316559419967234134674072265625	1.442222220947340094454602876794524490833282470703125	158.350000033774989560697576962411403656005859375	0.0	4584.9844157695797548512928187847137451171875	0.0	1	1	1	1
6852	S6	2019	10	13	12	168.32779670291398588233278132975101470947265625	0.7012371232112240004852310448768548667430877685546875	167.6920107311669880800764076411724090576171875	13.849722173478799192025689990259706974029541015625	81.906111462910899945200071670114994049072265625	1.3877777802447399668750449563958682119846343994140625	152.11666710674700198069331236183643341064453125	0.0	4403.9629807074898053542710840702056884765625	0.0	1	1	1	1
6853	S6	2019	10	13	13	95.426963615417406572305480949580669403076171875	0.48278233061234099299241506741964258253574371337890625	95.209807268778405386910890229046344757080078125	13.573055558734399284048777190037071704864501953125	82.2125001059637980915795196779072284698486328125	1.2433333326544999675178360121208243072032928466796875	82.900000115235599196239490993320941925048828125	0.0	2449.35553769270018165116198360919952392578125	0.0	1	1	1	1
6854	S6	2019	10	13	14	38.00287060207789835430958191864192485809326171875	0.39726140428748302202421882611815817654132843017578125	37.9515278710259025274353916756808757781982421875	12.83999992476559981469108606688678264617919921875	86.2863892661199969325025449506938457489013671875	1.2080555535024999347371021940489299595355987548828125	30.516666918992999768533991300500929355621337890625	0.0	942.06246485312703953240998089313507080078125	0.0	1	1	1	1
6855	S6	2019	10	13	15	41.6806772126090976371415308676660060882568359375	0.46311576838294599145484653490711934864521026611328125	41.60464841524760259972026688046753406524658203125	12.5988890727360995924755115993320941925048828125	87.0075000127155959717129007913172245025634765625	1.1277777800129500374026747522293590009212493896484375	37.61666684101010105223394930362701416015625	0.0	1110.50392066438007532269693911075592041015625	0.0	1	1	1	1
6856	S6	2019	10	13	16	22.272757467958598454060847871005535125732421875	0.378799824044108002230046849945210851728916168212890625	22.23787115348709875206623109988868236541748046875	12.481944470935300017799818306230008602142333984375	88.520000012715598813883843831717967987060546875	1.671944441232410039077649344108067452907562255859375	16.116666758898599454141731257550418376922607421875	0.0	488.4322936025749868349521420896053314208984375	0.0	1	1	1	1
6857	S6	2019	10	13	17	7.9742957249428396693247123039327561855316162109375	0.342485579689149999271791102728457190096378326416015625	8.026465179850749365186857176013290882110595703125	12.2818769467300992204172871424816548824310302734375	88.8702262705583052593283355236053466796875	2.90161812228291982052041930728591978549957275390625	4.81666678873200027055645477958023548126220703125	0.0	157.5065977871410041188937611877918243408203125	0.0	1	1	1	1
6858	S6	2019	10	13	18	1.200717578331619961318210698664188385009765625	0.245795786380766989598356531132594682276248931884765625	1.235969973935020060906708749826066195964813232421875	11.8333333333333001746723311953246593475341796875	91.872224171956304417108185589313507080078125	3.7944444219271300511309163994155824184417724609375	0	0.0	0	0.0	1	1	1	0
6859	S6	2019	10	13	19	0	0	0	0	0	0	0	0.0	0	0.0	1	1	1	0
6860	S6	2019	10	13	20	0	0	0	0	0	0	0	0.0	0	0.0	1	1	1	0
6861	S6	2019	10	13	21	0	0	0	0	0	0	0	0.0	0	0.0	1	1	1	0
6862	S6	2019	10	13	22	0	0	0	0	0	0	0	0.0	0	0.0	1	1	1	0
6863	S6	2019	10	13	23	0	0	0	0	0	0	0	0.0	0	0.0	1	1	1	0
6864	S6	2019	10	13	24	0	0	0	0	0	0	0	0.0	0	0.0	1	1	1	0
6865	S6	2019	10	14	1	0	0	0	0	0	0	0	0.0	0	0.0	1	1	1	0
6866	S6	2019	10	14	2	0	0	0	0	0	0	0	0.0	0	0.0	1	1	1	0
6867	S6	2019	10	14	3	0	0	0	0	0	0	0	0.0	0	0.0	1	1	1	0
6868	S6	2019	10	14	4	0	0	0	0	0	0	0	0.0	0	0.0	1	1	1	0
6869	S6	2019	10	14	5	0	0	0	0	0	0	0	0.0	0	0.0	1	1	1	0
6870	S6	2019	10	14	6	0	0	0	0	0	0	0	0.0	0	0.0	1	1	1	0
6871	S6	2019	10	14	7	9.0156486890848395177044949377886950969696044921875	1.066168721729110036022802887600846588611602783203125	9.095115819023650516328416415490210056304931640625	13.71165039469889990186857176013290882110595703125	73.3126211073792006800431408919394016265869140625	5.63495145492183002744468467426486313343048095703125	3.016666728459930002514965963200666010379791259765625	0.0	103.078536565104997180242207832634449005126953125	0.0	1	1	1	0
6872	S6	2019	10	14	8	43.25807890627110197101501398719847202301025390625	64.232268807540293664715136401355266571044921875	33.2820060359106975056420196779072284698486328125	13.473888921737600554706659750081598758697509765625	73.6772225697834954871723311953246593475341796875	5.4419444468286304328330516000278294086456298828125	33.83333343081169886090719955973327159881591796875	0.0	1118.622665479769921148545108735561370849609375	0.0	1	1	1	1
6873	S6	2019	10	14	9	182.65331565835600713398889638483524322509765625	327.31536751670000739977695047855377197265625	104.5395764746699995839662733487784862518310546875	13.35515321396849941493201185949146747589111328125	72.55431744248750192127772606909275054931640625	4.9002785583060397556209863978438079357147216796875	244.05000160137700504492386244237422943115234375	0.0	6617.9384410381198904360644519329071044921875	0.0	1	1	1	1
6874	S6	2019	10	14	10	275.43311447281001846931758336722850799560546875	333.57133100376398715525283478200435638427734375	167.665704148667003892114735208451747894287109375	13.520120211191699155506285023875534534454345703125	72.664864777802705475551192648708820343017578125	3.97717716922988984151743352413177490234375	354.01666636268299725998076610267162322998046875	0.0	9850.53785840668933815322816371917724609375	0.0	1	1	1	1
6875	S6	2019	10	14	11	205.6480364853069886521552689373493194580078125	65.13402668965369457509950734674930572509765625	179.14639303657401114833191968500614166259765625	13.186235968986199651453716796822845935821533203125	73.90533661574460211340920068323612213134765625	3.706460663944139977132863350561819970607757568359375	216.683334236343995371498749591410160064697265625	0.0	6085.8889400958896658266894519329071044921875	0.0	1	1	1	1
6876	S6	2019	10	14	12	172.6391401926670141619979403913021087646484375	4.7034364644024098112140563898719847202301025390625	170.19114763471799278704565949738025665283203125	12.705555566151900848126388154923915863037109375	74.28333324856220087895053438842296600341796875	2.99999999983443021989160115481354296207427978515625	166.1333337426179923568270169198513031005859375	0.0	4772.1126596132899067015387117862701416015625	0.0	1	1	1	1
6877	S6	2019	10	14	13	189.38884885575998850981704890727996826171875	22.603799325724398983084029168821871280670166015625	179.480720647176013926582527346909046173095703125	12.8305556032391994136787616298533976078033447265625	73.90833324856220087895053438842296600341796875	2.49305555472771001035425797454081475734710693359375	211.100000888109008201354299671947956085205078125	0.0	5829.8237303892701675067655742168426513671875	0.0	1	1	1	1
6878	S6	2019	10	14	14	263.995367831174007733352482318878173828125	134.45943035260000897324061952531337738037109375	208.9332114727050111468997783958911895751953125	13.32869079717350047076251939870417118072509765625	72.1660164750717996184903313405811786651611328125	2.289415038395719914632309155422262847423553466796875	326.1000029742709784841281361877918243408203125	0.0	8662.21556266148036229424178600311279296875	0.0	1	1	1	1
6879	S6	2019	10	14	15	184.152666409809995684554451145231723785400390625	145.8250258834819987896480597555637359619140625	137.2686217202079888011212460696697235107421875	12.93222226566729915475661982782185077667236328125	71.796111339992904731843736954033374786376953125	1.6919444431861199173994236844009719789028167724609375	275.06666779518099019696819595992565155029296875	0.0	7062.3960435390499696950428187847137451171875	0.0	1	1	1	1
6880	S6	2019	10	14	16	85.2662788814968024553309078328311443328857421875	27.24045437590940110794690554030239582061767578125	78.4435883627997014855282031930983066558837890625	12.5349999321830996024118576315231621265411376953125	73.9305555131700060655930428765714168548583984375	1.0655555573602499830343504072516225278377532958984375	89.4333329672609949057004996575415134429931640625	0.0	2417.59189416963999974541366100311279296875	0.0	1	1	1	1
6881	S6	2019	10	14	17	25.84858954615059900561391259543597698211669921875	0.401093628174727989676995321133290417492389678955078125	25.949386927816600945106983999721705913543701171875	12.191666687859399331728127435781061649322509765625	75.047777938842699541055480949580669403076171875	0.68527778031097497102308579997043125331401824951171875	19.283333498363699476385590969584882259368896484375	0.0	573.6644072768580144838779233396053314208984375	0.0	1	1	1	1
6882	S6	2019	10	14	18	4.09542000293730978910389239899814128875732421875	0.36134080524029899006421828744350932538509368896484375	4.20949184376260010509440689929760992527008056640625	12.0173913706902997233783025876618921756744384765625	75.7065233976943972038498031906783580780029296875	0.7391304360783610416518740748870186507701873779296875	0.13333333966632998635049034419353120028972625732421875	0.0	9.0840000115955898962738501722924411296844482421875	0.0	1	1	1	0
6883	S6	2019	10	14	19	0	0	0	0	0	0	0	0.0	0	0.0	1	1	1	0
6884	S6	2019	10	14	20	0	0	0	0	0	0	0	0.0	0	0.0	1	1	1	0
6885	S6	2019	10	14	21	0	0	0	0	0	0	0	0.0	0	0.0	1	1	1	0
6886	S6	2019	10	14	22	0	0	0	0	0	0	0	0.0	0	0.0	1	1	1	0
6887	S6	2019	10	14	23	0	0	0	0	0	0	0	0.0	0	0.0	1	1	1	0
6888	S6	2019	10	14	24	0	0	0	0	0	0	0	0.0	0	0.0	1	1	1	0
6889	S6	2019	10	15	1	0	0	0	0	0	0	0	0.0	0	0.0	1	1	1	0
6890	S6	2019	10	15	2	0	0	0	0	0	0	0	0.0	0	0.0	1	1	1	0
6891	S6	2019	10	15	3	0	0	0	0	0	0	0	0.0	0	0.0	1	1	1	0
6892	S6	2019	10	15	4	0	0	0	0	0	0	0	0.0	0	0.0	1	1	1	0
6893	S6	2019	10	15	5	0	0	0	0	0	0	0	0.0	0	0.0	1	1	1	0
6894	S6	2019	10	15	6	0	0	0	0	0	0	0	0.0	0	0.0	1	1	1	0
6895	S6	2019	10	15	7	5.590594836643759890648652799427509307861328125	0.56783898322136805436599615859449841082096099853515625	5.6974223603259002146614875528030097484588623046875	11.4263735341501000419839328969828784465789794921875	88.605493985689605551669956184923648834228515625	3.605494498551539805930588045157492160797119140625	2.33333336072973995811707936809398233890533447265625	0.0	55.8697234063098022716076229698956012725830078125	0.0	1	1	1	0
6896	S6	2019	10	15	8	64.11829546822440306641510687768459320068359375	114.01906881713199481964693404734134674072265625	48.56516607072610014483871054835617542266845703125	11.784166709581999299416565918363630771636962890625	86.566666412353498571974341757595539093017578125	4.33416666984557963360202847979962825775146484375	50.85000026350210333703216747380793094635009765625	0.0	1715.089566260570109079708345234394073486328125	0.0	1	1	1	1
6897	S6	2019	10	15	9	175.52358341217001225231797434389591217041015625	362.5086094326439933865913189947605133056640625	91.7997042549981046022367081604897975921630859375	12.685000038146899470348216709680855274200439453125	83.1316665649413977234871708787977695465087890625	4.82222223050063991678371166926808655261993408203125	232.0833330353090104836155660450458526611328125	0.0	5919.4810658693104414851404726505279541015625	0.0	1	1	1	1
6898	S6	2019	10	15	10	282.66846538119801834909594617784023284912109375	436.89642139010902610607445240020751953125	137.517329470316013839692459441721439361572265625	13.7591666539510004696467149187810719013214111328125	80.614999707539794826516299508512020111083984375	4.586388880676690149584828759543597698211669921875	421.26666655142997797156567685306072235107421875	0.0	11576.847847302700756699778139591217041015625	0.0	1	1	1	1
6899	S6	2019	10	15	11	305.06403490961798752323375083506107330322265625	361.91470010079001440317369997501373291015625	161.150408019129002923364168964326381683349609375	14.5314868865833002331555690034292638301849365234375	81.8306124272915980100151500664651393890380859375	3.743148689454220079397828158107586205005645751953125	427.5999993085860069186310283839702606201171875	0.0	11562.013759215600657626055181026458740234375	0.0	1	1	1	1
6900	S6	2019	10	15	12	235.489478336291000459823408164083957672119140625	81.1622554659843018498577293939888477325439453125	197.98128625248199341513100080192089080810546875	14.2328651835409001336074652499519288539886474609375	85.1651688479305022383414325304329395294189453125	3.29943819009185990154264800366945564746856689453125	293.2666679223369783358066342771053314208984375	0.0	8048.7363348404396674595773220062255859375	0.0	1	1	1	1
6901	S6	2019	10	15	13	341.90916531843600978390895761549472808837890625	292.13366957795102507589035667479038238525390625	213.446317533708992186802788637578487396240234375	14.628862995447899919554402003996074199676513671875	85.18134085430000368432956747710704803466796875	3.88483963902420015301686362363398075103759765625	498.50000043710002728403196670114994049072265625	0.0	12885.83533763880041078664362430572509765625	0.0	1	1	1	1
6902	S6	2019	10	15	14	264.6242997673119816681719385087490081787109375	221.463749060470007634648936800658702850341796875	175.58078650142300602965406142175197601318359375	14.8036516703916003478980201180092990398406982421875	84.5289331929067060400484479032456874847412109375	3.261235948861310074420316595933400094509124755859375	392.86666860182998561867862008512020111083984375	0.0	10096.558823188099268008954823017120361328125	0.0	1	1	1	1
6903	S6	2019	10	15	15	192.298756345112991539281210862100124359130859375	132.801648934681992386686033569276332855224609375	147.9722809261739939756807871162891387939453125	14.987500055630999185041218879632651805877685546875	83.917499287923106976450071670114994049072265625	2.740000006308150215517116521368734538555145263671875	259.65000043312699062880710698664188385009765625	0.0	6736.55993739764016936533153057098388671875	0.0	1	1	1	1
6904	S6	2019	10	15	16	124.15648797353100007967441342771053314208984375	70.4284676975673988863491103984415531158447265625	110.0396080017080038260246510617434978485107421875	14.4158332506814996776256521116010844707489013671875	85.77666683197020347506622783839702606201171875	2.96805556002589998598750753444619476795196533203125	156.316667546828995227770064957439899444580078125	0.0	4016.89282755056001406046561896800994873046875	0.0	1	1	1	1
6905	S6	2019	10	15	17	41.79697113566920307903274078853428363800048828125	16.009599974916998377238996908999979496002197265625	39.96302056312560324613514239899814128875732421875	13.6841666777928008258413683506660163402557373046875	88.5908333460489956223682384006679058074951171875	1.820000002450409937182485009543597698211669921875	44.750000257045002172162639908492565155029296875	0.0	1121.78610761959998853853903710842132568359375	0.0	1	1	1	1
6906	S6	2019	10	15	18	6.67447006936165987411868627532385289669036865234375	0.31454050687013801468339124767226167023181915283203125	6.92433650820863011432493294705636799335479736328125	13.1117649078368998516452847979962825775146484375	90.7941176470587976155002252198755741119384765625	1.301960786768030065019274843507446348667144775390625	0.2500000099341079806691823250730521976947784423828125	0.0	21.64774825796479973405439523048698902130126953125	0.0	1	1	1	0
6907	S6	2019	10	15	19	0	0	0	0	0	0	0	0.0	0	0.0	1	1	1	0
6908	S6	2019	10	15	20	0	0	0	0	0	0	0	0.0	0	0.0	1	1	1	0
6909	S6	2019	10	15	21	0	0	0	0	0	0	0	0.0	0	0.0	1	1	1	0
6910	S6	2019	10	15	22	0	0	0	0	0	0	0	0.0	0	0.0	1	1	1	0
6911	S6	2019	10	15	23	0	0	0	0	0	0	0	0.0	0	0.0	1	1	1	0
6912	S6	2019	10	15	24	0	0	0	0	0	0	0	0.0	0	0.0	1	1	1	0
6913	S6	2019	10	16	1	0	0	0	0	0	0	0	0.0	0	0.0	1	1	1	0
6914	S6	2019	10	16	2	0	0	0	0	0	0	0	0.0	0	0.0	1	1	1	0
6915	S6	2019	10	16	3	0	0	0	0	0	0	0	0.0	0	0.0	1	1	1	0
6916	S6	2019	10	16	4	0	0	0	0	0	0	0	0.0	0	0.0	1	1	1	0
6917	S6	2019	10	16	5	0	0	0	0	0	0	0	0.0	0	0.0	1	1	1	0
6918	S6	2019	10	16	6	0	0	0	0	0	0	0	0.0	0	0.0	1	1	1	0
6919	S6	2019	10	16	7	3.90721703798342989699676763848401606082916259765625	0.404044857391944012281470577363506890833377838134765625	3.855263728361860042781472657225094735622406005859375	12.007692337036100838076890795491635799407958984375	98.0923062838040067390465992502868175506591796875	0.68974359524555695077907557788421399891376495361328125	0.9833333586963559636018317178240977227687835693359375	0.0	21.057423196422501376900981995277106761932373046875	0.0	1	1	1	0
6920	S6	2019	10	16	8	13.3668079003274993254990476998500525951385498046875	0.43741054649792499020577452029101550579071044921875	13.5300553670808003658976303995586931705474853515625	12.06871526600919963811975321732461452484130859375	97.918995137987195676032570190727710723876953125	0.6692737468294589486816903445287607610225677490234375	12.3166667142261996303886917303316295146942138671875	0.0	349.56990840534200515321572311222553253173828125	0.0	1	1	1	1
6921	S6	2019	10	16	9	22.13034857643970099161379039287567138671875	0.4697694084710539730309619699255563318729400634765625	22.2579604519738012413654359988868236541748046875	12.2188889026640996604555766680277884006500244140625	97.63111118740499705381807871162891387939453125	0.33611111417412697921491826491546817123889923095703125	20.933333365246600266118548461236059665679931640625	0.0	614.2150470366069612282444722950458526611328125	0.0	1	1	1	1
6922	S6	2019	10	16	10	40.6758954630956992559731588698923587799072265625	0.5350022724105250038206804674700833857059478759765625	40.8069168143802016857080161571502685546875	12.61333339479229920243597007356584072113037109375	97.2216671413845006100018508732318878173828125	0.11972222427527100252486746967406361363828182220458984375	36.65000010902689808744980837218463420867919921875	0.0	1079.620368778699912581942044198513031005859375	0.0	1	1	1	1
6923	S6	2019	10	16	11	43.47131758795840283937650383450090885162353515625	0.434610823293526016275478696115897037088871002197265625	43.60086938540140266695743775926530361175537109375	12.52444445292150021487032063305377960205078125	97.5194453345404070887525449506938457489013671875	0.78611111309793202384099686241825111210346221923828125	41.28333345676450250039124512113630771636962890625	0.0	1224.17125801244992544525302946567535400390625	0.0	1	1	1	1
6924	S6	2019	10	16	12	36.323872550328502484262571670114994049072265625	0.5116193524665300085274566299631260335445404052734375	36.41156427595350209003299823962152004241943359375	12.5894446002112001536943353130482137203216552734375	97.4800003899467952805935055948793888092041015625	0.437500003145800009374255523653118871152400970458984375	32.566666758308798534926609136164188385009765625	0.0	980.5450901389129967355984263122081756591796875	0.0	1	1	1	1
6925	S6	2019	10	16	13	41.30453119277949980414632591418921947479248046875	0.441326268969309987166838027405901812016963958740234375	41.40434121025929670167897711507976055145263671875	12.746111064486999708833536715246737003326416015625	97.1411109500460980825664591975510120391845703125	1.0991666671302500191131912288255989551544189453125	35.50000032410019912276766262948513031005859375	0.0	1051.60066733757003021310083568096160888671875	0.0	1	1	1	1
6926	S6	2019	10	16	14	52.0153430091010022806585766375064849853515625	0.50767868976626095989246323370025493204593658447265625	52.1642349667018976333565660752356052398681640625	12.9405554294586000452227381174452602863311767578125	96.8388890160453996713840751908719539642333984375	1.0327777775625299749862051612581126391887664794921875	44.86666660134989825792217743583023548126220703125	0.0	1328.757391870020001078955829143524169921875	0.0	1	1	1	1
6927	S6	2019	10	16	15	28.050172101126701562634480069391429424285888671875	0.381793814442223988780966692502261139452457427978515625	28.073053762647798947682531434111297130584716796875	13.0150000095367008867697222740389406681060791015625	96.4161117553710056427007657475769519805908203125	1.16555555562178003725648522959090769290924072265625	21.633333433419398517116860602982342243194580078125	0.0	652.3340591539939623544341884553432464599609375	0.0	1	1	1	1
6928	S6	2019	10	16	16	13.085121782620699804056130233220756053924560546875	0.392735927386415994977397758702863939106464385986328125	13.0879693415428999259120246279053390026092529296875	12.9294443607329991863252871553413569927215576171875	97.35388912624779322868562303483486175537109375	1.5986111134290599267160359886474907398223876953125	10.199999956724500549398726434446871280670166015625	0.0	299.29835785490701027811155654489994049072265625	0.0	1	1	1	1
6929	S6	2019	10	16	17	3.389396080810029854291087758610956370830535888671875	0.379514081382683998722171736517339013516902923583984375	3.402163481779310050256981412530876696109771728515625	12.7983145820959993699261758592911064624786376953125	97.195786143956496516693732701241970062255859375	1.445786519080729970454513022559694945812225341796875	1.900000080543879921179950542864389717578887939453125	0.0	46.80522649626559683611048967577517032623291015625	0.0	1	1	1	1
6930	S6	2019	10	16	18	1.1991252303123400846374124739668332040309906005859375	0.374049315529484005526938972252537496387958526611328125	1.1989854093520799782623953433358110487461090087890625	12.6870966572914998238275074982084333896636962890625	97.0354833295267980020071263425052165985107421875	1.30322580568252011090635278378613293170928955078125	0	0.0	0	0.0	1	1	1	0
6931	S6	2019	10	16	19	0	0	0	0	0	0	0	0.0	0	0.0	1	1	1	0
6932	S6	2019	10	16	20	0	0	0	0	0	0	0	0.0	0	0.0	1	1	1	0
6933	S6	2019	10	16	21	0	0	0	0	0	0	0	0.0	0	0.0	1	1	1	0
6934	S6	2019	10	16	22	0	0	0	0	0	0	0	0.0	0	0.0	1	1	1	0
6935	S6	2019	10	16	23	0	0	0	0	0	0	0	0.0	0	0.0	1	1	1	0
6936	S6	2019	10	16	24	0	0	0	0	0	0	0	0.0	0	0.0	1	1	1	0
6937	S6	2019	10	17	1	0	0	0	0	0	0	0	0.0	0	0.0	1	1	1	0
6938	S6	2019	10	17	2	0	0	0	0	0	0	0	0.0	0	0.0	1	1	1	0
6939	S6	2019	10	17	3	0	0	0	0	0	0	0	0.0	0	0.0	1	1	1	0
6940	S6	2019	10	17	4	0	0	0	0	0	0	0	0.0	0	0.0	1	1	1	0
6941	S6	2019	10	17	5	0	0	0	0	0	0	0	0.0	0	0.0	1	1	1	0
6942	S6	2019	10	17	6	0	0	0	0	0	0	0	0.0	0	0.0	1	1	1	0
6943	S6	2019	10	17	7	2.4486020615226298247080194414593279361724853515625	0.47836711061628200969408908349578268826007843017578125	2.544428957136049884724116054712794721126556396484375	10.77105263659819911481463350355625152587890625	98.181577582108303658969816751778125762939453125	1.32894736763678000812660684459842741489410400390625	0.883333355886863014205800936906598508358001708984375	0.0	9.4872483983635707005532822222448885440826416015625	0.0	1	1	1	0
6944	S6	2019	10	17	8	8.8953054407368501443897912395186722278594970703125	0.480447658939637978203762713746982626616954803466796875	8.99669883354849986289991647936403751373291015625	11.58521739019860063990563503466546535491943359375	98.250145467122393938552704639732837677001953125	1.7849275321200199773130634639528580009937286376953125	9.6500001459693098837533398182131350040435791015625	0.0	250.429704242073995601458591409027576446533203125	0.0	1	1	1	1
6945	S6	2019	10	17	9	34.64178668128119653601970640011131763458251953125	0.482862745804919002434729691231041215360164642333984375	34.767340872022799658225267194211483001708984375	12.34944447411429990779652143828570842742919921875	97.99833323160800091500277630984783172607421875	2.13527777691682008054385732975788414478302001953125	34.78333329160999909390739048831164836883544921875	0.0	1009.820105011260011451668106019496917724609375	0.0	1	1	1	1
6946	S6	2019	10	17	10	84.7483143276638060115146799944341182708740234375	0.62104473652111102932593666992033831775188446044921875	84.9362765524121954285874380730092525482177734375	13.007222217983599676927042310126125812530517578125	97.4677780999077043588840751908719539642333984375	2.415555551151430169198874864378012716770172119140625	81.20000033328909694319008849561214447021484375	0.0	2128.2258665189101520809344947338104248046875	0.0	1	1	1	1
6947	S6	2019	10	17	11	116.68053525288900118539459072053432464599609375	0.6476795377002819709133518699673004448413848876953125	116.8157835006710030256726895458996295928955078125	13.7255555205874006929889219463802874088287353515625	96.690555106268902818555943667888641357421875	1.7813888832098900838474264674005098640918731689453125	107.1833337346700005809907452203333377838134765625	0.0	3029.49839333692989384871907532215118408203125	0.0	1	1	1	1
6948	S6	2019	10	17	12	115.8286514706079941561256418935954570770263671875	0.6005301910142100130229891874478198587894439697265625	116.0192403793329987138349679298698902130126953125	14.2916666242811007947466350742615759372711181640625	96.1744441986083984375	1.57361110829643990882686921395361423492431640625	109.666666636863993744555045850574970245361328125	0.0	3152.371067802099787513725459575653076171875	0.0	1	1	1	1
6949	S6	2019	10	17	13	125.8153066953019987295192549936473369598388671875	0.67557801190349697773029902236885391175746917724609375	126.050570466783000256327795796096324920654296875	14.5977778593699003550909765181131660938262939453125	95.7677780151366988548033987171947956085205078125	1.7266666673951600596836897238972596824169158935546875	112.8500008955590061532348045147955417633056640625	0.0	3236.1319800217997908475808799266815185546875	0.0	1	1	1	1
6950	S6	2019	10	17	14	109.06333505842400199981057085096836090087890625	0.61379275843501002185575998737476766109466552734375	109.259123971727007074150606058537960052490234375	14.728888924916500258177620708011090755462646484375	94.8566667768690052753299823962152004241943359375	1.5033333302372000606084156970609910786151885986328125	98.8166663795708046791332890279591083526611328125	0.0	2873.29774747292003667098470032215118408203125	0.0	1	1	1	1
6951	S6	2019	10	17	15	48.27064218521110205983859486877918243408203125	0.42755980859510600566864013671875	48.47359903653460122541218879632651805877685546875	14.62944460974789961937858606688678264617919921875	95.59111107720269728815765120089054107666015625	1.0266666685541399051118105489877052605152130126953125	41.2333333554366987527828314341604709625244140625	0.0	1198.610308021299942993209697306156158447265625	0.0	1	1	1	1
6952	S6	2019	10	17	16	27.466424001587700587379003991372883319854736328125	0.441640157997607973872078446220257319509983062744140625	27.68452920383870008436133502982556819915771484375	14.476666657129900528389043756760656833648681640625	96.11610984802240409408113919198513031005859375	0.789722224573293996030542984954081475734710693359375	23.28333340895670033887654426507651805877685546875	0.0	673.1665829817439998805639334022998809814453125	0.0	1	1	1	1
6953	S6	2019	10	17	17	13.209817918864100505516034900210797786712646484375	0.409685386937449991240356439448078162968158721923828125	13.416225083849599997165569220669567584991455078125	14.1818182468414004659962301957421004772186279296875	95.7497165636581968328755465336143970489501953125	0.866761365312743947697526891715824604034423828125	9.9166667166476401007457752712070941925048828125	0.0	287.52669698248200802481733262538909912109375	0.0	1	1	1	1
6954	S6	2019	10	17	18	4.1065167344134696492119473987258970737457275390625	0.43188056349754300189403011245303787291049957275390625	4.26308756289274004558365049888379871845245361328125	14.013043528017700367627185187302529811859130859375	95.273914503014594856722396798431873321533203125	0.686956528736196947448888749931938946247100830078125	0.08333333729145660229153946829683263786137104034423828125	0.0	5.09021828571961965081982270930893719196319580078125	0.0	1	1	1	0
6955	S6	2019	10	17	19	0	0	0	0	0	0	0	0.0	0	0.0	1	1	1	0
6956	S6	2019	10	17	20	0	0	0	0	0	0	0	0.0	0	0.0	1	1	1	0
6957	S6	2019	10	17	21	0	0	0	0	0	0	0	0.0	0	0.0	1	1	1	0
6958	S6	2019	10	17	22	0	0	0	0	0	0	0	0.0	0	0.0	1	1	1	0
6959	S6	2019	10	17	23	0	0	0	0	0	0	0	0.0	0	0.0	1	1	1	0
6960	S6	2019	10	17	24	0	0	0	0	0	0	0	0.0	0	0.0	1	1	1	0
6961	S6	2019	10	18	1	0	0	0	0	0	0	0	0.0	0	0.0	1	1	1	0
6962	S6	2019	10	18	2	0	0	0	0	0	0	0	0.0	0	0.0	1	1	1	0
6963	S6	2019	10	18	3	0	0	0	0	0	0	0	0.0	0	0.0	1	1	1	0
6964	S6	2019	10	18	4	0	0	0	0	0	0	0	0.0	0	0.0	1	1	1	0
6965	S6	2019	10	18	5	0	0	0	0	0	0	0	0.0	0	0.0	1	1	1	0
6966	S6	2019	10	18	6	0	0	0	0	0	0	0	0.0	0	0.0	1	1	1	0
6967	S6	2019	10	18	7	1.848718912533990010871320919250138103961944580078125	0.403725339556639972737883681475068442523479461669921875	1.8238699576764700882591796471388079226016998291015625	13.4490565174029992334681082866154611110687255859375	98.1377337473742983320335042662918567657470703125	3.001886792902670020311006737756542861461639404296875	0.383333349600438022530823900524410419166088104248046875	0.0	4.7753966491048398523844298324547708034515380859375	0.0	1	1	1	0
6968	S6	2019	10	18	8	12.2488443308405994258691862341947853565216064453125	0.43764948861466501650596683248295448720455169677734375	12.210878723197499340358262998051941394805908203125	13.4827777756584996637911899597384035587310791015625	97.6150004916720064329638262279331684112548828125	2.867777783340870190187388288904912769794464111328125	11.1833335133269002881206688471138477325439453125	0.0	302.17046169563997182194725610315799713134765625	0.0	1	1	1	1
6969	S6	2019	10	18	9	37.56350631713859655747000942938029766082763671875	0.7321483395165859775488570448942482471466064453125	37.59797341823570349106375942938029766082763671875	13.67500001059629965993735822848975658416748046875	96.602222400241402056053630076348781585693359375	2.732499998476769942357122999965213239192962646484375	39.316666529824402687154361046850681304931640625	0.0	1092.0935555050700713763944804668426513671875	0.0	1	1	1	1
6970	S6	2019	10	18	10	176.967151170366008727796724997460842132568359375	58.79765380634349725141873932443559169769287109375	158.049340430270007118451758287847042083740234375	14.3238763541317997152191310306079685688018798828125	93.2918532725129949767506332136690616607666015625	2.328370782096730096100145601667463779449462890625	208.283334722120997639649431221187114715576171875	0.0	5750.7941484451303040259517729282379150390625	0.0	1	1	1	1
6971	S6	2019	10	18	11	236.558330938550994915203773416578769683837890625	74.1820823796092980728644761256873607635498046875	208.07566112942100744476192630827426910400390625	15.0549999396006004559467328363098204135894775390625	89.1599999745686062624372425489127635955810546875	2.014166662262539819749918024172075092792510986328125	258.75000047187000973281101323664188385009765625	0.0	7278.50682536759995855391025543212890625	0.0	1	1	1	1
6972	S6	2019	10	18	12	236.298629317171986485845991410315036773681640625	104.1313298762079995185558800585567951202392578125	191.649296450060006691273883916437625885009765625	15.61656967983680033285054378211498260498046875	86.04186069133669434449984692037105560302734375	1.912499998197989992121392788249067962169647216796875	311.933333302536993869580328464508056640625	0.0	8274.859791994089391664601862430572509765625	0.0	1	1	1	1
6973	S6	2019	10	18	13	279.24867904081298775054165162146091461181640625	260.519549803517975306021980941295623779296875	170.88648205978000760296708904206752777099609375	16.0475071546268992506156791932880878448486328125	80.0771262652713033958207233808934688568115234375	2.385337241846090083896569922217167913913726806640625	409.91666776438597707965527661144733428955078125	0.0	10349.929267167999569210223853588104248046875	0.0	1	1	1	1
6974	S6	2019	10	18	14	202.237474081251008328763418830931186676025390625	98.734212465004702607984654605388641357421875	165.386403613619989982908009551465511322021484375	15.88777766757539922082287375815212726593017578125	79.54888899061410256763338111340999603271484375	2.438888888557749989871581419720314443111419677734375	251.833333199223005749445292167365550994873046875	0.0	6653.8609405358502044691704213619232177734375	0.0	1	1	1	1
6975	S6	2019	10	18	15	119.02325977749200092148385010659694671630859375	5.7218107480141799925377199542708694934844970703125	116.8809721628820028627160354517400264739990234375	15.4922221925522993757340373122133314609527587890625	84.24611121283629699973971582949161529541015625	2.560555560141799968931763942237012088298797607421875	115.749999880789999906482989899814128875732421875	0.0	3280.5447419484398778877221047878265380859375	0.0	1	1	1	1
6976	S6	2019	10	18	16	75.44121264351730360431247390806674957275390625	3.698504358157510107929510922986082732677459716796875	74.7015963713327977302469662390649318695068359375	14.8338890181646991806019286741502583026885986328125	88.3577779134113967529629007913172245025634765625	2.62361110879314995969480150961317121982574462890625	66.74999988948320606141351163387298583984375	0.0	1884.94612996777004809700883924961090087890625	0.0	1	1	1	1
6977	S6	2019	10	18	17	13.780354461984000380425641196779906749725341796875	0.36819973579066900271072881878353655338287353515625	13.8906692980292003625208963057957589626312255859375	14.1532933554963005207127935136668384075164794921875	92.0026947067168947569371084682643413543701171875	2.37215568669541010393686519819311797618865966796875	10.00000001901450019659023382700979709625244140625	0.0	293.29752982593998922311584465205669403076171875	0.0	1	1	1	1
6978	S6	2019	10	18	18	0	0	0	0	0	0	0	0.0	0.31791001092642401371080040917149744927883148193359375	0.0	1	1	1	0
6979	S6	2019	10	18	19	0	0	0	0	0	0	0	0.0	0	0.0	1	1	1	0
6980	S6	2019	10	18	20	0	0	0	0	0	0	0	0.0	0	0.0	1	1	1	0
6981	S6	2019	10	18	21	0	0	0	0	0	0	0	0.0	0	0.0	1	1	1	0
6982	S6	2019	10	18	22	0	0	0	0	0	0	0	0.0	0	0.0	1	1	1	0
6983	S6	2019	10	18	23	0	0	0	0	0	0	0	0.0	0	0.0	1	1	1	0
6984	S6	2019	10	18	24	0	0	0	0	0	0	0	0.0	0	0.0	1	1	1	0
6985	S6	2019	10	19	1	0	0	0	0	0	0	0	0.0	0	0.0	1	1	1	0
6986	S6	2019	10	19	2	0	0	0	0	0	0	0	0.0	0	0.0	1	1	1	0
6987	S6	2019	10	19	3	0	0	0	0	0	0	0	0.0	0	0.0	1	1	1	0
6988	S6	2019	10	19	4	0	0	0	0	0	0	0	0.0	0	0.0	1	1	1	0
6989	S6	2019	10	19	5	0	0	0	0	0	0	0	0.0	0	0.0	1	1	1	0
6990	S6	2019	10	19	6	0	0	0	0	0	0	0	0.0	0	0.0	1	1	1	0
6991	S6	2019	10	19	7	4.3987116473061700361313342000357806682586669921875	0.55787932447024701776427946242620237171649932861328125	4.573667083467750416048147599212825298309326171875	10.3285714558191994427716053905896842479705810546875	85.0714307512555052426250767894089221954345703125	3.2142857142857099717048185993917286396026611328125	0.85000002679104802449927547058905474841594696044921875	0.0	30.98742476043599936019745655357837677001953125	0.0	1	1	1	0
6992	S6	2019	10	19	8	30.3102590563621987485021236352622509002685546875	9.0373519449918102708352307672612369060516357421875	29.77983108840199832911821431480348110198974609375	10.4190340150486004944241358316503465175628662109375	84.3534095720811052387944073416292667388916015625	2.245454540476199856158245893311686813831329345703125	28.583333517114198230046895332634449005126953125	0.0	842.05399776498597930185496807098388671875	0.0	1	1	1	1
6993	S6	2019	10	19	9	81.8601288265652016207241103984415531158447265625	2.2866364633043598786343864048831164836883544921875	81.610045242309496416055480949580669403076171875	10.762777794731899660973795107565820217132568359375	84.131667031182104210529359988868236541748046875	2.497500002384180017855896949185989797115325927734375	84.3833333502214060217738733626902103424072265625	0.0	2432.759379843870192416943609714508056640625	0.0	1	1	1	1
6994	S6	2019	10	19	10	139.17266974978900861970032565295696258544921875	9.1246683084302393496045624488033354282379150390625	136.253942892286005417190608568489551544189453125	11.725555600060300065479168551973998546600341796875	82.673333528306699236054555512964725494384765625	2.61083333078356982781542683369480073451995849609375	145.350000013907987295169732533395290374755859375	0.0	4188.6767258246700293966569006443023681640625	0.0	1	1	1	1
6995	S6	2019	10	19	11	153.40355796813901179120875895023345947265625	5.9016250663333398307486277190037071704864501953125	151.13209137386701286231982521712779998779296875	12.5955555862850001602737393113784492015838623046875	79.3338882022433011798057123087346553802490234375	2.360555551449449840362149188877083361148834228515625	157.7000000824519929665257222950458526611328125	0.0	4566.8460369110098326927982270717620849609375	0.0	1	1	1	1
6996	S6	2019	10	19	12	306.61489562988202806081972084939479827880859375	173.894683737059011718883994035422801971435546875	234.167224248249993934223311953246593475341796875	14.0266667101117992189074357156641781330108642578125	74.6605552249483963578313705511391162872314453125	2.769999995827669980741347899311222136020660400390625	419.7666645050049964993377216160297393798828125	0.0	11321.562969684500785660929977893829345703125	0.0	1	1	1	1
6997	S6	2019	10	19	13	305.32744322882700771515374071896076202392578125	209.962746265199001527435029856860637664794921875	219.20022934807599312989623285830020904541015625	14.525000021192699506400458631105720996856689453125	72.1483330620659017995421891100704669952392578125	2.381388890246550094076383174979127943515777587890625	430.95000088214800371133605949580669403076171875	0.0	11266.95317228629937744699418544769287109375	0.0	1	1	1	1
6998	S6	2019	10	19	14	297.209649403888988672406412661075592041015625	278.0325095767769880694686435163021087646484375	195.45540733337401206881622783839702606201171875	15.5500000052981004472485437872819602489471435546875	66.791666645473895869145053438842296600341796875	2.421944438831669987877148741972632706165313720703125	409.46666449308298751930124126374721527099609375	0.0	10592.137674490599238197319209575653076171875	0.0	1	1	1	1
6999	S6	2019	10	19	15	186.796933661565986994901322759687900543212890625	135.326862942840989489923231303691864013671875	144.515568457709008498568437062203884124755859375	15.341666772630400572552389348857104778289794921875	68.131666649712400385396904312074184417724609375	2.583888888607420053489249767153523862361907958984375	241.633333141604992988504818640649318695068359375	0.0	6189.1825636227904396946541965007781982421875	0.0	1	1	1	1
7000	S6	2019	10	19	16	85.580156951480404359244857914745807647705078125	12.7794902775849994469581361045129597187042236328125	83.119914372761996901317615993320941925048828125	14.4055554813807997760477519477717578411102294921875	73.2894438849555029946714057587087154388427734375	2.176388887067629784866085174144245684146881103515625	92.1499999240034952663336298428475856781005859375	0.0	2451.25257273513989275670610368251800537109375	0.0	1	1	1	1
7001	S6	2019	10	19	17	16.489341077191799200818422832526266574859619140625	0.40748328386738297268720998545177280902862548828125	16.620712588619198868400417268276214599609375	13.6863127420733992067880535614676773548126220703125	78.0731839441053949713023030199110507965087890625	2.092458097628369984022356220521032810211181640625	10.6666668415223995225460384972393512725830078125	0.0	329.611508113642003081622533500194549560546875	0.0	1	1	1	1
7002	S6	2019	10	19	18	0	0	0	0	0	0	0	0.0	0.8586799725890259527005810014088638126850128173828125	0.0	1	1	1	0
7003	S6	2019	10	19	19	0	0	0	0	0	0	0	0.0	0	0.0	1	1	1	0
7004	S6	2019	10	19	20	0	0	0	0	0	0	0	0.0	0	0.0	1	1	1	0
7005	S6	2019	10	19	21	0	0	0	0	0	0	0	0.0	0	0.0	1	1	1	0
7006	S6	2019	10	19	22	0	0	0	0	0	0	0	0.0	0	0.0	1	1	1	0
7007	S6	2019	10	19	23	0	0	0	0	0	0	0	0.0	0	0.0	1	1	1	0
7008	S6	2019	10	19	24	0	0	0	0	0	0	0	0.0	0	0.0	1	1	1	0
7009	S6	2019	10	20	1	0	0	0	0	0	0	0	0.0	0	0.0	1	1	1	0
7010	S6	2019	10	20	2	0	0	0	0	0	0	0	0.0	0	0.0	1	1	1	0
7011	S6	2019	10	20	3	0	0	0	0	0	0	0	0.0	0	0.0	1	1	1	0
7012	S6	2019	10	20	4	0	0	0	0	0	0	0	0.0	0	0.0	1	1	1	0
7013	S6	2019	10	20	5	0	0	0	0	0	0	0	0.0	0	0.0	1	1	1	0
7014	S6	2019	10	20	6	0	0	0	0	0	0	0.10000000474975000164246097256182110868394374847412109375	0.0	0	0.0	1	1	1	0
7015	S6	2019	10	20	7	6.534788025750049911266614799387753009796142578125	0.192353980408773994614790581181296147406101226806640625	6.81433569060431043595826849923469126224517822265625	10.48333326975500057187673519365489482879638671875	96.9777781168618986384899471886456012725830078125	1.6833333141273900679379948996938765048980712890625	0.75000002010104804828216629175585694611072540283203125	0.0	27.84748987760379890232798061333596706390380859375	0.0	1	1	1	0
7016	S6	2019	10	20	8	27.757302694850398694370596786029636859893798828125	0.5027966969543029573941339549492113292217254638671875	28.1456031163532998107257299125194549560546875	10.5863888131246994817047379910945892333984375	97.4224997626409958684234879910945892333984375	1.3050000016887899345618961888249032199382781982421875	27.983333341156399143301314325071871280670166015625	0.0	804.724881673851996310986578464508056640625	0.0	1	1	1	1
7017	S6	2019	10	20	9	52.07722305721699740388430655002593994140625	0.500112302435768985020558830001391470432281494140625	52.462513393825901175659964792430400848388671875	11.1755555629730007893840593169443309307098388671875	96.8930563184949988908556406386196613311767578125	1.01055555591980006369112743414007127285003662109375	50.4500001048048005714008468203246593475341796875	0.0	1461.118983725699990827706642448902130126953125	0.0	1	1	1	1
7018	S6	2019	10	20	10	98.3742005242240935558584169484674930572509765625	0.73180340247021702371199580738903023302555084228515625	98.5461537255180957117772777564823627471923828125	11.698055632909099443850209354422986507415771484375	95.6175003263684999410543241538107395172119140625	1.495277776651910084382279819692485034465789794921875	96.81666729350860123304300941526889801025390625	0.0	2833.51116230090019598719663918018341064453125	0.0	1	1	1	1
7019	S6	2019	10	20	11	253.333064829935011630368535406887531280517578125	198.3246710348020087621989659965038299560546875	177.265229382768012555970926769077777862548828125	12.675070009311699692489128210581839084625244140625	92.6400557659587065018058638088405132293701171875	1.4467787113176300284322906009037978947162628173828125	358.88333072264998691025539301335811614990234375	0.0	9702.550320823980655404739081859588623046875	0.0	1	1	1	1
7020	S6	2019	10	20	12	330.5408608450010206070146523416042327880859375	304.4593675646980273086228407919406890869140625	207.140758589623004581881104968488216400146484375	13.752957755075300383396097458899021148681640625	86.88253554223280161750153638422489166259765625	1.363661971226540092771983836428262293338775634765625	478.33333561817698864615522325038909912109375	0.0	12365.09971221279920428059995174407958984375	0.0	1	1	1	1
7021	S6	2019	10	20	13	236.9571724361840097117237746715545654296875	40.10537595848239789120270870625972747802734375	218.8752502865260112230316735804080963134765625	13.9591666248108996484234012314118444919586181640625	83.7497220781114037890802137553691864013671875	1.0188888899154100453614546495373360812664031982421875	260.6166670719779858700348995625972747802734375	0.0	7109.554638465249809087254106998443603515625	0.0	1	1	1	1
7022	S6	2019	10	20	14	152.60368781619598621546174399554729461669921875	5.463128676099909597496662172488868236541748046875	150.493558798895008976614917628467082977294921875	14.259166675143699620775805669836699962615966796875	80.6208331849839936467105871997773647308349609375	0.77361111425691098109069798738346435129642486572265625	147.04999973376499156074714846909046173095703125	0.0	4262.1201097965104054310359060764312744140625	0.0	1	1	1	1
7023	S6	2019	10	20	15	82.99373166826029546427889727056026458740234375	0.5739604458212850257581294499686919152736663818359375	83.15261882146199923226959072053432464599609375	14.072777748107899498108963598497211933135986328125	80.4049995634290013413192355073988437652587890625	0.527777781751419983180539929890073835849761962890625	71.40000015497190588575904257595539093017578125	0.0	2125.4516368110898838494904339313507080078125	0.0	1	1	1	1
7024	S6	2019	10	20	16	43.63661459816820098467360367067158222198486328125	0.42418518186443299189392064363346435129642486572265625	43.91735308965039763506865710951387882232666015625	13.8744443098704000050247486797161400318145751953125	82.7683332443236992048696265555918216705322265625	0.203888892051245995684638501188601367175579071044921875	35.8166666546215992639190517365932464599609375	0.0	1088.071457669140045254607684910297393798828125	0.0	1	1	1	1
7025	S6	2019	10	20	17	11.5399944139709997870113511453382670879364013671875	0.330620901011828005611192793367081321775913238525390625	11.77512319290890019374273833818733692169189453125	13.1581560094305007879711411078460514545440673828125	87.0836881272336000847644754685461521148681640625	0.71276595987749402638655737973749637603759765625	5.4666667691587402799768824479542672634124755859375	0.0	203.7840781849799896008335053920745849609375	0.0	1	1	1	1
7026	S6	2019	10	20	18	0	0	0	0	0	0	0	0.0	0	0.0	1	1	1	0
7027	S6	2019	10	20	19	0	0	0	0	0	0	0	0.0	0	0.0	1	1	1	0
7028	S6	2019	10	20	20	0	0	0	0	0	0	0	0.0	0	0.0	1	1	1	0
7029	S6	2019	10	20	21	0	0	0	0	0	0	0	0.0	0	0.0	1	1	1	0
7030	S6	2019	10	20	22	0	0	0	0	0	0	0	0.0	0	0.0	1	1	1	0
7031	S6	2019	10	20	23	0	0	0	0	0	0	0	0.0	0	0.0	1	1	1	0
7032	S6	2019	10	20	24	0	0	0	0	0	0	0	0.0	0	0.0	1	1	1	0
7033	S6	2019	10	21	1	0	0	0	0	0	0	0	0.0	0	0.0	1	1	1	0
7034	S6	2019	10	21	2	0	0	0	0	0	0	0	0.0	0	0.0	1	1	1	0
7035	S6	2019	10	21	3	0	0	0	0	0	0	0	0.0	0	0.0	1	1	1	0
7036	S6	2019	10	21	4	0	0	0	0	0	0	0	0.0	0	0.0	1	1	1	0
7037	S6	2019	10	21	5	0	0	0	0	0	0	0	0.0	0	0.0	1	1	1	0
7038	S6	2019	10	21	6	0	0	0	0	0	0	0	0.0	0	0.0	1	1	1	0
7039	S6	2019	10	21	7	0	0	0	0	0	0	0.1500000071246249955247975549355032853782176971435546875	0.0	0	0.0	1	1	1	0
7040	S6	2019	10	21	8	9.8538833691821796634258134872652590274810791015625	0.36082363116547300219139060573070310056209564208984375	9.9295443456347403099471193854697048664093017578125	10.63699199707519937874167226254940032958984375	97.8556920493521005255388445220887660980224609375	0.7544715480833510401481589724426157772541046142578125	6.88333349923293980054950225166976451873779296875	0.0	192.193416133521992605892592109739780426025390625	0.0	1	1	1	1
7041	S6	2019	10	21	9	24.4066050741406996849036659114062786102294921875	0.43234019047684102421413854244747199118137359619140625	24.448397941059500482197108794935047626495361328125	10.6841667228274008749622225877828896045684814453125	97.8936124801634974801345379091799259185791015625	0.88444444942805500176064015249721705913543701171875	22.116666721800900319294669316150248050689697265625	0.0	633.336752156418015147210098803043365478515625	0.0	1	1	1	1
7042	S6	2019	10	21	10	26.376385256979201443527927040122449398040771484375	0.449206141134103009715516918731736950576305389404296875	26.368785905837999195000520558096468448638916015625	11.1102777110204993249453764292411506175994873046875	97.541111161973702792238327674567699432373046875	1.1827777778936698904743707316811196506023406982421875	25.8500002324580009371857158839702606201171875	0.0	759.214522937935043955803848803043365478515625	0.0	1	1	1	1
7043	S6	2019	10	21	11	47.48881522814429700929395039565861225128173828125	0.494823111262585990655082923694862984120845794677734375	47.41652819315589795223786495625972747802734375	11.5708333677715007326014529098756611347198486328125	94.4347220738728054811872425489127635955810546875	1.268333335965869945738404567237012088298797607421875	43.4666666202247000683200894854962825775146484375	0.0	1267.3131731649200446554459631443023681640625	0.0	1	1	1	1
7044	S6	2019	10	21	12	37.00995452139110142297795391641557216644287109375	0.47044264367885002542379879741929471492767333984375	37.0255647500355991041942615993320941925048828125	11.8230555799271996875177137553691864013671875	93.603610780503998967105871997773647308349609375	1.0161111128826900706911828820011578500270843505859375	34.08333358044409777676264639012515544891357421875	0.0	1005.197164167959954284015111625194549560546875	0.0	1	1	1	1
7045	S6	2019	10	21	13	79.8773697429233067168752313591539859771728515625	0.56235591553979402679175336743355728685855865478515625	79.8157748752170022044083452783524990081787109375	11.904166542159099861919457907788455486297607421875	93.981666501363093857435160316526889801025390625	1.546388888276279960365400256705470383167266845703125	72.9000001524884027048756252042949199676513671875	0.0	2143.82303009430006568436510860919952392578125	0.0	1	1	1	1
7046	S6	2019	10	21	14	34.79683217207590217867618775926530361175537109375	0.42588376402854899449579306747182272374629974365234375	34.7868564605712009552007657475769519805908203125	12.002500054571299870076472871005535125732421875	92.502499983045794351710355840623378753662109375	1.240000000844390104504100236226804554462432861328125	27.816666554038601333331826026551425457000732421875	0.0	842.7846940855180264406953938305377960205078125	0.0	1	1	1	1
7047	S6	2019	10	21	15	18.136507659488199095676463912241160869598388671875	0.41591503669818197241880852743634022772312164306640625	18.125459223323300506081068306230008602142333984375	11.7899999936421000512609680299647152423858642578125	93.0547221077813020428948220796883106231689453125	1.2119444439808499947019981846096925437450408935546875	15.18333333854869948709165328182280063629150390625	0.0	456.5596465642260000095120631158351898193359375	0.0	1	1	1	1
7048	S6	2019	10	21	16	12.8395559363894999904687210801057517528533935546875	0.430154934111568021393168237409554421901702880859375	12.8593307561343994649405431118793785572052001953125	11.93611090183249956453437334857881069183349609375	92.9722226672702021232908009551465511322021484375	1.20666666362019991964871223899535834789276123046875	10.8000000473111992249641843955032527446746826171875	0.0	330.14521018291497966856695711612701416015625	0.0	1	1	1	1
7049	S6	2019	10	21	17	3.253551600222099882131487902370281517505645751953125	0.37266029421976198943156077802996151149272918701171875	3.27554083495081993504527417826466262340545654296875	11.932634473560799648339525447227060794830322265625	93.0766462908533043218994862399995326995849609375	0.83562874267558095997543432531529106199741363525390625	1.3333333714399600022915137742529623210430145263671875	0.0	48.71559162468960124670047662220895290374755859375	0.0	1	1	1	1
7050	S6	2019	10	21	18	0	0	0	0	0	0	0	0.0	0	0.0	1	1	1	0
7051	S6	2019	10	21	19	0	0	0	0	0	0	0	0.0	0	0.0	1	1	1	0
7052	S6	2019	10	21	20	0	0	0	0	0	0	0	0.0	0	0.0	1	1	1	0
7053	S6	2019	10	21	21	0	0	0	0	0	0	0	0.0	0	0.0	1	1	1	0
7054	S6	2019	10	21	22	0	0	0	0	0	0	0	0.0	0	0.0	1	1	1	0
7055	S6	2019	10	21	23	0	0	0	0	0	0	0	0.0	0	0.0	1	1	1	0
7056	S6	2019	10	21	24	0	0	0	0	0	0	0	0.0	0	0.0	1	1	1	0
7057	S6	2019	10	22	1	0	0	0	0	0	0	0	0.0	0	0.0	1	1	1	0
7058	S6	2019	10	22	2	0	0	0	0	0	0	0	0.0	0	0.0	1	1	1	0
7059	S6	2019	10	22	3	0	0	0	0	0	0	0	0.0	0	0.0	1	1	1	0
7060	S6	2019	10	22	4	0	0	0	0	0	0	0	0.0	0	0.0	1	1	1	0
7061	S6	2019	10	22	5	0	0	0	0	0	0	0	0.0	0	0.0	1	1	1	0
7062	S6	2019	10	22	6	0	0	0	0	0	0	0	0.0	0	0.0	1	1	1	0
7063	S6	2019	10	22	7	1.0688456694285000114774675239459611475467681884765625	0.4174670974413550172954501249478198587894439697265625	1.0970891316731699038911074239877052605152130126953125	12.3333330154418003843375117867253720760345458984375	91.8000030517577982891452847979962825775146484375	0.98333333432674396856754128748434595763683319091796875	0.0666666698331666029986308785737492144107818603515625	0.0	0	0.0	1	1	1	0
7064	S6	2019	10	22	8	20.224681135987001567855259054340422153472900390625	0.36382099739810602745393453005817718803882598876953125	20.3228404956036996509283198975026607513427734375	12.24649864752409911261565866880118846893310546875	89.2271705007685937971473322249948978424072265625	2.136974787678699971849027861026115715503692626953125	21.800000166210001140143504017032682895660400390625	0.0	615.940286389861967109027318656444549560546875	0.0	1	1	1	1
7065	S6	2019	10	22	9	57.565600469377301351414644159376621246337890625	0.7183924920029109983943271799944341182708740234375	57.53980114195079664796139695681631565093994140625	12.0033333381016991125989079591818153858184814453125	88.201666641235306087764911353588104248046875	1.659722218414140026965242213918827474117279052734375	53.5333336020509023001068271696567535400390625	0.0	1520.36179850498001542291603982448577880859375	0.0	1	1	1	1
7066	S6	2019	10	22	10	61.65388204786510328858639695681631565093994140625	0.496115524321794010287334231179556809365749359130859375	61.7038558959959999583588796667754650115966796875	12.3674999634424001015986505080945789813995361328125	87.29083309173580573769868351519107818603515625	2.378888886504700206359075309592299163341522216796875	58.566666642824799282607273198664188385009765625	0.0	1655.335334936770095737301744520664215087890625	0.0	1	1	1	1
7067	S6	2019	10	22	11	261.8941680563369800438522361218929290771484375	140.085509970194010520572192035615444183349609375	209.082297761560994331375695765018463134765625	13.2570621226465998887533714878372848033905029296875	83.416383667854205441472004167735576629638671875	2.6601694898080001649987025302834808826446533203125	333.116666600107009799103252589702606201171875	0.0	9153.129987915339370374567806720733642578125	0.0	1	1	1	1
7068	S6	2019	10	22	12	186.851159173669003621398587711155414581298828125	14.370393857653699143384073977358639240264892578125	179.97132778973599442906561307609081268310546875	13.876056273554400632974648033268749713897705078125	81.5005628558950974138497258536517620086669921875	2.49830985463839994054069393314421176910400390625	184.56666668256099228528910316526889801025390625	0.0	5054.3361514806501872953958809375762939453125	0.0	1	1	1	1
7069	S6	2019	10	22	13	75.338726700676801328881992958486080169677734375	0.459735248982906019588057233704603277146816253662109375	75.22259595659039632664644159376621246337890625	13.6041667302449003074116262723691761493682861328125	83.6108334223429068288169219158589839935302734375	2.5286111052665400933392447768710553646087646484375	64.40000043561059328567353077232837677001953125	0.0	1877.61663099130009868531487882137298583984375	0.0	1	1	1	1
7070	S6	2019	10	22	14	56.281379879845502500756992958486080169677734375	0.5034435824387599733853448924492113292217254638671875	56.27838438351940197890144190751016139984130859375	13.5008333206176001084486415493302047252655029296875	85.2916666030883021676345379091799259185791015625	2.077222217371060164481377796619199216365814208984375	48.93333349997789838425887865014374256134033203125	0.0	1412.691262364380008875741623342037200927734375	0.0	1	1	1	1
7071	S6	2019	10	22	15	39.97198552177059838186323759146034717559814453125	0.46314303422210800764702298693009652197360992431640625	39.95603783925370322549497359432280063629150390625	13.4011905051412991696224707993678748607635498046875	87.7624996049062957581554655916988849639892578125	2.06845237838015005849001681781373918056488037109375	34.2166668269781979461185983382165431976318359375	0.0	999.6387340128429741525906138122081756591796875	0.0	1	1	1	1
7072	S6	2019	10	22	16	30.6819013781016991515571135096251964569091796875	0.479530030571751975099203946228954009711742401123046875	30.91552469465460006858847918920218944549560546875	13.208333365122399527535890229046344757080078125	89.621666653950995851118932478129863739013671875	1.97388888109060989251020146184600889682769775390625	27.68333347824709989026814582757651805877685546875	0.0	795.423209543029997803387232124805450439453125	0.0	1	1	1	1
7073	S6	2019	10	22	17	14.6280810098774001204446904012002050876617431640625	0.399072791764278012038857923471368849277496337890625	14.86465308918850070085682091303169727325439453125	13.1645695484236995298488182015717029571533203125	88.675496335061097852303646504878997802734375	1.63211920018621992056750968913547694683074951171875	8.2833334473737405545534784323535859584808349609375	0.0	247.0890805125239921835600398480892181396484375	0.0	1	1	1	1
7074	S6	2019	10	22	18	0	0	0	0	0	0	0	0.0	0	0.0	1	1	1	0
7075	S6	2019	10	22	19	0	0	0	0	0	0	0	0.0	0	0.0	1	1	1	0
7076	S6	2019	10	22	20	0	0	0	0	0	0	0	0.0	0	0.0	1	1	1	0
7077	S6	2019	10	22	21	0	0	0	0	0	0	0	0.0	0	0.0	1	1	1	0
7078	S6	2019	10	22	22	0	0	0	0	0	0	0	0.0	0	0.0	1	1	1	0
7079	S6	2019	10	22	23	0	0	0	0	0	0	0	0.0	0	0.0	1	1	1	0
7080	S6	2019	10	22	24	0	0	0	0	0	0	0	0.0	0	0.0	1	1	1	0
7081	S6	2019	10	23	1	0	0	0	0	0	0	0	0.0	0	0.0	1	1	1	0
7082	S6	2019	10	23	2	0	0	0	0	0	0	0	0.0	0	0.0	1	1	1	0
7083	S6	2019	10	23	3	0	0	0	0	0	0	0	0.0	0	0.0	1	1	1	0
7084	S6	2019	10	23	4	0	0	0	0	0	0	0	0.0	0	0.0	1	1	1	0
7085	S6	2019	10	23	5	0	0	0	0	0	0	0	0.0	0	0.0	1	1	1	0
7086	S6	2019	10	23	6	0	0	0	0	0	0	0	0.0	0	0.0	1	1	1	0
7087	S6	2019	10	23	7	0	0	0	0	0	0	0.1500000071246199995211867417310713790357112884521484375	0.0	0.97304997034373297282172643463127315044403076171875	0.0	1	1	1	0
7088	S6	2019	10	23	8	12.116425569240799831050026114098727703094482421875	0.4397735913124309892197061344631947576999664306640625	12.2287886389612996396181188174523413181304931640625	11.3952661689215997142810010700486600399017333984375	81.154141939603306354911183007061481475830078125	0.8142011864827229938867958480841480195522308349609375	11.56666668054329960568793467245995998382568359375	0.0	337.31006592667398535922984592616558074951171875	0.0	1	1	1	1
7089	S6	2019	10	23	9	33.82310474183820048210691311396658420562744140625	0.471435407880278989356526153642334975302219390869140625	33.91732629140209809293082798831164836883544921875	11.733888928095499437631588079966604709625244140625	80.8627775828042985040156054310500621795654296875	0.8616666701104900294438948549213819205760955810546875	32.65000016738969890184307587333023548126220703125	0.0	933.98443038264895221800543367862701416015625	0.0	1	1	1	1
7090	S6	2019	10	23	10	64.7125383006200962654475006274878978729248046875	0.57672868420680301060343708741129375994205474853515625	64.781434255176094438866130076348781585693359375	11.900555496745599981522900634445250034332275390625	83.12555578019879476414644159376621246337890625	1.09500000120864005026533050113357603549957275390625	67.383333295583696553876507095992565155029296875	0.0	1823.553843051189915058785118162631988525390625	0.0	1	1	1	1
7091	S6	2019	10	23	11	150.982425089631988157634623348712921142578125	30.030542849238599956152029335498809814453125	140.138753698112992651658714748919010162353515625	12.7384831423169995190392000949941575527191162109375	84.5356742987471960759648936800658702850341796875	1.71741573253039003787989713600836694240570068359375	170.216666410366002537557506002485752105712890625	0.0	4631.5026998519797416520304977893829345703125	0.0	1	0	1	1
7092	S6	2019	10	23	12	158.478793373320996806796756573021411895751953125	5.926402186381750425425707362592220306396484375	155.930954874560001144345733337104320526123046875	13.293854782701199468419872573576867580413818359375	80.7027929508486039367198827676475048065185546875	1.7553072554272599603564231074415147304534912109375	157.600000003973008233515429310500621795654296875	0.0	4393.219666679689908050931990146636962890625	0.0	1	0	1	1
7093	S6	2019	10	23	13	167.7123827404440135069307871162891387939453125	42.4323736507030986331301392056047916412353515625	151.589547856648010792923741973936557769775390625	13.6074999597336994128227161127142608165740966796875	81.657777595520002478224341757595539093017578125	1.5077777741683799916927455342374742031097412109375	217.466666921973001080914400517940521240234375	0.0	5721.1899951100303951534442603588104248046875	0.0	1	0	1	1
7094	S6	2019	10	23	14	142.509199824803005185458459891378879547119140625	13.5162370749709008777017515967600047588348388671875	137.0276011077449993535992689430713653564453125	14.0515492936255004252643630024977028369903564453125	78.9873238362057037420527194626629352569580078125	1.2405633802145299426911151385866105556488037109375	129.21666788558098915018490515649318695068359375	0.0	3567.61062443256014375947415828704833984375	0.0	1	0	1	1
7095	S6	2019	10	23	15	70.184989960988303892008843831717967987060546875	0.49672030326392901944387858748086728155612945556640625	70.1180677413940003361858543939888477325439453125	13.69750009642699950518363039009273052215576171875	81.088333447774203932567615993320941925048828125	1.404444441613220018183483261964283883571624755859375	60.6499999761580994572796043939888477325439453125	0.0	1711.539631833629982793354429304599761962890625	0.0	1	0	1	1
7096	S6	2019	10	23	16	81.3600103696187062496392172761261463165283203125	98.7563933609259976265093428082764148712158203125	66.0442879729800012000850983895361423492431640625	13.729166616333799311178154312074184417724609375	81.5419442706637056517138262279331684112548828125	0.98583333484000601476537894995999522507190704345703125	120.3666670247909991076085134409368038177490234375	0.0	2434.46193287768983282148838043212890625	0.0	1	0	1	1
7097	S6	2019	10	23	17	18.93655798419209901339854695834219455718994140625	0.92338694847070101889840998410363681614398956298828125	19.015661806868198624442811706103384494781494140625	12.848322103487500811525023891590535640716552734375	85.037919319715996380182332359254360198974609375	0.90167785400912203730428018388920463621616363525390625	12.783333550517699706006169435568153858184814453125	0.0	377.92120392356497404762194491922855377197265625	0.0	1	1	1	1
7098	S6	2019	10	23	18	0	0	0	0	0	0	0	0.0	0.17680667030314600740581454374478198587894439697265625	0.0	1	1	1	0
7099	S6	2019	10	23	19	0	0	0	0	0	0	0	0.0	0	0.0	1	1	1	0
7100	S6	2019	10	23	20	0	0	0	0	0	0	0	0.0	0	0.0	1	1	1	0
7101	S6	2019	10	23	21	0	0	0	0	0	0	0	0.0	0	0.0	1	1	1	0
7102	S6	2019	10	23	22	0	0	0	0	0	0	0	0.0	0	0.0	1	1	1	0
7103	S6	2019	10	23	23	0	0	0	0	0	0	0	0.0	0	0.0	1	1	1	0
7104	S6	2019	10	23	24	0	0	0	0	0	0	0	0.0	0	0.0	1	1	1	0
7105	S6	2019	10	24	1	0	0	0	0	0	0	0	0.0	0	0.0	1	1	1	0
7106	S6	2019	10	24	2	0	0	0	0	0	0	0	0.0	0	0.0	1	1	1	0
7107	S6	2019	10	24	3	0	0	0	0	0	0	0	0.0	0	0.0	1	1	1	0
7108	S6	2019	10	24	4	0	0	0	0	0	0	0	0.0	0	0.0	1	1	1	0
7109	S6	2019	10	24	5	0	0	0	0	0	0	0	0.0	0	0.0	1	1	1	0
7110	S6	2019	10	24	6	0	0	0	0	0	0	0	0.0	0	0.0	1	1	1	0
7111	S6	2019	10	24	7	0	0	0	0	0	0	0.23333334441607800346929479928803630173206329345703125	0.0	2.95669999128829008583352333516813814640045166015625	0.0	1	1	1	0
7112	S6	2019	10	24	8	20.645872638936598519876497448422014713287353515625	0.496219981744972005177629625904955901205539703369140625	20.7048510801025003047470818273723125457763671875	12.67017543525020073502673767507076263427734375	94.6614037229303022513704490847885608673095703125	2.421637427824280042187865547020919620990753173828125	19.616666622459899116392989526502788066864013671875	0.0	548.674426072587039016070775687694549560546875	0.0	1	1	1	1
7113	S6	2019	10	24	9	59.66312957339810196799589903093874454498291015625	0.55796413272619205248048501744051463901996612548828125	59.668754047817600394409964792430400848388671875	12.879999891916899201760315918363630771636962890625	93.8583326975503950961865484714508056640625	2.73972221588094999589202416245825588703155517578125	58.816666714847002594979130662977695465087890625	0.0	1667.517100771259947578073479235172271728515625	0.0	1	1	1	1
7114	S6	2019	10	24	10	74.0051455497740988676014239899814128875732421875	0.5242629839314350004286779949325136840343475341796875	73.9625808080036932778966729529201984405517578125	12.88833325703929943983894190751016139984130859375	94.1750002543131046195412636734545230865478515625	3.3766666647460699124394523096270859241485595703125	63.28333324442299812062628916464745998382568359375	0.0	1794.96304268638004941749386489391326904296875	0.0	1	1	1	1
7115	S6	2019	10	24	11	71.3758072111341022036867798306047916412353515625	0.50333112892177300778939752490259706974029541015625	71.3640277120802011268096975982189178466796875	12.2983333905536991181861594668589532375335693359375	96.9083340962726964562534703873097896575927734375	3.292222218049889903568328008987009525299072265625	59.50000000496699925633947714231908321380615234375	0.0	1742.211262385050076773040927946567535400390625	0.0	1	1	1	1
7116	S6	2019	10	24	12	59.20785018073180339115424430929124355316162109375	0.5249204372366269577554476200020872056484222412109375	59.19852281146570049941146862693130970001220703125	11.9983332157134992002056605997495353221893310546875	97.6933333079019945444088079966604709625244140625	3.428055550820289898439341413904912769794464111328125	53.666666957239300472792820073664188385009765625	0.0	1536.55167867740010478883050382137298583984375	0.0	1	1	1	1
7117	S6	2019	10	24	13	55.7001307911342991019409964792430400848388671875	0.4876375358137809978842369673657231032848358154296875	55.74080880482990352220440399833023548126220703125	12.2966665903727001563083831570111215114593505859375	97.8816679636637019257250358350574970245361328125	3.57611111369396983405977152870036661624908447265625	48.9666669319073974975253804586827754974365234375	0.0	1411.8918535610000617452897131443023681640625	0.0	1	1	1	1
7118	S6	2019	10	24	14	38.547762372758597848587669432163238525390625	0.470526639537677981994789888631203211843967437744140625	38.63347442415020083217314095236361026763916015625	12.008333349227900299638349679298698902130126953125	97.8850015004475011437534703873097896575927734375	3.623333325319820108489921040018089115619659423828125	33.90000003079560286778360023163259029388427734375	0.0	975.329031298557993068243376910686492919921875	0.0	1	1	1	1
7119	S6	2019	10	24	15	25.391854455735899165347291273064911365509033203125	0.459437391327487010261876321237650699913501739501953125	25.469494538837000874309524078853428363800048828125	12.16166667938230006029698415659368038177490234375	97.8916678110758056163831497542560100555419921875	3.354722215897500081638327174005098640918731689453125	22.14999993642170039720440399833023548126220703125	0.0	629.6642478555439765841583721339702606201171875	0.0	1	1	1	1
7120	S6	2019	10	24	16	11.521937513351399928751561674289405345916748046875	0.445118137862947016447634496216778643429279327392578125	11.582919981744499438036655192263424396514892578125	12.17333340644830030896628159098327159881591796875	97.31999931335440123802982270717620849609375	3.4599999984105398453948509995825588703155517578125	9.3000000730777703239482434582896530628204345703125	0.0	265.68847900877398160446318797767162322998046875	0.0	1	1	1	1
7121	S6	2019	10	24	17	2.901826392154430056535829862696118652820587158203125	0.431464739143847975100243274937383830547332763671875	2.962648189953850152988934496534056961536407470703125	12.345945893107199253790895454585552215576171875	96.8189196199983967972002574242651462554931640625	2.80945946316461014902188253472559154033660888671875	0.68333336384967802157319738398655317723751068115234375	0.0	18.522623258953199609777584555558860301971435546875	0.0	1	1	1	1
7122	S6	2019	10	24	18	0	0	0	0	0	0	0	0.0	0	0.0	1	1	1	0
7123	S6	2019	10	24	19	0	0	0	0	0	0	0	0.0	0	0.0	1	1	1	0
7124	S6	2019	10	24	20	0	0	0	0	0	0	0	0.0	0	0.0	1	1	1	0
7125	S6	2019	10	24	21	0	0	0	0	0	0	0	0.0	0	0.0	1	1	1	0
7126	S6	2019	10	24	22	0	0	0	0	0	0	0	0.0	0	0.0	1	1	1	0
7127	S6	2019	10	24	23	0	0	0	0	0	0	0	0.0	0	0.0	1	1	1	0
7128	S6	2019	10	24	24	0	0	0	0	0	0	0	0.0	0	0.0	1	1	1	0
7129	S6	2019	10	25	1	0	0	0	0	0	0	0	0.0	0	0.0	1	1	1	0
7130	S6	2019	10	25	2	0	0	0	0	0	0	0	0.0	0	0.0	1	1	1	0
7131	S6	2019	10	25	3	0	0	0	0	0	0	0	0.0	0	0.0	1	1	1	0
7132	S6	2019	10	25	4	0	0	0	0	0	0	0	0.0	0	0.0	1	1	1	0
7133	S6	2019	10	25	5	0	0	0	0	0	0	0	0.0	0	0.0	1	1	1	0
7134	S6	2019	10	25	6	0	0	0	0	0	0	0	0.0	0	0.0	1	1	1	0
7135	S6	2019	10	25	7	0	0	0	0	0	0	0.066666669833164993175245172096765600144863128662109375	0.0	5.089151626452800059041692293249070644378662109375	0.0	1	1	1	0
7136	S6	2019	10	25	8	14.775372434712000568879375350661575794219970703125	1.120796326290129929503791572642512619495391845703125	14.948289568319200526502754655666649341583251953125	13.1849056819698997600198708823882043361663818359375	85.571698602640395847629406489431858062744140625	2.3254716959576899881767531041987240314483642578125	14.900000156679400475923102931119501590728759765625	0.0	413.32375286146901771644479595124721527099609375	0.0	1	1	1	1
7137	S6	2019	10	25	9	65.084539900885602037305943667888641357421875	2.193636895467829805994597336393781006336212158203125	64.7909154680040018092768150381743907928466796875	13.3599999745686002228239885880611836910247802734375	85.4583334604898965380925801582634449005126953125	2.613055554032320149104862139211036264896392822265625	59.5999997109174017850818927399814128875732421875	0.0	1784.48887715737009784788824617862701416015625	0.0	1	1	1	1
7138	S6	2019	10	25	10	131.2271173611489984978106804192066192626953125	63.7382634344235015078083961270749568939208984375	112.68855631653599402852705679833889007568359375	13.5563380496601997293737440486438572406768798828125	83.1574649864518988806594279594719409942626953125	2.83014084721953995682497406960465013980865478515625	163.2500000918900013857637532055377960205078125	0.0	4287.6251379648701913538388907909393310546875	0.0	1	1	1	1
7139	S6	2019	10	25	11	180.331191951762008329751552082598209381103515625	88.489015553980294725988642312586307525634765625	149.453992503221996912543545477092266082763671875	13.988102086204900587063093553297221660614013671875	80.4036832598720963005689554847776889801025390625	2.613031153553940111322617667610757052898406982421875	222.116665790478009512298740446567535400390625	0.0	6077.9988199472400083323009312152862548828125	0.0	1	1	1	1
7140	S6	2019	10	25	12	226.74910375146600927109830081462860107421875	66.1275780448326031546457670629024505615234375	200.10728815527198776180739514529705047607421875	14.623795971316500441616881289519369602203369140625	76.588101611258906586954253725707530975341796875	3.135410753255519988869082226301543414592742919921875	279.95000071823602638687589205801486968994140625	0.0	7556.2889059384697247878648340702056884765625	0.0	1	1	1	1
7141	S6	2019	10	25	13	262.5833797524700230496819131076335906982421875	187.9664434063409998998395167291164398193359375	190.54338990375600815241341479122638702392578125	14.9183149582300007551793896709568798542022705078125	74.284249358124696982486057095229625701904296875	3.77509157059393007926928476081229746341705322265625	287.0999980873119739044341258704662322998046875	0.0	7577.776086206229592789895832538604736328125	0.0	1	1	1	1
7142	S6	2019	10	25	14	159.247123806208009000329184345901012420654296875	40.67083412855429713772537070326507091522216796875	145.74556175913500055685290135443210601806640625	12.2449567530959004812984858290292322635650634765625	84.3757921378275028700954862870275974273681640625	2.801440913155030187908778316341340541839599609375	200.60000090549300466591375879943370819091796875	0.0	5392.9758096734703940455801784992218017578125	0.0	1	1	1	1
7143	S6	2019	10	25	15	153.20883856879299855791032314300537109375	63.049748490916300625030999071896076202392578125	136.3597310172179959408822469413280487060546875	13.150000063578200837355325347743928432464599609375	80.6783335367837963758574915118515491485595703125	2.724722226295199778434152904083020985126495361328125	194.416667769351988681592047214508056640625	0.0	4979.4141948222995779360644519329071044921875	0.0	1	1	1	1
7144	S6	2019	10	25	16	101.1272377543970009128315723501145839691162109375	124.1537816683450046184589155018329620361328125	82.0376637458800956892446265555918216705322265625	13.4249999523162006909160481882281601428985595703125	76.609999720255501642895978875458240509033203125	2.49249999274810019045389708480797708034515380859375	151.000000163913000505999661982059478759765625	0.0	3100.1805345217298963689245283603668212890625	0.0	1	1	1	1
7145	S6	2019	10	25	17	26.874237291677498973285764805041253566741943359375	14.079218103765899883228485123254358768463134765625	25.976499588728898970657610334455966949462890625	12.94410472353469998552100150845944881439208984375	77.4323142105834989479262731038033962249755859375	1.8602620113364400911137863658950664103031158447265625	20.749999922312099442933686077594757080078125	0.0	489.9985026723389864855562336742877960205078125	0.0	1	1	1	1
7146	S6	2019	10	25	18	0	0	0	0	0	0	0	0.0	0	0.0	1	1	1	0
7147	S6	2019	10	25	19	0	0	0	0	0	0	0	0.0	0	0.0	1	1	1	0
7148	S6	2019	10	25	20	0	0	0	0	0	0	0	0.0	0	0.0	1	1	1	0
7149	S6	2019	10	25	21	0	0	0	0	0	0	0	0.0	0	0.0	1	1	1	0
7150	S6	2019	10	25	22	0	0	0	0	0	0	0	0.0	0	0.0	1	1	1	0
7151	S6	2019	10	25	23	0	0	0	0	0	0	0	0.0	0	0.0	1	1	1	0
7152	S6	2019	10	25	24	0	0	0	0	0	0	0	0.0	0	0.0	1	1	1	0
7153	S6	2019	10	26	1	0	0	0	0	0	0	0	0.0	0	0.0	1	1	1	0
7154	S6	2019	10	26	2	0	0	0	0	0	0	0	0.0	0	0.0	1	1	1	0
7155	S6	2019	10	26	3	0	0	0	0	0	0	0	0.0	0	0.0	1	1	1	0
7156	S6	2019	10	26	4	0	0	0	0	0	0	0	0.0	0	0.0	1	1	1	0
7157	S6	2019	10	26	5	0	0	0	0	0	0	0	0.0	0	0.0	1	1	1	0
7158	S6	2019	10	26	6	0	0	0	0	0	0	0	0.0	0	0.0	1	1	1	0
7159	S6	2019	10	26	7	0	0	0	0	0	0	0	0.0	0	0.0	1	1	1	0
7160	S6	2019	10	26	8	6.963052380670060159673084854148328304290771484375	0.47758980451917298903907749263453297317028045654296875	7.188523558385529810266234562732279300689697265625	14.341717772688600263109037769027054309844970703125	87.8576690580215000636599143035709857940673828125	4.62822086460019033182788916747085750102996826171875	3.283333415553599810010609871824271976947784423828125	0.0	112.3848146758970045766545808874070644378662109375	0.0	1	1	1	1
7161	S6	2019	10	26	9	20.206291074222900050472162547521293163299560546875	0.54087963286373297311371288742520846426486968994140625	20.331572307480701766735364799387753009796142578125	15.073333390553699473457527346909046173095703125	84.096666081746406007368932478129863739013671875	4.55944444586832986487934249453246593475341796875	18.683333539714400473030764260329306125640869140625	0.0	531.4932703971850287416600622236728668212890625	0.0	1	1	1	1
7162	S6	2019	10	26	10	29.353375053405699190989253111183643341064453125	0.5170107524428100287394727274659089744091033935546875	29.4360765192243007959405076690018177032470703125	15.4299998124440005398128050728701055049896240234375	83.743333562215099163950071670114994049072265625	4.69361109832922007711886180914007127285003662109375	25.800000193218398436556526576168835163116455078125	0.0	746.275400618714002121123485267162322998046875	0.0	1	1	1	1
7163	S6	2019	10	26	11	39.2756941689385001836853916756808757781982421875	0.50606253010531199176824657115503214299678802490234375	39.3176148467592980750850983895361423492431640625	15.39666647911069929932637023739516735076904296875	85.036666488647398409739253111183643341064453125	4.3836111103494896923393753240816295146942138671875	35.8000000938773013103855191729962825775146484375	0.0	1051.212164014569907521945424377918243408203125	0.0	1	1	1	1
7164	S6	2019	10	26	12	42.4428587966495030059377313591539859771728515625	0.50326905076702399544075205994886346161365509033203125	42.56403006447680326118643279187381267547607421875	14.8983331521351995974100645980797708034515380859375	89.0433335622150963217791286297142505645751953125	4.157777783274649863187732989899814128875732421875	35.933333355933399388959514908492565155029296875	0.0	1076.543222367760108681977726519107818603515625	0.0	1	1	1	1
7165	S6	2019	10	26	13	43.1370865662891986858085147105157375335693359375	0.5243946390847360472520222174352966248989105224609375	43.14356581370029886102201999165117740631103515625	15.241666666666599638801926630549132823944091796875	86.4533330281575018716466729529201984405517578125	4.545000008410870151465132948942482471466064453125	38.41666669274359691144127282314002513885498046875	0.0	1129.346467554569926505791954696178436279296875	0.0	1	1	1	1
7166	S6	2019	10	26	14	38.00123516188720174113768734969198703765869140625	0.53489702650242298975769017488346435129642486572265625	38.04325232505789955439468030817806720733642578125	15.379999764760299285626388154923915863037109375	85.3099998474121008484871708787977695465087890625	4.3238888820012402192105582798831164836883544921875	33.01666670789310131794991320930421352386474609375	0.0	962.557698786258015388739295303821563720703125	0.0	1	1	1	1
7167	S6	2019	10	26	15	30.580326541264799544705965672619640827178955078125	0.427119644213880989003229160516639240086078643798828125	30.676310337914298287387282471172511577606201171875	14.9866664886473994755533567513339221477508544921875	88.92666676839189676684327423572540283203125	3.831388881802550105959426218760199844837188720703125	24.449999909847999646217431291006505489349365234375	0.0	744.3892606844500505758333019912242889404296875	0.0	1	1	1	1
7168	S6	2019	10	26	16	15.224865656428800519961441750638186931610107421875	0.495294520797000981104929451248608529567718505859375	15.39426581329760068683754070661962032318115234375	14.8233332951863001625270044314675033092498779296875	91.041666920979793076185160316526889801025390625	3.9352777785724999404237678390927612781524658203125	12.416666854793799501521789352409541606903076171875	0.0	382.44264995058301792596466839313507080078125	0.0	1	1	1	1
7169	S6	2019	10	26	17	8.2185331951488098667368831229396164417266845703125	0.4408462395722210214188407917390577495098114013671875	8.3946336009285591472917076316662132740020751953125	15.15272728313090055962675251066684722900390625	88.77090988159170592552982270717620849609375	3.851818173581900150992396447691135108470916748046875	1.5666667003339700414699109387584030628204345703125	0.0	63.669235189445402056662715040147304534912109375	0.0	1	1	1	1
7170	S6	2019	10	26	18	0	0	0	0	0	0	0	0.0	0	0.0	1	1	1	0
7171	S6	2019	10	26	19	0	0	0	0	0	0	0	0.0	0	0.0	1	1	1	0
7172	S6	2019	10	26	20	0	0	0	0	0	0	0	0.0	0	0.0	1	1	1	0
7173	S6	2019	10	26	21	0	0	0	0	0	0	0	0.0	0	0.0	1	1	1	0
7174	S6	2019	10	26	22	0	0	0	0	0	0	0	0.0	0	0.0	1	1	1	0
7175	S6	2019	10	26	23	0	0	0	0	0	0	0	0.0	0	0.0	1	1	1	0
7176	S6	2019	10	26	24	0	0	0	0	0	0	0	0.0	0	0.0	1	1	1	0
7177	S6	2019	10	27	1	0	0	0	0	0	0	0	0.0	0	0.0	1	1	1	0
7178	S6	2019	10	27	2	0	0	0	0	0	0	0	0.0	0	0.0	1	1	1	0
7179	S6	2019	10	27	3	0	0	0	0	0	0	0	0.0	0	0.0	1	1	1	0
7180	S6	2019	10	27	4	0	0	0	0	0	0	0	0.0	0	0.0	1	1	1	0
7181	S6	2019	10	27	5	0	0	0	0	0	0	0	0.0	0	0.0	1	1	1	0
7182	S6	2019	10	27	6	0	0	0	0	0	0	0	0.0	0	0.0	1	1	1	0
7183	S6	2019	10	27	7	0	0	0	0	0	0	0	0.0	0	0.0	1	1	1	0
7184	S6	2019	10	27	8	31.369983155532199958770434022881090641021728515625	58.43602050761310096049783169291913509368896484375	26.0539140972801988027640618383884429931640625	10.3565836360020995243758079595863819122314453125	74.89466211719440025262883864343166351318359375	4.00320284476908039295039998251013457775115966796875	23.00000000783860087949506123550236225128173828125	0.0	758.453749679028987884521484375	0.0	1	1	1	1
7185	S6	2019	10	27	9	111.7149038579720041752807446755468845367431640625	315.5203524077929841951117850840091705322265625	55.30809024175000132572677102871239185333251953125	10.27999993960060010067536495625972747802734375	74.1216670989989978579615126363933086395263671875	3.528611106177169887132549774833023548126220703125	57.19999972109980035384069196879863739013671875	0.0	3498.81075099111012605135329067707061767578125	0.0	1	1	1	1
7186	S6	2019	10	27	10	198.217986551920006377258687280118465423583984375	484.133448357051975108333863317966461181640625	70.01523082521219976115389727056026458740234375	10.38166650136309954177704639732837677001953125	71.015000025431305630263523198664188385009765625	3.76944444378217013991161365993320941925048828125	226.96666655441100601819925941526889801025390625	0.0	5999.7909530997203546576201915740966796875	0.0	1	1	1	1
7187	S6	2019	10	27	11	261.6094079802300029768957756459712982177734375	427.95397054554899796130484901368618011474609375	121.4006882679610015429716440849006175994873046875	11.05569608302049999792870949022471904754638671875	69.7879746352570009548799134790897369384765625	3.959810118131999789881092510768212378025054931640625	436.8333322306469881368684582412242889404296875	0.0	10431.429503361299794050864875316619873046875	0.0	1	1	1	1
7188	S6	2019	10	27	12	311.2110482477070263485074974596500396728515625	434.190671742959011680795811116695404052734375	151.173235000317987442031153477728366851806640625	11.721019113139700351666760980151593685150146484375	68.087261005571605210207053460180759429931640625	4.24490445092984014507919710013084113597869873046875	481.3666675239800269991974346339702606201171875	0.0	12663.01967104270079289563000202178955078125	0.0	1	1	1	1
7189	S6	2019	10	27	13	263.01957930179997902087052352726459503173828125	367.5683592600599922661785967648029327392578125	130.876130087332995799442869611084461212158203125	11.940643327277999929947327473200857639312744140625	67.6932744477924046577754779718816280364990234375	4.31929823651648003846048595733009278774261474609375	446.35000278552297459100373089313507080078125	0.0	11349.561839302399675943888723850250244140625	0.0	1	1	1	1
7190	S6	2019	10	27	14	172.625292193700005327627877704799175262451171875	202.249448303050002095915260724723339080810546875	108.73541971842399789238697849214076995849609375	11.9600000593397002290885211550630629062652587890625	68.7168250189887004353295196779072284698486328125	3.552063491703969955182174089713953435420989990234375	263.03333441416401683454751037061214447021484375	0.0	6642.022665341690299101173877716064453125	0.0	1	1	1	1
7191	S6	2019	10	27	15	184.185160605773006636809441260993480682373046875	295.52961692320099018616019748151302337646484375	110.644252290357002266318886540830135345458984375	12.1249257718772991410105532850138843059539794921875	69.3044510340478012722087441943585872650146484375	3.48605340966838017635609503486193716526031494140625	297.7166656404730247231782414019107818603515625	0.0	6060.6586406628202894353307783603668212890625	0.0	1	1	1	1
7192	S6	2019	10	27	16	93.730217681289701658897683955729007720947265625	238.036461471183002913676318712532520294189453125	61.73186618305509654192064772360026836395263671875	11.7618384374548998749787642736919224262237548828125	69.9064064132137019669244182296097278594970703125	3.255988857208179876323583812336437404155731201171875	175.833333283662994972473825328052043914794921875	0.0	2935.1750815908098957152105867862701416015625	0.0	1	1	1	1
7193	S6	2019	10	27	17	21.384318837331999674233884434215724468231201171875	24.81473410375620147760855616070330142974853515625	20.42528016195380047292928793467581272125244140625	11.1816512422824008154975672368891537189483642578125	72.807339694521800765869556926190853118896484375	2.5954128451850397851785601233132183551788330078125	15.950000016406800540380572783760726451873779296875	0.0	385.73746006780601192076574079692363739013671875	0.0	1	1	1	1
7194	S6	2019	10	27	18	0	0	0	0	0	0	0	0.0	0	0.0	1	1	1	0
7195	S6	2019	10	27	19	0	0	0	0	0	0	0	0.0	0	0.0	1	1	1	0
7196	S6	2019	10	27	20	0	0	0	0	0	0	0	0.0	0	0.0	1	1	1	0
7197	S6	2019	10	27	21	0	0	0	0	0	0	0	0.0	0	0.0	1	1	1	0
7198	S6	2019	10	27	22	0	0	0	0	0	0	0	0.0	0	0.0	1	1	1	0
7199	S6	2019	10	27	23	0	0	0	0	0	0	0	0.0	0	0.0	1	1	1	0
7200	S6	2019	10	27	24	0	0	0	0	0	0	0	0.0	0	0.0	1	1	1	0
7201	S6	2019	10	28	1	0	0	0	0	0	0	0	0.0	0	0.0	1	1	1	0
7202	S6	2019	10	28	2	0	0	0	0	0	0	0	0.0	0	0.0	1	1	1	0
7203	S6	2019	10	28	3	0	0	0	0	0	0	0	0.0	0	0.0	1	1	1	0
7204	S6	2019	10	28	4	0	0	0	0	0	0	0	0.0	0	0.0	1	1	1	0
7205	S6	2019	10	28	5	0	0	0	0	0	0	0	0.0	0	0.0	1	1	1	0
7206	S6	2019	10	28	6	0	0	0	0	0	0	0	0.0	0	0.0	1	1	1	0
7207	S6	2019	10	28	7	0	0	0	0	0	0	0	0.0	0.91381000820548996532721730545745231211185455322265625	0.0	1	1	1	0
7208	S6	2019	10	28	8	36.28427522909549907126347534358501434326171875	178.387167338888986023448524065315723419189453125	22.041571365180498531799457850866019725799560546875	8.4858155825459302690205731778405606746673583984375	83.4070922635124958333108224906027317047119140625	1.0684397151918199053710623047663830220699310302734375	17.200000207715898881133398390375077724456787109375	0.0	693.4340328288579939908231608569622039794921875	0.0	1	1	1	0
7209	S6	2019	10	28	9	122.9050414615199997570016421377658843994140625	494.597548166909973588190041482448577880859375	42.638117811414900870659039355814456939697265625	9.3599999427795399498108963598497211933135986328125	85.47666638692220431039459072053432464599609375	1.4922222197883598937551141716539859771728515625	44.5500003484387008256817352958023548126220703125	0.0	3598.32043151060997843160293996334075927734375	0.0	1	1	1	1
7210	S6	2019	10	28	10	229.43086467319000121278804726898670196533203125	660.9995529174799457905464805662631988525390625	57.90867671966550034312604111619293689727783203125	10.5149999459583991523459189920686185359954833984375	82.3333334604898965380925801582634449005126953125	1.7516666616002700695986504797474481165409088134765625	250.899998905757996681131771765649318695068359375	0.0	6656.0858363906600061454810202121734619140625	0.0	1	1	1	1
7211	S6	2019	10	28	11	309.5919829450330098552512936294078826904296875	634.738602176392987530562095344066619873046875	103.1411504581989930784402531571686267852783203125	11.217999989645800695825528237037360668182373046875	77.557714473179402148161898367106914520263671875	1.801142853157859935464557565865106880664825439453125	505.883336563905004368280060589313507080078125	0.0	11276.183056334599314141087234020233154296875	0.0	1	1	1	1
7212	S6	2019	10	28	12	250.942060826187997690794873051345348358154296875	355.2559283423560145820374600589275360107421875	120.5334207998150048979368875734508037567138671875	11.6228813774841004402560429298318922519683837890625	70.4483053563003949193443986587226390838623046875	1.2406779643842700266986867063678801059722900390625	408.0333352088920264577609486877918243408203125	0.0	10662.782798210699183982796967029571533203125	0.0	1	1	1	1
7213	S6	2019	10	28	13	359.66847933916898227835190482437610626220703125	515.6437143043730202407459728419780731201171875	176.79190411634800739193451590836048126220703125	12.20732396085490023551756166853010654449462890625	68.9538024257605997036080225370824337005615234375	1.321408449428179920914772083051502704620361328125	595.883333931365996249951422214508056640625	0.0	14856.282887856099478085525333881378173828125	0.0	1	1	1	1
7214	S6	2019	10	28	14	193.5173003514599940899643115699291229248046875	215.19245115890998931718058884143829345703125	121.6663747787469986860742210410535335540771484375	11.851666704813599295675885514356195926666259765625	66.221666526794393803356797434389591217041015625	1.7247222235633199449722496865433640778064727783203125	247.50000014901098666086909361183643341064453125	0.0	6530.54328362146043218672275543212890625	0.0	1	1	1	1
7215	S6	2019	10	28	15	73.42976129889819958407315425574779510498046875	4.2021272532153997047998927882872521877288818359375	72.4895778062963955790110048837959766387939453125	10.6750699932835004801745526492595672607421875	73.4641453932647010560685885138809680938720703125	1.497478991329499908857769696624018251895904541015625	64.416666802329501706481096334755420684814453125	0.0	1906.864163279529975625337101519107818603515625	0.0	1	1	1	1
7216	S6	2019	10	28	16	22.857679635286299202334703295491635799407958984375	0.31643535733661198872113118341076187789440155029296875	22.99088326622450040304102003574371337890625	7.80882357323870035514801202225498855113983154296875	89.388235625098701575552695430815219879150390625	0.8558823536424069455819108043215237557888031005859375	14.6999999706166999402512374217621982097625732421875	0.0	478.09446031848398206420824863016605377197265625	0.0	1	1	1	1
7217	S6	2019	10	28	17	11.0677292480550004682982034864835441112518310546875	0.358770041180580978590342056122608482837677001953125	11.1516255160856996297980003873817622661590576171875	7.585344795523010219540083198808133602142333984375	90.6909478943922948701583663932979106903076171875	0.460775865563030018190460168625577352941036224365234375	5.03333338419905995664294096059165894985198974609375	0.0	159.66714049378998652173322625458240509033203125	0.0	1	1	1	1
7218	S6	2019	10	28	18	0	0	0	0	0	0	0	0.0	0	0.0	1	1	1	0
7219	S6	2019	10	28	19	0	0	0	0	0	0	0	0.0	0	0.0	1	1	1	0
7220	S6	2019	10	28	20	0	0	0	0	0	0	0	0.0	0	0.0	1	1	1	0
7221	S6	2019	10	28	21	0	0	0	0	0	0	0	0.0	0	0.0	1	1	1	0
7222	S6	2019	10	28	22	0	0	0	0	0	0	0	0.0	0	0.0	1	1	1	0
7223	S6	2019	10	28	23	0	0	0	0	0	0	0	0.0	0	0.0	1	1	1	0
7224	S6	2019	10	28	24	0	0	0	0	0	0	0	0.0	0	0.0	1	1	1	0
7225	S6	2019	10	29	1	0	0	0	0	0	0	0	0.0	0	0.0	1	1	1	0
7226	S6	2019	10	29	2	0	0	0	0	0	0	0	0.0	0	0.0	1	1	1	0
7227	S6	2019	10	29	3	0	0	0	0	0	0	0	0.0	0	0.0	1	1	1	0
7228	S6	2019	10	29	4	0	0	0	0	0	0	0	0.0	0	0.0	1	1	1	0
7229	S6	2019	10	29	5	0	0	0	0	0	0	0	0.0	0	0.0	1	1	1	0
7230	S6	2019	10	29	6	0	0	0	0	0	0	0	0.0	0	0.0	1	1	1	0
7231	S6	2019	10	29	7	0	0	0	0	0	0	0	0.0	0	0.0	1	1	1	0
7232	S6	2019	10	29	8	33.61104906576650108718240517191588878631591796875	249.30807168571999454798060469329357147216796875	16.90821809415459853198626660741865634918212890625	4.1811111211776701424014390795491635799407958984375	83.788888888888806150134769268333911895751953125	0.057407408511197098588407783381626359187066555023193359375	12.3000000525886008517773007042706012725830078125	0.0	542.9869868094100411326508037745952606201171875	0.0	1	1	1	0
7233	S6	2019	10	29	9	120.58342605166899375035427510738372802734375	532.25744383070195908658206462860107421875	36.79135976897340043478834559209644794464111328125	5.3883333484331696894287233590148389339447021484375	84.2258333841958943821737193502485752105712890625	0.331666671153571013253014143629116006195545196533203125	40.25000017136329688582918606698513031005859375	0.0	3589.1252093017101287841796875	0.0	1	1	1	1
7234	S6	2019	10	29	10	225.881221177842007818981073796749114990234375	700.7524103800450347989681176841259002685546875	50.0993621826170993927007657475769519805908203125	7.53999998172124019646389569970779120922088623046875	76.8191668192545051851993775926530361175537109375	0.55888889258106499990930160493007861077785491943359375	219.249998591840011386011610738933086395263671875	0.0	6612.6038541396401342353783547878265380859375	0.0	1	1	1	1
7235	S6	2019	10	29	11	303.76515799628299419055110774934291839599609375	781.1847976684570085126324556767940521240234375	55.85144030253089653115239343605935573577880859375	9.074166623751320770452366559766232967376708984375	69.03833351135250495644868351519107818603515625	0.973611114256911047704079464892856776714324951171875	581.783336400985035652411170303821563720703125	0.0	11243.954299390299638616852462291717529296875	0.0	1	1	1	1
7236	S6	2019	10	29	12	343.10855197367601476798881776630878448486328125	789.07016940305402386002242565155029296875	66.4586979602016043600087868981063365936279296875	9.3361581166585292379522798000834882259368896484375	62.0364408762441001954357489012181758880615234375	2.447740111647350058632355285226367413997650146484375	632.6166672011210039272555150091648101806640625	0.0	15798.51551751290026004426181316375732421875	0.0	1	1	1	1
7237	S6	2019	10	29	13	342.70625432332298032633843831717967987060546875	815.788137478298040150548331439495086669921875	60.11028184890739822776595246978104114532470703125	9.022499966621399636323985760100185871124267578125	60.44583349227900015421255375258624553680419921875	2.5291666662527401143734095967374742031097412109375	675.2999961376190185546875	0.0	16839.91787830990142538212239742279052734375	0.0	1	1	1	1
7238	S6	2019	10	29	14	292.3897218492289766800240613520145416259765625	787.06984303792296486790291965007781982421875	52.79409614139130013654721551574766635894775390625	8.6524999300638807397945129196159541606903076171875	63.36083339055370089454299886710941791534423828125	2.31444444035490004552002574200741946697235107421875	597.7499981721240374099579639732837677001953125	0.0	13979.688409964199308888055384159088134765625	0.0	1	1	1	1
7239	S6	2019	10	29	15	210.14360313415500058908946812152862548828125	711.6967953152119434889755211770534515380859375	44.50788619783180166677993838675320148468017578125	8.365833282470699572286321199499070644378662109375	64.8299999872842960257912636734545230865478515625	2.02111109900805008265933793154545128345489501953125	456.29999935626898377449833787977695465087890625	0.0	6785.13457775115966796875	0.0	1	1	1	1
7240	S6	2019	10	29	16	105.366129670237995696879806928336620330810546875	536.4377833150509786719339899718761444091796875	31.966392107201098582436316064558923244476318359375	7.82836682612027967564927166677080094814300537109375	68.4762175376913972968395682983100414276123046875	2.4352435538795997871375220711342990398406982421875	252.78333326180700169061310589313507080078125	0.0	3242.21488982438995662960223853588104248046875	0.0	1	1	1	1
7241	S6	2019	10	29	17	18.69916480896510080356165417470037937164306640625	94.4544528613925962190478458069264888763427734375	15.5831477525187001020867683109827339649200439453125	7.10588237117317955693351905210874974727630615234375	72.7573526045855061283873510546982288360595703125	1.9240196047752500252414620263152755796909332275390625	19.933333416702101459350160439498722553253173828125	0.0	374.2449625938510280320770107209682464599609375	0.0	1	1	1	0
7242	S6	2019	10	29	18	0	0	0	0	0	0	0	0.0	0	0.0	1	1	1	0
7243	S6	2019	10	29	19	0	0	0	0	0	0	0	0.0	0	0.0	1	1	1	0
7244	S6	2019	10	29	20	0	0	0	0	0	0	0	0.0	0	0.0	1	1	1	0
7245	S6	2019	10	29	21	0	0	0	0	0	0	0	0.0	0	0.0	1	1	1	0
7246	S6	2019	10	29	22	0	0	0	0	0	0	0	0.0	0	0.0	1	1	1	0
7247	S6	2019	10	29	23	0	0	0	0	0	0	0	0.0	0	0.0	1	1	1	0
7248	S6	2019	10	29	24	0	0	0	0	0	0	0	0.0	0	0.0	1	1	1	0
7249	S6	2019	10	30	1	0	0	0	0	0	0	0	0.0	0	0.0	1	1	1	0
7250	S6	2019	10	30	2	0	0	0	0	0	0	0	0.0	0	0.0	1	1	1	0
7251	S6	2019	10	30	3	0	0	0	0	0	0	0	0.0	0	0.0	1	1	1	0
7252	S6	2019	10	30	4	0	0	0	0	0	0	0	0.0	0	0.0	1	1	1	0
7253	S6	2019	10	30	5	0	0	0	0	0	0	0	0.0	0	0.0	1	1	1	0
7254	S6	2019	10	30	6	0	0	0	0	0	0	0	0.0	0	0.0	1	1	1	0
7255	S6	2019	10	30	7	0	0	0	0	0	0	0	0.0	0	0.0	1	1	1	0
7256	S6	2019	10	30	8	33.86633606323820089301079860888421535491943359375	243.305126954958012674978817813098430633544921875	18.419598370331900838436922640539705753326416015625	2.859230760427620143815374831319786608219146728515625	86.25230795053329302390920929610729217529296875	0.12076923274076900582940652384422719478607177734375	11.38333339088899975877211545594036579132080078125	0.0	470.20140725653601521116797812283039093017578125	0.0	1	1	1	0
7257	S6	2019	10	30	9	117.4894050386210011538423714227974414825439453125	504.08700027465800985737587325274944305419921875	41.0520435757106980645403382368385791778564453125	4.158333308166920261328414198942482471466064453125	81.1716668870713959904605871997773647308349609375	0.66416667194830003584371524993912316858768463134765625	38.08333330477280043169230339117348194122314453125	0.0	3401.0595433413900536834262311458587646484375	0.0	1	1	1	1
7258	S6	2019	10	30	10	217.205351893107007299477118067443370819091796875	664.9101133558480114515987224876880645751953125	53.5893410682677995282574556767940521240234375	5.95611107349395041410389239899814128875732421875	74.225555335150801283816690556704998016357421875	0.678333337273862024829895744915120303630828857421875	159.799999309083005982756731100380420684814453125	0.0	6506.26621345677995122969150543212890625	0.0	1	1	1	1
7259	S6	2019	10	30	11	294.49370930989499584029545076191425323486328125	749.002487182616960126324556767940521240234375	60.89525977240659670997047214768826961517333984375	7.412777800030170283207553438842296600341796875	67.9605552673339019520426518283784389495849609375	0.87527777908576798182593847741372883319854736328125	566.166668136914040587726049125194549560546875	0.0	9973.300223549189468030817806720733642578125	0.0	1	1	1	1
7260	S6	2019	10	30	12	331.16206487019798032633843831717967987060546875	766.5335793389209584347554482519626617431640625	66.7247699101765050500034703873097896575927734375	8.5577777968512602768669239594601094722747802734375	66.791110907660595330526120960712432861328125	1.434444441480760001894623201224021613597869873046875	636.633337537447005161084234714508056640625	0.0	15436.227234204599881195463240146636962890625	0.0	1	1	1	1
7261	S6	2019	10	30	13	287.14915053975602177160908468067646026611328125	618.2256323905429553633439354598522186279296875	75.7707311142608972431844449602067470550537109375	8.8553397848382306989378776052035391330718994140625	62.9307443439766984738525934517383575439453125	1.7860841429927900581020594472647644579410552978515625	570.78333670894198803580366075038909912109375	0.0	14050.043182571700526750646531581878662109375	0.0	1	1	1	1
7262	S6	2019	10	30	14	235.529811117988998603323125280439853668212890625	509.1123446127339775557629764080047607421875	81.8795577566963999061044887639582157135009765625	8.9225714683532704185608963598497211933135986328125	61.1794287109375005684341886080801486968994140625	1.5694285666091098985219787209643982350826263427734375	444.38333536187701611197553575038909912109375	0.0	9824.4284927845001220703125	0.0	1	1	1	1
7263	S6	2019	10	30	15	196.93489494323699773303815163671970367431640625	594.1502436319980233747628517448902130126953125	60.91646194457999996529906638897955417633056640625	9.2150000254313102487913056393153965473175048828125	60.0349999533759017822376335971057415008544921875	1.3050000001986798991993055096827447414398193359375	415.61666627724997624682146124541759490966796875	0.0	6247.420805692659996566362679004669189453125	0.0	1	1	1	1
7264	S6	2019	10	30	16	97.927443650439499833737500011920928955078125	392.09219326348602407961152493953704833984375	45.2591755104595989678273326717317104339599609375	8.64902503776018960479632369242608547210693359375	63.01949852223509651594213210046291351318359375	1.2080779931505400970337404942256398499011993408203125	213.800000150997988157541840337216854095458984375	0.0	3087.52853820721020383643917739391326904296875	0.0	1	1	1	1
7265	S6	2019	10	30	17	19.565710414539598360761374351568520069122314453125	38.354334187220700869147549383342266082763671875	19.091736408478400477406466961838304996490478515625	7.5855614998761300427077003405429422855377197265625	68.093048462893193573108874261379241943359375	0.95133689922444897302256094917538575828075408935546875	11.68333349633019935254196752794086933135986328125	0.0	311.12098460628902785174432210624217987060546875	0.0	1	1	1	1
7266	S6	2019	10	30	18	0	0	0	0	0	0	0	0.0	0	0.0	1	1	1	0
7267	S6	2019	10	30	19	0	0	0	0	0	0	0	0.0	0	0.0	1	1	1	0
7268	S6	2019	10	30	20	0	0	0	0	0	0	0	0.0	0	0.0	1	1	1	0
7269	S6	2019	10	30	21	0	0	0	0	0	0	0	0.0	0	0.0	1	1	1	0
7270	S6	2019	10	30	22	0	0	0	0	0	0	0	0.0	0	0.0	1	1	1	0
7271	S6	2019	10	30	23	0	0	0	0	0	0	0	0.0	0	0.0	1	1	1	0
7272	S6	2019	10	30	24	0	0	0	0	0	0	0	0.0	0	0.0	1	1	1	0
7273	S6	2019	10	31	1	0	0	0	0	0	0	0	0.0	0	0.0	1	1	1	0
7274	S6	2019	10	31	2	0	0	0	0	0	0	0	0.0	0	0.0	1	1	1	0
7275	S6	2019	10	31	3	0	0	0	0	0	0	0	0.0	0	0.0	1	1	1	0
7276	S6	2019	10	31	4	0	0	0	0	0	0	0	0.0	0	0.0	1	1	1	0
7277	S6	2019	10	31	5	0	0	0	0	0	0	0	0.0	0	0.0	1	1	1	0
7278	S6	2019	10	31	6	0	0	0	0	0	0	0	0.0	0	0.0	1	1	1	0
7279	S6	2019	10	31	7	0	0	0	0	0	0	0	0.0	0	0.0	1	1	1	0
7280	S6	2019	10	31	8	13.0299729005557995975550511502660810947418212890625	0.4020421554253790219490838353522121906280517578125	13.1493634670737993275224653189070522785186767578125	6.743307079855849650584787013940513134002685546875	86.0622045562023032516663079150021076202392578125	2.3055118081841801114251211402006447315216064453125	9.966666600666940212249755859375	0.0	284.11036410834600474117905832827091217041015625	0.0	1	1	1	1
7281	S6	2019	10	31	9	42.47089409298359896638430655002593994140625	0.52916628743211402419177602496347390115261077880859375	42.55976550314159823074078303761780261993408203125	6.95388888253105985626234541996382176876068115234375	85.70888900756830253158113919198513031005859375	2.2619444456365300766265136189758777618408203125	42.21666697412720026250099181197583675384521484375	0.0	1203.639012326789952567196451127529144287109375	0.0	1	1	1	1
7282	S6	2019	10	31	10	107.0597684436369974037006613798439502716064453125	1.2500848386850600402198097071959637105464935302734375	106.68992585076199475224711932241916656494140625	7.54333330260381984544437727890908718109130859375	85.2138891432019960348043241538107395172119140625	2.1808333297570499098583240993320941925048828125	108.183333401878002177909365855157375335693359375	0.0	3122.80921240647012382396496832370758056640625	0.0	1	1	1	1
7283	S6	2019	10	31	11	174.1690245734320114934234879910945892333984375	29.18643194205230173565723816864192485809326171875	164.245458899602994051747373305261135101318359375	8.4594444539811792793670974788255989551544189453125	82.02833315531410107723786495625972747802734375	2.197500000066220149363971358980052173137664794921875	198.4666676570969912063446827232837677001953125	0.0	5476.9476791222796236979775130748748779296875	0.0	1	1	1	1
7284	S6	2019	10	31	12	141.636918714311008216100162826478481292724609375	24.8021534917048001034345361404120922088623046875	132.346996476914995355400606058537960052490234375	8.9861111270056799327221597195602953433990478515625	79.001111009385795114212669432163238525390625	2.2619444455537500715536225470714271068572998046875	145.316666302581012359951273538172245025634765625	0.0	4091.18797431389020857750438153743743896484375	0.0	1	1	1	1
7285	S6	2019	10	31	13	263.75207573259302762380684725940227508544921875	297.00668414000000439045834355056285858154296875	164.81666049151300512676243670284748077392578125	9.559718298576239448038904811255633831024169921875	77.2107039115797988415579311549663543701171875	2.595492949452189890280351391993463039398193359375	422.3499981065580186623265035450458526611328125	0.0	10515.330395102499096537940204143524169921875	0.0	1	1	1	1
7286	S6	2019	10	31	14	168.048186355165995564675540663301944732666015625	105.849622356807998357908218167722225189208984375	133.609755558437001354832318611443042755126953125	9.7316667503780696080184497986920177936553955078125	74.778888532850402270923950709402561187744140625	2.253888880627020085967160412110388278961181640625	164.55000117421099048442556522786617279052734375	0.0	4529.098081588739660219289362430572509765625	0.0	1	1	1	1
7287	S6	2019	10	31	15	93.48398301866319570763153024017810821533203125	72.21377304891740323000703938305377960205078125	78.735636107126794058785890229046344757080078125	9.7100000699361093126071864389814436435699462890625	71.2694445716009994384876335971057415008544921875	2.03972222457328999922765433439053595066070556640625	124.0833339591810045021702535450458526611328125	0.0	2725.78307439883019469561986625194549560546875	0.0	1	1	1	1
7288	S6	2019	10	31	16	43.0275207466549005630440660752356052398681640625	0.342710511055257016632680233669816516339778900146484375	43.11123569806409960847304319031536579132080078125	9.3244444635179295488569550798274576663970947265625	72.947222095065598068686085753142833709716796875	1.5780555528071100734877063587191514670848846435546875	38.666666609545501387401600368320941925048828125	0.0	1098.07172318298989921458996832370758056640625	0.0	1	1	1	1
7289	S6	2019	10	31	17	11.0433479760822006454645816120319068431854248046875	0.382409871879375973247050524150836281478404998779296875	11.1495843034040991170741108362562954425811767578125	8.984210466083720092456132988445460796356201171875	75.0347367136102008089437731541693210601806640625	1.341052633210229938498514457023702561855316162109375	4.18333341367543010136387238162569701671600341796875	0.0	134.89734334871099008523742668330669403076171875	0.0	1	1	1	1
7290	S6	2019	10	31	18	0	0	0	0	0	0	0	0.0	0	0.0	1	1	1	0
7291	S6	2019	10	31	19	0	0	0	0	0	0	0	0.0	0	0.0	1	1	1	0
7292	S6	2019	10	31	20	0	0	0	0	0	0	0	0.0	0	0.0	1	1	1	0
7293	S6	2019	10	31	21	0	0	0	0	0	0	0	0.0	0	0.0	1	1	1	0
7294	S6	2019	10	31	22	0	0	0	0	0	0	0	0.0	0	0.0	1	1	1	0
7295	S6	2019	10	31	23	0	0	0	0	0	0	0	0.0	0	0.0	1	1	1	0
7296	S6	2019	10	31	24	0	0	0	0	0	0	0	0.0	0	0.0	1	1	1	0
7297	S6	2019	11	1	1	0	0	0	0	0	0	0	0.0	0	0.0	1	1	1	0
7298	S6	2019	11	1	2	0	0	0	0	0	0	0	0.0	0	0.0	1	1	1	0
7299	S6	2019	11	1	3	0	0	0	0	0	0	0	0.0	0	0.0	1	1	1	0
7300	S6	2019	11	1	4	0	0	0	0	0	0	0	0.0	0	0.0	1	1	1	0
7301	S6	2019	11	1	5	0	0	0	0	0	0	0	0.0	0	0.0	1	1	1	0
7302	S6	2019	11	1	6	0	0	0	0	0	0	0	0.0	0	0.0	1	1	1	0
7303	S6	2019	11	1	7	0	0	0	0	0	0	0	0.0	0	0.0	1	1	1	0
7304	S6	2019	11	1	8	21.2194962216237996699419454671442508697509765625	26.045814281345400331701966933906078338623046875	19.46934242737589926264263340272009372711181640625	3.037606826195350162578279196168296039104461669921875	86.281623840332002828290569595992565155029296875	0.83461538835977899797313739327364601194858551025390625	13.56666679300050049050696543417870998382568359375	0.0	441.6418331054350119302398525178432464599609375	0.0	1	1	1	1
7305	S6	2019	11	1	9	63.80203038321599962046093423850834369659423828125	19.844825183020699199687442160211503505706787109375	61.1101918538411013059885590337216854095458984375	4.043888880146869979625989799387753009796142578125	84.7683333502875058229619753547012805938720703125	0.96388889021343604479596933742868714034557342529296875	65.1333334545294064810150302946567535400390625	0.0	2013.9049326379999911296181380748748779296875	0.0	1	1	1	1
7306	S6	2019	11	1	10	131.892720794676989726212923415005207061767578125	43.92668328285210321837439551018178462982177734375	120.753537665473004381055943667888641357421875	5.93444447517395001767681605997495353221893310546875	78.5822221967908944861846975982189178466796875	2.032777771022579837989496809314005076885223388671875	129.716665918627995779388584196567535400390625	0.0	4216.132515668859923607669770717620849609375	0.0	1	1	1	1
7307	S6	2019	11	1	11	176.897805404662989303687936626374721527099609375	66.211100286907594636431895196437835693359375	155.518505520290005961214774288237094879150390625	6.8216666671964798496219373191706836223602294921875	73.89055527581109572565765120089054107666015625	3.18638888465032987795666485908441245555877685546875	204.13333326578100468395859934389591217041015625	0.0	5648.632162809370129252783954143524169921875	0.0	1	1	1	1
7308	S6	2019	11	1	12	193.46079148186498741779359988868236541748046875	35.81510461436369752163955126889050006866455078125	180.278367529974985927765374071896076202392578125	7.3461110724343097189148465986363589763641357421875	70.8244445376925995105921174399554729461669921875	3.788611119654440084758562079514376819133758544921875	219.716666887204013391965418122708797454833984375	0.0	6205.03934224445038125850260257720947265625	0.0	1	1	1	1
7309	S6	2019	11	1	13	233.0092857784690068001509644091129302978515625	175.033566480211987936854711733758449554443359375	173.453778033785994239224237389862537384033203125	7.77444452179801981372975205886177718639373779296875	68.0472221374511008207264239899814128875732421875	3.61666665954721988640585550456307828426361083984375	338.33333303530997682173619978129863739013671875	0.0	8543.9516087372903712093830108642578125	0.0	1	1	1	1
7310	S6	2019	11	1	14	153.932697931924991507912636734545230865478515625	47.769405745135401275547337718307971954345703125	138.707710011800003258031210862100124359130859375	7.894444537162780051176014239899814128875732421875	68.4783326890732979563836124725639820098876953125	3.13249998970163989753245914471335709095001220703125	180.200000603993004233416286297142505645751953125	0.0	4830.4488470157002666383050382137298583984375	0.0	1	1	1	1
7311	S6	2019	11	1	15	99.6764896816677037350018508732318878173828125	8.014639676279490032584362779743969440460205078125	97.702543788485996856252313591539859771728515625	8.0061112801233900171382629196159541606903076171875	69.253889126247798913027509115636348724365234375	2.91388888160386994030659479903988540172576904296875	99.4000005225341993764232029207050800323486328125	0.0	2800.22713989018984648282639682292938232421875	0.0	1	1	1	1
7312	S6	2019	11	1	16	40.62431040869810061622047214768826961517333984375	0.81496123820543198146282293237163685262203216552734375	40.67345298661120267524893279187381267547607421875	7.91166675090788995561297269887290894985198974609375	67.3166670905219035603295196779072284698486328125	3.515277768009230197066017353790812194347381591796875	35.8833335184801995865200296975672245025634765625	0.0	1028.655148421720014084712602198123931884765625	0.0	1	1	1	1
7313	S6	2019	11	1	17	9.850550399198159112756911781616508960723876953125	0.360604628339990018748295597106334753334522247314453125	9.9967936091608802229302455089055001735687255859375	7.73831170565121961857357746339403092861175537109375	67.8954549021535029851293074898421764373779296875	3.511038947802080034676919240155257284641265869140625	2.95000001788138010994089199812151491641998291015625	0.0	98.680508485995204637220012955367565155029296875	0.0	1	1	1	1
7314	S6	2019	11	1	18	0	0	0	0	0	0	0	0.0	0	0.0	1	1	1	0
7315	S6	2019	11	1	19	0	0	0	0	0	0	0	0.0	0	0.0	1	1	1	0
7316	S6	2019	11	1	20	0	0	0	0	0	0	0	0.0	0	0.0	1	1	1	0
7317	S6	2019	11	1	21	0	0	0	0	0	0	0	0.0	0	0.0	1	1	1	0
7318	S6	2019	11	1	22	0	0	0	0	0	0	0	0.0	0	0.0	1	1	1	0
7319	S6	2019	11	1	23	0	0	0	0	0	0	0	0.0	0	0.0	1	1	1	0
7320	S6	2019	11	1	24	0	0	0	0	0	0	0	0.0	0	0.0	1	1	1	0
7321	S6	2019	11	2	1	0	0	0	0	0	0	0	0.0	0	0.0	1	1	1	0
7322	S6	2019	11	2	2	0	0	0	0	0	0	0	0.0	0	0.0	1	1	1	0
7323	S6	2019	11	2	3	0	0	0	0	0	0	0	0.0	0	0.0	1	1	1	0
7324	S6	2019	11	2	4	0	0	0	0	0	0	0	0.0	0	0.0	1	1	1	0
7325	S6	2019	11	2	5	0	0	0	0	0	0	0	0.0	0	0.0	1	1	1	0
7326	S6	2019	11	2	6	0	0	0	0	0	0	0	0.0	0	0.0	1	1	1	0
7327	S6	2019	11	2	7	0	0	0	0	0	0	0	0.0	0	0.0	1	1	1	0
7328	S6	2019	11	2	8	6.7320361923222495903473827638663351535797119140625	0.34617297032579197324508868405246175825595855712890625	6.82824533673661004939958729664795100688934326171875	7.0557213398947595806021126918494701385498046875	95.9348262578100019482008065097033977508544921875	1.0746268721955301028714302447042427957057952880859375	3.8166666849671599948123912326991558074951171875	0.0	97.8865176128845035918857320211827754974365234375	0.0	1	1	1	1
7329	S6	2019	11	2	9	18.284447479248001400264911353588104248046875	0.367207813138762995119890319983824156224727630615234375	18.381518350707100495355916791595518589019775390625	7.31611110104454009928076629876159131526947021484375	95.358889643351204767895978875458240509033203125	0.9641666658222669550326600074185989797115325927734375	17.683333515499999322173607652075588703155517578125	0.0	489.1440462941919804507051594555377960205078125	0.0	1	1	1	1
7330	S6	2019	11	2	10	52.3976772255366967101508635096251964569091796875	0.454286213798655025275508023696602322161197662353515625	52.48319431940709733908079215325415134429931640625	7.89833336406282970898473649867810308933258056640625	95.4322226206461010633574915118515491485595703125	1.226388889716730101753228154848329722881317138671875	50.80000037948290270151119329966604709625244140625	0.0	1445.665773004290031167329289019107818603515625	0.0	1	1	1	1
7331	S6	2019	11	2	11	62.57017556296450067065961775369942188262939453125	0.445096985747416018508459956137812696397304534912109375	62.637169784969700003784964792430400848388671875	8.39944444762335962195720640011131763458251953125	95.648332087198895123947295360267162322998046875	1.295277778224809939189299257122911512851715087890625	60.14999983211350098599723423831164836883544921875	0.0	1737.207927306490091723389923572540283203125	0.0	1	1	1	1
7332	S6	2019	11	2	12	73.838020674387593089704751037061214447021484375	0.46749444098936099312169289987650699913501739501953125	73.884707694583397596943541429936885833740234375	8.7894444147745698359130983590148389339447021484375	95.528332646687800888685160316526889801025390625	1.8680555533203799800645583673031069338321685791015625	67.1333339686193966144855949096381664276123046875	0.0	1972.47299303610998322255909442901611328125	0.0	1	1	1	1
7333	S6	2019	11	2	13	66.2120579613578996713840751908719539642333984375	0.45055823901461200531315398620790801942348480224609375	66.131835089789404946714057587087154388427734375	9.2027933504328292002583111752755939960479736328125	95.5813878377278030029629007913172245025634765625	1.7173184307926800951094037372968159615993499755859375	57.6666670851409008946575340814888477325439453125	0.0	1721.85655136903005768544971942901611328125	0.0	1	1	1	1
7334	S6	2019	11	2	14	30.228205230500901024015547591261565685272216796875	0.383785138072239018214304451248608529567718505859375	30.19637638727819961559362127445638179779052734375	9.3333333174387593800247486797161400318145751953125	95.4066658655801944632912636734545230865478515625	1.30944444421264005740113134379498660564422607421875	24.783333515127498714036846649833023548126220703125	0.0	731.622934093076992212445475161075592041015625	0.0	1	1	1	1
7335	S6	2019	11	2	15	19.42818374633780109661529422737658023834228515625	0.37758276632262599559197724374826066195964813232421875	19.464682674407900009327931911684572696685791015625	9.4291666348775198258636009995825588703155517578125	95.7374994913736969692763523198664188385009765625	1.82666666474607009007513624965213239192962646484375	16.11666673173510133665331522934138774871826171875	0.0	479.83480580151302774538635276257991790771484375	0.0	1	1	1	1
7336	S6	2019	11	2	16	16.2357917229333992281681275926530361175537109375	0.401960727158518993373803596114157699048519134521484375	16.248213142818798360167420469224452972412109375	9.6666666825612299618342149187810719013214111328125	96.0366657257080049703290569595992565155029296875	1.53638888589208999491120266611687839031219482421875	13.733333411315999939006360364146530628204345703125	0.0	419.3503840515990077619790099561214447021484375	0.0	1	1	1	1
7337	S6	2019	11	2	17	6.0781976559332395737555998493917286396026611328125	0.3663950184626230122120205123792402446269989013671875	6.09795021585054985990836939890868961811065673828125	9.99285714966909921486148959957063198089599609375	96.037498882838605140932486392557621002197265625	1.187500001951339978489841087139211595058441162109375	1.966666682468110050052700898959301412105560302734375	0.0	58.788481548738900528405793011188507080078125	0.0	1	1	1	1
7338	S6	2019	11	2	18	0	0	0	0	0	0	0	0.0	0	0.0	1	1	1	0
7339	S6	2019	11	2	19	0	0	0	0	0	0	0	0.0	0	0.0	1	1	1	0
7340	S6	2019	11	2	20	0	0	0	0	0	0	0	0.0	0	0.0	1	1	1	0
7341	S6	2019	11	2	21	0	0	0	0	0	0	0	0.0	0	0.0	1	1	1	0
7342	S6	2019	11	2	22	0	0	0	0	0	0	0	0.0	0	0.0	1	1	1	0
7343	S6	2019	11	2	23	0	0	0	0	0	0	0	0.0	0	0.0	1	1	1	0
7344	S6	2019	11	2	24	0	0	0	0	0	0	0	0.0	0	0.0	1	1	1	0
7345	S6	2019	11	3	1	0	0	0	0	0	0	0	0.0	0	0.0	1	1	1	0
7346	S6	2019	11	3	2	0	0	0	0	0	0	0	0.0	0	0.0	1	1	1	0
7347	S6	2019	11	3	3	0	0	0	0	0	0	0	0.0	0	0.0	1	1	1	0
7348	S6	2019	11	3	4	0	0	0	0	0	0	0	0.0	0	0.0	1	1	1	0
7349	S6	2019	11	3	5	0	0	0	0	0	0	0	0.0	0	0.0	1	1	1	0
7350	S6	2019	11	3	6	0	0	0	0	0	0	0	0.0	0	0.0	1	1	1	0
7351	S6	2019	11	3	7	0	0	0	0	0	0	0	0.0	0	0.0	1	1	1	0
7352	S6	2019	11	3	8	10.2860922734691992985744946054182946681976318359375	0.294346139256684014018361494890996254980564117431640625	10.401344047402400150303947157226502895355224609375	9.0254717053107498259123531170189380645751953125	94.6547169235517031893323292024433612823486328125	1.4367924546295700594100708258338272571563720703125	5.95000010022585001934203319251537322998046875	0.0	172.3506332763159889509552158415317535400390625	0.0	1	1	1	1
7353	S6	2019	11	3	9	31.890914148754500700988501193933188915252685546875	0.4567665871646660047389332248712889850139617919921875	32.017677264743298337634769268333911895751953125	9.1883332570393800864394506788812577724456787109375	95.8350003560384067213817615993320941925048828125	1.1622222205003100992115605549770407378673553466796875	30.033333382258799559849649085663259029388427734375	0.0	854.163531213996975566260516643524169921875	0.0	1	1	1	1
7354	S6	2019	11	3	10	96.4232820510864030438824556767940521240234375	14.95856752014820045815213234163820743560791015625	92.1494052357142976461545913480222225189208984375	10.0616666475930998103649471886456012725830078125	95.1349999745686005780953564681112766265869140625	0.85055555676420502297929715496138669550418853759765625	100.6333331267029933542289654724299907684326171875	0.0	3022.99415022134007813292555510997772216796875	0.0	1	1	1	1
7355	S6	2019	11	3	11	104.2808711581759979480921174399554729461669921875	2.858325155244930027009786499547772109508514404296875	103.475344382391995168291032314300537109375	10.9749999841054002303053493960760533809661865234375	92.273333231608006599344662390649318695068359375	1.1125000004967000588607106692506931722164154052734375	97.599999854961794198970892466604709625244140625	0.0	2770.80066899458006446366198360919952392578125	0.0	1	1	1	1
7356	S6	2019	11	3	12	132.159042040506989224013523198664188385009765625	10.327367256167800491084562963806092739105224609375	128.338581699794985979679040610790252685546875	11.52333323160799949391730478964745998382568359375	89.531666946411093022106797434389591217041015625	1.0094444464478200540469288171152584254741668701171875	138.983332986632007077787420712411403656005859375	0.0	3946.01540962854005556437186896800994873046875	0.0	1	1	1	1
7357	S6	2019	11	3	13	159.979867935180010363183100707828998565673828125	11.83537015741070064223094959743320941925048828125	155.384765158758995085008791647851467132568359375	12.3749999682107993947965951520018279552459716796875	84.9866675059000016290156054310500621795654296875	0.60055555833710505542200053241685964167118072509765625	164.000000804661993925037677399814128875732421875	0.0	4654.1204015413895831443369388580322265625	0.0	1	1	1	1
7358	S6	2019	11	3	14	75.747366693284703842437011189758777618408203125	0.39157070364389101602142773117520846426486968994140625	75.61253379185990297628450207412242889404296875	12.28833341598510031644764239899814128875732421875	84.8300005594888943960540927946567535400390625	0.59555555822120698206134647989529184997081756591796875	62.03333325684059929017166723497211933135986328125	0.0	1916.4082596699399800854735076427459716796875	0.0	1	1	1	1
7359	S6	2019	11	3	15	97.6878984663220961692786659114062786102294921875	28.20946598342720079699574853293597698211669921875	92.964655007256396856973879039287567138671875	12.2583333969116008432820308371447026729583740234375	87.2616664886474069362520822323858737945556640625	0.62583333469099400314661352240364067256450653076171875	125.3666665405030045121748116798698902130126953125	0.0	3215.5341630180701031349599361419677734375	0.0	1	1	1	1
7360	S6	2019	11	3	16	65.7828343550363996428131940774619579315185546875	38.1694781205305986304665566422045230865478515625	59.78431410259670286677646799944341182708740234375	12.1999999046325005025437349104322493076324462890625	88.888333129882795446974341757595539093017578125	0.72750000167224104785645977244712412357330322265625	72.166666543731906813263776712119579315185546875	0.0	1791.55897088348001489066518843173980712890625	0.0	1	1	1	1
7361	S6	2019	11	3	17	10.4459321515543006597681596758775413036346435546875	0.267490165737958973668497719700098969042301177978515625	10.6011247251417000114770416985265910625457763671875	11.5419580019436995854675842565484344959259033203125	90.841958159333302091908990405499935150146484375	0.687412592289331048078793173772282898426055908203125	2.23333335403972998989274856285192072391510009765625	0.0	93.046351316540295783852343447506427764892578125	0.0	1	1	1	0
7362	S6	2019	11	3	18	0	0	0	0	0	0	0	0.0	0	0.0	1	1	1	0
7363	S6	2019	11	3	19	0	0	0	0	0	0	0	0.0	0	0.0	1	1	1	0
7364	S6	2019	11	3	20	0	0	0	0	0	0	0	0.0	0	0.0	1	1	1	0
7365	S6	2019	11	3	21	0	0	0	0	0	0	0	0.0	0	0.0	1	1	1	0
7366	S6	2019	11	3	22	0	0	0	0	0	0	0	0.0	0	0.0	1	1	1	0
7367	S6	2019	11	3	23	0	0	0	0	0	0	0	0.0	0	0.0	1	1	1	0
7368	S6	2019	11	3	24	0	0	0	0	0	0	0	0.0	0	0.0	1	1	1	0
7369	S6	2019	11	4	1	0	0	0	0	0	0	0	0.0	0	0.0	1	1	1	0
7370	S6	2019	11	4	2	0	0	0	0	0	0	0	0.0	0	0.0	1	1	1	0
7371	S6	2019	11	4	3	0	0	0	0	0	0	0	0.0	0	0.0	1	1	1	0
7372	S6	2019	11	4	4	0	0	0	0	0	0	0	0.0	0	0.0	1	1	1	0
7373	S6	2019	11	4	5	0	0	0	0	0	0	0	0.0	0	0.0	1	1	1	0
7374	S6	2019	11	4	6	0	0	0	0	0	0	0	0.0	0	0.0	1	1	1	0
7375	S6	2019	11	4	7	0	0	0	0	0	0	0	0.0	0	0.0	1	1	1	0
7376	S6	2019	11	4	8	5.28793123349910043629051870084367692470550537109375	0.347463878480399002146583598005236126482486724853515625	5.313690342263470256511936895549297332763671875	9.4970731595667405855465403874404728412628173828125	87.37902452422349597327411174774169921875	4.1126829036852203813623418682254850864410400390625	2.883333348048230160287630496895872056484222412109375	0.0	79.86382466430450222105719149112701416015625	0.0	1	1	1	1
7377	S6	2019	11	4	9	14.668868568208399238983474788255989551544189453125	0.347187640559341981205676574973040260374546051025390625	14.67735699547660033204010687768459320068359375	9.3266664293077194969328047591261565685272216796875	86.4588884565564939066462102346122264862060546875	4.0502777841356003563078047591261565685272216796875	13.0500002453724999185169508564285933971405029296875	0.0	388.4813505535320246053743176162242889404296875	0.0	1	1	1	1
7378	S6	2019	11	4	10	36.288269837697299635692615993320941925048828125	0.42319539909561398882686944489250890910625457763671875	36.304497792985699788914644159376621246337890625	9.231111150317719449276410159654915332794189453125	85.1077777862548003895426518283784389495849609375	3.659999989469839842826104359119199216365814208984375	34.6833334614832011766338837333023548126220703125	0.0	1026.9079642991200671531260013580322265625	0.0	1	1	1	1
7379	S6	2019	11	4	11	42.16711333592729715746827423572540283203125	0.39596354431576197274722517249756492674350738525390625	42.16585251490270280783079215325415134429931640625	9.216111230850220437105235760100185871124267578125	84.9138893127441036767777404747903347015380859375	3.9133333292272300951708530192263424396514892578125	37.40000004569679958876804448664188385009765625	0.0	1103.74726206063996869488619267940521240234375	0.0	1	1	1	1
7380	S6	2019	11	4	12	63.18466389973949759450988494791090488433837890625	0.491386735273732000450763734988868236541748046875	63.103608767191502693094662390649318695068359375	9.1894445843166696619164213188923895359039306640625	85.4344452752007015305935055948793888092041015625	3.848333328631179828249742058687843382358551025390625	61.10000020513950147460491280071437358856201171875	0.0	1848.253230750560078377020545303821563720703125	0.0	1	1	1	1
7381	S6	2019	11	4	13	103.3279991573750038469370338134467601776123046875	0.5064648112903029630871287736226804554462432861328125	103.31860105726400433923117816448211669921875	9.437222178777059156118411920033395290374755859375	83.6583337148030068419757299125194549560546875	4.08194443848397980900699621997773647308349609375	91.7000002538158014431246556341648101806640625	0.0	2735.996247331289850990287959575653076171875	0.0	1	1	1	1
7382	S6	2019	11	4	14	37.924181005689803214409039355814456939697265625	0.392064450639816985955121708684600889682769775390625	37.948793416553002089131041429936885833740234375	9.3150000572204501025908029987476766109466552734375	84.8661112891303019978295196779072284698486328125	3.723611104819500194906822798657231032848358154296875	32.25000047435349870283971540629863739013671875	0.0	924.5351408918689912752597592771053314208984375	0.0	1	1	1	1
7383	S6	2019	11	4	15	29.889591545528798377517887274734675884246826171875	0.388933131098746998066673086213995702564716339111328125	29.9295678721532993904475006274878978729248046875	9.2922222985161599950743038789369165897369384765625	84.581110890706298732766299508512020111083984375	3.730000003510050010646637019817717373371124267578125	25.733333267271500943706996622495353221893310546875	0.0	744.945175076524037649505771696567535400390625	0.0	1	1	1	1
7384	S6	2019	11	4	16	12.2279142137983996008188114501535892486572265625	0.333363074924743985061326156937866471707820892333984375	12.319950679322300146623092587105929851531982421875	9.144788811911990222824897500686347484588623046875	85.9402816557548021592083387076854705810546875	3.12478872604773005861034107510931789875030517578125	8.3333334051227705430164860445074737071990966796875	0.0	262.75143350940101072410470806062221527099609375	0.0	1	1	1	1
7385	S6	2019	11	4	17	2.0023027360439300537109375	0.312201278174624008432402888502110727131366729736328125	2.056001973502770141521978075616061687469482421875	8.8499998765833201019859188818372786045074462890625	87.638235316557000942339072935283184051513671875	2.90735294538384980711498428718186914920806884765625	0	0.0	3.027438294763390214114906484610401093959808349609375	0.0	1	1	1	0
7386	S6	2019	11	4	18	0	0	0	0	0	0	0	0.0	0	0.0	1	1	1	0
7387	S6	2019	11	4	19	0	0	0	0	0	0	0	0.0	0	0.0	1	1	1	0
7388	S6	2019	11	4	20	0	0	0	0	0	0	0	0.0	0	0.0	1	1	1	0
7389	S6	2019	11	4	21	0	0	0	0	0	0	0	0.0	0	0.0	1	1	1	0
7390	S6	2019	11	4	22	0	0	0	0	0	0	0	0.0	0	0.0	1	1	1	0
7391	S6	2019	11	4	23	0	0	0	0	0	0	0	0.0	0	0.0	1	1	1	0
7392	S6	2019	11	4	24	0	0	0	0	0	0	0	0.0	0	0.0	1	1	1	0
7393	S6	2019	11	5	1	0	0	0	0	0	0	0	0.0	0	0.0	1	1	1	0
7394	S6	2019	11	5	2	0	0	0	0	0	0	0	0.0	0	0.0	1	1	1	0
7395	S6	2019	11	5	3	0	0	0	0	0	0	0	0.0	0	0.0	1	1	1	0
7396	S6	2019	11	5	4	0	0	0	0	0	0	0	0.0	0	0.0	1	1	1	0
7397	S6	2019	11	5	5	0	0	0	0	0	0	0	0.0	0	0.0	1	1	1	0
7398	S6	2019	11	5	6	0	0	0	0	0	0	0	0.0	0	0.0	1	1	1	0
7399	S6	2019	11	5	7	0	0	0	0	0	0	0	0.0	0	0.0	1	1	1	0
7400	S6	2019	11	5	8	4.7120689912275803834518228541128337383270263671875	0.32898650657046901724100962383090518414974212646484375	4.92002430829133974299338660784997045993804931640625	5.22727264057505980332507533603347837924957275390625	89.7272713401099935026650200597941875457763671875	1.35454544695940004572776160784997045993804931640625	1.13333336776122006739342396031133830547332763671875	0.0	28.90637177818749847801882424391806125640869140625	0.0	1	1	1	1
7401	S6	2019	11	5	9	13.7134320042853996568510410725139081478118896484375	0.33786494817671297585803813490201719105243682861328125	13.9448366276052997392298493650741875171661376953125	5.3375001286351402285390577162615954875946044921875	87.78575498004289556774892844259738922119140625	2.0127906948328000424908168497495353221893310546875	12.266666814684899833309827954508364200592041015625	0.0	367.857228778301987404120154678821563720703125	0.0	1	1	1	1
7402	S6	2019	11	5	10	45.34753169483600032663161982782185077667236328125	0.405107568369971027255616036200080998241901397705078125	45.4683983219994019009391195140779018402099609375	5.4400000572204501025908029987476766109466552734375	86.4466668870714016748024732805788516998291015625	2.275277773704790007514020544476807117462158203125	43.61666698629650085194953135214745998382568359375	0.0	1313.980724414180031089927069842815399169921875	0.0	1	1	1	1
7403	S6	2019	11	5	11	93.0692664040459050056597334332764148712158203125	0.4982261199090209924378314099158160388469696044921875	93.2033679326375050777642172761261463165283203125	5.6916666322284203971548777190037071704864501953125	84.51888830396859475513338111340999603271484375	2.37138888951804016613778003375045955181121826171875	86.8833338220916999716791906394064426422119140625	0.0	2576.780791083960139076225459575653076171875	0.0	1	0	1	1
7404	S6	2019	11	5	12	94.3743659761216946435524732805788516998291015625	0.460378074645996004932158029987476766109466552734375	94.42616104549830424730316735804080963134765625	5.818889005978899575666218879632651805877685546875	82.830000432332298032633843831717967987060546875	2.6213888865378098813607721240259706974029541015625	83.96666708091919417711324058473110198974609375	0.0	2458.7486768762200881610624492168426513671875	0.0	1	1	1	1
7405	S6	2019	11	5	13	75.5109617021347929721741820685565471649169921875	0.432538723448911976987574234954081475734710693359375	75.4471979459126060874041286297142505645751953125	5.82000013192493970137775249895639717578887939453125	82.420555920070995625792420469224452972412109375	2.440555548999039814361822209320962429046630859375	65.3666663914917052125019836239516735076904296875	0.0	1944.627910604069938926841132342815399169921875	0.0	1	1	1	1
7406	S6	2019	11	5	14	43.02049063576590270940869231708347797393798828125	0.362827008424533026254010792399640195071697235107421875	43.0876340018377987917119753547012805938720703125	5.7288888480928203961184408399276435375213623046875	82.4683339436848967807236476801335811614990234375	2.095833323730360131520455979625694453716278076171875	38.25000015397849750797831802628934383392333984375	0.0	1153.766725709039974390179850161075592041015625	0.0	1	1	1	1
7407	S6	2019	11	5	15	39.54851815965439953970417263917624950408935546875	0.346075727894073981172340381817775778472423553466796875	39.6139761606851976694088079966604709625244140625	5.83166679541268972997158925863914191722869873046875	82.7461109585232037488822243176400661468505859375	1.8058333298398299149312151712365448474884033203125	34.08333336313560124608557089231908321380615234375	0.0	1042.92710473140004978631623089313507080078125	0.0	1	1	1	1
7408	S6	2019	11	5	16	19.39446528487729892731294967234134674072265625	0.29551738827592799463417350125382654368877410888671875	19.534016858206801003916552872397005558013916015625	5.4555555979410801370477201999165117740631103515625	86.462222798665294476450071670114994049072265625	1.5508333309657000853576391818933188915252685546875	14.866666883850999880678500630892813205718994140625	0.0	474.02970027178497502973186783492565155029296875	0.0	1	1	1	1
7409	S6	2019	11	5	17	7.49008902987918023796964916982688009738922119140625	0.337455155076206991804355084241251461207866668701171875	7.80713484738323959533090601325966417789459228515625	5.2864865354589500867632523295469582080841064453125	86.6540529405748003455300931818783283233642578125	1.61621622298213996060667341225780546665191650390625	0.683333348327626044493854351458139717578887939453125	0.0	31.52640153809119993866261211223900318145751953125	0.0	1	1	1	0
7410	S6	2019	11	5	18	0	0	0	0	0	0	0	0.0	0	0.0	1	1	1	0
7411	S6	2019	11	5	19	0	0	0	0	0	0	0	0.0	0	0.0	1	1	1	0
7412	S6	2019	11	5	20	0	0	0	0	0	0	0	0.0	0	0.0	1	1	1	0
7413	S6	2019	11	5	21	0	0	0	0	0	0	0	0.0	0	0.0	1	1	1	0
7414	S6	2019	11	5	22	0	0	0	0	0	0	0	0.0	0	0.0	1	1	1	0
7415	S6	2019	11	5	23	0	0	0	0	0	0	0	0.0	0	0.0	1	1	1	0
7416	S6	2019	11	5	24	0	0	0	0	0	0	0	0.0	0	0.0	1	1	1	0
7417	S6	2019	11	6	1	0	0	0	0	0	0	0	0.0	0	0.0	1	1	1	0
7418	S6	2019	11	6	2	0	0	0	0	0	0	0	0.0	0	0.0	1	1	1	0
7419	S6	2019	11	6	3	0	0	0	0	0	0	0	0.0	0	0.0	1	1	1	0
7420	S6	2019	11	6	4	0	0	0	0	0	0	0	0.0	0	0.0	1	1	1	0
7421	S6	2019	11	6	5	0	0	0	0	0	0	0	0.0	0	0.0	1	1	1	0
7422	S6	2019	11	6	6	0	0	0	0	0	0	0	0.0	0	0.0	1	1	1	0
7423	S6	2019	11	6	7	0	0	0	0	0	0	0	0.0	0	0.0	1	1	1	0
7424	S6	2019	11	6	8	7.69804435867373992863349485560320317745208740234375	0.31187781481082799128756732898182235658168792724609375	7.74886912679941008974537908216007053852081298828125	2.877401192982989908131230549770407378673553466796875	86.4502820375949028175455168820917606353759765625	1.029378534710339909707954575424082577228546142578125	4.2666666830579398350664632744155824184417724609375	0.0	119.340218976139993856122600845992565155029296875	0.0	1	1	1	1
7425	S6	2019	11	6	9	68.5677832073635045162518508732318878173828125	117.380955382270002473887871019542217254638671875	50.0831730312770986301984521560370922088623046875	3.112222218513479798929211028735153377056121826171875	84.1461115519204980728318332694470882415771484375	0.91444444606701502653578472745721228420734405517578125	55.4666663520037985790622769854962825775146484375	0.0	2463.97499094406020958558656275272369384765625	0.0	1	1	1	1
7426	S6	2019	11	6	10	217.0056014590790027796174399554729461669921875	495.1082949956249876777292229235172271728515625	108.8644485685559999410543241538107395172119140625	4.20166663461260991851986545952968299388885498046875	78.557222790188205863159964792430400848388671875	1.0430555552244100692149686437915079295635223388671875	124.2500002185509941909913322888314723968505859375	0.0	7023.110903302809674642048776149749755859375	0.0	1	1	1	1
7427	S6	2019	11	6	11	142.57166400485499480055295862257480621337890625	145.418724883596013341957586817443370819091796875	102.1818413204610038746977807022631168365478515625	4.53555553754169960001263461890630424022674560546875	77.855555428398901085529359988868236541748046875	0.7927777811884879621828758899937383830547332763671875	124.0999999145659984378653462044894695281982421875	0.0	4564.710516730940071283839643001556396484375	0.0	1	1	1	1
7428	S6	2019	11	6	12	198.936498938666005642517120577394962310791015625	251.951620899305993361849687062203884124755859375	117.0514025582200048347658594138920307159423828125	5.62111112276712976409953625989146530628204345703125	74.372222646077403851450071670114994049072265625	0.5175000027649929723594368624617345631122589111328125	346.03333249688097339458181522786617279052734375	0.0	6714.6070152520996998646296560764312744140625	0.0	1	1	1	1
7429	S6	2019	11	6	13	194.25393865898701051264652051031589508056640625	242.6902517070340081772883422672748565673828125	118.1843469561299997394598904065787792205810546875	6.2389972349395304007657614420168101787567138671875	65.029247783352701617332058958709239959716796875	1.123955432917079999555198810412548482418060302734375	390.1500000307950131173129193484783172607421875	0.0	6851.229306062059549731202423572540283203125	0.0	1	1	1	1
7430	S6	2019	11	6	14	221.9260518179989958298392593860626220703125	365.1742972215009785941219888627529144287109375	122.8455801645909986063998076133430004119873046875	6.45722222858004979428869773983024060726165771484375	59.76722246805820049075919087044894695281982421875	0.85083333485656298389443463747738860547542572021484375	365.88333224256797393536544404923915863037109375	0.0	6684.2006246248902243678458034992218017578125	0.0	1	1	1	1
7431	S6	2019	11	6	15	91.6616195042928012526317615993320941925048828125	42.4438215740180027069072821177542209625244140625	81.2821604092915066530622425489127635955810546875	6.08000002966986041741392909898422658443450927734375	59.6588887744479023922394844703376293182373046875	0.617222224920987994067900217487476766109466552734375	85.050000964353301924347761087119579315185546875	0.0	2332.46753538647999448585323989391326904296875	0.0	1	1	1	1
7432	S6	2019	11	6	16	19.423921750651398809850434190593659877777099609375	0.28755524845586799553842638488276861608028411865234375	19.541695584191199230872371117584407329559326171875	5.58777771261002964564568173955194652080535888671875	62.14888888465029737062650383450090885162353515625	0.6841666711701279712798395848949439823627471923828125	14.38333354114229933884416823275387287139892578125	0.0	439.05490183581997598594170995056629180908203125	0.0	1	1	1	1
7433	S6	2019	11	6	17	5.45918014153189989912107193958945572376251220703125	0.277174854278563975729099411182687617838382720947265625	5.5243064051089003640981900389306247234344482421875	5.2382608496624403215946585987694561481475830078125	65.3573910920515999123381334356963634490966796875	0.84695652256841202909498633744078688323497772216796875	0.81666669575497596866853200481273233890533447265625	0.0	37.75732306918740022183555993251502513885498046875	0.0	1	1	1	0
7434	S6	2019	11	6	18	0	0	0	0	0	0	0	0.0	0	0.0	1	1	1	0
7435	S6	2019	11	6	19	0	0	0	0	0	0	0	0.0	0	0.0	1	1	1	0
7436	S6	2019	11	6	20	0	0	0	0	0	0	0	0.0	0	0.0	1	1	1	0
7437	S6	2019	11	6	21	0	0	0	0	0	0	0	0.0	0	0.0	1	1	1	0
7438	S6	2019	11	6	22	0	0	0	0	0	0	0	0.0	0	0.0	1	1	1	0
7439	S6	2019	11	6	23	0	0	0	0	0	0	0	0.0	0	0.0	1	1	1	0
7440	S6	2019	11	6	24	0	0	0	0	0	0	0	0.0	0	0.0	1	1	1	0
7441	S6	2019	11	7	1	0	0	0	0	0	0	0	0.0	0	0.0	1	1	1	0
7442	S6	2019	11	7	2	0	0	0	0	0	0	0	0.0	0	0.0	1	1	1	0
7443	S6	2019	11	7	3	0	0	0	0	0	0	0	0.0	0	0.0	1	1	1	0
7444	S6	2019	11	7	4	0	0	0	0	0	0	0	0.0	0	0.0	1	1	1	0
7445	S6	2019	11	7	5	0	0	0	0	0	0	0	0.0	0	0.0	1	1	1	0
7446	S6	2019	11	7	6	0	0	0	0	0	0	0	0.0	0	0.0	1	1	1	0
7447	S6	2019	11	7	7	0	0	0	0	0	0	0	0.0	0	0.0	1	1	1	0
7448	S6	2019	11	7	8	6.74747828936871041349832012201659381389617919921875	0.3538593865103190072574079749756492674350738525390625	6.8275631725052203790937710436992347240447998046875	4.08271597049853962602128376602195203304290771484375	87.327777862548799703290569595992565155029296875	1.528395056724539902148762848810292780399322509765625	3.583333363834139806414214035612531006336212158203125	0.0	100.022953089015999239563825540244579315185546875	0.0	1	1	1	1
7449	S6	2019	11	7	9	30.7484552197986005239727091975510120391845703125	0.40117188692092897728258549250313080847263336181640625	30.8433939880793985821583191864192485809326171875	4.44694442616567986448217197903431951999664306640625	86.82500040266239693664829246699810028076171875	1.40694444096750004291607183404266834259033203125	31.516666663810600113038162817247211933135986328125	0.0	891.552012662092010941705666482448577880859375	0.0	1	1	1	1
7450	S6	2019	11	7	10	74.2395043796962994520072243176400661468505859375	0.7915692657232280549095548849436454474925994873046875	74.1072979715135033984552137553691864013671875	5.28749999867545028564563835971057415008544921875	82.911388927035801543752313591539859771728515625	1.331388888922000024450653654639609158039093017578125	75.91666666169959398757782764732837677001953125	0.0	2222.9267016053099723649211227893829345703125	0.0	1	1	1	1
7451	S6	2019	11	7	11	139.23125392066100403098971582949161529541015625	53.8611411692367028081207536160945892333984375	123.5147532145179951612590230070054531097412109375	5.973611128330230002347889239899814128875732421875	80.236111089918296102041495032608509063720703125	2.00444443871576982729720839415676891803741455078125	139.966666450101996588273323141038417816162109375	0.0	4346.910513440760041703470051288604736328125	0.0	1	1	1	1
7452	S6	2019	11	7	12	150.439799986944990450865589082241058349609375	15.8701169573597997697333994437940418720245361328125	144.2531051847660137354978360235691070556640625	6.18805552058748986610225983895361423492431640625	77.777777714199402225858648307621479034423828125	2.227222215632589819023223753902129828929901123046875	178.583334137995990431591053493320941925048828125	0.0	4842.0355081558200254221446812152862548828125	0.0	1	1	1	1
7453	S6	2019	11	7	13	188.486305703057013261059182696044445037841796875	146.39317933503099311565165407955646514892578125	141.563545205857991504672099836170673370361328125	6.42722221215565969743011009995825588703155517578125	77.950277540418795751975267194211483001708984375	2.358333330021959994837743579410016536712646484375	262.650000800688985691522248089313507080078125	0.0	5978.8844744364396319724619388580322265625	0.0	1	1	1	1
7454	S6	2019	11	7	14	120.0926313824119944229096290655434131622314453125	2.351444758557609926441500647342763841152191162109375	119.0111742655430049353526555933058261871337890625	6.6777777605586496889600311988033354282379150390625	81.27833353678380490237032063305377960205078125	2.106666660971109994449079749756492674350738525390625	123.6833335210869933007415966130793094635009765625	0.0	3527.205679814020186313427984714508056640625	0.0	1	1	1	1
7455	S6	2019	11	7	15	58.3377872149148970493115484714508056640625	0.39834859222173601978056467487476766109466552734375	58.309661780463301283816690556704998016357421875	6.9027778307596800999590413994155824184417724609375	83.0650000678167970136200892738997936248779296875	1.9186111054486600924207095886231400072574615478515625	51.31666682039689675320914830081164836883544921875	0.0	1480.169450740010006484226323664188385009765625	0.0	1	1	1	1
7456	S6	2019	11	7	16	17.2178686777750016290156054310500621795654296875	0.347914416301580986523589444914250634610652923583984375	17.28705490231509855902913841418921947479248046875	6.8447223610348100208966570789925754070281982421875	86.3386109881929968423719401471316814422607421875	1.3530555538833100026607780819176696240901947021484375	12.8666668257209995118728329543955624103546142578125	0.0	381.60431022600602091188193298876285552978515625	0.0	1	1	1	1
7457	S6	2019	11	7	17	1.3013840769466600288950530739384703338146209716796875	0.51836977836332798208474059720174409449100494384765625	1.1274128327244199443413208427955396473407745361328125	6.75789470672606995549358543939888477325439453125	88.118947079307105241241515614092350006103515625	0.31473684499138199210932498317561112344264984130859375	0	0.0	1.0406999848782800821567207094631157815456390380859375	0.0	1	1	1	0
7458	S6	2019	11	7	18	0	0	0	0	0	0	0	0.0	0	0.0	1	1	1	0
7459	S6	2019	11	7	19	0	0	0	0	0	0	0	0.0	0	0.0	1	1	1	0
7460	S6	2019	11	7	20	0	0	0	0	0	0	0	0.0	0	0.0	1	1	1	0
7461	S6	2019	11	7	21	0	0	0	0	0	0	0	0.0	0	0.0	1	1	1	0
7462	S6	2019	11	7	22	0	0	0	0	0	0	0	0.0	0	0.0	1	1	1	0
7463	S6	2019	11	7	23	0	0	0	0	0	0	0	0.0	0	0.0	1	1	1	0
7464	S6	2019	11	7	24	0	0	0	0	0	0	0	0.0	0	0.0	1	1	1	0
7465	S6	2019	11	8	1	0	0	0	0	0	0	0	0.0	0	0.0	1	1	1	0
7466	S6	2019	11	8	2	0	0	0	0	0	0	0	0.0	0	0.0	1	1	1	0
7467	S6	2019	11	8	3	0	0	0	0	0	0	0	0.0	0	0.0	1	1	1	0
7468	S6	2019	11	8	4	0	0	0	0	0	0	0	0.0	0	0.0	1	1	1	0
7469	S6	2019	11	8	5	0	0	0	0	0	0	0	0.0	0	0.0	1	1	1	0
7470	S6	2019	11	8	6	0	0	0	0	0	0	0	0.0	0	0.0	1	1	1	0
7471	S6	2019	11	8	7	0	0	0	0	0	0	0	0.0	0	0.0	1	1	1	0
7472	S6	2019	11	8	8	9.209298301626130722752350266091525554656982421875	17.55530636111890174788641161285340785980224609375	8.3585788073363094241585713461972773075103759765625	7.868888943283639747505731065757572650909423828125	92.7785192984121067638625390827655792236328125	1.600740737385220047173106650006957352161407470703125	3.933333405681600059011771008954383432865142822265625	0.0	119.75884730927600685390643775463104248046875	0.0	1	1	1	0
7473	S6	2019	11	8	9	30.8437654336293007872882299125194549560546875	5.03141470501820009531002142466604709625244140625	30.6027148591146982425925671122968196868896484375	8.0572223530875302088816169998608529567718505859375	91.2561117384168056787530076690018177032470703125	1.9747222143742699795865291889640502631664276123046875	29.91666655677060049356441595591604709625244140625	0.0	858.049971237777981514227576553821563720703125	0.0	1	1	1	1
7474	S6	2019	11	8	10	51.05838682386610116736846975982189178466796875	0.6264581571022660444469920548726804554462432861328125	50.98373741573750095312789198942482471466064453125	8.18388889630634963623379007913172245025634765625	88.43166694641109870644868351519107818603515625	1.74861110879314995969480150961317121982574462890625	48.7333334982395030010593472979962825775146484375	0.0	1386.80105904737001765170134603977203369140625	0.0	1	1	1	1
7475	S6	2019	11	8	11	91.9759627318315011734739528037607669830322265625	1.939945619169380019997106501250527799129486083984375	91.042927691531303935335017740726470947265625	8.5298049974574308151886725681833922863006591796875	84.8977716812515978972442098893225193023681640625	1.9899721427050101052458330741501413285732269287109375	95.6666668256118981616964447312057018280029296875	0.0	2787.8677576780200979555957019329071044921875	0.0	1	1	1	1
7476	S6	2019	11	8	12	125.96569919851799568277783691883087158203125	25.785779097742601351228586281649768352508544921875	117.038201611022003589823725633323192596435546875	8.62562675794850974853034131228923797607421875	82.5793871653776960783943650312721729278564453125	2.33231196961363007602585639688186347484588623046875	165.516667316357001027427031658589839935302734375	0.0	3965.9174953897700106608681380748748779296875	0.0	1	1	1	1
7477	S6	2019	11	8	13	245.780966707971998630455345846712589263916015625	260.44823323778700796538032591342926025390625	165.94852667629498910173424519598484039306640625	9.2840335642924092240946265519596636295318603515625	79.2823527787578967718218336813151836395263671875	1.6243697475819300901633823741576634347438812255859375	388.4666683773190243300632573664188385009765625	0.0	7730.8329463005002253339625895023345947265625	0.0	1	1	1	1
7478	S6	2019	11	8	14	130.298163011338004935169010423123836517333984375	24.739725738598199455964277149178087711334228515625	122.9623393376659947762163938023149967193603515625	9.0583333121405704702056027599610388278961181640625	79.138055313958005854146904312074184417724609375	1.656388885941769917309329684940166771411895751953125	156.16666736702001117009785957634449005126953125	0.0	3974.05925343433000307413749396800994873046875	0.0	1	1	1	1
7479	S6	2019	11	8	15	94.706610933939600727171637117862701416015625	62.50511145947699986891166190616786479949951171875	81.169229708777493215166032314300537109375	8.9055554946263608684375867596827447414398193359375	79.3491665310329068461214774288237094879150390625	1.079999999370830021661049613612703979015350341796875	137.666667004425988807270186953246593475341796875	0.0	2961.34401261805987815023399889469146728515625	0.0	1	1	1	1
7480	S6	2019	11	8	16	42.9035216993755028624946135096251964569091796875	19.69687048196789902476666611619293689727783203125	40.92508049011230042424358543939888477325439453125	8.1802778389718699969535009586252272129058837890625	81.4513894399006943558561033569276332855224609375	0.92388889003131102750643321996903978288173675537109375	49.466666889687303410028107464313507080078125	0.0	1230.749539037539989294600673019886016845703125	0.0	1	1	1	1
7481	S6	2019	11	8	17	9.6129191113614496089212480001151561737060546875	0.375291861336805976367969606144470162689685821533203125	9.7863227910008898646765373996458947658538818359375	7.28275861959347015073262809892185032367706298828125	84.4735631833131037637940607964992523193359375	0.60459770519157896018214159994386136531829833984375	0.816666680232934982797132761334069073200225830078125	0.0	71.445576435265394366069813258945941925048828125	0.0	1	1	1	0
7482	S6	2019	11	8	18	0	0	0	0	0	0	0	0.0	0	0.0	1	1	1	0
7483	S6	2019	11	8	19	0	0	0	0	0	0	0	0.0	0	0.0	1	1	1	0
7484	S6	2019	11	8	20	0	0	0	0	0	0	0	0.0	0	0.0	1	1	1	0
7485	S6	2019	11	8	21	0	0	0	0	0	0	0	0.0	0	0.0	1	1	1	0
7486	S6	2019	11	8	22	0	0	0	0	0	0	0	0.0	0	0.0	1	1	1	0
7487	S6	2019	11	8	23	0	0	0	0	0	0	0	0.0	0	0.0	1	1	1	0
7488	S6	2019	11	8	24	0	0	0	0	0	0	0	0.0	0	0.0	1	1	1	0
7489	S6	2019	11	9	1	0	0	0	0	0	0	0	0.0	0	0.0	1	1	1	0
7490	S6	2019	11	9	2	0	0	0	0	0	0	0	0.0	0	0.0	1	1	1	0
7491	S6	2019	11	9	3	0	0	0	0	0	0	0	0.0	0	0.0	1	1	1	0
7492	S6	2019	11	9	4	0	0	0	0	0	0	0	0.0	0	0.0	1	1	1	0
7493	S6	2019	11	9	5	0	0	0	0	0	0	0	0.0	0	0.0	1	1	1	0
7494	S6	2019	11	9	6	0	0	0	0	0	0	0	0.0	0	0.0	1	1	1	0
7495	S6	2019	11	9	7	0	0	0	0	0	0	0	0.0	0	0.0	1	1	1	0
7496	S6	2019	11	9	8	5.6521928159814098791002834332175552845001220703125	0.27705807497626799840162448163027875125408172607421875	5.7748695172761603799926888314075767993927001953125	5.820000116448650118172736256383359432220458984375	91.7968413503545974663211381994187831878662109375	1.0189473707424900883466989398584701120853424072265625	2.116666720636799947641293329070322215557098388671875	0.0	54.7301635068530032413036678917706012725830078125	0.0	1	1	1	0
7497	S6	2019	11	9	9	16.34771779378250045056120143271982669830322265625	0.289761235978867992546526011210517026484012603759765625	16.4669167810016006114892661571502685546875	5.79611120886271979912862661876715719699859619140625	92.3616669972737014404629007913172245025634765625	0.9683333364625770212086308674770407378673553466796875	15.3666667019325995369172233040444552898406982421875	0.0	446.25250976532601043800241313874721527099609375	0.0	1	1	1	1
7498	S6	2019	11	9	10	49.2598250918917983653955161571502685546875	0.385403061161438020842950891164946369826793670654296875	49.41032369401720103496700176037847995758056640625	6.1622221853997896090504582389257848262786865234375	92.242222828335201256777509115636348724365234375	0.9252777791685520281106391848879866302013397216796875	49.09999994561069769360983627848327159881591796875	0.0	1423.469588160510056695784442126750946044921875	0.0	1	1	1	1
7499	S6	2019	11	9	11	84.8860256406996001032894128002226352691650390625	0.479560910951760011045053033740259706974029541015625	84.9571456909178976957264239899814128875732421875	6.6433333224720403364926823996938765048980712890625	91.454721747504294171449146233499050140380859375	1.2066666641169099261077235496486537158489227294921875	80.800000329812206700808019377291202545166015625	0.0	2340.0266110897000544355250895023345947265625	0.0	1	1	1	1
7500	S6	2019	11	9	12	113.32092893388499987850082106888294219970703125	3.386080688817629802400688276975415647029876708984375	112.229053073458999278955161571502685546875	7.41194447014065982415331745869480073451995849609375	88.9841663784450958019078825600445270538330078125	0.97916666492819703915273521488416008651256561279296875	117.983332897226006252822116948664188385009765625	0.0	3403.27010353406012654886581003665924072265625	0.0	1	1	1	1
7501	S6	2019	11	9	13	134.0612414466010022806585766375064849853515625	1.8498471683098201001627103323698975145816802978515625	133.40576587253099205554462969303131103515625	8.167777840296420066579230478964745998382568359375	87.916388617621493040132918395102024078369140625	1.2936111114091299878481322593870572745800018310546875	131.3000001013269866234622895717620849609375	0.0	3745.38313150405019769095815718173980712890625	0.0	1	1	1	1
7502	S6	2019	11	9	14	102.62738410101900399240548722445964813232421875	3.341428678317199807423776292125694453716278076171875	101.6069839265609999756634351797401905059814453125	8.1747223165300102465380405192263424396514892578125	88.0850003560384067213817615993320941925048828125	1.377499997119099983677870113751851022243499755859375	104.266666620969004952712566591799259185791015625	0.0	2941.873885194459944614209234714508056640625	0.0	1	1	1	1
7503	S6	2019	11	9	15	56.4184236208596985306940041482448577880859375	1.3166988316509400380738270541769452393054962158203125	56.15088580449420163631657487712800502777099609375	8.122500114970730322738745599053800106048583984375	88.3369447072346929417108185589313507080078125	1.114166667643520014507885207422077655792236328125	49.316667082408997657694271765649318695068359375	0.0	1429.37173570195000138483010232448577880859375	0.0	1	1	1	1
7504	S6	2019	11	9	16	22.986514688862598632113076746463775634765625	0.305070540226167974395821147481910884380340576171875	23.05144917700020101847258047200739383697509765625	7.89055565992990981527555049979127943515777587890625	88.797777832878892922963132150471210479736328125	0.75805555830399196093338787250104360282421112060546875	18.066666826295300296578716370277106761932373046875	0.0	541.4366786368169641718850471079349517822265625	0.0	1	1	1	1
7505	S6	2019	11	9	17	3.194507258909720093242867733351886272430419921875	0.238911802753989988001848132626037113368511199951171875	3.24483495582768011189500612090341746807098388671875	7.72716040670135040357990874326787889003753662109375	89.3148152857649932911954238079488277435302734375	1.2999999994113100587611597802606411278247833251953125	0.166666674582915008695493952473043464124202728271484375	0.0	7.84638658321155002539626366342417895793914794921875	0.0	1	1	1	0
7506	S6	2019	11	9	18	0	0	0	0	0	0	0	0.0	0	0.0	1	1	1	0
7507	S6	2019	11	9	19	0	0	0	0	0	0	0	0.0	0	0.0	1	1	1	0
7508	S6	2019	11	9	20	0	0	0	0	0	0	0	0.0	0	0.0	1	1	1	0
7509	S6	2019	11	9	21	0	0	0	0	0	0	0	0.0	0	0.0	1	1	1	0
7510	S6	2019	11	9	22	0	0	0	0	0	0	0	0.0	0	0.0	1	1	1	0
7511	S6	2019	11	9	23	0	0	0	0	0	0	0	0.0	0	0.0	1	1	1	0
7512	S6	2019	11	9	24	0	0	0	0	0	0	0	0.0	0	0.0	1	1	1	0
7513	S6	2019	11	10	1	0	0	0	0	0	0	0	0.0	0	0.0	1	1	1	0
7514	S6	2019	11	10	2	0	0	0	0	0	0	0	0.0	0	0.0	1	1	1	0
7515	S6	2019	11	10	3	0	0	0	0	0	0	0	0.0	0	0.0	1	1	1	0
7516	S6	2019	11	10	4	0	0	0	0	0	0	0	0.0	0	0.0	1	1	1	0
7517	S6	2019	11	10	5	0	0	0	0	0	0	0	0.0	0	0.0	1	1	1	0
7518	S6	2019	11	10	6	0	0	0	0	0	0	0	0.0	0	0.0	1	1	1	0
7519	S6	2019	11	10	7	0	0	0	0	0	0	0	0.0	0	0.0	1	1	1	0
7520	S6	2019	11	10	8	15.21252927609850047474537859670817852020263671875	0.71009943767317695861862603123881854116916656494140625	15.2586600780487007256169817992486059665679931640625	4.872321435383380361372473998926579952239990234375	94.0071437699454008907196111977100372314453125	0.251785717106290996003536974967573769390583038330078125	6.08333342825063017045295055140741169452667236328125	0.0	180.047930226039994749953621067106723785400390625	0.0	1	0	1	0
7521	S6	2019	11	10	9	41.56163956324250108309570350684225559234619140625	21.5568377032875986287763225845992565155029296875	40.07409263716800040810994687490165233612060546875	5.27388886080847019144357545883394777774810791015625	93.7386109881930025267138262279331684112548828125	0.341944447822040975548674168749130330979824066162109375	40.866667156418003514772863127291202545166015625	0.0	1162.74835703272992759593762457370758056640625	0.0	1	1	1	1
7522	S6	2019	11	10	10	53.239954365624299725823220796883106231689453125	4.163760062058759814362929319031536579132080078125	52.44462581210660090391684207133948802947998046875	6.21694446139864975720001893932931125164031982421875	92.2408334943983021503299823962152004241943359375	0.34000000382463102521768405495095066726207733154296875	50.14999999354279935914746602065861225128173828125	0.0	1499.469565351799928976106457412242889404296875	0.0	1	1	1	1
7523	S6	2019	11	10	11	159.061697557237010869357618503272533416748046875	114.035736448069002335614641197025775909423828125	129.149344274731987525228760205209255218505859375	7.5483333547909996497082829591818153858184814453125	87.98722186618380192157928831875324249267578125	0.33000000375840399247096002000034786760807037353515625	135.516667366027007801676518283784389495849609375	0.0	4655.8642039696196661680005490779876708984375	0.0	1	1	1	1
7524	S6	2019	11	10	12	104.1948014365299997052716207690536975860595703125	0.4650119531899690183962547962437383830547332763671875	103.89395292070099685588502325117588043212890625	7.7013889498180798653947931597940623760223388671875	86.59333311716710568362032063305377960205078125	0.290277781089145980875088071115897037088871002197265625	100.59999997417099848462385125458240509033203125	0.0	2856.1928878227799941669218242168426513671875	0.0	1	1	1	1
7525	S6	2019	11	10	13	115.2635327868990060551368515007197856903076171875	1.83277461897167004423181424499489367008209228515625	114.1279296027280025782602024264633655548095703125	8.0458333783679503170560565195046365261077880859375	83.953888977898401435595587827265262603759765625	0.436388893508247999175608811128768138587474822998046875	118.0999999245010059212290798313915729522705078125	0.0	3354.11175588766991495504043996334075927734375	0.0	1	1	1	1
7526	S6	2019	11	10	14	106.166382005478993733049719594419002532958984375	9.6194794178836797726717122714035212993621826171875	103.227021620008002855684026144444942474365234375	8.201111128595140797870044480077922344207763671875	81.536111026339995078160427510738372802734375	0.473888893011543022026899052434600889682769775390625	110.9666665395100011437534703873097896575927734375	0.0	3075.15870481729007224203087389469146728515625	0.0	1	1	1	1
7527	S6	2019	11	10	15	60.6814597553676975394409964792430400848388671875	9.624358625213300655332204769365489482879638671875	58.68611281712839655710922670550644397735595703125	7.7730555759535899795764635200612246990203857421875	83.0891665776569965373710147105157375335693359375	0.39000000539753099104700595489703118801116943359375	67.9833333939314030658351839520037174224853515625	0.0	1815.56437065203999736695550382137298583984375	0.0	1	1	1	1
7528	S6	2019	11	10	16	38.645090972052599909147829748690128326416015625	38.90230582273660075998122920282185077667236328125	34.8847487158245002092371578328311443328857421875	7.24000007576411963583495889906771481037139892578125	85.6416663699679929777630604803562164306640625	0.35583333687649798537933065745164640247821807861328125	48.73333351376140143429438467137515544891357421875	0.0	1147.579619536790005440707318484783172607421875	0.0	1	1	1	1
7529	S6	2019	11	10	17	7.728965260088440203389836824499070644378662109375	0.263571666553616024142314699929556809365749359130859375	7.79932186752557043973865802399814128875732421875	6.74687498807907015674345529987476766109466552734375	86.100000381469698140790569595992565155029296875	0.53281250316649597653650971551542170345783233642578125	0.56666667223907996042697732264059595763683319091796875	0.0	36.831320022853702766951755620539188385009765625	0.0	1	1	1	0
7530	S6	2019	11	10	18	0	0	0	0	0	0	0	0.0	0	0.0	1	1	1	0
7531	S6	2019	11	10	19	0	0	0	0	0	0	0	0.0	0	0.0	1	1	1	0
7532	S6	2019	11	10	20	0	0	0	0	0	0	0	0.0	0	0.0	1	1	1	0
7533	S6	2019	11	10	21	0	0	0	0	0	0	0	0.0	0	0.0	1	1	1	0
7534	S6	2019	11	10	22	0	0	0	0	0	0	0	0.0	0	0.0	1	1	1	0
7535	S6	2019	11	10	23	0	0	0	0	0	0	0	0.0	0	0.0	1	1	1	0
7536	S6	2019	11	10	24	0	0	0	0	0	0	0	0.0	0	0.0	1	1	1	0
7537	S6	2019	11	11	1	0	0	0	0	0	0	0	0.0	0	0.0	1	1	1	0
7538	S6	2019	11	11	2	0	0	0	0	0	0	0	0.0	0	0.0	1	1	1	0
7539	S6	2019	11	11	3	0	0	0	0	0	0	0	0.0	0	0.0	1	1	1	0
7540	S6	2019	11	11	4	0	0	0	0	0	0	0	0.0	0	0.0	1	1	1	0
7541	S6	2019	11	11	5	0	0	0	0	0	0	0	0.0	0	0.0	1	1	1	0
7542	S6	2019	11	11	6	0	0	0	0	0	0	0	0.0	0	0.0	1	1	1	0
7543	S6	2019	11	11	7	0	0	0	0	0	0	0	0.0	0	0.0	1	1	1	0
7544	S6	2019	11	11	8	6.83861632514418005257539334706962108612060546875	0.288762649946045002469219298291136510670185089111328125	6.93911735007637009431391561520285904407501220703125	6.05877189887196987427842032047919929027557373046875	90.7798242401657944355974905192852020263671875	2.295614041257319826172533794306218624114990234375	2.26666667731478010949786039418540894985198974609375	0.0	71.42011669153970387924346141517162322998046875	0.0	1	1	1	0
7545	S6	2019	11	11	9	36.016646909713699642452411353588104248046875	0.385580023874838972997025621225475333631038665771484375	36.10062857468920327619343879632651805877685546875	6.1308333264456802425002024392597377300262451171875	90.3786112679375008838178473524749279022216796875	2.4399999948011501516020871349610388278961181640625	35.850000071028802040018490515649318695068359375	0.0	1050.173431634899998243781737983226776123046875	0.0	1	1	1	1
7546	S6	2019	11	11	10	79.89312818315289632664644159376621246337890625	16.432202011181200163036919548176229000091552734375	76.01000413894649909707368351519107818603515625	6.59138889577652964391063505900092422962188720703125	88.0547220230101999050020822323858737945556640625	2.681388887100740081592675778665579855442047119140625	82.0833334078391061439106124453246593475341796875	0.0	2549.40487941105993741075508296489715576171875	0.0	1	1	1	1
7547	S6	2019	11	11	11	134.555435138277999840283882804214954376220703125	85.3566275662846010163775645196437835693359375	110.895703866746003996013314463198184967041015625	7.20250002013311974025100425933487713336944580078125	81.45972243414979629960726015269756317138671875	2.867222220781770136710520091583020985126495361328125	127.6166668782619950661683105863630771636962890625	0.0	4538.9665067195901428931392729282379150390625	0.0	1	1	1	1
7548	S6	2019	11	11	12	186.3839906056720110427704639732837677001953125	276.93501687579600911703892052173614501953125	105.4873655954989999372628517448902130126953125	7.4636111074023698819246419589035212993621826171875	75.1574992497761940057898755185306072235107421875	2.796944447855150173154470394365489482879638671875	173.55000041425199697187053970992565155029296875	0.0	5935.4128470023397312615998089313507080078125	0.0	1	1	1	1
7549	S6	2019	11	11	13	182.73875482347199294963502325117588043212890625	251.27348805533500808451208285987377166748046875	110.0703733232279972753531183116137981414794921875	7.3297222004996402944243527599610388278961181640625	73.3822220696342952805935055948793888092041015625	2.34361111323037984988104653893969953060150146484375	344.61666469772598020426812581717967987060546875	0.0	6330.45045435428983182646334171295166015625	0.0	1	1	1	1
7550	S6	2019	11	11	14	225.026263639662005289210355840623378753662109375	440.93130582173597531436826102435588836669921875	117.7090186648890011156254331581294536590576171875	7.39805559714635041501651357975788414478302001953125	71.1436111874049998959890217520296573638916015625	3.06499999910592979546208880492486059665679931640625	427.349999298651027856976725161075592041015625	0.0	7279.6380956967595921014435589313507080078125	0.0	1	1	1	1
7551	S6	2019	11	11	15	114.36126130421899915745598264038562774658203125	151.93787876764901056958478875458240509033203125	88.7037687089707986842768150381743907928466796875	7.001944453186450090242942678742110729217529296875	76.0430555979410058853318332694470882415771484375	3.01416666573947988894133231951855123043060302734375	182.999999572832990679671638645231723785400390625	0.0	3715.3003523747102008201181888580322265625	0.0	1	1	1	1
7552	S6	2019	11	11	16	35.80973625977829755129278055392205715179443359375	20.0501986964709004723772522993385791778564453125	33.438704511854297152240178547799587249755859375	5.96472220288382004582672379910945892333984375	80.96416647169320413013338111340999603271484375	2.051388891289629867742405622266232967376708984375	39.36666697263709835397094138897955417633056640625	0.0	975.856809504329021365265361964702606201171875	0.0	1	1	1	1
7553	S6	2019	11	11	17	6.73112863964504004599120889906771481037139892578125	0.2937803688976490246176354048657231032848358154296875	6.96073004404702988523467865888960659503936767578125	5.731111049652099609375	82.7644446478949049605944310314953327178955078125	2.822222219573120138846888949046842753887176513671875	0.466666681071128019997473757030093111097812652587890625	0.0	21.6321033891289999928631004877388477325439453125	0.0	1	1	1	0
7554	S6	2019	11	11	18	0	0	0	0	0	0	0	0.0	0	0.0	1	1	1	0
7555	S6	2019	11	11	19	0	0	0	0	0	0	0	0.0	0	0.0	1	1	1	0
7556	S6	2019	11	11	20	0	0	0	0	0	0	0	0.0	0	0.0	1	1	1	0
7557	S6	2019	11	11	21	0	0	0	0	0	0	0	0.0	0	0.0	1	1	1	0
7558	S6	2019	11	11	22	0	0	0	0	0	0	0	0.0	0	0.0	1	1	1	0
7559	S6	2019	11	11	23	0	0	0	0	0	0	0	0.0	0	0.0	1	1	1	0
7560	S6	2019	11	11	24	0	0	0	0	0	0	0	0.0	0	0.0	1	1	1	0
7561	S6	2019	11	12	1	0	0	0	0	0	0	0	0.0	0	0.0	1	1	1	0
7562	S6	2019	11	12	2	0	0	0	0	0	0	0	0.0	0	0.0	1	1	1	0
7563	S6	2019	11	12	3	0	0	0	0	0	0	0	0.0	0	0.0	1	1	1	0
7564	S6	2019	11	12	4	0	0	0	0	0	0	0	0.0	0	0.0	1	1	1	0
7565	S6	2019	11	12	5	0	0	0	0	0	0	0	0.0	0	0.0	1	1	1	0
7566	S6	2019	11	12	6	0	0	0	0	0	0	0	0.0	0	0.0	1	1	1	0
7567	S6	2019	11	12	7	0	0	0	0	0	0	0	0.0	0	0.0	1	1	1	0
7568	S6	2019	11	12	8	1.5150471475066200621739653797703795135021209716796875	0.173406387429411001921408796988544054329395294189453125	1.546651380818059973165645715198479592800140380859375	5.54634141921996981494658029987476766109466552734375	84.9731709550065943403751589357852935791015625	3.112195107995010090462528751231729984283447265625	0.050000002374875000821230486280910554341971874237060546875	0.0	2.34374667828284000137273324071429669857025146484375	0.0	1	1	1	0
7569	S6	2019	11	12	9	7.7880312435386702674122716416604816913604736328125	0.274068790726190003592677157939760945737361907958984375	7.9366687674855000977913732640445232391357421875	5.4988372104112404059605978545732796192169189453125	85.4081392214279020436151768080890178680419921875	3.10891473501227011411174316890537738800048828125	5.4333334264811004032935670693404972553253173828125	0.0	200.44910993116599229324492625892162322998046875	0.0	1	1	1	1
7570	S6	2019	11	12	10	16.950614118575998645610525272786617279052734375	0.332380572747852987003369662488694302737712860107421875	17.111960885259801301572224474512040615081787109375	5.7099999745686798036103937192820012569427490234375	84.9633330027262019257250358350574970245361328125	2.6766666645804999546953695244155824184417724609375	15.9833332989363992027165295439772307872772216796875	0.0	476.9829357663790005972259677946567535400390625	0.0	1	1	1	1
7571	S6	2019	11	12	11	132.342662606127987601212225854396820068359375	144.154829939697009422161499969661235809326171875	93.4259081718532939930810243822634220123291015625	6.4002906763276303792054022778756916522979736328125	82.80174472720119638324831612408161163330078125	3.0834302309640602146600940614007413387298583984375	112.1666667362039930821993038989603519439697265625	0.0	4458.2599863409895988297648727893829345703125	0.0	1	1	1	1
7572	S6	2019	11	12	12	160.716800170983987072759191505610942840576171875	161.050554539595992764589027501642704010009765625	115.3046180898000017123194993473589420318603515625	7.38668561994859995678552877507172524929046630859375	76.5402264473458018301244010217487812042236328125	2.956940505727490009491020828136242926120758056640625	127.30000043908700035899528302252292633056640625	0.0	4737.1565024057999835349619388580322265625	0.0	1	1	1	1
7573	S6	2019	11	12	13	49.5617213408151968678794219158589839935302734375	0.328591828420758014228653109967126511037349700927734375	49.602681144078502484262571670114994049072265625	7.39166672229765975288273693877272307872772216796875	76.3744444953070029669106588698923587799072265625	2.7772222262289698591075648437254130840301513671875	43.36666706949470295739956782199442386627197265625	0.0	1271.619931608430078995297662913799285888671875	0.0	1	1	1	1
7574	S6	2019	11	12	14	68.23790009286659596909885294735431671142578125	0.42162234758337302498176768494886346161365509033203125	68.4639279577467050330596975982189178466796875	7.5627777841355996457650689990259706974029541015625	75.9766667683918939246723311953246593475341796875	2.931111104951960033559998919372446835041046142578125	68.48333391050499585617217235267162322998046875	0.0	1964.7366176048899433226324617862701416015625	0.0	1	1	1	1
7575	S6	2019	11	12	15	30.542989900376998235742576071061193943023681640625	0.29012785632577198224879566623712889850139617919921875	30.714105100101800616130276466719806194305419921875	7.70555556350284032163244773983024060726165771484375	73.8305555555555059754624380730092525482177734375	3.123055548800360181616042609675787389278411865234375	24.56666685951250173047810676507651805877685546875	0.0	724.7968007499970326534821651875972747802734375	0.0	1	1	1	1
7576	S6	2019	11	12	16	8.0419551861661897618205330218188464641571044921875	0.269709868468664015761504515467095188796520233154296875	8.1716683211504204109587590210139751434326171875	7.42177654747292958603566148667596280574798583984375	73.45873896645269951477530412375926971435546875	2.99426934268208011502565568662248551845550537109375	5.9666667579828498446659068576991558074951171875	0.0	180.468098089719006793529842980206012725830078125	0.0	1	1	1	1
7577	S6	2019	11	12	17	1.7263458490371699216581191649311222136020660400390625	0.259138381481170021469750963660771958529949188232421875	1.8009235048293998904256341120344586670398712158203125	7.1799999427795402340279906638897955417633056640625	74.6759994506835056427007657475769519805908203125	2.81199998378752979988348670303821563720703125	0.03333333491658330149931543928687460720539093017578125	0.0	2.3852433427236601204413091181777417659759521484375	0.0	1	1	1	0
7578	S6	2019	11	12	18	0	0	0	0	0	0	0	0.0	0	0.0	1	1	1	0
7579	S6	2019	11	12	19	0	0	0	0	0	0	0	0.0	0	0.0	1	1	1	0
7580	S6	2019	11	12	20	0	0	0	0	0	0	0	0.0	0	0.0	1	1	1	0
7581	S6	2019	11	12	21	0	0	0	0	0	0	0	0.0	0	0.0	1	1	1	0
7582	S6	2019	11	12	22	0	0	0	0	0	0	0	0.0	0	0.0	1	1	1	0
7583	S6	2019	11	12	23	0	0	0	0	0	0	0	0.0	0	0.0	1	1	1	0
7584	S6	2019	11	12	24	0	0	0	0	0	0	0	0.0	0	0.0	1	1	1	0
7585	S6	2019	11	13	1	0	0	0	0	0	0	0	0.0	0	0.0	1	1	1	0
7586	S6	2019	11	13	2	0	0	0	0	0	0	0	0.0	0	0.0	1	1	1	0
7587	S6	2019	11	13	3	0	0	0	0	0	0	0	0.0	0	0.0	1	1	1	0
7588	S6	2019	11	13	4	0	0	0	0	0	0	0	0.0	0	0.0	1	1	1	0
7589	S6	2019	11	13	5	0	0	0	0	0	0	0	0.0	0	0.0	1	1	1	0
7590	S6	2019	11	13	6	0	0	0	0	0	0	0	0.0	0	0.0	1	1	1	0
7591	S6	2019	11	13	7	0	0	0	0	0	0	0	0.0	0	0.0	1	1	1	0
7592	S6	2019	11	13	8	7.32570889298345040430149310850538313388824462890625	0.29838780282248900110886324910097755491733551025390625	7.58349125821824987525587857817299664020538330078125	4.48028170894569033322341056191362440586090087890625	88.594364757269204346812330186367034912109375	1.47887324363412009375906563946045935153961181640625	2.4833333659140901517048405366949737071990966796875	0.0	76.0452770395203998532451805658638477325439453125	0.0	1	1	1	0
7593	S6	2019	11	13	9	35.24625330501130093807660159654915332794189453125	9.804895097762340583358309231698513031005859375	34.50697902573470088327667326666414737701416015625	4.84666665395099993673966309870593249797821044921875	87.5816666920978974530953564681112766265869140625	1.6113888829118601098144836214487440884113311767578125	37.58333337803679796707001514732837677001953125	0.0	1160.837794219449961019563488662242889404296875	0.0	1	1	1	1
7594	S6	2019	11	13	10	114.5933836407130002044141292572021484375	150.780078095197012544304016046226024627685546875	85.0147594028048985137502313591539859771728515625	5.4650000254313102487913056393153965473175048828125	86.970000584920200026317615993320941925048828125	1.7224999907116000930074051211704500019550323486328125	94.016666275760002235983847640454769134521484375	0.0	4122.206559280550209223292768001556396484375	0.0	1	1	1	1
7595	S6	2019	11	13	11	210.08207278781401328160427510738372802734375	337.02007080978802378012915141880512237548828125	128.776016277736999882108648307621479034423828125	7.0233332475026397645478937192820012569427490234375	81.860000356038398194868932478129863739013671875	2.679166664514270213004465404083020985126495361328125	145.40000086029300518930540420114994049072265625	0.0	6698.179142673800015472806990146636962890625	0.0	1	1	1	1
7596	S6	2019	11	13	12	174.085675303140988035011105239391326904296875	153.5931193457699919235892593860626220703125	130.590720049540010450073168613016605377197265625	7.253333322207129896241895039565861225128173828125	77.9666665395100011437534703873097896575927734375	2.407222214672299909210551049909554421901702880859375	208.400000880161002214663312770426273345947265625	0.0	5719.8365459839396862662397325038909912109375	0.0	1	1	1	1
7597	S6	2019	11	13	13	196.300477243067007293575443327426910400390625	271.66202185910998423423734493553638458251953125	120.8761068572569996604215702973306179046630859375	7.61142052249323963764027212164364755153656005859375	76.0044569052692935429149656556546688079833984375	3.194428965573850032200198256759904325008392333984375	330.5333338677879737588227726519107818603515625	0.0	6244.264898697540047578513622283935546875	0.0	1	1	1	1
7598	S6	2019	11	13	14	132.560241953531004810429294593632221221923828125	41.62397839228309948111927951686084270477294921875	122.50225279066199846056406386196613311767578125	7.35166672070821025641862433985807001590728759765625	76.7033336639403984236196265555918216705322265625	2.89472221732139001204586747917346656322479248046875	160.083333651224990035188966430723667144775390625	0.0	4086.75820132095986991771496832370758056640625	0.0	1	1	1	1
7599	S6	2019	11	13	15	89.621598158942305190066690556704998016357421875	60.98561876018840166580048389732837677001953125	81.5643395847744017146396799944341182708740234375	7.10999995867411005434632897959090769290924072265625	77.5016665140787068821737193502485752105712890625	2.78722222248712991898855761974118649959564208984375	116.03333428502099877732689492404460906982421875	0.0	2748.83208374182004263275302946567535400390625	0.0	1	1	1	1
7600	S6	2019	11	13	16	47.27690340148070191617080126889050006866455078125	150.93752593783000293115037493407726287841796875	35.1188174857033033049447112716734409332275390625	6.7483333508173597437007629196159541606903076171875	77.1683336893717068960540927946567535400390625	2.767777775890289948534928043955005705356597900390625	96.1500007969635959170773276127874851226806640625	0.0	1520.84046987195006295223720371723175048828125	0.0	1	1	1	1
7601	S6	2019	11	13	17	13.0338790757314999524396625929512083530426025390625	0.297193613435540016087799131128122098743915557861328125	13.3343467712402006242200513952411711215972900390625	6.18571431296212015382707249955274164676666259765625	77.8714305332728002895237295888364315032958984375	2.58571428060530994486043709912337362766265869140625	1.4166666854483300763689612722373567521572113037109375	0.0	59.86473827312389772714595892466604709625244140625	0.0	1	1	1	0
7602	S6	2019	11	13	18	0	0	0	0	0	0	0	0.0	0	0.0	1	1	1	0
7603	S6	2019	11	13	19	0	0	0	0	0	0	0	0.0	0	0.0	1	1	1	0
7604	S6	2019	11	13	20	0	0	0	0	0	0	0	0.0	0	0.0	1	1	1	0
7605	S6	2019	11	13	21	0	0	0	0	0	0	0	0.0	0	0.0	1	1	1	0
7606	S6	2019	11	13	22	0	0	0	0	0	0	0	0.0	0	0.0	1	1	1	0
7607	S6	2019	11	13	23	0	0	0	0	0	0	0	0.0	0	0.0	1	1	1	0
7608	S6	2019	11	13	24	0	0	0	0	0	0	0	0.0	0	0.0	1	1	1	0
7609	S6	2019	11	14	1	0	0	0	0	0	0	0	0.0	0	0.0	1	1	1	0
7610	S6	2019	11	14	2	0	0	0	0	0	0	0	0.0	0	0.0	1	1	1	0
7611	S6	2019	11	14	3	0	0	0	0	0	0	0	0.0	0	0.0	1	1	1	0
7612	S6	2019	11	14	4	0	0	0	0	0	0	0	0.0	0	0.0	1	1	1	0
7613	S6	2019	11	14	5	0	0	0	0	0	0	0	0.0	0	0.0	1	1	1	0
7614	S6	2019	11	14	6	0	0	0	0	0	0	0	0.0	0	0.0	1	1	1	0
7615	S6	2019	11	14	7	0	0	0	0	0	0	0	0.0	0	0.0	1	1	1	0
7616	S6	2019	11	14	8	7.1639743381076304018506561988033354282379150390625	0.2691141714652369731908265748643316328525543212890625	7.31943800052007009782073509995825588703155517578125	6.28333338101703997580216309870593249797821044921875	92.7083320617675070707264239899814128875732421875	1.4263888849980299600161970374756492674350738525390625	2.100000024074689886077749179094098508358001708984375	0.0	68.5319532019397001931793056428432464599609375	0.0	1	1	1	0
7617	S6	2019	11	14	9	24.604559055964099201219141832552850246429443359375	0.466556541745860975378690227444167248904705047607421875	24.8621585263146016586688347160816192626953125	6.23000001907348011087606209912337362766265869140625	93.3949999491373006321737193502485752105712890625	1.8372222224871299633974786047474481165409088134765625	24.08333357113099992830029805190861225128173828125	0.0	695.2831694856280364547274075448513031005859375	0.0	1	1	1	1
7618	S6	2019	11	14	10	61.24209018813230187561202910728752613067626953125	0.46644588150083998723260947372182272374629974365234375	61.6297857496472971661205519922077655792236328125	6.77500001589456957162838079966604709625244140625	92.4749996185302052253973670303821563720703125	1.9386111100514700211761009995825588703155517578125	65.633333567530002028433955274522304534912109375	0.0	1858.4328681230499569210223853588104248046875	0.0	1	1	1	1
7619	S6	2019	11	14	11	122.681525674037999351639882661402225494384765625	53.7140144066973022063393727876245975494384765625	108.296387908849993664262001402676105499267578125	7.6877437341844103713128788513131439685821533203125	88.33649085424730174054275266826152801513671875	1.5849582100479000512649463416892103850841522216796875	117.4166665722920015468844212591648101806640625	0.0	3797.2619394461298725218512117862701416015625	0.0	1	1	1	1
7620	S6	2019	11	14	12	232.47262121445601223967969417572021484375	443.5698670187970265033072791993618011474609375	111.0824456454650004388895467855036258697509765625	8.1821229710925198475024444633163511753082275390625	81.5083798882680952146984054706990718841552734375	2.024581003122480016287454418488778173923492431640625	298.30000214278697967529296875	0.0	7911.10011736552041838876903057098388671875	0.0	1	1	1	1
7621	S6	2019	11	14	13	225.43638690808001001641969196498394012451171875	338.879386793789990406366996467113494873046875	133.304363110247010126840905286371707916259765625	7.823229445276449922630490618757903575897216796875	81.8810192032508012971447897143661975860595703125	2.032577903429440002724959413171745836734771728515625	391.78333257635398467755294404923915863037109375	0.0	7183.048311869310055044479668140411376953125	0.0	1	1	1	1
7622	S6	2019	11	14	14	180.762227482264989930627052672207355499267578125	411.121605982383016453240998089313507080078125	88.8123362647161940230944310314953327178955078125	8.056666676203409593881588079966604709625244140625	79.8233337402343039457264239899814128875732421875	1.499722221576500036377410651766695082187652587890625	398.83333270748397580973687581717967987060546875	0.0	6386.9836161533903577947057783603668212890625	0.0	1	1	1	1
7623	S6	2019	11	14	15	120.93896999359100163928815163671970367431640625	374.9065327591359846337581984698772430419921875	58.4803989516364026712835766375064849853515625	8.4583334445953308744492460391484200954437255859375	76.55166651407870404000277630984783172607421875	0.8555555597775510445757163324742577970027923583984375	271.7333329220609812182374298572540283203125	0.0	4271.065165599169631605036556720733642578125	0.0	1	1	1	1
7624	S6	2019	11	14	16	28.011881515714801338390316232107579708099365234375	54.68728877599860282998633920215070247650146484375	22.68109156158229922084501595236361026763916015625	7.3366666793823203107649533194489777088165283203125	80.6366664886474069362520822323858737945556640625	0.55000000447034802508738948745303787291049957275390625	36.6500005009581997228451655246317386627197265625	0.0	778.010289339968949207104742527008056640625	0.0	1	1	1	1
7625	S6	2019	11	14	17	5.59320867762845974624497102922759950160980224609375	0.14084722233169200134028642423800192773342132568359375	5.83751984203563001329939652350731194019317626953125	6.27058831383200043774195364676415920257568359375	84.147057028377702181387576274573802947998046875	0.6176470658358399479226363837369717657566070556640625	0	0.0	15.073114982806099959589118952862918376922607421875	0.0	1	1	1	0
7626	S6	2019	11	14	18	0	0	0	0	0	0	0	0.0	0	0.0	1	1	1	0
7627	S6	2019	11	14	19	0	0	0	0	0	0	0	0.0	0	0.0	1	1	1	0
7628	S6	2019	11	14	20	0	0	0	0	0	0	0	0.0	0	0.0	1	1	1	0
7629	S6	2019	11	14	21	0	0	0	0	0	0	0	0.0	0	0.0	1	1	1	0
7630	S6	2019	11	14	22	0	0	0	0	0	0	0	0.0	0	0.0	1	1	1	0
7631	S6	2019	11	14	23	0	0	0	0	0	0	0	0.0	0	0.0	1	1	1	0
7632	S6	2019	11	14	24	0	0	0	0	0	0	0	0.0	0	0.0	1	1	1	0
7633	S6	2019	11	15	1	0	0	0	0	0	0	0	0.0	0	0.0	1	1	1	0
7634	S6	2019	11	15	2	0	0	0	0	0	0	0	0.0	0	0.0	1	1	1	0
7635	S6	2019	11	15	3	0	0	0	0	0	0	0	0.0	0	0.0	1	1	1	0
7636	S6	2019	11	15	4	0	0	0	0	0	0	0	0.0	0	0.0	1	1	1	0
7637	S6	2019	11	15	5	0	0	0	0	0	0	0	0.0	0	0.0	1	1	1	0
7638	S6	2019	11	15	6	0	0	0	0	0	0	0	0.0	0	0.0	1	1	1	0
7639	S6	2019	11	15	7	0	0	0	0	0	0	0	0.0	0	0.0	1	1	1	0
7640	S6	2019	11	15	8	3.108163850381969961489403431187383830547332763671875	0.281419004779308978836382948429672978818416595458984375	3.1906847339123398654692209674976766109466552734375	6.0531249493360501645611293497495353221893310546875	83.0890640020370057072796043939888477325439453125	3.05625002132727985326710040681064128875732421875	0.90000002722566796453662618660018779337406158447265625	0.0	20.828168191170899348207967705093324184417724609375	0.0	1	1	1	0
7641	S6	2019	11	15	9	24.52550896273709923889327910728752613067626953125	0.3402674897263440190187111511477269232273101806640625	24.756420699755299352773363352753221988677978515625	6.4766666571299200683142771595157682895660400390625	82.2266670227050013863845379091799259185791015625	3.39277777936723001772634233930148184299468994140625	25.1333334017543990057674818672239780426025390625	0.0	707.4236434884360278374515473842620849609375	0.0	1	1	1	1
7642	S6	2019	11	15	10	51.48124196794289986200965358875691890716552734375	0.43249633850322799499821257995790801942348480224609375	51.8079665713840000762502313591539859771728515625	7.27666665712991989067859321949072182178497314453125	79.143333307901997386579751037061214447021484375	3.933888890677020189201584798865951597690582275390625	53.01666613668209748766457778401672840118408203125	0.0	1508.06580036877994643873535096645355224609375	0.0	1	1	1	1
7643	S6	2019	11	15	11	87.92433535257970333987032063305377960205078125	0.45838160216808299107782431747182272374629974365234375	88.4117516835530068419757299125194549560546875	8.111666750907890133248656638897955417633056640625	76.3316666920978974530953564681112766265869140625	4.43222221285104023280609908397309482097625732421875	81.7833334207534932147609652020037174224853515625	0.0	2332.94897576172979825059883296489715576171875	0.0	1	1	1	1
7644	S6	2019	11	15	12	75.4480979919432996894101961515843868255615234375	0.41138539678520602560496399746625684201717376708984375	75.9579255633884002918421174399554729461669921875	8.6533332983652702097288056393153965473175048828125	75.62333323160800091500277630984783172607421875	4.293055546945989675577948219142854213714599609375	68.2333339005707983915272052399814128875732421875	0.0	1947.16279308001003300887532532215118408203125	0.0	1	1	1	1
7645	S6	2019	11	15	13	52.10262289047239647743481327779591083526611328125	0.3592697815762619928392496149172075092792510986328125	52.44787380430430090427762479521334171295166015625	8.9449998378753594607815102790482342243194580078125	74.9633337656656948411182384006679058074951171875	4.46027778378790973334844238706864416599273681640625	45.600000210106401254961383529007434844970703125	0.0	1308.561909447110110704670660197734832763671875	0.0	1	1	1	1
7646	S6	2019	11	15	14	54.66989419195380150995333679020404815673828125	1.041979466006150101264893237384967505931854248046875	54.68826769193010051139935967512428760528564453125	9.2799999713897705078125	75.4116667429606053474344662390649318695068359375	4.36750000268219995547269718372263014316558837890625	54.96666667362040215039087343029677867889404296875	0.0	1540.75764417647997106541879475116729736328125	0.0	1	1	1	1
7647	S6	2019	11	15	15	37.39940253363710098710726015269756317138671875	0.32398648307555200087648472617729566991329193115234375	37.65052251285970186245322111062705516815185546875	9.3933331012725798103701890795491635799407958984375	77.18499997456859773592441342771053314208984375	5.77083333929379005411419711890630424022674560546875	31.53333324007689952850341796875	0.0	895.4579333464299679690157063305377960205078125	0.0	1	1	1	1
7648	S6	2019	11	15	16	8.871592114398200834557428606785833835601806640625	0.28513252394290200530946322032832540571689605712890625	8.99919583895339059154139249585568904876708984375	9.0718475297049696592921463889069855213165283203125	78.6278590316996002229643636383116245269775390625	5.7932551256722302213120201486162841320037841796875	6.00000014528631009369519233587197959423065185546875	0.0	174.53504381701299053020193241536617279052734375	0.0	1	1	1	1
7649	S6	2019	11	15	17	0	0	0	0	0	0	0	0.0	0	0.0	1	1	1	0
7650	S6	2019	11	15	18	0	0	0	0	0	0	0	0.0	0	0.0	1	1	1	0
7651	S6	2019	11	15	19	0	0	0	0	0	0	0	0.0	0	0.0	1	1	1	0
7652	S6	2019	11	15	20	0	0	0	0	0	0	0	0.0	0	0.0	1	1	1	0
7653	S6	2019	11	15	21	0	0	0	0	0	0	0	0.0	0	0.0	1	1	1	0
7654	S6	2019	11	15	22	0	0	0	0	0	0	0	0.0	0	0.0	1	1	1	0
7655	S6	2019	11	15	23	0	0	0	0	0	0	0	0.0	0	0.0	1	1	1	0
7656	S6	2019	11	15	24	0	0	0	0	0	0	0	0.0	0	0.0	1	1	1	0
7657	S6	2019	11	16	1	0	0	0	0	0	0	0	0.0	0	0.0	1	1	1	0
7658	S6	2019	11	16	2	0	0	0	0	0	0	0	0.0	0	0.0	1	1	1	0
7659	S6	2019	11	16	3	0	0	0	0	0	0	0	0.0	0	0.0	1	1	1	0
7660	S6	2019	11	16	4	0	0	0	0	0	0	0	0.0	0	0.0	1	1	1	0
7661	S6	2019	11	16	5	0	0	0	0	0	0	0	0.0	0	0.0	1	1	1	0
7662	S6	2019	11	16	6	0	0	0	0	0	0	0	0.0	0	0.0	1	1	1	0
7663	S6	2019	11	16	7	0	0	0	0	0	0	0	0.0	0	0.0	1	1	1	0
7664	S6	2019	11	16	8	0.0111967539414762999594454839780155452899634838104248046875	0.252675712108612005035723768742172978818416595458984375	0.0022989688441156998395531463330598853644914925098419189453125	8.899999618530269884786321199499070644378662109375	98.199996948242102234871708787977695465087890625	2.700000047683710047152771949185989797115325927734375	0	0.0	0	0.0	1	1	1	0
7665	S6	2019	11	16	9	1.844644385663209984471677671535871922969818115234375	0.26362556059277697517728711318341083824634552001953125	1.826036188995300069137783793848939239978790283203125	8.7832807155813696908808196894824504852294921875	98.3353327320952956824839930050075054168701171875	2.4873816967010498046875	1.51666668437731999574680230580270290374755859375	0.0	39.42803151439880338102739187888801097869873046875	0.0	1	1	1	1
7666	S6	2019	11	16	10	6.2365630845228796630408396595157682895660400390625	0.28244338888261000253265819992520846426486968994140625	6.24823052353329000396797709981910884380340576171875	8.73500002225240024245067615993320941925048828125	98.5283329010008941395426518283784389495849609375	2.559444439576730179197738834773190319538116455078125	4.83333341932544957586515010916627943515777587890625	0.0	141.92343673203100706814439035952091217041015625	0.0	1	1	1	1
7667	S6	2019	11	16	11	7.3510118888484097254831794998608529567718505859375	0.298461422324179992404680206163902767002582550048828125	7.39210496412383033515425267978571355342864990234375	8.814999930063880384523145039565861225128173828125	98.604998270670506599344662390649318695068359375	2.544166662626790031964674199116416275501251220703125	6.53333335261169967367322897189296782016754150390625	0.0	199.848649619767996910013607703149318695068359375	0.0	1	1	1	1
7668	S6	2019	11	16	12	10.445062556531599540221577626653015613555908203125	0.2956711067093740208377994349575601518154144287109375	10.4608267784117998644433100707828998565673828125	8.873333263397210401990378159098327159881591796875	98.6599978129068944099344662390649318695068359375	2.519166663951339923954719779430888593196868896484375	9.30000012740494952367953374050557613372802734375	0.0	278.21170060584898919842089526355266571044921875	0.0	1	1	1	1
7669	S6	2019	11	16	13	10.5160230014058999614690037560649216175079345703125	0.287602626159786989301636594973388127982616424560546875	10.5483105871412004006515417131595313549041748046875	9.020000076293939628158113919198513031005859375	98.719998931884703097239253111183643341064453125	2.46388888143829998256251201382838189601898193359375	10.0333334101984004149699103436432778835296630859375	0.0	293.204698711633000129950232803821563720703125	0.0	1	1	1	1
7670	S6	2019	11	16	14	22.328621986177200398060449515469372272491455078125	0.3157694256554040013185158386477269232273101806640625	22.394886204931399475981379509903490543365478515625	9.1783333778381308576399533194489777088165283203125	98.78833478291829806039459072053432464599609375	2.168611108014979915736830662353895604610443115234375	19.750000148390700616118920152075588703155517578125	0.0	586.867540578047965027508325874805450439453125	0.0	1	1	1	1
7671	S6	2019	11	16	15	12.7095014386705997821991331875324249267578125	0.28616987880733202320726604739320464432239532470703125	12.7441568957433997155703764292411506175994873046875	9.0250000476837097806992460391484200954437255859375	98.766667175292894853555480949580669403076171875	1.957222216079629983909171642153523862361907958984375	10.2499999726812003331133382744155824184417724609375	0.0	307.13854115456200588596402667462825775146484375	0.0	1	1	1	1
7672	S6	2019	11	16	16	4.18296833045711036191960374708287417888641357421875	0.258614992624834005852108020917512476444244384765625	4.18456598516587963132451477576978504657745361328125	8.8198142420765694993178840377368032932281494140625	98.7374616687881001553250825963914394378662109375	2.1569659386994999294984154403209686279296875	2.2833334126820101772636917303316295146942138671875	0.0	62.0398035156539009449261357076466083526611328125	0.0	1	1	1	1
7673	S6	2019	11	16	17	0	0	0	0	0	0	0	0.0	0	0.0	1	1	1	0
7674	S6	2019	11	16	18	0	0	0	0	0	0	0	0.0	0	0.0	1	1	1	0
7675	S6	2019	11	16	19	0	0	0	0	0	0	0	0.0	0	0.0	1	1	1	0
7676	S6	2019	11	16	20	0	0	0	0	0	0	0	0.0	0	0.0	1	1	1	0
7677	S6	2019	11	16	21	0	0	0	0	0	0	0	0.0	0	0.0	1	1	1	0
7678	S6	2019	11	16	22	0	0	0	0	0	0	0	0.0	0	0.0	1	1	1	0
7679	S6	2019	11	16	23	0	0	0	0	0	0	0	0.0	0	0.0	1	1	1	0
7680	S6	2019	11	16	24	0	0	0	0	0	0	0	0.0	0	0.0	1	1	1	0
7681	S6	2019	11	17	1	0	0	0	0	0	0	0	0.0	0	0.0	1	1	1	0
7682	S6	2019	11	17	2	0	0	0	0	0	0	0	0.0	0	0.0	1	1	1	0
7683	S6	2019	11	17	3	0	0	0	0	0	0	0	0.0	0	0.0	1	1	1	0
7684	S6	2019	11	17	4	0	0	0	0	0	0	0	0.0	0	0.0	1	1	1	0
7685	S6	2019	11	17	5	0	0	0	0	0	0	0	0.0	0	0.0	1	1	1	0
7686	S6	2019	11	17	6	0	0	0	0	0	0	0	0.0	0	0.0	1	1	1	0
7687	S6	2019	11	17	7	0	0	0	0	0	0	0	0.0	0	0.0	1	1	1	0
7688	S6	2019	11	17	8	6.65394695281981984891217507538385689258575439453125	0.5279481899738309724767759689711965620517730712890625	6.90441787719726018934807143523357808589935302734375	4.73999996185302041595832633902318775653839111328125	88.731999816894500554553815163671970367431640625	1.62399999618529999878546732361428439617156982421875	0.65000001729155798546599953624536283314228057861328125	0.0	40.1553017863381995766758336685597896575927734375	0.0	1	1	1	0
7689	S6	2019	11	17	9	35.04771752622389868747632135637104511260986328125	62.36676174865819888282203464768826961517333984375	29.108171659045698476120378472842276096343994140625	4.56416668097177957719168261974118649959564208984375	89.981666247049901130594662390649318695068359375	1.9408333314789600887451115340809337794780731201171875	31.366666670267800753890696796588599681854248046875	0.0	1100.800911585489984645391814410686492919921875	0.0	1	1	1	1
7690	S6	2019	11	17	10	82.2795710563658957426014239899814128875732421875	134.7636658562549882844905368983745574951171875	59.557662306891501202699146233499050140380859375	4.873333382606499952771628159098327159881591796875	88.1433332443236992048696265555918216705322265625	2.048888882497939878390980084077455103397369384765625	64.1166667143503019588024471886456012725830078125	0.0	2812.90701627731004919041879475116729736328125	0.0	1	1	1	1
7691	S6	2019	11	17	11	87.6168802897135066132250358350574970245361328125	30.165159826808501719597188639454543590545654296875	79.899016231960700906711281277239322662353515625	4.94500003655751019238095977925695478916168212890625	86.3366673787433995812534703873097896575927734375	1.4094444452888399421652820819872431457042694091796875	97.4333334714172991652958444319665431976318359375	0.0	2944.126740594700095243752002716064453125	0.0	1	1	1	1
7692	S6	2019	11	17	12	123.2533718321050031363483867608010768890380859375	6.659727803203789875396978459320962429046630859375	121.4753127415969942148876725696027278900146484375	5.71583336591719959329793709912337362766265869140625	85.0066664377848013600669219158589839935302734375	1.86555555015802010387915288447402417659759521484375	133.78333561122400396925513632595539093017578125	0.0	3781.3008576631500545772723853588104248046875	0.0	1	1	1	1
7693	S6	2019	11	17	13	124.918519613477002394574810750782489776611328125	8.7446370111571400940420062397606670856475830078125	122.392645242479005673885694704949855804443359375	6.13999998172123984119252781965769827365875244140625	86.728333409627197170266299508512020111083984375	2.08638888299465019571243828977458178997039794921875	141.7500014106429944149567745625972747802734375	0.0	3876.047228773430106230080127716064453125	0.0	1	1	1	1
7694	S6	2019	11	17	14	123.5046947055389949809978133998811244964599609375	31.90851976010529966742979013361036777496337890625	116.4209565480550025995398755185306072235107421875	6.5908333222071302515132629196159541606903076171875	86.3158330917357972111858543939888477325439453125	2.338888882762849785734715624130330979824066162109375	159.48333417375800991067080758512020111083984375	0.0	3983.58919918537003468372859060764312744140625	0.0	1	1	1	1
7695	S6	2019	11	17	15	79.7915674739412992266807123087346553802490234375	21.4219239951006983346815104596316814422607421875	76.0953309694925934536513523198664188385009765625	6.78333328962326032041119105997495353221893310546875	83.368333371480304094802704639732837677001953125	0.94888889094193695772361252238624729216098785400390625	95.05000077188009299788973294198513031005859375	0.0	2386.7145816484999159001745283603668212890625	0.0	1	1	1	1
7696	S6	2019	11	17	16	15.911855630531899663537842570804059505462646484375	0.26344445544088601618426537243067286908626556396484375	16.128820165902499894627908361144363880157470703125	6.5311376948556496557785067125223577022552490234375	85.67335274976170467198244296014308929443359375	0.83263473150259004196271916953264735639095306396484375	8.8333333706638494930984961683861911296844482421875	0.0	301.88295802411897739148116670548915863037109375	0.0	1	1	1	1
7697	S6	2019	11	17	17	0	0	0	0	0	0	0	0.0	0.2251733404894659951178681467354181222617626190185546875	0.0	1	1	1	0
7698	S6	2019	11	17	18	0	0	0	0	0	0	0	0.0	0	0.0	1	1	1	0
7699	S6	2019	11	17	19	0	0	0	0	0	0	0	0.0	0	0.0	1	1	1	0
7700	S6	2019	11	17	20	0	0	0	0	0	0	0	0.0	0	0.0	1	1	1	0
7701	S6	2019	11	17	21	0	0	0	0	0	0	0	0.0	0	0.0	1	1	1	0
7702	S6	2019	11	17	22	0	0	0	0	0	0	0	0.0	0	0.0	1	1	1	0
7703	S6	2019	11	17	23	0	0	0	0	0	0	0	0.0	0	0.0	1	1	1	0
7704	S6	2019	11	17	24	0	0	0	0	0	0	0	0.0	0	0.0	1	1	1	0
7705	S6	2019	11	18	1	0	0	0	0	0	0	0	0.0	0	0.0	1	1	1	0
7706	S6	2019	11	18	2	0	0	0	0	0	0	0	0.0	0	0.0	1	1	1	0
7707	S6	2019	11	18	3	0	0	0	0	0	0	0	0.0	0	0.0	1	1	1	0
7708	S6	2019	11	18	4	0	0	0	0	0	0	0	0.0	0	0.0	1	1	1	0
7709	S6	2019	11	18	5	0	0	0	0	0	0	0	0.0	0	0.0	1	1	1	0
7710	S6	2019	11	18	6	0	0	0	0	0	0	0	0.0	0	0.0	1	1	1	0
7711	S6	2019	11	18	7	0	0	0	0	0	0	0	0.0	0	0.0	1	1	1	0
7712	S6	2019	11	18	8	0.59529762864112800713201067992486059665679931640625	0.31382592022418898114466401239042170345783233642578125	0.60615053176879796215104079237789846956729888916015625	9.8899996757507295797040569595992565155029296875	91.09999847412109375	4.1599999666213900439970529987476766109466552734375	0	0.0	0	0.0	1	1	1	0
7713	S6	2019	11	18	9	6.3589029832817995924187925993464887142181396484375	0.289921524838125999057325543617480434477329254150390625	6.40593506430071979451668084948323667049407958984375	9.8520113764138006473558561992831528186798095703125	90.7798855003268982954978127963840961456298828125	2.9155172375084301705783218494616448879241943359375	5.500000096314270336961271823383867740631103515625	0.0	156.4209604170169995995820499956607818603515625	0.0	1	1	1	1
7714	S6	2019	11	18	10	29.62303362952329877089141518808901309967041015625	0.355374481363428973423879142501391470432281494140625	29.76506543424390116570066311396658420562744140625	9.84611109362707992431751335971057415008544921875	90.0136110941569000942763523198664188385009765625	3.299999999834430042255917214788496494293212890625	29.10000005116059895726721151731908321380615234375	0.0	836.3061521202320136580965481698513031005859375	0.0	1	1	1	1
7715	S6	2019	11	18	11	57.89136657714840339394868351519107818603515625	0.38821084880166500941101048738346435129642486572265625	58.1588348812527016207241103984415531158447265625	10.287500058279999137766935746185481548309326171875	88.37555588616260138223879039287567138671875	3.728611109985239924213828999199904501438140869140625	52.51666717231270098409368074499070644378662109375	0.0	1525.98529458046004947391338646411895751953125	0.0	1	1	1	1
7716	S6	2019	11	18	12	57.771797641118297406137571670114994049072265625	0.353548860301574008335734333741129375994205474853515625	58.05447809431279893033206462860107421875	10.343055484029900270570578868500888347625732421875	87.6933334350585056427007657475769519805908203125	4.08194443583488020266258899937383830547332763671875	50.766666885465298264534794725477695465087890625	0.0	1437.610866626100005305488593876361846923828125	0.0	1	1	1	1
7717	S6	2019	11	18	13	50.7983977211845996180272777564823627471923828125	0.365137769281863977521851438723388127982616424560546875	51.014732805887803124278434552252292633056640625	10.365277579095600657410614076070487499237060546875	87.381666543748593767304555512964725494384765625	3.851666663255949973887481974088586866855621337890625	47.25000017012150266282333177514374256134033203125	0.0	1373.346510777869980302057228982448577880859375	0.0	1	1	1	1
7718	S6	2019	11	18	14	50.036125908957501451368443667888641357421875	0.3380923083672919826625502537353895604610443115234375	50.25997449556980001261763391084969043731689453125	10.383055398199200425324306706897914409637451171875	87.031944719950303124278434552252292633056640625	3.80277777363856017700527445413172245025634765625	41.2999999088545024505947367288172245025634765625	0.0	1217.326074838629892838071100413799285888671875	0.0	1	1	1	1
7719	S6	2019	11	18	15	16.612051971753398760256459354422986507415771484375	0.317988899391557999773993969938601367175579071044921875	16.719809937477098316094270558096468448638916015625	10.146111257870899180488777346909046173095703125	87.8063893212212036587516195140779018402099609375	3.539444441927800166780571089475415647029876708984375	13.4666668251156007585223051137290894985198974609375	0.0	412.68811412155497464482323266565799713134765625	0.0	1	1	1	1
7720	S6	2019	11	18	16	5.035300669233880199726627324707806110382080078125	0.30063083697380699188528296872391365468502044677734375	5.09746479518029982358484630822204053401947021484375	10.0264985478638006810570004745386540889739990234375	88.1940059481358957782504148781299591064453125	3.59495267732661982762465413543395698070526123046875	2.5500000590303297798300263821147382259368896484375	0.0	69.506921510522403195864171721041202545166015625	0.0	1	1	1	1
7721	S6	2019	11	18	17	0	0	0	0	0	0	0	0.0	0	0.0	1	1	1	0
7722	S6	2019	11	18	18	0	0	0	0	0	0	0	0.0	0	0.0	1	1	1	0
7723	S6	2019	11	18	19	0	0	0	0	0	0	0	0.0	0	0.0	1	1	1	0
7724	S6	2019	11	18	20	0	0	0	0	0	0	0	0.0	0	0.0	1	1	1	0
7725	S6	2019	11	18	21	0	0	0	0	0	0	0	0.0	0	0.0	1	1	1	0
7726	S6	2019	11	18	22	0	0	0	0	0	0	0	0.0	0	0.0	1	1	1	0
7727	S6	2019	11	18	23	0	0	0	0	0	0	0	0.0	0	0.0	1	1	1	0
7728	S6	2019	11	18	24	0	0	0	0	0	0	0	0.0	0	0.0	1	1	1	0
7729	S6	2019	11	19	1	0	0	0	0	0	0	0	0.0	0	0.0	1	1	1	0
7730	S6	2019	11	19	2	0	0	0	0	0	0	0	0.0	0	0.0	1	1	1	0
7731	S6	2019	11	19	3	0	0	0	0	0	0	0	0.0	0	0.0	1	1	1	0
7732	S6	2019	11	19	4	0	0	0	0	0	0	0	0.0	0	0.0	1	1	1	0
7733	S6	2019	11	19	5	0	0	0	0	0	0	0	0.0	0	0.0	1	1	1	0
7734	S6	2019	11	19	6	0	0	0	0	0	0	0	0.0	0	0.0	1	1	1	0
7735	S6	2019	11	19	7	0	0	0	0	0	0	0	0.0	0	0.0	1	1	1	0
7736	S6	2019	11	19	8	0.88971139490604400634765625	0.275219459831713975095368596157641150057315826416015625	0.8003835767507549991961468549561686813831329345703125	6.4000000953674298642681605997495353221893310546875	82.45999908447259940658113919198513031005859375	3.234999972581860117060159609536640346050262451171875	0	0.0	0	0.0	1	1	1	0
7737	S6	2019	11	19	9	2.97359129827998014405920912395231425762176513671875	0.264347029222087026578691393297049216926097869873046875	2.959549280594309994540935804252512753009796142578125	6.3359332589385903844458880485035479068756103515625	81.2713090051847046879629488103091716766357421875	2.5732590466488698410785218584351241588592529296875	2.016666727528610092434746547951363027095794677734375	0.0	61.38715831718099735780924675054848194122314453125	0.0	1	1	1	1
7738	S6	2019	11	19	10	12.4755929893916999162684078328311443328857421875	0.291008069448999984185633138622506521642208099365234375	12.5996536413827993072800381924025714397430419921875	6.1483332951863598481168082798831164836883544921875	83.1433333502875058229619753547012805938720703125	2.309999994519679855642380061908625066280364990234375	11.0500000572453007663398238946683704853057861328125	0.0	326.8484934543570261666900478303432464599609375	0.0	1	1	1	1
7739	S6	2019	11	19	11	48.54496487246610314514327910728752613067626953125	0.406404599257640997134188864947645924985408782958984375	48.7662796179453010836368775926530361175537109375	6.291666661368470414572584559209644794464111328125	83.7988888210719977678309078328311443328857421875	1.50083332873052999190122136496938765048980712890625	48.3666669577360011089695035479962825775146484375	0.0	1396.385765820740061826654709875583648681640625	0.0	1	1	1	1
7740	S6	2019	11	19	12	69.23643202251849970707553438842296600341796875	0.4249340974622299871299446749617345631122589111328125	69.47175290849469320164644159376621246337890625	6.8116667058732698336598332389257848262786865234375	82.7177780999077043588840751908719539642333984375	1.56416666408378990382743722875602543354034423828125	63.86666676650430218842302565462887287139892578125	0.0	1848.23239818215006380341947078704833984375	0.0	1	1	1	1
7741	S6	2019	11	19	13	62.2625488546159004954461124725639820098876953125	0.37367939857972898298754671486676670610904693603515625	62.44655731519060282153077423572540283203125	7.0672222044732802004318727995269000530242919921875	81.1219444062974019971079542301595211029052734375	2.01555555065472002951310059870593249797821044921875	60.86666692669169975715703913010656833648681640625	0.0	1732.56092170873989743995480239391326904296875	0.0	1	1	1	1
7742	S6	2019	11	19	14	48.88268022007409996376736671663820743560791015625	0.326563692258463988959960033753304742276668548583984375	49.127278661727899589095613919198513031005859375	7.11722215149136960832265685894526541233062744140625	81.096666887071393148289644159376621246337890625	1.64222221995393002913488089689053595066070556640625	42.36666662618510059701293357647955417633056640625	0.0	1226.130001743629918564693070948123931884765625	0.0	1	1	1	1
7743	S6	2019	11	19	15	21.496526892557898946733985212631523609161376953125	0.255928249199321999896028501098044216632843017578125	21.6527081633036004859604872763156890869140625	7.08967545602173032648352091200649738311767578125	86.807669445476705050168675370514392852783203125	1.72241887634833990006200110656209290027618408203125	17.383333342149800415654681273736059665679931640625	0.0	510.33104869226599475950933992862701416015625	0.0	1	1	1	1
7744	S6	2019	11	19	16	6.53597775399684000063871280872263014316558837890625	0.34136321066568198201451878048828803002834320068359375	6.68128348787625014892910257913172245025634765625	6.9229166666666603902058341191150248050689697265625	94.490833155314106761579751037061214447021484375	2.10249999562898981508851647959090769290924072265625	4.0333333949092899928245969931595027446746826171875	0.0	107.0761882583610002939167316071689128875732421875	0.0	1	1	1	1
7745	S6	2019	11	19	17	0	0	0	0	0	0	0	0.0	0	0.0	1	1	1	0
7746	S6	2019	11	19	18	0	0	0	0	0	0	0	0.0	0	0.0	1	1	1	0
7747	S6	2019	11	19	19	0	0	0	0	0	0	0	0.0	0	0.0	1	1	1	0
7748	S6	2019	11	19	20	0	0	0	0	0	0	0	0.0	0	0.0	1	1	1	0
7749	S6	2019	11	19	21	0	0	0	0	0	0	0	0.0	0	0.0	1	1	1	0
7750	S6	2019	11	19	22	0	0	0	0	0	0	0	0.0	0	0.0	1	1	1	0
7751	S6	2019	11	19	23	0	0	0	0	0	0	0	0.0	0	0.0	1	1	1	0
7752	S6	2019	11	19	24	0	0	0	0	0	0	0	0.0	0	0.0	1	1	1	0
7753	S6	2019	11	20	1	0	0	0	0	0	0	0	0.0	0	0.0	1	1	1	0
7754	S6	2019	11	20	2	0	0	0	0	0	0	0	0.0	0	0.0	1	1	1	0
7755	S6	2019	11	20	3	0	0	0	0	0	0	0	0.0	0	0.0	1	1	1	0
7756	S6	2019	11	20	4	0	0	0	0	0	0	0	0.0	0	0.0	1	1	1	0
7757	S6	2019	11	20	5	0	0	0	0	0	0	0	0.0	0	0.0	1	1	1	0
7758	S6	2019	11	20	6	0	0	0	0	0	0	0	0.0	0	0.0	1	1	1	0
7759	S6	2019	11	20	7	0	0	0	0	0	0	0	0.0	0	0.0	1	1	1	0
7760	S6	2019	11	20	8	3.41276049613952014993856209912337362766265869140625	0.257972518603007017201633743752609007060527801513671875	3.4772159258524499847453625989146530628204345703125	5.69999980926512961332264239899814128875732421875	92.90000152587890625	0.333333333333332981762708868700428865849971771240234375	0.333333347225563014770699510336271487176418304443359375	0.0	7.81508320166413028573515475727617740631103515625	0.0	1	1	1	0
7761	S6	2019	11	20	9	18.096302735143201090295406174845993518829345703125	0.3207740574247299747412398573942482471466064453125	18.2817381646897985092437011189758777618408203125	5.69333321253458013444515017908997833728790283203125	92.5697220696342952805935055948793888092041015625	0.75611111455493495991930785748991183936595916748046875	17.800000108157600919867036282084882259368896484375	0.0	515.8347967391209749621339142322540283203125	0.0	1	1	1	1
7762	S6	2019	11	20	10	25.05093929502690031085876398719847202301025390625	0.3948239647679849806394258848740719258785247802734375	25.234756162431498438536436879076063632965087890625	6.1908333394262502480387411196716129779815673828125	91.2680562549167007091455161571502685546875	0.844722223612996980790512679959647357463836669921875	22.933333506807599633248173631727695465087890625	0.0	649.6947633723419812667998485267162322998046875	0.0	1	1	1	1
7763	S6	2019	11	20	11	36.10841751628449713962254463694989681243896484375	0.385468021076586009332487492429208941757678985595703125	36.39097592035920314401664654724299907684326171875	7.053055573834310365555211319588124752044677734375	89.7916673660277950830277404747903347015380859375	0.84416666875282897475329946246347390115261077880859375	32.2333334634701031973236240446567535400390625	0.0	944.838194176553997749579139053821563720703125	0.0	1	1	1	1
7764	S6	2019	11	20	12	34.57811619970529903866918175481259822845458984375	0.32196139966448100722118397243320941925048828125	34.821844079759301848753239028155803680419921875	7.18999986648559019641879785922355949878692626953125	90.0208333333333001746723311953246593475341796875	1.163611109306410096309036816819570958614349365234375	29.8833337612448985964874736964702606201171875	0.0	911.3057332734280180375208146870136260986328125	0.0	1	1	1	1
7765	S6	2019	11	20	13	41.16572916242810009634922607801854610443115234375	0.39629467763006598346464670612476766109466552734375	41.33239834043710203559385263361036777496337890625	7.61138891643947967935446285991929471492767333984375	90.2730554156833022716455161571502685546875	1.1008333330353099466236699299770407378673553466796875	39.8666669459392011276577250100672245025634765625	0.0	1145.381332126750066890963353216648101806640625	0.0	1	1	1	1
7766	S6	2019	11	20	14	29.701101384379601455520969466306269168853759765625	0.284454944710887003278543261330923996865749359130859375	29.853030903772800996875957935117185115814208984375	8.0659093016927894126411047182045876979827880859375	88.17443160577249727793969213962554931640625	1.15113636334849989140138859511353075504302978515625	24.13333336201799994569228147156536579132080078125	0.0	738.4656338642040509512298740446567535400390625	0.0	1	1	1	1
7767	S6	2019	11	20	15	16.37113303873270098165448871441185474395751953125	0.27832761920160697943771310747251845896244049072265625	16.481536825497901332937544793821871280670166015625	7.738055552376639667500057839788496494293212890625	91.1474998897976007583565660752356052398681640625	1.6849999930295600503171726813889108598232269287109375	13.0000000974784004625917077646590769290924072265625	0.0	425.1615347961579800539766438305377960205078125	0.0	1	1	1	1
7768	S6	2019	11	20	16	3.6825366047472698483034037053585052490234375	0.28310713746578797245234682122827507555484771728515625	3.72586390152086011084975325502455234527587890625	7.48006537848826980052763246931135654449462890625	93.3562095492493000392641988582909107208251953125	1.9379084873822700618717362885945476591587066650390625	1.6666667206057699246457559638656675815582275390625	0.0	51.55340835141630151383651536889374256134033203125	0.0	1	1	1	1
7769	S6	2019	11	20	17	0	0	0	0	0	0	0	0.0	0	0.0	1	1	1	0
7770	S6	2019	11	20	18	0	0	0	0	0	0	0	0.0	0	0.0	1	1	1	0
7771	S6	2019	11	20	19	0	0	0	0	0	0	0	0.0	0	0.0	1	1	1	0
7772	S6	2019	11	20	20	0	0	0	0	0	0	0	0.0	0	0.0	1	1	1	0
7773	S6	2019	11	20	21	0	0	0	0	0	0	0	0.0	0	0.0	1	1	1	0
7774	S6	2019	11	20	22	0	0	0	0	0	0	0	0.0	0	0.0	1	1	1	0
7775	S6	2019	11	20	23	0	0	0	0	0	0	0	0.0	0	0.0	1	1	1	0
7776	S6	2019	11	20	24	0	0	0	0	0	0	0	0.0	0	0.0	1	1	1	0
7777	S6	2019	11	21	1	0	0	0	0	0	0	0	0.0	0	0.0	1	1	1	0
7778	S6	2019	11	21	2	0	0	0	0	0	0	0	0.0	0	0.0	1	1	1	0
7779	S6	2019	11	21	3	0	0	0	0	0	0	0	0.0	0	0.0	1	1	1	0
7780	S6	2019	11	21	4	0	0	0	0	0	0	0	0.0	0	0.0	1	1	1	0
7781	S6	2019	11	21	5	0	0	0	0	0	0	0	0.0	0	0.0	1	1	1	0
7782	S6	2019	11	21	6	0	0	0	0	0	0	0	0.0	0	0.0	1	1	1	0
7783	S6	2019	11	21	7	0	0	0	0	0	0	0	0.0	0	0.0	1	1	1	0
7784	S6	2019	11	21	8	0	0	0	0	0	0	0	0.0	0	0.0	1	1	1	0
7785	S6	2019	11	21	9	7.5858584916366300632262209546752274036407470703125	0.391293822797303014748848681847448460757732391357421875	7.7985085466319699065707027330063283443450927734375	7.3852234263600298191931869951076805591583251953125	94.5773197449359059874041122384369373321533203125	0.76357388547605598017042893843608908355236053466796875	7.200000109150959559656257624737918376922607421875	0.0	179.430609165379991054578567855060100555419921875	0.0	1	1	1	1
7786	S6	2019	11	21	10	22.406162940131199690085850306786596775054931640625	0.336117364135052998364017184940166771411895751953125	22.667002105712800386072558467276394367218017578125	8.2455555915832494662254248396493494510650634765625	93.8661117129855000484894844703376293182373046875	1.2152777755426000805272224170039407908916473388671875	21.0833334829656990905277780257165431976318359375	0.0	607.88420115908002117066644132137298583984375	0.0	1	1	1	1
7787	S6	2019	11	21	11	25.164135477277898900183572550304234027862548828125	0.326423852394023994438754243674338795244693756103515625	25.362323527865900274491650634445250034332275390625	8.362777593400739561957379919476807117462158203125	96.0172223832872049342768150381743907928466796875	1.133888889518039899684254123712889850139617919921875	22.333333237717400976407589041627943515777587890625	0.0	643.0761758238049878855235874652862548828125	0.0	1	1	1	1
7788	S6	2019	11	21	12	21.723378181457501767681605997495353221893310546875	0.36297451059023499997380213244468905031681060791015625	21.882848381996101494451067992486059665679931640625	8.655555375417069541299497359432280063629150390625	96.7049997541638930442786659114062786102294921875	1.3861111076341698922220757594914175570011138916015625	22.28333347787459928213138482533395290374755859375	0.0	618.0443166444689495619968511164188385009765625	0.0	1	1	1	1
7789	S6	2019	11	21	13	27.35792759789359962496746447868645191192626953125	0.33259110446605399946662373622530139982700347900390625	27.551175657908100191662015276961028575897216796875	9.5522221565246496766121708787977695465087890625	96.9744439866806970940160681493580341339111328125	2.706666661302239873521102708764374256134033203125	23.566666711121701638376180198974907398223876953125	0.0	669.674441839257042374811135232448577880859375	0.0	1	1	1	1
7790	S6	2019	11	21	14	21.18615152570929893727225135080516338348388671875	0.31866767348514601909670318491407670080661773681640625	21.36384586758079962010015151463449001312255859375	9.75833344459532980863514239899814128875732421875	96.069444317287803869476192630827426910400390625	2.988611109223629824782619834877550601959228515625	17.88333317575359870943429996259510517120361328125	0.0	521.014466136690998609992675483226776123046875	0.0	1	1	1	1
7791	S6	2019	11	21	15	11.224882835812000081432415754534304141998291015625	0.3042911940150789806835973649867810308933258056640625	11.36655936108689957109163515269756317138671875	9.7300000667571993062665569595992565155029296875	95.5727778964571967890151427127420902252197265625	2.751111108561349993806288694031536579132080078125	8.433333326441559307795614586211740970611572265625	0.0	253.207970348495990720039117150008678436279296875	0.0	1	1	1	1
7792	S6	2019	11	21	16	5.0710687137419103720503699150867760181427001953125	0.318790013751675982422995048182201571762561798095703125	5.25342818229429031617883083526976406574249267578125	9.7306452720395899547156659536994993686676025390625	94.8919356561475950684325653128325939178466796875	2.57741934637869007929111830890178680419921875	1.0166667033142100518006145648541860282421112060546875	0.0	24.06004687072709913309154217131435871124267578125	0.0	1	1	1	1
7793	S6	2019	11	21	17	0	0	0	0	0	0	0	0.0	0	0.0	1	1	1	0
7794	S6	2019	11	21	18	0	0	0	0	0	0	0	0.0	0	0.0	1	1	1	0
7795	S6	2019	11	21	19	0	0	0	0	0	0	0	0.0	0	0.0	1	1	1	0
7796	S6	2019	11	21	20	0	0	0	0	0	0	0	0.0	0	0.0	1	1	1	0
7797	S6	2019	11	21	21	0	0	0	0	0	0	0	0.0	0	0.0	1	1	1	0
7798	S6	2019	11	21	22	0	0	0	0	0	0	0	0.0	0	0.0	1	1	1	0
7799	S6	2019	11	21	23	0	0	0	0	0	0	0	0.0	0	0.0	1	1	1	0
7800	S6	2019	11	21	24	0	0	0	0	0	0	0	0.0	0	0.0	1	1	1	0
7801	S6	2019	11	22	1	0	0	0	0	0	0	0	0.0	0	0.0	1	1	1	0
7802	S6	2019	11	22	2	0	0	0	0	0	0	0	0.0	0	0.0	1	1	1	0
7803	S6	2019	11	22	3	0	0	0	0	0	0	0	0.0	0	0.0	1	1	1	0
7804	S6	2019	11	22	4	0	0	0	0	0	0	0	0.0	0	0.0	1	1	1	0
7805	S6	2019	11	22	5	0	0	0	0	0	0	0	0.0	0	0.0	1	1	1	0
7806	S6	2019	11	22	6	0	0	0	0	0	0	0	0.0	0	0.0	1	1	1	0
7807	S6	2019	11	22	7	0	0	0	0	0	0	0	0.0	0	0.0	1	1	1	0
7808	S6	2019	11	22	8	0	0	0	0	0	0	0	0.0	0	0.0	1	1	1	0
7809	S6	2019	11	22	9	5.88733066651071990094123975723050534725189208984375	0.30613291443046797279947668357635848224163055419921875	5.9959048089319697538712716777808964252471923828125	8.9401458406100307030328622204251587390899658203125	95.948175973265705351877841167151927947998046875	2.07700729435376985065886401571333408355712890625	4.4333334139082598568393223104067146778106689453125	0.0	109.12982989878599937583203427493572235107421875	0.0	1	1	1	1
7810	S6	2019	11	22	10	10.1792330622673006246259319595992565155029296875	0.30442799404263498619371830500313080847263336181640625	10.3262268238597005876044931937940418720245361328125	9.0905557102627199128619395196437835693359375	96.215000873141804049737402237951755523681640625	2.038888884004609991507095401175320148468017578125	9.133333402375370724257663823664188385009765625	0.0	266.08592799554202201761654578149318695068359375	0.0	1	1	1	1
7811	S6	2019	11	22	11	16.494761975606198944888092228211462497711181640625	0.3199332038147579826414812487200833857059478759765625	16.671664139959499806309395353309810161590576171875	9.1722222805023196912088678800500929355621337890625	96.3572229173447993844092707149684429168701171875	1.803055553055469939494059872231446206569671630859375	14.9000001139937996441631185007281601428985595703125	0.0	428.54451928287602413547574542462825775146484375	0.0	1	1	1	1
7812	S6	2019	11	22	12	19.86730077266690130954884807579219341278076171875	0.33141639286445201406650085118599236011505126953125	20.0703744623396005408721975982189178466796875	9.324444352255920165362113039009273052215576171875	96.018333053588804659739253111183643341064453125	1.528055552641550018933003229903988540172576904296875	18.6333335315188008962650201283395290374755859375	0.0	534.780857587855052770464681088924407958984375	0.0	1	1	1	1
7813	S6	2019	11	22	13	41.6764962514240977498047868721187114715576171875	0.35871854474147102376235807241755537688732147216796875	41.98437379731070251409619231708347797393798828125	9.548888964123189992960760719142854213714599609375	95.7311118231879021323038614355027675628662109375	1.942222216973700010811398897203616797924041748046875	39.98333327472209930419921875	0.0	1164.15884767969009772059507668018341064453125	0.0	1	1	1	1
7814	S6	2019	11	22	14	21.31445267200469828594577847979962825775146484375	0.317448025196789995749924173651379533112049102783203125	21.476170765028999909418416791595518589019775390625	9.580000114440910152779906638897955417633056640625	95.4155554453531067338190041482448577880859375	2.115833331313389908956423823838122189044952392578125	18.066666616747799167796983965672552585601806640625	0.0	527.3706757773940125844092108309268951416015625	0.0	1	1	1	1
7815	S6	2019	11	22	15	16.075046530034800440489561879076063632965087890625	0.3093499577707710113116945649380795657634735107421875	16.21451025936330125887252506799995899200439453125	9.53166672388712044039493775926530361175537109375	95.1999998728434064787506940774619579315185546875	1.8461111058791399575085279138875193893909454345703125	13.033333544929799785450086346827447414398193359375	0.0	380.397948498525011018500663340091705322265625	0.0	1	1	1	1
7816	S6	2019	11	22	16	6.174102979956320069732100819237530231475830078125	0.285853952410537015538238847511820495128631591796875	6.26130842005164023333918521529994904994964599609375	9.4022651937787191656070717726834118366241455078125	95.33462798479689581654383800923824310302734375	1.43883495240149006377805562806315720081329345703125	3.88333338196389998842050772509537637233734130859375	0.0	119.193514871100006757842493243515491485595703125	0.0	1	1	1	1
7817	S6	2019	11	22	17	0	0	0	0	0	0	0	0.0	0	0.0	1	1	1	0
7818	S6	2019	11	22	18	0	0	0	0	0	0	0	0.0	0	0.0	1	1	1	0
7819	S6	2019	11	22	19	0	0	0	0	0	0	0	0.0	0	0.0	1	1	1	0
7820	S6	2019	11	22	20	0	0	0	0	0	0	0	0.0	0	0.0	1	1	1	0
7821	S6	2019	11	22	21	0	0	0	0	0	0	0	0.0	0	0.0	1	1	1	0
7822	S6	2019	11	22	22	0	0	0	0	0	0	0	0.0	0	0.0	1	1	1	0
7823	S6	2019	11	22	23	0	0	0	0	0	0	0	0.0	0	0.0	1	1	1	0
7824	S6	2019	11	22	24	0	0	0	0	0	0	0	0.0	0	0.0	1	1	1	0
7825	S6	2019	11	23	1	0	0	0	0	0	0	0	0.0	0	0.0	1	1	1	0
7826	S6	2019	11	23	2	0	0	0	0	0	0	0	0.0	0	0.0	1	1	1	0
7827	S6	2019	11	23	3	0	0	0	0	0	0	0	0.0	0	0.0	1	1	1	0
7828	S6	2019	11	23	4	0	0	0	0	0	0	0	0.0	0	0.0	1	1	1	0
7829	S6	2019	11	23	5	0	0	0	0	0	0	0	0.0	0	0.0	1	1	1	0
7830	S6	2019	11	23	6	0	0	0	0	0	0	0	0.0	0	0.0	1	1	1	0
7831	S6	2019	11	23	7	0	0	0	0	0	0	0	0.0	0	0.0	1	1	1	0
7832	S6	2019	11	23	8	0	0	0	0	0	0	0	0.0	0	0.0	1	1	1	0
7833	S6	2019	11	23	9	3.012493697282299986994758000946603715419769287109375	0.27621062995860101718648138557909987866878509521484375	3.04594843781254009940084870322607457637786865234375	7.070093391097589829996650223620235919952392578125	94.192523659203999386591021902859210968017578125	3.438317753629890116684464373975060880184173583984375	2.066666700799640210561847197823226451873779296875	0.0	53.9262549641232027397563797421753406524658203125	0.0	1	1	1	1
7834	S6	2019	11	23	10	8.9135492298338103722699088393710553646087646484375	0.29393684172795797593380484613589942455291748046875	8.9765745984183400452138812397606670856475830078125	7.0288888613382898284953625989146530628204345703125	93.40444399515780560250277630984783172607421875	3.75722221450673021791999417473562061786651611328125	8.0666666229565802126444395980797708034515380859375	0.0	239.390142665554009226980269886553287506103515625	0.0	1	1	1	1
7835	S6	2019	11	23	11	17.432170306311700613832726958207786083221435546875	0.31694600139227102619798870364320464432239532470703125	17.530142301983300257006703759543597698211669921875	7.0527777274449601208061721990816295146942138671875	92.302777565850107066580676473677158355712890625	4.3772222162948697388173968647606670856475830078125	15.633333505441800781454730895347893238067626953125	0.0	456.9284619142609926711884327232837677001953125	0.0	1	1	1	1
7836	S6	2019	11	23	12	22.262070507473399771924960077740252017974853515625	0.324101046265826975290025302456342615187168121337890625	22.373935000101699444030600716359913349151611328125	7.07277770837148000993011009995825588703155517578125	92.2000001695420934311187011189758777618408203125	3.856666662047299798388166891527362167835235595703125	20.883333186308501439043538994155824184417724609375	0.0	611.0696729272609672989347018301486968994140625	0.0	1	1	1	1
7837	S6	2019	11	23	13	34.74400424957269706283113919198513031005859375	0.345067830011248022348269159920164383947849273681640625	34.9168247169917975725184078328311443328857421875	7.2872222953372496334623065195046365261077880859375	90.7255555470784003091466729529201984405517578125	3.430833330998809937995019936352036893367767333984375	31.783333451797499691338089178316295146942138671875	0.0	909.4280665119480318026035092771053314208984375	0.0	1	1	1	1
7838	S6	2019	11	23	14	25.434017483393301262140084872953593730926513671875	0.3181138821774049940671602598740719258785247802734375	25.557261239157700316582122468389570713043212890625	7.3638889789581298828125	90.1233336130778042161182384006679058074951171875	3.464166669547549926022611543885432183742523193359375	22.316666599362999789946115924976766109466552734375	0.0	641.388897225260052437079139053821563720703125	0.0	1	1	1	1
7839	S6	2019	11	23	15	15.7700415054956994964641125989146530628204345703125	0.31080188552538501323141417742590419948101043701171875	15.8825166834725006737016883562318980693817138671875	7.3311112721761002575249221990816295146942138671875	89.8133338928222002550683100707828998565673828125	3.6655555501580199262434689444489777088165283203125	13.2166666133950005956876339041627943515777587890625	0.0	377.42530461400798458271310664713382720947265625	0.0	1	1	1	1
7840	S6	2019	11	23	16	4.989491829150150437044430873356759548187255859375	0.2970162189342600012054163016728125512599945068359375	5.05211057356545012453352683223783969879150390625	7.3253522490111802056844680919311940670013427734375	89.88380351536710577420308254659175872802734375	3.595422525536000168955297340289689600467681884765625	2.500000052774950187739477769355289638042449951171875	0.0	68.3332113005840966479809139855206012725830078125	0.0	1	1	1	1
7841	S6	2019	11	23	17	0	0	0	0	0	0	0	0.0	0	0.0	1	1	1	0
7842	S6	2019	11	23	18	0	0	0	0	0	0	0	0.0	0	0.0	1	1	1	0
7843	S6	2019	11	23	19	0	0	0	0	0	0	0	0.0	0	0.0	1	1	1	0
7844	S6	2019	11	23	20	0	0	0	0	0	0	0	0.0	0	0.0	1	1	1	0
7845	S6	2019	11	23	21	0	0	0	0	0	0	0	0.0	0	0.0	1	1	1	0
7846	S6	2019	11	23	22	0	0	0	0	0	0	0	0.0	0	0.0	1	1	1	0
7847	S6	2019	11	23	23	0	0	0	0	0	0	0	0.0	0	0.0	1	1	1	0
7848	S6	2019	11	23	24	0	0	0	0	0	0	0	0.0	0	0.0	1	1	1	0
7849	S6	2019	11	24	1	0	0	0	0	0	0	0	0.0	0	0.0	1	1	1	0
7850	S6	2019	11	24	2	0	0	0	0	0	0	0	0.0	0	0.0	1	1	1	0
7851	S6	2019	11	24	3	0	0	0	0	0	0	0	0.0	0	0.0	1	1	1	0
7852	S6	2019	11	24	4	0	0	0	0	0	0	0	0.0	0	0.0	1	1	1	0
7853	S6	2019	11	24	5	0	0	0	0	0	0	0	0.0	0	0.0	1	1	1	0
7854	S6	2019	11	24	6	0	0	0	0	0	0	0	0.0	0	0.0	1	1	1	0
7855	S6	2019	11	24	7	0	0	0	0	0	0	0	0.0	0	0.0	1	1	1	0
7856	S6	2019	11	24	8	0	0	0	0	0	0	0.0166666674582915987079534403392244712449610233306884765625	0.0	0	0.0	1	1	1	0
7857	S6	2019	11	24	9	5.36364379721374984200110702659003436565399169921875	0.30319159200012102406418534883414395153522491455078125	5.41897336928447970194611116312444210052490234375	7.10313469788122997528034829883836209774017333984375	85.9931032186764952029989217408001422882080078125	3.708150476871229894726411657757125794887542724609375	4.5500000919370702234800774022005498409271240234375	0.0	121.9685648102310011609006323851644992828369140625	0.0	1	1	1	1
7858	S6	2019	11	24	10	12.1527569956248999716308389906771481037139892578125	0.3207511527256829975129903687047772109508514404296875	12.2330821196238002102063546772114932537078857421875	7.25777782334221033266885569901205599308013916015625	85.539444647894896434081601910293102264404296875	3.76472222208975981772027807892300188541412353515625	11.0333332636704000151439686305820941925048828125	0.0	320.826835992435007938183844089508056640625	0.0	1	1	1	1
7859	S6	2019	11	24	11	21.1340664784112988172637415118515491485595703125	0.3280631668451750027060143111157231032848358154296875	21.231407446331399313521615113131701946258544921875	7.29500017166137038060469421907328069210052490234375	85.011666997273692913950071670114994049072265625	3.887777780327529963955157654709182679653167724609375	18.6333331124236991627185489051043987274169921875	0.0	549.247129509845990469329990446567535400390625	0.0	1	1	1	1
7860	S6	2019	11	24	12	25.2601838906605991041942615993320941925048828125	0.328590513972772002571076654930948279798030853271484375	25.36778271992999833628346095792949199676513671875	7.349444588025409785814190399833023548126220703125	84.993333562215099163950071670114994049072265625	3.576666677329269905527553419233299791812896728515625	22.616666710625001002199496724642813205718994140625	0.0	676.39386492470703160506673157215118408203125	0.0	1	1	1	1
7861	S6	2019	11	24	13	20.38993029859329908504150807857513427734375	0.307481703990034993534408158666337840259075164794921875	20.4875293281343004991867928765714168548583984375	7.3405556360880499511267771595157682895660400390625	85.1755555046928947149353916756808757781982421875	3.673055542591539879282436231733299791812896728515625	17.81666677755610095346128218807280063629150390625	0.0	522.654397909838962732465006411075592041015625	0.0	1	1	1	1
7862	S6	2019	11	24	14	17.232858448558300068498283508233726024627685546875	0.302845153916212972422528082461212761700153350830078125	17.335190730624699284589951275847852230072021484375	7.1344443347718904391285832389257848262786865234375	85.5388894822861942657254985533654689788818359375	4.00333334190977030431213279371149837970733642578125	15.0666665285824006303982969257049262523651123046875	0.0	445.124367748697977731353603303432464599609375	0.0	1	1	1	1
7863	S6	2019	11	24	15	9.3729450398021203483267527190037071704864501953125	0.316897433747847012686094103628420270979404449462890625	9.4447834610939001009910498396493494510650634765625	7.15888879034253999833481429959647357463836669921875	85.4322229173448022265802137553691864013671875	3.662222223811669952198144528665579855442047119140625	7.21666673974443018124702575732953846454620361328125	0.0	212.8902955601610074154450558125972747802734375	0.0	1	1	1	1
7864	S6	2019	11	24	16	2.124713919067799938744656174094416201114654541015625	0.286725832693344007129354622520622797310352325439453125	2.1509406847500098791670097853057086467742919921875	7.1663716155870798019122958066873252391815185546875	86.558406897350693043335922993719577789306640625	2.796460175936199998858455728623084723949432373046875	0.533333356725055995894990701344795525074005126953125	0.0	15.872508314593400058356564841233193874359130859375	0.0	1	1	1	1
7865	S6	2019	11	24	17	0	0	0	0	0	0	0	0.0	0	0.0	1	1	1	0
7866	S6	2019	11	24	18	0	0	0	0	0	0	0	0.0	0	0.0	1	1	1	0
7867	S6	2019	11	24	19	0	0	0	0	0	0	0	0.0	0	0.0	1	1	1	0
7868	S6	2019	11	24	20	0	0	0	0	0	0	0	0.0	0	0.0	1	1	1	0
7869	S6	2019	11	24	21	0	0	0	0	0	0	0	0.0	0	0.0	1	1	1	0
7870	S6	2019	11	24	22	0	0	0	0	0	0	0	0.0	0	0.0	1	1	1	0
7871	S6	2019	11	24	23	0	0	0	0	0	0	0	0.0	0	0.0	1	1	1	0
7872	S6	2019	11	24	24	0	0	0	0	0	0	0	0.0	0	0.0	1	1	1	0
7873	S6	2019	11	25	1	0	0	0	0	0	0	0	0.0	0	0.0	1	1	1	0
7874	S6	2019	11	25	2	0	0	0	0	0	0	0	0.0	0	0.0	1	1	1	0
7875	S6	2019	11	25	3	0	0	0	0	0	0	0	0.0	0	0.0	1	1	1	0
7876	S6	2019	11	25	4	0	0	0	0	0	0	0	0.0	0	0.0	1	1	1	0
7877	S6	2019	11	25	5	0	0	0	0	0	0	0	0.0	0	0.0	1	1	1	0
7878	S6	2019	11	25	6	0	0	0	0	0	0	0	0.0	0	0.0	1	1	1	0
7879	S6	2019	11	25	7	0	0	0	0	0	0	0	0.0	0	0.0	1	1	1	0
7880	S6	2019	11	25	8	0	0	0	0	0	0	0	0.0	0	0.0	1	1	1	0
7881	S6	2019	11	25	9	2.34445314539278992782556088059209287166595458984375	0.289846882871958977379023281173431314527988433837890625	2.385155188000720016816558199934661388397216796875	6.67984173703098971230929237208329141139984130859375	89.883005375918600066142971627414226531982421875	3.197233198895280015250364158418960869312286376953125	1.316666725324469933156024126219563186168670654296875	0.0	30.09837856516229948056206922046840190887451171875	0.0	1	1	1	1
7882	S6	2019	11	25	10	6.08537072473102025327307273983024060726165771484375	0.29760009658833297407909412868320941925048828125	6.1473528504371603986555783194489777088165283203125	6.70472216076321014810446285991929471492767333984375	89.8174997541639044129624380730092525482177734375	3.096944444874920154830988394678570330142974853515625	5.11666680686175023851092191762290894985198974609375	0.0	161.364385113119993775399052537977695465087890625	0.0	1	1	1	1
7883	S6	2019	11	25	11	13.12532028092270053321044542826712131500244140625	0.310884405879509995163090252390247769653797149658203125	13.2128856049643008674365773913450539112091064453125	6.79972230990726966837200961890630424022674560546875	89.6641668319702063172371708787977695465087890625	3.052222216377650010343813846702687442302703857421875	11.950000235811000237617918173782527446746826171875	0.0	358.27056982865002510152407921850681304931640625	0.0	1	1	1	1
7884	S6	2019	11	25	12	21.166170287132199945290267351083457469940185546875	0.308743891740837994586144077402423135936260223388671875	21.2735208325915010618700762279331684112548828125	6.90333340962726982326103097875602543354034423828125	89.3630566279093017101331497542560100555419921875	3.13861111005147019881178493960760533809661865234375	19.13333338064450117599335499107837677001953125	0.0	576.9740775227550102499662898480892181396484375	0.0	1	1	1	1
7885	S6	2019	11	25	13	20.774363634321399985083189676515758037567138671875	0.30226847318311500512066913870512507855892181396484375	20.87873582310140108120322111062705516815185546875	6.91166674296060978832656473969109356403350830078125	89.37000058492020571065950207412242889404296875	3.0283333304855499790164685691706836223602294921875	18.449999950826100558742837165482342243194580078125	0.0	548.2033576816310187496128492057323455810546875	0.0	1	1	1	1
7886	S6	2019	11	25	14	14.22712734010480062352144159376621246337890625	0.2873629188372019971353665823698975145816802978515625	14.298685770564599550880302558653056621551513671875	6.75250001483493011988912257947959005832672119140625	90.223055288526694539541495032608509063720703125	2.942500003261689922595678581274114549160003662109375	11.8333333948004995050951038138009607791900634765625	0.0	355.98177524904298252295120619237422943115234375	0.0	1	1	1	1
7887	S6	2019	11	25	15	7.46429168118369990025939841871149837970733642578125	0.286475041218929027397877007388160564005374908447265625	7.51673313909105988983583301887847483158111572265625	6.5736110409100803053661365993320941925048828125	91.0894455803765055179610499180853366851806640625	2.8430555583702101785092963837087154388427734375	5.4833334793026100584256710135377943515777587890625	0.0	172.469028100992005647640326060354709625244140625	0.0	1	1	1	1
7888	S6	2019	11	25	16	2.219917866613779988682608745875768363475799560546875	0.293386854558137011306229169349535368382930755615234375	2.2522168952906298500238335691392421722412109375	6.47587721598775001297099151997826993465423583984375	91.4894741794519035238408832810819149017333984375	2.83815788438444993602161048329435288906097412109375	0.6833333657899329782736685956479050219058990478515625	0.0	14.9673633393831995164191539515741169452667236328125	0.0	1	1	1	1
7889	S6	2019	11	25	17	0	0	0	0	0	0	0	0.0	0	0.0	1	1	1	0
7890	S6	2019	11	25	18	0	0	0	0	0	0	0	0.0	0	0.0	1	1	1	0
7891	S6	2019	11	25	19	0	0	0	0	0	0	0	0.0	0	0.0	1	1	1	0
7892	S6	2019	11	25	20	0	0	0	0	0	0	0	0.0	0	0.0	1	1	1	0
7893	S6	2019	11	25	21	0	0	0	0	0	0	0	0.0	0	0.0	1	1	1	0
7894	S6	2019	11	25	22	0	0	0	0	0	0	0	0.0	0	0.0	1	1	1	0
7895	S6	2019	11	25	23	0	0	0	0	0	0	0	0.0	0	0.0	1	1	1	0
7896	S6	2019	11	25	24	0	0	0	0	0	0	0	0.0	0	0.0	1	1	1	0
7897	S6	2019	11	26	1	0	0	0	0	0	0	0	0.0	0	0.0	1	1	1	0
7898	S6	2019	11	26	2	0	0	0	0	0	0	0	0.0	0	0.0	1	1	1	0
7899	S6	2019	11	26	3	0	0	0	0	0	0	0	0.0	0	0.0	1	1	1	0
7900	S6	2019	11	26	4	0	0	0	0	0	0	0	0.0	0	0.0	1	1	1	0
7901	S6	2019	11	26	5	0	0	0	0	0	0	0	0.0	0	0.0	1	1	1	0
7902	S6	2019	11	26	6	0	0	0	0	0	0	0	0.0	0	0.0	1	1	1	0
7903	S6	2019	11	26	7	0	0	0	0	0	0	0	0.0	0	0.0	1	1	1	0
7904	S6	2019	11	26	8	0	0	0	0	0	0	0	0.0	0	0.0	1	1	1	0
7905	S6	2019	11	26	9	5.03868550913673995950148309930227696895599365234375	0.28676284796425199896674484989489428699016571044921875	5.10711794639272032014787328080274164676666259765625	7.001785712582719867214109399355947971343994140625	89.3205355576105972659206599928438663482666015625	1.840178566851780050939169086632318794727325439453125	2.916666733411439782486240801517851650714874267578125	0.0	80.952406488359002878496539779007434844970703125	0.0	1	1	1	1
7906	S6	2019	11	26	10	7.92844959232542034754942505969665944576263427734375	0.279483024444844019296141368613461963832378387451171875	8.0196782482994901641859541996382176876068115234375	6.94916669925053032130790597875602543354034423828125	88.0249997456867987466466729529201984405517578125	2.384166667279270068746654942515306174755096435546875	6.21666674657412965387948133866302669048309326171875	0.0	199.05850744495700155312079004943370819091796875	0.0	1	1	1	1
7907	S6	2019	11	26	11	11.922599356704200346257493947632610797882080078125	0.29615775367452001898271873869816772639751434326171875	12.0240272005398995958103114389814436435699462890625	6.7686111185285700031499800388701260089874267578125	86.646666802300302379080676473677158355712890625	2.402499999602630165185246369219385087490081787109375	10.383333452045899747417934122495353221893310546875	0.0	310.69556406388602454171632416546344757080078125	0.0	1	1	1	1
7908	S6	2019	11	26	12	12.531256416108799811581775429658591747283935546875	0.267503080392877012894103927465039305388927459716796875	12.619876641697299390898479032330214977264404296875	6.80722223917643010082656473969109356403350830078125	87.8097224553425945714479894377291202545166015625	2.780555557045670145299709474784322082996368408203125	10.7166667779285997852412037900649011135101318359375	0.0	336.83948361625198231195099651813507080078125	0.0	1	1	1	1
7909	S6	2019	11	26	13	17.82912351290379859847234911285340785980224609375	0.3204586755070419901159084474784322082996368408203125	18.05403664641909955435039591975510120391845703125	6.47472224632898996077301490004174411296844482421875	89.877777290344198490856797434389591217041015625	2.025833331214049959356771068996749818325042724609375	17.2333333330849001185924862511456012725830078125	0.0	525.0645232076429920198279432952404022216796875	0.0	1	1	1	1
7910	S6	2019	11	26	14	26.06247657140090012717337231151759624481201171875	0.314915615568558016068578808699385263025760650634765625	26.403255754046899284048777190037071704864501953125	6.6152777075767499326275355997495353221893310546875	87.56055528852670022388338111340999603271484375	2.498055550290469994934028363786637783050537109375	22.80000005848700084243318997323513031005859375	0.0	671.5806815773239577538333833217620849609375	0.0	1	1	1	1
7911	S6	2019	11	26	15	11.68529545333650077054699067957699298858642578125	0.29059580121603201252611370364320464432239532470703125	11.7898511091868005706828625989146530628204345703125	6.4738888978958097908389390795491635799407958984375	88.3675001780191990974344662390649318695068359375	2.30083332856496003415713857975788414478302001953125	9.250000126970309821672344696708023548126220703125	0.0	275.84779538835101675431360490620136260986328125	0.0	1	1	1	1
7912	S6	2019	11	26	16	2.349739321227210187004175168112851679325103759765625	0.27142245510538798303201701855869032442569732666015625	2.398546977673909896822124210302717983722686767578125	6.33155344759375982022220341605134308338165283203125	89.142232061589794511746731586754322052001953125	1.93058252377996009130356469540856778621673583984375	0.5500000241833460368212627145112492144107818603515625	0.0	16.960234982737599551683160825632512569427490234375	0.0	1	1	1	1
7913	S6	2019	11	26	17	0	0	0	0	0	0	0	0.0	0	0.0	1	1	1	0
7914	S6	2019	11	26	18	0	0	0	0	0	0	0	0.0	0	0.0	1	1	1	0
7915	S6	2019	11	26	19	0	0	0	0	0	0	0	0.0	0	0.0	1	1	1	0
7916	S6	2019	11	26	20	0	0	0	0	0	0	0	0.0	0	0.0	1	1	1	0
7917	S6	2019	11	26	21	0	0	0	0	0	0	0	0.0	0	0.0	1	1	1	0
7918	S6	2019	11	26	22	0	0	0	0	0	0	0	0.0	0	0.0	1	1	1	0
7919	S6	2019	11	26	23	0	0	0	0	0	0	0	0.0	0	0.0	1	1	1	0
7920	S6	2019	11	26	24	0	0	0	0	0	0	0	0.0	0	0.0	1	1	1	0
7921	S6	2019	11	27	1	0	0	0	0	0	0	0	0.0	0	0.0	1	1	1	0
7922	S6	2019	11	27	2	0	0	0	0	0	0	0	0.0	0	0.0	1	1	1	0
7923	S6	2019	11	27	3	0	0	0	0	0	0	0	0.0	0	0.0	1	1	1	0
7924	S6	2019	11	27	4	0	0	0	0	0	0	0	0.0	0	0.0	1	1	1	0
7925	S6	2019	11	27	5	0	0	0	0	0	0	0	0.0	0	0.0	1	1	1	0
7926	S6	2019	11	27	6	0	0	0	0	0	0	0	0.0	0	0.0	1	1	1	0
7927	S6	2019	11	27	7	0	0	0	0	0	0	0	0.0	0	0.0	1	1	1	0
7928	S6	2019	11	27	8	0	0	0	0	0	0	0	0.0	0	0.0	1	1	1	0
7929	S6	2019	11	27	9	3.436790557122530120892633931362070143222808837890625	0.295805549416929991490832208000938408076763153076171875	3.547760105184210033257841132581233978271484375	8.4429183436054007216853278805501759052276611328125	95.142058998729993390952586196362972259521484375	1.924463521641210039803127074264921247959136962890625	2.11666674586011982484023974393494427204132080078125	0.0	53.61394812352949656997225247323513031005859375	0.0	1	1	1	1
7930	S6	2019	11	27	10	8.5410874552196904829770573996938765048980712890625	0.33209107882446697868061846747878007590770721435546875	8.683255811532330170621207798831164836883544921875	8.5252778874503203354606739594601094722747802734375	94.3608333587645944362520822323858737945556640625	2.10666665881872017251907891477458178997039794921875	7.61666662680605011104262302978895604610443115234375	0.0	223.698782548308003015335998497903347015380859375	0.0	1	1	1	1
7931	S6	2019	11	27	11	21.172825185457799790356148150749504566192626953125	0.35642989294396498767270031748921610414981842041015625	21.306355953216499443669817992486059665679931640625	8.6833334048588994846795685589313507080078125	92.635555712382000592697295360267162322998046875	2.139444446398150123656023424700833857059478759765625	19.083333294838698890316663892008364200592041015625	0.0	557.512292762595961903571151196956634521484375	0.0	1	1	1	1
7932	S6	2019	11	27	12	30.538226641548998685493643279187381267547607421875	0.337593489678368996464996598660945892333984375	30.7041263262429993119440041482448577880859375	8.9133332411448105148110698792152106761932373046875	92.2091659969753010273052495904266834259033203125	2.3324999944203401724962532171048223972320556640625	27.00000029678130175625483389012515544891357421875	0.0	772.7566865583249864357640035450458526611328125	0.0	1	1	1	1
7933	S6	2019	11	27	13	18.339946511056599121047838707454502582550048828125	0.310560652282502014376319721122854389250278472900390625	18.428306860393899313521615113131701946258544921875	8.837222043673190086110480478964745998382568359375	92.4772219551934000492110499180853366851806640625	2.851111111872719927617936264141462743282318115234375	16.583333474894399017784962779842317104339599609375	0.0	492.15036369860200693437946029007434844970703125	0.0	1	1	1	1
7934	S6	2019	11	27	14	25.00421008635100150740981916896998882293701171875	0.32519002560149401492850529393763281404972076416015625	25.048634815751800175576136098243296146392822265625	8.7137641129868708134154076105915009975433349609375	91.1761235226405943876670789904892444610595703125	2.660674154842160188394473152584396302700042724609375	22.300000193839199624790126108564436435699462890625	0.0	654.1216434290009829055634327232837677001953125	0.0	1	1	1	1
7935	S6	2019	11	27	15	16.375181049770699104328741668723523616790771484375	0.314620233368542001617385039935470558702945709228515625	16.668108759986001388142540236003696918487548828125	8.5502779377831306106827469193376600742340087890625	91.1066661834716029488845379091799259185791015625	2.67499999850987979499450375442393124103546142578125	13.8000002130865997429509661742486059665679931640625	0.0	416.72512770940801374308648519217967987060546875	0.0	1	1	1	1
7936	S6	2019	11	27	16	4.67265667561359965276324146543629467487335205078125	0.265602663745005018736122792688547633588314056396484375	4.81624460845014024101828908897005021572113037109375	8.4611353270351603583776523009873926639556884765625	91.6620082605353019289395888336002826690673828125	3.072052405650949946647187971393577754497528076171875	1.716666711339100093169918181956745684146881103515625	0.0	59.63143960107110075341552146710455417633056640625	0.0	1	1	1	1
7937	S6	2019	11	27	17	0	0	0	0	0	0	0	0.0	0	0.0	1	1	1	0
7938	S6	2019	11	27	18	0	0	0	0	0	0	0	0.0	0	0.0	1	1	1	0
7939	S6	2019	11	27	19	0	0	0	0	0	0	0	0.0	0	0.0	1	1	1	0
7940	S6	2019	11	27	20	0	0	0	0	0	0	0	0.0	0	0.0	1	1	1	0
7941	S6	2019	11	27	21	0	0	0	0	0	0	0	0.0	0	0.0	1	1	1	0
7942	S6	2019	11	27	22	0	0	0	0	0	0	0	0.0	0	0.0	1	1	1	0
7943	S6	2019	11	27	23	0	0	0	0	0	0	0	0.0	0	0.0	1	1	1	0
7944	S6	2019	11	27	24	0	0	0	0	0	0	0	0.0	0	0.0	1	1	1	0
7945	S6	2019	11	28	1	0	0	0	0	0	0	0	0.0	0	0.0	1	1	1	0
7946	S6	2019	11	28	2	0	0	0	0	0	0	0	0.0	0	0.0	1	1	1	0
7947	S6	2019	11	28	3	0	0	0	0	0	0	0	0.0	0	0.0	1	1	1	0
7948	S6	2019	11	28	4	0	0	0	0	0	0	0	0.0	0	0.0	1	1	1	0
7949	S6	2019	11	28	5	0	0	0	0	0	0	0	0.0	0	0.0	1	1	1	0
7950	S6	2019	11	28	6	0	0	0	0	0	0	0	0.0	0	0.0	1	1	1	0
7951	S6	2019	11	28	7	0	0	0	0	0	0	0	0.0	0	0.0	1	1	1	0
7952	S6	2019	11	28	8	0	0	0	0	0	0	0	0.0	0	0.0	1	1	1	0
7953	S6	2019	11	28	9	3.24341496346043012266591176739893853664398193359375	0.300908992804732988712856922575156204402446746826171875	3.23792630504159006932241027243435382843017578125	8.8811763090245801066657804767601191997528076171875	95.2478418387618006590855657123029232025146484375	2.650980385144550144360664489795453846454620361328125	2.183333390469960111346381381736136972904205322265625	0.0	50.06173821166149906503051170147955417633056640625	0.0	1	1	1	1
7954	S6	2019	11	28	10	9.978668008910279496603834559209644794464111328125	0.337635950744151980273954904987476766109466552734375	10.102320232656200715837258030660450458526611328125	9.1852776156531401596794239594601094722747802734375	95.413333553737999181976192630827426910400390625	3.041111103693639794443015489378012716770172119140625	9.5166667674978402402530264225788414478302001953125	0.0	265.0856377246469719466404058039188385009765625	0.0	1	1	1	1
7955	S6	2019	11	28	11	36.936156262291802931940765120089054107666015625	0.35788944293227398230072822116198949515819549560546875	37.42202609115170020004370599053800106048583984375	9.5008331802156202883224977995269000530242919921875	94.2527782228257962060524732805788516998291015625	3.585833335585059788996886709355749189853668212890625	35.38333360726630161252614925615489482879638671875	0.0	999.6703792363420006950036622583866119384765625	0.0	1	1	1	1
7956	S6	2019	11	28	12	41.079977978600396681940765120089054107666015625	0.312641698660121980513082462493912316858768463134765625	41.4378849930233030818271799944341182708740234375	9.57500006357827970759899471886456012725830078125	94.143055661519298382700071670114994049072265625	3.5350000017219098680243405397050082683563232421875	38.73333344236009878613913315348327159881591796875	0.0	1118.046332399050015737884677946567535400390625	0.0	1	1	1	1
7957	S6	2019	11	28	13	40.306310950385096703030285425484180450439453125	0.314634109247060977931909064864157699048519134521484375	40.63876570595630255411379039287567138671875	9.5050000349680505706828625989146530628204345703125	94.9949999491372949478318332694470882415771484375	3.12361111442247985081621663994155824184417724609375	35.0166668184100018379467655904591083526611328125	0.0	1022.8909103820700465803383849561214447021484375	0.0	1	1	1	1
7958	S6	2019	11	28	14	19.295118217997998755208755028434097766876220703125	0.29563887905743302386696313988068141043186187744140625	19.5219548755220984048719401471316814422607421875	9.39999977747599047006588079966604709625244140625	95.0149997711180986925683100707828998565673828125	3.2183333350552398854915736592374742031097412109375	16.750000153357699872458397294394671916961669921875	0.0	481.6073788950840253164642490446567535400390625	0.0	1	1	1	1
7959	S6	2019	11	28	15	14.1834176328446996961929471581242978572845458984375	0.281213072977131994800714664961560629308223724365234375	14.364461382230100383594617596827447414398193359375	9.2099999904632507963242460391484200954437255859375	95.5849988301595061557236476801335811614990234375	3.208333327041729798878577639698050916194915771484375	11.8333333948004995050951038138009607791900634765625	0.0	355.8340435847629805721226148307323455810546875	0.0	1	1	1	1
7960	S6	2019	11	28	16	5.9637630630021103428362039267085492610931396484375	0.290514607095356980348554998272447846829891204833984375	6.11710440510451025630800359067507088184356689453125	9.0752527545196794989124100538901984691619873046875	96.003030256791504370994516648352146148681640625	2.742929281911460126508472967543639242649078369140625	2.40000008489005001166560759884305298328399658203125	0.0	73.24991453594219592559966258704662322998046875	0.0	1	1	1	1
7961	S6	2019	11	28	17	0	0	0	0	0	0	0	0.0	0	0.0	1	1	1	0
7962	S6	2019	11	28	18	0	0	0	0	0	0	0	0.0	0	0.0	1	1	1	0
7963	S6	2019	11	28	19	0	0	0	0	0	0	0	0.0	0	0.0	1	1	1	0
7964	S6	2019	11	28	20	0	0	0	0	0	0	0	0.0	0	0.0	1	1	1	0
7965	S6	2019	11	28	21	0	0	0	0	0	0	0	0.0	0	0.0	1	1	1	0
7966	S6	2019	11	28	22	0	0	0	0	0	0	0	0.0	0	0.0	1	1	1	0
7967	S6	2019	11	28	23	0	0	0	0	0	0	0	0.0	0	0.0	1	1	1	0
7968	S6	2019	11	28	24	0	0	0	0	0	0	0	0.0	0	0.0	1	1	1	0
7969	S6	2019	11	29	1	0	0	0	0	0	0	0	0.0	0	0.0	1	1	1	0
7970	S6	2019	11	29	2	0	0	0	0	0	0	0	0.0	0	0.0	1	1	1	0
7971	S6	2019	11	29	3	0	0	0	0	0	0	0	0.0	0	0.0	1	1	1	0
7972	S6	2019	11	29	4	0	0	0	0	0	0	0	0.0	0	0.0	1	1	1	0
7973	S6	2019	11	29	5	0	0	0	0	0	0	0	0.0	0	0.0	1	1	1	0
7974	S6	2019	11	29	6	0	0	0	0	0	0	0	0.0	0	0.0	1	1	1	0
7975	S6	2019	11	29	7	0	0	0	0	0	0	0	0.0	0	0.0	1	1	1	0
7976	S6	2019	11	29	8	0	0	0	0	0	0	0	0.0	0	0.0	1	1	1	0
7977	S6	2019	11	29	9	29.17676174131209876350112608633935451507568359375	0.274402709948456002830852185070398263633251190185546875	29.34300939445819977891005692072212696075439453125	2.83461539358154990253524374566040933132171630859375	92.07820461957879842884722165763378143310546875	1.38803418706624004386185333714820444583892822265625	20.350000056593298580764894722960889339447021484375	0.0	638.1250578910099875429295934736728668212890625	0.0	1	1	1	1
7978	S6	2019	11	29	10	28.3450547562704997517357696779072284698486328125	0.30627251032920899120881585986353456974029541015625	28.55674935446840123631773167289793491363525390625	2.70666667090520984828572181868366897106170654296875	92.6272222730847971661205519922077655792236328125	2.649999997599250090019040726474486291408538818359375	24.40000013448300109075717045925557613372802734375	0.0	736.503944794337030543829314410686492919921875	0.0	1	1	1	1
7979	S6	2019	11	29	11	27.85630376603860014483871054835617542266845703125	0.353738064965647025506001455141813494265079498291015625	28.0090014351738005871084169484674930572509765625	3.099154901504510117860036189085803925991058349609375	90.703055890401202532302704639732837677001953125	4.2123595404156102262049898854456841945648193359375	27.1166669204829986483673565089702606201171875	0.0	810.33568009734199222293682396411895751953125	0.0	1	1	1	1
7980	S6	2019	11	29	12	55.796028333240002439197269268333911895751953125	0.42939892754786501694042044618981890380382537841796875	56.08242887920800257006703759543597698211669921875	3.84666667779285997852412037900649011135101318359375	83.2783329010008941395426518283784389495849609375	4.92805556688043022717238272889517247676849365234375	58.46666681269800136533376644365489482879638671875	0.0	1674.737590303019942439277656376361846923828125	0.0	1	1	1	1
7981	S6	2019	11	29	13	105.668944252860995902665308676660060882568359375	16.667624382964401519302555243484675884246826171875	101.9194679896030066856837947852909564971923828125	4.138333241144810159539701999165117740631103515625	75.20500030517570166921359486877918243408203125	4.5705555389324796777827941696159541606903076171875	132.183332741259988551973947323858737945556640625	0.0	3447.1429909268999836058355867862701416015625	0.0	1	1	1	1
7982	S6	2019	11	29	14	127.905724589029006210694205947220325469970703125	288.35876531733401861856691539287567138671875	75.8855515797933009025655337609350681304931640625	4.3950000603993704118011009995825588703155517578125	71.87333323160800091500277630984783172607421875	4.20805555184681967517690281965769827365875244140625	281.44999903937201679582358337938785552978515625	0.0	4818.993959824239937006495893001556396484375	0.0	1	1	1	1
7983	S6	2019	11	29	15	88.3321571879915978797725983895361423492431640625	387.4392008543010206267354078590869903564453125	41.19361149470010019513210863806307315826416015625	4.39000005722045028022648693877272307872772216796875	70.65666618347160010671359486877918243408203125	2.417222215897500081638327174005098640918731689453125	237.9666668673349931850680150091648101806640625	0.0	3370.98949899276021824334748089313507080078125	0.0	1	1	1	1
7984	S6	2019	11	29	16	21.79521056938170175953928264789283275604248046875	79.5783764589427988767056376673281192779541015625	17.0936965808867995519904070533812046051025390625	4.1344000091552697284669193322770297527313232421875	70.9567994384764944015842047519981861114501953125	1.59039999938010989666281602694652974605560302734375	16.66666671517300102323133614845573902130126953125	0.0	386.6468800930309726027189753949642181396484375	0.0	1	1	1	0
7985	S6	2019	11	29	17	0	0	0	0	0	0	0	0.0	0.37527166617412499594053088003420270979404449462890625	0.0	1	1	1	0
7986	S6	2019	11	29	18	0	0	0	0	0	0	0	0.0	0	0.0	1	1	1	0
7987	S6	2019	11	29	19	0	0	0	0	0	0	0	0.0	0	0.0	1	1	1	0
7988	S6	2019	11	29	20	0	0	0	0	0	0	0	0.0	0	0.0	1	1	1	0
7989	S6	2019	11	29	21	0	0	0	0	0	0	0	0.0	0	0.0	1	1	1	0
7990	S6	2019	11	29	22	0	0	0	0	0	0	0	0.0	0	0.0	1	1	1	0
7991	S6	2019	11	29	23	0	0	0	0	0	0	0	0.0	0	0.0	1	1	1	0
7992	S6	2019	11	29	24	0	0	0	0	0	0	0	0.0	0	0.0	1	1	1	0
7993	S6	2019	11	30	1	0	0	0	0	0	0	0	0.0	0	0.0	1	1	1	0
7994	S6	2019	11	30	2	0	0	0	0	0	0	0	0.0	0	0.0	1	1	1	0
7995	S6	2019	11	30	3	0	0	0	0	0	0	0	0.0	0	0.0	1	1	1	0
7996	S6	2019	11	30	4	0	0	0	0	0	0	0	0.0	0	0.0	1	1	1	0
7997	S6	2019	11	30	5	0	0	0	0	0	0	0	0.0	0	0.0	1	1	1	0
7998	S6	2019	11	30	6	0	0	0	0	0	0	0	0.0	0	0.0	1	1	1	0
7999	S6	2019	11	30	7	0	0	0	0	0	0	0	0.0	0	0.0	1	1	1	0
8000	S6	2019	11	30	8	0	0	0	0	0	0	0	0.0	0	0.0	1	1	1	0
8001	S6	2019	11	30	9	24.537876328986701679468751535750925540924072265625	173.8168030739819869268103502690792083740234375	14.0785879989877003026776947081089019775390625	0.7796680628016769976085242888075299561023712158203125	87.6738588325215033592030522413551807403564453125	1.112448136588839897598290917812846601009368896484375	10.016666667070200702482907217927277088165283203125	0.0	378.2538190328820064678438939154148101806640625	0.0	1	1	1	0
8002	S6	2019	11	30	10	84.86561232672789856223971582949161529541015625	451.08623631795200026317615993320941925048828125	31.451109653048998637814293033443391323089599609375	1.9166666507720899748079546043300069868564605712890625	84.8233327229817035686210147105157375335693359375	1.3819444436165999601229259496903978288173675537109375	32.700000175585302031322498805820941925048828125	0.0	2481.59911483526002484722994267940521240234375	0.0	1	1	1	1
8003	S6	2019	11	30	11	149.1622851689650133266695775091648101806640625	599.487134806314998058951459825038909912109375	42.89201395246710291075942222960293292999267578125	3.606666680177049943978317969595082104206085205078125	81.9533329010009055082264239899814128875732421875	1.3097222248713100700712175239459611475467681884765625	47.25000001490109724500143784098327159881591796875	0.0	5792.732498049719652044586837291717529296875	0.0	1	1	1	1
8004	S6	2019	11	30	12	193.4150399102099981973879039287567138671875	652.444819980197053155279718339443206787109375	55.37581025229560083289470640011131763458251953125	4.64333332379658969557567615993320941925048828125	77.7850003560383953526979894377291202545166015625	1.545277774251160085583478576154448091983795166015625	181.38333459695098781594424508512020111083984375	0.0	7128.1085059046699825557880103588104248046875	0.0	1	1	1	1
8005	S6	2019	11	30	13	207.664895502726011500271852128207683563232421875	656.8236117892789707184419967234134674072265625	68.536025746663398194868932478129863739013671875	6.00000001589457010453543261974118649959564208984375	69.5883332570393946525655337609350681304931640625	1.8672222158147200321565151170943863689899444580078125	506.7166666189820034560398198664188385009765625	0.0	7516.18148634831959498114883899688720703125	0.0	1	1	1	1
8006	S6	2019	11	30	14	152.746388562519996412447653710842132568359375	594.586950005425023846328258514404296875	45.924198553297202352041495032608509063720703125	6.3700001160303703073850556393153965473175048828125	65.053333791097003313552704639732837677001953125	1.7758333317107599658157823796500451862812042236328125	402.21666718522601513541303575038909912109375	0.0	5745.429684966789864120073616504669189453125	0.0	1	1	1	1
8007	S6	2019	11	30	15	82.8574202917412065971802803687751293182373046875	422.10701211116401054823654703795909881591796875	33.7194633005721016161260195076465606689453125	5.9963788335369798687679576687514781951904296875	65.783007799748901334169204346835613250732421875	1.4011142028905501089042218154645524919033050537109375	240.883333981036997784030972979962825775146484375	0.0	3202.472777913009849726222455501556396484375	0.0	1	1	1	1
8008	S6	2019	11	30	16	22.67050822316380020993165089748799800872802734375	116.40590194415000269145821221172809600830078125	15.573150227994300820455464418046176433563232421875	5.16326529249853027891958845430053770542144775390625	70.12897974131050204960047267377376556396484375	1.258367347474000030871366107021458446979522705078125	14.8666667751967995769746266887523233890533447265625	0.0	348.08882584329700193848111666738986968994140625	0.0	1	1	1	0
8009	S6	2019	11	30	17	0	0	0	0	0	0	0	0.0	0.404668343253432982731254696773248724639415740966796875	0.0	1	1	1	0
8010	S6	2019	11	30	18	0	0	0	0	0	0	0	0.0	0	0.0	1	1	1	0
8011	S6	2019	11	30	19	0	0	0	0	0	0	0	0.0	0	0.0	1	1	1	0
8012	S6	2019	11	30	20	0	0	0	0	0	0	0	0.0	0	0.0	1	1	1	0
8013	S6	2019	11	30	21	0	0	0	0	0	0	0	0.0	0	0.0	1	1	1	0
8014	S6	2019	11	30	22	0	0	0	0	0	0	0	0.0	0	0.0	1	1	1	0
8015	S6	2019	11	30	23	0	0	0	0	0	0	0	0.0	0	0.0	1	1	1	0
8016	S6	2019	11	30	24	0	0	0	0	0	0	0	0.0	0	0.0	1	1	1	0
8017	S6	2019	12	1	1	0	0	0	0	0	0	0	0.0	0	0.0	1	1	1	0
8018	S6	2019	12	1	2	0	0	0	0	0	0	0	0.0	0	0.0	1	1	1	0
8019	S6	2019	12	1	3	0	0	0	0	0	0	0	0.0	0	0.0	1	1	1	0
8020	S6	2019	12	1	4	0	0	0	0	0	0	0	0.0	0	0.0	1	1	1	0
8021	S6	2019	12	1	5	0	0	0	0	0	0	0	0.0	0	0.0	1	1	1	0
8022	S6	2019	12	1	6	0	0	0	0	0	0	0	0.0	0	0.0	1	1	1	0
8023	S6	2019	12	1	7	0	0	0	0	0	0	0	0.0	0	0.0	1	1	1	0
8024	S6	2019	12	1	8	0	0	0	0	0	0	0.0166666674582915987079534403392244712449610233306884765625	0.0	0	0.0	1	1	1	0
8025	S6	2019	12	1	9	23.20999644131489958454039879143238067626953125	66.6703874879869005098953493870794773101806640625	19.9644297875207001879971357993781566619873046875	2.137068939620049956573666349868290126323699951171875	83.353448538944604706557583995163440704345703125	1.246982757901319960325281499535776674747467041015625	14.5666667725890004447819592314772307872772216796875	0.0	490.63991281824797852095798589289188385009765625	0.0	1	1	1	0
8026	S6	2019	12	1	10	51.05542934205789862289748270995914936065673828125	30.227201845910798283512121997773647308349609375	47.73557473818460294978649471886456012725830078125	2.5166666467984502020271975197829306125640869140625	81.45166689554849881460540927946567535400390625	1.5633333279026799811362025138805620372295379638671875	52.21666662643340117710977210663259029388427734375	0.0	1707.07442735632002950296737253665924072265625	0.0	1	1	1	1
8027	S6	2019	12	1	11	141.5866852654349941076361574232578277587890625	308.25286623636799276937381364405155181884765625	86.9582511477999986482245731167495250701904296875	3.435000018278750122391329568927176296710968017578125	78.9633335113525021142777404747903347015380859375	1.636388888292839904892161939642392098903656005859375	97.0666669309133993692739750258624553680419921875	0.0	5246.6129293044295991421677172183990478515625	0.0	1	1	1	1
8028	S6	2019	12	1	12	159.4330253177209897330612875521183013916015625	289.65634055667402435574331320822238922119140625	97.59292441474059387473971582949161529541015625	4.1749999682108498433308341191150248050689697265625	75.993333562215099163950071670114994049072265625	1.8441666646963998932307049472001381218433380126953125	148.6999993522960039626923389732837677001953125	0.0	5644.99280552068012184463441371917724609375	0.0	1	1	1	1
8029	S6	2019	12	1	13	115.5783592436039981521389563567936420440673828125	88.1006818665398014900347334332764148712158203125	95.2831298192342046604608185589313507080078125	4.44500005245208029691639239899814128875732421875	75.4866664886474012519101961515843868255615234375	1.6549999998675399837111399392597377300262451171875	173.266667375961986863330821506679058074951171875	0.0	3850.0597735245901276357471942901611328125	0.0	1	1	1	1
8030	S6	2019	12	1	14	93.1041692521836949936187011189758777618408203125	36.765744116571198674137121997773647308349609375	85.8196866353352021405953564681112766265869140625	4.4233333667119296706005115993320941925048828125	77.5250002543130989351993775926530361175537109375	1.96833333323399006786758036469109356403350830078125	124.2666669189929962158203125	0.0	3014.7747034827798415790311992168426513671875	0.0	1	1	1	1
8031	S6	2019	12	1	15	45.6155236032274018498355871997773647308349609375	16.132436057345699964571394957602024078369140625	43.447805484135898268505115993320941925048828125	4.21333328882853042074430049979127943515777587890625	78.916666666666600349344662390649318695068359375	2.118333329425909905552316558896563947200775146484375	51.3333330862222965151886455714702606201171875	0.0	1301.9680513689900180906988680362701416015625	0.0	1	1	1	1
8032	S6	2019	12	1	16	13.4507000337496993580543858115561306476593017578125	8.61009718990919026282426784746348857879638671875	13.27277506040829990752172307111322879791259765625	4.201659736791580002090995549224317073822021484375	78.4589209338935944515469600446522235870361328125	2.05477178047306008323857895447872579097747802734375	7.56666679517366969065506054903380572795867919921875	0.0	248.17238884667500542491325177252292633056640625	0.0	1	1	1	1
8033	S6	2019	12	1	17	0	0	0	0	0	0	0	0.0	0	0.0	1	1	1	0
8034	S6	2019	12	1	18	0	0	0	0	0	0	0	0.0	0	0.0	1	1	1	0
8035	S6	2019	12	1	19	0	0	0	0	0	0	0	0.0	0	0.0	1	1	1	0
8036	S6	2019	12	1	20	0	0	0	0	0	0	0	0.0	0	0.0	1	1	1	0
8037	S6	2019	12	1	21	0	0	0	0	0	0	0	0.0	0	0.0	1	1	1	0
8038	S6	2019	12	1	22	0	0	0	0	0	0	0	0.0	0	0.0	1	1	1	0
8039	S6	2019	12	1	23	0	0	0	0	0	0	0	0.0	0	0.0	1	1	1	0
8040	S6	2019	12	1	24	0	0	0	0	0	0	0	0.0	0	0.0	1	1	1	0
8041	S6	2019	12	2	1	0	0	0	0	0	0	0	0.0	0	0.0	1	1	1	0
8042	S6	2019	12	2	2	0	0	0	0	0	0	0	0.0	0	0.0	1	1	1	0
8043	S6	2019	12	2	3	0	0	0	0	0	0	0	0.0	0	0.0	1	1	1	0
8044	S6	2019	12	2	4	0	0	0	0	0	0	0	0.0	0	0.0	1	1	1	0
8045	S6	2019	12	2	5	0	0	0	0	0	0	0	0.0	0	0.0	1	1	1	0
8046	S6	2019	12	2	6	0	0	0	0	0	0	0	0.0	0	0.0	1	1	1	0
8047	S6	2019	12	2	7	0	0	0	0	0	0	0	0.0	0	0.0	1	1	1	0
8048	S6	2019	12	2	8	0	0	0	0	0	0	0	0.0	0	0.0	1	1	1	0
8049	S6	2019	12	2	9	22.19719059885390066710897372104227542877197265625	149.152625581098988050143816508352756500244140625	13.5172492474740995049842240405268967151641845703125	3.92274879279294008682654748554341495037078857421875	86.785782185775900643420754931867122650146484375	2.7364928815602098666204256005585193634033203125	8.1833333708345907808734409627504646778106689453125	0.0	318.459820359322975491522811353206634521484375	0.0	1	1	1	0
8050	S6	2019	12	2	10	80.2207425329419976378630963154137134552001953125	457.67621637980101922948961146175861358642578125	28.573608424928398363817905192263424396514892578125	4.41500001748401960099954521865583956241607666015625	84.108332570393798732766299508512020111083984375	2.152499992648759796765034479903988540172576904296875	29.3333333916962004650486051104962825775146484375	0.0	2081.2791123986198726925067603588104248046875	0.0	1	1	1	1
8051	S6	2019	12	2	11	145.362121645608993958376231603324413299560546875	587.4809897528749615958076901733875274658203125	43.9506278461879986707572243176400661468505859375	5.49000000158944967409979653893969953060150146484375	82.3983329772948991376324556767940521240234375	2.38027777340677015871506227995269000530242919921875	47.76666698356469709096927545033395290374755859375	0.0	5715.9143495062899091863073408603668212890625	0.0	1	1	1	1
8052	S6	2019	12	2	12	173.184389750162011978318332694470882415771484375	587.824182287851954242796637117862701416015625	51.512494564056396484375	6.0633332808812401282239079591818153858184814453125	79.931666183471605791055480949580669403076171875	2.05444444889822985800265087164007127285003662109375	141.23333313812798905928502790629863739013671875	0.0	6235.5881626407199291861616075038909912109375	0.0	1	1	1	1
8053	S6	2019	12	2	13	151.833612759907992995067615993320941925048828125	429.78630255328198472852818667888641357421875	62.31836576461790144776387023739516735076904296875	5.85500004291534015266051937942393124103546142578125	78.5233337402343067878973670303821563720703125	2.411666666633550004661401544581167399883270263671875	397.58333042264001733201439492404460906982421875	0.0	6080.1668961842797216377221047878265380859375	0.0	1	1	1	1
8054	S6	2019	12	2	14	147.124201223585004072447190992534160614013671875	586.298766920300977290025912225246429443359375	44.030206044514898167108185589313507080078125	5.91833336353302019716693394002504646778106689453125	75.9866664886474012519101961515843868255615234375	2.388333332041889800478884353651665151119232177734375	400.8333330353090104836155660450458526611328125	0.0	5730.9010073542604004614986479282379150390625	0.0	1	1	1	1
8055	S6	2019	12	2	15	81.6006056573655058627991820685565471649169921875	326.61417769855898995956522412598133087158203125	42.62347664833060179034873726777732372283935546875	5.51999994119007997284143129945732653141021728515625	73.5016666412353032455939683131873607635498046875	1.0905555563668400953503123673726804554462432861328125	204.733332370717988624164718203246593475341796875	0.0	2840.356786797439781366847455501556396484375	0.0	1	1	1	1
8056	S6	2019	12	2	16	20.280145422298101465230502071790397167205810546875	107.8857279377169930967284017242491245269775390625	13.7300276900056008599904089351184666156768798828125	4.73969849150384003877434224705211818218231201171875	75.947236564291102922652498818933963775634765625	0.58944724028433903573187535585020668804645538330078125	10.666666649437200220518207061104476451873779296875	0.0	220.8373836047639997559599578380584716796875	0.0	1	1	1	0
8057	S6	2019	12	2	17	0	0	0	0	0	0	0	0.0	0	0.0	1	1	1	0
8058	S6	2019	12	2	18	0	0	0	0	0	0	0	0.0	0	0.0	1	1	1	0
8059	S6	2019	12	2	19	0	0	0	0	0	0	0	0.0	0	0.0	1	1	1	0
8060	S6	2019	12	2	20	0	0	0	0	0	0	0	0.0	0	0.0	1	1	1	0
8061	S6	2019	12	2	21	0	0	0	0	0	0	0	0.0	0	0.0	1	1	1	0
8062	S6	2019	12	2	22	0	0	0	0	0	0	0	0.0	0	0.0	1	1	1	0
8063	S6	2019	12	2	23	0	0	0	0	0	0	0	0.0	0	0.0	1	1	1	0
8064	S6	2019	12	2	24	0	0	0	0	0	0	0	0.0	0	0.0	1	1	1	0
8065	S6	2019	12	3	1	0	0	0	0	0	0	0	0.0	0	0.0	1	1	1	0
8066	S6	2019	12	3	2	0	0	0	0	0	0	0	0.0	0	0.0	1	1	1	0
8067	S6	2019	12	3	3	0	0	0	0	0	0	0	0.0	0	0.0	1	1	1	0
8068	S6	2019	12	3	4	0	0	0	0	0	0	0	0.0	0	0.0	1	1	1	0
8069	S6	2019	12	3	5	0	0	0	0	0	0	0	0.0	0	0.0	1	1	1	0
8070	S6	2019	12	3	6	0	0	0	0	0	0	0	0.0	0	0.0	1	1	1	0
8071	S6	2019	12	3	7	0	0	0	0	0	0	0	0.0	0	0.0	1	1	1	0
8072	S6	2019	12	3	8	0	0	0	0	0	0	0	0.0	0	0.0	1	1	1	0
8073	S6	2019	12	3	9	11.779101875592999704167596064507961273193359375	1.53318283271114008670110706589184701442718505859375	11.864766246867599619463362614624202251434326171875	1.4806603727475600162932778403046540915966033935546875	86.4891523685094938400652608834207057952880859375	1.80047168934120005445720380521379411220550537109375	8.6000000922164598904373633558861911296844482421875	0.0	254.760613401108997777555487118661403656005859375	0.0	1	1	1	1
8074	S6	2019	12	3	10	46.06503651936839816016799886710941791534423828125	1.42129981219768009026438448927365243434906005859375	46.0352844344244971352964057587087154388427734375	2.28027778433428007787142632878385484218597412109375	85.8997220357259010370398755185306072235107421875	2.211666661169790160101911169476807117462158203125	48.6000001740952001227924483828246593475341796875	0.0	1414.099716395139921587542630732059478759765625	0.0	1	1	1	1
8075	S6	2019	12	3	11	61.4167656580606973193425801582634449005126953125	0.477068771090772003606872431191732175648212432861328125	61.6481190151638003271727939136326313018798828125	3.4847222235467700812705516000278294086456298828125	84.38722226884630117638153024017810821533203125	2.42555555469458994366505066864192485809326171875	60.63333308945090038832859136164188385009765625	0.0	1789.2469197511600214056670665740966796875	0.0	1	1	1	1
8076	S6	2019	12	3	12	52.11678526136609690411205519922077655792236328125	0.395026120460695018277164081155206076800823211669921875	52.28995959493840217646720702759921550750732421875	4.56583331293528971173145691864192485809326171875	85.7322218153210968694111215882003307342529296875	2.901944441762230209036488304263912141323089599609375	45.7666668420036018005703226663172245025634765625	0.0	1361.983857800559917450300417840480804443359375	0.0	1	1	1	1
8077	S6	2019	12	3	13	29.3065009064143993100515217520296573638916015625	0.296020179779993009017147187478258274495601654052734375	29.4689518610636014273040927946567535400390625	4.937222266197199616044599679298698902130126953125	92.4924997965493957963190041482448577880859375	2.740833328829869852683032149798236787319183349609375	26.98333375155920066390535794198513031005859375	0.0	807.9616161684180042357183992862701416015625	0.0	1	1	1	1
8078	S6	2019	12	3	14	25.569454140133299091530716395936906337738037109375	0.330938199038306013477495071128942072391510009765625	25.783917787339898808340876712463796138763427734375	5.44527778493033043361037925933487713336944580078125	94.2550000720553953215130604803562164306640625	2.423611106475190180020717889419756829738616943359375	23.616666750361499538257703534327447414398193359375	0.0	693.0542865147190241259522736072540283203125	0.0	1	1	1	1
8079	S6	2019	12	3	15	26.060392451286300996571299037896096706390380859375	0.34092939082119200211451470750034786760807037353515625	26.277676587634598348586223437450826168060302734375	6.04138891432020042060457853949628770351409912109375	94.3927786509195954067763523198664188385009765625	2.5755555499758902016083084163255989551544189453125	23.550000088289298361132750869728624820709228515625	0.0	670.69394402205898586544208228588104248046875	0.0	1	1	1	1
8080	S6	2019	12	3	16	9.6284965264364803516627944190986454486846923828125	0.323258904209408004515324819294619373977184295654296875	9.754347354636909273040146217681467533111572265625	6.49844559733730964268261232064105570316314697265625	94.100517747315706174049410037696361541748046875	2.6341968811855398513444015407003462314605712890625	3.900000047481949838612536041182465851306915283203125	0.0	107.9478718223979996082562138326466083526611328125	0.0	1	1	1	1
8081	S6	2019	12	3	17	0	0	0	0	0	0	0	0.0	0	0.0	1	1	1	0
8082	S6	2019	12	3	18	0	0	0	0	0	0	0	0.0	0	0.0	1	1	1	0
8083	S6	2019	12	3	19	0	0	0	0	0	0	0	0.0	0	0.0	1	1	1	0
8084	S6	2019	12	3	20	0	0	0	0	0	0	0	0.0	0	0.0	1	1	1	0
8085	S6	2019	12	3	21	0	0	0	0	0	0	0	0.0	0	0.0	1	1	1	0
8086	S6	2019	12	3	22	0	0	0	0	0	0	0	0.0	0	0.0	1	1	1	0
8087	S6	2019	12	3	23	0	0	0	0	0	0	0	0.0	0	0.0	1	1	1	0
8088	S6	2019	12	3	24	0	0	0	0	0	0	0	0.0	0	0.0	1	1	1	0
8089	S6	2019	12	4	1	0	0	0	0	0	0	0	0.0	0	0.0	1	1	1	0
8090	S6	2019	12	4	2	0	0	0	0	0	0	0	0.0	0	0.0	1	1	1	0
8091	S6	2019	12	4	3	0	0	0	0	0	0	0	0.0	0	0.0	1	1	1	0
8092	S6	2019	12	4	4	0	0	0	0	0	0	0	0.0	0	0.0	1	1	1	0
8093	S6	2019	12	4	5	0	0	0	0	0	0	0	0.0	0	0.0	1	1	1	0
8094	S6	2019	12	4	6	0	0	0	0	0	0	0	0.0	0	0.0	1	1	1	0
8095	S6	2019	12	4	7	0	0	0	0	0	0	0	0.0	0	0.0	1	1	1	0
8096	S6	2019	12	4	8	0	0	0	0	0	0	0	0.0	0	0.0	1	1	1	0
8097	S6	2019	12	4	9	3.373859141612869816384545629261992871761322021484375	0.28993752907062397827786526249838061630725860595703125	3.448647150500060210021047168993391096591949462890625	7.3082759002159303207690754788927733898162841796875	82.8937930929248949496468412689864635467529296875	2.2289655257915601538343253196217119693756103515625	1.3833333718745699503216428638552315533161163330078125	0.0	36.80788486575089990537890116684138774871826171875	0.0	1	1	1	1
8098	S6	2019	12	4	10	19.27585313055249827129955519922077655792236328125	0.31241166695124500396474331864737905561923980712890625	19.440133379565299520663756993599236011505126953125	7.30027781062656000443666926003061234951019287109375	82.1480555216470946788831497542560100555419921875	1.9144444435834799822515606138040311634540557861328125	18.38333349054050103177360142581164836883544921875	0.0	522.284730648000959263299591839313507080078125	0.0	1	1	1	1
8099	S6	2019	12	4	11	39.4942602316537971773868775926530361175537109375	0.34509766424695598185934386492590419948101043701171875	39.738364118999896845707553438842296600341796875	7.378611218929290060941639239899814128875732421875	84.04055523342549349763430655002593994140625	2.0913888858424201089292182587087154388427734375	37.18333328142750104916558484546840190887451171875	0.0	1059.138567497330086553120054304599761962890625	0.0	1	1	1	1
8100	S6	2019	12	4	12	59.07226756413769663822677102871239185333251953125	0.406887896690103001429150708645465783774852752685546875	59.341328228844503200889448635280132293701171875	7.83722227546903038586378897889517247676849365234375	81.6986109203761969865809078328311443328857421875	2.52166666405067996237221450428478419780731201171875	56.50000032037490171887839096598327159881591796875	0.0	1588.76476089158995819161646068096160888671875	0.0	1	1	1	1
8101	S6	2019	12	4	13	58.7811151822407964573358185589313507080078125	0.343904653688271000344656158631551079452037811279296875	59.02540758980639878927831887267529964447021484375	8.0291668295860194604074422386474907398223876953125	79.2924997329711942484209430404007434844970703125	2.596666660739309850924882994149811565876007080078125	54.316666411856800777968601323664188385009765625	0.0	1532.12853223084994169767014682292938232421875	0.0	1	1	1	1
8102	S6	2019	12	4	14	46.0315487013921966763518867082893848419189453125	0.329804604541924006877451347463647834956645965576171875	46.22230306201510074970428831875324249267578125	8.0238890502187896203167838393710553646087646484375	79.8161112679375008838178473524749279022216796875	2.589444438119719915647465313668362796306610107421875	41.933333718528302824779530055820941925048828125	0.0	1181.80435101191005742293782532215118408203125	0.0	1	1	1	1
8103	S6	2019	12	4	15	25.61916529867379921370229567401111125946044921875	0.2873140728308090086073889324325136840343475341796875	25.7494342909918003670100006274878978729248046875	7.97111124065186960052642461960203945636749267578125	80.28083364698619561750092543661594390869140625	2.66249999834430983725042096921242773532867431640625	21.733333775773498786065829335711896419525146484375	0.0	609.110895295935961257782764732837677001953125	0.0	1	1	1	1
8104	S6	2019	12	4	16	6.54488819371098973221023697988130152225494384765625	0.2471626907910980108784571029900689609348773956298828125	6.6122503291005596537388555589132010936737060546875	7.69391303062437970083919935859739780426025390625	81.39565194171399298284086398780345916748046875	2.375217388764669923517658389755524694919586181640625	2.5500000396277702208180926390923559665679931640625	0.0	74.1898566872501987745636142790317535400390625	0.0	1	1	1	1
8105	S6	2019	12	4	17	0	0	0	0	0	0	0	0.0	0	0.0	1	1	1	0
8106	S6	2019	12	4	18	0	0	0	0	0	0	0	0.0	0	0.0	1	1	1	0
8107	S6	2019	12	4	19	0	0	0	0	0	0	0	0.0	0	0.0	1	1	1	0
8108	S6	2019	12	4	20	0	0	0	0	0	0	0	0.0	0	0.0	1	1	1	0
8109	S6	2019	12	4	21	0	0	0	0	0	0	0	0.0	0	0.0	1	1	1	0
8110	S6	2019	12	4	22	0	0	0	0	0	0	0	0.0	0	0.0	1	1	1	0
8111	S6	2019	12	4	23	0	0	0	0	0	0	0	0.0	0	0.0	1	1	1	0
8112	S6	2019	12	4	24	0	0	0	0	0	0	0	0.0	0	0.0	1	1	1	0
8113	S6	2019	12	5	1	0	0	0	0	0	0	0	0.0	0	0.0	1	1	1	0
8114	S6	2019	12	5	2	0	0	0	0	0	0	0	0.0	0	0.0	1	1	1	0
8115	S6	2019	12	5	3	0	0	0	0	0	0	0	0.0	0	0.0	1	1	1	0
8116	S6	2019	12	5	4	0	0	0	0	0	0	0	0.0	0	0.0	1	1	1	0
8117	S6	2019	12	5	5	0	0	0	0	0	0	0	0.0	0	0.0	1	1	1	0
8118	S6	2019	12	5	6	0	0	0	0	0	0	0	0.0	0	0.0	1	1	1	0
8119	S6	2019	12	5	7	0	0	0	0	0	0	0	0.0	0	0.0	1	1	1	0
8120	S6	2019	12	5	8	0	0	0	0	0	0	0	0.0	0	0.0	1	1	1	0
8121	S6	2019	12	5	9	9.198398602314480143604669137857854366302490234375	0.290610583852497994516994594960124231874942779541015625	9.3240249548202900342630528029985725879669189453125	6.58307685852050017416559057892300188541412353515625	87.44820494040459379903040826320648193359375	2.7476923109629201036341328290291130542755126953125	5.6333333253860597977791258017532527446746826171875	0.0	163.682330710191990874591283500194549560546875	0.0	1	1	1	1
8122	S6	2019	12	5	10	34.78018025292289649996746447868645191192626953125	4.97143608778714973794876641477458178997039794921875	34.37517797152199960919460863806307315826416015625	6.5125000119209204285652958787977695465087890625	87.66638859642870329480501823127269744873046875	2.5922222136623300769997513270936906337738037109375	35.35000014429279957539620227180421352386474609375	0.0	1042.1124624709200361394323408603668212890625	0.0	1	1	1	1
8123	S6	2019	12	5	11	107.443963220384006262975162826478481292724609375	269.21060971178900445011095143854618072509765625	60.62067516114969834006842575035989284515380859375	6.92666663593715981050991103984415531158447265625	85.8277779897053960667108185589313507080078125	2.608333330518660009289533263654448091983795166015625	71.6500001028178985507111065089702606201171875	0.0	4059.247780094539848505519330501556396484375	0.0	1	1	1	1
8124	S6	2019	12	5	12	119.1082293085689940426163957454264163970947265625	190.594009222936989544905372895300388336181640625	80.5846547893448956756401457823812961578369140625	7.34565832234229976194228584063239395618438720703125	83.861344751523603235909831710159778594970703125	2.7523809525312099566463075461797416210174560546875	98.766667395830296527492464520037174224853515625	0.0	3850.8588353792802081443369388580322265625	0.0	1	1	1	1
8125	S6	2019	12	5	13	121.5026299582579980551599874161183834075927734375	69.893657078138602400940726511180400848388671875	105.715655326843005923365126363933086395263671875	7.772222272555030286866895039565861225128173828125	83.231389321221200816580676473677158355712890625	3.166666663934779801792274156468920409679412841796875	159.93333396812300861711264587938785552978515625	0.0	3763.1031657258599807391874492168426513671875	0.0	1	1	1	1
8126	S6	2019	12	5	14	38.53116203414059981469108606688678264617919921875	1.043751374466550085884364307275973260402679443359375	38.498493846257503037122660316526889801025390625	7.64777778784433959202715413994155824184417724609375	84.7708327823215057605921174399554729461669921875	3.537777780824229889589105368941091001033782958984375	37.100000089655196688909200020134449005126953125	0.0	1010.4032525171800216412520967423915863037109375	0.0	1	1	1	1
8127	S6	2019	12	5	15	43.721057113011596584328799508512020111083984375	17.847137605978300456399665563367307186126708984375	41.0732318348353970804964774288237094879150390625	7.344444481531770207993758958764374256134033203125	85.491388660007004318686085753142833709716796875	3.476111107071239825216935059870593249797821044921875	55.71666695177530215232764021493494510650634765625	0.0	1300.9068125237999993260018527507781982421875	0.0	1	1	1	1
8128	S6	2019	12	5	16	12.694149580455899695152766071259975433349609375	0.366331593195596993961515863702516071498394012451171875	12.756702000754199133325528237037360668182373046875	7.2133333183470202953913030796684324741363525390625	85.6576188587007010255547356791794300079345703125	3.4576190454619197822694331989623606204986572265625	6.6333333224368598024511811672709882259368896484375	0.0	194.6812301175669972508330829441547393798828125	0.0	1	1	1	1
8129	S6	2019	12	5	17	0	0	0	0	0	0	0	0.0	0	0.0	1	1	1	0
8130	S6	2019	12	5	18	0	0	0	0	0	0	0	0.0	0	0.0	1	1	1	0
8131	S6	2019	12	5	19	0	0	0	0	0	0	0	0.0	0	0.0	1	1	1	0
8132	S6	2019	12	5	20	0	0	0	0	0	0	0	0.0	0	0.0	1	1	1	0
8133	S6	2019	12	5	21	0	0	0	0	0	0	0	0.0	0	0.0	1	1	1	0
8134	S6	2019	12	5	22	0	0	0	0	0	0	0	0.0	0	0.0	1	1	1	0
8135	S6	2019	12	5	23	0	0	0	0	0	0	0	0.0	0	0.0	1	1	1	0
8136	S6	2019	12	5	24	0	0	0	0	0	0	0	0.0	0	0.0	1	1	1	0
8137	S6	2019	12	6	1	0	0	0	0	0	0	0	0.0	0	0.0	1	1	1	0
8138	S6	2019	12	6	2	0	0	0	0	0	0	0	0.0	0	0.0	1	1	1	0
8139	S6	2019	12	6	3	0	0	0	0	0	0	0	0.0	0	0.0	1	1	1	0
8140	S6	2019	12	6	4	0	0	0	0	0	0	0	0.0	0	0.0	1	1	1	0
8141	S6	2019	12	6	5	0	0	0	0	0	0	0	0.0	0	0.0	1	1	1	0
8142	S6	2019	12	6	6	0	0	0	0	0	0	0	0.0	0	0.0	1	1	1	0
8143	S6	2019	12	6	7	0	0	0	0	0	0	0	0.0	0	0.0	1	1	1	0
8144	S6	2019	12	6	8	0	0	0	0	0	0	0	0.0	0	0.0	1	1	1	0
8145	S6	2019	12	6	9	0.67809982111645894509166510033537633717060089111328125	0.320603638382281008745167127926833927631378173828125	0.68385998600052000373494820451014675199985504150390625	8.784745717452739910413583857007324695587158203125	92.261016845703096578290569595992565155029296875	4.90338984586423975997604429721832275390625	0.2166666769577909879007648896731552667915821075439453125	0.0	0.55855332563321002936618242529220879077911376953125	0.0	1	1	1	1
8146	S6	2019	12	6	10	5.24004976355700957668659611954353749752044677734375	0.292583278833178972444528653795714490115642547607421875	5.3807464688560600052369409240782260894775390625	9.066361054003419184255108120851218700408935546875	91.796942078010005161559092812240123748779296875	3.926299693023020065396622158004902303218841552734375	4.10000010354754973462831912911497056484222412109375	0.0	134.36532459066501132838311605155467987060546875	0.0	1	1	1	1
8147	S6	2019	12	6	11	13.8785807344647995620334768318571150302886962890625	0.26187874927288901094613038367242552340030670166015625	13.9883837766117000711574291926808655261993408203125	9.014444526036580640493411920033395290374755859375	92.9955558776855042424358543939888477325439453125	3.764999993145460077670350074185989797115325927734375	12.9166666883975000956752410274930298328399658203125	0.0	381.8761924902599957931670360267162322998046875	0.0	1	1	1	1
8148	S6	2019	12	6	12	41.5969760841793032568602939136326313018798828125	0.3159599370426600106753767249756492674350738525390625	41.88422793812220135123425279743969440460205078125	9.0138889789581302380838678800500929355621337890625	93.0844443427190952888850006274878978729248046875	3.972222219407549825831438283785246312618255615234375	39.300000326087001667474396526813507080078125	0.0	1129.268805931010092535871081054210662841796875	0.0	1	1	1	1
8149	S6	2019	12	6	13	44.47243494457659807039817678742110729217529296875	0.281639172405831972323397849322645924985408782958984375	44.80230357382030348389889695681631565093994140625	8.9394442876180004731168082798831164836883544921875	92.66999935574000346605316735804080963134765625	3.98916665580536999868854763917624950408935546875	40.31666669373709765977764618583023548126220703125	0.0	1163.997679700449907613801769912242889404296875	0.0	1	1	1	1
8150	S6	2019	12	6	14	34.83700909084740260368562303483486175537109375	0.318037480281458007080885863615549169480800628662109375	35.226018863254097368553630076348781585693359375	8.8561110284593294039723332389257848262786865234375	91.0611115773518946525655337609350681304931640625	3.99361111256810996650301603949628770351409912109375	30.916666705161201633700329693965613842010498046875	0.0	883.211251720784957797150127589702606201171875	0.0	1	1	1	1
8151	S6	2019	12	6	15	14.2747197230655995525694379466585814952850341796875	0.2380120632756080045755453511446830816566944122314453125	14.4771026505364002190390237956307828426361083984375	8.56611101892259085843761567957699298858642578125	89.68055585225420145434327423572540283203125	4.51777779327497963635096311918459832668304443359375	11.6000002560515991234524335595779120922088623046875	0.0	338.98144103586497521973797120153903961181640625	0.0	1	1	1	1
8152	S6	2019	12	6	16	6.933006901165530422304072999395430088043212890625	0.25853084734287701262900327492388896644115447998046875	7.11209114461108971028124869917519390583038330078125	8.3629308569020199826127281994558870792388916015625	89.364655659116493779947631992399692535400390625	4.2663793173329498387147395987994968891143798828125	1.683333382243290099467003528843633830547332763671875	0.0	48.95407641306510271306251524947583675384521484375	0.0	1	1	1	1
8153	S6	2019	12	6	17	0	0	0	0	0	0	0	0.0	0	0.0	1	1	1	0
8154	S6	2019	12	6	18	0	0	0	0	0	0	0	0.0	0	0.0	1	1	1	0
8155	S6	2019	12	6	19	0	0	0	0	0	0	0	0.0	0	0.0	1	1	1	0
8156	S6	2019	12	6	20	0	0	0	0	0	0	0	0.0	0	0.0	1	1	1	0
8157	S6	2019	12	6	21	0	0	0	0	0	0	0	0.0	0	0.0	1	1	1	0
8158	S6	2019	12	6	22	0	0	0	0	0	0	0	0.0	0	0.0	1	1	1	0
8159	S6	2019	12	6	23	0	0	0	0	0	0	0	0.0	0	0.0	1	1	1	0
8160	S6	2019	12	6	24	0	0	0	0	0	0	0	0.0	0	0.0	1	1	1	0
8161	S6	2019	12	7	1	0	0	0	0	0	0	0	0.0	0	0.0	1	1	1	0
8162	S6	2019	12	7	2	0	0	0	0	0	0	0	0.0	0	0.0	1	1	1	0
8163	S6	2019	12	7	3	0	0	0	0	0	0	0	0.0	0	0.0	1	1	1	0
8164	S6	2019	12	7	4	0	0	0	0	0	0	0	0.0	0	0.0	1	1	1	0
8165	S6	2019	12	7	5	0	0	0	0	0	0	0	0.0	0	0.0	1	1	1	0
8166	S6	2019	12	7	6	0	0	0	0	0	0	0	0.0	0	0.0	1	1	1	0
8167	S6	2019	12	7	7	0	0	0	0	0	0	0	0.0	0	0.0	1	1	1	0
8168	S6	2019	12	7	8	0	0	0	0	0	0	0	0.0	0	0.0	1	1	1	0
8169	S6	2019	12	7	9	13.652540188467899184843190596438944339752197265625	36.43156548412459727614987059496343135833740234375	11.608051358006900244390635634772479534149169921875	7.4237569787884201133465467137284576892852783203125	85.1469610224771003004207159392535686492919921875	3.779005530789409927905353470123372972011566162109375	6.3666667071326497051586557063274085521697998046875	0.0	232.92490728199499017136986367404460906982421875	0.0	1	1	1	1
8170	S6	2019	12	7	10	48.44325322045219905930935055948793888092041015625	67.2906530134379039509440190158784389495849609375	41.9409343507553984409241820685565471649169921875	7.64444446563719992582264239899814128875732421875	81.3277776506212006779605871997773647308349609375	3.993888886438469842943277399172075092792510986328125	43.25000016639629762948970892466604709625244140625	0.0	1376.63576379418009310029447078704833984375	0.0	1	1	1	1
8171	S6	2019	12	7	11	116.4526492224789961937858606688678264617919921875	370.0570087052050212150788865983486175537109375	54.15439661873710264217152143828570842742919921875	7.869444468286300065074101439677178859710693359375	76.8188888549804005378973670303821563720703125	4.67861110700501026116171487956307828426361083984375	57.6000006248552978149746195413172245025634765625	0.0	4602.8603663047097143135033547878265380859375	0.0	1	1	1	1
8172	S6	2019	12	7	12	155.288770868537000069409259594976902008056640625	461.38502697998200119400280527770519256591796875	63.72725429963529819588075042702257633209228515625	8.0457865763246303458799957297742366790771484375	76.114045132412002203636802732944488525390625	3.908707866842819900199401672580279409885406494140625	123.6666678140550033049294142983853816986083984375	0.0	5608.103109399469758500345051288604736328125	0.0	1	1	1	1
8173	S6	2019	12	7	13	86.165050787084197736476198770105838775634765625	78.693778361936296050771488808095455169677734375	69.172765092288699406708474270999431610107421875	7.92205886560326977274826276698149740695953369140625	77.9332352133358057244549854658544063568115234375	4.35558823452276033805219412897713482379913330078125	116.0500001783170063163197482936084270477294921875	0.0	2562.08263958493989775888621807098388671875	0.0	1	1	1	1
8174	S6	2019	12	7	14	88.34723515217530120935407467186450958251953125	110.8454746464939972838692483492195606231689453125	70.1835832222879929531700327061116695404052734375	7.75391063743462982671417194069363176822662353515625	76.740503066078900928914663381874561309814453125	4.1963687082908602832276301342062652111053466796875	148.83333481848200108288438059389591217041015625	0.0	2944.2868736883001474780030548572540283203125	0.0	1	1	1	1
8175	S6	2019	12	7	15	42.24329420725499772970579215325415134429931640625	6.448992503931119557591955526731908321380615234375	41.3017951912350014254116103984415531158447265625	7.577777740690439856052762479521334171295166015625	75.4922224256726934754624380730092525482177734375	4.0261111050844196057596491300500929355621337890625	44.9666665866970021170345717109739780426025390625	0.0	1209.000662217529907138668932020664215087890625	0.0	1	1	1	1
8176	S6	2019	12	7	16	10.28613674696619995074797770939767360687255859375	0.8086367098378459683516439326922409236431121826171875	10.405340236117499586043777526356279850006103515625	7.345540006395790300075532286427915096282958984375	76.6652580583598961538882576860487461090087890625	3.72112676571232015021450934000313282012939453125	5.16666672386538028405311706592328846454620361328125	0.0	170.873334173424012760733603499829769134521484375	0.0	1	1	1	1
8177	S6	2019	12	7	17	0	0	0	0	0	0	0	0.0	0	0.0	1	1	1	0
8178	S6	2019	12	7	18	0	0	0	0	0	0	0	0.0	0	0.0	1	1	1	0
8179	S6	2019	12	7	19	0	0	0	0	0	0	0	0.0	0	0.0	1	1	1	0
8180	S6	2019	12	7	20	0	0	0	0	0	0	0	0.0	0	0.0	1	1	1	0
8181	S6	2019	12	7	21	0	0	0	0	0	0	0	0.0	0	0.0	1	1	1	0
8182	S6	2019	12	7	22	0	0	0	0	0	0	0	0.0	0	0.0	1	1	1	0
8183	S6	2019	12	7	23	0	0	0	0	0	0	0	0.0	0	0.0	1	1	1	0
8184	S6	2019	12	7	24	0	0	0	0	0	0	0	0.0	0	0.0	1	1	1	0
8185	S6	2019	12	8	1	0	0	0	0	0	0	0	0.0	0	0.0	1	1	1	0
8186	S6	2019	12	8	2	0	0	0	0	0	0	0	0.0	0	0.0	1	1	1	0
8187	S6	2019	12	8	3	0	0	0	0	0	0	0	0.0	0	0.0	1	1	1	0
8188	S6	2019	12	8	4	0	0	0	0	0	0	0	0.0	0	0.0	1	1	1	0
8189	S6	2019	12	8	5	0	0	0	0	0	0	0	0.0	0	0.0	1	1	1	0
8190	S6	2019	12	8	6	0	0	0	0	0	0	0	0.0	0	0.0	1	1	1	0
8191	S6	2019	12	8	7	0	0	0	0	0	0	0	0.0	0	0.0	1	1	1	0
8192	S6	2019	12	8	8	0	0	0	0	0	0	0	0.0	0	0.0	1	1	1	0
8193	S6	2019	12	8	9	1.20843446321701009082971722818911075592041015625	0.221310958349971997893845809812773950397968292236328125	1.18749727777549995977324215346015989780426025390625	8.4696628056215406132878342759795486927032470703125	88.534831786423495714188902638852596282958984375	6.09213482395986005712984479032456874847412109375	0.1333333396663310133067881224633310921490192413330078125	0.0	4.1740400095780696432257173000834882259368896484375	0.0	1	1	1	1
8194	S6	2019	12	8	10	5.74370409581395957587801603949628770351409912109375	0.26428851845363698913615735364146530628204345703125	5.7125967009199900559224261087365448474884033203125	8.1666668309105698853045396390371024608612060546875	90.16166644626190418421174399554729461669921875	5.9911111103163801061555204796604812145233154296875	5.083333405976500074530122219584882259368896484375	0.0	152.825271702992012023969436995685100555419921875	0.0	1	1	1	1
8195	S6	2019	12	8	11	10.9833746300803003492774223559536039829254150390625	0.28158898423943201638763866867520846426486968994140625	10.9669714570044991575059611932374536991119384765625	8.149444511201640040098936879076063632965087890625	90.0672221713595035907928831875324249267578125	6.92111110753482972057781807961873710155487060546875	9.6833333993951296037039355724118649959564208984375	0.0	296.8909178550039769106660969555377960205078125	0.0	1	1	1	1
8196	S6	2019	12	8	12	17.311724249521798668638439266942441463470458984375	0.297441009514861021134635166163207031786441802978515625	17.427908282809699613835618947632610797882080078125	8.3972223334842208686268349993042647838592529296875	90.27277793884269385671359486877918243408203125	6.3316666649447501669101256993599236011505126953125	15.4333334416150993462224505492486059665679931640625	0.0	463.76600302755701932255760766565799713134765625	0.0	1	1	1	1
8197	S6	2019	12	8	13	31.518116341696799764804381993599236011505126953125	0.307352957046694019727084423720953054726123809814453125	31.6527088801066014411844662390649318695068359375	8.8333334339989502126400111592374742031097412109375	90.596111509535006689475267194211483001708984375	5.87444445225926958897844087914563715457916259765625	30.149999974916301681560071301646530628204345703125	0.0	883.343321271240029091131873428821563720703125	0.0	1	1	1	1
8198	S6	2019	12	8	14	24.2357078817154985017623403109610080718994140625	0.31030652895569799110120356999686919152736663818359375	24.3273541026645006013495731167495250701904296875	9.2111111164093006919983963598497211933135986328125	90.89388868543829858026583679020404815673828125	5.46166666348775020622952069970779120922088623046875	20.68333343292270143365385592915117740631103515625	0.0	612.0650794357039785609231330454349517822265625	0.0	1	1	1	1
8199	S6	2019	12	8	15	24.7710425747765015103141195140779018402099609375	0.5244222137249170412331977786379866302013397216796875	24.824618124961798315553096472285687923431396484375	9.6511111206478492618998643592931330204010009765625	87.424444622463596488159964792430400848388671875	5.12777778373823966973077403963543474674224853515625	24.450000142678600667522914591245353221893310546875	0.0	656.73306994140102688106708228588104248046875	0.0	1	1	1	1
8200	S6	2019	12	8	16	7.67751542232822981048911969992332160472869873046875	0.290909653894924014050360483452095650136470794677734375	7.78485170848060992199179963790811598300933837890625	9.79617227435682025316054932773113250732421875	85.200000343140203540315269492566585540771484375	4.67942583047601967649598009302280843257904052734375	3.36666671986071008859653375111520290374755859375	0.0	114.82127196310699446257785893976688385009765625	0.0	1	1	1	1
8201	S6	2019	12	8	17	0	0	0	0	0	0	0	0.0	0	0.0	1	1	1	0
8202	S6	2019	12	8	18	0	0	0	0	0	0	0	0.0	0	0.0	1	1	1	0
8203	S6	2019	12	8	19	0	0	0	0	0	0	0	0.0	0	0.0	1	1	1	0
8204	S6	2019	12	8	20	0	0	0	0	0	0	0	0.0	0	0.0	1	1	1	0
8205	S6	2019	12	8	21	0	0	0	0	0	0	0	0.0	0	0.0	1	1	1	0
8206	S6	2019	12	8	22	0	0	0	0	0	0	0	0.0	0	0.0	1	1	1	0
8207	S6	2019	12	8	23	0	0	0	0	0	0	0	0.0	0	0.0	1	1	1	0
8208	S6	2019	12	8	24	0	0	0	0	0	0	0	0.0	0	0.0	1	1	1	0
8209	S6	2019	12	9	1	0	0	0	0	0	0	0	0.0	0	0.0	1	1	1	0
8210	S6	2019	12	9	2	0	0	0	0	0	0	0	0.0	0	0.0	1	1	1	0
8211	S6	2019	12	9	3	0	0	0	0	0	0	0	0.0	0	0.0	1	1	1	0
8212	S6	2019	12	9	4	0	0	0	0	0	0	0	0.0	0	0.0	1	1	1	0
8213	S6	2019	12	9	5	0	0	0	0	0	0	0	0.0	0	0.0	1	1	1	0
8214	S6	2019	12	9	6	0	0	0	0	0	0	0	0.0	0	0.0	1	1	1	0
8215	S6	2019	12	9	7	0	0	0	0	0	0	0	0.0	0	0.0	1	1	1	0
8216	S6	2019	12	9	8	0	0	0	0	0	0	0	0.0	0	0.0	1	1	1	0
8217	S6	2019	12	9	9	3.92189025159539017550969219882972538471221923828125	0.341584198433777019854318268698989413678646087646484375	3.999270208950699956318430849933065474033355712890625	7.14999985694884987452724089962430298328399658203125	81.1241380757299026527107344008982181549072265625	4.7525861838768204137295469990931451320648193359375	2.000000046488520144549738688510842621326446533203125	0.0	60.83127285043409671061453991569578647613525390625	0.0	1	1	1	1
8218	S6	2019	12	9	10	29.632227640402899027094463235698640346527099609375	0.281715219883297007807954059899202547967433929443359375	29.789943596250100910083347116596996784210205078125	7.19703936576842995265224089962430298328399658203125	81.6230265215823038715825532563030719757080078125	4.64868422087869959113959339447319507598876953125	25.46666685181349976119236089289188385009765625	0.0	826.958073768764961641863919794559478759765625	0.0	1	1	1	1
8219	S6	2019	12	9	11	28.930470616949900630743286455981433391571044921875	0.350776530564245014875979222779278643429279327392578125	29.134092481268698549001783248968422412872314453125	6.70499994754791028839235877967439591884613037109375	87.691667175292906222239253111183643341064453125	4.91416666309037974968987327883951365947723388671875	34.83333314458530338697528350166976451873779296875	0.0	1082.393856098249898423091508448123931884765625	0.0	1	1	1	1
8220	S6	2019	12	9	12	90.89276409419329638694762252271175384521484375	11.18213974447549929891465581022202968597412109375	89.0608597558212977673974819481372833251953125	7.405475554617400035795071744360029697418212890625	84.2266290680882008246044279076159000396728515625	4.85561959784724006539136098581366240978240966796875	83.78333337604999542236328125	0.0	2689.42952205736992254969663918018341064453125	0.0	1	1	1	1
8221	S6	2019	12	9	13	55.16855431132839981955839903093874454498291015625	0.361977429646584025757505287401727400720119476318359375	55.4230846616955972194773494265973567962646484375	7.38044699343889032405741090769879519939422607421875	84.6716668870713959904605871997773647308349609375	4.15418995725374973204679918126203119754791259765625	50.06666689490290167441344237886369228363037109375	0.0	1443.013825019200112365069799125194549560546875	0.0	1	1	1	1
8222	S6	2019	12	9	14	75.4449333958119012777387979440391063690185546875	26.5312337500756001418267260305583477020263671875	70.5077164293001033001928590238094329833984375	7.62290491072158982177597863483242690563201904296875	81.884637353140504956172662787139415740966796875	4.18435753840307977924339866149239242076873779296875	99.000000581145201294930302537977695465087890625	0.0	2387.5348110993700174731202423572540283203125	0.0	1	1	1	1
8223	S6	2019	12	9	15	37.49718636518330328044612542726099491119384765625	14.589880719960600430340491584502160549163818359375	36.053075338664797300225473009049892425537109375	7.29766074398107011944603073061443865299224853515625	85.4622809649907964058002107776701450347900390625	3.70614034739153996866889428929425776004791259765625	44.75000013286869915418719756416976451873779296875	0.0	1016.2466255327000226316158659756183624267578125	0.0	1	1	1	1
8224	S6	2019	12	9	16	14.494892013883099224358375067822635173797607421875	15.4823436988065008534931621397845447063446044921875	13.6268686877871001428275121725164353847503662109375	6.981067979220039632082261960022151470184326171875	85.9092235750365063040590030141174793243408203125	3.48058251790630013289273847476579248905181884765625	9.0666667053786493823963610338978469371795654296875	0.0	253.66483008644200936032575555145740509033203125	0.0	1	1	1	1
8225	S6	2019	12	9	17	0	0	0	0	0	0	0	0.0	0	0.0	1	1	1	0
8226	S6	2019	12	9	18	0	0	0	0	0	0	0	0.0	0	0.0	1	1	1	0
8227	S6	2019	12	9	19	0	0	0	0	0	0	0	0.0	0	0.0	1	1	1	0
8228	S6	2019	12	9	20	0	0	0	0	0	0	0	0.0	0	0.0	1	1	1	0
8229	S6	2019	12	9	21	0	0	0	0	0	0	0	0.0	0	0.0	1	1	1	0
8230	S6	2019	12	9	22	0	0	0	0	0	0	0	0.0	0	0.0	1	1	1	0
8231	S6	2019	12	9	23	0	0	0	0	0	0	0	0.0	0	0.0	1	1	1	0
8232	S6	2019	12	9	24	0	0	0	0	0	0	0	0.0	0	0.0	1	1	1	0
8233	S6	2019	12	10	1	0	0	0	0	0	0	0	0.0	0	0.0	1	1	1	0
8234	S6	2019	12	10	2	0	0	0	0	0	0	0	0.0	0	0.0	1	1	1	0
8235	S6	2019	12	10	3	0	0	0	0	0	0	0	0.0	0	0.0	1	1	1	0
8236	S6	2019	12	10	4	0	0	0	0	0	0	0	0.0	0	0.0	1	1	1	0
8237	S6	2019	12	10	5	0	0	0	0	0	0	0	0.0	0	0.0	1	1	1	0
8238	S6	2019	12	10	6	0	0	0	0	0	0	0	0.0	0	0.0	1	1	1	0
8239	S6	2019	12	10	7	0	0	0	0	0	0	0	0.0	0	0.0	1	1	1	0
8240	S6	2019	12	10	8	0	0	0	0	0	0	0	0.0	0	0.0	1	1	1	0
8241	S6	2019	12	10	9	16.653700275926400564685536664910614490509033203125	131.69130089504000125089078210294246673583984375	11.108503944826399134626626619137823581695556640625	1.868211927792879922805013848119415342807769775390625	77.3443712651334038810091442428529262542724609375	1.01523178934260993599991707014851272106170654296875	5.2000001034078398021165412501432001590728759765625	0.0	222.87245357098601061807130463421344757080078125	0.0	1	1	1	0
8242	S6	2019	12	10	10	59.21054094681159796209612977690994739532470703125	342.606584089380021396209485828876495361328125	25.7420807522318995097521110437810420989990234375	2.65793870152868993983474865672178566455841064453125	76.808356962496105779791832901537418365478515625	1.1707520905809400968422551159164868295192718505859375	26.55000009884440004270800272934138774871826171875	0.0	1075.6516478955700222286395728588104248046875	0.0	1	1	1	1
8243	S6	2019	12	10	11	126.118309169344996689687832258641719818115234375	562.7899133470319839034345932304859161376953125	38.465551948547300753489253111183643341064453125	3.8791666746139501498191748396493494510650634765625	74.189166196187301238751388154923915863037109375	0.84194444475902396884947620492312125861644744873046875	41.31666639198849821923431591130793094635009765625	0.0	5175.2965100109504419378936290740966796875	0.0	1	1	1	1
8244	S6	2019	12	10	12	165.866494242350000831720535643398761749267578125	605.356742858886036628973670303821563720703125	49.540849929385700534112402237951755523681640625	4.9041667222976599305184208787977695465087890625	70.7041665395100977775655337609350681304931640625	1.2858333327703999060531714349053800106048583984375	125.4833329468959988162168883718550205230712890625	0.0	6306.4129953582896632724441587924957275390625	0.0	1	1	1	1
8245	S6	2019	12	10	13	153.7789891984720043183187954127788543701171875	512.325978427463041953160427510738372802734375	53.8211915757920991154605871997773647308349609375	5.1908333778381301470972175593487918376922607421875	69.921666463216098463817615993320941925048828125	1.629444443020549915246419914183206856250762939453125	404.35000111659297772348509170114994049072265625	0.0	5934.55759783585017430596053600311279296875	0.0	1	1	1	1
8246	S6	2019	12	10	14	129.67659772237101378777879290282726287841796875	460.05133349100697159883566200733184814453125	53.17153644561759762154906638897955417633056640625	5.36583344539006024120908477925695478916168212890625	73.0266669591267003625034703873097896575927734375	2.106388882050910016374700717278756201267242431640625	341.4833334585019883888890035450458526611328125	0.0	5116.6357020537097923806868493556976318359375	0.0	1	1	1	1
8247	S6	2019	12	10	15	57.59423084259029934628415503539144992828369140625	96.6920738945403996922323131002485752105712890625	45.28549156718779755692594335414469242095947265625	4.85833330154418963076068394002504646778106689453125	77.2966663996378002821074915118515491485595703125	1.9283333258496300199880124637275002896785736083984375	103.11666671186600297005497850477695465087890625	0.0	1958.914071818179991169017739593982696533203125	0.0	1	1	1	1
8248	S6	2019	12	10	16	16.331491281004499427353948703967034816741943359375	0.9605795105590539950668471647077240049839019775390625	16.29128455180740076002621208317577838897705078125	4.3602940895978097302077003405429422855377197265625	80.6838236416086971303229802288115024566650390625	1.376960782297679930508138568256981670856475830078125	8.8666667928919107311003244831226766109466552734375	0.0	274.8016807328280037836520932614803314208984375	0.0	1	1	1	1
8249	S6	2019	12	10	17	0	0	0	0	0	0	0	0.0	0	0.0	1	1	1	0
8250	S6	2019	12	10	18	0	0	0	0	0	0	0	0.0	0	0.0	1	1	1	0
8251	S6	2019	12	10	19	0	0	0	0	0	0	0	0.0	0	0.0	1	1	1	0
8252	S6	2019	12	10	20	0	0	0	0	0	0	0	0.0	0	0.0	1	1	1	0
8253	S6	2019	12	10	21	0	0	0	0	0	0	0	0.0	0	0.0	1	1	1	0
8254	S6	2019	12	10	22	0	0	0	0	0	0	0	0.0	0	0.0	1	1	1	0
8255	S6	2019	12	10	23	0	0	0	0	0	0	0	0.0	0	0.0	1	1	1	0
8256	S6	2019	12	10	24	0	0	0	0	0	0	0	0.0	0	0.0	1	1	1	0
8257	S6	2019	12	11	1	0	0	0	0	0	0	0	0.0	0	0.0	1	1	1	0
8258	S6	2019	12	11	2	0	0	0	0	0	0	0	0.0	0	0.0	1	1	1	0
8259	S6	2019	12	11	3	0	0	0	0	0	0	0	0.0	0	0.0	1	1	1	0
8260	S6	2019	12	11	4	0	0	0	0	0	0	0	0.0	0	0.0	1	1	1	0
8261	S6	2019	12	11	5	0	0	0	0	0	0	0	0.0	0	0.0	1	1	1	0
8262	S6	2019	12	11	6	0	0	0	0	0	0	0	0.0	0	0.0	1	1	1	0
8263	S6	2019	12	11	7	0	0	0	0	0	0	0	0.0	0	0.0	1	1	1	0
8264	S6	2019	12	11	8	0	0	0	0	0	0	0	0.0	0	0.0	1	1	1	0
8265	S6	2019	12	11	9	4.0452313010937697157487491494975984096527099609375	0.285992429495970978958752084508887492120265960693359375	4.14376915281064039930924991494975984096527099609375	5.05327097723417040242566145025193691253662109375	90.5897198971185986238197074271738529205322265625	4.84766355184750974416374447173438966274261474609375	1.38333336217328994877107106731273233890533447265625	0.0	38.81756166617069681024076999165117740631103515625	0.0	1	1	1	0
8266	S6	2019	12	11	10	9.7922194600105196826689279987476766109466552734375	0.301871780471669015621927201209473423659801483154296875	9.9295621924930106416695707594044506549835205078125	5.3191667185889297542189524392597377300262451171875	91.360555860731295751975267194211483001708984375	4.30916665395100029201103097875602543354034423828125	9.0333333704620297766041403519921004772186279296875	0.0	271.598996408283028358709998428821563720703125	0.0	1	1	1	1
8267	S6	2019	12	11	11	20.828716593318500116538416477851569652557373046875	0.319790826034213993001031894891639240086078643798828125	21.08549003336160154731260263361036777496337890625	5.7286111381318800539474977995269000530242919921875	91.5313890457153007673696265555918216705322265625	3.96055555707877982030140628921799361705780029296875	19.366666302084798445548585732467472553253173828125	0.0	574.713367223738032407709397375583648681640625	0.0	1	1	1	1
8268	S6	2019	12	11	12	26.671149926715401079491130076348781585693359375	0.310828402762610978005142214897205121815204620361328125	26.8587670432196006231606588698923587799072265625	5.89305564959842964611880233860574662685394287109375	92.5691676033867025807921891100704669952392578125	3.1105555494626297985405471990816295146942138671875	24.600000089655299717605885234661400318145751953125	0.0	728.8805864751329863793216645717620849609375	0.0	1	1	1	1
8269	S6	2019	12	11	13	34.37672106424960105641730478964745998382568359375	0.32350746451152601057543733986676670610904693603515625	34.64022462632919996394775807857513427734375	6.11416659620072966419002113980241119861602783203125	92.669444550408201166646904312074184417724609375	2.710833328962320099009275509160943329334259033203125	31.683333435406300537806600914336740970611572265625	0.0	928.0745973189669939529267139732837677001953125	0.0	1	1	1	1
8270	S6	2019	12	11	14	26.03640139897660077394903055392205715179443359375	0.29173306152224498521974282994051463901996612548828125	26.282560231950501616893234313465654850006103515625	6.28666674296060978832656473969109356403350830078125	92.2019435246784979653966729529201984405517578125	2.290833330237199927381652742042206227779388427734375	22.766666611035599743217971990816295146942138671875	0.0	669.535047064224045243463478982448577880859375	0.0	1	1	1	1
8271	S6	2019	12	11	15	16.166692892710301521219662390649318695068359375	0.26983474815885200026599477496347390115261077880859375	16.340582092603000319286365993320941925048828125	6.12083325121137011848304609884507954120635986328125	92.7711114035711972292119753547012805938720703125	2.404999991589119812118724439642392098903656005859375	13.766666843245399576289855758659541606903076171875	0.0	395.96050021548899167100898921489715576171875	0.0	1	1	1	1
8272	S6	2019	12	11	16	5.693784393015359768241978599689900875091552734375	0.255315637517542992629415721239638514816761016845703125	5.78153191464287008471956141875125467777252197265625	6.02571426119123021436507769976742565631866455078125	93.275238000778898594944621436297893524169921875	2.526666663941880219823588049621321260929107666015625	2.0500000197595600326394560397602617740631103515625	0.0	58.5833782873424979698029346764087677001953125	0.0	1	1	1	1
8273	S6	2019	12	11	17	0	0	0	0	0	0	0	0.0	0	0.0	1	1	1	0
8274	S6	2019	12	11	18	0	0	0	0	0	0	0	0.0	0	0.0	1	1	1	0
8275	S6	2019	12	11	19	0	0	0	0	0	0	0	0.0	0	0.0	1	1	1	0
8276	S6	2019	12	11	20	0	0	0	0	0	0	0	0.0	0	0.0	1	1	1	0
8277	S6	2019	12	11	21	0	0	0	0	0	0	0	0.0	0	0.0	1	1	1	0
8278	S6	2019	12	11	22	0	0	0	0	0	0	0	0.0	0	0.0	1	1	1	0
8279	S6	2019	12	11	23	0	0	0	0	0	0	0	0.0	0	0.0	1	1	1	0
8280	S6	2019	12	11	24	0	0	0	0	0	0	0	0.0	0	0.0	1	1	1	0
8281	S6	2019	12	12	1	0	0	0	0	0	0	0	0.0	0	0.0	1	1	1	0
8282	S6	2019	12	12	2	0	0	0	0	0	0	0	0.0	0	0.0	1	1	1	0
8283	S6	2019	12	12	3	0	0	0	0	0	0	0	0.0	0	0.0	1	1	1	0
8284	S6	2019	12	12	4	0	0	0	0	0	0	0	0.0	0	0.0	1	1	1	0
8285	S6	2019	12	12	5	0	0	0	0	0	0	0	0.0	0	0.0	1	1	1	0
8286	S6	2019	12	12	6	0	0	0	0	0	0	0	0.0	0	0.0	1	1	1	0
8287	S6	2019	12	12	7	0	0	0	0	0	0	0	0.0	0	0.0	1	1	1	0
8288	S6	2019	12	12	8	0	0	0	0	0	0	0	0.0	0	0.0	1	1	1	0
8289	S6	2019	12	12	9	4.571145445959899689114536158740520477294921875	0.267451773477452026117617833733675070106983184814453125	4.6957562846796800926085779792629182338714599609375	4.74785712446484975401972405961714684963226318359375	94.780716105869800003347336314618587493896484375	1.36571428860936006088877547881565988063812255859375	1.9166666820334901100153501829481683671474456787109375	0.0	53.20891528390350089239291264675557613372802734375	0.0	1	1	1	0
8290	S6	2019	12	12	10	30.745230299896601167120024911127984523773193359375	0.3465752612385479825007905674283392727375030517578125	30.928862064414499144504588912241160869598388671875	4.83250009483761022721637345966883003711700439453125	94.6530551486545022044083452783524990081787109375	1.2350000004801400255161070163012482225894927978515625	33.83333333767949824277820880524814128875732421875	0.0	982.30386190116405487060546875	0.0	1	1	1	1
8291	S6	2019	12	12	11	63.24905175103079812970463535748422145843505859375	2.160595319192439855982001972733996808528900146484375	63.1448582437302974312842707149684429168701171875	5.2091666009691000027714835596270859241485595703125	93.5713892830741968964503030292689800262451171875	1.6536111096540999643167424437706358730792999267578125	63.7499999875821004025056026875972747802734375	0.0	1871.070372064900084296823479235172271728515625	0.0	1	1	1	1
8292	S6	2019	12	12	12	69.9508377710977953256588079966604709625244140625	0.5671070806682110276852881725062616169452667236328125	70.077561696370395338817615993320941925048828125	5.613888835906980290246792719699442386627197265625	92.32944441901310028697480447590351104736328125	1.759444441563549954565814914531074464321136474609375	72.4499999235072067449436872266232967376708984375	0.0	2005.53139845529995000106282532215118408203125	0.0	1	1	1	1
8293	S6	2019	12	12	13	102.6191547499760048367534182034432888031005859375	53.1703592317798978683640598319470882415771484375	90.804859214358799590627313591539859771728515625	5.92611117230520978438335077953524887561798095703125	87.5116665098401966815799823962152004241943359375	2.050277776850589983581585329375229775905609130859375	137.86666654050299030132009647786617279052734375	0.0	3249.181700249509958666749298572540283203125	0.0	1	1	1	1
8294	S6	2019	12	12	14	62.988056427939596915166475810110569000244140625	1.015321761785930032573332937317900359630584716796875	62.83793216577449669557609013281762599945068359375	5.8804469867791500092835121904499828815460205078125	84.94385502991059411215246655046939849853515625	2.525418989818180026674099281080998480319976806640625	60.63333315153899860661113052628934383392333984375	0.0	1720.515885949130051812971942126750946044921875	0.0	1	1	1	1
8295	S6	2019	12	12	15	24.17325971921280114429464447312057018280029296875	0.246569439286961011870147331137559376657009124755859375	24.2752359999550009206359391100704669952392578125	5.4499999933772595994696530397050082683563232421875	87.0605558183458043686187011189758777618408203125	2.31805554611815001209151887451298534870147705078125	19.76666672465700003158417530357837677001953125	0.0	582.1319296335169610756565816700458526611328125	0.0	1	1	1	1
8296	S6	2019	12	12	16	6.25534117562429958780967353959567844867706298828125	0.2673088926928379738257035569404251873493194580078125	6.43876877103533029611526217195205390453338623046875	5.17257134573799959298412431962788105010986328125	89.4862846156529059271633741445839405059814453125	1.918285720178050102191491532721556723117828369140625	2.100000016313659845224037781008519232273101806640625	0.0	76.999649878901806232533999718725681304931640625	0.0	1	1	1	1
8297	S6	2019	12	12	17	0	0	0	0	0	0	0	0.0	0	0.0	1	1	1	0
8298	S6	2019	12	12	18	0	0	0	0	0	0	0	0.0	0	0.0	1	1	1	0
8299	S6	2019	12	12	19	0	0	0	0	0	0	0	0.0	0	0.0	1	1	1	0
8300	S6	2019	12	12	20	0	0	0	0	0	0	0	0.0	0	0.0	1	1	1	0
8301	S6	2019	12	12	21	0	0	0	0	0	0	0	0.0	0	0.0	1	1	1	0
8302	S6	2019	12	12	22	0	0	0	0	0	0	0	0.0	0	0.0	1	1	1	0
8303	S6	2019	12	12	23	0	0	0	0	0	0	0	0.0	0	0.0	1	1	1	0
8304	S6	2019	12	12	24	0	0	0	0	0	0	0	0.0	0	0.0	1	1	1	0
8305	S6	2019	12	13	1	0	0	0	0	0	0	0	0.0	0	0.0	1	1	1	0
8306	S6	2019	12	13	2	0	0	0	0	0	0	0	0.0	0	0.0	1	1	1	0
8307	S6	2019	12	13	3	0	0	0	0	0	0	0	0.0	0	0.0	1	1	1	0
8308	S6	2019	12	13	4	0	0	0	0	0	0	0	0.0	0	0.0	1	1	1	0
8309	S6	2019	12	13	5	0	0	0	0	0	0	0	0.0	0	0.0	1	1	1	0
8310	S6	2019	12	13	6	0	0	0	0	0	0	0	0.0	0	0.0	1	1	1	0
8311	S6	2019	12	13	7	0	0	0	0	0	0	0	0.0	0	0.0	1	1	1	0
8312	S6	2019	12	13	8	0	0	0	0	0	0	0	0.0	0	0.0	1	1	1	0
8313	S6	2019	12	13	9	4.24438786506652032670672269887290894985198974609375	0.31197901876694500433728762800456024706363677978515625	4.33577071198628960502219342743046581745147705078125	5.36605512986488975002430379390716552734375	79.2981654875868997578436392359435558319091796875	3.326605500431230044711128357448615133762359619140625	1.63333336046586996559426552266813814640045166015625	0.0	40.5528482981026030529392301104962825775146484375	0.0	1	1	1	0
8314	S6	2019	12	13	10	16.482571344905398547098229755647480487823486328125	0.3461590439495110249623621712089516222476959228515625	16.590745815965799891955612110905349254608154296875	5.5030555526415501077508451999165117740631103515625	78.545000055101098723753239028155803680419921875	3.494444437821699889212823109119199216365814208984375	16.099999922638101423899570363573729991912841796875	0.0	452.93155188361697582877241075038909912109375	0.0	1	1	1	1
8315	S6	2019	12	13	11	53.2237478097278966515659703873097896575927734375	14.012605968904100706140525289811193943023681640625	51.26843305163910002875127247534692287445068359375	5.41361117760339993765228427946567535400390625	79.3508330663045029496061033569276332855224609375	3.485000001390770041354016939294524490833282470703125	49.6666670156021012871860875748097896575927734375	0.0	1512.275746216369952890090644359588623046875	0.0	1	1	1	1
8316	S6	2019	12	13	12	24.316455242368899547500404878519475460052490234375	0.304115210059616003501758996208081953227519989013671875	24.421829639540700185307287028990685939788818359375	5.27222232156328995955618665902875363826751708984375	78.9480561998154968250673846341669559478759765625	3.41166666315660993546998724923469126224517822265625	20.700000055755200634166612871922552585601806640625	0.0	599.79341470946701520006172358989715576171875	0.0	1	1	1	1
8317	S6	2019	12	13	13	18.368036246299698888151397113688290119171142578125	0.2888632850100589788411298286519013345241546630859375	18.44302401542660163613618351519107818603515625	5.28583335346645011298960525891743600368499755859375	78.974721993340295966845587827265262603759765625	2.97277777327431014242620221921242773532867431640625	16.150000055010099941910084453411400318145751953125	0.0	475.43073693911100008335779421031475067138671875	0.0	1	1	1	1
8318	S6	2019	12	13	14	30.041935467719998342772669275291264057159423828125	0.471562799480226002568628018707386218011379241943359375	30.033825355105900456464951275847852230072021484375	5.5047222177187595804070951999165117740631103515625	79.3227780448064976326350006274878978729248046875	3.594444436497150174858461468829773366451263427734375	30.549999962871201120151454233564436435699462890625	0.0	862.5548362731930183144868351519107818603515625	0.0	1	1	1	1
8319	S6	2019	12	13	15	26.8649476077820992259148624725639820098876953125	0.29160890839993902634574851617799140512943267822265625	26.924455857276900161423327517695724964141845703125	5.4408333579699199589185809600166976451873779296875	79.85388859642870329480501823127269744873046875	3.406111103130709860664637744775973260402679443359375	22.85000033055739976362019660882651805877685546875	0.0	657.2933038075749436757178045809268951416015625	0.0	1	1	1	1
8320	S6	2019	12	13	16	6.4982836957161200786003973917104303836822509765625	0.2873979084050419796625419621705077588558197021484375	6.556863521154109974986567976884543895721435546875	5.24663463005652008774859496043063700199127197265625	79.3923077950110069878064678050577640533447265625	3.211538463257820108509577039512805640697479248046875	2.23333336956175987353390155476517975330352783203125	0.0	68.59303188199800160873564891517162322998046875	0.0	1	1	1	1
8321	S6	2019	12	13	17	0	0	0	0	0	0	0	0.0	0	0.0	1	1	1	0
8322	S6	2019	12	13	18	0	0	0	0	0	0	0	0.0	0	0.0	1	1	1	0
8323	S6	2019	12	13	19	0	0	0	0	0	0	0	0.0	0	0.0	1	1	1	0
8324	S6	2019	12	13	20	0	0	0	0	0	0	0	0.0	0	0.0	1	1	1	0
8325	S6	2019	12	13	21	0	0	0	0	0	0	0	0.0	0	0.0	1	1	1	0
8326	S6	2019	12	13	22	0	0	0	0	0	0	0	0.0	0	0.0	1	1	1	0
8327	S6	2019	12	13	23	0	0	0	0	0	0	0	0.0	0	0.0	1	1	1	0
8328	S6	2019	12	13	24	0	0	0	0	0	0	0	0.0	0	0.0	1	1	1	0
8329	S6	2019	12	14	1	0	0	0	0	0	0	0	0.0	0	0.0	1	1	1	0
8330	S6	2019	12	14	2	0	0	0	0	0	0	0	0.0	0	0.0	1	1	1	0
8331	S6	2019	12	14	3	0	0	0	0	0	0	0	0.0	0	0.0	1	1	1	0
8332	S6	2019	12	14	4	0	0	0	0	0	0	0	0.0	0	0.0	1	1	1	0
8333	S6	2019	12	14	5	0	0	0	0	0	0	0	0.0	0	0.0	1	1	1	0
8334	S6	2019	12	14	6	0	0	0	0	0	0	0	0.0	0	0.0	1	1	1	0
8335	S6	2019	12	14	7	0	0	0	0	0	0	0	0.0	0	0.0	1	1	1	0
8336	S6	2019	12	14	8	0	0	0	0	0	0	0	0.0	0	0.0	1	1	1	0
8337	S6	2019	12	14	9	2.511026268166700159412130233249627053737640380859375	0.20939562520138299550609417565283365547657012939453125	2.525813470209449906889176418189890682697296142578125	2.9842105413738000407875006203539669513702392578125	91.083457545230203322716988623142242431640625	3.066165423931030087345561696565710008144378662109375	0.70000002548719597594839569865143857896327972412109375	0.0	20.98900321094929921628136071376502513885498046875	0.0	1	1	1	0
8338	S6	2019	12	14	10	12.2968409736950992083848177571780979633331298828125	0.24623374171141099164827892309403978288173675537109375	12.338039924038699979291777708567678928375244140625	2.5027777804268698247369684395380318164825439453125	91.87083346048990506460540927946567535400390625	2.78888888557751979391241548000834882259368896484375	11.1166666649902001751115676597692072391510009765625	0.0	344.9140315875409896761993877589702606201171875	0.0	1	1	1	1
8339	S6	2019	12	14	11	21.755139085981500812749800388701260089874267578125	0.356922221763265989924462928684079088270664215087890625	21.895322979821099096398029359988868236541748046875	2.698055555423100049239337749895639717578887939453125	92.8349998050264986204638262279331684112548828125	2.432499992185160220259376728790812194347381591796875	19.899999940146898325110669247806072235107421875	0.0	580.968728040654013966559432446956634521484375	0.0	1	1	1	1
8340	S6	2019	12	14	12	40.256440697775900616761646233499050140380859375	0.470493599358532021970091818729997612535953521728515625	40.4837540679506986407432123087346553802490234375	3.58749999403953001575473535922355949878692626953125	94.11944488949239939756807871162891387939453125	2.352222218612829873762848365004174411296844482421875	38.26666663711259985802826122380793094635009765625	0.0	1097.295188655449919679085724055767059326171875	0.0	1	1	1	1
8341	S6	2019	12	14	13	38.0210882345835017304125358350574970245361328125	0.365713668117919998845621876171207986772060394287109375	38.243042776319697395592811517417430877685546875	4.59388886027865961381166926003061234951019287109375	93.5058329264322054541480611078441143035888671875	2.313888889054450004323371103964745998382568359375	36.33333351463080163057384197600185871124267578125	0.0	1038.3339976270899569499306380748748779296875	0.0	1	1	1	1
8342	S6	2019	12	14	14	42.1961950884925016680426779203116893768310546875	0.332771911554866017812770451200776733458042144775390625	42.33282046847870105921174399554729461669921875	5.0288888613382898284953625989146530628204345703125	90.3597220950656065951989148743450641632080078125	3.62444444563652989899082967895083129405975341796875	37.7666668190310019781463779509067535400390625	0.0	1084.68424802024992459337227046489715576171875	0.0	1	1	1	1
8343	S6	2019	12	14	15	12.0831243409049999826265775482170283794403076171875	0.250074693250159019175526964318123646080493927001953125	12.2730245563718991519408518797717988491058349609375	4.82083337836794978414900469942949712276458740234375	89.498055246141205998355871997773647308349609375	3.461388891604209927521651479764841496944427490234375	8.9833334321156304014266424928791821002960205078125	0.0	278.90268477300702443244517780840396881103515625	0.0	1	1	1	1
8344	S6	2019	12	14	16	4.8132505554684303916701537673361599445343017578125	0.261910489098184984246842077482142485678195953369140625	4.93927908770610013533541859942488372325897216796875	4.75664744349572998771691345609724521636962890625	91.341039315813503662866423837840557098388671875	3.110982663369589840129947333480231463909149169921875	1.5833333871948200854973265450098551809787750244140625	0.0	56.691293472734599845352931879460811614990234375	0.0	1	1	1	1
8345	S6	2019	12	14	17	0	0	0	0	0	0	0	0.0	0	0.0	1	1	1	0
8346	S6	2019	12	14	18	0	0	0	0	0	0	0	0.0	0	0.0	1	1	1	0
8347	S6	2019	12	14	19	0	0	0	0	0	0	0	0.0	0	0.0	1	1	1	0
8348	S6	2019	12	14	20	0	0	0	0	0	0	0	0.0	0	0.0	1	1	1	0
8349	S6	2019	12	14	21	0	0	0	0	0	0	0	0.0	0	0.0	1	1	1	0
8350	S6	2019	12	14	22	0	0	0	0	0	0	0	0.0	0	0.0	1	1	1	0
8351	S6	2019	12	14	23	0	0	0	0	0	0	0	0.0	0	0.0	1	1	1	0
8352	S6	2019	12	14	24	0	0	0	0	0	0	0	0.0	0	0.0	1	1	1	0
8353	S6	2019	12	15	1	0	0	0	0	0	0	0	0.0	0	0.0	1	1	1	0
8354	S6	2019	12	15	2	0	0	0	0	0	0	0	0.0	0	0.0	1	1	1	0
8355	S6	2019	12	15	3	0	0	0	0	0	0	0	0.0	0	0.0	1	1	1	0
8356	S6	2019	12	15	4	0	0	0	0	0	0	0	0.0	0	0.0	1	1	1	0
8357	S6	2019	12	15	5	0	0	0	0	0	0	0	0.0	0	0.0	1	1	1	0
8358	S6	2019	12	15	6	0	0	0	0	0	0	0	0.0	0	0.0	1	1	1	0
8359	S6	2019	12	15	7	0	0	0	0	0	0	0	0.0	0	0.0	1	1	1	0
8360	S6	2019	12	15	8	0	0	0	0	0	0	0	0.0	0	0.0	1	1	1	0
8361	S6	2019	12	15	9	1.86082463973276990287786247790791094303131103515625	0.230582945652909987455103646425413899123668670654296875	1.932208879573920068395409543882124125957489013671875	4.0594594027545003456225458648987114429473876953125	84.7432446866421997810903121717274188995361328125	3.49459456753085984104245653725229203701019287109375	0.266666679332661027412854082285775803029537200927734375	0.0	5.02435163750003965787982451729476451873779296875	0.0	1	1	1	0
8362	S6	2019	12	15	10	7.9536800879199400782226803130470216274261474609375	0.29203174957612698658948602314922027289867401123046875	8.074328289550980031208382570184767246246337890625	4.30986398580122997969965581432916224002838134765625	84.5523803866638985482495627366006374359130859375	3.50748299640051985903710374259389936923980712890625	6.8500000479010196841045399196445941925048828125	0.0	213.07294231373799675566260702908039093017578125	0.0	1	1	1	1
8363	S6	2019	12	15	11	21.244368516609601016398300998844206333160400390625	0.28573319473506997301370802233577705919742584228515625	21.358754774419200117563377716578543186187744140625	4.8975000321864996521981083787977695465087890625	84.279093433340193541880580596625804901123046875	4.491103195635020028930739499628543853759765625	15.7666668218249999000590833020396530628204345703125	0.0	497.210255544631991142523474991321563720703125	0.0	1	1	1	1
8364	S6	2019	12	15	12	19.877097318654701751938773668371140956878662109375	0.30557999604094998602477062377147376537322998046875	19.926734232834601101558291702531278133392333984375	3.9819277086889801609004280180670320987701416015625	90.6794868317085018816214869730174541473388671875	5.6192192272380996342917569563724100589752197265625	19.41666677594179901689130929298698902130126953125	0.0	564.7313332806030530264251865446567535400390625	0.0	1	1	1	1
8365	S6	2019	12	15	13	32.53765941673599826344798202626407146453857421875	0.47390317132657100440695785437128506600856781005859375	32.58730560087820293801996740512549877166748046875	5.12698868458921008794959561782889068126678466796875	93.262816888513697222151677124202251434326171875	4.7966005697466496116021517082117497920989990234375	34.25000027442970207403050153516232967376708984375	0.0	1005.571636433400044552399776875972747802734375	0.0	1	1	1	1
8366	S6	2019	12	15	14	60.68907074551830049813361256383359432220458984375	24.084821952862199623268679715692996978759765625	57.64429764371160302971475175581872463226318359375	4.79306926506974040336217512958683073520660400390625	88.80296029542620317442924715578556060791015625	5.06006600754488999882596544921398162841796875	66.016666932652498189781908877193927764892578125	0.0	1618.909722318250032913056202232837677001953125	0.0	1	1	1	1
8367	S6	2019	12	15	15	34.04780120054879688495930167846381664276123046875	9.2840699286303500770145546994172036647796630859375	32.923896699481502992057357914745807647705078125	5.9244444237814999354441169998608529567718505859375	81.1722218407524991334867081604897975921630859375	5.51277778413559982340075293905101716518402099609375	40.1833334006367977053741924464702606201171875	0.0	980.9482416138049529763520695269107818603515625	0.0	1	1	1	1
8368	S6	2019	12	15	16	7.87437832296775042095759999938309192657470703125	0.27225309607614101015116148118977434933185577392578125	7.77139002701331005340534829883836209774017333984375	6.5344827257353603755518633988685905933380126953125	78.3679805811990064512428943999111652374267578125	5.7073891656152095919196653994731605052947998046875	3.233333349150279811823338604881428182125091552734375	0.0	116.4809700567270027704580570571124553680419921875	0.0	1	1	1	1
8369	S6	2019	12	15	17	0	0	0	0	0	0	0	0.0	0	0.0	1	1	1	0
8370	S6	2019	12	15	18	0	0	0	0	0	0	0	0.0	0	0.0	1	1	1	0
8371	S6	2019	12	15	19	0	0	0	0	0	0	0	0.0	0	0.0	1	1	1	0
8372	S6	2019	12	15	20	0	0	0	0	0	0	0	0.0	0	0.0	1	1	1	0
8373	S6	2019	12	15	21	0	0	0	0	0	0	0	0.0	0	0.0	1	1	1	0
8374	S6	2019	12	15	22	0	0	0	0	0	0	0	0.0	0	0.0	1	1	1	0
8375	S6	2019	12	15	23	0	0	0	0	0	0	0	0.0	0	0.0	1	1	1	0
8376	S6	2019	12	15	24	0	0	0	0	0	0	0	0.0	0	0.0	1	1	1	0
8377	S6	2019	12	16	1	0	0	0	0	0	0	0	0.0	0	0.0	1	1	1	0
8378	S6	2019	12	16	2	0	0	0	0	0	0	0	0.0	0	0.0	1	1	1	0
8379	S6	2019	12	16	3	0	0	0	0	0	0	0	0.0	0	0.0	1	1	1	0
8380	S6	2019	12	16	4	0	0	0	0	0	0	0	0.0	0	0.0	1	1	1	0
8381	S6	2019	12	16	5	0	0	0	0	0	0	0	0.0	0	0.0	1	1	1	0
8382	S6	2019	12	16	6	0	0	0	0	0	0	0	0.0	0	0.0	1	1	1	0
8383	S6	2019	12	16	7	0	0	0	0	0	0	0	0.0	0	0.0	1	1	1	0
8384	S6	2019	12	16	8	0	0	0	0	0	0	0	0.0	0	0.0	1	1	1	0
8385	S6	2019	12	16	9	5.40314150353272015792072124895639717578887939453125	0.219546630978584011995025093710864894092082977294921875	5.57339077442884001101219837437383830547332763671875	5.7625000725189803318926351494155824184417724609375	87.689582268397003872451023198664188385009765625	2.991666670888660117810786687186919152736663818359375	1.633333375987910063287245066021569073200225830078125	0.0	57.0243746352692966183894895948469638824462890625	0.0	1	1	1	0
8386	S6	2019	12	16	10	18.97698621749869829500312334857881069183349609375	0.265151895292930983583090664978954009711742401123046875	19.169751614994400057412349269725382328033447265625	5.40750005642572961761516125989146530628204345703125	87.0744445376925995105921174399554729461669921875	2.843055551581910034286693189642392098903656005859375	17.59999993567659970494787557981908321380615234375	0.0	529.077477815249949344433844089508056640625	0.0	1	1	1	1
8387	S6	2019	12	16	11	30.453681294123299494458478875458240509033203125	0.33534609733356302019302574990433640778064727783203125	30.63221540980860169156585470773279666900634765625	5.439444486300150316537838079966604709625244140625	86.083055877685495715923025272786617279052734375	2.66249999834430983725042096921242773532867431640625	28.30000016838300069821343640796840190887451171875	0.0	860.2475638190900326662813313305377960205078125	0.0	1	1	1	1
8388	S6	2019	12	16	12	59.80904695722789909950733999721705913543701171875	1.7443869586619999978438499965704977512359619140625	59.57890370686840242342441342771053314208984375	6.11194445159700006087177825975231826305389404296875	82.823611132303796011910890229046344757080078125	3.36499999596011978297838140861131250858306884765625	59.0833334252236994643681100569665431976318359375	0.0	1758.834120134509930721833370625972747802734375	0.0	1	1	1	1
8389	S6	2019	12	16	13	76.9380917443169067837516195140779018402099609375	3.21100431730349011871794573380611836910247802734375	76.2229211065504017597049823962152004241943359375	6.9886110279295099445562300388701260089874267578125	81.1191673490736064877637545578181743621826171875	3.692222218381029819056493579410016536712646484375	79.45000045001489752394263632595539093017578125	0.0	2280.5533240238801226951181888580322265625	0.0	1	1	1	1
8390	S6	2019	12	16	14	50.229473967022300939788692630827426910400390625	0.2947057555947030227372351873782463371753692626953125	50.3607372072006995722404099069535732269287109375	6.99277778466541999335959189920686185359954833984375	82.199722035725898194868932478129863739013671875	3.85722221765252992753403304959647357463836669921875	43.43333365395670142561357351951301097869873046875	0.0	1303.7104149659398899530060589313507080078125	0.0	1	1	1	1
8391	S6	2019	12	16	15	26.0144377549489007606098311953246593475341796875	0.27319686077535099144597552367486059665679931640625	26.188785415225499519920049351640045642852783203125	6.8130556623140900995849733590148389339447021484375	82.7369441562228047359894844703376293182373046875	3.8152777691682100424941381788812577724456787109375	25.55000030746059991315632942132651805877685546875	0.0	708.113255972662955173291265964508056640625	0.0	1	1	1	1
8392	S6	2019	12	16	16	8.8783046483993501851728069595992565155029296875	0.291663642674683976085958647672669030725955963134765625	9.013946449756620182824917719699442386627197265625	6.770000076293939628158113919198513031005859375	83.4214999771117931004482670687139034271240234375	4.16049998760222994320656653144396841526031494140625	3.7666667407999501193671676446683704853057861328125	0.0	114.5099084513870053569917217828333377838134765625	0.0	1	1	1	1
8393	S6	2019	12	16	17	0	0	0	0	0	0	0	0.0	0	0.0	1	1	1	0
8394	S6	2019	12	16	18	0	0	0	0	0	0	0	0.0	0	0.0	1	1	1	0
8395	S6	2019	12	16	19	0	0	0	0	0	0	0	0.0	0	0.0	1	1	1	0
8396	S6	2019	12	16	20	0	0	0	0	0	0	0	0.0	0	0.0	1	1	1	0
8397	S6	2019	12	16	21	0	0	0	0	0	0	0	0.0	0	0.0	1	1	1	0
8398	S6	2019	12	16	22	0	0	0	0	0	0	0	0.0	0	0.0	1	1	1	0
8399	S6	2019	12	16	23	0	0	0	0	0	0	0	0.0	0	0.0	1	1	1	0
8400	S6	2019	12	16	24	0	0	0	0	0	0	0	0.0	0	0.0	1	1	1	0
8401	S6	2019	12	17	1	0	0	0	0	0	0	0	0.0	0	0.0	1	1	1	0
8402	S6	2019	12	17	2	0	0	0	0	0	0	0	0.0	0	0.0	1	1	1	0
8403	S6	2019	12	17	3	0	0	0	0	0	0	0	0.0	0	0.0	1	1	1	0
8404	S6	2019	12	17	4	0	0	0	0	0	0	0	0.0	0	0.0	1	1	1	0
8405	S6	2019	12	17	5	0	0	0	0	0	0	0	0.0	0	0.0	1	1	1	0
8406	S6	2019	12	17	6	0	0	0	0	0	0	0	0.0	0	0.0	1	1	1	0
8407	S6	2019	12	17	7	0	0	0	0	0	0	0	0.0	0	0.0	1	1	1	0
8408	S6	2019	12	17	8	0	0	0	0	0	0	0	0.0	0	0.0	1	1	1	0
8409	S6	2019	12	17	9	0.7481840831892829779548037549830041825771331787109375	0.23529597222804998768452833246556110680103302001953125	0.7632227812494549734623205949901603162288665771484375	6.36285727364676034767398959957063198089599609375	95.222855268205904621936497278511524200439453125	1.1971428573131499550896705841296352446079254150390625	0.08333333729145829538165202166055678389966487884521484375	0.0	0	0.0	1	1	1	0
8410	S6	2019	12	17	10	4.17218258092480009935343332472257316112518310546875	0.2619992570050300173534196801483631134033203125	4.2372744064177201295251506962813436985015869140625	6.50387096405029030421474089962430298328399658203125	95.57290359004849733537412248551845550537109375	1.7287096706128799450397082182462327182292938232421875	3.3166667330078798414660923299379646778106689453125	0.0	90.937261981889406570189748890697956085205078125	0.0	1	1	1	1
8411	S6	2019	12	17	11	17.767792338795100448578523355536162853240966796875	0.307518096475137003853461692415294237434864044189453125	17.85467568503479895980490255169570446014404296875	6.75333327584796005993439393932931125164031982421875	95.8938892576428969505286659114062786102294921875	2.363055556515849975340870514628477394580841064453125	17.683333406845800794826573110185563564300537109375	0.0	506.79067838936998668941669166088104248046875	0.0	1	1	1	1
8412	S6	2019	12	17	12	30.792649343278601037354746949858963489532470703125	0.313692413270472980624248293679556809365749359130859375	30.877323489718900617617691750638186931610107421875	7.28555557065539005634491331875324249267578125	95.319999419318293121250462718307971954345703125	2.81055554689632014486733169178478419780731201171875	26.216666633263198349368394701741635799407958984375	0.0	742.766220122575987261370755732059478759765625	0.0	1	1	1	1
8413	S6	2019	12	17	13	21.086289585961200288011241354979574680328369140625	0.280680137417382014053401917408336885273456573486328125	21.189579807387399768003888311795890331268310546875	7.29361116488774019472884901915676891803741455078125	95.5202774683634032726331497542560100555419921875	2.48249999408920007937240370665676891803741455078125	18.28333330340679907521916902624070644378662109375	0.0	518.899220476547952785040251910686492919921875	0.0	1	1	1	1
8414	S6	2019	12	17	14	34.39752807087359798288161982782185077667236328125	0.298167642992403003621149082391639240086078643798828125	34.5415676222906995462835766375064849853515625	7.25611112780041001002473421976901590824127197265625	94.56388848622640352914459072053432464599609375	1.8149999976985899952097724963095970451831817626953125	29.76666648561749894952299655415117740631103515625	0.0	846.17647255460497035528533160686492919921875	0.0	1	1	1	1
8415	S6	2019	12	17	15	22.092426739798600721087495912797749042510986328125	0.373208222952153001461539361116592772305011749267578125	22.17321148448520062856914591975510120391845703125	7.14277766545612990967129007913172245025634765625	93.637222141689704812961281277239322662353515625	1.31944444386494996734882079181261360645294189453125	19.9166666561117011724491021595895290374755859375	0.0	559.4089526683079611757420934736728668212890625	0.0	1	1	1	1
8416	S6	2019	12	17	16	5.42061506097132994597131983027793467044830322265625	0.2931368167583749961835337671800516545772552490234375	5.52680292152440966191306870314292609691619873046875	7.1499999440633299485625684610567986965179443359375	93.23557809682989727662061341106891632080078125	1.6057692313423499452795795150450430810451507568359375	1.3833333718745699503216428638552315533161163330078125	0.0	36.38417997087049826632210169918835163116455078125	0.0	1	1	1	1
8417	S6	2019	12	17	17	0	0	0	0	0	0	0	0.0	0	0.0	1	1	1	0
8418	S6	2019	12	17	18	0	0	0	0	0	0	0	0.0	0	0.0	1	1	1	0
8419	S6	2019	12	17	19	0	0	0	0	0	0	0	0.0	0	0.0	1	1	1	0
8420	S6	2019	12	17	20	0	0	0	0	0	0	0	0.0	0	0.0	1	1	1	0
8421	S6	2019	12	17	21	0	0	0	0	0	0	0	0.0	0	0.0	1	1	1	0
8422	S6	2019	12	17	22	0	0	0	0	0	0	0	0.0	0	0.0	1	1	1	0
8423	S6	2019	12	17	23	0	0	0	0	0	0	0	0.0	0	0.0	1	1	1	0
8424	S6	2019	12	17	24	0	0	0	0	0	0	0	0.0	0	0.0	1	1	1	0
8425	S6	2019	12	18	1	0	0	0	0	0	0	0	0.0	0	0.0	1	1	1	0
8426	S6	2019	12	18	2	0	0	0	0	0	0	0	0.0	0	0.0	1	1	1	0
8427	S6	2019	12	18	3	0	0	0	0	0	0	0	0.0	0	0.0	1	1	1	0
8428	S6	2019	12	18	4	0	0	0	0	0	0	0	0.0	0	0.0	1	1	1	0
8429	S6	2019	12	18	5	0	0	0	0	0	0	0	0.0	0	0.0	1	1	1	0
8430	S6	2019	12	18	6	0	0	0	0	0	0	0	0.0	0	0.0	1	1	1	0
8431	S6	2019	12	18	7	0	0	0	0	0	0	0	0.0	0	0.0	1	1	1	0
8432	S6	2019	12	18	8	0	0	0	0	0	0	0	0.0	0	0.0	1	1	1	0
8433	S6	2019	12	18	9	8.1223125720242794756131843314506113529205322265625	4.012810680297530296911645564250648021697998046875	8.1643057788183899248224406619556248188018798828125	6.79541300414899041015814873389899730682373046875	84.806423292247501422025379724800586700439453125	3.3880733885896301416096321190707385540008544921875	2.70000003705110014351475911098532378673553466796875	0.0	108.9589148604620021387745509855449199676513671875	0.0	1	1	1	0
8434	S6	2019	12	18	10	44.00464406278390327997840358875691890716552734375	202.46437576843601391374249942600727081298828125	25.87387935585439890928682871162891387939453125	6.58944440152910004826480871997773647308349609375	84.8016663869221929417108185589313507080078125	2.7963888853788301247504932689480483531951904296875	24.283333510781300645930969039909541606903076171875	0.0	847.65930597980695893056690692901611328125	0.0	1	1	1	1
8435	S6	2019	12	18	11	110.80620623694500181954936124384403228759765625	377.405459552174988857586868107318878173828125	56.37951578564109667013326543383300304412841796875	6.97944450643327041206021021935157477855682373046875	82.80833273993590637473971582949161529541015625	2.85611110462081985161830743891187012195587158203125	59.20000014205769645059262984432280063629150390625	0.0	3976.88133095701005004229955375194549560546875	0.0	1	1	1	1
8436	S6	2019	12	18	12	102.8860033882979934105605934746563434600830078125	264.12393318547100307114305905997753143310546875	57.28746521208019970572422607801854610443115234375	7.3305555740992200952632629196159541606903076171875	79.1727777269151005157254985533654689788818359375	3.4991666591829702070981511496938765048980712890625	84.8500006521739038589657866396009922027587890625	0.0	3886.6735987365200344356708228588104248046875	0.0	1	1	1	1
8437	S6	2019	12	18	13	144.88886468675400465144775807857513427734375	372.776957435077974878367967903614044189453125	76.46436978446109833384980447590351104736328125	7.63222224977281005209306385950185358524322509765625	76.8950005425347029586191638372838497161865234375	3.34222222268580981818786312942393124103546142578125	337.80000147720102177117951214313507080078125	0.0	5532.2030807534802079317159950733184814453125	0.0	1	1	1	1
8438	S6	2019	12	18	14	86.577992640601195262206601910293102264404296875	197.23263596296300192989292554557323455810546875	54.9972860972086010633574915118515491485595703125	7.5766666624281100439475267194211483001708984375	78.29055523342549349763430655002593994140625	3.146666662891699939308409739169292151927947998046875	181.78333379328199725932790897786617279052734375	0.0	3089.006079733369915629737079143524169921875	0.0	1	1	1	1
8439	S6	2019	12	18	15	41.37171524895560281720463535748422145843505859375	33.22888713247240133341620094142854213714599609375	37.77779500749370100720625487156212329864501953125	7.20222223334841959996310833957977592945098876953125	78.4838893466525036046732566319406032562255859375	2.630277776718129789657041328609921038150787353515625	59.683333461483101700650877319276332855224609375	0.0	1306.530780593549934565089643001556396484375	0.0	1	1	1	1
8440	S6	2019	12	18	16	20.930745025990500352008893969468772411346435546875	14.14798201072400019029373652301728725433349609375	20.607719431269298837605674634687602519989013671875	6.88652850926848003609848092310130596160888671875	78.317616240348201017695828340947628021240234375	2.000518126808910057690127359819598495960235595703125	13.65000013223220065583518589846789836883544921875	0.0	371.62119290248102743134950287640094757080078125	0.0	1	1	1	1
8441	S6	2019	12	18	17	0	0	0	0	0	0	0	0.0	0	0.0	1	1	1	0
8442	S6	2019	12	18	18	0	0	0	0	0	0	0	0.0	0	0.0	1	1	1	0
8443	S6	2019	12	18	19	0	0	0	0	0	0	0	0.0	0	0.0	1	1	1	0
8444	S6	2019	12	18	20	0	0	0	0	0	0	0	0.0	0	0.0	1	1	1	0
8445	S6	2019	12	18	21	0	0	0	0	0	0	0	0.0	0	0.0	1	1	1	0
8446	S6	2019	12	18	22	0	0	0	0	0	0	0	0.0	0	0.0	1	1	1	0
8447	S6	2019	12	18	23	0	0	0	0	0	0	0	0.0	0	0.0	1	1	1	0
8448	S6	2019	12	18	24	0	0	0	0	0	0	0	0.0	0	0.0	1	1	1	0
8449	S6	2019	12	19	1	0	0	0	0	0	0	0	0.0	0	0.0	1	1	1	0
8450	S6	2019	12	19	2	0	0	0	0	0	0	0	0.0	0	0.0	1	1	1	0
8451	S6	2019	12	19	3	0	0	0	0	0	0	0	0.0	0	0.0	1	1	1	0
8452	S6	2019	12	19	4	0	0	0	0	0	0	0	0.0	0	0.0	1	1	1	0
8453	S6	2019	12	19	5	0	0	0	0	0	0	0	0.0	0	0.0	1	1	1	0
8454	S6	2019	12	19	6	0	0	0	0	0	0	0	0.0	0	0.0	1	1	1	0
8455	S6	2019	12	19	7	0	0	0	0	0	0	0	0.0	0	0.0	1	1	1	0
8456	S6	2019	12	19	8	0	0	0	0	0	0	0	0.0	0	0.0	1	1	1	0
8457	S6	2019	12	19	9	9.35135219273742990253595053218305110931396484375	8.42063935818494968543745926581323146820068359375	9.14686982499227951848297379910945892333984375	6.361111172923330059347790665924549102783203125	89.9351847613298929218217381276190280914306640625	2.965740736987850123540511049213819205760955810546875	3.750000065580649799557022561202757060527801513671875	0.0	117.30874475712499815927003510296344757080078125	0.0	1	1	1	0
8458	S6	2019	12	19	10	29.106352414025199237812557839788496494293212890625	5.00634600271780971780799518455751240253448486328125	28.876209118631098959895098232664167881011962890625	6.733333328035140397105351439677178859710693359375	88.8016664716931956036205519922077655792236328125	3.310555552111730026609848209773190319538116455078125	31.21666675433510107495749252848327159881591796875	0.0	898.4094620992740374276763759553432464599609375	0.0	1	1	1	1
8459	S6	2019	12	19	11	76.0913248274060975973043241538107395172119140625	35.93819834987319694619145593605935573577880859375	70.2230711089240031697045196779072284698486328125	7.2027777777777703960282451589591801166534423828125	86.106111017862900780528434552252292633056640625	3.166388887332539869845504654222168028354644775390625	73.7833332270383976947414339520037174224853515625	0.0	2461.14020893971019177115522325038909912109375	0.0	1	1	1	1
8460	S6	2019	12	19	12	94.783377435472203842437011189758777618408203125	68.396117761400006429539644159376621246337890625	81.59903430938720703125	7.47833335399626975004139239899814128875732421875	85.536666573418500547631992958486080169677734375	3.557222226262089836978930179611779749393463134765625	98.950000728169897001862409524619579315185546875	0.0	3285.65022746721979274298064410686492919921875	0.0	1	1	1	1
8461	S6	2019	12	19	13	116.6393146726820049252637545578181743621826171875	104.764763657250995265712845139205455780029296875	96.6136404673257942476993775926530361175537109375	7.59388879934946015026753229903988540172576904296875	88.0411108652750016290156054310500621795654296875	3.856388885445059866441397389280609786510467529296875	194.633333633342999746673740446567535400390625	0.0	4123.0905612309798016212880611419677734375	0.0	1	1	1	1
8462	S6	2019	12	19	14	122.421398289997995334488223306834697723388671875	135.078093260857002633201773278415203094482421875	99.8916684256658982121734879910945892333984375	7.59166657924652010791533029987476766109466552734375	88.7183333079020002287506940774619579315185546875	3.578888889484929780593347459216602146625518798828125	210.866666709382997169086593203246593475341796875	0.0	4319.4012477993901484296657145023345947265625	0.0	1	1	1	1
8463	S6	2019	12	19	15	36.88651938968229870852155727334320545196533203125	1.224298200094029898110647991416044533252716064453125	36.73922315173670227750335470773279666900634765625	6.90166665183172955977397577953524887561798095703125	90.9805553860134068600018508732318878173828125	2.78444444222582010439737132401205599308013916015625	33.1000000238417015907543827779591083526611328125	0.0	921.9747263938179457909427583217620849609375	0.0	1	1	1	1
8464	S6	2019	12	19	16	14.075968187212300364308248390443623065948486328125	0.2478131466153729867141208842440391890704631805419921875	14.105900808232899379390801186673343181610107421875	6.4545894152876197580326333991251885890960693359375	92.5864732530380933894775807857513427734375	2.685990341187669994127418249263428151607513427734375	6.5833333685683701474999907077290117740631103515625	0.0	192.70636076883698706296854652464389801025390625	0.0	1	1	1	1
8465	S6	2019	12	19	17	0	0	0	0	0	0	0	0.0	0	0.0	1	1	1	0
8466	S6	2019	12	19	18	0	0	0	0	0	0	0	0.0	0	0.0	1	1	1	0
8467	S6	2019	12	19	19	0	0	0	0	0	0	0	0.0	0	0.0	1	1	1	0
8468	S6	2019	12	19	20	0	0	0	0	0	0	0	0.0	0	0.0	1	1	1	0
8469	S6	2019	12	19	21	0	0	0	0	0	0	0	0.0	0	0.0	1	1	1	0
8470	S6	2019	12	19	22	0	0	0	0	0	0	0	0.0	0	0.0	1	1	1	0
8471	S6	2019	12	19	23	0	0	0	0	0	0	0	0.0	0	0.0	1	1	1	0
8472	S6	2019	12	19	24	0	0	0	0	0	0	0	0.0	0	0.0	1	1	1	0
8473	S6	2019	12	20	1	0	0	0	0	0	0	0	0.0	0	0.0	1	1	1	0
8474	S6	2019	12	20	2	0	0	0	0	0	0	0	0.0	0	0.0	1	1	1	0
8475	S6	2019	12	20	3	0	0	0	0	0	0	0	0.0	0	0.0	1	1	1	0
8476	S6	2019	12	20	4	0	0	0	0	0	0	0	0.0	0	0.0	1	1	1	0
8477	S6	2019	12	20	5	0	0	0	0	0	0	0	0.0	0	0.0	1	1	1	0
8478	S6	2019	12	20	6	0	0	0	0	0	0	0	0.0	0	0.0	1	1	1	0
8479	S6	2019	12	20	7	0	0	0	0	0	0	0	0.0	0	0.0	1	1	1	0
8480	S6	2019	12	20	8	0	0	0	0	0	0	0	0.0	0	0.0	1	1	1	0
8481	S6	2019	12	20	9	2.110319793224329831815566649311222136020660400390625	0.25894154140422498411311380550614558160305023193359375	2.1649502723716000929243818973191082477569580078125	6.09651153586631000536044666660018265247344970703125	97.1209283873092061867282609455287456512451171875	2.704651143315219830043361071147955954074859619140625	0.53333335866531594859907272621057927608489990234375	0.0	3.927634974631200037720191176049411296844482421875	0.0	1	1	1	0
8482	S6	2019	12	20	10	8.1593422916200406547204693197272717952728271484375	0.243193725082609002452471713695558719336986541748046875	8.2311663534906092110077224788255989551544189453125	5.91666666666665985729878229903988540172576904296875	97.1066651662190025717791286297142505645751953125	2.77666666275924978180000834981910884380340576171875	7.08333336515350975304272651555947959423065185546875	0.0	204.656853014603001383875380270183086395263671875	0.0	1	1	1	1
8483	S6	2019	12	20	11	14.2420239686965004466401296667754650115966796875	0.27306505702435901472568957615294493734836578369140625	14.3205382453070004800110837095417082309722900390625	5.6883333245913103581870018388144671916961669921875	96.75499973297110045677982270717620849609375	2.607222220301620208005033418885432183742523193359375	12.1000001051774006555206142365932464599609375	0.0	351.0949511080970069087925367057323455810546875	0.0	1	1	1	1
8484	S6	2019	12	20	12	24.553856990072400634517180151306092739105224609375	0.29356325806842897829795901998295448720455169677734375	24.621905334790501029829101753421127796173095703125	5.5	96.825834528605099649212206713855266571044921875	2.638055552045500018465418179403059184551239013671875	21.816666734715198572303052060306072235107421875	0.0	624.9438927819329592239228077232837677001953125	0.0	1	1	1	1
8485	S6	2019	12	20	13	30.842086516486201475117923109792172908782958984375	0.292372137225336004018316771180252544581890106201171875	30.889621316062001454838537028990685939788818359375	5.56166660785674960010283029987476766109466552734375	96.8658348719279018723682384006679058074951171875	2.93583333086635978048661854700185358524322509765625	27.80000036582350020353260333649814128875732421875	0.0	790.0365355114130352376378141343593597412109375	0.0	1	1	1	1
8486	S6	2019	12	20	14	27.088560040791801242221481516025960445404052734375	0.287359382046593003767753771171555854380130767822265625	27.1136412620544007268108543939888477325439453125	5.58916658163069968168201739899814128875732421875	96.888334910074803474344662390649318695068359375	3.086388891107500143107245094142854213714599609375	24.016666815926601685760033433325588703155517578125	0.0	690.4588288317139586069970391690731048583984375	0.0	1	1	1	1
8487	S6	2019	12	20	15	9.8255603379673406294614323996938765048980712890625	0.277307685009307025580937988706864416599273681640625	9.848111944728419331340774078853428363800048828125	5.53666663169860040483172269887290894985198974609375	96.95250034332269706283113919198513031005859375	3.189444440023760041214018201571889221668243408203125	7.65000010530155005739061380154453217983245849609375	0.0	214.94092425952300118296989239752292633056640625	0.0	1	1	1	1
8488	S6	2019	12	20	16	3.8871135551620401571426555165089666843414306640625	0.27682599428765197746571402603876776993274688720703125	3.909114608058219975106339916237629950046539306640625	5.4694444735844900407073509995825588703155517578125	96.9694449106851976694088079966604709625244140625	3.342592585417949901938072798657231032848358154296875	1.33333336949969005758021012297831475734710693359375	0.0	32.13974328245959810601561912335455417633056640625	0.0	1	1	1	1
8489	S6	2019	12	20	17	0	0	0	0	0	0	0	0.0	0	0.0	1	1	1	0
8490	S6	2019	12	20	18	0	0	0	0	0	0	0	0.0	0	0.0	1	1	1	0
8491	S6	2019	12	20	19	0	0	0	0	0	0	0	0.0	0	0.0	1	1	1	0
8492	S6	2019	12	20	20	0	0	0	0	0	0	0	0.0	0	0.0	1	1	1	0
8493	S6	2019	12	20	21	0	0	0	0	0	0	0	0.0	0	0.0	1	1	1	0
8494	S6	2019	12	20	22	0	0	0	0	0	0	0	0.0	0	0.0	1	1	1	0
8495	S6	2019	12	20	23	0	0	0	0	0	0	0	0.0	0	0.0	1	1	1	0
8496	S6	2019	12	20	24	0	0	0	0	0	0	0	0.0	0	0.0	1	1	1	0
8497	S6	2019	12	21	1	0	0	0	0	0	0	0	0.0	0	0.0	1	1	1	0
8498	S6	2019	12	21	2	0	0	0	0	0	0	0	0.0	0	0.0	1	1	1	0
8499	S6	2019	12	21	3	0	0	0	0	0	0	0	0.0	0	0.0	1	1	1	0
8500	S6	2019	12	21	4	0	0	0	0	0	0	0	0.0	0	0.0	1	1	1	0
8501	S6	2019	12	21	5	0	0	0	0	0	0	0	0.0	0	0.0	1	1	1	0
8502	S6	2019	12	21	6	0	0	0	0	0	0	0	0.0	0	0.0	1	1	1	0
8503	S6	2019	12	21	7	0	0	0	0	0	0	0	0.0	0	0.0	1	1	1	0
8504	S6	2019	12	21	8	0	0	0	0	0	0	0	0.0	0	0.0	1	1	1	0
8505	S6	2019	12	21	9	7.85683878262836987715900249895639717578887939453125	0.331915644307931023693214456216082908213138580322265625	8.130688921610509822812673519365489482879638671875	6.8366668224334699033306605997495353221893310546875	91.8666687011718039457264239899814128875732421875	2.306666672229760184364977249060757458209991455078125	1.8333333525030599542304798887926153838634490966796875	0.0	61.55479500691090066766264499165117740631103515625	0.0	1	1	1	0
8506	S6	2019	12	21	10	19.326119248072298972829230478964745998382568359375	0.60337268391417098190032675120164640247821807861328125	19.5686645905175993220836971886456012725830078125	6.940000049273169935304395039565861225128173828125	91.9008331298827982891452847979962825775146484375	2.363611106408959994240603919024579226970672607421875	18.149999979262499749665948911570012569427490234375	0.0	520.47785880665105651132762432098388671875	0.0	1	1	1	1
8507	S6	2019	12	21	11	35.3420706378089022337007918395102024078369140625	0.350618906815846009816795003644074313342571258544921875	35.5186014758215975462007918395102024078369140625	7.33500000238417992903805497917346656322479248046875	90.28666661580399477315950207412242889404296875	2.070833331512079933389713914948515594005584716796875	32.25000022600089977231618831865489482879638671875	0.0	922.823261717953982952167280018329620361328125	0.0	1	1	1	1
8508	S6	2019	12	21	12	35.07586317062369829500312334857881069183349609375	0.334536250266762980043466768620419315993785858154296875	35.18907886611089708139843423850834369659423828125	7.4991666674613899346013567992486059665679931640625	88.990000025431299945921637117862701416015625	1.8697222195565699198738229824812151491641998291015625	32.816666861375097141717560589313507080078125	0.0	924.4102588544300260764430277049541473388671875	0.0	1	1	1	1
8509	S6	2019	12	21	13	51.79368917147309758775008958764374256134033203125	0.2976777695015899727337682634242810308933258056640625	51.8288868268329991906284703873097896575927734375	7.624999928474419874646628159098327159881591796875	89.8624995549518956750034703873097896575927734375	2.10194443629846983156994610908441245555877685546875	45.81666669497870003624484525062143802642822265625	0.0	1346.160496522980110967182554304599761962890625	0.0	1	1	1	1
8510	S6	2019	12	21	14	29.53259000778189857783218030817806720733642578125	0.30884071468479101785220564124756492674350738525390625	29.6529161347283007899022777564823627471923828125	7.48083335161209017627470529987476766109466552734375	90.21750113169349560848786495625972747802734375	2.106944439146249958838552629458718001842498779296875	26.350000066061699754982328158803284168243408203125	0.0	765.25063638885694672353565692901611328125	0.0	1	1	1	1
8511	S6	2019	12	21	15	45.59194555282589789158009807579219341278076171875	78.1201548778348069390631280839443206787109375	40.068962033589599514016299508512020111083984375	7.64916667143503037351592865888960659503936767578125	88.742500495910604740856797434389591217041015625	1.7502777792513299903731649465044029057025909423828125	74.716666961709194083596230484545230865478515625	0.0	1231.35816430052000214345753192901611328125	0.0	1	1	1	1
8512	S6	2019	12	21	16	20.159832878389199350976923597045242786407470703125	37.9890055030871991448293556459248065948486328125	18.366253636309398444836915587075054645538330078125	7.0985506859378499910917525994591414928436279296875	89.884057860443505205694236792623996734619140625	1.529468594253919899728089148993603885173797607421875	11.4166667704314992448644261457957327365875244140625	0.0	327.42704118136299484831397421658039093017578125	0.0	1	1	1	0
8513	S6	2019	12	21	17	0	0	0	0	0	0	0	0.0	0	0.0	1	1	1	0
8514	S6	2019	12	21	18	0	0	0	0	0	0	0	0.0	0	0.0	1	1	1	0
8515	S6	2019	12	21	19	0	0	0	0	0	0	0	0.0	0	0.0	1	1	1	0
8516	S6	2019	12	21	20	0	0	0	0	0	0	0	0.0	0	0.0	1	1	1	0
8517	S6	2019	12	21	21	0	0	0	0	0	0	0.050000002374875000821230486280910554341971874237060546875	0.0	0	0.0	1	1	1	0
8518	S6	2019	12	21	22	0	0	0	0	0	0	0	0.0	0	0.0	1	1	1	0
8519	S6	2019	12	21	23	0	0	0	0	0	0	0	0.0	0	0.0	1	1	1	0
8520	S6	2019	12	21	24	0	0	0	0	0	0	0	0.0	0	0.0	1	1	1	0
8521	S6	2019	12	22	1	0	0	0	0	0	0	0	0.0	0	0.0	1	1	1	0
8522	S6	2019	12	22	2	0	0	0	0	0	0	0	0.0	0	0.0	1	1	1	0
8523	S6	2019	12	22	3	0	0	0	0	0	0	0	0.0	0	0.0	1	1	1	0
8524	S6	2019	12	22	4	0	0	0	0	0	0	0	0.0	0	0.0	1	1	1	0
8525	S6	2019	12	22	5	0	0	0	0	0	0	0	0.0	0	0.0	1	1	1	0
8526	S6	2019	12	22	6	0	0	0	0	0	0	0	0.0	0	0.0	1	1	1	0
8527	S6	2019	12	22	7	0	0	0	0	0	0	0	0.0	0	0.0	1	1	1	0
8528	S6	2019	12	22	8	0	0	0	0	0	0	0	0.0	0	0.0	1	1	1	0
8529	S6	2019	12	22	9	4.36581221014953957393345262971706688404083251953125	0.1370947911934710106152124353684484958648681640625	4.29645223395769004781641342560760676860809326171875	5.4255814663199402048121555708348751068115234375	94.45813990748200694724800996482372283935546875	2.724418611027469960816915772738866508007049560546875	1.10000004254592997909867335692979395389556884765625	0.0	26.386598272559499633871382684446871280670166015625	0.0	1	1	1	0
8530	S6	2019	12	22	10	13.98891091346740012113514239899814128875732421875	0.2915204387572070121592560099088586866855621337890625	14.0746407614812998332354254671372473239898681640625	5.49666666984558016650908029987476766109466552734375	95.1158335367837963758574915118515491485595703125	2.830555550174580048405914567410945892333984375	12.36666670689979952157955267466604709625244140625	0.0	335.04620331029099133957060985267162322998046875	0.0	1	1	1	1
8531	S6	2019	12	22	11	21.659098227818798676480582798831164836883544921875	0.292187314108014017932646311237476766109466552734375	21.715245021714100204235364799387753009796142578125	5.6299998760223299854033029987476766109466552734375	94.0150000890096038119736476801335811614990234375	2.711944446133240038676603944622911512851715087890625	18.083333410322598666652993415482342243194580078125	0.0	484.44635557631698929981212131679058074951171875	0.0	1	1	1	1
8532	S6	2019	12	22	12	34.18021034134749669419761630706489086151123046875	0.308778611446419992692113964949385263025760650634765625	34.2241735723282971548542263917624950408935546875	5.64833321571350044365544817992486059665679931640625	93.9291666666666031915156054310500621795654296875	2.576111105912259890970972264767624437808990478515625	30.333333307256300059862041962333023548126220703125	0.0	855.9065404037650068858056329190731048583984375	0.0	1	1	1	1
8533	S6	2019	12	22	13	24.18500987423789894137371447868645191192626953125	0.282204301117195022197137177499826066195964813232421875	24.21871348487000119575895951129496097564697265625	5.71249996026357020895147798000834882259368896484375	93.9758335749308031381588079966604709625244140625	2.806388879153459914306267819483764469623565673828125	21.3499999294677991201751865446567535400390625	0.0	632.52624149123903407598845660686492919921875	0.0	1	1	1	1
8534	S6	2019	12	22	14	18.4075751569534986629150807857513427734375	0.290987573853796976930397022442775778472423553466796875	18.443493090735501027666032314300537109375	5.83500009377797024257006341940723359584808349609375	93.092500495910599056514911353588104248046875	3.02166666570635999988780895364470779895782470703125	15.1166668472189993366328053525649011135101318359375	0.0	446.8820833911510135294520296156406402587890625	0.0	1	1	1	1
8535	S6	2019	12	22	15	8.96008696291180939397236215882003307342529296875	0.2814809435357650269082796512520872056484222412109375	8.99761759175193986948215751908719539642333984375	5.9933333396911603330181605997495353221893310546875	91.58416601816810498348786495625972747802734375	2.559722217006810129902305561699904501438140869140625	7.20000014019506995310848651570267975330352783203125	0.0	218.869519730408001123578287661075592041015625	0.0	1	1	1	1
8536	S6	2019	12	22	16	3.033907191971170203004248833167366683483123779296875	0.2410056898370379896423543186756432987749576568603515625	3.052078559421569803333795789512805640697479248046875	5.84326929770983038991971625364385545253753662109375	90.9947110322805059468009858392179012298583984375	2.967788454288470045838721489417366683483123779296875	0.733333364284292965606937286793254315853118896484375	0.0	21.764314989559299107213519164361059665679931640625	0.0	1	1	1	1
8537	S6	2019	12	22	17	0	0	0	0	0	0	0	0.0	0	0.0	1	1	1	0
8538	S6	2019	12	22	18	0	0	0	0	0	0	0	0.0	0	0.0	1	1	1	0
8539	S6	2019	12	22	19	0	0	0	0	0	0	0	0.0	0	0.0	1	1	1	0
8540	S6	2019	12	22	20	0	0	0	0	0	0	0	0.0	0	0.0	1	1	1	0
8541	S6	2019	12	22	21	0	0	0	0	0	0	0	0.0	0	0.0	1	1	1	0
8542	S6	2019	12	22	22	0	0	0	0	0	0	0	0.0	0	0.0	1	1	1	0
8543	S6	2019	12	22	23	0	0	0	0	0	0	0	0.0	0	0.0	1	1	1	0
8544	S6	2019	12	22	24	0	0	0	0	0	0	0	0.0	0	0.0	1	1	1	0
8545	S6	2019	12	23	1	0	0	0	0	0	0	0	0.0	0	0.0	1	1	1	0
8546	S6	2019	12	23	2	0	0	0	0	0	0	0	0.0	0	0.0	1	1	1	0
8547	S6	2019	12	23	3	0	0	0	0	0	0	0	0.0	0	0.0	1	1	1	0
8548	S6	2019	12	23	4	0	0	0	0	0	0	0	0.0	0	0.0	1	1	1	0
8549	S6	2019	12	23	5	0	0	0	0	0	0	0	0.0	0	0.0	1	1	1	0
8550	S6	2019	12	23	6	0	0	0	0	0	0	0	0.0	0	0.0	1	1	1	0
8551	S6	2019	12	23	7	0	0	0	0	0	0	0	0.0	0	0.0	1	1	1	0
8552	S6	2019	12	23	8	0	0	0	0	0	0	0	0.0	0	0.0	1	1	1	0
8553	S6	2019	12	23	9	1.150944425087220057690728935995139181613922119140625	0.2402883542603559963168891044915653765201568603515625	1.1509153591959100371155955144786275923252105712890625	6.1539472467020903678758259047754108905792236328125	94.2394727405747971715754829347133636474609375	2.0802631574241701173377805389463901519775390625	0.116666672208041000136091724925790913403034210205078125	0.0	0	0.0	1	1	1	0
8554	S6	2019	12	23	10	6.847114150084589567768489359878003597259521484375	0.254271504016561011862762597957043908536434173583984375	6.89493040265983037073738159961067140102386474609375	6.13212280966050027330993543728254735469818115234375	94.6662008828956942352306214161217212677001953125	2.05586592170446014193885275744833052158355712890625	5.83333342219702988273866139934398233890533447265625	0.0	158.0758134912069863275974057614803314208984375	0.0	1	1	1	1
8555	S6	2019	12	23	11	10.4718064043255996153902742662467062473297119140625	0.260206702972451020539068622383638285100460052490234375	10.51209416257010076378719531930983066558837890625	6.09249992767968961970836971886456012725830078125	95.109999084472605090923025272786617279052734375	2.1172222202850701222587304073385894298553466796875	9.2500001036872507853559000068344175815582275390625	0.0	268.23242567479502440619398839771747589111328125	0.0	1	1	1	1
8556	S6	2019	12	23	12	28.2678079472646999192875227890908718109130859375	0.275551357948117026097634152392856776714324951171875	28.373423380321899145428687916137278079986572265625	6.05666661659876037759886457934044301509857177734375	95.492500114440900915724341757595539093017578125	2.092222225169340088513081354903988540172576904296875	25.81666661426429953962724539451301097869873046875	0.0	763.0634404718870200667879544198513031005859375	0.0	1	1	1	1
8557	S6	2019	12	23	13	22.03433396021519996565984911285340785980224609375	0.265755226876999983698368623663554899394512176513671875	22.136219877666800215365583426319062709808349609375	6.18916658560435006819488990004174411296844482421875	95.360835456848093372173025272786617279052734375	2.0716666589180601221187316696159541606903076171875	19.200000135848899418533619609661400318145751953125	0.0	558.2159606118990495815523900091648101806640625	0.0	1	1	1	1
8558	S6	2019	12	23	14	24.161588395966401066061735036782920360565185546875	0.28832067499558100553969097745721228420734405517578125	24.246811487939599061292028636671602725982666015625	6.3883333961168897729976379196159541606903076171875	95.503332901000902666055480949580669403076171875	1.5388888828456399604505122624686919152736663818359375	21.933333389461001416975705069489777088165283203125	0.0	634.1110390921420503218541853129863739013671875	0.0	1	1	1	1
8559	S6	2019	12	23	15	23.960115989049199924920685589313507080078125	0.3077878968583209751130880249547772109508514404296875	24.110743586222298517895978875458240509033203125	6.75416664282480017078569289878942072391510009765625	95.3233343760172004976993775926530361175537109375	1.52055555242630990875341012724675238132476806640625	21.500000186885298347760908654890954494476318359375	0.0	583.3253445103770218338468112051486968994140625	0.0	1	1	1	1
8560	S6	2019	12	23	16	6.79872995450350980917164633865468204021453857421875	0.29169294147530899774523049927665852010250091552734375	6.9209689303656301007094953092746436595916748046875	6.95469617580180976545989324222318828105926513671875	95.1762417956609994007521891035139560699462890625	1.3712707184954899819473439492867328226566314697265625	2.50000001202957999879572525969706475734710693359375	0.0	71.58743639010930337462923489511013031005859375	0.0	1	1	1	1
8561	S6	2019	12	23	17	0	0	0	0	0	0	0	0.0	0	0.0	1	1	1	0
8562	S6	2019	12	23	18	0	0	0	0	0	0	0	0.0	0	0.0	1	1	1	0
8563	S6	2019	12	23	19	0	0	0	0	0	0	0	0.0	0	0.0	1	1	1	0
8564	S6	2019	12	23	20	0	0	0	0	0	0	0	0.0	0	0.0	1	1	1	0
8565	S6	2019	12	23	21	0	0	0	0	0	0	0	0.0	0	0.0	1	1	1	0
8566	S6	2019	12	23	22	0	0	0	0	0	0	0	0.0	0	0.0	1	1	1	0
8567	S6	2019	12	23	23	0	0	0	0	0	0	0	0.0	0	0.0	1	1	1	0
8568	S6	2019	12	23	24	0	0	0	0	0	0	0	0.0	0	0.0	1	1	1	0
8569	S6	2019	12	24	1	0	0	0	0	0	0	0	0.0	0	0.0	1	1	1	0
8570	S6	2019	12	24	2	0	0	0	0	0	0	0	0.0	0	0.0	1	1	1	0
8571	S6	2019	12	24	3	0	0	0	0	0	0	0	0.0	0	0.0	1	1	1	0
8572	S6	2019	12	24	4	0	0	0	0	0	0	0	0.0	0	0.0	1	1	1	0
8573	S6	2019	12	24	5	0	0	0	0	0	0	0	0.0	0	0.0	1	1	1	0
8574	S6	2019	12	24	6	0	0	0	0	0	0	0	0.0	0	0.0	1	1	1	0
8575	S6	2019	12	24	7	0	0	0	0	0	0	0	0.0	0	0.0	1	1	1	0
8576	S6	2019	12	24	8	0	0	0	0	0	0	0	0.0	0	0.0	1	1	1	0
8577	S6	2019	12	24	9	4.09879073158638984608614919125102460384368896484375	0.26226662856633498055458630915381945669651031494140625	4.25232831376496989150837180204689502716064453125	6.972131174118789687099706497974693775177001953125	92.60491643186469445936381816864013671875	2.952459028509789806804519685101695358753204345703125	1.2166666934111400877327469061128795146942138671875	0.0	38.55831146550669785710852011106908321380615234375	0.0	1	1	1	0
8578	S6	2019	12	24	10	13.760061426109100324310929863713681697845458984375	0.271523447309651999592716720144380815327167510986328125	13.963448774948499675474522518925368785858154296875	7.05561792448664970578420252422802150249481201171875	92.3581452316112034850448253564536571502685546875	2.64522471689106009051783985341899096965789794921875	12.566666786248500642386716208420693874359130859375	0.0	363.293560345967989633209072053432464599609375	0.0	1	1	1	1
8579	S6	2019	12	24	11	24.125905084609900796976944548077881336212158203125	0.3078579347580669978157175137312151491641998291015625	24.28759398990199969148306990973651409149169921875	7.16666656070284968649275469942949712276458740234375	91.988333214653806635396904312074184417724609375	2.749444436364699928532218109467066824436187744140625	22.516666507969301136427020537666976451873779296875	0.0	648.2676309843869830729090608656406402587890625	0.0	1	1	1	1
8580	S6	2019	12	24	12	64.7412275314330969422371708787977695465087890625	2.69858583563731002641361556015908718109130859375	64.2982133759391984995090751908719539642333984375	7.28333339691161985030021241982467472553253173828125	91.290000067816805540132918395102024078369140625	2.57833332634633993762918180436827242374420166015625	74.750000331550694454563199542462825775146484375	0.0	2106.7166489859400826389901340007781982421875	0.0	1	1	1	1
8581	S6	2019	12	24	13	113.688958644866005442963796667754650115966796875	30.861021506467000818929591332562267780303955078125	107.2531518936149979026595246978104114532470703125	7.6199403618063197285437126993201673030853271484375	88.455654916309100599391967989504337310791015625	2.95059523571813997477875091135501861572265625	142.1000008781740007179905660450458526611328125	0.0	3632.60363837083014004747383296489715576171875	0.0	1	1	1	1
8582	S6	2019	12	24	14	56.5684081501430000571417622268199920654296875	2.243576275971200129077942619915120303630828857421875	56.2026529841951969501678831875324249267578125	7.30277773009405972715057941968552768230438232421875	88.3633334265814056607268867082893848419189453125	2.41638888675305008035820719669573009014129638671875	56.7000001048048005714008468203246593475341796875	0.0	1574.802531798680092833819799125194549560546875	0.0	1	1	1	1
8583	S6	2019	12	24	15	33.27970944245650031234617927111685276031494140625	0.8107417755656769475791634249617345631122589111328125	33.32941408422249907061996054835617542266845703125	7.0444444656372002810940102790482342243194580078125	87.8288886176215015666457475163042545318603515625	2.094444438980680001094469844247214496135711669921875	32.16666661513350078394068987108767032623291015625	0.0	888.4905339529110506191500462591648101806640625	0.0	1	1	1	1
8584	S6	2019	12	24	16	10.6304043570965003340234034112654626369476318359375	0.487643086867873998269118374082609079778194427490234375	10.81924572036160014931738260202109813690185546875	6.62701429122996987786109457374550402164459228515625	88.004738577169206337202922441065311431884765625	2.17109004609392020057612171513028442859649658203125	5.40000007216200028636876595555804669857025146484375	0.0	164.419270163246011406954494304955005645751953125	0.0	1	1	1	1
8585	S6	2019	12	24	17	0	0	0	0	0	0	0	0.0	0	0.0	1	1	1	0
8586	S6	2019	12	24	18	0	0	0	0	0	0	0	0.0	0	0.0	1	1	1	0
8587	S6	2019	12	24	19	0	0	0	0	0	0	0	0.0	0	0.0	1	1	1	0
8588	S6	2019	12	24	20	0	0	0	0	0	0	0	0.0	0	0.0	1	1	1	0
8589	S6	2019	12	24	21	0	0	0	0	0	0	0	0.0	0	0.0	1	1	1	0
8590	S6	2019	12	24	22	0	0	0	0	0	0	0	0.0	0	0.0	1	1	1	0
8591	S6	2019	12	24	23	0	0	0	0	0	0	0	0.0	0	0.0	1	1	1	0
8592	S6	2019	12	24	24	0	0	0	0	0	0	0	0.0	0	0.0	1	1	1	0
8593	S6	2019	12	25	1	0	0	0	0	0	0	0	0.0	0	0.0	1	1	1	0
8594	S6	2019	12	25	2	0	0	0	0	0	0	0	0.0	0	0.0	1	1	1	0
8595	S6	2019	12	25	3	0	0	0	0	0	0	0	0.0	0	0.0	1	1	1	0
8596	S6	2019	12	25	4	0	0	0	0	0	0	0	0.0	0	0.0	1	1	1	0
8597	S6	2019	12	25	5	0	0	0	0	0	0	0	0.0	0	0.0	1	1	1	0
8598	S6	2019	12	25	6	0	0	0	0	0	0	0	0.0	0	0.0	1	1	1	0
8599	S6	2019	12	25	7	0	0	0	0	0	0	0	0.0	0	0.0	1	1	1	0
8600	S6	2019	12	25	8	0	0	0	0	0	0	0	0.0	0	0.0	1	1	1	0
8601	S6	2019	12	25	9	2.181307663023469789465025314711965620517730712890625	0.26776709407567900189661713739042170345783233642578125	2.236938101053230099068969138897955417633056640625	5.177499890327450060567571199499070644378662109375	94.919999504089304309673025272786617279052734375	0.653750001266597990934315021149814128875732421875	0.600000024617969973661502081085927784442901611328125	0.0	5.5799716773132299607595996349118649959564208984375	0.0	1	1	1	0
8602	S6	2019	12	25	10	8.67960446344481084679500781930983066558837890625	0.27550140263305700205620496490155346691608428955078125	8.765328982141280533824101439677178859710693359375	5.3755556424458799114063367596827447414398193359375	95.3672221713595007486219401471316814422607421875	1.3300000011920900533368694595992565155029296875	8.783333488584769810358920949511229991912841796875	0.0	227.946612758870998050042544491589069366455078125	0.0	1	1	1	1
8603	S6	2019	12	25	11	39.98351239628259889968830975703895092010498046875	0.36110789941416798765061457743286155164241790771484375	40.1045620229509012233393150381743907928466796875	5.841666616333849759712393279187381267547607421875	95.01166670057500596158206462860107421875	1.2927777779598998986188007620512507855892181396484375	37.80000025096030213944686693139374256134033203125	0.0	1074.44111543396002161898650228977203369140625	0.0	1	1	1	1
8604	S6	2019	12	25	12	55.005845959981201076516299508512020111083984375	0.34620433863666300045025536746834404766559600830078125	55.0790309058294980104619753547012805938720703125	6.1688887887530796660939813591539859771728515625	94.771666420830598553948220796883106231689453125	1.231388887845799917641897991416044533252716064453125	50.3666668199002032224598224274814128875732421875	0.0	1452.995534986250049769296310842037200927734375	0.0	1	1	1	1
8605	S6	2019	12	25	13	33.25120795302920129188350983895361423492431640625	0.244939459322226993354121304946602322161197662353515625	33.3186923424402010596168111078441143035888671875	6.0716666407055299714556895196437835693359375	94.96611107720269728815765120089054107666015625	1.2511111113760200463929095349158160388469696044921875	29.766666827102501002855206024833023548126220703125	0.0	873.3821737269560117056244052946567535400390625	0.0	1	1	1	1
8606	S6	2019	12	25	14	23.06828674475350027250897255726158618927001953125	0.23006200921081398913514703963301144540309906005859375	23.17109659777739949504393734969198703765869140625	5.798333401150170374194203759543597698211669921875	94.542222722371406007368932478129863739013671875	0.80500000293056095390653581489459611475467681884765625	19.183333342274000443694603745825588703155517578125	0.0	574.928875950475003264728002250194549560546875	0.0	1	1	1	1
8607	S6	2019	12	25	15	21.740164497163501522436490631662309169769287109375	0.281187501156494989995593414278118871152400970458984375	21.938704397943201485077224788255989551544189453125	5.50277776718138955658332633902318775653839111328125	92.6038892110187958905953564681112766265869140625	0.385277779979837975421474993709125556051731109619140625	19.050000095739800798355645383708178997039794921875	0.0	554.943443524339954819879494607448577880859375	0.0	1	1	1	1
8608	S6	2019	12	25	16	7.49926744737931993967094967956654727458953857421875	0.253517824074914022158822035635239444673061370849609375	7.6778576732963603745929503929801285266876220703125	5.45537638664244983743856209912337362766265869140625	90.0166663303169940490988665260374546051025390625	0.5838709715553509482788285822607576847076416015625	2.933333400869739815419734441093169152736663818359375	0.0	101.16696132269299823747132904827594757080078125	0.0	1	1	1	1
8609	S6	2019	12	25	17	0	0	0	0	0	0	0	0.0	0	0.0	1	1	1	0
8610	S6	2019	12	25	18	0	0	0	0	0	0	0	0.0	0	0.0	1	1	1	0
8611	S6	2019	12	25	19	0	0	0	0	0	0	0	0.0	0	0.0	1	1	1	0
8612	S6	2019	12	25	20	0	0	0	0	0	0	0	0.0	0	0.0	1	1	1	0
8613	S6	2019	12	25	21	0	0	0	0	0	0	0	0.0	0	0.0	1	1	1	0
8614	S6	2019	12	25	22	0	0	0	0	0	0	0	0.0	0	0.0	1	1	1	0
8615	S6	2019	12	25	23	0	0	0	0	0	0	0	0.0	0	0.0	1	1	1	0
8616	S6	2019	12	25	24	0	0	0	0	0	0	0	0.0	0	0.0	1	1	1	0
8617	S6	2019	12	26	1	0	0	0	0	0	0	0	0.0	0	0.0	1	1	1	0
8618	S6	2019	12	26	2	0	0	0	0	0	0	0	0.0	0	0.0	1	1	1	0
8619	S6	2019	12	26	3	0	0	0	0	0	0	0	0.0	0	0.0	1	1	1	0
8620	S6	2019	12	26	4	0	0	0	0	0	0	0	0.0	0	0.0	1	1	1	0
8621	S6	2019	12	26	5	0	0	0	0	0	0	0	0.0	0	0.0	1	1	1	0
8622	S6	2019	12	26	6	0	0	0	0	0	0	0	0.0	0	0.0	1	1	1	0
8623	S6	2019	12	26	7	0	0	0	0	0	0	0	0.0	0	0.0	1	1	1	0
8624	S6	2019	12	26	8	0	0	0	0	0	0	0	0.0	0	0.0	1	1	1	0
8625	S6	2019	12	26	9	4.681960548294910040567629039287567138671875	0.183435751828881998815035103689297102391719818115234375	4.75956904888152987354033029987476766109466552734375	4.93333339691162020557158029987476766109466552734375	86.4244454277885978399353916756808757781982421875	1.3377777692344399174118052542326040565967559814453125	1.1666666949167801003994782149675302207469940185546875	0.0	37.41582985967399821447543217800557613372802734375	0.0	1	1	1	0
8626	S6	2019	12	26	10	20.444161380565901708905585110187530517578125	0.2238545550194289968093386278269463218748569488525390625	20.5233150617657003067506593652069568634033203125	4.439275842523169757214418496005237102508544921875	86.3066854662881013382502715103328227996826171875	1.6543175451104599193996591566246934235095977783203125	19.550000270828601145467473543249070644378662109375	0.0	577.2045532241460250588716007769107818603515625	0.0	1	1	1	1
8627	S6	2019	12	26	11	36.2645724667442976851816638372838497161865234375	0.373237590243419015134662686250521801412105560302734375	36.393060451083698580987402237951755523681640625	4.5705556127760100793011588393710553646087646484375	81.994999991522803384214057587087154388427734375	0.909722223298417009829108792473562061786651611328125	33.1500002183018978030304424464702606201171875	0.0	946.6298093398410173904267139732837677001953125	0.0	1	1	1	1
8628	S6	2019	12	26	12	31.325512933731001652404302149079740047454833984375	0.282760778524809019973673684944515116512775421142578125	31.43576924535960159801106783561408519744873046875	4.94833337465921996312090413994155824184417724609375	79.25888832939989470105501823127269744873046875	1.2658333342936300969228113899589516222476959228515625	27.616666971395300578251408296637237071990966796875	0.0	808.50033586223798920400440692901611328125	0.0	1	1	1	1
8629	S6	2019	12	26	13	40.64749112659030316763164591975510120391845703125	0.31124161730209898291121817237581126391887664794921875	40.74532834159000316276433295570313930511474609375	5.164999938011160196538185118697583675384521484375	77.766111289130293471316690556704998016357421875	0.98138889157109698846426226737094111740589141845703125	35.8166665149231988607425591908395290374755859375	0.0	1038.613661130269974819384515285491943359375	0.0	1	1	1	1
8630	S6	2019	12	26	14	31.208132976955798909557415754534304141998291015625	0.28544120275312001577816545250243507325649261474609375	31.294581582811101583274648874066770076751708984375	5.2655555539660898745069061988033354282379150390625	77.161111238267693579473416320979595184326171875	0.7533333345419830351374912424944341182708740234375	26.91666713605319927182790706865489482879638671875	0.0	780.2271528790389538698946125805377960205078125	0.0	1	1	1	1
8631	S6	2019	12	26	15	14.87872750759120066277318983338773250579833984375	0.2472926583348039886178781898706802166998386383056640625	14.9320818265279005032653003581799566745758056640625	5.03388886716629979645176717895083129405975341796875	78.7916670905218978759876335971057415008544921875	0.84111111197206700484940711248782463371753692626953125	11.783333619435499173278003581799566745758056640625	0.0	353.92857299496500900204409845173358917236328125	0.0	1	1	1	1
8632	S6	2019	12	26	16	6.83384062268059988554114170256070792675018310546875	0.2031332028063030092912555346629233099520206451416015625	6.965645000401419650870593613944947719573974609375	4.87932491101293042135012001381255686283111572265625	77.9071729957804990363001707009971141815185546875	1.324050628686249897469906500191427767276763916015625	3.000000074583419884532986543490551412105560302734375	0.0	94.3725968400636929800384677946567535400390625	0.0	1	1	1	1
8633	S6	2019	12	26	17	0	0	0	0	0	0	0	0.0	0	0.0	1	1	1	0
8634	S6	2019	12	26	18	0	0	0	0	0	0	0	0.0	0	0.0	1	1	1	0
8635	S6	2019	12	26	19	0	0	0	0	0	0	0	0.0	0	0.0	1	1	1	0
8636	S6	2019	12	26	20	0	0	0	0	0	0	0	0.0	0	0.0	1	1	1	0
8637	S6	2019	12	26	21	0	0	0	0	0	0	0	0.0	0	0.0	1	1	1	0
8638	S6	2019	12	26	22	0	0	0	0	0	0	0	0.0	0	0.0	1	1	1	0
8639	S6	2019	12	26	23	0	0	0	0	0	0	0	0.0	0	0.0	1	1	1	0
8640	S6	2019	12	26	24	0	0	0	0	0	0	0	0.0	0	0.0	1	1	1	0
8641	S6	2019	12	27	1	0	0	0	0	0	0	0	0.0	0	0.0	1	1	1	0
8642	S6	2019	12	27	2	0	0	0	0	0	0	0	0.0	0	0.0	1	1	1	0
8643	S6	2019	12	27	3	0	0	0	0	0	0	0	0.0	0	0.0	1	1	1	0
8644	S6	2019	12	27	4	0	0	0	0	0	0	0	0.0	0	0.0	1	1	1	0
8645	S6	2019	12	27	5	0	0	0	0	0	0	0	0.0	0	0.0	1	1	1	0
8646	S6	2019	12	27	6	0	0	0	0	0	0	0	0.0	0	0.0	1	1	1	0
8647	S6	2019	12	27	7	0	0	0	0	0	0	0	0.0	0	0.0	1	1	1	0
8648	S6	2019	12	27	8	0	0	0	0	0	0	0	0.0	0	0.0	1	1	1	0
8649	S6	2019	12	27	9	9.255768269668390502147303777746856212615966796875	56.53904461971030315226016682572662830352783203125	7.81561558334914963097617146559059619903564453125	1.71358025662692003976417254307307302951812744140625	83.0296296484676048521578195504844188690185546875	1.73456790123456006114111005445010960102081298828125	2.00000005424953997135162353515625	0.0	98.9988183137028983082927879877388477325439453125	0.0	1	1	1	0
8650	S6	2019	12	27	10	32.70315523412489966403882135637104511260986328125	95.952156905001999120941036380827426910400390625	24.44699911276489956435398198664188385009765625	2.27833331823349016787005894002504646778106689453125	81.93333346048990506460540927946567535400390625	1.378055556532399972269331556162796914577484130859375	24.916666947926000119650780106894671916961669921875	0.0	833.9055787151049798922031186521053314208984375	0.0	1	1	1	1
8651	S6	2019	12	27	11	107.193018892075997428037226200103759765625	464.0831756406360000255517661571502685546875	38.07444313897020293779860367067158222198486328125	2.59500000211926984405863549909554421901702880859375	81.979444503784094422371708787977695465087890625	1.6258333354360499090063285620999522507190704345703125	38.0666667595505003873768146149814128875732421875	0.0	4276.0011747479302357533015310764312744140625	0.0	1	1	1	1
8652	S6	2019	12	27	12	154.531307644314011895403382368385791778564453125	648.41350046793604633421637117862701416015625	38.29957190619570184253461775369942188262939453125	3.041666673289399991375603349297307431697845458984375	79.29222166273319771789829246699810028076171875	1.8911111070050099502992679845192469656467437744140625	61.81666702032070048744571977294981479644775390625	0.0	6149.313205232219843310303986072540283203125	0.0	1	1	1	1
8653	S6	2019	12	27	13	160.100160598754001739507657475769519805908203125	621.2044542736470020827255211770534515380859375	44.8939287715488006824671174399554729461669921875	3.2944444576899201138076023198664188385009765625	76.2061112721761020338817615993320941925048828125	1.8730555524428600389086341237998567521572113037109375	439.5333322385949941235594451427459716796875	0.0	6170.0253893931703714770264923572540283203125	0.0	1	1	1	1
8654	S6	2019	12	27	14	126.9011194864900033962840097956359386444091796875	568.2878505282930063913227058947086334228515625	36.84365004433519885651548975147306919097900390625	3.24888888200124004157487433985807001590728759765625	72.3738891601561959987520822323858737945556640625	1.8805555535687299428815322244190610945224761962890625	378.11666578054399678876507095992565155029296875	0.0	5313.032064835229903110302984714508056640625	0.0	1	1	1	1
8655	S6	2019	12	27	15	78.767289431889793149821343831717967987060546875	436.4197016345129895853460766375064849853515625	32.0910348521338022464988171122968196868896484375	3.031666672229759829093609369010664522647857666015625	72.8327782101101064426984521560370922088623046875	1.5097222166756700811873770362581126391887664794921875	243.250001159806998884960194118320941925048828125	0.0	2837.16729829707992394105531275272369384765625	0.0	1	1	1	1
8656	S6	2019	12	27	16	16.023186994811201344646178768016397953033447265625	70.2117582413098944016383029520511627197265625	12.5963225485914005474796795169822871685028076171875	2.17033897315041013342806763830594718456268310546875	77.6881349854549938527270569466054439544677734375	1.2588983061960099529841272669727914035320281982421875	6.4666667914328304078708242741413414478302001953125	0.0	253.568383158806000210461206734180450439453125	0.0	1	1	1	0
8657	S6	2019	12	27	17	0	0	0	0	0	0	0	0.0	0.488216662779449972475731556187383830547332763671875	0.0	1	1	1	0
8658	S6	2019	12	27	18	0	0	0	0	0	0	0	0.0	0	0.0	1	1	1	0
8659	S6	2019	12	27	19	0	0	0	0	0	0	0.266666679332666023416464895490207709372043609619140625	0.0	0	0.0	1	1	1	0
8660	S6	2019	12	27	20	0	0	0	0	0	0	0	0.0	0	0.0	1	1	1	0
8661	S6	2019	12	27	21	0	0	0	0	0	0	0	0.0	0	0.0	1	1	1	0
8662	S6	2019	12	27	22	0	0	0	0	0	0	0	0.0	0	0.0	1	1	1	0
8663	S6	2019	12	27	23	0	0	0	0	0	0	0	0.0	0	0.0	1	1	1	0
8664	S6	2019	12	27	24	0	0	0	0	0	0	0	0.0	0	0.0	1	1	1	0
8665	S6	2019	12	28	1	0	0	0	0	0	0	0	0.0	0	0.0	1	1	1	0
8666	S6	2019	12	28	2	0	0	0	0	0	0	0	0.0	0	0.0	1	1	1	0
8667	S6	2019	12	28	3	0	0	0	0	0	0	0	0.0	0	0.0	1	1	1	0
8668	S6	2019	12	28	4	0	0	0	0	0	0	0	0.0	0	0.0	1	1	1	0
8669	S6	2019	12	28	5	0	0	0	0	0	0	0	0.0	0	0.0	1	1	1	0
8670	S6	2019	12	28	6	0	0	0	0	0	0	0	0.0	0	0.0	1	1	1	0
8671	S6	2019	12	28	7	0	0	0	0	0	0	0	0.0	0	0.0	1	1	1	0
8672	S6	2019	12	28	8	0	0	0	0	0	0	0	0.0	0	0.0	1	1	1	0
8673	S6	2019	12	28	9	8.3294249672487499225326246232725679874420166015625	0.2004158368940089918197600127314217388629913330078125	8.4553527142628102097887676791287958621978759765625	-1.479518067405880099585147036123089492321014404296875	76.4855412862386998540387139655649662017822265625	0.61445783599313397171925998918595723807811737060546875	3.200000072441360199348991955048404633998870849609375	0.0	119.094928431634997423316235654056072235107421875	0.0	1	1	1	0
8674	S6	2019	12	28	10	26.60431687302050107746254070661962032318115234375	0.34498751771946700728221912868320941925048828125	26.711965950330100127985133440233767032623291015625	-1.0961111128330200958913565045804716646671295166015625	76.09388898213700258565950207412242889404296875	0.67500000306301599639624555493355728685855865478515625	26.1333335191011002507366356439888477325439453125	0.0	763.320825373132038293988443911075592041015625	0.0	1	1	1	1
8675	S6	2019	12	28	11	44.42496186362370025335621903650462627410888671875	0.35105163194239097368409829869051463901996612548828125	44.644683021969200353851192630827426910400390625	-0.85944444338480596723428561745095066726207733154296875	75.903055911593895643818541429936885833740234375	0.8297222253349090248519814849714748561382293701171875	40.5833331247169013522579916752874851226806640625	0.0	1192.13559875884993743966333568096160888671875	0.0	1	1	1	1
8676	S6	2019	12	28	12	59.39569870630899828256588079966604709625244140625	0.31518704994685098341733464621938765048980712890625	59.45144726435339777026456431485712528228759765625	-0.62611111402511598900133549250313080847263336181640625	75.81638863881420320467441342771053314208984375	0.91277777651945701808955391243216581642627716064453125	56.39999999354279935914746602065861225128173828125	0.0	1629.397444923710054354160092771053314208984375	0.0	1	1	1	1
8677	S6	2019	12	28	13	80.70380286110770384766510687768459320068359375	1.360446785017840110043607637635432183742523193359375	80.5220747629800968070412636734545230865478515625	-0.5591666756404769511590302499826066195964813232421875	76.3569445716010051228295196779072284698486328125	1.6288888876636800073782751496764831244945526123046875	81.8166664491098032385707483626902103424072265625	0.0	2312.84765154122987951268441975116729736328125	0.0	1	1	1	1
8678	S6	2019	12	28	14	68.2040802743699003940491820685565471649169921875	0.3486093703657380249438801911310292780399322509765625	68.168860594431492927469662390649318695068359375	-0.348888896157343975090725507470779120922088623046875	76.6969452328151959363822243176400661468505859375	1.2372222212453600764803240963374264538288116455078125	64.1666670640309035889004007913172245025634765625	0.0	1862.114594380059998002252541482448577880859375	0.0	1	1	1	1
8679	S6	2019	12	28	15	23.3472036070293000875608413480222225189208984375	0.28682581364280601565752704118494875729084014892578125	23.454036561647999548085863352753221988677978515625	-0.03416666818989640141968067155175958760082721710205078125	77.3547224892510030258563347160816192626953125	1.1238888878789199399221843123086728155612945556640625	19.716666731983398364036474958993494510650634765625	0.0	572.89335702856396892457269132137298583984375	0.0	1	1	1	1
8680	S6	2019	12	28	16	7.782381159587970387292443774640560150146484375	0.24472541347580001325212606388959102332592010498046875	7.91253280176699025361131134559400379657745361328125	-0.0854368944769924032467400820678449235856533050537109375	79.5203888532027036717408918775618076324462890625	1.5398058205553599719905832898803055286407470703125	2.9833333702602597981012877426110208034515380859375	0.0	95.848349768978806650920887477695941925048828125	0.0	1	1	1	1
8681	S6	2019	12	28	17	0	0	0	0	0	0	0	0.0	0	0.0	1	1	1	0
8682	S6	2019	12	28	18	0	0	0	0	0	0	0	0.0	0	0.0	1	1	1	0
8683	S6	2019	12	28	19	0	0	0	0	0	0	0	0.0	0	0.0	1	1	1	0
8684	S6	2019	12	28	20	0	0	0	0	0	0	0	0.0	0	0.0	1	1	1	0
8685	S6	2019	12	28	21	0	0	0	0	0	0	0	0.0	0	0.0	1	1	1	0
8686	S6	2019	12	28	22	0	0	0	0	0	0	0	0.0	0	0.0	1	1	1	0
8687	S6	2019	12	28	23	0	0	0	0	0	0	0	0.0	0	0.0	1	1	1	0
8688	S6	2019	12	28	24	0	0	0	0	0	0	0	0.0	0	0.0	1	1	1	0
8689	S6	2019	12	29	1	0	0	0	0	0	0	0	0.0	0	0.0	1	1	1	0
8690	S6	2019	12	29	2	0	0	0	0	0	0	0	0.0	0	0.0	1	1	1	0
8691	S6	2019	12	29	3	0	0	0	0	0	0	0	0.0	0	0.0	1	1	1	0
8692	S6	2019	12	29	4	0	0	0	0	0	0	0	0.0	0	0.0	1	1	1	0
8693	S6	2019	12	29	5	0	0	0	0	0	0	0	0.0	0	0.0	1	1	1	0
8694	S6	2019	12	29	6	0	0	0	0	0	0	0	0.0	0	0.0	1	1	1	0
8695	S6	2019	12	29	7	0	0	0	0	0	0	0	0.0	0	0.0	1	1	1	0
8696	S6	2019	12	29	8	0	0	0	0	0	0	0	0.0	0	0.0	1	1	1	0
8697	S6	2019	12	29	9	6.30069507000057971168871517875231802463531494140625	0.297097910455492997261472964964923448860645294189453125	6.4219177656395398656741235754452645778656005859375	2.583720880885449933117570253671146929264068603515625	85.5918615474256938568942132405936717987060546875	1.85000000859414992504525798722170293331146240234375	2.0333333775245900909567353664897382259368896484375	0.0	58.86221178031220091497743851505219936370849609375	0.0	1	1	1	0
8698	S6	2019	12	29	10	19.46462577713860042649685055948793888092041015625	0.386951933883957988058455157442949712276458740234375	19.585858950350001350670936517417430877685546875	2.975000000000000088817841970012523233890533447265625	84.5547221501667962684223311953246593475341796875	2.40694444096750004291607183404266834259033203125	18.733333423733601108551738434471189975738525390625	0.0	552.3028880978610004603979177772998809814453125	0.0	1	1	1	1
8699	S6	2019	12	29	11	33.16547879113090147029652143828570842742919921875	0.311714111972186014298813461209647357463836669921875	33.28562616772119753250080975703895092010498046875	2.98611112369431008772835411946289241313934326171875	86.1361120435926039817786659114062786102294921875	3.146944441729119912309897699742577970027923583984375	30.58333356554300053176120854914188385009765625	0.0	923.30460101365997616085223853588104248046875	0.0	1	1	1	1
8700	S6	2019	12	29	12	39.40348718431260266470417263917624950408935546875	0.342348863308628015289514223695732653141021728515625	39.51876799795360284406342543661594390869140625	3.18722220526800992246307941968552768230438232421875	85.3230556488037024109871708787977695465087890625	3.042777772413349790525671778596006333827972412109375	36.800000288834098682855255901813507080078125	0.0	1109.467733403040028861141763627529144287109375	0.0	1	1	1	1
8701	S6	2019	12	29	13	58.76003790300200080309878103435039520263671875	0.358706933293168994669741778125171549618244171142578125	58.792998130607003304248792119324207305908203125	3.625069624866279927033474450581707060337066650390625	83.1871864510112999369084718637168407440185546875	3.28300835960089987253240906284190714359283447265625	54.60000000894069671630859375	0.0	1617.86938061316004677792079746723175048828125	0.0	1	1	1	1
8702	S6	2019	12	29	14	43.29321586820810097151479567401111125946044921875	0.33473158644305300857269003245164640247821807861328125	43.41812850104430054898330126889050006866455078125	3.967777776055859906279010829166509211063385009765625	80.2927780151367045391452847979962825775146484375	2.764166657957760175889916354208253324031829833984375	39.000000276913198149486561305820941925048828125	0.0	1161.335526158409948038752190768718719482421875	0.0	1	1	1	1
8703	S6	2019	12	29	15	23.851597544882000789812082075513899326324462890625	0.3169471288306839884540977436699904501438140869140625	23.9996424992879013871061033569276332855224609375	4.13416663673188988781248554005287587642669677734375	78.2163891050550006411867798306047916412353515625	2.0666666621963099004233299638144671916961669921875	20.083333645016001156591300969012081623077392578125	0.0	614.3397522469359728347626514732837677001953125	0.0	1	1	1	1
8704	S6	2019	12	29	16	5.80429022234898983612083611660636961460113525390625	0.275881565900311986894166693673469126224517822265625	5.91363672746552015979659699951298534870147705078125	4.2671296243314298379800675320439040660858154296875	76.662499816329301438599941320717334747314453125	2.01574074118224988438896616571582853794097900390625	2.266666710299130027550518207135610282421112060546875	0.0	71.9334118533877955314892460592091083526611328125	0.0	1	1	1	1
8705	S6	2019	12	29	17	0	0	0	0	0	0	0	0.0	0	0.0	1	1	1	0
8706	S6	2019	12	29	18	0	0	0	0	0	0	0	0.0	0	0.0	1	1	1	0
8707	S6	2019	12	29	19	0	0	0	0	0	0	0	0.0	0	0.0	1	1	1	0
8708	S6	2019	12	29	20	0	0	0	0	0	0	0	0.0	0	0.0	1	1	1	0
8709	S6	2019	12	29	21	0	0	0	0	0	0	0	0.0	0	0.0	1	1	1	0
8710	S6	2019	12	29	22	0	0	0	0	0	0	0	0.0	0	0.0	1	1	1	0
8711	S6	2019	12	29	23	0	0	0	0	0	0	0	0.0	0	0.0	1	1	1	0
8712	S6	2019	12	29	24	0	0	0	0	0	0	0	0.0	0	0.0	1	1	1	0
8713	S6	2019	12	30	1	0	0	0	0	0	0	0	0.0	0	0.0	1	1	1	0
8714	S6	2019	12	30	2	0	0	0	0	0	0	0	0.0	0	0.0	1	1	1	0
8715	S6	2019	12	30	3	0	0	0	0	0	0	0	0.0	0	0.0	1	1	1	0
8716	S6	2019	12	30	4	0	0	0	0	0	0	0	0.0	0	0.0	1	1	1	0
8717	S6	2019	12	30	5	0	0	0	0	0	0	0	0.0	0	0.0	1	1	1	0
8718	S6	2019	12	30	6	0	0	0	0	0	0	0	0.0	0	0.0	1	1	1	0
8719	S6	2019	12	30	7	0	0	0	0	0	0	0	0.0	0	0.0	1	1	1	0
8720	S6	2019	12	30	8	0	0	0	0	0	0	0	0.0	0	0.0	1	1	1	0
8721	S6	2019	12	30	9	3.32473415798610982818672709981910884380340576171875	0.36889342514295397901236128745949827134609222412109375	3.411103492691399896585835449513979256153106689453125	6.5063492002941298864016061997972428798675537109375	82.417460365900893748403177596628665924072265625	3.807936505665849846735682149301283061504364013671875	1.000000030035149922724713178467936813831329345703125	0.0	22.72103652358050140946943429298698902130126953125	0.0	1	1	1	0
8722	S6	2019	12	30	10	21.41056400272579907095860107801854610443115234375	0.409424265846610013763751112492172978818416595458984375	21.457000921832101170139139867387712001800537109375	6.7386111524369898262420974788255989551544189453125	82.515555169847203842437011189758777618408203125	3.860277769300669792329472329583950340747833251953125	22.5166665855795002926242887042462825775146484375	0.0	631.4558463481570242947782389819622039794921875	0.0	1	1	1	1
8723	S6	2019	12	30	11	53.0114554882049020534395822323858737945556640625	13.29896913468829922067016013897955417633056640625	51.09188687006629692177739343605935573577880859375	7.08111103375752026778400249895639717578887939453125	82.8825002246431949970428831875324249267578125	4.042777764466070067328473669476807117462158203125	51.03333331644520143299814662896096706390380859375	0.0	1506.6882620255100846407003700733184814453125	0.0	1	1	1	1
8724	S6	2019	12	30	12	60.67412056393089869743562303483486175537109375	0.6103009975204860548814167486852966248989105224609375	60.5941597355735979135715751908719539642333984375	7.28638882107204022275936949881725013256072998046875	84.372500462002193444277509115636348724365234375	3.90194444490802982983268520911224186420440673828125	57.0833339976768030510356766171753406524658203125	0.0	1614.705889920390063707600347697734832763671875	0.0	1	1	1	1
8725	S6	2019	12	30	13	48.64240887959790171635177102871239185333251953125	0.48789186759127500803145949248573742806911468505859375	48.51093064414129685246734879910945892333984375	7.47277780373890987419827069970779120922088623046875	86.3052774853176032365809078328311443328857421875	3.5519444353050602103394339792430400848388671875	43.41666667411720226255056331865489482879638671875	0.0	1236.202150334909902085200883448123931884765625	0.0	1	1	1	1
8726	S6	2019	12	30	14	38.02061567836329913916415534913539886474609375	0.28867937100844198727855882680159993469715118408203125	37.99099215931359907472142367623746395111083984375	7.5266666412353497861431605997495353221893310546875	87.36249980926510261269868351519107818603515625	3.143333324624430158422683234675787389278411865234375	33.933333680033598511727177537977695465087890625	0.0	954.59021131197596332640387117862701416015625	0.0	1	1	1	1
8727	S6	2019	12	30	15	40.11016792721210322270053438842296600341796875	7.2865470232235001191156698041595518589019775390625	39.38437230851909731654814095236361026763916015625	7.634166616863669929671232239343225955963134765625	87.5230556064180973407928831875324249267578125	3.23194444096750022055175577406771481037139892578125	50.56666697685910349946425412781536579132080078125	0.0	1208.732172101729929636348970234394073486328125	0.0	1	1	1	1
8728	S6	2019	12	30	16	17.8057144253128996069790446199476718902587890625	5.7411807203687796885560601367615163326263427734375	17.61461172333680025303692673332989215850830078125	7.5674698400688900079558152356185019016265869140625	87.506826439056993649501237086951732635498046875	3.026907629756080186922417851747013628482818603515625	13.9000001208236003691354198963381350040435791015625	0.0	374.4140696944659794098697602748870849609375	0.0	1	1	1	1
8729	S6	2019	12	30	17	0	0	0	0	0	0	0	0.0	0.66947496961803099058130328558036126196384429931640625	0.0	1	1	1	0
8730	S6	2019	12	30	18	0	0	0	0	0	0	0	0.0	0	0.0	1	1	1	0
8731	S6	2019	12	30	19	0	0	0	0	0	0	0	0.0	0	0.0	1	1	1	0
8732	S6	2019	12	30	20	0	0	0	0	0	0	0	0.0	0	0.0	1	1	1	0
8733	S6	2019	12	30	21	0	0	0	0	0	0	0	0.0	0	0.0	1	1	1	0
8734	S6	2019	12	30	22	0	0	0	0	0	0	0	0.0	0	0.0	1	1	1	0
8735	S6	2019	12	30	23	0	0	0	0	0	0	0	0.0	0	0.0	1	1	1	0
8736	S6	2019	12	30	24	0	0	0	0	0	0	0	0.0	0	0.0	1	1	1	0
8737	S6	2019	12	31	1	0	0	0	0	0	0	0	0.0	0	0.0	1	1	1	0
8738	S6	2019	12	31	2	0	0	0	0	0	0	0	0.0	0	0.0	1	1	1	0
8739	S6	2019	12	31	3	0	0	0	0	0	0	0	0.0	0	0.0	1	1	1	0
8740	S6	2019	12	31	4	0	0	0	0	0	0	0	0.0	0	0.0	1	1	1	0
8741	S6	2019	12	31	5	0	0	0	0	0	0	0	0.0	0	0.0	1	1	1	0
8742	S6	2019	12	31	6	0	0	0	0	0	0	0	0.0	0	0.0	1	1	1	0
8743	S6	2019	12	31	7	0	0	0	0	0	0	0	0.0	0	0.0	1	1	1	0
8744	S6	2019	12	31	8	0	0	0	0	0	0	0	0.0	0	0.0	1	1	1	0
8745	S6	2019	12	31	9	8.975243178809559907449511229060590267181396484375	9.0422756671905499814556605997495353221893310546875	8.8281605999644199300746549852192401885986328125	6.692682743072509765625	79.8865856077612050967218237929046154022216796875	3.186585364545260201651899478747509419918060302734375	2.483333352332299792664116466767154633998870849609375	0.0	117.0233785640439947428603773005306720733642578125	0.0	1	1	1	0
8746	S6	2019	12	31	10	40.90176646709439722826573415659368038177490234375	188.7699647691509881042293272912502288818359375	24.4929737011591015516387415118515491485595703125	6.852777829435130030333311879076063632965087890625	78.1502772649129013871061033569276332855224609375	2.95833332472377019684017795952968299388885498046875	22.950000114118001448559880373068153858184814453125	0.0	821.5761041889569469276466406881809234619140625	0.0	1	1	1	1
8747	S6	2019	12	31	11	108.0797624588009995250104111619293689727783203125	445.8050534566240230560651980340480804443359375	42.2204468303255993077982566319406032562255859375	7.1747221191724097622000044793821871280670166015625	76.6841669718424014945412636734545230865478515625	2.749166662991040066543746434035710990428924560546875	42.11666646103059719052907894365489482879638671875	0.0	3950.1915417611699012923054397106170654296875	0.0	1	1	1	1
8748	S6	2019	12	31	12	155.153662851120998311671428382396697998046875	524.7293442514200023651937954127788543701171875	59.1170559459261966139820287935435771942138671875	7.28833337624867017012775249895639717578887939453125	76.8233333587646001205939683131873607635498046875	2.775277772380240204341816934174858033657073974609375	70.116667014857199546895571984350681304931640625	0.0	5804.358841975519681000150740146636962890625	0.0	1	1	1	1
8749	S6	2019	12	31	13	129.99916648864700619014911353588104248046875	313.7484974794909931006259284913539886474609375	69.6528503100076932241790927946567535400390625	7.13833335240680977307192733860574662685394287109375	75.023333358764602962764911353588104248046875	2.1363888862232300880350521765649318695068359375	289.116666962702993259881623089313507080078125	0.0	4807.539514700560175697319209575653076171875	0.0	1	1	1	1
8750	S6	2019	12	31	14	104.271818383533997121048741973936557769775390625	201.388605101736999358763569034636020660400390625	70.7379161410861030390151427127420902252197265625	6.7799999952316198914559208787977695465087890625	75.31166648864740409408113919198513031005859375	1.05666666626930005890017127967439591884613037109375	220.7666665315620093679171986877918243408203125	0.0	3874.41873823603009441285394132137298583984375	0.0	1	1	1	1
8751	S6	2019	12	31	15	59.63343429035609943866802495904266834259033203125	235.850620619454986126584117300808429718017578125	33.05124017927379753700733999721705913543701171875	6.430000011126200121225338079966604709625244140625	76.4150001525878934671709430404007434844970703125	1.398888885229820022715330196660943329334259033203125	163.60000055283200026678969152271747589111328125	0.0	2218.21352255841020451043732464313507080078125	0.0	1	1	1	1
8752	S6	2019	12	31	16	14.412561401782699732621040311641991138458251953125	23.526038916890200880516204051673412322998046875	13.327300030897500704440972185693681240081787109375	5.85953313181835966361177270300686359405517578125	78.963424267008093693220871500670909881591796875	1.9556420265700500404904005335993133485317230224609375	10.8000000220879002199581009335815906524658203125	0.0	310.4998975060869952358189038932323455810546875	0.0	1	1	1	1
8753	S6	2019	12	31	17	0	0	0	0	0	0	0	0.0	0.117038330063223006138883874882594682276248931884765625	0.0	1	1	1	0
8754	S6	2019	12	31	18	0	0	0	0	0	0	0	0.0	0	0.0	1	1	1	0
8755	S6	2019	12	31	19	0	0	0	0	0	0	0	0.0	0	0.0	1	1	1	0
8756	S6	2019	12	31	20	0	0	0	0	0	0	0	0.0	0	0.0	1	1	1	0
8757	S6	2019	12	31	21	0	0	0	0	0	0	0	0.0	0	0.0	1	1	1	0
8758	S6	2019	12	31	22	0	0	0	0	0	0	0	0.0	0	0.0	1	1	1	0
8759	S6	2019	12	31	23	0	0	0	0	0	0	0	0.0	0	0.0	1	1	1	0
8760	S6	2019	12	31	24	0	0	0	0	0	0	0	0.0	0	0.0	1	1	1	0
